<?xml version="1.0" encoding="UTF-8" standalone="no" ?>
<gpx xmlns="http://www.topografix.com/GPX/1/1" xmlns:xsi="http://www.w3.org/2001/XMLSchema-instance" xsi:schemaLocation="http://www.topografix.com/GPX/1/1 http://www.topografix.com/GPX/1/1/gpx.xsd" version="1.1" creator="VisuGPX - https://www.visugpx.com">
  <metadata>
    <name>Pont de Metz </name>
  </metadata>
  <trk>
    <name><![CDATA[Pont de Metz _1]]></name>
    <trkseg>
      <trkpt lat="49.89258" lon="2.27452">
        <ele>23.8</ele>
        <time>2023-06-23T12:01:31Z</time>
      </trkpt>
      <trkpt lat="49.89255" lon="2.27454">
        <ele>23.8</ele>
        <time>2023-06-23T12:01:32Z</time>
      </trkpt>
      <trkpt lat="49.89258" lon="2.27458">
        <ele>23.8</ele>
        <time>2023-06-23T12:01:33Z</time>
      </trkpt>
      <trkpt lat="49.89259" lon="2.27459">
        <ele>23.8</ele>
        <time>2023-06-23T12:01:34Z</time>
      </trkpt>
      <trkpt lat="49.8926" lon="2.2746">
        <ele>23.8</ele>
        <time>2023-06-23T12:01:35Z</time>
      </trkpt>
      <trkpt lat="49.8926" lon="2.2746">
        <ele>23.8</ele>
        <time>2023-06-23T12:01:36Z</time>
      </trkpt>
      <trkpt lat="49.8926" lon="2.27459">
        <ele>23.8</ele>
        <time>2023-06-23T12:01:38Z</time>
      </trkpt>
      <trkpt lat="49.8926" lon="2.27457">
        <ele>23.8</ele>
        <time>2023-06-23T12:01:40Z</time>
      </trkpt>
      <trkpt lat="49.8926" lon="2.27455">
        <ele>23.8</ele>
        <time>2023-06-23T12:01:41Z</time>
      </trkpt>
      <trkpt lat="49.89259" lon="2.27454">
        <ele>23.8</ele>
        <time>2023-06-23T12:01:42Z</time>
      </trkpt>
      <trkpt lat="49.89258" lon="2.27453">
        <ele>23.8</ele>
        <time>2023-06-23T12:01:43Z</time>
      </trkpt>
      <trkpt lat="49.89257" lon="2.2745">
        <ele>23.8</ele>
        <time>2023-06-23T12:01:45Z</time>
      </trkpt>
      <trkpt lat="49.89255" lon="2.27447">
        <ele>23.8</ele>
        <time>2023-06-23T12:01:46Z</time>
      </trkpt>
      <trkpt lat="49.89254" lon="2.27445">
        <ele>23.8</ele>
        <time>2023-06-23T12:01:47Z</time>
      </trkpt>
      <trkpt lat="49.89253" lon="2.27443">
        <ele>23.8</ele>
        <time>2023-06-23T12:01:48Z</time>
      </trkpt>
      <trkpt lat="49.89252" lon="2.27441">
        <ele>23.8</ele>
        <time>2023-06-23T12:01:49Z</time>
      </trkpt>
      <trkpt lat="49.89251" lon="2.2744">
        <ele>23.8</ele>
        <time>2023-06-23T12:01:50Z</time>
      </trkpt>
      <trkpt lat="49.8925" lon="2.27438">
        <ele>23.8</ele>
        <time>2023-06-23T12:01:51Z</time>
      </trkpt>
      <trkpt lat="49.89249" lon="2.27437">
        <ele>23.8</ele>
        <time>2023-06-23T12:01:53Z</time>
      </trkpt>
      <trkpt lat="49.89248" lon="2.27436">
        <ele>23.8</ele>
        <time>2023-06-23T12:01:54Z</time>
      </trkpt>
      <trkpt lat="49.89247" lon="2.27435">
        <ele>23.8</ele>
        <time>2023-06-23T12:01:55Z</time>
      </trkpt>
      <trkpt lat="49.89246" lon="2.27434">
        <ele>23.8</ele>
        <time>2023-06-23T12:01:56Z</time>
      </trkpt>
      <trkpt lat="49.89245" lon="2.27434">
        <ele>23.8</ele>
        <time>2023-06-23T12:01:58Z</time>
      </trkpt>
      <trkpt lat="49.89245" lon="2.27433">
        <ele>23.8</ele>
        <time>2023-06-23T12:01:59Z</time>
      </trkpt>
      <trkpt lat="49.89244" lon="2.27432">
        <ele>23.8</ele>
        <time>2023-06-23T12:02:00Z</time>
      </trkpt>
      <trkpt lat="49.89243" lon="2.27432">
        <ele>23.8</ele>
        <time>2023-06-23T12:02:01Z</time>
      </trkpt>
      <trkpt lat="49.89243" lon="2.27431">
        <ele>23.8</ele>
        <time>2023-06-23T12:02:02Z</time>
      </trkpt>
      <trkpt lat="49.89243" lon="2.2743">
        <ele>23.8</ele>
        <time>2023-06-23T12:02:03Z</time>
      </trkpt>
      <trkpt lat="49.89242" lon="2.2743">
        <ele>23.8</ele>
        <time>2023-06-23T12:02:05Z</time>
      </trkpt>
      <trkpt lat="49.89242" lon="2.27429">
        <ele>23.8</ele>
        <time>2023-06-23T12:02:07Z</time>
      </trkpt>
      <trkpt lat="49.89242" lon="2.27429">
        <ele>23.8</ele>
        <time>2023-06-23T12:02:08Z</time>
      </trkpt>
      <trkpt lat="49.89241" lon="2.27429">
        <ele>23.8</ele>
        <time>2023-06-23T12:02:09Z</time>
      </trkpt>
      <trkpt lat="49.89241" lon="2.27428">
        <ele>23.8</ele>
        <time>2023-06-23T12:02:10Z</time>
      </trkpt>
      <trkpt lat="49.89241" lon="2.27428">
        <ele>23.8</ele>
        <time>2023-06-23T12:02:12Z</time>
      </trkpt>
      <trkpt lat="49.89241" lon="2.27428">
        <ele>23.8</ele>
        <time>2023-06-23T12:02:13Z</time>
      </trkpt>
      <trkpt lat="49.89241" lon="2.27428">
        <ele>23.8</ele>
        <time>2023-06-23T12:02:14Z</time>
      </trkpt>
      <trkpt lat="49.89241" lon="2.27427">
        <ele>23.8</ele>
        <time>2023-06-23T12:02:15Z</time>
      </trkpt>
      <trkpt lat="49.89241" lon="2.27427">
        <ele>23.8</ele>
        <time>2023-06-23T12:02:16Z</time>
      </trkpt>
      <trkpt lat="49.8924" lon="2.27426">
        <ele>23.8</ele>
        <time>2023-06-23T12:02:18Z</time>
      </trkpt>
      <trkpt lat="49.89239" lon="2.27425">
        <ele>23.8</ele>
        <time>2023-06-23T12:02:19Z</time>
      </trkpt>
      <trkpt lat="49.89239" lon="2.27424">
        <ele>23.8</ele>
        <time>2023-06-23T12:02:20Z</time>
      </trkpt>
      <trkpt lat="49.89238" lon="2.27423">
        <ele>23.8</ele>
        <time>2023-06-23T12:02:21Z</time>
      </trkpt>
      <trkpt lat="49.89238" lon="2.27422">
        <ele>23.8</ele>
        <time>2023-06-23T12:02:22Z</time>
      </trkpt>
      <trkpt lat="49.89238" lon="2.27421">
        <ele>23.8</ele>
        <time>2023-06-23T12:02:23Z</time>
      </trkpt>
      <trkpt lat="49.89237" lon="2.27421">
        <ele>23.8</ele>
        <time>2023-06-23T12:02:24Z</time>
      </trkpt>
      <trkpt lat="49.89237" lon="2.2742">
        <ele>23.8</ele>
        <time>2023-06-23T12:02:26Z</time>
      </trkpt>
      <trkpt lat="49.89237" lon="2.27419">
        <ele>23.8</ele>
        <time>2023-06-23T12:02:27Z</time>
      </trkpt>
      <trkpt lat="49.89237" lon="2.27419">
        <ele>23.8</ele>
        <time>2023-06-23T12:02:28Z</time>
      </trkpt>
      <trkpt lat="49.89236" lon="2.27418">
        <ele>23.8</ele>
        <time>2023-06-23T12:02:29Z</time>
      </trkpt>
      <trkpt lat="49.89236" lon="2.27416">
        <ele>23.8</ele>
        <time>2023-06-23T12:02:30Z</time>
      </trkpt>
      <trkpt lat="49.89235" lon="2.27415">
        <ele>23.8</ele>
        <time>2023-06-23T12:02:32Z</time>
      </trkpt>
      <trkpt lat="49.89234" lon="2.27412">
        <ele>23.8</ele>
        <time>2023-06-23T12:02:33Z</time>
      </trkpt>
      <trkpt lat="49.89232" lon="2.27408">
        <ele>23.8</ele>
        <time>2023-06-23T12:02:34Z</time>
      </trkpt>
      <trkpt lat="49.89232" lon="2.27407">
        <ele>23.8</ele>
        <time>2023-06-23T12:02:35Z</time>
      </trkpt>
      <trkpt lat="49.8923" lon="2.27403">
        <ele>23.7</ele>
        <time>2023-06-23T12:02:36Z</time>
      </trkpt>
      <trkpt lat="49.8923" lon="2.27402">
        <ele>23.7</ele>
        <time>2023-06-23T12:02:37Z</time>
      </trkpt>
      <trkpt lat="49.89229" lon="2.27399">
        <ele>23.7</ele>
        <time>2023-06-23T12:02:38Z</time>
      </trkpt>
      <trkpt lat="49.89228" lon="2.27397">
        <ele>23.7</ele>
        <time>2023-06-23T12:02:40Z</time>
      </trkpt>
      <trkpt lat="49.89227" lon="2.27395">
        <ele>23.7</ele>
        <time>2023-06-23T12:02:41Z</time>
      </trkpt>
      <trkpt lat="49.89225" lon="2.27394">
        <ele>23.7</ele>
        <time>2023-06-23T12:02:42Z</time>
      </trkpt>
      <trkpt lat="49.89224" lon="2.27393">
        <ele>23.7</ele>
        <time>2023-06-23T12:02:43Z</time>
      </trkpt>
      <trkpt lat="49.89223" lon="2.27391">
        <ele>23.7</ele>
        <time>2023-06-23T12:02:45Z</time>
      </trkpt>
      <trkpt lat="49.89222" lon="2.2739">
        <ele>23.7</ele>
        <time>2023-06-23T12:02:46Z</time>
      </trkpt>
      <trkpt lat="49.89221" lon="2.27388">
        <ele>23.7</ele>
        <time>2023-06-23T12:02:47Z</time>
      </trkpt>
      <trkpt lat="49.8922" lon="2.27387">
        <ele>23.7</ele>
        <time>2023-06-23T12:02:48Z</time>
      </trkpt>
      <trkpt lat="49.8922" lon="2.27386">
        <ele>23.7</ele>
        <time>2023-06-23T12:02:49Z</time>
      </trkpt>
      <trkpt lat="49.89219" lon="2.27385">
        <ele>23.7</ele>
        <time>2023-06-23T12:02:50Z</time>
      </trkpt>
      <trkpt lat="49.89218" lon="2.27384">
        <ele>23.7</ele>
        <time>2023-06-23T12:02:52Z</time>
      </trkpt>
      <trkpt lat="49.89217" lon="2.27383">
        <ele>23.7</ele>
        <time>2023-06-23T12:02:53Z</time>
      </trkpt>
      <trkpt lat="49.89217" lon="2.27381">
        <ele>23.7</ele>
        <time>2023-06-23T12:02:54Z</time>
      </trkpt>
      <trkpt lat="49.89216" lon="2.2738">
        <ele>23.7</ele>
        <time>2023-06-23T12:02:55Z</time>
      </trkpt>
      <trkpt lat="49.89215" lon="2.27378">
        <ele>23.7</ele>
        <time>2023-06-23T12:02:56Z</time>
      </trkpt>
      <trkpt lat="49.89214" lon="2.27376">
        <ele>23.7</ele>
        <time>2023-06-23T12:02:58Z</time>
      </trkpt>
      <trkpt lat="49.89213" lon="2.27375">
        <ele>23.7</ele>
        <time>2023-06-23T12:02:59Z</time>
      </trkpt>
      <trkpt lat="49.89213" lon="2.27374">
        <ele>23.7</ele>
        <time>2023-06-23T12:03:00Z</time>
      </trkpt>
      <trkpt lat="49.89212" lon="2.27372">
        <ele>23.7</ele>
        <time>2023-06-23T12:03:02Z</time>
      </trkpt>
      <trkpt lat="49.89211" lon="2.27371">
        <ele>23.7</ele>
        <time>2023-06-23T12:03:03Z</time>
      </trkpt>
      <trkpt lat="49.89211" lon="2.27369">
        <ele>23.7</ele>
        <time>2023-06-23T12:03:04Z</time>
      </trkpt>
      <trkpt lat="49.8921" lon="2.27368">
        <ele>23.7</ele>
        <time>2023-06-23T12:03:05Z</time>
      </trkpt>
      <trkpt lat="49.89209" lon="2.27366">
        <ele>23.7</ele>
        <time>2023-06-23T12:03:06Z</time>
      </trkpt>
      <trkpt lat="49.89207" lon="2.27364">
        <ele>23.7</ele>
        <time>2023-06-23T12:03:08Z</time>
      </trkpt>
      <trkpt lat="49.89206" lon="2.27363">
        <ele>23.7</ele>
        <time>2023-06-23T12:03:09Z</time>
      </trkpt>
      <trkpt lat="49.89206" lon="2.27362">
        <ele>23.7</ele>
        <time>2023-06-23T12:03:10Z</time>
      </trkpt>
      <trkpt lat="49.89205" lon="2.27361">
        <ele>23.7</ele>
        <time>2023-06-23T12:03:11Z</time>
      </trkpt>
      <trkpt lat="49.89204" lon="2.27359">
        <ele>23.7</ele>
        <time>2023-06-23T12:03:12Z</time>
      </trkpt>
      <trkpt lat="49.89204" lon="2.27359">
        <ele>23.7</ele>
        <time>2023-06-23T12:03:13Z</time>
      </trkpt>
      <trkpt lat="49.89203" lon="2.27358">
        <ele>23.7</ele>
        <time>2023-06-23T12:03:14Z</time>
      </trkpt>
      <trkpt lat="49.89203" lon="2.27357">
        <ele>23.7</ele>
        <time>2023-06-23T12:03:16Z</time>
      </trkpt>
      <trkpt lat="49.89202" lon="2.27357">
        <ele>23.7</ele>
        <time>2023-06-23T12:03:17Z</time>
      </trkpt>
      <trkpt lat="49.89202" lon="2.27356">
        <ele>23.7</ele>
        <time>2023-06-23T12:03:18Z</time>
      </trkpt>
      <trkpt lat="49.89202" lon="2.27355">
        <ele>23.7</ele>
        <time>2023-06-23T12:03:19Z</time>
      </trkpt>
      <trkpt lat="49.89201" lon="2.27355">
        <ele>23.7</ele>
        <time>2023-06-23T12:03:20Z</time>
      </trkpt>
      <trkpt lat="49.89201" lon="2.27354">
        <ele>23.7</ele>
        <time>2023-06-23T12:03:21Z</time>
      </trkpt>
      <trkpt lat="49.89201" lon="2.27353">
        <ele>23.7</ele>
        <time>2023-06-23T12:03:22Z</time>
      </trkpt>
      <trkpt lat="49.892" lon="2.27352">
        <ele>23.7</ele>
        <time>2023-06-23T12:03:24Z</time>
      </trkpt>
      <trkpt lat="49.892" lon="2.27351">
        <ele>23.7</ele>
        <time>2023-06-23T12:03:25Z</time>
      </trkpt>
      <trkpt lat="49.89199" lon="2.2735">
        <ele>23.7</ele>
        <time>2023-06-23T12:03:26Z</time>
      </trkpt>
      <trkpt lat="49.89199" lon="2.27349">
        <ele>23.7</ele>
        <time>2023-06-23T12:03:27Z</time>
      </trkpt>
      <trkpt lat="49.89198" lon="2.27348">
        <ele>23.7</ele>
        <time>2023-06-23T12:03:28Z</time>
      </trkpt>
      <trkpt lat="49.89198" lon="2.27346">
        <ele>23.7</ele>
        <time>2023-06-23T12:03:30Z</time>
      </trkpt>
      <trkpt lat="49.89197" lon="2.27345">
        <ele>23.8</ele>
        <time>2023-06-23T12:03:31Z</time>
      </trkpt>
      <trkpt lat="49.89197" lon="2.27344">
        <ele>23.8</ele>
        <time>2023-06-23T12:03:32Z</time>
      </trkpt>
      <trkpt lat="49.89196" lon="2.27343">
        <ele>23.8</ele>
        <time>2023-06-23T12:03:33Z</time>
      </trkpt>
      <trkpt lat="49.89195" lon="2.27342">
        <ele>23.8</ele>
        <time>2023-06-23T12:03:34Z</time>
      </trkpt>
      <trkpt lat="49.89194" lon="2.2734">
        <ele>23.8</ele>
        <time>2023-06-23T12:03:35Z</time>
      </trkpt>
      <trkpt lat="49.89193" lon="2.2734">
        <ele>23.8</ele>
        <time>2023-06-23T12:03:36Z</time>
      </trkpt>
      <trkpt lat="49.89192" lon="2.27339">
        <ele>23.8</ele>
        <time>2023-06-23T12:03:38Z</time>
      </trkpt>
      <trkpt lat="49.89192" lon="2.27338">
        <ele>23.8</ele>
        <time>2023-06-23T12:03:39Z</time>
      </trkpt>
      <trkpt lat="49.89191" lon="2.27336">
        <ele>23.8</ele>
        <time>2023-06-23T12:03:40Z</time>
      </trkpt>
      <trkpt lat="49.89191" lon="2.27335">
        <ele>23.8</ele>
        <time>2023-06-23T12:03:41Z</time>
      </trkpt>
      <trkpt lat="49.8919" lon="2.27334">
        <ele>23.8</ele>
        <time>2023-06-23T12:03:42Z</time>
      </trkpt>
      <trkpt lat="49.8919" lon="2.27332">
        <ele>23.8</ele>
        <time>2023-06-23T12:03:43Z</time>
      </trkpt>
      <trkpt lat="49.89189" lon="2.27331">
        <ele>23.8</ele>
        <time>2023-06-23T12:03:45Z</time>
      </trkpt>
      <trkpt lat="49.89189" lon="2.2733">
        <ele>23.8</ele>
        <time>2023-06-23T12:03:46Z</time>
      </trkpt>
      <trkpt lat="49.89188" lon="2.27328">
        <ele>23.8</ele>
        <time>2023-06-23T12:03:47Z</time>
      </trkpt>
      <trkpt lat="49.89188" lon="2.27327">
        <ele>23.8</ele>
        <time>2023-06-23T12:03:48Z</time>
      </trkpt>
      <trkpt lat="49.89187" lon="2.27324">
        <ele>23.8</ele>
        <time>2023-06-23T12:03:49Z</time>
      </trkpt>
      <trkpt lat="49.89187" lon="2.27323">
        <ele>23.8</ele>
        <time>2023-06-23T12:03:50Z</time>
      </trkpt>
      <trkpt lat="49.89186" lon="2.27322">
        <ele>23.8</ele>
        <time>2023-06-23T12:03:51Z</time>
      </trkpt>
      <trkpt lat="49.89186" lon="2.27321">
        <ele>23.8</ele>
        <time>2023-06-23T12:03:53Z</time>
      </trkpt>
      <trkpt lat="49.89185" lon="2.2732">
        <ele>23.8</ele>
        <time>2023-06-23T12:03:54Z</time>
      </trkpt>
      <trkpt lat="49.89185" lon="2.27318">
        <ele>23.8</ele>
        <time>2023-06-23T12:03:55Z</time>
      </trkpt>
      <trkpt lat="49.89184" lon="2.27317">
        <ele>23.8</ele>
        <time>2023-06-23T12:03:56Z</time>
      </trkpt>
      <trkpt lat="49.89183" lon="2.27316">
        <ele>23.8</ele>
        <time>2023-06-23T12:03:57Z</time>
      </trkpt>
      <trkpt lat="49.89183" lon="2.27315">
        <ele>23.8</ele>
        <time>2023-06-23T12:03:58Z</time>
      </trkpt>
      <trkpt lat="49.89182" lon="2.27312">
        <ele>23.8</ele>
        <time>2023-06-23T12:03:59Z</time>
      </trkpt>
      <trkpt lat="49.89181" lon="2.27311">
        <ele>23.8</ele>
        <time>2023-06-23T12:04:01Z</time>
      </trkpt>
      <trkpt lat="49.89181" lon="2.2731">
        <ele>23.9</ele>
        <time>2023-06-23T12:04:02Z</time>
      </trkpt>
      <trkpt lat="49.8918" lon="2.27308">
        <ele>23.9</ele>
        <time>2023-06-23T12:04:03Z</time>
      </trkpt>
      <trkpt lat="49.8918" lon="2.27307">
        <ele>23.9</ele>
        <time>2023-06-23T12:04:04Z</time>
      </trkpt>
      <trkpt lat="49.89179" lon="2.27306">
        <ele>23.9</ele>
        <time>2023-06-23T12:04:05Z</time>
      </trkpt>
      <trkpt lat="49.89179" lon="2.27304">
        <ele>23.9</ele>
        <time>2023-06-23T12:04:06Z</time>
      </trkpt>
      <trkpt lat="49.89178" lon="2.27302">
        <ele>23.9</ele>
        <time>2023-06-23T12:04:08Z</time>
      </trkpt>
      <trkpt lat="49.89177" lon="2.27301">
        <ele>23.9</ele>
        <time>2023-06-23T12:04:09Z</time>
      </trkpt>
      <trkpt lat="49.89176" lon="2.273">
        <ele>23.9</ele>
        <time>2023-06-23T12:04:10Z</time>
      </trkpt>
      <trkpt lat="49.89176" lon="2.27298">
        <ele>23.9</ele>
        <time>2023-06-23T12:04:11Z</time>
      </trkpt>
      <trkpt lat="49.89175" lon="2.27297">
        <ele>23.9</ele>
        <time>2023-06-23T12:04:12Z</time>
      </trkpt>
      <trkpt lat="49.89174" lon="2.27295">
        <ele>23.9</ele>
        <time>2023-06-23T12:04:13Z</time>
      </trkpt>
      <trkpt lat="49.89174" lon="2.27294">
        <ele>23.9</ele>
        <time>2023-06-23T12:04:14Z</time>
      </trkpt>
      <trkpt lat="49.89173" lon="2.27292">
        <ele>23.9</ele>
        <time>2023-06-23T12:04:16Z</time>
      </trkpt>
      <trkpt lat="49.89172" lon="2.2729">
        <ele>23.9</ele>
        <time>2023-06-23T12:04:17Z</time>
      </trkpt>
      <trkpt lat="49.89172" lon="2.27289">
        <ele>23.9</ele>
        <time>2023-06-23T12:04:18Z</time>
      </trkpt>
      <trkpt lat="49.89172" lon="2.27288">
        <ele>23.9</ele>
        <time>2023-06-23T12:04:19Z</time>
      </trkpt>
      <trkpt lat="49.89171" lon="2.27286">
        <ele>23.9</ele>
        <time>2023-06-23T12:04:20Z</time>
      </trkpt>
      <trkpt lat="49.89171" lon="2.27284">
        <ele>23.9</ele>
        <time>2023-06-23T12:04:22Z</time>
      </trkpt>
      <trkpt lat="49.8917" lon="2.27282">
        <ele>23.9</ele>
        <time>2023-06-23T12:04:23Z</time>
      </trkpt>
      <trkpt lat="49.8917" lon="2.27281">
        <ele>23.9</ele>
        <time>2023-06-23T12:04:24Z</time>
      </trkpt>
      <trkpt lat="49.89169" lon="2.2728">
        <ele>24</ele>
        <time>2023-06-23T12:04:25Z</time>
      </trkpt>
      <trkpt lat="49.89168" lon="2.27279">
        <ele>24</ele>
        <time>2023-06-23T12:04:26Z</time>
      </trkpt>
      <trkpt lat="49.89168" lon="2.27277">
        <ele>24</ele>
        <time>2023-06-23T12:04:27Z</time>
      </trkpt>
      <trkpt lat="49.89167" lon="2.27276">
        <ele>24</ele>
        <time>2023-06-23T12:04:29Z</time>
      </trkpt>
      <trkpt lat="49.89166" lon="2.27275">
        <ele>24</ele>
        <time>2023-06-23T12:04:30Z</time>
      </trkpt>
      <trkpt lat="49.89166" lon="2.27274">
        <ele>24</ele>
        <time>2023-06-23T12:04:31Z</time>
      </trkpt>
      <trkpt lat="49.89165" lon="2.27272">
        <ele>24</ele>
        <time>2023-06-23T12:04:32Z</time>
      </trkpt>
      <trkpt lat="49.89164" lon="2.27271">
        <ele>24</ele>
        <time>2023-06-23T12:04:33Z</time>
      </trkpt>
      <trkpt lat="49.89163" lon="2.2727">
        <ele>24</ele>
        <time>2023-06-23T12:04:35Z</time>
      </trkpt>
      <trkpt lat="49.89162" lon="2.27269">
        <ele>24</ele>
        <time>2023-06-23T12:04:36Z</time>
      </trkpt>
      <trkpt lat="49.89161" lon="2.27267">
        <ele>24</ele>
        <time>2023-06-23T12:04:37Z</time>
      </trkpt>
      <trkpt lat="49.8916" lon="2.27266">
        <ele>24</ele>
        <time>2023-06-23T12:04:38Z</time>
      </trkpt>
      <trkpt lat="49.89159" lon="2.27265">
        <ele>24</ele>
        <time>2023-06-23T12:04:39Z</time>
      </trkpt>
      <trkpt lat="49.89158" lon="2.27264">
        <ele>24</ele>
        <time>2023-06-23T12:04:40Z</time>
      </trkpt>
      <trkpt lat="49.89157" lon="2.27263">
        <ele>24</ele>
        <time>2023-06-23T12:04:42Z</time>
      </trkpt>
      <trkpt lat="49.89156" lon="2.27261">
        <ele>24.1</ele>
        <time>2023-06-23T12:04:43Z</time>
      </trkpt>
      <trkpt lat="49.89156" lon="2.27259">
        <ele>24.1</ele>
        <time>2023-06-23T12:04:44Z</time>
      </trkpt>
      <trkpt lat="49.89155" lon="2.27258">
        <ele>24.1</ele>
        <time>2023-06-23T12:04:45Z</time>
      </trkpt>
      <trkpt lat="49.89154" lon="2.27257">
        <ele>24.1</ele>
        <time>2023-06-23T12:04:46Z</time>
      </trkpt>
      <trkpt lat="49.89153" lon="2.27255">
        <ele>24.1</ele>
        <time>2023-06-23T12:04:47Z</time>
      </trkpt>
      <trkpt lat="49.89152" lon="2.27254">
        <ele>24.1</ele>
        <time>2023-06-23T12:04:48Z</time>
      </trkpt>
      <trkpt lat="49.89151" lon="2.27252">
        <ele>24.1</ele>
        <time>2023-06-23T12:04:50Z</time>
      </trkpt>
      <trkpt lat="49.8915" lon="2.27251">
        <ele>24.1</ele>
        <time>2023-06-23T12:04:51Z</time>
      </trkpt>
      <trkpt lat="49.89149" lon="2.27249">
        <ele>24.1</ele>
        <time>2023-06-23T12:04:52Z</time>
      </trkpt>
      <trkpt lat="49.89149" lon="2.27248">
        <ele>24.1</ele>
        <time>2023-06-23T12:04:53Z</time>
      </trkpt>
      <trkpt lat="49.89148" lon="2.27247">
        <ele>24.1</ele>
        <time>2023-06-23T12:04:54Z</time>
      </trkpt>
      <trkpt lat="49.89147" lon="2.27245">
        <ele>24.1</ele>
        <time>2023-06-23T12:04:55Z</time>
      </trkpt>
      <trkpt lat="49.89146" lon="2.27244">
        <ele>24.1</ele>
        <time>2023-06-23T12:04:57Z</time>
      </trkpt>
      <trkpt lat="49.89145" lon="2.27242">
        <ele>24.2</ele>
        <time>2023-06-23T12:04:58Z</time>
      </trkpt>
      <trkpt lat="49.89145" lon="2.27241">
        <ele>24.2</ele>
        <time>2023-06-23T12:04:59Z</time>
      </trkpt>
      <trkpt lat="49.89144" lon="2.27239">
        <ele>24.2</ele>
        <time>2023-06-23T12:05:00Z</time>
      </trkpt>
      <trkpt lat="49.89143" lon="2.27238">
        <ele>24.2</ele>
        <time>2023-06-23T12:05:01Z</time>
      </trkpt>
      <trkpt lat="49.89142" lon="2.27235">
        <ele>24.2</ele>
        <time>2023-06-23T12:05:02Z</time>
      </trkpt>
      <trkpt lat="49.89142" lon="2.27233">
        <ele>24.2</ele>
        <time>2023-06-23T12:05:03Z</time>
      </trkpt>
      <trkpt lat="49.89141" lon="2.27232">
        <ele>24.2</ele>
        <time>2023-06-23T12:05:05Z</time>
      </trkpt>
      <trkpt lat="49.89141" lon="2.27231">
        <ele>24.2</ele>
        <time>2023-06-23T12:05:06Z</time>
      </trkpt>
      <trkpt lat="49.8914" lon="2.27229">
        <ele>24.2</ele>
        <time>2023-06-23T12:05:07Z</time>
      </trkpt>
      <trkpt lat="49.8914" lon="2.27228">
        <ele>24.2</ele>
        <time>2023-06-23T12:05:08Z</time>
      </trkpt>
      <trkpt lat="49.8914" lon="2.27227">
        <ele>24.2</ele>
        <time>2023-06-23T12:05:09Z</time>
      </trkpt>
      <trkpt lat="49.89139" lon="2.27226">
        <ele>24.2</ele>
        <time>2023-06-23T12:05:10Z</time>
      </trkpt>
      <trkpt lat="49.89139" lon="2.27224">
        <ele>24.2</ele>
        <time>2023-06-23T12:05:12Z</time>
      </trkpt>
      <trkpt lat="49.89138" lon="2.27222">
        <ele>24.2</ele>
        <time>2023-06-23T12:05:13Z</time>
      </trkpt>
      <trkpt lat="49.89138" lon="2.2722">
        <ele>24.2</ele>
        <time>2023-06-23T12:05:14Z</time>
      </trkpt>
      <trkpt lat="49.89137" lon="2.27219">
        <ele>24.3</ele>
        <time>2023-06-23T12:05:15Z</time>
      </trkpt>
      <trkpt lat="49.89137" lon="2.27218">
        <ele>24.3</ele>
        <time>2023-06-23T12:05:16Z</time>
      </trkpt>
      <trkpt lat="49.89136" lon="2.27215">
        <ele>24.3</ele>
        <time>2023-06-23T12:05:17Z</time>
      </trkpt>
      <trkpt lat="49.89136" lon="2.27214">
        <ele>24.3</ele>
        <time>2023-06-23T12:05:19Z</time>
      </trkpt>
      <trkpt lat="49.89135" lon="2.27213">
        <ele>24.3</ele>
        <time>2023-06-23T12:05:20Z</time>
      </trkpt>
      <trkpt lat="49.89135" lon="2.27211">
        <ele>24.3</ele>
        <time>2023-06-23T12:05:21Z</time>
      </trkpt>
      <trkpt lat="49.89133" lon="2.27208">
        <ele>24.3</ele>
        <time>2023-06-23T12:05:22Z</time>
      </trkpt>
      <trkpt lat="49.89133" lon="2.27207">
        <ele>24.3</ele>
        <time>2023-06-23T12:05:23Z</time>
      </trkpt>
      <trkpt lat="49.89132" lon="2.27206">
        <ele>24.3</ele>
        <time>2023-06-23T12:05:25Z</time>
      </trkpt>
      <trkpt lat="49.89132" lon="2.27205">
        <ele>24.3</ele>
        <time>2023-06-23T12:05:26Z</time>
      </trkpt>
      <trkpt lat="49.89131" lon="2.27203">
        <ele>24.3</ele>
        <time>2023-06-23T12:05:27Z</time>
      </trkpt>
      <trkpt lat="49.8913" lon="2.27202">
        <ele>24.3</ele>
        <time>2023-06-23T12:05:28Z</time>
      </trkpt>
      <trkpt lat="49.89129" lon="2.272">
        <ele>24.3</ele>
        <time>2023-06-23T12:05:29Z</time>
      </trkpt>
      <trkpt lat="49.89128" lon="2.27199">
        <ele>24.3</ele>
        <time>2023-06-23T12:05:30Z</time>
      </trkpt>
      <trkpt lat="49.89128" lon="2.27198">
        <ele>24.3</ele>
        <time>2023-06-23T12:05:32Z</time>
      </trkpt>
      <trkpt lat="49.89127" lon="2.27197">
        <ele>24.3</ele>
        <time>2023-06-23T12:05:33Z</time>
      </trkpt>
      <trkpt lat="49.89126" lon="2.27196">
        <ele>24.3</ele>
        <time>2023-06-23T12:05:34Z</time>
      </trkpt>
      <trkpt lat="49.89126" lon="2.27195">
        <ele>24.3</ele>
        <time>2023-06-23T12:05:35Z</time>
      </trkpt>
      <trkpt lat="49.89124" lon="2.27193">
        <ele>24.4</ele>
        <time>2023-06-23T12:05:36Z</time>
      </trkpt>
      <trkpt lat="49.89123" lon="2.27192">
        <ele>24.4</ele>
        <time>2023-06-23T12:05:37Z</time>
      </trkpt>
      <trkpt lat="49.89122" lon="2.27191">
        <ele>24.4</ele>
        <time>2023-06-23T12:05:38Z</time>
      </trkpt>
      <trkpt lat="49.8912" lon="2.27189">
        <ele>24.4</ele>
        <time>2023-06-23T12:05:40Z</time>
      </trkpt>
      <trkpt lat="49.8912" lon="2.27188">
        <ele>24.4</ele>
        <time>2023-06-23T12:05:41Z</time>
      </trkpt>
      <trkpt lat="49.89119" lon="2.27187">
        <ele>24.4</ele>
        <time>2023-06-23T12:05:42Z</time>
      </trkpt>
      <trkpt lat="49.89117" lon="2.27185">
        <ele>24.4</ele>
        <time>2023-06-23T12:05:43Z</time>
      </trkpt>
      <trkpt lat="49.89117" lon="2.27184">
        <ele>24.4</ele>
        <time>2023-06-23T12:05:44Z</time>
      </trkpt>
      <trkpt lat="49.89116" lon="2.27183">
        <ele>24.4</ele>
        <time>2023-06-23T12:05:45Z</time>
      </trkpt>
      <trkpt lat="49.89115" lon="2.27181">
        <ele>24.4</ele>
        <time>2023-06-23T12:05:46Z</time>
      </trkpt>
      <trkpt lat="49.89115" lon="2.2718">
        <ele>24.4</ele>
        <time>2023-06-23T12:05:47Z</time>
      </trkpt>
      <trkpt lat="49.89113" lon="2.27177">
        <ele>24.4</ele>
        <time>2023-06-23T12:05:48Z</time>
      </trkpt>
      <trkpt lat="49.89112" lon="2.27175">
        <ele>24.4</ele>
        <time>2023-06-23T12:05:50Z</time>
      </trkpt>
      <trkpt lat="49.89111" lon="2.27174">
        <ele>24.4</ele>
        <time>2023-06-23T12:05:51Z</time>
      </trkpt>
      <trkpt lat="49.89111" lon="2.27173">
        <ele>24.4</ele>
        <time>2023-06-23T12:05:52Z</time>
      </trkpt>
      <trkpt lat="49.8911" lon="2.27171">
        <ele>24.4</ele>
        <time>2023-06-23T12:05:53Z</time>
      </trkpt>
      <trkpt lat="49.89109" lon="2.27171">
        <ele>24.4</ele>
        <time>2023-06-23T12:05:54Z</time>
      </trkpt>
      <trkpt lat="49.89109" lon="2.27169">
        <ele>24.4</ele>
        <time>2023-06-23T12:05:55Z</time>
      </trkpt>
      <trkpt lat="49.89108" lon="2.27169">
        <ele>24.4</ele>
        <time>2023-06-23T12:05:56Z</time>
      </trkpt>
      <trkpt lat="49.89107" lon="2.27167">
        <ele>24.5</ele>
        <time>2023-06-23T12:05:57Z</time>
      </trkpt>
      <trkpt lat="49.89106" lon="2.27166">
        <ele>24.5</ele>
        <time>2023-06-23T12:05:58Z</time>
      </trkpt>
      <trkpt lat="49.89106" lon="2.27165">
        <ele>24.5</ele>
        <time>2023-06-23T12:06:00Z</time>
      </trkpt>
      <trkpt lat="49.89105" lon="2.27163">
        <ele>24.5</ele>
        <time>2023-06-23T12:06:01Z</time>
      </trkpt>
      <trkpt lat="49.89105" lon="2.27162">
        <ele>24.5</ele>
        <time>2023-06-23T12:06:02Z</time>
      </trkpt>
      <trkpt lat="49.89104" lon="2.2716">
        <ele>24.5</ele>
        <time>2023-06-23T12:06:03Z</time>
      </trkpt>
      <trkpt lat="49.89103" lon="2.27159">
        <ele>24.5</ele>
        <time>2023-06-23T12:06:04Z</time>
      </trkpt>
      <trkpt lat="49.89103" lon="2.27158">
        <ele>24.5</ele>
        <time>2023-06-23T12:06:05Z</time>
      </trkpt>
      <trkpt lat="49.89102" lon="2.27157">
        <ele>24.5</ele>
        <time>2023-06-23T12:06:06Z</time>
      </trkpt>
      <trkpt lat="49.89102" lon="2.27156">
        <ele>24.5</ele>
        <time>2023-06-23T12:06:07Z</time>
      </trkpt>
      <trkpt lat="49.89102" lon="2.27156">
        <ele>24.5</ele>
        <time>2023-06-23T12:06:08Z</time>
      </trkpt>
      <trkpt lat="49.89101" lon="2.27154">
        <ele>24.5</ele>
        <time>2023-06-23T12:06:10Z</time>
      </trkpt>
      <trkpt lat="49.891" lon="2.27153">
        <ele>24.5</ele>
        <time>2023-06-23T12:06:11Z</time>
      </trkpt>
      <trkpt lat="49.891" lon="2.27151">
        <ele>24.5</ele>
        <time>2023-06-23T12:06:12Z</time>
      </trkpt>
      <trkpt lat="49.89099" lon="2.27149">
        <ele>24.5</ele>
        <time>2023-06-23T12:06:13Z</time>
      </trkpt>
      <trkpt lat="49.89099" lon="2.27148">
        <ele>24.5</ele>
        <time>2023-06-23T12:06:14Z</time>
      </trkpt>
      <trkpt lat="49.89098" lon="2.27147">
        <ele>24.5</ele>
        <time>2023-06-23T12:06:15Z</time>
      </trkpt>
      <trkpt lat="49.89097" lon="2.27144">
        <ele>24.6</ele>
        <time>2023-06-23T12:06:16Z</time>
      </trkpt>
      <trkpt lat="49.89097" lon="2.27143">
        <ele>24.6</ele>
        <time>2023-06-23T12:06:17Z</time>
      </trkpt>
      <trkpt lat="49.89097" lon="2.27142">
        <ele>24.6</ele>
        <time>2023-06-23T12:06:18Z</time>
      </trkpt>
      <trkpt lat="49.89096" lon="2.2714">
        <ele>24.6</ele>
        <time>2023-06-23T12:06:20Z</time>
      </trkpt>
      <trkpt lat="49.89096" lon="2.27138">
        <ele>24.6</ele>
        <time>2023-06-23T12:06:21Z</time>
      </trkpt>
      <trkpt lat="49.89095" lon="2.27137">
        <ele>24.6</ele>
        <time>2023-06-23T12:06:22Z</time>
      </trkpt>
      <trkpt lat="49.89095" lon="2.27133">
        <ele>24.6</ele>
        <time>2023-06-23T12:06:23Z</time>
      </trkpt>
      <trkpt lat="49.89094" lon="2.27132">
        <ele>24.6</ele>
        <time>2023-06-23T12:06:24Z</time>
      </trkpt>
      <trkpt lat="49.89094" lon="2.27131">
        <ele>24.6</ele>
        <time>2023-06-23T12:06:25Z</time>
      </trkpt>
      <trkpt lat="49.89094" lon="2.2713">
        <ele>24.6</ele>
        <time>2023-06-23T12:06:26Z</time>
      </trkpt>
      <trkpt lat="49.89093" lon="2.27128">
        <ele>24.6</ele>
        <time>2023-06-23T12:06:27Z</time>
      </trkpt>
      <trkpt lat="49.89093" lon="2.27125">
        <ele>24.6</ele>
        <time>2023-06-23T12:06:29Z</time>
      </trkpt>
      <trkpt lat="49.89092" lon="2.27124">
        <ele>24.6</ele>
        <time>2023-06-23T12:06:30Z</time>
      </trkpt>
      <trkpt lat="49.89092" lon="2.27123">
        <ele>24.6</ele>
        <time>2023-06-23T12:06:31Z</time>
      </trkpt>
      <trkpt lat="49.89091" lon="2.27121">
        <ele>24.7</ele>
        <time>2023-06-23T12:06:32Z</time>
      </trkpt>
      <trkpt lat="49.89091" lon="2.27119">
        <ele>24.7</ele>
        <time>2023-06-23T12:06:33Z</time>
      </trkpt>
      <trkpt lat="49.8909" lon="2.27117">
        <ele>24.7</ele>
        <time>2023-06-23T12:06:34Z</time>
      </trkpt>
      <trkpt lat="49.89089" lon="2.27116">
        <ele>24.7</ele>
        <time>2023-06-23T12:06:35Z</time>
      </trkpt>
      <trkpt lat="49.89088" lon="2.27115">
        <ele>24.7</ele>
        <time>2023-06-23T12:06:36Z</time>
      </trkpt>
      <trkpt lat="49.89088" lon="2.27113">
        <ele>24.7</ele>
        <time>2023-06-23T12:06:38Z</time>
      </trkpt>
      <trkpt lat="49.89087" lon="2.27112">
        <ele>24.7</ele>
        <time>2023-06-23T12:06:39Z</time>
      </trkpt>
      <trkpt lat="49.89086" lon="2.27111">
        <ele>24.7</ele>
        <time>2023-06-23T12:06:40Z</time>
      </trkpt>
      <trkpt lat="49.89085" lon="2.27109">
        <ele>24.7</ele>
        <time>2023-06-23T12:06:41Z</time>
      </trkpt>
      <trkpt lat="49.89084" lon="2.27107">
        <ele>24.7</ele>
        <time>2023-06-23T12:06:42Z</time>
      </trkpt>
      <trkpt lat="49.89084" lon="2.27106">
        <ele>24.7</ele>
        <time>2023-06-23T12:06:43Z</time>
      </trkpt>
      <trkpt lat="49.89083" lon="2.27105">
        <ele>24.7</ele>
        <time>2023-06-23T12:06:44Z</time>
      </trkpt>
      <trkpt lat="49.89082" lon="2.27102">
        <ele>24.7</ele>
        <time>2023-06-23T12:06:45Z</time>
      </trkpt>
      <trkpt lat="49.89081" lon="2.27101">
        <ele>24.7</ele>
        <time>2023-06-23T12:06:46Z</time>
      </trkpt>
      <trkpt lat="49.89081" lon="2.271">
        <ele>24.7</ele>
        <time>2023-06-23T12:06:48Z</time>
      </trkpt>
      <trkpt lat="49.8908" lon="2.27099">
        <ele>24.7</ele>
        <time>2023-06-23T12:06:49Z</time>
      </trkpt>
      <trkpt lat="49.89079" lon="2.27097">
        <ele>24.7</ele>
        <time>2023-06-23T12:06:50Z</time>
      </trkpt>
      <trkpt lat="49.89079" lon="2.27096">
        <ele>24.7</ele>
        <time>2023-06-23T12:06:51Z</time>
      </trkpt>
      <trkpt lat="49.89078" lon="2.27094">
        <ele>24.7</ele>
        <time>2023-06-23T12:06:52Z</time>
      </trkpt>
      <trkpt lat="49.89078" lon="2.27093">
        <ele>24.7</ele>
        <time>2023-06-23T12:06:53Z</time>
      </trkpt>
      <trkpt lat="49.89077" lon="2.27091">
        <ele>24.8</ele>
        <time>2023-06-23T12:06:54Z</time>
      </trkpt>
      <trkpt lat="49.89076" lon="2.27088">
        <ele>24.8</ele>
        <time>2023-06-23T12:06:55Z</time>
      </trkpt>
      <trkpt lat="49.89076" lon="2.27087">
        <ele>24.8</ele>
        <time>2023-06-23T12:06:56Z</time>
      </trkpt>
      <trkpt lat="49.89075" lon="2.27086">
        <ele>24.8</ele>
        <time>2023-06-23T12:06:58Z</time>
      </trkpt>
      <trkpt lat="49.89075" lon="2.27085">
        <ele>24.8</ele>
        <time>2023-06-23T12:06:59Z</time>
      </trkpt>
      <trkpt lat="49.89074" lon="2.27083">
        <ele>24.8</ele>
        <time>2023-06-23T12:07:00Z</time>
      </trkpt>
      <trkpt lat="49.89073" lon="2.27082">
        <ele>24.8</ele>
        <time>2023-06-23T12:07:01Z</time>
      </trkpt>
      <trkpt lat="49.89072" lon="2.2708">
        <ele>24.8</ele>
        <time>2023-06-23T12:07:02Z</time>
      </trkpt>
      <trkpt lat="49.89072" lon="2.27078">
        <ele>24.8</ele>
        <time>2023-06-23T12:07:03Z</time>
      </trkpt>
      <trkpt lat="49.89071" lon="2.27077">
        <ele>24.8</ele>
        <time>2023-06-23T12:07:04Z</time>
      </trkpt>
      <trkpt lat="49.8907" lon="2.27076">
        <ele>24.8</ele>
        <time>2023-06-23T12:07:05Z</time>
      </trkpt>
      <trkpt lat="49.8907" lon="2.27074">
        <ele>24.8</ele>
        <time>2023-06-23T12:07:06Z</time>
      </trkpt>
      <trkpt lat="49.89069" lon="2.27073">
        <ele>24.8</ele>
        <time>2023-06-23T12:07:08Z</time>
      </trkpt>
      <trkpt lat="49.89067" lon="2.2707">
        <ele>24.8</ele>
        <time>2023-06-23T12:07:09Z</time>
      </trkpt>
      <trkpt lat="49.89067" lon="2.27069">
        <ele>24.8</ele>
        <time>2023-06-23T12:07:10Z</time>
      </trkpt>
      <trkpt lat="49.89065" lon="2.27066">
        <ele>24.9</ele>
        <time>2023-06-23T12:07:11Z</time>
      </trkpt>
      <trkpt lat="49.89065" lon="2.27065">
        <ele>24.9</ele>
        <time>2023-06-23T12:07:12Z</time>
      </trkpt>
      <trkpt lat="49.89065" lon="2.27064">
        <ele>24.9</ele>
        <time>2023-06-23T12:07:13Z</time>
      </trkpt>
      <trkpt lat="49.89064" lon="2.27062">
        <ele>24.9</ele>
        <time>2023-06-23T12:07:14Z</time>
      </trkpt>
      <trkpt lat="49.89063" lon="2.27061">
        <ele>24.9</ele>
        <time>2023-06-23T12:07:15Z</time>
      </trkpt>
      <trkpt lat="49.89063" lon="2.2706">
        <ele>24.9</ele>
        <time>2023-06-23T12:07:16Z</time>
      </trkpt>
      <trkpt lat="49.89062" lon="2.27058">
        <ele>24.9</ele>
        <time>2023-06-23T12:07:18Z</time>
      </trkpt>
      <trkpt lat="49.89061" lon="2.27056">
        <ele>24.9</ele>
        <time>2023-06-23T12:07:19Z</time>
      </trkpt>
      <trkpt lat="49.8906" lon="2.27055">
        <ele>24.9</ele>
        <time>2023-06-23T12:07:20Z</time>
      </trkpt>
      <trkpt lat="49.8906" lon="2.27054">
        <ele>24.9</ele>
        <time>2023-06-23T12:07:21Z</time>
      </trkpt>
      <trkpt lat="49.89059" lon="2.27053">
        <ele>24.9</ele>
        <time>2023-06-23T12:07:22Z</time>
      </trkpt>
      <trkpt lat="49.89058" lon="2.2705">
        <ele>24.9</ele>
        <time>2023-06-23T12:07:23Z</time>
      </trkpt>
      <trkpt lat="49.89058" lon="2.27049">
        <ele>24.9</ele>
        <time>2023-06-23T12:07:24Z</time>
      </trkpt>
      <trkpt lat="49.89057" lon="2.27048">
        <ele>24.9</ele>
        <time>2023-06-23T12:07:25Z</time>
      </trkpt>
      <trkpt lat="49.89056" lon="2.27045">
        <ele>24.9</ele>
        <time>2023-06-23T12:07:26Z</time>
      </trkpt>
      <trkpt lat="49.89056" lon="2.27044">
        <ele>24.9</ele>
        <time>2023-06-23T12:07:28Z</time>
      </trkpt>
      <trkpt lat="49.89055" lon="2.27042">
        <ele>24.9</ele>
        <time>2023-06-23T12:07:29Z</time>
      </trkpt>
      <trkpt lat="49.89055" lon="2.27041">
        <ele>24.9</ele>
        <time>2023-06-23T12:07:30Z</time>
      </trkpt>
      <trkpt lat="49.89054" lon="2.2704">
        <ele>25</ele>
        <time>2023-06-23T12:07:31Z</time>
      </trkpt>
      <trkpt lat="49.89054" lon="2.27038">
        <ele>25</ele>
        <time>2023-06-23T12:07:32Z</time>
      </trkpt>
      <trkpt lat="49.89053" lon="2.27036">
        <ele>25</ele>
        <time>2023-06-23T12:07:33Z</time>
      </trkpt>
      <trkpt lat="49.89052" lon="2.27034">
        <ele>25</ele>
        <time>2023-06-23T12:07:34Z</time>
      </trkpt>
      <trkpt lat="49.89052" lon="2.27034">
        <ele>25</ele>
        <time>2023-06-23T12:07:35Z</time>
      </trkpt>
      <trkpt lat="49.89051" lon="2.27032">
        <ele>25</ele>
        <time>2023-06-23T12:07:36Z</time>
      </trkpt>
      <trkpt lat="49.89051" lon="2.27031">
        <ele>25</ele>
        <time>2023-06-23T12:07:38Z</time>
      </trkpt>
      <trkpt lat="49.89049" lon="2.27028">
        <ele>25</ele>
        <time>2023-06-23T12:07:39Z</time>
      </trkpt>
      <trkpt lat="49.89048" lon="2.27027">
        <ele>25</ele>
        <time>2023-06-23T12:07:40Z</time>
      </trkpt>
      <trkpt lat="49.89047" lon="2.27025">
        <ele>25</ele>
        <time>2023-06-23T12:07:41Z</time>
      </trkpt>
      <trkpt lat="49.89046" lon="2.27025">
        <ele>25</ele>
        <time>2023-06-23T12:07:42Z</time>
      </trkpt>
      <trkpt lat="49.89046" lon="2.27024">
        <ele>25</ele>
        <time>2023-06-23T12:07:43Z</time>
      </trkpt>
      <trkpt lat="49.89045" lon="2.27022">
        <ele>25</ele>
        <time>2023-06-23T12:07:45Z</time>
      </trkpt>
      <trkpt lat="49.89044" lon="2.27021">
        <ele>25</ele>
        <time>2023-06-23T12:07:46Z</time>
      </trkpt>
      <trkpt lat="49.89042" lon="2.27018">
        <ele>25</ele>
        <time>2023-06-23T12:07:47Z</time>
      </trkpt>
      <trkpt lat="49.89042" lon="2.27017">
        <ele>25</ele>
        <time>2023-06-23T12:07:48Z</time>
      </trkpt>
      <trkpt lat="49.89041" lon="2.27015">
        <ele>25</ele>
        <time>2023-06-23T12:07:49Z</time>
      </trkpt>
      <trkpt lat="49.89041" lon="2.27014">
        <ele>25</ele>
        <time>2023-06-23T12:07:50Z</time>
      </trkpt>
      <trkpt lat="49.8904" lon="2.27013">
        <ele>25</ele>
        <time>2023-06-23T12:07:51Z</time>
      </trkpt>
      <trkpt lat="49.89039" lon="2.27011">
        <ele>25.1</ele>
        <time>2023-06-23T12:07:52Z</time>
      </trkpt>
      <trkpt lat="49.89039" lon="2.27009">
        <ele>25.1</ele>
        <time>2023-06-23T12:07:53Z</time>
      </trkpt>
      <trkpt lat="49.89038" lon="2.27007">
        <ele>25.1</ele>
        <time>2023-06-23T12:07:54Z</time>
      </trkpt>
      <trkpt lat="49.89038" lon="2.27005">
        <ele>25.1</ele>
        <time>2023-06-23T12:07:56Z</time>
      </trkpt>
      <trkpt lat="49.89037" lon="2.27004">
        <ele>25.1</ele>
        <time>2023-06-23T12:07:57Z</time>
      </trkpt>
      <trkpt lat="49.89037" lon="2.27002">
        <ele>25.1</ele>
        <time>2023-06-23T12:07:58Z</time>
      </trkpt>
      <trkpt lat="49.89036" lon="2.26999">
        <ele>25.1</ele>
        <time>2023-06-23T12:07:59Z</time>
      </trkpt>
      <trkpt lat="49.89035" lon="2.26998">
        <ele>25.1</ele>
        <time>2023-06-23T12:08:00Z</time>
      </trkpt>
      <trkpt lat="49.89035" lon="2.26997">
        <ele>25.1</ele>
        <time>2023-06-23T12:08:01Z</time>
      </trkpt>
      <trkpt lat="49.89035" lon="2.26995">
        <ele>25.1</ele>
        <time>2023-06-23T12:08:02Z</time>
      </trkpt>
      <trkpt lat="49.89034" lon="2.26994">
        <ele>25.1</ele>
        <time>2023-06-23T12:08:03Z</time>
      </trkpt>
      <trkpt lat="49.89033" lon="2.26991">
        <ele>25</ele>
        <time>2023-06-23T12:08:05Z</time>
      </trkpt>
      <trkpt lat="49.89032" lon="2.26989">
        <ele>25</ele>
        <time>2023-06-23T12:08:06Z</time>
      </trkpt>
      <trkpt lat="49.89031" lon="2.26988">
        <ele>25</ele>
        <time>2023-06-23T12:08:07Z</time>
      </trkpt>
      <trkpt lat="49.8903" lon="2.26987">
        <ele>25</ele>
        <time>2023-06-23T12:08:08Z</time>
      </trkpt>
      <trkpt lat="49.89028" lon="2.26984">
        <ele>25</ele>
        <time>2023-06-23T12:08:09Z</time>
      </trkpt>
      <trkpt lat="49.89028" lon="2.26982">
        <ele>25</ele>
        <time>2023-06-23T12:08:11Z</time>
      </trkpt>
      <trkpt lat="49.89027" lon="2.26981">
        <ele>25</ele>
        <time>2023-06-23T12:08:12Z</time>
      </trkpt>
      <trkpt lat="49.89027" lon="2.2698">
        <ele>25</ele>
        <time>2023-06-23T12:08:13Z</time>
      </trkpt>
      <trkpt lat="49.89026" lon="2.26979">
        <ele>25</ele>
        <time>2023-06-23T12:08:14Z</time>
      </trkpt>
      <trkpt lat="49.89025" lon="2.26976">
        <ele>25</ele>
        <time>2023-06-23T12:08:15Z</time>
      </trkpt>
      <trkpt lat="49.89024" lon="2.26975">
        <ele>25</ele>
        <time>2023-06-23T12:08:16Z</time>
      </trkpt>
      <trkpt lat="49.89023" lon="2.26973">
        <ele>25</ele>
        <time>2023-06-23T12:08:17Z</time>
      </trkpt>
      <trkpt lat="49.89022" lon="2.26971">
        <ele>25</ele>
        <time>2023-06-23T12:08:18Z</time>
      </trkpt>
      <trkpt lat="49.89022" lon="2.2697">
        <ele>25</ele>
        <time>2023-06-23T12:08:19Z</time>
      </trkpt>
      <trkpt lat="49.8902" lon="2.26968">
        <ele>25</ele>
        <time>2023-06-23T12:08:20Z</time>
      </trkpt>
      <trkpt lat="49.8902" lon="2.26966">
        <ele>25</ele>
        <time>2023-06-23T12:08:22Z</time>
      </trkpt>
      <trkpt lat="49.89019" lon="2.26965">
        <ele>25</ele>
        <time>2023-06-23T12:08:23Z</time>
      </trkpt>
      <trkpt lat="49.89019" lon="2.26964">
        <ele>25</ele>
        <time>2023-06-23T12:08:24Z</time>
      </trkpt>
      <trkpt lat="49.89017" lon="2.26961">
        <ele>25</ele>
        <time>2023-06-23T12:08:25Z</time>
      </trkpt>
      <trkpt lat="49.89017" lon="2.2696">
        <ele>25</ele>
        <time>2023-06-23T12:08:26Z</time>
      </trkpt>
      <trkpt lat="49.89016" lon="2.26959">
        <ele>25</ele>
        <time>2023-06-23T12:08:27Z</time>
      </trkpt>
      <trkpt lat="49.89015" lon="2.26957">
        <ele>25</ele>
        <time>2023-06-23T12:08:28Z</time>
      </trkpt>
      <trkpt lat="49.89014" lon="2.26955">
        <ele>25</ele>
        <time>2023-06-23T12:08:30Z</time>
      </trkpt>
      <trkpt lat="49.89013" lon="2.26954">
        <ele>25</ele>
        <time>2023-06-23T12:08:31Z</time>
      </trkpt>
      <trkpt lat="49.89011" lon="2.26952">
        <ele>25</ele>
        <time>2023-06-23T12:08:32Z</time>
      </trkpt>
      <trkpt lat="49.89011" lon="2.26951">
        <ele>25</ele>
        <time>2023-06-23T12:08:33Z</time>
      </trkpt>
      <trkpt lat="49.8901" lon="2.2695">
        <ele>25</ele>
        <time>2023-06-23T12:08:34Z</time>
      </trkpt>
      <trkpt lat="49.89009" lon="2.26949">
        <ele>25</ele>
        <time>2023-06-23T12:08:36Z</time>
      </trkpt>
      <trkpt lat="49.89008" lon="2.26948">
        <ele>25</ele>
        <time>2023-06-23T12:08:37Z</time>
      </trkpt>
      <trkpt lat="49.89007" lon="2.26947">
        <ele>25</ele>
        <time>2023-06-23T12:08:38Z</time>
      </trkpt>
      <trkpt lat="49.89006" lon="2.26945">
        <ele>25</ele>
        <time>2023-06-23T12:08:39Z</time>
      </trkpt>
      <trkpt lat="49.89005" lon="2.26944">
        <ele>25</ele>
        <time>2023-06-23T12:08:40Z</time>
      </trkpt>
      <trkpt lat="49.89004" lon="2.26942">
        <ele>25</ele>
        <time>2023-06-23T12:08:41Z</time>
      </trkpt>
      <trkpt lat="49.89003" lon="2.26941">
        <ele>25</ele>
        <time>2023-06-23T12:08:42Z</time>
      </trkpt>
      <trkpt lat="49.89002" lon="2.2694">
        <ele>25</ele>
        <time>2023-06-23T12:08:44Z</time>
      </trkpt>
      <trkpt lat="49.89001" lon="2.26939">
        <ele>25</ele>
        <time>2023-06-23T12:08:45Z</time>
      </trkpt>
      <trkpt lat="49.89001" lon="2.26938">
        <ele>25</ele>
        <time>2023-06-23T12:08:46Z</time>
      </trkpt>
      <trkpt lat="49.89" lon="2.26937">
        <ele>25</ele>
        <time>2023-06-23T12:08:47Z</time>
      </trkpt>
      <trkpt lat="49.88999" lon="2.26934">
        <ele>25</ele>
        <time>2023-06-23T12:08:48Z</time>
      </trkpt>
      <trkpt lat="49.88998" lon="2.26933">
        <ele>25</ele>
        <time>2023-06-23T12:08:49Z</time>
      </trkpt>
      <trkpt lat="49.88998" lon="2.26932">
        <ele>25</ele>
        <time>2023-06-23T12:08:50Z</time>
      </trkpt>
      <trkpt lat="49.88997" lon="2.26931">
        <ele>25</ele>
        <time>2023-06-23T12:08:52Z</time>
      </trkpt>
      <trkpt lat="49.88997" lon="2.26929">
        <ele>25</ele>
        <time>2023-06-23T12:08:53Z</time>
      </trkpt>
      <trkpt lat="49.88996" lon="2.26928">
        <ele>25</ele>
        <time>2023-06-23T12:08:54Z</time>
      </trkpt>
      <trkpt lat="49.88996" lon="2.26926">
        <ele>25</ele>
        <time>2023-06-23T12:08:55Z</time>
      </trkpt>
      <trkpt lat="49.88995" lon="2.26925">
        <ele>25</ele>
        <time>2023-06-23T12:08:56Z</time>
      </trkpt>
      <trkpt lat="49.88995" lon="2.26923">
        <ele>25</ele>
        <time>2023-06-23T12:08:57Z</time>
      </trkpt>
      <trkpt lat="49.88995" lon="2.26922">
        <ele>25</ele>
        <time>2023-06-23T12:08:58Z</time>
      </trkpt>
      <trkpt lat="49.88995" lon="2.2692">
        <ele>25</ele>
        <time>2023-06-23T12:08:59Z</time>
      </trkpt>
      <trkpt lat="49.88994" lon="2.26918">
        <ele>25</ele>
        <time>2023-06-23T12:09:00Z</time>
      </trkpt>
      <trkpt lat="49.88995" lon="2.26917">
        <ele>25</ele>
        <time>2023-06-23T12:09:02Z</time>
      </trkpt>
      <trkpt lat="49.88995" lon="2.26916">
        <ele>25</ele>
        <time>2023-06-23T12:09:03Z</time>
      </trkpt>
      <trkpt lat="49.88996" lon="2.26915">
        <ele>25</ele>
        <time>2023-06-23T12:09:04Z</time>
      </trkpt>
      <trkpt lat="49.88996" lon="2.26912">
        <ele>25</ele>
        <time>2023-06-23T12:09:05Z</time>
      </trkpt>
      <trkpt lat="49.88997" lon="2.2691">
        <ele>25</ele>
        <time>2023-06-23T12:09:06Z</time>
      </trkpt>
      <trkpt lat="49.88998" lon="2.26908">
        <ele>25</ele>
        <time>2023-06-23T12:09:08Z</time>
      </trkpt>
      <trkpt lat="49.88998" lon="2.26906">
        <ele>25</ele>
        <time>2023-06-23T12:09:09Z</time>
      </trkpt>
      <trkpt lat="49.88999" lon="2.26903">
        <ele>25</ele>
        <time>2023-06-23T12:09:10Z</time>
      </trkpt>
      <trkpt lat="49.89" lon="2.26901">
        <ele>25</ele>
        <time>2023-06-23T12:09:11Z</time>
      </trkpt>
      <trkpt lat="49.89" lon="2.26899">
        <ele>25</ele>
        <time>2023-06-23T12:09:12Z</time>
      </trkpt>
      <trkpt lat="49.88999" lon="2.26896">
        <ele>25</ele>
        <time>2023-06-23T12:09:13Z</time>
      </trkpt>
      <trkpt lat="49.88998" lon="2.26894">
        <ele>25</ele>
        <time>2023-06-23T12:09:14Z</time>
      </trkpt>
      <trkpt lat="49.88998" lon="2.26892">
        <ele>25</ele>
        <time>2023-06-23T12:09:15Z</time>
      </trkpt>
      <trkpt lat="49.88997" lon="2.26889">
        <ele>25</ele>
        <time>2023-06-23T12:09:16Z</time>
      </trkpt>
      <trkpt lat="49.88996" lon="2.26888">
        <ele>25</ele>
        <time>2023-06-23T12:09:18Z</time>
      </trkpt>
      <trkpt lat="49.88996" lon="2.26887">
        <ele>25</ele>
        <time>2023-06-23T12:09:19Z</time>
      </trkpt>
      <trkpt lat="49.88995" lon="2.26885">
        <ele>25</ele>
        <time>2023-06-23T12:09:20Z</time>
      </trkpt>
      <trkpt lat="49.88995" lon="2.26884">
        <ele>25</ele>
        <time>2023-06-23T12:09:21Z</time>
      </trkpt>
      <trkpt lat="49.88994" lon="2.26883">
        <ele>25</ele>
        <time>2023-06-23T12:09:22Z</time>
      </trkpt>
      <trkpt lat="49.88993" lon="2.2688">
        <ele>25</ele>
        <time>2023-06-23T12:09:23Z</time>
      </trkpt>
      <trkpt lat="49.88992" lon="2.26879">
        <ele>25</ele>
        <time>2023-06-23T12:09:24Z</time>
      </trkpt>
      <trkpt lat="49.88992" lon="2.26878">
        <ele>25</ele>
        <time>2023-06-23T12:09:25Z</time>
      </trkpt>
      <trkpt lat="49.88991" lon="2.26878">
        <ele>25</ele>
        <time>2023-06-23T12:09:26Z</time>
      </trkpt>
      <trkpt lat="49.88991" lon="2.26877">
        <ele>25</ele>
        <time>2023-06-23T12:09:27Z</time>
      </trkpt>
      <trkpt lat="49.8899" lon="2.26875">
        <ele>25</ele>
        <time>2023-06-23T12:09:29Z</time>
      </trkpt>
      <trkpt lat="49.8899" lon="2.26874">
        <ele>25</ele>
        <time>2023-06-23T12:09:30Z</time>
      </trkpt>
      <trkpt lat="49.88989" lon="2.26873">
        <ele>25</ele>
        <time>2023-06-23T12:09:31Z</time>
      </trkpt>
      <trkpt lat="49.88988" lon="2.26872">
        <ele>25</ele>
        <time>2023-06-23T12:09:32Z</time>
      </trkpt>
      <trkpt lat="49.88988" lon="2.26871">
        <ele>25</ele>
        <time>2023-06-23T12:09:33Z</time>
      </trkpt>
      <trkpt lat="49.88986" lon="2.26868">
        <ele>25</ele>
        <time>2023-06-23T12:09:34Z</time>
      </trkpt>
      <trkpt lat="49.88986" lon="2.26867">
        <ele>25</ele>
        <time>2023-06-23T12:09:36Z</time>
      </trkpt>
      <trkpt lat="49.88986" lon="2.26866">
        <ele>25</ele>
        <time>2023-06-23T12:09:37Z</time>
      </trkpt>
      <trkpt lat="49.88985" lon="2.26863">
        <ele>25</ele>
        <time>2023-06-23T12:09:38Z</time>
      </trkpt>
      <trkpt lat="49.88984" lon="2.26862">
        <ele>25</ele>
        <time>2023-06-23T12:09:39Z</time>
      </trkpt>
      <trkpt lat="49.88984" lon="2.26861">
        <ele>25</ele>
        <time>2023-06-23T12:09:40Z</time>
      </trkpt>
      <trkpt lat="49.88982" lon="2.26859">
        <ele>25</ele>
        <time>2023-06-23T12:09:41Z</time>
      </trkpt>
      <trkpt lat="49.88982" lon="2.26859">
        <ele>25</ele>
        <time>2023-06-23T12:09:42Z</time>
      </trkpt>
      <trkpt lat="49.88981" lon="2.26858">
        <ele>25</ele>
        <time>2023-06-23T12:09:43Z</time>
      </trkpt>
      <trkpt lat="49.88981" lon="2.26857">
        <ele>25</ele>
        <time>2023-06-23T12:09:44Z</time>
      </trkpt>
      <trkpt lat="49.8898" lon="2.26856">
        <ele>25</ele>
        <time>2023-06-23T12:09:46Z</time>
      </trkpt>
      <trkpt lat="49.88979" lon="2.26855">
        <ele>25</ele>
        <time>2023-06-23T12:09:47Z</time>
      </trkpt>
      <trkpt lat="49.88978" lon="2.26854">
        <ele>25</ele>
        <time>2023-06-23T12:09:48Z</time>
      </trkpt>
      <trkpt lat="49.88977" lon="2.26852">
        <ele>25</ele>
        <time>2023-06-23T12:09:49Z</time>
      </trkpt>
      <trkpt lat="49.88976" lon="2.26851">
        <ele>25</ele>
        <time>2023-06-23T12:09:50Z</time>
      </trkpt>
      <trkpt lat="49.88975" lon="2.2685">
        <ele>25</ele>
        <time>2023-06-23T12:09:51Z</time>
      </trkpt>
      <trkpt lat="49.88974" lon="2.2685">
        <ele>25</ele>
        <time>2023-06-23T12:09:52Z</time>
      </trkpt>
      <trkpt lat="49.88973" lon="2.26849">
        <ele>25</ele>
        <time>2023-06-23T12:09:54Z</time>
      </trkpt>
      <trkpt lat="49.88972" lon="2.26848">
        <ele>25</ele>
        <time>2023-06-23T12:09:55Z</time>
      </trkpt>
      <trkpt lat="49.88971" lon="2.26846">
        <ele>25</ele>
        <time>2023-06-23T12:09:56Z</time>
      </trkpt>
      <trkpt lat="49.8897" lon="2.26845">
        <ele>25</ele>
        <time>2023-06-23T12:09:57Z</time>
      </trkpt>
      <trkpt lat="49.8897" lon="2.26844">
        <ele>25</ele>
        <time>2023-06-23T12:09:58Z</time>
      </trkpt>
      <trkpt lat="49.88969" lon="2.26843">
        <ele>25</ele>
        <time>2023-06-23T12:09:59Z</time>
      </trkpt>
      <trkpt lat="49.88967" lon="2.26841">
        <ele>25</ele>
        <time>2023-06-23T12:10:01Z</time>
      </trkpt>
      <trkpt lat="49.88967" lon="2.2684">
        <ele>25</ele>
        <time>2023-06-23T12:10:02Z</time>
      </trkpt>
      <trkpt lat="49.88966" lon="2.26838">
        <ele>25</ele>
        <time>2023-06-23T12:10:03Z</time>
      </trkpt>
      <trkpt lat="49.88966" lon="2.26837">
        <ele>25</ele>
        <time>2023-06-23T12:10:04Z</time>
      </trkpt>
      <trkpt lat="49.88965" lon="2.26835">
        <ele>25</ele>
        <time>2023-06-23T12:10:05Z</time>
      </trkpt>
      <trkpt lat="49.88964" lon="2.26833">
        <ele>25</ele>
        <time>2023-06-23T12:10:06Z</time>
      </trkpt>
      <trkpt lat="49.88964" lon="2.26831">
        <ele>25</ele>
        <time>2023-06-23T12:10:07Z</time>
      </trkpt>
      <trkpt lat="49.88964" lon="2.2683">
        <ele>25</ele>
        <time>2023-06-23T12:10:08Z</time>
      </trkpt>
      <trkpt lat="49.88963" lon="2.26828">
        <ele>25</ele>
        <time>2023-06-23T12:10:10Z</time>
      </trkpt>
      <trkpt lat="49.88962" lon="2.26825">
        <ele>25</ele>
        <time>2023-06-23T12:10:11Z</time>
      </trkpt>
      <trkpt lat="49.88962" lon="2.26824">
        <ele>25</ele>
        <time>2023-06-23T12:10:12Z</time>
      </trkpt>
      <trkpt lat="49.88961" lon="2.26821">
        <ele>25</ele>
        <time>2023-06-23T12:10:13Z</time>
      </trkpt>
      <trkpt lat="49.8896" lon="2.2682">
        <ele>25</ele>
        <time>2023-06-23T12:10:14Z</time>
      </trkpt>
      <trkpt lat="49.8896" lon="2.26819">
        <ele>25</ele>
        <time>2023-06-23T12:10:15Z</time>
      </trkpt>
      <trkpt lat="49.88959" lon="2.26817">
        <ele>25</ele>
        <time>2023-06-23T12:10:16Z</time>
      </trkpt>
      <trkpt lat="49.88959" lon="2.26816">
        <ele>25</ele>
        <time>2023-06-23T12:10:17Z</time>
      </trkpt>
      <trkpt lat="49.88959" lon="2.26814">
        <ele>25</ele>
        <time>2023-06-23T12:10:18Z</time>
      </trkpt>
      <trkpt lat="49.88958" lon="2.26813">
        <ele>25</ele>
        <time>2023-06-23T12:10:19Z</time>
      </trkpt>
      <trkpt lat="49.88957" lon="2.2681">
        <ele>25</ele>
        <time>2023-06-23T12:10:20Z</time>
      </trkpt>
      <trkpt lat="49.88957" lon="2.26809">
        <ele>25</ele>
        <time>2023-06-23T12:10:22Z</time>
      </trkpt>
      <trkpt lat="49.88956" lon="2.26808">
        <ele>25</ele>
        <time>2023-06-23T12:10:23Z</time>
      </trkpt>
      <trkpt lat="49.88956" lon="2.26806">
        <ele>25</ele>
        <time>2023-06-23T12:10:24Z</time>
      </trkpt>
      <trkpt lat="49.88955" lon="2.26805">
        <ele>25</ele>
        <time>2023-06-23T12:10:25Z</time>
      </trkpt>
      <trkpt lat="49.88954" lon="2.26803">
        <ele>25</ele>
        <time>2023-06-23T12:10:26Z</time>
      </trkpt>
      <trkpt lat="49.88954" lon="2.26801">
        <ele>25</ele>
        <time>2023-06-23T12:10:27Z</time>
      </trkpt>
      <trkpt lat="49.88953" lon="2.26801">
        <ele>25</ele>
        <time>2023-06-23T12:10:28Z</time>
      </trkpt>
      <trkpt lat="49.88952" lon="2.26801">
        <ele>25</ele>
        <time>2023-06-23T12:10:29Z</time>
      </trkpt>
      <trkpt lat="49.88951" lon="2.268">
        <ele>25</ele>
        <time>2023-06-23T12:10:30Z</time>
      </trkpt>
      <trkpt lat="49.8895" lon="2.26798">
        <ele>25</ele>
        <time>2023-06-23T12:10:32Z</time>
      </trkpt>
      <trkpt lat="49.8895" lon="2.26798">
        <ele>25</ele>
        <time>2023-06-23T12:10:33Z</time>
      </trkpt>
      <trkpt lat="49.88949" lon="2.26797">
        <ele>25</ele>
        <time>2023-06-23T12:10:34Z</time>
      </trkpt>
      <trkpt lat="49.88948" lon="2.26795">
        <ele>25</ele>
        <time>2023-06-23T12:10:35Z</time>
      </trkpt>
      <trkpt lat="49.88947" lon="2.26793">
        <ele>25</ele>
        <time>2023-06-23T12:10:36Z</time>
      </trkpt>
      <trkpt lat="49.88946" lon="2.26791">
        <ele>25</ele>
        <time>2023-06-23T12:10:38Z</time>
      </trkpt>
      <trkpt lat="49.88945" lon="2.2679">
        <ele>25</ele>
        <time>2023-06-23T12:10:39Z</time>
      </trkpt>
      <trkpt lat="49.88945" lon="2.26789">
        <ele>25</ele>
        <time>2023-06-23T12:10:40Z</time>
      </trkpt>
      <trkpt lat="49.88944" lon="2.26787">
        <ele>25.1</ele>
        <time>2023-06-23T12:10:41Z</time>
      </trkpt>
      <trkpt lat="49.88943" lon="2.26786">
        <ele>25.1</ele>
        <time>2023-06-23T12:10:42Z</time>
      </trkpt>
      <trkpt lat="49.88942" lon="2.26784">
        <ele>25.1</ele>
        <time>2023-06-23T12:10:43Z</time>
      </trkpt>
      <trkpt lat="49.88942" lon="2.26783">
        <ele>25.1</ele>
        <time>2023-06-23T12:10:44Z</time>
      </trkpt>
      <trkpt lat="49.88942" lon="2.26782">
        <ele>25.1</ele>
        <time>2023-06-23T12:10:45Z</time>
      </trkpt>
      <trkpt lat="49.88941" lon="2.2678">
        <ele>25.1</ele>
        <time>2023-06-23T12:10:46Z</time>
      </trkpt>
      <trkpt lat="49.88941" lon="2.26778">
        <ele>25.1</ele>
        <time>2023-06-23T12:10:48Z</time>
      </trkpt>
      <trkpt lat="49.88941" lon="2.26774">
        <ele>25.1</ele>
        <time>2023-06-23T12:10:49Z</time>
      </trkpt>
      <trkpt lat="49.88941" lon="2.26773">
        <ele>25.1</ele>
        <time>2023-06-23T12:10:50Z</time>
      </trkpt>
      <trkpt lat="49.8894" lon="2.2677">
        <ele>25.1</ele>
        <time>2023-06-23T12:10:51Z</time>
      </trkpt>
      <trkpt lat="49.88939" lon="2.26767">
        <ele>25.1</ele>
        <time>2023-06-23T12:10:52Z</time>
      </trkpt>
      <trkpt lat="49.88938" lon="2.26763">
        <ele>25.1</ele>
        <time>2023-06-23T12:10:53Z</time>
      </trkpt>
      <trkpt lat="49.88937" lon="2.26761">
        <ele>25.1</ele>
        <time>2023-06-23T12:10:54Z</time>
      </trkpt>
      <trkpt lat="49.88936" lon="2.26756">
        <ele>25.1</ele>
        <time>2023-06-23T12:10:55Z</time>
      </trkpt>
      <trkpt lat="49.88936" lon="2.26755">
        <ele>25.1</ele>
        <time>2023-06-23T12:10:56Z</time>
      </trkpt>
      <trkpt lat="49.88934" lon="2.26751">
        <ele>25.1</ele>
        <time>2023-06-23T12:10:58Z</time>
      </trkpt>
      <trkpt lat="49.88934" lon="2.26749">
        <ele>25.1</ele>
        <time>2023-06-23T12:10:59Z</time>
      </trkpt>
      <trkpt lat="49.88933" lon="2.26747">
        <ele>25.1</ele>
        <time>2023-06-23T12:11:00Z</time>
      </trkpt>
      <trkpt lat="49.88933" lon="2.26745">
        <ele>25.1</ele>
        <time>2023-06-23T12:11:01Z</time>
      </trkpt>
      <trkpt lat="49.88932" lon="2.26743">
        <ele>25.1</ele>
        <time>2023-06-23T12:11:02Z</time>
      </trkpt>
      <trkpt lat="49.88931" lon="2.2674">
        <ele>25.1</ele>
        <time>2023-06-23T12:11:03Z</time>
      </trkpt>
      <trkpt lat="49.8893" lon="2.26738">
        <ele>25.1</ele>
        <time>2023-06-23T12:11:05Z</time>
      </trkpt>
      <trkpt lat="49.8893" lon="2.26737">
        <ele>25.2</ele>
        <time>2023-06-23T12:11:06Z</time>
      </trkpt>
      <trkpt lat="49.8893" lon="2.26735">
        <ele>25.2</ele>
        <time>2023-06-23T12:11:07Z</time>
      </trkpt>
      <trkpt lat="49.88929" lon="2.26734">
        <ele>25.2</ele>
        <time>2023-06-23T12:11:08Z</time>
      </trkpt>
      <trkpt lat="49.88929" lon="2.26731">
        <ele>25.2</ele>
        <time>2023-06-23T12:11:09Z</time>
      </trkpt>
      <trkpt lat="49.88928" lon="2.26729">
        <ele>25.2</ele>
        <time>2023-06-23T12:11:10Z</time>
      </trkpt>
      <trkpt lat="49.88928" lon="2.26727">
        <ele>25.2</ele>
        <time>2023-06-23T12:11:12Z</time>
      </trkpt>
      <trkpt lat="49.88927" lon="2.26726">
        <ele>25.2</ele>
        <time>2023-06-23T12:11:13Z</time>
      </trkpt>
      <trkpt lat="49.88926" lon="2.26722">
        <ele>25.2</ele>
        <time>2023-06-23T12:11:14Z</time>
      </trkpt>
      <trkpt lat="49.88925" lon="2.26721">
        <ele>25.2</ele>
        <time>2023-06-23T12:11:15Z</time>
      </trkpt>
      <trkpt lat="49.88925" lon="2.2672">
        <ele>25.2</ele>
        <time>2023-06-23T12:11:16Z</time>
      </trkpt>
      <trkpt lat="49.88924" lon="2.26717">
        <ele>25.2</ele>
        <time>2023-06-23T12:11:17Z</time>
      </trkpt>
      <trkpt lat="49.88924" lon="2.26716">
        <ele>25.2</ele>
        <time>2023-06-23T12:11:18Z</time>
      </trkpt>
      <trkpt lat="49.88924" lon="2.26715">
        <ele>25.2</ele>
        <time>2023-06-23T12:11:19Z</time>
      </trkpt>
      <trkpt lat="49.88923" lon="2.26712">
        <ele>25.3</ele>
        <time>2023-06-23T12:11:21Z</time>
      </trkpt>
      <trkpt lat="49.88923" lon="2.2671">
        <ele>25.3</ele>
        <time>2023-06-23T12:11:22Z</time>
      </trkpt>
      <trkpt lat="49.88922" lon="2.26707">
        <ele>25.3</ele>
        <time>2023-06-23T12:11:23Z</time>
      </trkpt>
      <trkpt lat="49.88921" lon="2.26706">
        <ele>25.3</ele>
        <time>2023-06-23T12:11:24Z</time>
      </trkpt>
      <trkpt lat="49.88921" lon="2.26705">
        <ele>25.3</ele>
        <time>2023-06-23T12:11:25Z</time>
      </trkpt>
      <trkpt lat="49.8892" lon="2.26703">
        <ele>25.3</ele>
        <time>2023-06-23T12:11:26Z</time>
      </trkpt>
      <trkpt lat="49.88919" lon="2.26701">
        <ele>25.3</ele>
        <time>2023-06-23T12:11:27Z</time>
      </trkpt>
      <trkpt lat="49.88918" lon="2.26699">
        <ele>25.3</ele>
        <time>2023-06-23T12:11:29Z</time>
      </trkpt>
      <trkpt lat="49.88917" lon="2.26697">
        <ele>25.3</ele>
        <time>2023-06-23T12:11:30Z</time>
      </trkpt>
      <trkpt lat="49.88917" lon="2.26697">
        <ele>25.3</ele>
        <time>2023-06-23T12:11:31Z</time>
      </trkpt>
      <trkpt lat="49.88916" lon="2.26696">
        <ele>25.3</ele>
        <time>2023-06-23T12:11:32Z</time>
      </trkpt>
      <trkpt lat="49.88915" lon="2.26695">
        <ele>25.4</ele>
        <time>2023-06-23T12:11:33Z</time>
      </trkpt>
      <trkpt lat="49.88914" lon="2.26694">
        <ele>25.4</ele>
        <time>2023-06-23T12:11:34Z</time>
      </trkpt>
      <trkpt lat="49.88913" lon="2.26693">
        <ele>25.4</ele>
        <time>2023-06-23T12:11:35Z</time>
      </trkpt>
      <trkpt lat="49.88912" lon="2.26693">
        <ele>25.4</ele>
        <time>2023-06-23T12:11:36Z</time>
      </trkpt>
      <trkpt lat="49.8891" lon="2.2669">
        <ele>25.4</ele>
        <time>2023-06-23T12:11:37Z</time>
      </trkpt>
      <trkpt lat="49.8891" lon="2.26689">
        <ele>25.4</ele>
        <time>2023-06-23T12:11:39Z</time>
      </trkpt>
      <trkpt lat="49.88909" lon="2.26688">
        <ele>25.4</ele>
        <time>2023-06-23T12:11:40Z</time>
      </trkpt>
      <trkpt lat="49.88909" lon="2.26687">
        <ele>25.4</ele>
        <time>2023-06-23T12:11:41Z</time>
      </trkpt>
      <trkpt lat="49.88908" lon="2.26686">
        <ele>25.4</ele>
        <time>2023-06-23T12:11:42Z</time>
      </trkpt>
      <trkpt lat="49.88908" lon="2.26684">
        <ele>25.4</ele>
        <time>2023-06-23T12:11:43Z</time>
      </trkpt>
      <trkpt lat="49.88907" lon="2.26682">
        <ele>25.4</ele>
        <time>2023-06-23T12:11:44Z</time>
      </trkpt>
      <trkpt lat="49.88906" lon="2.2668">
        <ele>25.5</ele>
        <time>2023-06-23T12:11:45Z</time>
      </trkpt>
      <trkpt lat="49.88906" lon="2.26679">
        <ele>25.5</ele>
        <time>2023-06-23T12:11:47Z</time>
      </trkpt>
      <trkpt lat="49.88905" lon="2.26678">
        <ele>25.5</ele>
        <time>2023-06-23T12:11:48Z</time>
      </trkpt>
      <trkpt lat="49.88904" lon="2.26677">
        <ele>25.5</ele>
        <time>2023-06-23T12:11:49Z</time>
      </trkpt>
      <trkpt lat="49.88902" lon="2.26674">
        <ele>25.5</ele>
        <time>2023-06-23T12:11:50Z</time>
      </trkpt>
      <trkpt lat="49.88902" lon="2.26673">
        <ele>25.5</ele>
        <time>2023-06-23T12:11:51Z</time>
      </trkpt>
      <trkpt lat="49.88901" lon="2.26672">
        <ele>25.5</ele>
        <time>2023-06-23T12:11:52Z</time>
      </trkpt>
      <trkpt lat="49.889" lon="2.2667">
        <ele>25.5</ele>
        <time>2023-06-23T12:11:53Z</time>
      </trkpt>
      <trkpt lat="49.88899" lon="2.26669">
        <ele>25.5</ele>
        <time>2023-06-23T12:11:54Z</time>
      </trkpt>
      <trkpt lat="49.88899" lon="2.26668">
        <ele>25.5</ele>
        <time>2023-06-23T12:11:55Z</time>
      </trkpt>
      <trkpt lat="49.88898" lon="2.26667">
        <ele>25.5</ele>
        <time>2023-06-23T12:11:56Z</time>
      </trkpt>
      <trkpt lat="49.88897" lon="2.26666">
        <ele>25.5</ele>
        <time>2023-06-23T12:11:57Z</time>
      </trkpt>
      <trkpt lat="49.88896" lon="2.26665">
        <ele>25.5</ele>
        <time>2023-06-23T12:11:59Z</time>
      </trkpt>
      <trkpt lat="49.88895" lon="2.26663">
        <ele>25.5</ele>
        <time>2023-06-23T12:12:00Z</time>
      </trkpt>
      <trkpt lat="49.88894" lon="2.26662">
        <ele>25.5</ele>
        <time>2023-06-23T12:12:01Z</time>
      </trkpt>
      <trkpt lat="49.88893" lon="2.26661">
        <ele>25.6</ele>
        <time>2023-06-23T12:12:02Z</time>
      </trkpt>
      <trkpt lat="49.88892" lon="2.26659">
        <ele>25.6</ele>
        <time>2023-06-23T12:12:03Z</time>
      </trkpt>
      <trkpt lat="49.88891" lon="2.26658">
        <ele>25.6</ele>
        <time>2023-06-23T12:12:04Z</time>
      </trkpt>
      <trkpt lat="49.8889" lon="2.26657">
        <ele>25.6</ele>
        <time>2023-06-23T12:12:05Z</time>
      </trkpt>
      <trkpt lat="49.88889" lon="2.26656">
        <ele>25.6</ele>
        <time>2023-06-23T12:12:06Z</time>
      </trkpt>
      <trkpt lat="49.88889" lon="2.26655">
        <ele>25.6</ele>
        <time>2023-06-23T12:12:07Z</time>
      </trkpt>
      <trkpt lat="49.88888" lon="2.26654">
        <ele>25.6</ele>
        <time>2023-06-23T12:12:08Z</time>
      </trkpt>
      <trkpt lat="49.88887" lon="2.26652">
        <ele>25.6</ele>
        <time>2023-06-23T12:12:09Z</time>
      </trkpt>
      <trkpt lat="49.88886" lon="2.26651">
        <ele>25.7</ele>
        <time>2023-06-23T12:12:11Z</time>
      </trkpt>
      <trkpt lat="49.88886" lon="2.26649">
        <ele>25.7</ele>
        <time>2023-06-23T12:12:12Z</time>
      </trkpt>
      <trkpt lat="49.88884" lon="2.26647">
        <ele>25.7</ele>
        <time>2023-06-23T12:12:13Z</time>
      </trkpt>
      <trkpt lat="49.88884" lon="2.26646">
        <ele>25.7</ele>
        <time>2023-06-23T12:12:14Z</time>
      </trkpt>
      <trkpt lat="49.88883" lon="2.26645">
        <ele>25.7</ele>
        <time>2023-06-23T12:12:15Z</time>
      </trkpt>
      <trkpt lat="49.88883" lon="2.26644">
        <ele>25.7</ele>
        <time>2023-06-23T12:12:16Z</time>
      </trkpt>
      <trkpt lat="49.88882" lon="2.26643">
        <ele>25.7</ele>
        <time>2023-06-23T12:12:17Z</time>
      </trkpt>
      <trkpt lat="49.88881" lon="2.26641">
        <ele>25.7</ele>
        <time>2023-06-23T12:12:18Z</time>
      </trkpt>
      <trkpt lat="49.8888" lon="2.26639">
        <ele>25.8</ele>
        <time>2023-06-23T12:12:19Z</time>
      </trkpt>
      <trkpt lat="49.8888" lon="2.26638">
        <ele>25.8</ele>
        <time>2023-06-23T12:12:20Z</time>
      </trkpt>
      <trkpt lat="49.88879" lon="2.26637">
        <ele>25.8</ele>
        <time>2023-06-23T12:12:22Z</time>
      </trkpt>
      <trkpt lat="49.88878" lon="2.26636">
        <ele>25.8</ele>
        <time>2023-06-23T12:12:23Z</time>
      </trkpt>
      <trkpt lat="49.88878" lon="2.26635">
        <ele>25.8</ele>
        <time>2023-06-23T12:12:24Z</time>
      </trkpt>
      <trkpt lat="49.88877" lon="2.26634">
        <ele>25.8</ele>
        <time>2023-06-23T12:12:25Z</time>
      </trkpt>
      <trkpt lat="49.88876" lon="2.26633">
        <ele>25.8</ele>
        <time>2023-06-23T12:12:26Z</time>
      </trkpt>
      <trkpt lat="49.88876" lon="2.26631">
        <ele>25.8</ele>
        <time>2023-06-23T12:12:27Z</time>
      </trkpt>
      <trkpt lat="49.88875" lon="2.2663">
        <ele>25.9</ele>
        <time>2023-06-23T12:12:28Z</time>
      </trkpt>
      <trkpt lat="49.88874" lon="2.26629">
        <ele>25.9</ele>
        <time>2023-06-23T12:12:29Z</time>
      </trkpt>
      <trkpt lat="49.88873" lon="2.26627">
        <ele>25.9</ele>
        <time>2023-06-23T12:12:30Z</time>
      </trkpt>
      <trkpt lat="49.88873" lon="2.26626">
        <ele>25.9</ele>
        <time>2023-06-23T12:12:32Z</time>
      </trkpt>
      <trkpt lat="49.88872" lon="2.26625">
        <ele>25.9</ele>
        <time>2023-06-23T12:12:33Z</time>
      </trkpt>
      <trkpt lat="49.88872" lon="2.26624">
        <ele>25.9</ele>
        <time>2023-06-23T12:12:34Z</time>
      </trkpt>
      <trkpt lat="49.88871" lon="2.26623">
        <ele>25.9</ele>
        <time>2023-06-23T12:12:35Z</time>
      </trkpt>
      <trkpt lat="49.8887" lon="2.26622">
        <ele>26</ele>
        <time>2023-06-23T12:12:36Z</time>
      </trkpt>
      <trkpt lat="49.88869" lon="2.26621">
        <ele>26</ele>
        <time>2023-06-23T12:12:37Z</time>
      </trkpt>
      <trkpt lat="49.88868" lon="2.2662">
        <ele>26</ele>
        <time>2023-06-23T12:12:38Z</time>
      </trkpt>
      <trkpt lat="49.88867" lon="2.26619">
        <ele>26</ele>
        <time>2023-06-23T12:12:39Z</time>
      </trkpt>
      <trkpt lat="49.88866" lon="2.26617">
        <ele>26</ele>
        <time>2023-06-23T12:12:41Z</time>
      </trkpt>
      <trkpt lat="49.88865" lon="2.26616">
        <ele>26</ele>
        <time>2023-06-23T12:12:42Z</time>
      </trkpt>
      <trkpt lat="49.88865" lon="2.26615">
        <ele>26</ele>
        <time>2023-06-23T12:12:43Z</time>
      </trkpt>
      <trkpt lat="49.88864" lon="2.26612">
        <ele>26.1</ele>
        <time>2023-06-23T12:12:44Z</time>
      </trkpt>
      <trkpt lat="49.88864" lon="2.26611">
        <ele>26.1</ele>
        <time>2023-06-23T12:12:45Z</time>
      </trkpt>
      <trkpt lat="49.88864" lon="2.26609">
        <ele>26.1</ele>
        <time>2023-06-23T12:12:46Z</time>
      </trkpt>
      <trkpt lat="49.88863" lon="2.26608">
        <ele>26.1</ele>
        <time>2023-06-23T12:12:47Z</time>
      </trkpt>
      <trkpt lat="49.88863" lon="2.26606">
        <ele>26.1</ele>
        <time>2023-06-23T12:12:48Z</time>
      </trkpt>
      <trkpt lat="49.88862" lon="2.26604">
        <ele>26.1</ele>
        <time>2023-06-23T12:12:50Z</time>
      </trkpt>
      <trkpt lat="49.88861" lon="2.26602">
        <ele>26.1</ele>
        <time>2023-06-23T12:12:51Z</time>
      </trkpt>
      <trkpt lat="49.88861" lon="2.26601">
        <ele>26.1</ele>
        <time>2023-06-23T12:12:52Z</time>
      </trkpt>
      <trkpt lat="49.8886" lon="2.266">
        <ele>26.2</ele>
        <time>2023-06-23T12:12:53Z</time>
      </trkpt>
      <trkpt lat="49.8886" lon="2.26598">
        <ele>26.2</ele>
        <time>2023-06-23T12:12:54Z</time>
      </trkpt>
      <trkpt lat="49.88859" lon="2.26597">
        <ele>26.2</ele>
        <time>2023-06-23T12:12:55Z</time>
      </trkpt>
      <trkpt lat="49.88858" lon="2.26596">
        <ele>26.2</ele>
        <time>2023-06-23T12:12:56Z</time>
      </trkpt>
      <trkpt lat="49.88858" lon="2.26594">
        <ele>26.2</ele>
        <time>2023-06-23T12:12:57Z</time>
      </trkpt>
      <trkpt lat="49.88857" lon="2.26593">
        <ele>26.2</ele>
        <time>2023-06-23T12:12:58Z</time>
      </trkpt>
      <trkpt lat="49.88857" lon="2.2659">
        <ele>26.2</ele>
        <time>2023-06-23T12:13:00Z</time>
      </trkpt>
      <trkpt lat="49.88856" lon="2.26588">
        <ele>26.3</ele>
        <time>2023-06-23T12:13:01Z</time>
      </trkpt>
      <trkpt lat="49.88856" lon="2.26587">
        <ele>26.3</ele>
        <time>2023-06-23T12:13:02Z</time>
      </trkpt>
      <trkpt lat="49.88855" lon="2.26585">
        <ele>26.3</ele>
        <time>2023-06-23T12:13:04Z</time>
      </trkpt>
      <trkpt lat="49.88855" lon="2.26583">
        <ele>26.3</ele>
        <time>2023-06-23T12:13:05Z</time>
      </trkpt>
      <trkpt lat="49.88854" lon="2.26581">
        <ele>26.3</ele>
        <time>2023-06-23T12:13:06Z</time>
      </trkpt>
      <trkpt lat="49.88854" lon="2.26579">
        <ele>26.3</ele>
        <time>2023-06-23T12:13:07Z</time>
      </trkpt>
      <trkpt lat="49.88853" lon="2.26578">
        <ele>26.4</ele>
        <time>2023-06-23T12:13:08Z</time>
      </trkpt>
      <trkpt lat="49.88853" lon="2.26576">
        <ele>26.4</ele>
        <time>2023-06-23T12:13:09Z</time>
      </trkpt>
      <trkpt lat="49.88852" lon="2.26573">
        <ele>26.4</ele>
        <time>2023-06-23T12:13:11Z</time>
      </trkpt>
      <trkpt lat="49.88852" lon="2.26572">
        <ele>26.4</ele>
        <time>2023-06-23T12:13:12Z</time>
      </trkpt>
      <trkpt lat="49.88851" lon="2.26571">
        <ele>26.4</ele>
        <time>2023-06-23T12:13:13Z</time>
      </trkpt>
      <trkpt lat="49.88851" lon="2.26569">
        <ele>26.4</ele>
        <time>2023-06-23T12:13:14Z</time>
      </trkpt>
      <trkpt lat="49.8885" lon="2.26568">
        <ele>26.4</ele>
        <time>2023-06-23T12:13:15Z</time>
      </trkpt>
      <trkpt lat="49.88849" lon="2.26566">
        <ele>26.5</ele>
        <time>2023-06-23T12:13:17Z</time>
      </trkpt>
      <trkpt lat="49.88849" lon="2.26564">
        <ele>26.5</ele>
        <time>2023-06-23T12:13:18Z</time>
      </trkpt>
      <trkpt lat="49.88848" lon="2.26561">
        <ele>26.5</ele>
        <time>2023-06-23T12:13:19Z</time>
      </trkpt>
      <trkpt lat="49.88848" lon="2.26559">
        <ele>26.5</ele>
        <time>2023-06-23T12:13:20Z</time>
      </trkpt>
      <trkpt lat="49.88847" lon="2.26558">
        <ele>26.5</ele>
        <time>2023-06-23T12:13:21Z</time>
      </trkpt>
      <trkpt lat="49.88846" lon="2.26556">
        <ele>26.6</ele>
        <time>2023-06-23T12:13:22Z</time>
      </trkpt>
      <trkpt lat="49.88846" lon="2.26555">
        <ele>26.6</ele>
        <time>2023-06-23T12:13:23Z</time>
      </trkpt>
      <trkpt lat="49.88846" lon="2.26554">
        <ele>26.6</ele>
        <time>2023-06-23T12:13:24Z</time>
      </trkpt>
      <trkpt lat="49.88845" lon="2.26553">
        <ele>26.6</ele>
        <time>2023-06-23T12:13:25Z</time>
      </trkpt>
      <trkpt lat="49.88844" lon="2.26549">
        <ele>26.6</ele>
        <time>2023-06-23T12:13:26Z</time>
      </trkpt>
      <trkpt lat="49.88844" lon="2.26548">
        <ele>26.6</ele>
        <time>2023-06-23T12:13:28Z</time>
      </trkpt>
      <trkpt lat="49.88843" lon="2.26547">
        <ele>26.6</ele>
        <time>2023-06-23T12:13:29Z</time>
      </trkpt>
      <trkpt lat="49.88843" lon="2.26545">
        <ele>26.7</ele>
        <time>2023-06-23T12:13:30Z</time>
      </trkpt>
      <trkpt lat="49.88842" lon="2.26542">
        <ele>26.7</ele>
        <time>2023-06-23T12:13:31Z</time>
      </trkpt>
      <trkpt lat="49.88841" lon="2.2654">
        <ele>26.7</ele>
        <time>2023-06-23T12:13:32Z</time>
      </trkpt>
      <trkpt lat="49.88841" lon="2.26539">
        <ele>26.7</ele>
        <time>2023-06-23T12:13:33Z</time>
      </trkpt>
      <trkpt lat="49.8884" lon="2.26537">
        <ele>26.7</ele>
        <time>2023-06-23T12:13:34Z</time>
      </trkpt>
      <trkpt lat="49.8884" lon="2.26535">
        <ele>26.8</ele>
        <time>2023-06-23T12:13:35Z</time>
      </trkpt>
      <trkpt lat="49.88839" lon="2.26533">
        <ele>26.8</ele>
        <time>2023-06-23T12:13:36Z</time>
      </trkpt>
      <trkpt lat="49.88838" lon="2.26531">
        <ele>26.8</ele>
        <time>2023-06-23T12:13:38Z</time>
      </trkpt>
      <trkpt lat="49.88838" lon="2.26529">
        <ele>26.9</ele>
        <time>2023-06-23T12:13:39Z</time>
      </trkpt>
      <trkpt lat="49.88837" lon="2.26527">
        <ele>26.9</ele>
        <time>2023-06-23T12:13:40Z</time>
      </trkpt>
      <trkpt lat="49.88836" lon="2.26524">
        <ele>26.9</ele>
        <time>2023-06-23T12:13:41Z</time>
      </trkpt>
      <trkpt lat="49.88835" lon="2.26521">
        <ele>27</ele>
        <time>2023-06-23T12:13:42Z</time>
      </trkpt>
      <trkpt lat="49.88835" lon="2.2652">
        <ele>27</ele>
        <time>2023-06-23T12:13:43Z</time>
      </trkpt>
      <trkpt lat="49.88835" lon="2.26518">
        <ele>27</ele>
        <time>2023-06-23T12:13:44Z</time>
      </trkpt>
      <trkpt lat="49.88834" lon="2.26516">
        <ele>27</ele>
        <time>2023-06-23T12:13:45Z</time>
      </trkpt>
      <trkpt lat="49.88833" lon="2.26514">
        <ele>27.1</ele>
        <time>2023-06-23T12:13:46Z</time>
      </trkpt>
      <trkpt lat="49.88833" lon="2.26512">
        <ele>27.1</ele>
        <time>2023-06-23T12:13:47Z</time>
      </trkpt>
      <trkpt lat="49.88832" lon="2.2651">
        <ele>27.1</ele>
        <time>2023-06-23T12:13:49Z</time>
      </trkpt>
      <trkpt lat="49.88832" lon="2.26508">
        <ele>27.2</ele>
        <time>2023-06-23T12:13:50Z</time>
      </trkpt>
      <trkpt lat="49.88831" lon="2.26506">
        <ele>27.2</ele>
        <time>2023-06-23T12:13:51Z</time>
      </trkpt>
      <trkpt lat="49.8883" lon="2.26502">
        <ele>27.2</ele>
        <time>2023-06-23T12:13:52Z</time>
      </trkpt>
      <trkpt lat="49.8883" lon="2.26501">
        <ele>27.2</ele>
        <time>2023-06-23T12:13:53Z</time>
      </trkpt>
      <trkpt lat="49.88829" lon="2.265">
        <ele>27.3</ele>
        <time>2023-06-23T12:13:54Z</time>
      </trkpt>
      <trkpt lat="49.88829" lon="2.26499">
        <ele>27.3</ele>
        <time>2023-06-23T12:13:55Z</time>
      </trkpt>
      <trkpt lat="49.88828" lon="2.26497">
        <ele>27.3</ele>
        <time>2023-06-23T12:13:56Z</time>
      </trkpt>
      <trkpt lat="49.88827" lon="2.26496">
        <ele>27.3</ele>
        <time>2023-06-23T12:13:57Z</time>
      </trkpt>
      <trkpt lat="49.88827" lon="2.26494">
        <ele>27.3</ele>
        <time>2023-06-23T12:13:59Z</time>
      </trkpt>
      <trkpt lat="49.88827" lon="2.26493">
        <ele>27.4</ele>
        <time>2023-06-23T12:14:00Z</time>
      </trkpt>
      <trkpt lat="49.88826" lon="2.26491">
        <ele>27.4</ele>
        <time>2023-06-23T12:14:01Z</time>
      </trkpt>
      <trkpt lat="49.88825" lon="2.2649">
        <ele>27.4</ele>
        <time>2023-06-23T12:14:02Z</time>
      </trkpt>
      <trkpt lat="49.88825" lon="2.26488">
        <ele>27.4</ele>
        <time>2023-06-23T12:14:03Z</time>
      </trkpt>
      <trkpt lat="49.88824" lon="2.26487">
        <ele>27.4</ele>
        <time>2023-06-23T12:14:04Z</time>
      </trkpt>
      <trkpt lat="49.88823" lon="2.26486">
        <ele>27.5</ele>
        <time>2023-06-23T12:14:06Z</time>
      </trkpt>
      <trkpt lat="49.88822" lon="2.26484">
        <ele>27.5</ele>
        <time>2023-06-23T12:14:07Z</time>
      </trkpt>
      <trkpt lat="49.88821" lon="2.26483">
        <ele>27.5</ele>
        <time>2023-06-23T12:14:08Z</time>
      </trkpt>
      <trkpt lat="49.88821" lon="2.26482">
        <ele>27.5</ele>
        <time>2023-06-23T12:14:09Z</time>
      </trkpt>
      <trkpt lat="49.8882" lon="2.2648">
        <ele>27.6</ele>
        <time>2023-06-23T12:14:10Z</time>
      </trkpt>
      <trkpt lat="49.88819" lon="2.26478">
        <ele>27.6</ele>
        <time>2023-06-23T12:14:11Z</time>
      </trkpt>
      <trkpt lat="49.88818" lon="2.26477">
        <ele>27.6</ele>
        <time>2023-06-23T12:14:12Z</time>
      </trkpt>
      <trkpt lat="49.88818" lon="2.26476">
        <ele>27.6</ele>
        <time>2023-06-23T12:14:14Z</time>
      </trkpt>
      <trkpt lat="49.88816" lon="2.26473">
        <ele>27.7</ele>
        <time>2023-06-23T12:14:15Z</time>
      </trkpt>
      <trkpt lat="49.88816" lon="2.26472">
        <ele>27.7</ele>
        <time>2023-06-23T12:14:16Z</time>
      </trkpt>
      <trkpt lat="49.88816" lon="2.26471">
        <ele>27.7</ele>
        <time>2023-06-23T12:14:17Z</time>
      </trkpt>
      <trkpt lat="49.88815" lon="2.2647">
        <ele>27.7</ele>
        <time>2023-06-23T12:14:18Z</time>
      </trkpt>
      <trkpt lat="49.88815" lon="2.26469">
        <ele>27.7</ele>
        <time>2023-06-23T12:14:19Z</time>
      </trkpt>
      <trkpt lat="49.88814" lon="2.26467">
        <ele>27.8</ele>
        <time>2023-06-23T12:14:20Z</time>
      </trkpt>
      <trkpt lat="49.88813" lon="2.26464">
        <ele>27.8</ele>
        <time>2023-06-23T12:14:21Z</time>
      </trkpt>
      <trkpt lat="49.88813" lon="2.26463">
        <ele>27.8</ele>
        <time>2023-06-23T12:14:23Z</time>
      </trkpt>
      <trkpt lat="49.88813" lon="2.26462">
        <ele>27.8</ele>
        <time>2023-06-23T12:14:24Z</time>
      </trkpt>
      <trkpt lat="49.88812" lon="2.2646">
        <ele>27.8</ele>
        <time>2023-06-23T12:14:25Z</time>
      </trkpt>
      <trkpt lat="49.88811" lon="2.26459">
        <ele>27.9</ele>
        <time>2023-06-23T12:14:26Z</time>
      </trkpt>
      <trkpt lat="49.8881" lon="2.26456">
        <ele>27.9</ele>
        <time>2023-06-23T12:14:27Z</time>
      </trkpt>
      <trkpt lat="49.8881" lon="2.26455">
        <ele>27.9</ele>
        <time>2023-06-23T12:14:28Z</time>
      </trkpt>
      <trkpt lat="49.88809" lon="2.26453">
        <ele>27.9</ele>
        <time>2023-06-23T12:14:29Z</time>
      </trkpt>
      <trkpt lat="49.88808" lon="2.26451">
        <ele>28</ele>
        <time>2023-06-23T12:14:30Z</time>
      </trkpt>
      <trkpt lat="49.88807" lon="2.26448">
        <ele>28</ele>
        <time>2023-06-23T12:14:32Z</time>
      </trkpt>
      <trkpt lat="49.88807" lon="2.26447">
        <ele>28</ele>
        <time>2023-06-23T12:14:33Z</time>
      </trkpt>
      <trkpt lat="49.88806" lon="2.26444">
        <ele>28.1</ele>
        <time>2023-06-23T12:14:34Z</time>
      </trkpt>
      <trkpt lat="49.88805" lon="2.26443">
        <ele>28.1</ele>
        <time>2023-06-23T12:14:35Z</time>
      </trkpt>
      <trkpt lat="49.88805" lon="2.26442">
        <ele>28.1</ele>
        <time>2023-06-23T12:14:36Z</time>
      </trkpt>
      <trkpt lat="49.88804" lon="2.2644">
        <ele>28.1</ele>
        <time>2023-06-23T12:14:37Z</time>
      </trkpt>
      <trkpt lat="49.88803" lon="2.26439">
        <ele>28.1</ele>
        <time>2023-06-23T12:14:38Z</time>
      </trkpt>
      <trkpt lat="49.88802" lon="2.26437">
        <ele>28.2</ele>
        <time>2023-06-23T12:14:39Z</time>
      </trkpt>
      <trkpt lat="49.88802" lon="2.26436">
        <ele>28.2</ele>
        <time>2023-06-23T12:14:40Z</time>
      </trkpt>
      <trkpt lat="49.88801" lon="2.26433">
        <ele>28.2</ele>
        <time>2023-06-23T12:14:42Z</time>
      </trkpt>
      <trkpt lat="49.888" lon="2.26432">
        <ele>28.2</ele>
        <time>2023-06-23T12:14:43Z</time>
      </trkpt>
      <trkpt lat="49.888" lon="2.26431">
        <ele>28.2</ele>
        <time>2023-06-23T12:14:44Z</time>
      </trkpt>
      <trkpt lat="49.88799" lon="2.2643">
        <ele>28.2</ele>
        <time>2023-06-23T12:14:45Z</time>
      </trkpt>
      <trkpt lat="49.88799" lon="2.26428">
        <ele>28.2</ele>
        <time>2023-06-23T12:14:46Z</time>
      </trkpt>
      <trkpt lat="49.88799" lon="2.26427">
        <ele>28.3</ele>
        <time>2023-06-23T12:14:47Z</time>
      </trkpt>
      <trkpt lat="49.88799" lon="2.26425">
        <ele>28.3</ele>
        <time>2023-06-23T12:14:48Z</time>
      </trkpt>
      <trkpt lat="49.88799" lon="2.26424">
        <ele>28.3</ele>
        <time>2023-06-23T12:14:50Z</time>
      </trkpt>
      <trkpt lat="49.88799" lon="2.26423">
        <ele>28.3</ele>
        <time>2023-06-23T12:14:51Z</time>
      </trkpt>
      <trkpt lat="49.88799" lon="2.2642">
        <ele>28.3</ele>
        <time>2023-06-23T12:14:52Z</time>
      </trkpt>
      <trkpt lat="49.88799" lon="2.26419">
        <ele>28.3</ele>
        <time>2023-06-23T12:14:53Z</time>
      </trkpt>
      <trkpt lat="49.88798" lon="2.26417">
        <ele>28.3</ele>
        <time>2023-06-23T12:14:54Z</time>
      </trkpt>
      <trkpt lat="49.88797" lon="2.26415">
        <ele>28.3</ele>
        <time>2023-06-23T12:14:55Z</time>
      </trkpt>
      <trkpt lat="49.88797" lon="2.26412">
        <ele>28.2</ele>
        <time>2023-06-23T12:14:56Z</time>
      </trkpt>
      <trkpt lat="49.88797" lon="2.2641">
        <ele>28.2</ele>
        <time>2023-06-23T12:14:58Z</time>
      </trkpt>
      <trkpt lat="49.88796" lon="2.26408">
        <ele>28.2</ele>
        <time>2023-06-23T12:14:59Z</time>
      </trkpt>
      <trkpt lat="49.88796" lon="2.26406">
        <ele>28.1</ele>
        <time>2023-06-23T12:15:00Z</time>
      </trkpt>
      <trkpt lat="49.88796" lon="2.26405">
        <ele>28.1</ele>
        <time>2023-06-23T12:15:01Z</time>
      </trkpt>
      <trkpt lat="49.88796" lon="2.264">
        <ele>28</ele>
        <time>2023-06-23T12:15:02Z</time>
      </trkpt>
      <trkpt lat="49.88795" lon="2.26399">
        <ele>28</ele>
        <time>2023-06-23T12:15:03Z</time>
      </trkpt>
      <trkpt lat="49.88795" lon="2.26396">
        <ele>27.9</ele>
        <time>2023-06-23T12:15:04Z</time>
      </trkpt>
      <trkpt lat="49.88796" lon="2.26394">
        <ele>27.9</ele>
        <time>2023-06-23T12:15:05Z</time>
      </trkpt>
      <trkpt lat="49.88795" lon="2.26391">
        <ele>27.9</ele>
        <time>2023-06-23T12:15:06Z</time>
      </trkpt>
      <trkpt lat="49.88795" lon="2.26388">
        <ele>27.9</ele>
        <time>2023-06-23T12:15:08Z</time>
      </trkpt>
      <trkpt lat="49.88794" lon="2.26386">
        <ele>27.9</ele>
        <time>2023-06-23T12:15:09Z</time>
      </trkpt>
      <trkpt lat="49.88793" lon="2.26384">
        <ele>27.9</ele>
        <time>2023-06-23T12:15:10Z</time>
      </trkpt>
      <trkpt lat="49.8879" lon="2.26382">
        <ele>28.1</ele>
        <time>2023-06-23T12:15:11Z</time>
      </trkpt>
      <trkpt lat="49.88789" lon="2.26382">
        <ele>28.1</ele>
        <time>2023-06-23T12:15:12Z</time>
      </trkpt>
      <trkpt lat="49.88788" lon="2.26381">
        <ele>28.2</ele>
        <time>2023-06-23T12:15:14Z</time>
      </trkpt>
      <trkpt lat="49.88786" lon="2.26381">
        <ele>28.2</ele>
        <time>2023-06-23T12:15:15Z</time>
      </trkpt>
      <trkpt lat="49.88785" lon="2.26381">
        <ele>28.3</ele>
        <time>2023-06-23T12:15:16Z</time>
      </trkpt>
      <trkpt lat="49.88783" lon="2.26381">
        <ele>28.3</ele>
        <time>2023-06-23T12:15:17Z</time>
      </trkpt>
      <trkpt lat="49.88782" lon="2.26381">
        <ele>28.4</ele>
        <time>2023-06-23T12:15:18Z</time>
      </trkpt>
      <trkpt lat="49.8878" lon="2.26381">
        <ele>28.4</ele>
        <time>2023-06-23T12:15:19Z</time>
      </trkpt>
      <trkpt lat="49.88779" lon="2.26381">
        <ele>28.4</ele>
        <time>2023-06-23T12:15:21Z</time>
      </trkpt>
      <trkpt lat="49.88778" lon="2.26381">
        <ele>28.5</ele>
        <time>2023-06-23T12:15:22Z</time>
      </trkpt>
      <trkpt lat="49.88777" lon="2.26381">
        <ele>28.5</ele>
        <time>2023-06-23T12:15:23Z</time>
      </trkpt>
      <trkpt lat="49.88776" lon="2.26381">
        <ele>28.5</ele>
        <time>2023-06-23T12:15:24Z</time>
      </trkpt>
      <trkpt lat="49.88775" lon="2.26381">
        <ele>28.6</ele>
        <time>2023-06-23T12:15:25Z</time>
      </trkpt>
      <trkpt lat="49.88773" lon="2.26381">
        <ele>28.6</ele>
        <time>2023-06-23T12:15:26Z</time>
      </trkpt>
      <trkpt lat="49.88772" lon="2.26381">
        <ele>28.6</ele>
        <time>2023-06-23T12:15:27Z</time>
      </trkpt>
      <trkpt lat="49.88771" lon="2.26381">
        <ele>28.7</ele>
        <time>2023-06-23T12:15:29Z</time>
      </trkpt>
      <trkpt lat="49.8877" lon="2.26381">
        <ele>28.7</ele>
        <time>2023-06-23T12:15:30Z</time>
      </trkpt>
      <trkpt lat="49.88769" lon="2.26381">
        <ele>28.7</ele>
        <time>2023-06-23T12:15:31Z</time>
      </trkpt>
      <trkpt lat="49.88768" lon="2.2638">
        <ele>28.8</ele>
        <time>2023-06-23T12:15:32Z</time>
      </trkpt>
      <trkpt lat="49.88768" lon="2.26379">
        <ele>28.8</ele>
        <time>2023-06-23T12:15:33Z</time>
      </trkpt>
      <trkpt lat="49.88768" lon="2.26378">
        <ele>28.8</ele>
        <time>2023-06-23T12:15:34Z</time>
      </trkpt>
      <trkpt lat="49.88767" lon="2.26377">
        <ele>28.8</ele>
        <time>2023-06-23T12:15:36Z</time>
      </trkpt>
      <trkpt lat="49.88768" lon="2.26377">
        <ele>28.8</ele>
        <time>2023-06-23T12:15:37Z</time>
      </trkpt>
      <trkpt lat="49.88768" lon="2.26376">
        <ele>28.8</ele>
        <time>2023-06-23T12:15:38Z</time>
      </trkpt>
      <trkpt lat="49.88768" lon="2.26375">
        <ele>28.9</ele>
        <time>2023-06-23T12:15:39Z</time>
      </trkpt>
      <trkpt lat="49.88769" lon="2.26374">
        <ele>28.9</ele>
        <time>2023-06-23T12:15:40Z</time>
      </trkpt>
      <trkpt lat="49.88769" lon="2.26373">
        <ele>28.9</ele>
        <time>2023-06-23T12:15:41Z</time>
      </trkpt>
      <trkpt lat="49.8877" lon="2.26372">
        <ele>28.9</ele>
        <time>2023-06-23T12:15:43Z</time>
      </trkpt>
      <trkpt lat="49.8877" lon="2.26371">
        <ele>28.9</ele>
        <time>2023-06-23T12:15:44Z</time>
      </trkpt>
      <trkpt lat="49.8877" lon="2.26369">
        <ele>29</ele>
        <time>2023-06-23T12:15:45Z</time>
      </trkpt>
      <trkpt lat="49.8877" lon="2.26368">
        <ele>29</ele>
        <time>2023-06-23T12:15:46Z</time>
      </trkpt>
      <trkpt lat="49.8877" lon="2.26366">
        <ele>29</ele>
        <time>2023-06-23T12:15:47Z</time>
      </trkpt>
      <trkpt lat="49.8877" lon="2.26365">
        <ele>29</ele>
        <time>2023-06-23T12:15:48Z</time>
      </trkpt>
      <trkpt lat="49.88769" lon="2.26363">
        <ele>29</ele>
        <time>2023-06-23T12:15:49Z</time>
      </trkpt>
      <trkpt lat="49.88769" lon="2.26362">
        <ele>29.1</ele>
        <time>2023-06-23T12:15:51Z</time>
      </trkpt>
      <trkpt lat="49.88769" lon="2.2636">
        <ele>29.1</ele>
        <time>2023-06-23T12:15:52Z</time>
      </trkpt>
      <trkpt lat="49.88769" lon="2.26359">
        <ele>29.1</ele>
        <time>2023-06-23T12:15:53Z</time>
      </trkpt>
      <trkpt lat="49.88769" lon="2.26357">
        <ele>29.1</ele>
        <time>2023-06-23T12:15:54Z</time>
      </trkpt>
      <trkpt lat="49.88769" lon="2.26356">
        <ele>29.1</ele>
        <time>2023-06-23T12:15:55Z</time>
      </trkpt>
      <trkpt lat="49.88769" lon="2.26354">
        <ele>29.2</ele>
        <time>2023-06-23T12:15:56Z</time>
      </trkpt>
      <trkpt lat="49.88768" lon="2.26351">
        <ele>29.2</ele>
        <time>2023-06-23T12:15:57Z</time>
      </trkpt>
      <trkpt lat="49.88768" lon="2.26349">
        <ele>29.2</ele>
        <time>2023-06-23T12:15:58Z</time>
      </trkpt>
      <trkpt lat="49.88767" lon="2.26348">
        <ele>29.2</ele>
        <time>2023-06-23T12:16:00Z</time>
      </trkpt>
      <trkpt lat="49.88767" lon="2.26346">
        <ele>29.3</ele>
        <time>2023-06-23T12:16:01Z</time>
      </trkpt>
      <trkpt lat="49.88766" lon="2.26345">
        <ele>29.3</ele>
        <time>2023-06-23T12:16:02Z</time>
      </trkpt>
      <trkpt lat="49.88766" lon="2.26344">
        <ele>29.3</ele>
        <time>2023-06-23T12:16:03Z</time>
      </trkpt>
      <trkpt lat="49.88765" lon="2.26341">
        <ele>29.3</ele>
        <time>2023-06-23T12:16:04Z</time>
      </trkpt>
      <trkpt lat="49.88765" lon="2.2634">
        <ele>29.3</ele>
        <time>2023-06-23T12:16:05Z</time>
      </trkpt>
      <trkpt lat="49.88764" lon="2.26338">
        <ele>29.4</ele>
        <time>2023-06-23T12:16:06Z</time>
      </trkpt>
      <trkpt lat="49.88763" lon="2.26335">
        <ele>29.4</ele>
        <time>2023-06-23T12:16:07Z</time>
      </trkpt>
      <trkpt lat="49.88763" lon="2.26334">
        <ele>29.4</ele>
        <time>2023-06-23T12:16:08Z</time>
      </trkpt>
      <trkpt lat="49.88762" lon="2.26333">
        <ele>29.4</ele>
        <time>2023-06-23T12:16:10Z</time>
      </trkpt>
      <trkpt lat="49.88762" lon="2.26331">
        <ele>29.4</ele>
        <time>2023-06-23T12:16:11Z</time>
      </trkpt>
      <trkpt lat="49.88761" lon="2.2633">
        <ele>29.5</ele>
        <time>2023-06-23T12:16:12Z</time>
      </trkpt>
      <trkpt lat="49.8876" lon="2.26327">
        <ele>29.5</ele>
        <time>2023-06-23T12:16:13Z</time>
      </trkpt>
      <trkpt lat="49.88759" lon="2.26326">
        <ele>29.5</ele>
        <time>2023-06-23T12:16:14Z</time>
      </trkpt>
      <trkpt lat="49.88759" lon="2.26325">
        <ele>29.5</ele>
        <time>2023-06-23T12:16:15Z</time>
      </trkpt>
      <trkpt lat="49.88758" lon="2.26323">
        <ele>29.5</ele>
        <time>2023-06-23T12:16:16Z</time>
      </trkpt>
      <trkpt lat="49.88757" lon="2.26321">
        <ele>29.6</ele>
        <time>2023-06-23T12:16:17Z</time>
      </trkpt>
      <trkpt lat="49.88757" lon="2.26319">
        <ele>29.6</ele>
        <time>2023-06-23T12:16:19Z</time>
      </trkpt>
      <trkpt lat="49.88756" lon="2.26318">
        <ele>29.6</ele>
        <time>2023-06-23T12:16:20Z</time>
      </trkpt>
      <trkpt lat="49.88756" lon="2.26316">
        <ele>29.6</ele>
        <time>2023-06-23T12:16:21Z</time>
      </trkpt>
      <trkpt lat="49.88755" lon="2.26314">
        <ele>29.6</ele>
        <time>2023-06-23T12:16:22Z</time>
      </trkpt>
      <trkpt lat="49.88755" lon="2.26312">
        <ele>29.6</ele>
        <time>2023-06-23T12:16:23Z</time>
      </trkpt>
      <trkpt lat="49.88754" lon="2.26311">
        <ele>29.6</ele>
        <time>2023-06-23T12:16:24Z</time>
      </trkpt>
      <trkpt lat="49.88754" lon="2.26309">
        <ele>29.7</ele>
        <time>2023-06-23T12:16:25Z</time>
      </trkpt>
      <trkpt lat="49.88753" lon="2.26307">
        <ele>29.7</ele>
        <time>2023-06-23T12:16:26Z</time>
      </trkpt>
      <trkpt lat="49.88753" lon="2.26306">
        <ele>29.7</ele>
        <time>2023-06-23T12:16:27Z</time>
      </trkpt>
      <trkpt lat="49.88752" lon="2.26301">
        <ele>29.7</ele>
        <time>2023-06-23T12:16:28Z</time>
      </trkpt>
      <trkpt lat="49.88751" lon="2.263">
        <ele>29.7</ele>
        <time>2023-06-23T12:16:30Z</time>
      </trkpt>
      <trkpt lat="49.88751" lon="2.26298">
        <ele>29.8</ele>
        <time>2023-06-23T12:16:31Z</time>
      </trkpt>
      <trkpt lat="49.8875" lon="2.26297">
        <ele>29.8</ele>
        <time>2023-06-23T12:16:32Z</time>
      </trkpt>
      <trkpt lat="49.88749" lon="2.26295">
        <ele>29.8</ele>
        <time>2023-06-23T12:16:33Z</time>
      </trkpt>
      <trkpt lat="49.88748" lon="2.26293">
        <ele>29.8</ele>
        <time>2023-06-23T12:16:34Z</time>
      </trkpt>
      <trkpt lat="49.88747" lon="2.26292">
        <ele>29.8</ele>
        <time>2023-06-23T12:16:35Z</time>
      </trkpt>
      <trkpt lat="49.88747" lon="2.26291">
        <ele>29.8</ele>
        <time>2023-06-23T12:16:36Z</time>
      </trkpt>
      <trkpt lat="49.88746" lon="2.26289">
        <ele>29.8</ele>
        <time>2023-06-23T12:16:37Z</time>
      </trkpt>
      <trkpt lat="49.88744" lon="2.26286">
        <ele>29.9</ele>
        <time>2023-06-23T12:16:39Z</time>
      </trkpt>
      <trkpt lat="49.88743" lon="2.26284">
        <ele>29.9</ele>
        <time>2023-06-23T12:16:40Z</time>
      </trkpt>
      <trkpt lat="49.88742" lon="2.26283">
        <ele>29.9</ele>
        <time>2023-06-23T12:16:41Z</time>
      </trkpt>
      <trkpt lat="49.88741" lon="2.26281">
        <ele>29.9</ele>
        <time>2023-06-23T12:16:42Z</time>
      </trkpt>
      <trkpt lat="49.8874" lon="2.26279">
        <ele>29.9</ele>
        <time>2023-06-23T12:16:43Z</time>
      </trkpt>
      <trkpt lat="49.88739" lon="2.26278">
        <ele>29.9</ele>
        <time>2023-06-23T12:16:44Z</time>
      </trkpt>
      <trkpt lat="49.88738" lon="2.26276">
        <ele>29.9</ele>
        <time>2023-06-23T12:16:45Z</time>
      </trkpt>
      <trkpt lat="49.88738" lon="2.26274">
        <ele>29.9</ele>
        <time>2023-06-23T12:16:47Z</time>
      </trkpt>
      <trkpt lat="49.88736" lon="2.26271">
        <ele>29.9</ele>
        <time>2023-06-23T12:16:48Z</time>
      </trkpt>
      <trkpt lat="49.88735" lon="2.26269">
        <ele>29.9</ele>
        <time>2023-06-23T12:16:49Z</time>
      </trkpt>
      <trkpt lat="49.88735" lon="2.26268">
        <ele>29.9</ele>
        <time>2023-06-23T12:16:50Z</time>
      </trkpt>
      <trkpt lat="49.88734" lon="2.26266">
        <ele>29.9</ele>
        <time>2023-06-23T12:16:51Z</time>
      </trkpt>
      <trkpt lat="49.88733" lon="2.26265">
        <ele>30</ele>
        <time>2023-06-23T12:16:52Z</time>
      </trkpt>
      <trkpt lat="49.88732" lon="2.26262">
        <ele>30</ele>
        <time>2023-06-23T12:16:53Z</time>
      </trkpt>
      <trkpt lat="49.88732" lon="2.26261">
        <ele>30</ele>
        <time>2023-06-23T12:16:54Z</time>
      </trkpt>
      <trkpt lat="49.88732" lon="2.26259">
        <ele>30</ele>
        <time>2023-06-23T12:16:55Z</time>
      </trkpt>
      <trkpt lat="49.88731" lon="2.26258">
        <ele>30</ele>
        <time>2023-06-23T12:16:56Z</time>
      </trkpt>
      <trkpt lat="49.8873" lon="2.26255">
        <ele>30</ele>
        <time>2023-06-23T12:16:57Z</time>
      </trkpt>
      <trkpt lat="49.8873" lon="2.26253">
        <ele>30</ele>
        <time>2023-06-23T12:16:59Z</time>
      </trkpt>
      <trkpt lat="49.8873" lon="2.26251">
        <ele>30</ele>
        <time>2023-06-23T12:17:00Z</time>
      </trkpt>
      <trkpt lat="49.8873" lon="2.2625">
        <ele>30</ele>
        <time>2023-06-23T12:17:01Z</time>
      </trkpt>
      <trkpt lat="49.88729" lon="2.26248">
        <ele>30</ele>
        <time>2023-06-23T12:17:02Z</time>
      </trkpt>
      <trkpt lat="49.88729" lon="2.26246">
        <ele>30</ele>
        <time>2023-06-23T12:17:03Z</time>
      </trkpt>
      <trkpt lat="49.88728" lon="2.26244">
        <ele>30</ele>
        <time>2023-06-23T12:17:04Z</time>
      </trkpt>
      <trkpt lat="49.88728" lon="2.26242">
        <ele>30</ele>
        <time>2023-06-23T12:17:05Z</time>
      </trkpt>
      <trkpt lat="49.88727" lon="2.2624">
        <ele>30</ele>
        <time>2023-06-23T12:17:06Z</time>
      </trkpt>
      <trkpt lat="49.88727" lon="2.26238">
        <ele>30</ele>
        <time>2023-06-23T12:17:08Z</time>
      </trkpt>
      <trkpt lat="49.88725" lon="2.26235">
        <ele>30</ele>
        <time>2023-06-23T12:17:09Z</time>
      </trkpt>
      <trkpt lat="49.88725" lon="2.26234">
        <ele>30</ele>
        <time>2023-06-23T12:17:10Z</time>
      </trkpt>
      <trkpt lat="49.88725" lon="2.26233">
        <ele>30</ele>
        <time>2023-06-23T12:17:11Z</time>
      </trkpt>
      <trkpt lat="49.88724" lon="2.26231">
        <ele>30</ele>
        <time>2023-06-23T12:17:12Z</time>
      </trkpt>
      <trkpt lat="49.88723" lon="2.26229">
        <ele>30</ele>
        <time>2023-06-23T12:17:13Z</time>
      </trkpt>
      <trkpt lat="49.88722" lon="2.26227">
        <ele>30</ele>
        <time>2023-06-23T12:17:15Z</time>
      </trkpt>
      <trkpt lat="49.88721" lon="2.26225">
        <ele>30</ele>
        <time>2023-06-23T12:17:16Z</time>
      </trkpt>
      <trkpt lat="49.88721" lon="2.26224">
        <ele>30</ele>
        <time>2023-06-23T12:17:17Z</time>
      </trkpt>
      <trkpt lat="49.8872" lon="2.26221">
        <ele>30</ele>
        <time>2023-06-23T12:17:18Z</time>
      </trkpt>
      <trkpt lat="49.88719" lon="2.26218">
        <ele>29.9</ele>
        <time>2023-06-23T12:17:19Z</time>
      </trkpt>
      <trkpt lat="49.88719" lon="2.26217">
        <ele>29.9</ele>
        <time>2023-06-23T12:17:20Z</time>
      </trkpt>
      <trkpt lat="49.88718" lon="2.26216">
        <ele>29.9</ele>
        <time>2023-06-23T12:17:22Z</time>
      </trkpt>
      <trkpt lat="49.88718" lon="2.26214">
        <ele>29.9</ele>
        <time>2023-06-23T12:17:23Z</time>
      </trkpt>
      <trkpt lat="49.88717" lon="2.26213">
        <ele>29.9</ele>
        <time>2023-06-23T12:17:24Z</time>
      </trkpt>
      <trkpt lat="49.88717" lon="2.26212">
        <ele>29.9</ele>
        <time>2023-06-23T12:17:25Z</time>
      </trkpt>
      <trkpt lat="49.88716" lon="2.26209">
        <ele>29.9</ele>
        <time>2023-06-23T12:17:26Z</time>
      </trkpt>
      <trkpt lat="49.88715" lon="2.26208">
        <ele>29.9</ele>
        <time>2023-06-23T12:17:27Z</time>
      </trkpt>
      <trkpt lat="49.88714" lon="2.26207">
        <ele>29.9</ele>
        <time>2023-06-23T12:17:28Z</time>
      </trkpt>
      <trkpt lat="49.88713" lon="2.26206">
        <ele>29.9</ele>
        <time>2023-06-23T12:17:29Z</time>
      </trkpt>
      <trkpt lat="49.88713" lon="2.26205">
        <ele>29.9</ele>
        <time>2023-06-23T12:17:30Z</time>
      </trkpt>
      <trkpt lat="49.88712" lon="2.26204">
        <ele>29.9</ele>
        <time>2023-06-23T12:17:31Z</time>
      </trkpt>
      <trkpt lat="49.88711" lon="2.26203">
        <ele>29.9</ele>
        <time>2023-06-23T12:17:32Z</time>
      </trkpt>
      <trkpt lat="49.8871" lon="2.26202">
        <ele>29.9</ele>
        <time>2023-06-23T12:17:34Z</time>
      </trkpt>
      <trkpt lat="49.88709" lon="2.26202">
        <ele>29.9</ele>
        <time>2023-06-23T12:17:35Z</time>
      </trkpt>
      <trkpt lat="49.88708" lon="2.26201">
        <ele>29.8</ele>
        <time>2023-06-23T12:17:36Z</time>
      </trkpt>
      <trkpt lat="49.88707" lon="2.26201">
        <ele>29.8</ele>
        <time>2023-06-23T12:17:37Z</time>
      </trkpt>
      <trkpt lat="49.88706" lon="2.262">
        <ele>29.8</ele>
        <time>2023-06-23T12:17:38Z</time>
      </trkpt>
      <trkpt lat="49.88704" lon="2.26199">
        <ele>29.8</ele>
        <time>2023-06-23T12:17:39Z</time>
      </trkpt>
      <trkpt lat="49.88703" lon="2.26199">
        <ele>29.8</ele>
        <time>2023-06-23T12:17:41Z</time>
      </trkpt>
      <trkpt lat="49.88702" lon="2.26198">
        <ele>29.8</ele>
        <time>2023-06-23T12:17:42Z</time>
      </trkpt>
      <trkpt lat="49.88701" lon="2.26197">
        <ele>29.8</ele>
        <time>2023-06-23T12:17:43Z</time>
      </trkpt>
      <trkpt lat="49.88701" lon="2.26196">
        <ele>29.8</ele>
        <time>2023-06-23T12:17:44Z</time>
      </trkpt>
      <trkpt lat="49.887" lon="2.26195">
        <ele>29.8</ele>
        <time>2023-06-23T12:17:45Z</time>
      </trkpt>
      <trkpt lat="49.88699" lon="2.26194">
        <ele>29.8</ele>
        <time>2023-06-23T12:17:46Z</time>
      </trkpt>
      <trkpt lat="49.88698" lon="2.26193">
        <ele>29.8</ele>
        <time>2023-06-23T12:17:47Z</time>
      </trkpt>
      <trkpt lat="49.88697" lon="2.26191">
        <ele>29.7</ele>
        <time>2023-06-23T12:17:48Z</time>
      </trkpt>
      <trkpt lat="49.88696" lon="2.26189">
        <ele>29.7</ele>
        <time>2023-06-23T12:17:49Z</time>
      </trkpt>
      <trkpt lat="49.88695" lon="2.26188">
        <ele>29.7</ele>
        <time>2023-06-23T12:17:51Z</time>
      </trkpt>
      <trkpt lat="49.88695" lon="2.26186">
        <ele>29.7</ele>
        <time>2023-06-23T12:17:52Z</time>
      </trkpt>
      <trkpt lat="49.88694" lon="2.26185">
        <ele>29.7</ele>
        <time>2023-06-23T12:17:53Z</time>
      </trkpt>
      <trkpt lat="49.88693" lon="2.26182">
        <ele>29.7</ele>
        <time>2023-06-23T12:17:54Z</time>
      </trkpt>
      <trkpt lat="49.88692" lon="2.2618">
        <ele>29.7</ele>
        <time>2023-06-23T12:17:55Z</time>
      </trkpt>
      <trkpt lat="49.88691" lon="2.26179">
        <ele>29.7</ele>
        <time>2023-06-23T12:17:56Z</time>
      </trkpt>
      <trkpt lat="49.88691" lon="2.26178">
        <ele>29.7</ele>
        <time>2023-06-23T12:17:57Z</time>
      </trkpt>
      <trkpt lat="49.8869" lon="2.26176">
        <ele>29.6</ele>
        <time>2023-06-23T12:17:58Z</time>
      </trkpt>
      <trkpt lat="49.8869" lon="2.26175">
        <ele>29.6</ele>
        <time>2023-06-23T12:17:59Z</time>
      </trkpt>
      <trkpt lat="49.88689" lon="2.26173">
        <ele>29.6</ele>
        <time>2023-06-23T12:18:00Z</time>
      </trkpt>
      <trkpt lat="49.88688" lon="2.26172">
        <ele>29.6</ele>
        <time>2023-06-23T12:18:01Z</time>
      </trkpt>
      <trkpt lat="49.88687" lon="2.26171">
        <ele>29.6</ele>
        <time>2023-06-23T12:18:02Z</time>
      </trkpt>
      <trkpt lat="49.88685" lon="2.26168">
        <ele>29.6</ele>
        <time>2023-06-23T12:18:04Z</time>
      </trkpt>
      <trkpt lat="49.88685" lon="2.26167">
        <ele>29.6</ele>
        <time>2023-06-23T12:18:05Z</time>
      </trkpt>
      <trkpt lat="49.88683" lon="2.26165">
        <ele>29.6</ele>
        <time>2023-06-23T12:18:06Z</time>
      </trkpt>
      <trkpt lat="49.88683" lon="2.26163">
        <ele>29.6</ele>
        <time>2023-06-23T12:18:07Z</time>
      </trkpt>
      <trkpt lat="49.88682" lon="2.26162">
        <ele>29.5</ele>
        <time>2023-06-23T12:18:08Z</time>
      </trkpt>
      <trkpt lat="49.88681" lon="2.26159">
        <ele>29.5</ele>
        <time>2023-06-23T12:18:09Z</time>
      </trkpt>
      <trkpt lat="49.8868" lon="2.26157">
        <ele>29.5</ele>
        <time>2023-06-23T12:18:11Z</time>
      </trkpt>
      <trkpt lat="49.88679" lon="2.26156">
        <ele>29.5</ele>
        <time>2023-06-23T12:18:12Z</time>
      </trkpt>
      <trkpt lat="49.88678" lon="2.26154">
        <ele>29.5</ele>
        <time>2023-06-23T12:18:13Z</time>
      </trkpt>
      <trkpt lat="49.88678" lon="2.26153">
        <ele>29.5</ele>
        <time>2023-06-23T12:18:14Z</time>
      </trkpt>
      <trkpt lat="49.88677" lon="2.26152">
        <ele>29.5</ele>
        <time>2023-06-23T12:18:15Z</time>
      </trkpt>
      <trkpt lat="49.88676" lon="2.26151">
        <ele>29.5</ele>
        <time>2023-06-23T12:18:16Z</time>
      </trkpt>
      <trkpt lat="49.88675" lon="2.2615">
        <ele>29.5</ele>
        <time>2023-06-23T12:18:17Z</time>
      </trkpt>
      <trkpt lat="49.88674" lon="2.26149">
        <ele>29.4</ele>
        <time>2023-06-23T12:18:18Z</time>
      </trkpt>
      <trkpt lat="49.88672" lon="2.26147">
        <ele>29.4</ele>
        <time>2023-06-23T12:18:19Z</time>
      </trkpt>
      <trkpt lat="49.88671" lon="2.26146">
        <ele>29.4</ele>
        <time>2023-06-23T12:18:21Z</time>
      </trkpt>
      <trkpt lat="49.8867" lon="2.26145">
        <ele>29.4</ele>
        <time>2023-06-23T12:18:22Z</time>
      </trkpt>
      <trkpt lat="49.8867" lon="2.26143">
        <ele>29.4</ele>
        <time>2023-06-23T12:18:23Z</time>
      </trkpt>
      <trkpt lat="49.88668" lon="2.26141">
        <ele>29.4</ele>
        <time>2023-06-23T12:18:24Z</time>
      </trkpt>
      <trkpt lat="49.88668" lon="2.2614">
        <ele>29.4</ele>
        <time>2023-06-23T12:18:25Z</time>
      </trkpt>
      <trkpt lat="49.88667" lon="2.26138">
        <ele>29.4</ele>
        <time>2023-06-23T12:18:26Z</time>
      </trkpt>
      <trkpt lat="49.88666" lon="2.26137">
        <ele>29.4</ele>
        <time>2023-06-23T12:18:27Z</time>
      </trkpt>
      <trkpt lat="49.88665" lon="2.26136">
        <ele>29.3</ele>
        <time>2023-06-23T12:18:28Z</time>
      </trkpt>
      <trkpt lat="49.88664" lon="2.26134">
        <ele>29.3</ele>
        <time>2023-06-23T12:18:29Z</time>
      </trkpt>
      <trkpt lat="49.88663" lon="2.26133">
        <ele>29.3</ele>
        <time>2023-06-23T12:18:30Z</time>
      </trkpt>
      <trkpt lat="49.88662" lon="2.26131">
        <ele>29.3</ele>
        <time>2023-06-23T12:18:32Z</time>
      </trkpt>
      <trkpt lat="49.88662" lon="2.2613">
        <ele>29.3</ele>
        <time>2023-06-23T12:18:33Z</time>
      </trkpt>
      <trkpt lat="49.88661" lon="2.26129">
        <ele>29.3</ele>
        <time>2023-06-23T12:18:34Z</time>
      </trkpt>
      <trkpt lat="49.88661" lon="2.26127">
        <ele>29.3</ele>
        <time>2023-06-23T12:18:35Z</time>
      </trkpt>
      <trkpt lat="49.88659" lon="2.26125">
        <ele>29.3</ele>
        <time>2023-06-23T12:18:36Z</time>
      </trkpt>
      <trkpt lat="49.88659" lon="2.26124">
        <ele>29.3</ele>
        <time>2023-06-23T12:18:38Z</time>
      </trkpt>
      <trkpt lat="49.88658" lon="2.26123">
        <ele>29.3</ele>
        <time>2023-06-23T12:18:39Z</time>
      </trkpt>
      <trkpt lat="49.88658" lon="2.26121">
        <ele>29.3</ele>
        <time>2023-06-23T12:18:40Z</time>
      </trkpt>
      <trkpt lat="49.88657" lon="2.2612">
        <ele>29.3</ele>
        <time>2023-06-23T12:18:41Z</time>
      </trkpt>
      <trkpt lat="49.88657" lon="2.26118">
        <ele>29.3</ele>
        <time>2023-06-23T12:18:42Z</time>
      </trkpt>
      <trkpt lat="49.88656" lon="2.26117">
        <ele>29.3</ele>
        <time>2023-06-23T12:18:43Z</time>
      </trkpt>
      <trkpt lat="49.88655" lon="2.26115">
        <ele>29.3</ele>
        <time>2023-06-23T12:18:44Z</time>
      </trkpt>
      <trkpt lat="49.88655" lon="2.26114">
        <ele>29.3</ele>
        <time>2023-06-23T12:18:45Z</time>
      </trkpt>
      <trkpt lat="49.88654" lon="2.26113">
        <ele>29.3</ele>
        <time>2023-06-23T12:18:46Z</time>
      </trkpt>
      <trkpt lat="49.88653" lon="2.26112">
        <ele>29.2</ele>
        <time>2023-06-23T12:18:47Z</time>
      </trkpt>
      <trkpt lat="49.88652" lon="2.26111">
        <ele>29.2</ele>
        <time>2023-06-23T12:18:48Z</time>
      </trkpt>
      <trkpt lat="49.88652" lon="2.26109">
        <ele>29.2</ele>
        <time>2023-06-23T12:18:49Z</time>
      </trkpt>
      <trkpt lat="49.88651" lon="2.26108">
        <ele>29.2</ele>
        <time>2023-06-23T12:18:50Z</time>
      </trkpt>
      <trkpt lat="49.8865" lon="2.26106">
        <ele>29.2</ele>
        <time>2023-06-23T12:18:52Z</time>
      </trkpt>
      <trkpt lat="49.88649" lon="2.26104">
        <ele>29.2</ele>
        <time>2023-06-23T12:18:53Z</time>
      </trkpt>
      <trkpt lat="49.88648" lon="2.26103">
        <ele>29.2</ele>
        <time>2023-06-23T12:18:54Z</time>
      </trkpt>
      <trkpt lat="49.88648" lon="2.26102">
        <ele>29.2</ele>
        <time>2023-06-23T12:18:55Z</time>
      </trkpt>
      <trkpt lat="49.88647" lon="2.26101">
        <ele>29.2</ele>
        <time>2023-06-23T12:18:56Z</time>
      </trkpt>
      <trkpt lat="49.88646" lon="2.261">
        <ele>29.2</ele>
        <time>2023-06-23T12:18:57Z</time>
      </trkpt>
      <trkpt lat="49.88645" lon="2.26098">
        <ele>29.2</ele>
        <time>2023-06-23T12:18:58Z</time>
      </trkpt>
      <trkpt lat="49.88644" lon="2.26097">
        <ele>29.2</ele>
        <time>2023-06-23T12:18:59Z</time>
      </trkpt>
      <trkpt lat="49.88644" lon="2.26096">
        <ele>29.2</ele>
        <time>2023-06-23T12:19:00Z</time>
      </trkpt>
      <trkpt lat="49.88643" lon="2.26095">
        <ele>29.2</ele>
        <time>2023-06-23T12:19:01Z</time>
      </trkpt>
      <trkpt lat="49.88641" lon="2.26093">
        <ele>29.2</ele>
        <time>2023-06-23T12:19:02Z</time>
      </trkpt>
      <trkpt lat="49.8864" lon="2.26092">
        <ele>29.2</ele>
        <time>2023-06-23T12:19:03Z</time>
      </trkpt>
      <trkpt lat="49.88639" lon="2.26092">
        <ele>29.2</ele>
        <time>2023-06-23T12:19:05Z</time>
      </trkpt>
      <trkpt lat="49.88638" lon="2.26091">
        <ele>29.2</ele>
        <time>2023-06-23T12:19:06Z</time>
      </trkpt>
      <trkpt lat="49.88638" lon="2.2609">
        <ele>29.2</ele>
        <time>2023-06-23T12:19:07Z</time>
      </trkpt>
      <trkpt lat="49.88637" lon="2.26089">
        <ele>29.2</ele>
        <time>2023-06-23T12:19:08Z</time>
      </trkpt>
      <trkpt lat="49.88635" lon="2.26088">
        <ele>29.2</ele>
        <time>2023-06-23T12:19:09Z</time>
      </trkpt>
      <trkpt lat="49.88634" lon="2.26087">
        <ele>29.2</ele>
        <time>2023-06-23T12:19:11Z</time>
      </trkpt>
      <trkpt lat="49.88633" lon="2.26087">
        <ele>29.2</ele>
        <time>2023-06-23T12:19:12Z</time>
      </trkpt>
      <trkpt lat="49.88631" lon="2.26085">
        <ele>29.2</ele>
        <time>2023-06-23T12:19:13Z</time>
      </trkpt>
      <trkpt lat="49.88631" lon="2.26085">
        <ele>29.2</ele>
        <time>2023-06-23T12:19:14Z</time>
      </trkpt>
      <trkpt lat="49.8863" lon="2.26084">
        <ele>29.2</ele>
        <time>2023-06-23T12:19:15Z</time>
      </trkpt>
      <trkpt lat="49.88629" lon="2.26084">
        <ele>29.2</ele>
        <time>2023-06-23T12:19:16Z</time>
      </trkpt>
      <trkpt lat="49.88628" lon="2.26083">
        <ele>29.2</ele>
        <time>2023-06-23T12:19:17Z</time>
      </trkpt>
      <trkpt lat="49.88627" lon="2.26082">
        <ele>29.2</ele>
        <time>2023-06-23T12:19:18Z</time>
      </trkpt>
      <trkpt lat="49.88626" lon="2.26081">
        <ele>29.2</ele>
        <time>2023-06-23T12:19:19Z</time>
      </trkpt>
      <trkpt lat="49.88625" lon="2.2608">
        <ele>29.2</ele>
        <time>2023-06-23T12:19:20Z</time>
      </trkpt>
      <trkpt lat="49.88624" lon="2.26079">
        <ele>29.2</ele>
        <time>2023-06-23T12:19:22Z</time>
      </trkpt>
      <trkpt lat="49.88623" lon="2.26078">
        <ele>29.2</ele>
        <time>2023-06-23T12:19:23Z</time>
      </trkpt>
      <trkpt lat="49.88622" lon="2.26077">
        <ele>29.2</ele>
        <time>2023-06-23T12:19:24Z</time>
      </trkpt>
      <trkpt lat="49.88621" lon="2.26076">
        <ele>29.2</ele>
        <time>2023-06-23T12:19:25Z</time>
      </trkpt>
      <trkpt lat="49.88619" lon="2.26074">
        <ele>29.1</ele>
        <time>2023-06-23T12:19:26Z</time>
      </trkpt>
      <trkpt lat="49.88619" lon="2.26073">
        <ele>29.1</ele>
        <time>2023-06-23T12:19:27Z</time>
      </trkpt>
      <trkpt lat="49.88618" lon="2.26072">
        <ele>29.1</ele>
        <time>2023-06-23T12:19:28Z</time>
      </trkpt>
      <trkpt lat="49.88616" lon="2.26071">
        <ele>29.1</ele>
        <time>2023-06-23T12:19:29Z</time>
      </trkpt>
      <trkpt lat="49.88616" lon="2.2607">
        <ele>29.1</ele>
        <time>2023-06-23T12:19:30Z</time>
      </trkpt>
      <trkpt lat="49.88615" lon="2.26069">
        <ele>29.1</ele>
        <time>2023-06-23T12:19:31Z</time>
      </trkpt>
      <trkpt lat="49.88613" lon="2.26067">
        <ele>29.1</ele>
        <time>2023-06-23T12:19:33Z</time>
      </trkpt>
      <trkpt lat="49.88612" lon="2.26067">
        <ele>29.1</ele>
        <time>2023-06-23T12:19:34Z</time>
      </trkpt>
      <trkpt lat="49.88612" lon="2.26066">
        <ele>29.1</ele>
        <time>2023-06-23T12:19:35Z</time>
      </trkpt>
      <trkpt lat="49.8861" lon="2.26064">
        <ele>29.1</ele>
        <time>2023-06-23T12:19:36Z</time>
      </trkpt>
      <trkpt lat="49.88609" lon="2.26063">
        <ele>29.1</ele>
        <time>2023-06-23T12:19:37Z</time>
      </trkpt>
      <trkpt lat="49.88608" lon="2.26063">
        <ele>29.1</ele>
        <time>2023-06-23T12:19:38Z</time>
      </trkpt>
      <trkpt lat="49.88607" lon="2.26061">
        <ele>29.1</ele>
        <time>2023-06-23T12:19:39Z</time>
      </trkpt>
      <trkpt lat="49.88606" lon="2.2606">
        <ele>29.1</ele>
        <time>2023-06-23T12:19:40Z</time>
      </trkpt>
      <trkpt lat="49.88604" lon="2.26058">
        <ele>29</ele>
        <time>2023-06-23T12:19:42Z</time>
      </trkpt>
      <trkpt lat="49.88603" lon="2.26057">
        <ele>29</ele>
        <time>2023-06-23T12:19:43Z</time>
      </trkpt>
      <trkpt lat="49.88602" lon="2.26056">
        <ele>29</ele>
        <time>2023-06-23T12:19:44Z</time>
      </trkpt>
      <trkpt lat="49.886" lon="2.26055">
        <ele>29</ele>
        <time>2023-06-23T12:19:45Z</time>
      </trkpt>
      <trkpt lat="49.88598" lon="2.26054">
        <ele>29</ele>
        <time>2023-06-23T12:19:46Z</time>
      </trkpt>
      <trkpt lat="49.88597" lon="2.26053">
        <ele>29</ele>
        <time>2023-06-23T12:19:48Z</time>
      </trkpt>
      <trkpt lat="49.88596" lon="2.26052">
        <ele>29</ele>
        <time>2023-06-23T12:19:49Z</time>
      </trkpt>
      <trkpt lat="49.88596" lon="2.26051">
        <ele>29</ele>
        <time>2023-06-23T12:19:50Z</time>
      </trkpt>
      <trkpt lat="49.88595" lon="2.2605">
        <ele>29</ele>
        <time>2023-06-23T12:19:51Z</time>
      </trkpt>
      <trkpt lat="49.88593" lon="2.26049">
        <ele>29</ele>
        <time>2023-06-23T12:19:52Z</time>
      </trkpt>
      <trkpt lat="49.88592" lon="2.26047">
        <ele>29</ele>
        <time>2023-06-23T12:19:53Z</time>
      </trkpt>
      <trkpt lat="49.88591" lon="2.26045">
        <ele>29</ele>
        <time>2023-06-23T12:19:54Z</time>
      </trkpt>
      <trkpt lat="49.8859" lon="2.26044">
        <ele>29</ele>
        <time>2023-06-23T12:19:55Z</time>
      </trkpt>
      <trkpt lat="49.88589" lon="2.26043">
        <ele>29</ele>
        <time>2023-06-23T12:19:56Z</time>
      </trkpt>
      <trkpt lat="49.88589" lon="2.26042">
        <ele>29</ele>
        <time>2023-06-23T12:19:57Z</time>
      </trkpt>
      <trkpt lat="49.88588" lon="2.26041">
        <ele>29</ele>
        <time>2023-06-23T12:19:59Z</time>
      </trkpt>
      <trkpt lat="49.88587" lon="2.26039">
        <ele>29</ele>
        <time>2023-06-23T12:20:00Z</time>
      </trkpt>
      <trkpt lat="49.88587" lon="2.26038">
        <ele>29</ele>
        <time>2023-06-23T12:20:01Z</time>
      </trkpt>
      <trkpt lat="49.88586" lon="2.26037">
        <ele>29.1</ele>
        <time>2023-06-23T12:20:02Z</time>
      </trkpt>
      <trkpt lat="49.88585" lon="2.26036">
        <ele>29.1</ele>
        <time>2023-06-23T12:20:03Z</time>
      </trkpt>
      <trkpt lat="49.88584" lon="2.26033">
        <ele>29.1</ele>
        <time>2023-06-23T12:20:04Z</time>
      </trkpt>
      <trkpt lat="49.88584" lon="2.26032">
        <ele>29.1</ele>
        <time>2023-06-23T12:20:05Z</time>
      </trkpt>
      <trkpt lat="49.88583" lon="2.26031">
        <ele>29.1</ele>
        <time>2023-06-23T12:20:06Z</time>
      </trkpt>
      <trkpt lat="49.88582" lon="2.26029">
        <ele>29.1</ele>
        <time>2023-06-23T12:20:07Z</time>
      </trkpt>
      <trkpt lat="49.88581" lon="2.26027">
        <ele>29.1</ele>
        <time>2023-06-23T12:20:09Z</time>
      </trkpt>
      <trkpt lat="49.88581" lon="2.26025">
        <ele>29.1</ele>
        <time>2023-06-23T12:20:10Z</time>
      </trkpt>
      <trkpt lat="49.8858" lon="2.26023">
        <ele>29.1</ele>
        <time>2023-06-23T12:20:11Z</time>
      </trkpt>
      <trkpt lat="49.88578" lon="2.2602">
        <ele>29.1</ele>
        <time>2023-06-23T12:20:12Z</time>
      </trkpt>
      <trkpt lat="49.88578" lon="2.26019">
        <ele>29.1</ele>
        <time>2023-06-23T12:20:13Z</time>
      </trkpt>
      <trkpt lat="49.88577" lon="2.26018">
        <ele>29.1</ele>
        <time>2023-06-23T12:20:14Z</time>
      </trkpt>
      <trkpt lat="49.88576" lon="2.26016">
        <ele>29.1</ele>
        <time>2023-06-23T12:20:15Z</time>
      </trkpt>
      <trkpt lat="49.88575" lon="2.26015">
        <ele>29.1</ele>
        <time>2023-06-23T12:20:17Z</time>
      </trkpt>
      <trkpt lat="49.88575" lon="2.26014">
        <ele>29.1</ele>
        <time>2023-06-23T12:20:18Z</time>
      </trkpt>
      <trkpt lat="49.88573" lon="2.26011">
        <ele>29.1</ele>
        <time>2023-06-23T12:20:19Z</time>
      </trkpt>
      <trkpt lat="49.88573" lon="2.2601">
        <ele>29.1</ele>
        <time>2023-06-23T12:20:20Z</time>
      </trkpt>
      <trkpt lat="49.88572" lon="2.2601">
        <ele>29.1</ele>
        <time>2023-06-23T12:20:21Z</time>
      </trkpt>
      <trkpt lat="49.88571" lon="2.26008">
        <ele>29.1</ele>
        <time>2023-06-23T12:20:22Z</time>
      </trkpt>
      <trkpt lat="49.8857" lon="2.26008">
        <ele>29.1</ele>
        <time>2023-06-23T12:20:23Z</time>
      </trkpt>
      <trkpt lat="49.88569" lon="2.26007">
        <ele>29.1</ele>
        <time>2023-06-23T12:20:24Z</time>
      </trkpt>
      <trkpt lat="49.88568" lon="2.26005">
        <ele>29.1</ele>
        <time>2023-06-23T12:20:25Z</time>
      </trkpt>
      <trkpt lat="49.88567" lon="2.26005">
        <ele>29.1</ele>
        <time>2023-06-23T12:20:27Z</time>
      </trkpt>
      <trkpt lat="49.88566" lon="2.26004">
        <ele>29.1</ele>
        <time>2023-06-23T12:20:28Z</time>
      </trkpt>
      <trkpt lat="49.88565" lon="2.26003">
        <ele>29.1</ele>
        <time>2023-06-23T12:20:29Z</time>
      </trkpt>
      <trkpt lat="49.88564" lon="2.26003">
        <ele>29.1</ele>
        <time>2023-06-23T12:20:30Z</time>
      </trkpt>
      <trkpt lat="49.88563" lon="2.26002">
        <ele>29.1</ele>
        <time>2023-06-23T12:20:31Z</time>
      </trkpt>
      <trkpt lat="49.88562" lon="2.26001">
        <ele>29.1</ele>
        <time>2023-06-23T12:20:32Z</time>
      </trkpt>
      <trkpt lat="49.88561" lon="2.26">
        <ele>29.1</ele>
        <time>2023-06-23T12:20:33Z</time>
      </trkpt>
      <trkpt lat="49.88561" lon="2.25999">
        <ele>29.1</ele>
        <time>2023-06-23T12:20:35Z</time>
      </trkpt>
      <trkpt lat="49.8856" lon="2.25997">
        <ele>29.1</ele>
        <time>2023-06-23T12:20:36Z</time>
      </trkpt>
      <trkpt lat="49.88559" lon="2.25996">
        <ele>29.1</ele>
        <time>2023-06-23T12:20:37Z</time>
      </trkpt>
      <trkpt lat="49.88558" lon="2.25995">
        <ele>29.1</ele>
        <time>2023-06-23T12:20:38Z</time>
      </trkpt>
      <trkpt lat="49.88557" lon="2.25994">
        <ele>29.1</ele>
        <time>2023-06-23T12:20:39Z</time>
      </trkpt>
      <trkpt lat="49.88557" lon="2.25992">
        <ele>29.1</ele>
        <time>2023-06-23T12:20:40Z</time>
      </trkpt>
      <trkpt lat="49.88556" lon="2.25991">
        <ele>29.1</ele>
        <time>2023-06-23T12:20:41Z</time>
      </trkpt>
      <trkpt lat="49.88555" lon="2.25989">
        <ele>29.1</ele>
        <time>2023-06-23T12:20:43Z</time>
      </trkpt>
      <trkpt lat="49.88554" lon="2.25988">
        <ele>29.1</ele>
        <time>2023-06-23T12:20:44Z</time>
      </trkpt>
      <trkpt lat="49.88553" lon="2.25986">
        <ele>29.1</ele>
        <time>2023-06-23T12:20:45Z</time>
      </trkpt>
      <trkpt lat="49.88552" lon="2.25985">
        <ele>29.1</ele>
        <time>2023-06-23T12:20:46Z</time>
      </trkpt>
      <trkpt lat="49.8855" lon="2.25984">
        <ele>29.1</ele>
        <time>2023-06-23T12:20:47Z</time>
      </trkpt>
      <trkpt lat="49.88549" lon="2.25982">
        <ele>29.1</ele>
        <time>2023-06-23T12:20:48Z</time>
      </trkpt>
      <trkpt lat="49.88548" lon="2.25981">
        <ele>29.1</ele>
        <time>2023-06-23T12:20:49Z</time>
      </trkpt>
      <trkpt lat="49.88547" lon="2.25979">
        <ele>29.1</ele>
        <time>2023-06-23T12:20:50Z</time>
      </trkpt>
      <trkpt lat="49.88546" lon="2.25977">
        <ele>29.1</ele>
        <time>2023-06-23T12:20:51Z</time>
      </trkpt>
      <trkpt lat="49.88545" lon="2.25975">
        <ele>29.1</ele>
        <time>2023-06-23T12:20:53Z</time>
      </trkpt>
      <trkpt lat="49.88543" lon="2.25973">
        <ele>29.1</ele>
        <time>2023-06-23T12:20:54Z</time>
      </trkpt>
      <trkpt lat="49.88542" lon="2.25971">
        <ele>29.1</ele>
        <time>2023-06-23T12:20:55Z</time>
      </trkpt>
      <trkpt lat="49.88542" lon="2.25969">
        <ele>29.1</ele>
        <time>2023-06-23T12:20:56Z</time>
      </trkpt>
      <trkpt lat="49.88541" lon="2.25968">
        <ele>29.1</ele>
        <time>2023-06-23T12:20:57Z</time>
      </trkpt>
      <trkpt lat="49.88539" lon="2.25965">
        <ele>29.1</ele>
        <time>2023-06-23T12:20:58Z</time>
      </trkpt>
      <trkpt lat="49.88539" lon="2.25964">
        <ele>29.1</ele>
        <time>2023-06-23T12:20:59Z</time>
      </trkpt>
      <trkpt lat="49.88538" lon="2.25963">
        <ele>29.1</ele>
        <time>2023-06-23T12:21:00Z</time>
      </trkpt>
      <trkpt lat="49.88537" lon="2.25962">
        <ele>29.1</ele>
        <time>2023-06-23T12:21:01Z</time>
      </trkpt>
      <trkpt lat="49.88536" lon="2.2596">
        <ele>29.1</ele>
        <time>2023-06-23T12:21:03Z</time>
      </trkpt>
      <trkpt lat="49.88535" lon="2.25959">
        <ele>29.1</ele>
        <time>2023-06-23T12:21:04Z</time>
      </trkpt>
      <trkpt lat="49.88533" lon="2.25958">
        <ele>29.1</ele>
        <time>2023-06-23T12:21:05Z</time>
      </trkpt>
      <trkpt lat="49.88532" lon="2.25957">
        <ele>29.1</ele>
        <time>2023-06-23T12:21:06Z</time>
      </trkpt>
      <trkpt lat="49.88531" lon="2.25956">
        <ele>29.1</ele>
        <time>2023-06-23T12:21:07Z</time>
      </trkpt>
      <trkpt lat="49.8853" lon="2.25955">
        <ele>29.1</ele>
        <time>2023-06-23T12:21:08Z</time>
      </trkpt>
      <trkpt lat="49.88529" lon="2.25954">
        <ele>29.1</ele>
        <time>2023-06-23T12:21:09Z</time>
      </trkpt>
      <trkpt lat="49.88528" lon="2.25953">
        <ele>29.1</ele>
        <time>2023-06-23T12:21:10Z</time>
      </trkpt>
      <trkpt lat="49.88527" lon="2.25952">
        <ele>29.1</ele>
        <time>2023-06-23T12:21:11Z</time>
      </trkpt>
      <trkpt lat="49.88526" lon="2.2595">
        <ele>29.1</ele>
        <time>2023-06-23T12:21:12Z</time>
      </trkpt>
      <trkpt lat="49.88525" lon="2.25949">
        <ele>29.1</ele>
        <time>2023-06-23T12:21:14Z</time>
      </trkpt>
      <trkpt lat="49.88523" lon="2.25948">
        <ele>29.1</ele>
        <time>2023-06-23T12:21:15Z</time>
      </trkpt>
      <trkpt lat="49.88522" lon="2.25947">
        <ele>29.1</ele>
        <time>2023-06-23T12:21:16Z</time>
      </trkpt>
      <trkpt lat="49.88521" lon="2.25946">
        <ele>29.1</ele>
        <time>2023-06-23T12:21:17Z</time>
      </trkpt>
      <trkpt lat="49.88519" lon="2.25946">
        <ele>29.1</ele>
        <time>2023-06-23T12:21:18Z</time>
      </trkpt>
      <trkpt lat="49.88518" lon="2.25945">
        <ele>29.1</ele>
        <time>2023-06-23T12:21:19Z</time>
      </trkpt>
      <trkpt lat="49.88517" lon="2.25944">
        <ele>29.1</ele>
        <time>2023-06-23T12:21:20Z</time>
      </trkpt>
      <trkpt lat="49.88516" lon="2.25943">
        <ele>29.1</ele>
        <time>2023-06-23T12:21:22Z</time>
      </trkpt>
      <trkpt lat="49.88515" lon="2.25942">
        <ele>29.1</ele>
        <time>2023-06-23T12:21:23Z</time>
      </trkpt>
      <trkpt lat="49.88514" lon="2.2594">
        <ele>29.1</ele>
        <time>2023-06-23T12:21:24Z</time>
      </trkpt>
      <trkpt lat="49.88513" lon="2.25939">
        <ele>29.1</ele>
        <time>2023-06-23T12:21:25Z</time>
      </trkpt>
      <trkpt lat="49.88512" lon="2.25937">
        <ele>29.1</ele>
        <time>2023-06-23T12:21:26Z</time>
      </trkpt>
      <trkpt lat="49.88511" lon="2.25936">
        <ele>29.1</ele>
        <time>2023-06-23T12:21:28Z</time>
      </trkpt>
      <trkpt lat="49.88511" lon="2.25935">
        <ele>29.1</ele>
        <time>2023-06-23T12:21:29Z</time>
      </trkpt>
      <trkpt lat="49.8851" lon="2.25934">
        <ele>29.1</ele>
        <time>2023-06-23T12:21:30Z</time>
      </trkpt>
      <trkpt lat="49.88508" lon="2.25933">
        <ele>29.1</ele>
        <time>2023-06-23T12:21:31Z</time>
      </trkpt>
      <trkpt lat="49.88506" lon="2.25932">
        <ele>29.1</ele>
        <time>2023-06-23T12:21:32Z</time>
      </trkpt>
      <trkpt lat="49.88506" lon="2.25931">
        <ele>29.1</ele>
        <time>2023-06-23T12:21:33Z</time>
      </trkpt>
      <trkpt lat="49.88505" lon="2.2593">
        <ele>29.1</ele>
        <time>2023-06-23T12:21:34Z</time>
      </trkpt>
      <trkpt lat="49.88503" lon="2.25928">
        <ele>29.1</ele>
        <time>2023-06-23T12:21:36Z</time>
      </trkpt>
      <trkpt lat="49.88503" lon="2.25928">
        <ele>29.1</ele>
        <time>2023-06-23T12:21:37Z</time>
      </trkpt>
      <trkpt lat="49.88502" lon="2.25927">
        <ele>29.1</ele>
        <time>2023-06-23T12:21:38Z</time>
      </trkpt>
      <trkpt lat="49.88501" lon="2.25924">
        <ele>29.1</ele>
        <time>2023-06-23T12:21:39Z</time>
      </trkpt>
      <trkpt lat="49.885" lon="2.25923">
        <ele>29.1</ele>
        <time>2023-06-23T12:21:40Z</time>
      </trkpt>
      <trkpt lat="49.88499" lon="2.25922">
        <ele>29.1</ele>
        <time>2023-06-23T12:21:41Z</time>
      </trkpt>
      <trkpt lat="49.88498" lon="2.2592">
        <ele>29.1</ele>
        <time>2023-06-23T12:21:43Z</time>
      </trkpt>
      <trkpt lat="49.88497" lon="2.25919">
        <ele>29.1</ele>
        <time>2023-06-23T12:21:44Z</time>
      </trkpt>
      <trkpt lat="49.88496" lon="2.25917">
        <ele>29.1</ele>
        <time>2023-06-23T12:21:45Z</time>
      </trkpt>
      <trkpt lat="49.88495" lon="2.25916">
        <ele>29.1</ele>
        <time>2023-06-23T12:21:46Z</time>
      </trkpt>
      <trkpt lat="49.88495" lon="2.25914">
        <ele>29.1</ele>
        <time>2023-06-23T12:21:47Z</time>
      </trkpt>
      <trkpt lat="49.88494" lon="2.25913">
        <ele>29.1</ele>
        <time>2023-06-23T12:21:48Z</time>
      </trkpt>
      <trkpt lat="49.88493" lon="2.25912">
        <ele>29.1</ele>
        <time>2023-06-23T12:21:49Z</time>
      </trkpt>
      <trkpt lat="49.88492" lon="2.25909">
        <ele>29.1</ele>
        <time>2023-06-23T12:21:50Z</time>
      </trkpt>
      <trkpt lat="49.88492" lon="2.25908">
        <ele>29.2</ele>
        <time>2023-06-23T12:21:51Z</time>
      </trkpt>
      <trkpt lat="49.88491" lon="2.25906">
        <ele>29.2</ele>
        <time>2023-06-23T12:21:52Z</time>
      </trkpt>
      <trkpt lat="49.88491" lon="2.25904">
        <ele>29.2</ele>
        <time>2023-06-23T12:21:54Z</time>
      </trkpt>
      <trkpt lat="49.88491" lon="2.25902">
        <ele>29.2</ele>
        <time>2023-06-23T12:21:55Z</time>
      </trkpt>
      <trkpt lat="49.88492" lon="2.25899">
        <ele>29.2</ele>
        <time>2023-06-23T12:21:56Z</time>
      </trkpt>
      <trkpt lat="49.88492" lon="2.25897">
        <ele>29.2</ele>
        <time>2023-06-23T12:21:57Z</time>
      </trkpt>
      <trkpt lat="49.88492" lon="2.25896">
        <ele>29.2</ele>
        <time>2023-06-23T12:21:58Z</time>
      </trkpt>
      <trkpt lat="49.88491" lon="2.25893">
        <ele>29.2</ele>
        <time>2023-06-23T12:22:00Z</time>
      </trkpt>
      <trkpt lat="49.8849" lon="2.25892">
        <ele>29.2</ele>
        <time>2023-06-23T12:22:01Z</time>
      </trkpt>
      <trkpt lat="49.88488" lon="2.25891">
        <ele>29.2</ele>
        <time>2023-06-23T12:22:02Z</time>
      </trkpt>
      <trkpt lat="49.88487" lon="2.25891">
        <ele>29.2</ele>
        <time>2023-06-23T12:22:04Z</time>
      </trkpt>
      <trkpt lat="49.88486" lon="2.25891">
        <ele>29.2</ele>
        <time>2023-06-23T12:22:05Z</time>
      </trkpt>
      <trkpt lat="49.88485" lon="2.2589">
        <ele>29.2</ele>
        <time>2023-06-23T12:22:06Z</time>
      </trkpt>
      <trkpt lat="49.88484" lon="2.2589">
        <ele>29.2</ele>
        <time>2023-06-23T12:22:07Z</time>
      </trkpt>
      <trkpt lat="49.88483" lon="2.25887">
        <ele>29.2</ele>
        <time>2023-06-23T12:22:08Z</time>
      </trkpt>
      <trkpt lat="49.88482" lon="2.25885">
        <ele>29.3</ele>
        <time>2023-06-23T12:22:10Z</time>
      </trkpt>
      <trkpt lat="49.88482" lon="2.25883">
        <ele>29.3</ele>
        <time>2023-06-23T12:22:11Z</time>
      </trkpt>
      <trkpt lat="49.88481" lon="2.25883">
        <ele>29.3</ele>
        <time>2023-06-23T12:22:12Z</time>
      </trkpt>
      <trkpt lat="49.8848" lon="2.25882">
        <ele>29.3</ele>
        <time>2023-06-23T12:22:13Z</time>
      </trkpt>
      <trkpt lat="49.88479" lon="2.25879">
        <ele>29.3</ele>
        <time>2023-06-23T12:22:15Z</time>
      </trkpt>
      <trkpt lat="49.88478" lon="2.25878">
        <ele>29.3</ele>
        <time>2023-06-23T12:22:16Z</time>
      </trkpt>
      <trkpt lat="49.88478" lon="2.25877">
        <ele>29.3</ele>
        <time>2023-06-23T12:22:17Z</time>
      </trkpt>
      <trkpt lat="49.88476" lon="2.25878">
        <ele>29.3</ele>
        <time>2023-06-23T12:22:18Z</time>
      </trkpt>
      <trkpt lat="49.88475" lon="2.25878">
        <ele>29.3</ele>
        <time>2023-06-23T12:22:20Z</time>
      </trkpt>
      <trkpt lat="49.88473" lon="2.25876">
        <ele>29.3</ele>
        <time>2023-06-23T12:22:21Z</time>
      </trkpt>
      <trkpt lat="49.88472" lon="2.25876">
        <ele>29.3</ele>
        <time>2023-06-23T12:22:22Z</time>
      </trkpt>
      <trkpt lat="49.88471" lon="2.25876">
        <ele>29.3</ele>
        <time>2023-06-23T12:22:23Z</time>
      </trkpt>
      <trkpt lat="49.8847" lon="2.25875">
        <ele>29.3</ele>
        <time>2023-06-23T12:22:24Z</time>
      </trkpt>
      <trkpt lat="49.88469" lon="2.25874">
        <ele>29.3</ele>
        <time>2023-06-23T12:22:25Z</time>
      </trkpt>
      <trkpt lat="49.88468" lon="2.25873">
        <ele>29.3</ele>
        <time>2023-06-23T12:22:26Z</time>
      </trkpt>
      <trkpt lat="49.88467" lon="2.25872">
        <ele>29.3</ele>
        <time>2023-06-23T12:22:28Z</time>
      </trkpt>
      <trkpt lat="49.88466" lon="2.2587">
        <ele>29.4</ele>
        <time>2023-06-23T12:22:29Z</time>
      </trkpt>
      <trkpt lat="49.88464" lon="2.25869">
        <ele>29.4</ele>
        <time>2023-06-23T12:22:30Z</time>
      </trkpt>
      <trkpt lat="49.88463" lon="2.25868">
        <ele>29.4</ele>
        <time>2023-06-23T12:22:31Z</time>
      </trkpt>
      <trkpt lat="49.88461" lon="2.25867">
        <ele>29.4</ele>
        <time>2023-06-23T12:22:32Z</time>
      </trkpt>
      <trkpt lat="49.88461" lon="2.25866">
        <ele>29.4</ele>
        <time>2023-06-23T12:22:33Z</time>
      </trkpt>
      <trkpt lat="49.8846" lon="2.25866">
        <ele>29.4</ele>
        <time>2023-06-23T12:22:34Z</time>
      </trkpt>
      <trkpt lat="49.88458" lon="2.25865">
        <ele>29.4</ele>
        <time>2023-06-23T12:22:36Z</time>
      </trkpt>
      <trkpt lat="49.88457" lon="2.25863">
        <ele>29.4</ele>
        <time>2023-06-23T12:22:37Z</time>
      </trkpt>
      <trkpt lat="49.88456" lon="2.25862">
        <ele>29.4</ele>
        <time>2023-06-23T12:22:38Z</time>
      </trkpt>
      <trkpt lat="49.88454" lon="2.25861">
        <ele>29.4</ele>
        <time>2023-06-23T12:22:39Z</time>
      </trkpt>
      <trkpt lat="49.88452" lon="2.25859">
        <ele>29.4</ele>
        <time>2023-06-23T12:22:40Z</time>
      </trkpt>
      <trkpt lat="49.8845" lon="2.25857">
        <ele>29.4</ele>
        <time>2023-06-23T12:22:42Z</time>
      </trkpt>
      <trkpt lat="49.88447" lon="2.25854">
        <ele>29.4</ele>
        <time>2023-06-23T12:22:43Z</time>
      </trkpt>
      <trkpt lat="49.88446" lon="2.25853">
        <ele>29.4</ele>
        <time>2023-06-23T12:22:44Z</time>
      </trkpt>
      <trkpt lat="49.88444" lon="2.25851">
        <ele>29.4</ele>
        <time>2023-06-23T12:22:45Z</time>
      </trkpt>
      <trkpt lat="49.88443" lon="2.2585">
        <ele>29.4</ele>
        <time>2023-06-23T12:22:46Z</time>
      </trkpt>
      <trkpt lat="49.88441" lon="2.25847">
        <ele>29.4</ele>
        <time>2023-06-23T12:22:47Z</time>
      </trkpt>
      <trkpt lat="49.8844" lon="2.25846">
        <ele>29.4</ele>
        <time>2023-06-23T12:22:49Z</time>
      </trkpt>
      <trkpt lat="49.88439" lon="2.25845">
        <ele>29.4</ele>
        <time>2023-06-23T12:22:50Z</time>
      </trkpt>
      <trkpt lat="49.88438" lon="2.25844">
        <ele>29.4</ele>
        <time>2023-06-23T12:22:51Z</time>
      </trkpt>
      <trkpt lat="49.88437" lon="2.25842">
        <ele>29.4</ele>
        <time>2023-06-23T12:22:52Z</time>
      </trkpt>
      <trkpt lat="49.88436" lon="2.25841">
        <ele>29.4</ele>
        <time>2023-06-23T12:22:53Z</time>
      </trkpt>
      <trkpt lat="49.88435" lon="2.2584">
        <ele>29.4</ele>
        <time>2023-06-23T12:22:54Z</time>
      </trkpt>
      <trkpt lat="49.88434" lon="2.25839">
        <ele>29.4</ele>
        <time>2023-06-23T12:22:55Z</time>
      </trkpt>
      <trkpt lat="49.88433" lon="2.25837">
        <ele>29.4</ele>
        <time>2023-06-23T12:22:56Z</time>
      </trkpt>
      <trkpt lat="49.88432" lon="2.25835">
        <ele>29.4</ele>
        <time>2023-06-23T12:22:58Z</time>
      </trkpt>
      <trkpt lat="49.8843" lon="2.25834">
        <ele>29.4</ele>
        <time>2023-06-23T12:22:59Z</time>
      </trkpt>
      <trkpt lat="49.8843" lon="2.25832">
        <ele>29.4</ele>
        <time>2023-06-23T12:23:00Z</time>
      </trkpt>
      <trkpt lat="49.88429" lon="2.2583">
        <ele>29.4</ele>
        <time>2023-06-23T12:23:01Z</time>
      </trkpt>
      <trkpt lat="49.88428" lon="2.25828">
        <ele>29.3</ele>
        <time>2023-06-23T12:23:02Z</time>
      </trkpt>
      <trkpt lat="49.88427" lon="2.25826">
        <ele>29.3</ele>
        <time>2023-06-23T12:23:03Z</time>
      </trkpt>
      <trkpt lat="49.88426" lon="2.25822">
        <ele>29.3</ele>
        <time>2023-06-23T12:23:04Z</time>
      </trkpt>
      <trkpt lat="49.88426" lon="2.25821">
        <ele>29.3</ele>
        <time>2023-06-23T12:23:06Z</time>
      </trkpt>
      <trkpt lat="49.88426" lon="2.2582">
        <ele>29.3</ele>
        <time>2023-06-23T12:23:07Z</time>
      </trkpt>
      <trkpt lat="49.88425" lon="2.25818">
        <ele>29.3</ele>
        <time>2023-06-23T12:23:08Z</time>
      </trkpt>
      <trkpt lat="49.88425" lon="2.25817">
        <ele>29.3</ele>
        <time>2023-06-23T12:23:09Z</time>
      </trkpt>
      <trkpt lat="49.88425" lon="2.25814">
        <ele>29.3</ele>
        <time>2023-06-23T12:23:10Z</time>
      </trkpt>
      <trkpt lat="49.88424" lon="2.25812">
        <ele>29.3</ele>
        <time>2023-06-23T12:23:11Z</time>
      </trkpt>
      <trkpt lat="49.88424" lon="2.2581">
        <ele>29.3</ele>
        <time>2023-06-23T12:23:12Z</time>
      </trkpt>
      <trkpt lat="49.88424" lon="2.25808">
        <ele>29.2</ele>
        <time>2023-06-23T12:23:13Z</time>
      </trkpt>
      <trkpt lat="49.88423" lon="2.25807">
        <ele>29.2</ele>
        <time>2023-06-23T12:23:14Z</time>
      </trkpt>
      <trkpt lat="49.88422" lon="2.25804">
        <ele>29.2</ele>
        <time>2023-06-23T12:23:16Z</time>
      </trkpt>
      <trkpt lat="49.88421" lon="2.25802">
        <ele>29.2</ele>
        <time>2023-06-23T12:23:17Z</time>
      </trkpt>
      <trkpt lat="49.8842" lon="2.258">
        <ele>29.2</ele>
        <time>2023-06-23T12:23:18Z</time>
      </trkpt>
      <trkpt lat="49.88419" lon="2.25798">
        <ele>29.2</ele>
        <time>2023-06-23T12:23:19Z</time>
      </trkpt>
      <trkpt lat="49.88418" lon="2.25797">
        <ele>29.2</ele>
        <time>2023-06-23T12:23:20Z</time>
      </trkpt>
      <trkpt lat="49.88417" lon="2.25797">
        <ele>29.2</ele>
        <time>2023-06-23T12:23:21Z</time>
      </trkpt>
      <trkpt lat="49.88416" lon="2.25796">
        <ele>29.1</ele>
        <time>2023-06-23T12:23:22Z</time>
      </trkpt>
      <trkpt lat="49.88415" lon="2.25795">
        <ele>29.1</ele>
        <time>2023-06-23T12:23:24Z</time>
      </trkpt>
      <trkpt lat="49.88413" lon="2.25794">
        <ele>29.1</ele>
        <time>2023-06-23T12:23:25Z</time>
      </trkpt>
      <trkpt lat="49.88412" lon="2.25794">
        <ele>29.1</ele>
        <time>2023-06-23T12:23:26Z</time>
      </trkpt>
      <trkpt lat="49.8841" lon="2.25792">
        <ele>29.1</ele>
        <time>2023-06-23T12:23:27Z</time>
      </trkpt>
      <trkpt lat="49.8841" lon="2.25791">
        <ele>29.1</ele>
        <time>2023-06-23T12:23:28Z</time>
      </trkpt>
      <trkpt lat="49.88409" lon="2.25791">
        <ele>29.1</ele>
        <time>2023-06-23T12:23:29Z</time>
      </trkpt>
      <trkpt lat="49.88407" lon="2.2579">
        <ele>29.1</ele>
        <time>2023-06-23T12:23:30Z</time>
      </trkpt>
      <trkpt lat="49.88406" lon="2.25789">
        <ele>29.1</ele>
        <time>2023-06-23T12:23:31Z</time>
      </trkpt>
      <trkpt lat="49.88405" lon="2.25789">
        <ele>29.1</ele>
        <time>2023-06-23T12:23:32Z</time>
      </trkpt>
      <trkpt lat="49.88404" lon="2.25787">
        <ele>29.1</ele>
        <time>2023-06-23T12:23:34Z</time>
      </trkpt>
      <trkpt lat="49.88403" lon="2.25786">
        <ele>29.1</ele>
        <time>2023-06-23T12:23:35Z</time>
      </trkpt>
      <trkpt lat="49.88401" lon="2.25785">
        <ele>29.1</ele>
        <time>2023-06-23T12:23:36Z</time>
      </trkpt>
      <trkpt lat="49.884" lon="2.25784">
        <ele>29.1</ele>
        <time>2023-06-23T12:23:37Z</time>
      </trkpt>
      <trkpt lat="49.88399" lon="2.25783">
        <ele>29.1</ele>
        <time>2023-06-23T12:23:38Z</time>
      </trkpt>
      <trkpt lat="49.88398" lon="2.25782">
        <ele>29.1</ele>
        <time>2023-06-23T12:23:39Z</time>
      </trkpt>
      <trkpt lat="49.88396" lon="2.2578">
        <ele>29.1</ele>
        <time>2023-06-23T12:23:40Z</time>
      </trkpt>
      <trkpt lat="49.88395" lon="2.25779">
        <ele>29.1</ele>
        <time>2023-06-23T12:23:42Z</time>
      </trkpt>
      <trkpt lat="49.88394" lon="2.25778">
        <ele>29.1</ele>
        <time>2023-06-23T12:23:43Z</time>
      </trkpt>
      <trkpt lat="49.88394" lon="2.25777">
        <ele>29.1</ele>
        <time>2023-06-23T12:23:44Z</time>
      </trkpt>
      <trkpt lat="49.88393" lon="2.25775">
        <ele>29.1</ele>
        <time>2023-06-23T12:23:45Z</time>
      </trkpt>
      <trkpt lat="49.88392" lon="2.25774">
        <ele>29.1</ele>
        <time>2023-06-23T12:23:46Z</time>
      </trkpt>
      <trkpt lat="49.88391" lon="2.25773">
        <ele>29.1</ele>
        <time>2023-06-23T12:23:47Z</time>
      </trkpt>
      <trkpt lat="49.88389" lon="2.25771">
        <ele>29.1</ele>
        <time>2023-06-23T12:23:49Z</time>
      </trkpt>
      <trkpt lat="49.88388" lon="2.25769">
        <ele>29.1</ele>
        <time>2023-06-23T12:23:50Z</time>
      </trkpt>
      <trkpt lat="49.88387" lon="2.25768">
        <ele>29.1</ele>
        <time>2023-06-23T12:23:51Z</time>
      </trkpt>
      <trkpt lat="49.88386" lon="2.25766">
        <ele>29.1</ele>
        <time>2023-06-23T12:23:52Z</time>
      </trkpt>
      <trkpt lat="49.88385" lon="2.25764">
        <ele>29.1</ele>
        <time>2023-06-23T12:23:53Z</time>
      </trkpt>
      <trkpt lat="49.88384" lon="2.25762">
        <ele>29.1</ele>
        <time>2023-06-23T12:23:54Z</time>
      </trkpt>
      <trkpt lat="49.88383" lon="2.25761">
        <ele>29.1</ele>
        <time>2023-06-23T12:23:55Z</time>
      </trkpt>
      <trkpt lat="49.88382" lon="2.25759">
        <ele>29.1</ele>
        <time>2023-06-23T12:23:57Z</time>
      </trkpt>
      <trkpt lat="49.88381" lon="2.25757">
        <ele>29.1</ele>
        <time>2023-06-23T12:23:58Z</time>
      </trkpt>
      <trkpt lat="49.88379" lon="2.25755">
        <ele>29.1</ele>
        <time>2023-06-23T12:23:59Z</time>
      </trkpt>
      <trkpt lat="49.88378" lon="2.25755">
        <ele>29.1</ele>
        <time>2023-06-23T12:24:00Z</time>
      </trkpt>
      <trkpt lat="49.88378" lon="2.25754">
        <ele>29</ele>
        <time>2023-06-23T12:24:01Z</time>
      </trkpt>
      <trkpt lat="49.88376" lon="2.25752">
        <ele>29</ele>
        <time>2023-06-23T12:24:02Z</time>
      </trkpt>
      <trkpt lat="49.88375" lon="2.25752">
        <ele>29</ele>
        <time>2023-06-23T12:24:03Z</time>
      </trkpt>
      <trkpt lat="49.88374" lon="2.25751">
        <ele>29</ele>
        <time>2023-06-23T12:24:04Z</time>
      </trkpt>
      <trkpt lat="49.88372" lon="2.2575">
        <ele>29</ele>
        <time>2023-06-23T12:24:06Z</time>
      </trkpt>
      <trkpt lat="49.88371" lon="2.2575">
        <ele>29</ele>
        <time>2023-06-23T12:24:07Z</time>
      </trkpt>
      <trkpt lat="49.8837" lon="2.2575">
        <ele>29</ele>
        <time>2023-06-23T12:24:08Z</time>
      </trkpt>
      <trkpt lat="49.88369" lon="2.25749">
        <ele>29</ele>
        <time>2023-06-23T12:24:09Z</time>
      </trkpt>
      <trkpt lat="49.88368" lon="2.25748">
        <ele>29</ele>
        <time>2023-06-23T12:24:10Z</time>
      </trkpt>
      <trkpt lat="49.88367" lon="2.25747">
        <ele>29</ele>
        <time>2023-06-23T12:24:11Z</time>
      </trkpt>
      <trkpt lat="49.88366" lon="2.25746">
        <ele>29</ele>
        <time>2023-06-23T12:24:12Z</time>
      </trkpt>
      <trkpt lat="49.88365" lon="2.25745">
        <ele>29</ele>
        <time>2023-06-23T12:24:13Z</time>
      </trkpt>
      <trkpt lat="49.88364" lon="2.25744">
        <ele>29</ele>
        <time>2023-06-23T12:24:15Z</time>
      </trkpt>
      <trkpt lat="49.88363" lon="2.25743">
        <ele>29</ele>
        <time>2023-06-23T12:24:16Z</time>
      </trkpt>
      <trkpt lat="49.88362" lon="2.25743">
        <ele>29</ele>
        <time>2023-06-23T12:24:17Z</time>
      </trkpt>
      <trkpt lat="49.88361" lon="2.25742">
        <ele>29</ele>
        <time>2023-06-23T12:24:18Z</time>
      </trkpt>
      <trkpt lat="49.88361" lon="2.25742">
        <ele>29</ele>
        <time>2023-06-23T12:24:19Z</time>
      </trkpt>
      <trkpt lat="49.8836" lon="2.25741">
        <ele>29</ele>
        <time>2023-06-23T12:24:20Z</time>
      </trkpt>
      <trkpt lat="49.88359" lon="2.2574">
        <ele>29</ele>
        <time>2023-06-23T12:24:22Z</time>
      </trkpt>
      <trkpt lat="49.88358" lon="2.25738">
        <ele>29</ele>
        <time>2023-06-23T12:24:23Z</time>
      </trkpt>
      <trkpt lat="49.88357" lon="2.25737">
        <ele>29</ele>
        <time>2023-06-23T12:24:24Z</time>
      </trkpt>
      <trkpt lat="49.88356" lon="2.25736">
        <ele>29</ele>
        <time>2023-06-23T12:24:25Z</time>
      </trkpt>
      <trkpt lat="49.88355" lon="2.25735">
        <ele>29</ele>
        <time>2023-06-23T12:24:26Z</time>
      </trkpt>
      <trkpt lat="49.88355" lon="2.25734">
        <ele>29</ele>
        <time>2023-06-23T12:24:27Z</time>
      </trkpt>
      <trkpt lat="49.88354" lon="2.25732">
        <ele>29</ele>
        <time>2023-06-23T12:24:28Z</time>
      </trkpt>
      <trkpt lat="49.88354" lon="2.25731">
        <ele>29</ele>
        <time>2023-06-23T12:24:29Z</time>
      </trkpt>
      <trkpt lat="49.88353" lon="2.25729">
        <ele>29</ele>
        <time>2023-06-23T12:24:30Z</time>
      </trkpt>
      <trkpt lat="49.88352" lon="2.25728">
        <ele>29</ele>
        <time>2023-06-23T12:24:31Z</time>
      </trkpt>
      <trkpt lat="49.88351" lon="2.25727">
        <ele>29</ele>
        <time>2023-06-23T12:24:33Z</time>
      </trkpt>
      <trkpt lat="49.88351" lon="2.25726">
        <ele>29</ele>
        <time>2023-06-23T12:24:34Z</time>
      </trkpt>
      <trkpt lat="49.8835" lon="2.25725">
        <ele>29</ele>
        <time>2023-06-23T12:24:35Z</time>
      </trkpt>
      <trkpt lat="49.88349" lon="2.25724">
        <ele>29</ele>
        <time>2023-06-23T12:24:36Z</time>
      </trkpt>
      <trkpt lat="49.88348" lon="2.25723">
        <ele>29</ele>
        <time>2023-06-23T12:24:37Z</time>
      </trkpt>
      <trkpt lat="49.88347" lon="2.25723">
        <ele>29</ele>
        <time>2023-06-23T12:24:38Z</time>
      </trkpt>
      <trkpt lat="49.88347" lon="2.25722">
        <ele>29</ele>
        <time>2023-06-23T12:24:39Z</time>
      </trkpt>
      <trkpt lat="49.88346" lon="2.25721">
        <ele>29</ele>
        <time>2023-06-23T12:24:40Z</time>
      </trkpt>
      <trkpt lat="49.88345" lon="2.2572">
        <ele>29</ele>
        <time>2023-06-23T12:24:42Z</time>
      </trkpt>
      <trkpt lat="49.88344" lon="2.2572">
        <ele>29</ele>
        <time>2023-06-23T12:24:43Z</time>
      </trkpt>
      <trkpt lat="49.88343" lon="2.25719">
        <ele>29</ele>
        <time>2023-06-23T12:24:44Z</time>
      </trkpt>
      <trkpt lat="49.88342" lon="2.25717">
        <ele>29</ele>
        <time>2023-06-23T12:24:45Z</time>
      </trkpt>
      <trkpt lat="49.88341" lon="2.25716">
        <ele>29</ele>
        <time>2023-06-23T12:24:46Z</time>
      </trkpt>
      <trkpt lat="49.88341" lon="2.25715">
        <ele>29</ele>
        <time>2023-06-23T12:24:47Z</time>
      </trkpt>
      <trkpt lat="49.8834" lon="2.25714">
        <ele>29</ele>
        <time>2023-06-23T12:24:48Z</time>
      </trkpt>
      <trkpt lat="49.88338" lon="2.25712">
        <ele>29</ele>
        <time>2023-06-23T12:24:50Z</time>
      </trkpt>
      <trkpt lat="49.88337" lon="2.25712">
        <ele>29</ele>
        <time>2023-06-23T12:24:51Z</time>
      </trkpt>
      <trkpt lat="49.88337" lon="2.25711">
        <ele>29</ele>
        <time>2023-06-23T12:24:52Z</time>
      </trkpt>
      <trkpt lat="49.88336" lon="2.2571">
        <ele>29</ele>
        <time>2023-06-23T12:24:53Z</time>
      </trkpt>
      <trkpt lat="49.88335" lon="2.25709">
        <ele>29</ele>
        <time>2023-06-23T12:24:54Z</time>
      </trkpt>
      <trkpt lat="49.88333" lon="2.25708">
        <ele>29</ele>
        <time>2023-06-23T12:24:56Z</time>
      </trkpt>
      <trkpt lat="49.88332" lon="2.25706">
        <ele>29</ele>
        <time>2023-06-23T12:24:57Z</time>
      </trkpt>
      <trkpt lat="49.88331" lon="2.25705">
        <ele>29</ele>
        <time>2023-06-23T12:24:58Z</time>
      </trkpt>
      <trkpt lat="49.8833" lon="2.25704">
        <ele>29</ele>
        <time>2023-06-23T12:24:59Z</time>
      </trkpt>
      <trkpt lat="49.88328" lon="2.25702">
        <ele>29</ele>
        <time>2023-06-23T12:25:00Z</time>
      </trkpt>
      <trkpt lat="49.88328" lon="2.25702">
        <ele>29</ele>
        <time>2023-06-23T12:25:01Z</time>
      </trkpt>
      <trkpt lat="49.88327" lon="2.25701">
        <ele>29</ele>
        <time>2023-06-23T12:25:02Z</time>
      </trkpt>
      <trkpt lat="49.88325" lon="2.25699">
        <ele>29</ele>
        <time>2023-06-23T12:25:03Z</time>
      </trkpt>
      <trkpt lat="49.88325" lon="2.25698">
        <ele>29</ele>
        <time>2023-06-23T12:25:04Z</time>
      </trkpt>
      <trkpt lat="49.88324" lon="2.25698">
        <ele>29</ele>
        <time>2023-06-23T12:25:05Z</time>
      </trkpt>
      <trkpt lat="49.88322" lon="2.25695">
        <ele>29</ele>
        <time>2023-06-23T12:25:06Z</time>
      </trkpt>
      <trkpt lat="49.88321" lon="2.25694">
        <ele>29</ele>
        <time>2023-06-23T12:25:08Z</time>
      </trkpt>
      <trkpt lat="49.8832" lon="2.25693">
        <ele>29</ele>
        <time>2023-06-23T12:25:09Z</time>
      </trkpt>
      <trkpt lat="49.88319" lon="2.25692">
        <ele>28.9</ele>
        <time>2023-06-23T12:25:10Z</time>
      </trkpt>
      <trkpt lat="49.88318" lon="2.25691">
        <ele>28.9</ele>
        <time>2023-06-23T12:25:11Z</time>
      </trkpt>
      <trkpt lat="49.88317" lon="2.25689">
        <ele>28.9</ele>
        <time>2023-06-23T12:25:12Z</time>
      </trkpt>
      <trkpt lat="49.88316" lon="2.25688">
        <ele>28.9</ele>
        <time>2023-06-23T12:25:13Z</time>
      </trkpt>
      <trkpt lat="49.88315" lon="2.25687">
        <ele>28.9</ele>
        <time>2023-06-23T12:25:14Z</time>
      </trkpt>
      <trkpt lat="49.88314" lon="2.25684">
        <ele>28.9</ele>
        <time>2023-06-23T12:25:16Z</time>
      </trkpt>
      <trkpt lat="49.88313" lon="2.25683">
        <ele>28.9</ele>
        <time>2023-06-23T12:25:17Z</time>
      </trkpt>
      <trkpt lat="49.88313" lon="2.25682">
        <ele>28.9</ele>
        <time>2023-06-23T12:25:18Z</time>
      </trkpt>
      <trkpt lat="49.88312" lon="2.25681">
        <ele>28.9</ele>
        <time>2023-06-23T12:25:19Z</time>
      </trkpt>
      <trkpt lat="49.88311" lon="2.2568">
        <ele>28.9</ele>
        <time>2023-06-23T12:25:20Z</time>
      </trkpt>
      <trkpt lat="49.88309" lon="2.25677">
        <ele>28.9</ele>
        <time>2023-06-23T12:25:21Z</time>
      </trkpt>
      <trkpt lat="49.88309" lon="2.25676">
        <ele>28.9</ele>
        <time>2023-06-23T12:25:22Z</time>
      </trkpt>
      <trkpt lat="49.88308" lon="2.25675">
        <ele>28.9</ele>
        <time>2023-06-23T12:25:23Z</time>
      </trkpt>
      <trkpt lat="49.88307" lon="2.25672">
        <ele>28.9</ele>
        <time>2023-06-23T12:25:24Z</time>
      </trkpt>
      <trkpt lat="49.88306" lon="2.25671">
        <ele>28.9</ele>
        <time>2023-06-23T12:25:26Z</time>
      </trkpt>
      <trkpt lat="49.88305" lon="2.2567">
        <ele>28.9</ele>
        <time>2023-06-23T12:25:27Z</time>
      </trkpt>
      <trkpt lat="49.88304" lon="2.25669">
        <ele>28.9</ele>
        <time>2023-06-23T12:25:28Z</time>
      </trkpt>
      <trkpt lat="49.88303" lon="2.25668">
        <ele>28.9</ele>
        <time>2023-06-23T12:25:29Z</time>
      </trkpt>
      <trkpt lat="49.88303" lon="2.25667">
        <ele>28.9</ele>
        <time>2023-06-23T12:25:30Z</time>
      </trkpt>
      <trkpt lat="49.88301" lon="2.25665">
        <ele>28.9</ele>
        <time>2023-06-23T12:25:31Z</time>
      </trkpt>
      <trkpt lat="49.883" lon="2.25664">
        <ele>28.9</ele>
        <time>2023-06-23T12:25:32Z</time>
      </trkpt>
      <trkpt lat="49.883" lon="2.25663">
        <ele>28.9</ele>
        <time>2023-06-23T12:25:33Z</time>
      </trkpt>
      <trkpt lat="49.88298" lon="2.25661">
        <ele>28.9</ele>
        <time>2023-06-23T12:25:34Z</time>
      </trkpt>
      <trkpt lat="49.88297" lon="2.2566">
        <ele>28.8</ele>
        <time>2023-06-23T12:25:36Z</time>
      </trkpt>
      <trkpt lat="49.88296" lon="2.2566">
        <ele>28.8</ele>
        <time>2023-06-23T12:25:37Z</time>
      </trkpt>
      <trkpt lat="49.88295" lon="2.25659">
        <ele>28.8</ele>
        <time>2023-06-23T12:25:38Z</time>
      </trkpt>
      <trkpt lat="49.88294" lon="2.25658">
        <ele>28.8</ele>
        <time>2023-06-23T12:25:39Z</time>
      </trkpt>
      <trkpt lat="49.88292" lon="2.25657">
        <ele>28.8</ele>
        <time>2023-06-23T12:25:40Z</time>
      </trkpt>
      <trkpt lat="49.88291" lon="2.25656">
        <ele>28.8</ele>
        <time>2023-06-23T12:25:41Z</time>
      </trkpt>
      <trkpt lat="49.8829" lon="2.25655">
        <ele>28.7</ele>
        <time>2023-06-23T12:25:42Z</time>
      </trkpt>
      <trkpt lat="49.88288" lon="2.25655">
        <ele>28.7</ele>
        <time>2023-06-23T12:25:43Z</time>
      </trkpt>
      <trkpt lat="49.88287" lon="2.25655">
        <ele>28.7</ele>
        <time>2023-06-23T12:25:44Z</time>
      </trkpt>
      <trkpt lat="49.88286" lon="2.25654">
        <ele>28.7</ele>
        <time>2023-06-23T12:25:45Z</time>
      </trkpt>
      <trkpt lat="49.88284" lon="2.25654">
        <ele>28.7</ele>
        <time>2023-06-23T12:25:46Z</time>
      </trkpt>
      <trkpt lat="49.88283" lon="2.25653">
        <ele>28.7</ele>
        <time>2023-06-23T12:25:48Z</time>
      </trkpt>
      <trkpt lat="49.88282" lon="2.25652">
        <ele>28.7</ele>
        <time>2023-06-23T12:25:49Z</time>
      </trkpt>
      <trkpt lat="49.88281" lon="2.25651">
        <ele>28.7</ele>
        <time>2023-06-23T12:25:50Z</time>
      </trkpt>
      <trkpt lat="49.8828" lon="2.2565">
        <ele>28.7</ele>
        <time>2023-06-23T12:25:51Z</time>
      </trkpt>
      <trkpt lat="49.88279" lon="2.2565">
        <ele>28.7</ele>
        <time>2023-06-23T12:25:52Z</time>
      </trkpt>
      <trkpt lat="49.88278" lon="2.2565">
        <ele>28.6</ele>
        <time>2023-06-23T12:25:53Z</time>
      </trkpt>
      <trkpt lat="49.88277" lon="2.2565">
        <ele>28.6</ele>
        <time>2023-06-23T12:25:54Z</time>
      </trkpt>
      <trkpt lat="49.88276" lon="2.25649">
        <ele>28.6</ele>
        <time>2023-06-23T12:25:55Z</time>
      </trkpt>
      <trkpt lat="49.88276" lon="2.25648">
        <ele>28.6</ele>
        <time>2023-06-23T12:25:56Z</time>
      </trkpt>
      <trkpt lat="49.88275" lon="2.25647">
        <ele>28.6</ele>
        <time>2023-06-23T12:25:58Z</time>
      </trkpt>
      <trkpt lat="49.88274" lon="2.25646">
        <ele>28.6</ele>
        <time>2023-06-23T12:25:59Z</time>
      </trkpt>
      <trkpt lat="49.88272" lon="2.25643">
        <ele>28.6</ele>
        <time>2023-06-23T12:26:00Z</time>
      </trkpt>
      <trkpt lat="49.88272" lon="2.25643">
        <ele>28.6</ele>
        <time>2023-06-23T12:26:01Z</time>
      </trkpt>
      <trkpt lat="49.88271" lon="2.25642">
        <ele>28.6</ele>
        <time>2023-06-23T12:26:02Z</time>
      </trkpt>
      <trkpt lat="49.8827" lon="2.25641">
        <ele>28.6</ele>
        <time>2023-06-23T12:26:03Z</time>
      </trkpt>
      <trkpt lat="49.88269" lon="2.2564">
        <ele>28.6</ele>
        <time>2023-06-23T12:26:04Z</time>
      </trkpt>
      <trkpt lat="49.88268" lon="2.25639">
        <ele>28.6</ele>
        <time>2023-06-23T12:26:05Z</time>
      </trkpt>
      <trkpt lat="49.88266" lon="2.25637">
        <ele>28.5</ele>
        <time>2023-06-23T12:26:07Z</time>
      </trkpt>
      <trkpt lat="49.88266" lon="2.25637">
        <ele>28.5</ele>
        <time>2023-06-23T12:26:08Z</time>
      </trkpt>
      <trkpt lat="49.88265" lon="2.25636">
        <ele>28.5</ele>
        <time>2023-06-23T12:26:09Z</time>
      </trkpt>
      <trkpt lat="49.88264" lon="2.25636">
        <ele>28.5</ele>
        <time>2023-06-23T12:26:10Z</time>
      </trkpt>
      <trkpt lat="49.88263" lon="2.25635">
        <ele>28.5</ele>
        <time>2023-06-23T12:26:11Z</time>
      </trkpt>
      <trkpt lat="49.88262" lon="2.25636">
        <ele>28.5</ele>
        <time>2023-06-23T12:26:12Z</time>
      </trkpt>
      <trkpt lat="49.88261" lon="2.25636">
        <ele>28.5</ele>
        <time>2023-06-23T12:26:13Z</time>
      </trkpt>
      <trkpt lat="49.8826" lon="2.25636">
        <ele>28.5</ele>
        <time>2023-06-23T12:26:14Z</time>
      </trkpt>
      <trkpt lat="49.88259" lon="2.25636">
        <ele>28.5</ele>
        <time>2023-06-23T12:26:16Z</time>
      </trkpt>
      <trkpt lat="49.88258" lon="2.25635">
        <ele>28.5</ele>
        <time>2023-06-23T12:26:17Z</time>
      </trkpt>
      <trkpt lat="49.88257" lon="2.25635">
        <ele>28.5</ele>
        <time>2023-06-23T12:26:18Z</time>
      </trkpt>
      <trkpt lat="49.88255" lon="2.25635">
        <ele>28.5</ele>
        <time>2023-06-23T12:26:19Z</time>
      </trkpt>
      <trkpt lat="49.88254" lon="2.25635">
        <ele>28.5</ele>
        <time>2023-06-23T12:26:20Z</time>
      </trkpt>
      <trkpt lat="49.88253" lon="2.25634">
        <ele>28.5</ele>
        <time>2023-06-23T12:26:22Z</time>
      </trkpt>
      <trkpt lat="49.88252" lon="2.25634">
        <ele>28.5</ele>
        <time>2023-06-23T12:26:23Z</time>
      </trkpt>
      <trkpt lat="49.88251" lon="2.25633">
        <ele>28.5</ele>
        <time>2023-06-23T12:26:24Z</time>
      </trkpt>
      <trkpt lat="49.8825" lon="2.25632">
        <ele>28.5</ele>
        <time>2023-06-23T12:26:25Z</time>
      </trkpt>
      <trkpt lat="49.8825" lon="2.25632">
        <ele>28.5</ele>
        <time>2023-06-23T12:26:26Z</time>
      </trkpt>
      <trkpt lat="49.88249" lon="2.25631">
        <ele>28.5</ele>
        <time>2023-06-23T12:26:27Z</time>
      </trkpt>
      <trkpt lat="49.88248" lon="2.2563">
        <ele>28.5</ele>
        <time>2023-06-23T12:26:28Z</time>
      </trkpt>
      <trkpt lat="49.88247" lon="2.25629">
        <ele>28.5</ele>
        <time>2023-06-23T12:26:30Z</time>
      </trkpt>
      <trkpt lat="49.88246" lon="2.25628">
        <ele>28.5</ele>
        <time>2023-06-23T12:26:31Z</time>
      </trkpt>
      <trkpt lat="49.88245" lon="2.25627">
        <ele>28.5</ele>
        <time>2023-06-23T12:26:32Z</time>
      </trkpt>
      <trkpt lat="49.88244" lon="2.25626">
        <ele>28.5</ele>
        <time>2023-06-23T12:26:33Z</time>
      </trkpt>
      <trkpt lat="49.88243" lon="2.25624">
        <ele>28.5</ele>
        <time>2023-06-23T12:26:34Z</time>
      </trkpt>
      <trkpt lat="49.88242" lon="2.25623">
        <ele>28.5</ele>
        <time>2023-06-23T12:26:35Z</time>
      </trkpt>
      <trkpt lat="49.8824" lon="2.25621">
        <ele>28.5</ele>
        <time>2023-06-23T12:26:36Z</time>
      </trkpt>
      <trkpt lat="49.88239" lon="2.2562">
        <ele>28.5</ele>
        <time>2023-06-23T12:26:38Z</time>
      </trkpt>
      <trkpt lat="49.88239" lon="2.2562">
        <ele>28.5</ele>
        <time>2023-06-23T12:26:39Z</time>
      </trkpt>
      <trkpt lat="49.88238" lon="2.25619">
        <ele>28.5</ele>
        <time>2023-06-23T12:26:40Z</time>
      </trkpt>
      <trkpt lat="49.88237" lon="2.25617">
        <ele>28.5</ele>
        <time>2023-06-23T12:26:41Z</time>
      </trkpt>
      <trkpt lat="49.88236" lon="2.25616">
        <ele>28.5</ele>
        <time>2023-06-23T12:26:42Z</time>
      </trkpt>
      <trkpt lat="49.88235" lon="2.25614">
        <ele>28.5</ele>
        <time>2023-06-23T12:26:43Z</time>
      </trkpt>
      <trkpt lat="49.88234" lon="2.25613">
        <ele>28.5</ele>
        <time>2023-06-23T12:26:44Z</time>
      </trkpt>
      <trkpt lat="49.88234" lon="2.25612">
        <ele>28.5</ele>
        <time>2023-06-23T12:26:45Z</time>
      </trkpt>
      <trkpt lat="49.88232" lon="2.25611">
        <ele>28.5</ele>
        <time>2023-06-23T12:26:46Z</time>
      </trkpt>
      <trkpt lat="49.88231" lon="2.25609">
        <ele>28.5</ele>
        <time>2023-06-23T12:26:48Z</time>
      </trkpt>
      <trkpt lat="49.8823" lon="2.25608">
        <ele>28.5</ele>
        <time>2023-06-23T12:26:49Z</time>
      </trkpt>
      <trkpt lat="49.8823" lon="2.25607">
        <ele>28.5</ele>
        <time>2023-06-23T12:26:50Z</time>
      </trkpt>
      <trkpt lat="49.88229" lon="2.25606">
        <ele>28.5</ele>
        <time>2023-06-23T12:26:51Z</time>
      </trkpt>
      <trkpt lat="49.88228" lon="2.25604">
        <ele>28.5</ele>
        <time>2023-06-23T12:26:52Z</time>
      </trkpt>
      <trkpt lat="49.88227" lon="2.25603">
        <ele>28.5</ele>
        <time>2023-06-23T12:26:53Z</time>
      </trkpt>
      <trkpt lat="49.88225" lon="2.25601">
        <ele>28.5</ele>
        <time>2023-06-23T12:26:55Z</time>
      </trkpt>
      <trkpt lat="49.88225" lon="2.256">
        <ele>28.5</ele>
        <time>2023-06-23T12:26:56Z</time>
      </trkpt>
      <trkpt lat="49.88224" lon="2.25599">
        <ele>28.5</ele>
        <time>2023-06-23T12:26:57Z</time>
      </trkpt>
      <trkpt lat="49.88223" lon="2.25598">
        <ele>28.5</ele>
        <time>2023-06-23T12:26:58Z</time>
      </trkpt>
      <trkpt lat="49.88222" lon="2.25596">
        <ele>28.5</ele>
        <time>2023-06-23T12:26:59Z</time>
      </trkpt>
      <trkpt lat="49.88221" lon="2.25593">
        <ele>28.5</ele>
        <time>2023-06-23T12:27:01Z</time>
      </trkpt>
      <trkpt lat="49.8822" lon="2.25593">
        <ele>28.5</ele>
        <time>2023-06-23T12:27:02Z</time>
      </trkpt>
      <trkpt lat="49.8822" lon="2.25592">
        <ele>28.6</ele>
        <time>2023-06-23T12:27:03Z</time>
      </trkpt>
      <trkpt lat="49.88219" lon="2.2559">
        <ele>28.6</ele>
        <time>2023-06-23T12:27:04Z</time>
      </trkpt>
      <trkpt lat="49.88218" lon="2.25589">
        <ele>28.6</ele>
        <time>2023-06-23T12:27:05Z</time>
      </trkpt>
      <trkpt lat="49.88217" lon="2.25588">
        <ele>28.6</ele>
        <time>2023-06-23T12:27:07Z</time>
      </trkpt>
      <trkpt lat="49.88215" lon="2.25586">
        <ele>28.6</ele>
        <time>2023-06-23T12:27:08Z</time>
      </trkpt>
      <trkpt lat="49.88215" lon="2.25585">
        <ele>28.6</ele>
        <time>2023-06-23T12:27:09Z</time>
      </trkpt>
      <trkpt lat="49.88214" lon="2.25584">
        <ele>28.6</ele>
        <time>2023-06-23T12:27:10Z</time>
      </trkpt>
      <trkpt lat="49.88213" lon="2.25582">
        <ele>28.6</ele>
        <time>2023-06-23T12:27:11Z</time>
      </trkpt>
      <trkpt lat="49.88212" lon="2.25581">
        <ele>28.6</ele>
        <time>2023-06-23T12:27:13Z</time>
      </trkpt>
      <trkpt lat="49.88211" lon="2.2558">
        <ele>28.6</ele>
        <time>2023-06-23T12:27:14Z</time>
      </trkpt>
      <trkpt lat="49.8821" lon="2.25579">
        <ele>28.6</ele>
        <time>2023-06-23T12:27:16Z</time>
      </trkpt>
      <trkpt lat="49.88209" lon="2.25577">
        <ele>28.7</ele>
        <time>2023-06-23T12:27:17Z</time>
      </trkpt>
      <trkpt lat="49.88208" lon="2.25576">
        <ele>28.7</ele>
        <time>2023-06-23T12:27:18Z</time>
      </trkpt>
      <trkpt lat="49.88206" lon="2.25575">
        <ele>28.7</ele>
        <time>2023-06-23T12:27:19Z</time>
      </trkpt>
      <trkpt lat="49.88205" lon="2.25573">
        <ele>28.7</ele>
        <time>2023-06-23T12:27:20Z</time>
      </trkpt>
      <trkpt lat="49.88204" lon="2.25572">
        <ele>28.7</ele>
        <time>2023-06-23T12:27:21Z</time>
      </trkpt>
      <trkpt lat="49.88204" lon="2.25571">
        <ele>28.7</ele>
        <time>2023-06-23T12:27:23Z</time>
      </trkpt>
      <trkpt lat="49.88203" lon="2.2557">
        <ele>28.7</ele>
        <time>2023-06-23T12:27:24Z</time>
      </trkpt>
      <trkpt lat="49.88203" lon="2.2557">
        <ele>28.7</ele>
        <time>2023-06-23T12:27:25Z</time>
      </trkpt>
      <trkpt lat="49.88202" lon="2.25569">
        <ele>28.7</ele>
        <time>2023-06-23T12:27:26Z</time>
      </trkpt>
      <trkpt lat="49.88202" lon="2.25568">
        <ele>28.7</ele>
        <time>2023-06-23T12:27:27Z</time>
      </trkpt>
      <trkpt lat="49.882" lon="2.25565">
        <ele>28.7</ele>
        <time>2023-06-23T12:27:28Z</time>
      </trkpt>
      <trkpt lat="49.882" lon="2.25564">
        <ele>28.7</ele>
        <time>2023-06-23T12:27:29Z</time>
      </trkpt>
      <trkpt lat="49.88199" lon="2.25563">
        <ele>28.7</ele>
        <time>2023-06-23T12:27:30Z</time>
      </trkpt>
      <trkpt lat="49.88199" lon="2.25562">
        <ele>28.8</ele>
        <time>2023-06-23T12:27:32Z</time>
      </trkpt>
      <trkpt lat="49.88198" lon="2.25561">
        <ele>28.8</ele>
        <time>2023-06-23T12:27:33Z</time>
      </trkpt>
      <trkpt lat="49.88197" lon="2.25559">
        <ele>28.8</ele>
        <time>2023-06-23T12:27:34Z</time>
      </trkpt>
      <trkpt lat="49.88197" lon="2.25558">
        <ele>28.8</ele>
        <time>2023-06-23T12:27:35Z</time>
      </trkpt>
      <trkpt lat="49.88196" lon="2.25557">
        <ele>28.8</ele>
        <time>2023-06-23T12:27:36Z</time>
      </trkpt>
      <trkpt lat="49.88195" lon="2.25556">
        <ele>28.8</ele>
        <time>2023-06-23T12:27:37Z</time>
      </trkpt>
      <trkpt lat="49.88195" lon="2.25554">
        <ele>28.8</ele>
        <time>2023-06-23T12:27:38Z</time>
      </trkpt>
      <trkpt lat="49.88194" lon="2.25553">
        <ele>28.8</ele>
        <time>2023-06-23T12:27:39Z</time>
      </trkpt>
      <trkpt lat="49.88193" lon="2.25552">
        <ele>28.8</ele>
        <time>2023-06-23T12:27:40Z</time>
      </trkpt>
      <trkpt lat="49.88192" lon="2.25551">
        <ele>28.8</ele>
        <time>2023-06-23T12:27:42Z</time>
      </trkpt>
      <trkpt lat="49.88191" lon="2.25549">
        <ele>28.8</ele>
        <time>2023-06-23T12:27:43Z</time>
      </trkpt>
      <trkpt lat="49.8819" lon="2.25548">
        <ele>28.8</ele>
        <time>2023-06-23T12:27:44Z</time>
      </trkpt>
      <trkpt lat="49.88189" lon="2.25547">
        <ele>28.8</ele>
        <time>2023-06-23T12:27:45Z</time>
      </trkpt>
      <trkpt lat="49.88188" lon="2.25546">
        <ele>28.9</ele>
        <time>2023-06-23T12:27:47Z</time>
      </trkpt>
      <trkpt lat="49.88187" lon="2.25545">
        <ele>28.9</ele>
        <time>2023-06-23T12:27:48Z</time>
      </trkpt>
      <trkpt lat="49.88186" lon="2.25544">
        <ele>28.9</ele>
        <time>2023-06-23T12:27:49Z</time>
      </trkpt>
      <trkpt lat="49.88185" lon="2.25543">
        <ele>28.9</ele>
        <time>2023-06-23T12:27:50Z</time>
      </trkpt>
      <trkpt lat="49.88184" lon="2.25542">
        <ele>28.9</ele>
        <time>2023-06-23T12:27:51Z</time>
      </trkpt>
      <trkpt lat="49.88183" lon="2.25542">
        <ele>28.9</ele>
        <time>2023-06-23T12:27:52Z</time>
      </trkpt>
      <trkpt lat="49.88182" lon="2.25541">
        <ele>28.9</ele>
        <time>2023-06-23T12:27:53Z</time>
      </trkpt>
      <trkpt lat="49.88181" lon="2.2554">
        <ele>28.9</ele>
        <time>2023-06-23T12:27:54Z</time>
      </trkpt>
      <trkpt lat="49.8818" lon="2.2554">
        <ele>28.9</ele>
        <time>2023-06-23T12:27:55Z</time>
      </trkpt>
      <trkpt lat="49.88179" lon="2.25539">
        <ele>28.9</ele>
        <time>2023-06-23T12:27:56Z</time>
      </trkpt>
      <trkpt lat="49.88178" lon="2.25538">
        <ele>28.9</ele>
        <time>2023-06-23T12:27:58Z</time>
      </trkpt>
      <trkpt lat="49.88177" lon="2.25537">
        <ele>28.9</ele>
        <time>2023-06-23T12:27:59Z</time>
      </trkpt>
      <trkpt lat="49.88175" lon="2.25536">
        <ele>28.9</ele>
        <time>2023-06-23T12:28:00Z</time>
      </trkpt>
      <trkpt lat="49.88174" lon="2.25535">
        <ele>28.9</ele>
        <time>2023-06-23T12:28:01Z</time>
      </trkpt>
      <trkpt lat="49.88172" lon="2.25534">
        <ele>28.9</ele>
        <time>2023-06-23T12:28:02Z</time>
      </trkpt>
      <trkpt lat="49.88171" lon="2.25534">
        <ele>28.9</ele>
        <time>2023-06-23T12:28:03Z</time>
      </trkpt>
      <trkpt lat="49.88169" lon="2.25533">
        <ele>28.9</ele>
        <time>2023-06-23T12:28:05Z</time>
      </trkpt>
      <trkpt lat="49.88168" lon="2.25532">
        <ele>28.9</ele>
        <time>2023-06-23T12:28:06Z</time>
      </trkpt>
      <trkpt lat="49.88167" lon="2.25531">
        <ele>28.9</ele>
        <time>2023-06-23T12:28:07Z</time>
      </trkpt>
      <trkpt lat="49.88165" lon="2.2553">
        <ele>28.9</ele>
        <time>2023-06-23T12:28:08Z</time>
      </trkpt>
      <trkpt lat="49.88164" lon="2.2553">
        <ele>28.9</ele>
        <time>2023-06-23T12:28:09Z</time>
      </trkpt>
      <trkpt lat="49.88163" lon="2.25529">
        <ele>28.9</ele>
        <time>2023-06-23T12:28:10Z</time>
      </trkpt>
      <trkpt lat="49.88161" lon="2.25528">
        <ele>28.9</ele>
        <time>2023-06-23T12:28:12Z</time>
      </trkpt>
      <trkpt lat="49.8816" lon="2.25527">
        <ele>28.9</ele>
        <time>2023-06-23T12:28:13Z</time>
      </trkpt>
      <trkpt lat="49.88158" lon="2.25526">
        <ele>28.9</ele>
        <time>2023-06-23T12:28:14Z</time>
      </trkpt>
      <trkpt lat="49.88157" lon="2.25525">
        <ele>28.9</ele>
        <time>2023-06-23T12:28:15Z</time>
      </trkpt>
      <trkpt lat="49.88156" lon="2.25523">
        <ele>28.9</ele>
        <time>2023-06-23T12:28:16Z</time>
      </trkpt>
      <trkpt lat="49.88156" lon="2.25521">
        <ele>28.9</ele>
        <time>2023-06-23T12:28:17Z</time>
      </trkpt>
      <trkpt lat="49.88156" lon="2.2552">
        <ele>28.9</ele>
        <time>2023-06-23T12:28:18Z</time>
      </trkpt>
      <trkpt lat="49.88156" lon="2.25517">
        <ele>28.8</ele>
        <time>2023-06-23T12:28:19Z</time>
      </trkpt>
      <trkpt lat="49.88156" lon="2.25515">
        <ele>28.8</ele>
        <time>2023-06-23T12:28:20Z</time>
      </trkpt>
      <trkpt lat="49.88156" lon="2.25514">
        <ele>28.8</ele>
        <time>2023-06-23T12:28:21Z</time>
      </trkpt>
      <trkpt lat="49.88157" lon="2.2551">
        <ele>28.7</ele>
        <time>2023-06-23T12:28:22Z</time>
      </trkpt>
      <trkpt lat="49.88157" lon="2.25508">
        <ele>28.6</ele>
        <time>2023-06-23T12:28:24Z</time>
      </trkpt>
      <trkpt lat="49.88158" lon="2.25506">
        <ele>28.6</ele>
        <time>2023-06-23T12:28:25Z</time>
      </trkpt>
      <trkpt lat="49.88158" lon="2.25504">
        <ele>28.5</ele>
        <time>2023-06-23T12:28:26Z</time>
      </trkpt>
      <trkpt lat="49.88159" lon="2.25502">
        <ele>28.5</ele>
        <time>2023-06-23T12:28:27Z</time>
      </trkpt>
      <trkpt lat="49.8816" lon="2.255">
        <ele>28.4</ele>
        <time>2023-06-23T12:28:28Z</time>
      </trkpt>
      <trkpt lat="49.88161" lon="2.25497">
        <ele>28.3</ele>
        <time>2023-06-23T12:28:29Z</time>
      </trkpt>
      <trkpt lat="49.88161" lon="2.25495">
        <ele>28.3</ele>
        <time>2023-06-23T12:28:30Z</time>
      </trkpt>
      <trkpt lat="49.88162" lon="2.25492">
        <ele>28.2</ele>
        <time>2023-06-23T12:28:31Z</time>
      </trkpt>
      <trkpt lat="49.88163" lon="2.2549">
        <ele>28.2</ele>
        <time>2023-06-23T12:28:32Z</time>
      </trkpt>
      <trkpt lat="49.88164" lon="2.25488">
        <ele>28.1</ele>
        <time>2023-06-23T12:28:33Z</time>
      </trkpt>
      <trkpt lat="49.88164" lon="2.25486">
        <ele>28.1</ele>
        <time>2023-06-23T12:28:34Z</time>
      </trkpt>
      <trkpt lat="49.88165" lon="2.25484">
        <ele>28</ele>
        <time>2023-06-23T12:28:35Z</time>
      </trkpt>
      <trkpt lat="49.88166" lon="2.25481">
        <ele>28</ele>
        <time>2023-06-23T12:28:37Z</time>
      </trkpt>
      <trkpt lat="49.88167" lon="2.25479">
        <ele>27.9</ele>
        <time>2023-06-23T12:28:38Z</time>
      </trkpt>
      <trkpt lat="49.88168" lon="2.25477">
        <ele>27.9</ele>
        <time>2023-06-23T12:28:39Z</time>
      </trkpt>
      <trkpt lat="49.88169" lon="2.25473">
        <ele>27.8</ele>
        <time>2023-06-23T12:28:40Z</time>
      </trkpt>
      <trkpt lat="49.8817" lon="2.25472">
        <ele>27.8</ele>
        <time>2023-06-23T12:28:41Z</time>
      </trkpt>
      <trkpt lat="49.88171" lon="2.25469">
        <ele>27.7</ele>
        <time>2023-06-23T12:28:43Z</time>
      </trkpt>
      <trkpt lat="49.88171" lon="2.25467">
        <ele>27.7</ele>
        <time>2023-06-23T12:28:44Z</time>
      </trkpt>
      <trkpt lat="49.88172" lon="2.25464">
        <ele>27.6</ele>
        <time>2023-06-23T12:28:45Z</time>
      </trkpt>
      <trkpt lat="49.88173" lon="2.25463">
        <ele>27.6</ele>
        <time>2023-06-23T12:28:46Z</time>
      </trkpt>
      <trkpt lat="49.88173" lon="2.25461">
        <ele>27.6</ele>
        <time>2023-06-23T12:28:47Z</time>
      </trkpt>
      <trkpt lat="49.88173" lon="2.25459">
        <ele>27.6</ele>
        <time>2023-06-23T12:28:48Z</time>
      </trkpt>
      <trkpt lat="49.88174" lon="2.25457">
        <ele>27.5</ele>
        <time>2023-06-23T12:28:49Z</time>
      </trkpt>
      <trkpt lat="49.88175" lon="2.25454">
        <ele>27.5</ele>
        <time>2023-06-23T12:28:50Z</time>
      </trkpt>
      <trkpt lat="49.88175" lon="2.25453">
        <ele>27.5</ele>
        <time>2023-06-23T12:28:51Z</time>
      </trkpt>
      <trkpt lat="49.88176" lon="2.25452">
        <ele>27.4</ele>
        <time>2023-06-23T12:28:52Z</time>
      </trkpt>
      <trkpt lat="49.88176" lon="2.2545">
        <ele>27.4</ele>
        <time>2023-06-23T12:28:54Z</time>
      </trkpt>
      <trkpt lat="49.88177" lon="2.25448">
        <ele>27.4</ele>
        <time>2023-06-23T12:28:55Z</time>
      </trkpt>
      <trkpt lat="49.88177" lon="2.25447">
        <ele>27.4</ele>
        <time>2023-06-23T12:28:56Z</time>
      </trkpt>
      <trkpt lat="49.88179" lon="2.25445">
        <ele>27.3</ele>
        <time>2023-06-23T12:28:57Z</time>
      </trkpt>
      <trkpt lat="49.88179" lon="2.25444">
        <ele>27.3</ele>
        <time>2023-06-23T12:28:58Z</time>
      </trkpt>
      <trkpt lat="49.8818" lon="2.25443">
        <ele>27.3</ele>
        <time>2023-06-23T12:28:59Z</time>
      </trkpt>
      <trkpt lat="49.8818" lon="2.25441">
        <ele>27.2</ele>
        <time>2023-06-23T12:29:00Z</time>
      </trkpt>
      <trkpt lat="49.88181" lon="2.2544">
        <ele>27.2</ele>
        <time>2023-06-23T12:29:01Z</time>
      </trkpt>
      <trkpt lat="49.88182" lon="2.25438">
        <ele>27.2</ele>
        <time>2023-06-23T12:29:03Z</time>
      </trkpt>
      <trkpt lat="49.88183" lon="2.25437">
        <ele>27.1</ele>
        <time>2023-06-23T12:29:04Z</time>
      </trkpt>
      <trkpt lat="49.88184" lon="2.25436">
        <ele>27.1</ele>
        <time>2023-06-23T12:29:05Z</time>
      </trkpt>
      <trkpt lat="49.88184" lon="2.25434">
        <ele>27.1</ele>
        <time>2023-06-23T12:29:06Z</time>
      </trkpt>
      <trkpt lat="49.88184" lon="2.25433">
        <ele>27.1</ele>
        <time>2023-06-23T12:29:07Z</time>
      </trkpt>
      <trkpt lat="49.88184" lon="2.25431">
        <ele>27.1</ele>
        <time>2023-06-23T12:29:08Z</time>
      </trkpt>
      <trkpt lat="49.88184" lon="2.25429">
        <ele>27.1</ele>
        <time>2023-06-23T12:29:10Z</time>
      </trkpt>
      <trkpt lat="49.88184" lon="2.25428">
        <ele>27.1</ele>
        <time>2023-06-23T12:29:11Z</time>
      </trkpt>
      <trkpt lat="49.88184" lon="2.25426">
        <ele>27.2</ele>
        <time>2023-06-23T12:29:12Z</time>
      </trkpt>
      <trkpt lat="49.88183" lon="2.25425">
        <ele>27.2</ele>
        <time>2023-06-23T12:29:13Z</time>
      </trkpt>
      <trkpt lat="49.88182" lon="2.25424">
        <ele>27.2</ele>
        <time>2023-06-23T12:29:14Z</time>
      </trkpt>
      <trkpt lat="49.88181" lon="2.25423">
        <ele>27.2</ele>
        <time>2023-06-23T12:29:15Z</time>
      </trkpt>
      <trkpt lat="49.8818" lon="2.25422">
        <ele>27.2</ele>
        <time>2023-06-23T12:29:16Z</time>
      </trkpt>
      <trkpt lat="49.88179" lon="2.25421">
        <ele>27.3</ele>
        <time>2023-06-23T12:29:18Z</time>
      </trkpt>
      <trkpt lat="49.88178" lon="2.2542">
        <ele>27.3</ele>
        <time>2023-06-23T12:29:19Z</time>
      </trkpt>
      <trkpt lat="49.88177" lon="2.25419">
        <ele>27.3</ele>
        <time>2023-06-23T12:29:20Z</time>
      </trkpt>
      <trkpt lat="49.88175" lon="2.25418">
        <ele>27.3</ele>
        <time>2023-06-23T12:29:21Z</time>
      </trkpt>
      <trkpt lat="49.88175" lon="2.25418">
        <ele>27.4</ele>
        <time>2023-06-23T12:29:22Z</time>
      </trkpt>
      <trkpt lat="49.88174" lon="2.25418">
        <ele>27.4</ele>
        <time>2023-06-23T12:29:23Z</time>
      </trkpt>
      <trkpt lat="49.88173" lon="2.25418">
        <ele>27.4</ele>
        <time>2023-06-23T12:29:24Z</time>
      </trkpt>
      <trkpt lat="49.88171" lon="2.25418">
        <ele>27.5</ele>
        <time>2023-06-23T12:29:25Z</time>
      </trkpt>
      <trkpt lat="49.8817" lon="2.25417">
        <ele>27.5</ele>
        <time>2023-06-23T12:29:26Z</time>
      </trkpt>
      <trkpt lat="49.88168" lon="2.25416">
        <ele>27.6</ele>
        <time>2023-06-23T12:29:27Z</time>
      </trkpt>
      <trkpt lat="49.88168" lon="2.25415">
        <ele>27.6</ele>
        <time>2023-06-23T12:29:29Z</time>
      </trkpt>
      <trkpt lat="49.88167" lon="2.25415">
        <ele>27.6</ele>
        <time>2023-06-23T12:29:30Z</time>
      </trkpt>
      <trkpt lat="49.88166" lon="2.25414">
        <ele>27.7</ele>
        <time>2023-06-23T12:29:31Z</time>
      </trkpt>
      <trkpt lat="49.88165" lon="2.25413">
        <ele>27.7</ele>
        <time>2023-06-23T12:29:32Z</time>
      </trkpt>
      <trkpt lat="49.88164" lon="2.25412">
        <ele>27.7</ele>
        <time>2023-06-23T12:29:33Z</time>
      </trkpt>
      <trkpt lat="49.88163" lon="2.25412">
        <ele>27.8</ele>
        <time>2023-06-23T12:29:34Z</time>
      </trkpt>
      <trkpt lat="49.88162" lon="2.25411">
        <ele>27.8</ele>
        <time>2023-06-23T12:29:35Z</time>
      </trkpt>
      <trkpt lat="49.88161" lon="2.25411">
        <ele>27.8</ele>
        <time>2023-06-23T12:29:36Z</time>
      </trkpt>
      <trkpt lat="49.8816" lon="2.2541">
        <ele>27.9</ele>
        <time>2023-06-23T12:29:38Z</time>
      </trkpt>
      <trkpt lat="49.8816" lon="2.25408">
        <ele>27.9</ele>
        <time>2023-06-23T12:29:39Z</time>
      </trkpt>
      <trkpt lat="49.88159" lon="2.25407">
        <ele>28</ele>
        <time>2023-06-23T12:29:40Z</time>
      </trkpt>
      <trkpt lat="49.88159" lon="2.25405">
        <ele>28</ele>
        <time>2023-06-23T12:29:41Z</time>
      </trkpt>
      <trkpt lat="49.88159" lon="2.25401">
        <ele>28.1</ele>
        <time>2023-06-23T12:29:43Z</time>
      </trkpt>
      <trkpt lat="49.88159" lon="2.254">
        <ele>28.1</ele>
        <time>2023-06-23T12:29:44Z</time>
      </trkpt>
      <trkpt lat="49.8816" lon="2.25398">
        <ele>28</ele>
        <time>2023-06-23T12:29:46Z</time>
      </trkpt>
      <trkpt lat="49.8816" lon="2.25397">
        <ele>28</ele>
        <time>2023-06-23T12:29:47Z</time>
      </trkpt>
      <trkpt lat="49.8816" lon="2.25397">
        <ele>28</ele>
        <time>2023-06-23T12:29:48Z</time>
      </trkpt>
      <trkpt lat="49.8816" lon="2.25397">
        <ele>28</ele>
        <time>2023-06-23T12:29:50Z</time>
      </trkpt>
      <trkpt lat="49.8816" lon="2.25397">
        <ele>28</ele>
        <time>2023-06-23T12:29:51Z</time>
      </trkpt>
      <trkpt lat="49.8816" lon="2.25398">
        <ele>28</ele>
        <time>2023-06-23T12:29:53Z</time>
      </trkpt>
      <trkpt lat="49.8816" lon="2.25398">
        <ele>28</ele>
        <time>2023-06-23T12:29:54Z</time>
      </trkpt>
      <trkpt lat="49.8816" lon="2.25397">
        <ele>28</ele>
        <time>2023-06-23T12:29:56Z</time>
      </trkpt>
      <trkpt lat="49.8816" lon="2.25397">
        <ele>28</ele>
        <time>2023-06-23T12:29:57Z</time>
      </trkpt>
      <trkpt lat="49.8816" lon="2.25397">
        <ele>28</ele>
        <time>2023-06-23T12:29:58Z</time>
      </trkpt>
      <trkpt lat="49.88161" lon="2.25397">
        <ele>28</ele>
        <time>2023-06-23T12:30:00Z</time>
      </trkpt>
      <trkpt lat="49.88161" lon="2.25397">
        <ele>28</ele>
        <time>2023-06-23T12:30:01Z</time>
      </trkpt>
      <trkpt lat="49.88162" lon="2.25399">
        <ele>28</ele>
        <time>2023-06-23T12:30:02Z</time>
      </trkpt>
      <trkpt lat="49.88162" lon="2.254">
        <ele>28</ele>
        <time>2023-06-23T12:30:03Z</time>
      </trkpt>
      <trkpt lat="49.88163" lon="2.25401">
        <ele>28</ele>
        <time>2023-06-23T12:30:04Z</time>
      </trkpt>
      <trkpt lat="49.88163" lon="2.25401">
        <ele>28</ele>
        <time>2023-06-23T12:30:05Z</time>
      </trkpt>
      <trkpt lat="49.88163" lon="2.25402">
        <ele>28</ele>
        <time>2023-06-23T12:30:06Z</time>
      </trkpt>
      <trkpt lat="49.88163" lon="2.25402">
        <ele>28</ele>
        <time>2023-06-23T12:30:07Z</time>
      </trkpt>
      <trkpt lat="49.88163" lon="2.25402">
        <ele>28</ele>
        <time>2023-06-23T12:30:08Z</time>
      </trkpt>
      <trkpt lat="49.88163" lon="2.25402">
        <ele>28</ele>
        <time>2023-06-23T12:30:09Z</time>
      </trkpt>
      <trkpt lat="49.88163" lon="2.25402">
        <ele>28</ele>
        <time>2023-06-23T12:30:10Z</time>
      </trkpt>
      <trkpt lat="49.88163" lon="2.25402">
        <ele>28</ele>
        <time>2023-06-23T12:30:11Z</time>
      </trkpt>
      <trkpt lat="49.88163" lon="2.25402">
        <ele>28</ele>
        <time>2023-06-23T12:30:12Z</time>
      </trkpt>
      <trkpt lat="49.88163" lon="2.25402">
        <ele>28</ele>
        <time>2023-06-23T12:30:13Z</time>
      </trkpt>
      <trkpt lat="49.88163" lon="2.25402">
        <ele>28</ele>
        <time>2023-06-23T12:30:14Z</time>
      </trkpt>
      <trkpt lat="49.88163" lon="2.25402">
        <ele>28</ele>
        <time>2023-06-23T12:30:15Z</time>
      </trkpt>
      <trkpt lat="49.88163" lon="2.25402">
        <ele>28</ele>
        <time>2023-06-23T12:30:16Z</time>
      </trkpt>
      <trkpt lat="49.88163" lon="2.25402">
        <ele>28</ele>
        <time>2023-06-23T12:30:17Z</time>
      </trkpt>
      <trkpt lat="49.88163" lon="2.25402">
        <ele>28</ele>
        <time>2023-06-23T12:30:18Z</time>
      </trkpt>
      <trkpt lat="49.88163" lon="2.25402">
        <ele>28</ele>
        <time>2023-06-23T12:30:19Z</time>
      </trkpt>
      <trkpt lat="49.88163" lon="2.25402">
        <ele>28</ele>
        <time>2023-06-23T12:30:20Z</time>
      </trkpt>
      <trkpt lat="49.88163" lon="2.25402">
        <ele>28</ele>
        <time>2023-06-23T12:30:21Z</time>
      </trkpt>
      <trkpt lat="49.88163" lon="2.25402">
        <ele>28</ele>
        <time>2023-06-23T12:30:22Z</time>
      </trkpt>
      <trkpt lat="49.88163" lon="2.25402">
        <ele>28</ele>
        <time>2023-06-23T12:30:23Z</time>
      </trkpt>
      <trkpt lat="49.88163" lon="2.25402">
        <ele>28</ele>
        <time>2023-06-23T12:30:24Z</time>
      </trkpt>
      <trkpt lat="49.88163" lon="2.25402">
        <ele>28</ele>
        <time>2023-06-23T12:30:25Z</time>
      </trkpt>
      <trkpt lat="49.88163" lon="2.25402">
        <ele>28</ele>
        <time>2023-06-23T12:30:26Z</time>
      </trkpt>
      <trkpt lat="49.88163" lon="2.25402">
        <ele>28</ele>
        <time>2023-06-23T12:30:27Z</time>
      </trkpt>
      <trkpt lat="49.88163" lon="2.25402">
        <ele>28</ele>
        <time>2023-06-23T12:30:28Z</time>
      </trkpt>
      <trkpt lat="49.88163" lon="2.25402">
        <ele>28</ele>
        <time>2023-06-23T12:30:29Z</time>
      </trkpt>
      <trkpt lat="49.88163" lon="2.25402">
        <ele>28</ele>
        <time>2023-06-23T12:30:30Z</time>
      </trkpt>
      <trkpt lat="49.88163" lon="2.25402">
        <ele>28</ele>
        <time>2023-06-23T12:30:31Z</time>
      </trkpt>
      <trkpt lat="49.88163" lon="2.25402">
        <ele>28</ele>
        <time>2023-06-23T12:30:32Z</time>
      </trkpt>
      <trkpt lat="49.88163" lon="2.25402">
        <ele>28</ele>
        <time>2023-06-23T12:30:33Z</time>
      </trkpt>
      <trkpt lat="49.88163" lon="2.25402">
        <ele>28</ele>
        <time>2023-06-23T12:30:34Z</time>
      </trkpt>
      <trkpt lat="49.88163" lon="2.25402">
        <ele>28</ele>
        <time>2023-06-23T12:30:35Z</time>
      </trkpt>
      <trkpt lat="49.88163" lon="2.25402">
        <ele>28</ele>
        <time>2023-06-23T12:30:36Z</time>
      </trkpt>
      <trkpt lat="49.88163" lon="2.25402">
        <ele>28</ele>
        <time>2023-06-23T12:30:37Z</time>
      </trkpt>
      <trkpt lat="49.88163" lon="2.25402">
        <ele>28</ele>
        <time>2023-06-23T12:30:38Z</time>
      </trkpt>
      <trkpt lat="49.88163" lon="2.25402">
        <ele>28</ele>
        <time>2023-06-23T12:30:39Z</time>
      </trkpt>
      <trkpt lat="49.88163" lon="2.25402">
        <ele>28</ele>
        <time>2023-06-23T12:30:40Z</time>
      </trkpt>
      <trkpt lat="49.88163" lon="2.25402">
        <ele>28</ele>
        <time>2023-06-23T12:30:41Z</time>
      </trkpt>
      <trkpt lat="49.88163" lon="2.25402">
        <ele>28</ele>
        <time>2023-06-23T12:30:42Z</time>
      </trkpt>
      <trkpt lat="49.88163" lon="2.25402">
        <ele>28</ele>
        <time>2023-06-23T12:30:43Z</time>
      </trkpt>
      <trkpt lat="49.88163" lon="2.25402">
        <ele>28</ele>
        <time>2023-06-23T12:30:44Z</time>
      </trkpt>
      <trkpt lat="49.88163" lon="2.25402">
        <ele>28</ele>
        <time>2023-06-23T12:30:45Z</time>
      </trkpt>
      <trkpt lat="49.88163" lon="2.25402">
        <ele>28</ele>
        <time>2023-06-23T12:30:46Z</time>
      </trkpt>
      <trkpt lat="49.88163" lon="2.25402">
        <ele>28</ele>
        <time>2023-06-23T12:30:47Z</time>
      </trkpt>
      <trkpt lat="49.88163" lon="2.25402">
        <ele>28</ele>
        <time>2023-06-23T12:30:48Z</time>
      </trkpt>
      <trkpt lat="49.88163" lon="2.25402">
        <ele>28</ele>
        <time>2023-06-23T12:30:49Z</time>
      </trkpt>
      <trkpt lat="49.88163" lon="2.25402">
        <ele>28</ele>
        <time>2023-06-23T12:30:50Z</time>
      </trkpt>
      <trkpt lat="49.88163" lon="2.25402">
        <ele>28</ele>
        <time>2023-06-23T12:30:51Z</time>
      </trkpt>
      <trkpt lat="49.88163" lon="2.25402">
        <ele>28</ele>
        <time>2023-06-23T12:30:52Z</time>
      </trkpt>
      <trkpt lat="49.88163" lon="2.25402">
        <ele>28</ele>
        <time>2023-06-23T12:30:53Z</time>
      </trkpt>
      <trkpt lat="49.88163" lon="2.25402">
        <ele>28</ele>
        <time>2023-06-23T12:30:54Z</time>
      </trkpt>
      <trkpt lat="49.88163" lon="2.25402">
        <ele>28</ele>
        <time>2023-06-23T12:30:55Z</time>
      </trkpt>
      <trkpt lat="49.88163" lon="2.25402">
        <ele>28</ele>
        <time>2023-06-23T12:30:56Z</time>
      </trkpt>
      <trkpt lat="49.88163" lon="2.25402">
        <ele>28</ele>
        <time>2023-06-23T12:30:57Z</time>
      </trkpt>
      <trkpt lat="49.88163" lon="2.25402">
        <ele>28</ele>
        <time>2023-06-23T12:30:58Z</time>
      </trkpt>
      <trkpt lat="49.88163" lon="2.25402">
        <ele>28</ele>
        <time>2023-06-23T12:30:59Z</time>
      </trkpt>
      <trkpt lat="49.88163" lon="2.25402">
        <ele>28</ele>
        <time>2023-06-23T12:31:00Z</time>
      </trkpt>
      <trkpt lat="49.88163" lon="2.25402">
        <ele>28</ele>
        <time>2023-06-23T12:31:01Z</time>
      </trkpt>
      <trkpt lat="49.88163" lon="2.25402">
        <ele>28</ele>
        <time>2023-06-23T12:31:02Z</time>
      </trkpt>
      <trkpt lat="49.88163" lon="2.25402">
        <ele>28</ele>
        <time>2023-06-23T12:31:03Z</time>
      </trkpt>
      <trkpt lat="49.88163" lon="2.25402">
        <ele>28</ele>
        <time>2023-06-23T12:31:04Z</time>
      </trkpt>
      <trkpt lat="49.88163" lon="2.25402">
        <ele>28</ele>
        <time>2023-06-23T12:31:05Z</time>
      </trkpt>
      <trkpt lat="49.88163" lon="2.25402">
        <ele>28</ele>
        <time>2023-06-23T12:31:06Z</time>
      </trkpt>
      <trkpt lat="49.88163" lon="2.25402">
        <ele>28</ele>
        <time>2023-06-23T12:31:07Z</time>
      </trkpt>
      <trkpt lat="49.88163" lon="2.25402">
        <ele>28</ele>
        <time>2023-06-23T12:31:08Z</time>
      </trkpt>
      <trkpt lat="49.88163" lon="2.25402">
        <ele>28</ele>
        <time>2023-06-23T12:31:09Z</time>
      </trkpt>
      <trkpt lat="49.88163" lon="2.25402">
        <ele>28</ele>
        <time>2023-06-23T12:31:10Z</time>
      </trkpt>
      <trkpt lat="49.88163" lon="2.25402">
        <ele>28</ele>
        <time>2023-06-23T12:31:11Z</time>
      </trkpt>
      <trkpt lat="49.88163" lon="2.25402">
        <ele>28</ele>
        <time>2023-06-23T12:31:12Z</time>
      </trkpt>
      <trkpt lat="49.88163" lon="2.25402">
        <ele>28</ele>
        <time>2023-06-23T12:31:13Z</time>
      </trkpt>
      <trkpt lat="49.88163" lon="2.25402">
        <ele>28</ele>
        <time>2023-06-23T12:31:14Z</time>
      </trkpt>
      <trkpt lat="49.88163" lon="2.25402">
        <ele>28</ele>
        <time>2023-06-23T12:31:15Z</time>
      </trkpt>
      <trkpt lat="49.88163" lon="2.25402">
        <ele>28</ele>
        <time>2023-06-23T12:31:16Z</time>
      </trkpt>
      <trkpt lat="49.88163" lon="2.25402">
        <ele>28</ele>
        <time>2023-06-23T12:31:17Z</time>
      </trkpt>
      <trkpt lat="49.88163" lon="2.25402">
        <ele>28</ele>
        <time>2023-06-23T12:31:18Z</time>
      </trkpt>
      <trkpt lat="49.88163" lon="2.25402">
        <ele>28</ele>
        <time>2023-06-23T12:31:19Z</time>
      </trkpt>
      <trkpt lat="49.88163" lon="2.25402">
        <ele>28</ele>
        <time>2023-06-23T12:31:20Z</time>
      </trkpt>
      <trkpt lat="49.88163" lon="2.25402">
        <ele>28</ele>
        <time>2023-06-23T12:31:21Z</time>
      </trkpt>
      <trkpt lat="49.88163" lon="2.25402">
        <ele>28</ele>
        <time>2023-06-23T12:31:22Z</time>
      </trkpt>
      <trkpt lat="49.88163" lon="2.25402">
        <ele>28</ele>
        <time>2023-06-23T12:31:23Z</time>
      </trkpt>
      <trkpt lat="49.88163" lon="2.25402">
        <ele>28</ele>
        <time>2023-06-23T12:31:24Z</time>
      </trkpt>
      <trkpt lat="49.88163" lon="2.25402">
        <ele>28</ele>
        <time>2023-06-23T12:31:25Z</time>
      </trkpt>
      <trkpt lat="49.88163" lon="2.25402">
        <ele>28</ele>
        <time>2023-06-23T12:31:26Z</time>
      </trkpt>
      <trkpt lat="49.88163" lon="2.25402">
        <ele>28</ele>
        <time>2023-06-23T12:31:27Z</time>
      </trkpt>
      <trkpt lat="49.88163" lon="2.25402">
        <ele>28</ele>
        <time>2023-06-23T12:31:28Z</time>
      </trkpt>
      <trkpt lat="49.88163" lon="2.25402">
        <ele>28</ele>
        <time>2023-06-23T12:31:29Z</time>
      </trkpt>
      <trkpt lat="49.88163" lon="2.25402">
        <ele>28</ele>
        <time>2023-06-23T12:31:30Z</time>
      </trkpt>
      <trkpt lat="49.88163" lon="2.25402">
        <ele>28</ele>
        <time>2023-06-23T12:31:31Z</time>
      </trkpt>
      <trkpt lat="49.88163" lon="2.25402">
        <ele>28</ele>
        <time>2023-06-23T12:31:32Z</time>
      </trkpt>
      <trkpt lat="49.88163" lon="2.25402">
        <ele>28</ele>
        <time>2023-06-23T12:31:33Z</time>
      </trkpt>
      <trkpt lat="49.88163" lon="2.25402">
        <ele>28</ele>
        <time>2023-06-23T12:31:34Z</time>
      </trkpt>
      <trkpt lat="49.88163" lon="2.25402">
        <ele>28</ele>
        <time>2023-06-23T12:31:35Z</time>
      </trkpt>
      <trkpt lat="49.88163" lon="2.25402">
        <ele>28</ele>
        <time>2023-06-23T12:31:36Z</time>
      </trkpt>
      <trkpt lat="49.88163" lon="2.25402">
        <ele>28</ele>
        <time>2023-06-23T12:31:37Z</time>
      </trkpt>
      <trkpt lat="49.88163" lon="2.25402">
        <ele>28</ele>
        <time>2023-06-23T12:31:38Z</time>
      </trkpt>
      <trkpt lat="49.88163" lon="2.25402">
        <ele>28</ele>
        <time>2023-06-23T12:31:39Z</time>
      </trkpt>
      <trkpt lat="49.88163" lon="2.25402">
        <ele>28</ele>
        <time>2023-06-23T12:31:40Z</time>
      </trkpt>
      <trkpt lat="49.88163" lon="2.25402">
        <ele>28</ele>
        <time>2023-06-23T12:31:41Z</time>
      </trkpt>
      <trkpt lat="49.88163" lon="2.25402">
        <ele>28</ele>
        <time>2023-06-23T12:31:42Z</time>
      </trkpt>
      <trkpt lat="49.88163" lon="2.25402">
        <ele>28</ele>
        <time>2023-06-23T12:31:43Z</time>
      </trkpt>
      <trkpt lat="49.88163" lon="2.25402">
        <ele>28</ele>
        <time>2023-06-23T12:31:44Z</time>
      </trkpt>
      <trkpt lat="49.88163" lon="2.25402">
        <ele>28</ele>
        <time>2023-06-23T12:31:45Z</time>
      </trkpt>
      <trkpt lat="49.88163" lon="2.25402">
        <ele>28</ele>
        <time>2023-06-23T12:31:46Z</time>
      </trkpt>
      <trkpt lat="49.88163" lon="2.25402">
        <ele>28</ele>
        <time>2023-06-23T12:31:47Z</time>
      </trkpt>
      <trkpt lat="49.88163" lon="2.25402">
        <ele>28</ele>
        <time>2023-06-23T12:31:48Z</time>
      </trkpt>
      <trkpt lat="49.88163" lon="2.25402">
        <ele>28</ele>
        <time>2023-06-23T12:31:49Z</time>
      </trkpt>
      <trkpt lat="49.88162" lon="2.25404">
        <ele>28</ele>
        <time>2023-06-23T12:31:50Z</time>
      </trkpt>
      <trkpt lat="49.88162" lon="2.25404">
        <ele>28</ele>
        <time>2023-06-23T12:31:51Z</time>
      </trkpt>
      <trkpt lat="49.88162" lon="2.25404">
        <ele>28</ele>
        <time>2023-06-23T12:31:52Z</time>
      </trkpt>
      <trkpt lat="49.88163" lon="2.25403">
        <ele>28</ele>
        <time>2023-06-23T12:31:53Z</time>
      </trkpt>
      <trkpt lat="49.88164" lon="2.25402">
        <ele>28</ele>
        <time>2023-06-23T12:31:54Z</time>
      </trkpt>
      <trkpt lat="49.88164" lon="2.25402">
        <ele>28</ele>
        <time>2023-06-23T12:31:56Z</time>
      </trkpt>
      <trkpt lat="49.88164" lon="2.25401">
        <ele>28</ele>
        <time>2023-06-23T12:31:57Z</time>
      </trkpt>
      <trkpt lat="49.88164" lon="2.254">
        <ele>28</ele>
        <time>2023-06-23T12:31:59Z</time>
      </trkpt>
      <trkpt lat="49.88164" lon="2.254">
        <ele>28</ele>
        <time>2023-06-23T12:32:00Z</time>
      </trkpt>
      <trkpt lat="49.88164" lon="2.254">
        <ele>28</ele>
        <time>2023-06-23T12:32:01Z</time>
      </trkpt>
      <trkpt lat="49.88164" lon="2.254">
        <ele>28</ele>
        <time>2023-06-23T12:32:02Z</time>
      </trkpt>
      <trkpt lat="49.88165" lon="2.254">
        <ele>28</ele>
        <time>2023-06-23T12:32:04Z</time>
      </trkpt>
      <trkpt lat="49.88165" lon="2.254">
        <ele>28</ele>
        <time>2023-06-23T12:32:05Z</time>
      </trkpt>
      <trkpt lat="49.88165" lon="2.25399">
        <ele>28</ele>
        <time>2023-06-23T12:32:07Z</time>
      </trkpt>
      <trkpt lat="49.88165" lon="2.25399">
        <ele>28</ele>
        <time>2023-06-23T12:32:08Z</time>
      </trkpt>
      <trkpt lat="49.88165" lon="2.25399">
        <ele>28</ele>
        <time>2023-06-23T12:32:10Z</time>
      </trkpt>
      <trkpt lat="49.88165" lon="2.25399">
        <ele>28</ele>
        <time>2023-06-23T12:32:11Z</time>
      </trkpt>
      <trkpt lat="49.88165" lon="2.25399">
        <ele>28</ele>
        <time>2023-06-23T12:32:12Z</time>
      </trkpt>
      <trkpt lat="49.88165" lon="2.25399">
        <ele>28</ele>
        <time>2023-06-23T12:32:14Z</time>
      </trkpt>
      <trkpt lat="49.88165" lon="2.25399">
        <ele>28</ele>
        <time>2023-06-23T12:32:15Z</time>
      </trkpt>
      <trkpt lat="49.88165" lon="2.25399">
        <ele>28</ele>
        <time>2023-06-23T12:32:16Z</time>
      </trkpt>
      <trkpt lat="49.88165" lon="2.25399">
        <ele>28</ele>
        <time>2023-06-23T12:32:17Z</time>
      </trkpt>
      <trkpt lat="49.88165" lon="2.25399">
        <ele>28</ele>
        <time>2023-06-23T12:32:18Z</time>
      </trkpt>
      <trkpt lat="49.88165" lon="2.25399">
        <ele>28</ele>
        <time>2023-06-23T12:32:19Z</time>
      </trkpt>
      <trkpt lat="49.88165" lon="2.25399">
        <ele>28</ele>
        <time>2023-06-23T12:32:20Z</time>
      </trkpt>
      <trkpt lat="49.88165" lon="2.25399">
        <ele>28</ele>
        <time>2023-06-23T12:32:21Z</time>
      </trkpt>
      <trkpt lat="49.88165" lon="2.25399">
        <ele>28</ele>
        <time>2023-06-23T12:32:22Z</time>
      </trkpt>
      <trkpt lat="49.88165" lon="2.25399">
        <ele>28</ele>
        <time>2023-06-23T12:32:23Z</time>
      </trkpt>
      <trkpt lat="49.88165" lon="2.25399">
        <ele>28</ele>
        <time>2023-06-23T12:32:24Z</time>
      </trkpt>
      <trkpt lat="49.88165" lon="2.25399">
        <ele>28</ele>
        <time>2023-06-23T12:32:25Z</time>
      </trkpt>
      <trkpt lat="49.88165" lon="2.25399">
        <ele>28</ele>
        <time>2023-06-23T12:32:26Z</time>
      </trkpt>
      <trkpt lat="49.88165" lon="2.25399">
        <ele>28</ele>
        <time>2023-06-23T12:32:27Z</time>
      </trkpt>
      <trkpt lat="49.88165" lon="2.25399">
        <ele>28</ele>
        <time>2023-06-23T12:32:28Z</time>
      </trkpt>
      <trkpt lat="49.88165" lon="2.25399">
        <ele>28</ele>
        <time>2023-06-23T12:32:29Z</time>
      </trkpt>
      <trkpt lat="49.88165" lon="2.25399">
        <ele>28</ele>
        <time>2023-06-23T12:32:30Z</time>
      </trkpt>
      <trkpt lat="49.88165" lon="2.25399">
        <ele>28</ele>
        <time>2023-06-23T12:32:31Z</time>
      </trkpt>
      <trkpt lat="49.88165" lon="2.25399">
        <ele>28</ele>
        <time>2023-06-23T12:32:32Z</time>
      </trkpt>
      <trkpt lat="49.88165" lon="2.25399">
        <ele>28</ele>
        <time>2023-06-23T12:32:33Z</time>
      </trkpt>
      <trkpt lat="49.88165" lon="2.25399">
        <ele>28</ele>
        <time>2023-06-23T12:32:34Z</time>
      </trkpt>
      <trkpt lat="49.88165" lon="2.25399">
        <ele>28</ele>
        <time>2023-06-23T12:32:35Z</time>
      </trkpt>
      <trkpt lat="49.88165" lon="2.25399">
        <ele>28</ele>
        <time>2023-06-23T12:32:36Z</time>
      </trkpt>
      <trkpt lat="49.88164" lon="2.25401">
        <ele>28</ele>
        <time>2023-06-23T12:32:37Z</time>
      </trkpt>
      <trkpt lat="49.88163" lon="2.25401">
        <ele>28</ele>
        <time>2023-06-23T12:32:38Z</time>
      </trkpt>
      <trkpt lat="49.88163" lon="2.25401">
        <ele>28</ele>
        <time>2023-06-23T12:32:39Z</time>
      </trkpt>
      <trkpt lat="49.88164" lon="2.25402">
        <ele>28</ele>
        <time>2023-06-23T12:32:40Z</time>
      </trkpt>
      <trkpt lat="49.88164" lon="2.25402">
        <ele>28</ele>
        <time>2023-06-23T12:32:41Z</time>
      </trkpt>
      <trkpt lat="49.88164" lon="2.25402">
        <ele>28</ele>
        <time>2023-06-23T12:32:42Z</time>
      </trkpt>
      <trkpt lat="49.88164" lon="2.25403">
        <ele>28</ele>
        <time>2023-06-23T12:32:43Z</time>
      </trkpt>
      <trkpt lat="49.88164" lon="2.25403">
        <ele>28</ele>
        <time>2023-06-23T12:32:44Z</time>
      </trkpt>
      <trkpt lat="49.88164" lon="2.25403">
        <ele>28</ele>
        <time>2023-06-23T12:32:45Z</time>
      </trkpt>
      <trkpt lat="49.88164" lon="2.25403">
        <ele>28</ele>
        <time>2023-06-23T12:32:46Z</time>
      </trkpt>
      <trkpt lat="49.88164" lon="2.25403">
        <ele>28</ele>
        <time>2023-06-23T12:32:47Z</time>
      </trkpt>
      <trkpt lat="49.88164" lon="2.25402">
        <ele>28</ele>
        <time>2023-06-23T12:32:48Z</time>
      </trkpt>
      <trkpt lat="49.88164" lon="2.25402">
        <ele>28</ele>
        <time>2023-06-23T12:32:49Z</time>
      </trkpt>
      <trkpt lat="49.88164" lon="2.25402">
        <ele>28</ele>
        <time>2023-06-23T12:32:50Z</time>
      </trkpt>
      <trkpt lat="49.88164" lon="2.25402">
        <ele>28</ele>
        <time>2023-06-23T12:32:51Z</time>
      </trkpt>
      <trkpt lat="49.88164" lon="2.25402">
        <ele>28</ele>
        <time>2023-06-23T12:32:52Z</time>
      </trkpt>
      <trkpt lat="49.88164" lon="2.25402">
        <ele>28</ele>
        <time>2023-06-23T12:32:53Z</time>
      </trkpt>
      <trkpt lat="49.88164" lon="2.25402">
        <ele>28</ele>
        <time>2023-06-23T12:32:54Z</time>
      </trkpt>
      <trkpt lat="49.88164" lon="2.25402">
        <ele>28</ele>
        <time>2023-06-23T12:32:55Z</time>
      </trkpt>
      <trkpt lat="49.88164" lon="2.25402">
        <ele>28</ele>
        <time>2023-06-23T12:32:56Z</time>
      </trkpt>
      <trkpt lat="49.88164" lon="2.25402">
        <ele>28</ele>
        <time>2023-06-23T12:32:57Z</time>
      </trkpt>
      <trkpt lat="49.88164" lon="2.25402">
        <ele>28</ele>
        <time>2023-06-23T12:32:58Z</time>
      </trkpt>
      <trkpt lat="49.88164" lon="2.25402">
        <ele>28</ele>
        <time>2023-06-23T12:32:59Z</time>
      </trkpt>
      <trkpt lat="49.88164" lon="2.25402">
        <ele>28</ele>
        <time>2023-06-23T12:33:00Z</time>
      </trkpt>
      <trkpt lat="49.88164" lon="2.25402">
        <ele>28</ele>
        <time>2023-06-23T12:33:01Z</time>
      </trkpt>
      <trkpt lat="49.88164" lon="2.25402">
        <ele>28</ele>
        <time>2023-06-23T12:33:02Z</time>
      </trkpt>
      <trkpt lat="49.88164" lon="2.25402">
        <ele>28</ele>
        <time>2023-06-23T12:33:03Z</time>
      </trkpt>
      <trkpt lat="49.88164" lon="2.25402">
        <ele>28</ele>
        <time>2023-06-23T12:33:04Z</time>
      </trkpt>
      <trkpt lat="49.88164" lon="2.25402">
        <ele>28</ele>
        <time>2023-06-23T12:33:05Z</time>
      </trkpt>
      <trkpt lat="49.88164" lon="2.25402">
        <ele>28</ele>
        <time>2023-06-23T12:33:06Z</time>
      </trkpt>
      <trkpt lat="49.88164" lon="2.25402">
        <ele>28</ele>
        <time>2023-06-23T12:33:07Z</time>
      </trkpt>
      <trkpt lat="49.88164" lon="2.25402">
        <ele>28</ele>
        <time>2023-06-23T12:33:08Z</time>
      </trkpt>
      <trkpt lat="49.88164" lon="2.25402">
        <ele>28</ele>
        <time>2023-06-23T12:33:09Z</time>
      </trkpt>
      <trkpt lat="49.88164" lon="2.25402">
        <ele>28</ele>
        <time>2023-06-23T12:33:10Z</time>
      </trkpt>
      <trkpt lat="49.88164" lon="2.25402">
        <ele>28</ele>
        <time>2023-06-23T12:33:11Z</time>
      </trkpt>
      <trkpt lat="49.88164" lon="2.25402">
        <ele>28</ele>
        <time>2023-06-23T12:33:12Z</time>
      </trkpt>
      <trkpt lat="49.88164" lon="2.25402">
        <ele>28</ele>
        <time>2023-06-23T12:33:13Z</time>
      </trkpt>
      <trkpt lat="49.88164" lon="2.25402">
        <ele>28</ele>
        <time>2023-06-23T12:33:14Z</time>
      </trkpt>
      <trkpt lat="49.88164" lon="2.25402">
        <ele>28</ele>
        <time>2023-06-23T12:33:15Z</time>
      </trkpt>
      <trkpt lat="49.88164" lon="2.25402">
        <ele>28</ele>
        <time>2023-06-23T12:33:16Z</time>
      </trkpt>
      <trkpt lat="49.88164" lon="2.25402">
        <ele>28</ele>
        <time>2023-06-23T12:33:17Z</time>
      </trkpt>
      <trkpt lat="49.88164" lon="2.25402">
        <ele>28</ele>
        <time>2023-06-23T12:33:18Z</time>
      </trkpt>
      <trkpt lat="49.88164" lon="2.25402">
        <ele>28</ele>
        <time>2023-06-23T12:33:19Z</time>
      </trkpt>
      <trkpt lat="49.88164" lon="2.25402">
        <ele>28</ele>
        <time>2023-06-23T12:33:20Z</time>
      </trkpt>
      <trkpt lat="49.88164" lon="2.254">
        <ele>28</ele>
        <time>2023-06-23T12:33:21Z</time>
      </trkpt>
      <trkpt lat="49.88164" lon="2.25399">
        <ele>28</ele>
        <time>2023-06-23T12:33:22Z</time>
      </trkpt>
      <trkpt lat="49.88165" lon="2.25399">
        <ele>28</ele>
        <time>2023-06-23T12:33:24Z</time>
      </trkpt>
      <trkpt lat="49.88165" lon="2.25399">
        <ele>28</ele>
        <time>2023-06-23T12:33:25Z</time>
      </trkpt>
      <trkpt lat="49.88167" lon="2.25398">
        <ele>28</ele>
        <time>2023-06-23T12:33:26Z</time>
      </trkpt>
      <trkpt lat="49.88168" lon="2.25397">
        <ele>28</ele>
        <time>2023-06-23T12:33:27Z</time>
      </trkpt>
      <trkpt lat="49.88169" lon="2.25396">
        <ele>28</ele>
        <time>2023-06-23T12:33:28Z</time>
      </trkpt>
      <trkpt lat="49.88169" lon="2.25393">
        <ele>28</ele>
        <time>2023-06-23T12:33:29Z</time>
      </trkpt>
      <trkpt lat="49.88168" lon="2.25388">
        <ele>28</ele>
        <time>2023-06-23T12:33:31Z</time>
      </trkpt>
      <trkpt lat="49.88168" lon="2.25385">
        <ele>28</ele>
        <time>2023-06-23T12:33:32Z</time>
      </trkpt>
      <trkpt lat="49.88169" lon="2.25383">
        <ele>27.9</ele>
        <time>2023-06-23T12:33:33Z</time>
      </trkpt>
      <trkpt lat="49.88169" lon="2.25379">
        <ele>27.9</ele>
        <time>2023-06-23T12:33:34Z</time>
      </trkpt>
      <trkpt lat="49.88169" lon="2.25378">
        <ele>27.9</ele>
        <time>2023-06-23T12:33:35Z</time>
      </trkpt>
      <trkpt lat="49.88169" lon="2.25377">
        <ele>27.9</ele>
        <time>2023-06-23T12:33:36Z</time>
      </trkpt>
      <trkpt lat="49.88169" lon="2.25375">
        <ele>27.9</ele>
        <time>2023-06-23T12:33:37Z</time>
      </trkpt>
      <trkpt lat="49.8817" lon="2.25373">
        <ele>27.9</ele>
        <time>2023-06-23T12:33:38Z</time>
      </trkpt>
      <trkpt lat="49.8817" lon="2.2537">
        <ele>27.9</ele>
        <time>2023-06-23T12:33:40Z</time>
      </trkpt>
      <trkpt lat="49.88171" lon="2.25368">
        <ele>27.8</ele>
        <time>2023-06-23T12:33:41Z</time>
      </trkpt>
      <trkpt lat="49.88171" lon="2.25366">
        <ele>27.8</ele>
        <time>2023-06-23T12:33:42Z</time>
      </trkpt>
      <trkpt lat="49.88171" lon="2.25365">
        <ele>27.8</ele>
        <time>2023-06-23T12:33:43Z</time>
      </trkpt>
      <trkpt lat="49.88171" lon="2.25363">
        <ele>27.8</ele>
        <time>2023-06-23T12:33:44Z</time>
      </trkpt>
      <trkpt lat="49.88171" lon="2.25361">
        <ele>27.8</ele>
        <time>2023-06-23T12:33:45Z</time>
      </trkpt>
      <trkpt lat="49.88172" lon="2.25359">
        <ele>27.8</ele>
        <time>2023-06-23T12:33:46Z</time>
      </trkpt>
      <trkpt lat="49.88172" lon="2.25356">
        <ele>27.7</ele>
        <time>2023-06-23T12:33:48Z</time>
      </trkpt>
      <trkpt lat="49.88172" lon="2.25354">
        <ele>27.7</ele>
        <time>2023-06-23T12:33:49Z</time>
      </trkpt>
      <trkpt lat="49.88173" lon="2.25351">
        <ele>27.7</ele>
        <time>2023-06-23T12:33:50Z</time>
      </trkpt>
      <trkpt lat="49.88173" lon="2.2535">
        <ele>27.7</ele>
        <time>2023-06-23T12:33:51Z</time>
      </trkpt>
      <trkpt lat="49.88173" lon="2.25348">
        <ele>27.7</ele>
        <time>2023-06-23T12:33:52Z</time>
      </trkpt>
      <trkpt lat="49.88172" lon="2.25345">
        <ele>27.7</ele>
        <time>2023-06-23T12:33:53Z</time>
      </trkpt>
      <trkpt lat="49.88172" lon="2.25344">
        <ele>27.7</ele>
        <time>2023-06-23T12:33:54Z</time>
      </trkpt>
      <trkpt lat="49.88172" lon="2.25342">
        <ele>27.6</ele>
        <time>2023-06-23T12:33:55Z</time>
      </trkpt>
      <trkpt lat="49.88172" lon="2.25341">
        <ele>27.6</ele>
        <time>2023-06-23T12:33:57Z</time>
      </trkpt>
      <trkpt lat="49.88172" lon="2.25339">
        <ele>27.6</ele>
        <time>2023-06-23T12:33:58Z</time>
      </trkpt>
      <trkpt lat="49.88172" lon="2.25337">
        <ele>27.6</ele>
        <time>2023-06-23T12:33:59Z</time>
      </trkpt>
      <trkpt lat="49.88172" lon="2.25335">
        <ele>27.6</ele>
        <time>2023-06-23T12:34:00Z</time>
      </trkpt>
      <trkpt lat="49.88173" lon="2.25334">
        <ele>27.6</ele>
        <time>2023-06-23T12:34:01Z</time>
      </trkpt>
      <trkpt lat="49.88173" lon="2.25332">
        <ele>27.6</ele>
        <time>2023-06-23T12:34:02Z</time>
      </trkpt>
      <trkpt lat="49.88173" lon="2.25331">
        <ele>27.6</ele>
        <time>2023-06-23T12:34:03Z</time>
      </trkpt>
      <trkpt lat="49.88174" lon="2.25329">
        <ele>27.5</ele>
        <time>2023-06-23T12:34:04Z</time>
      </trkpt>
      <trkpt lat="49.88174" lon="2.25327">
        <ele>27.5</ele>
        <time>2023-06-23T12:34:05Z</time>
      </trkpt>
      <trkpt lat="49.88175" lon="2.25324">
        <ele>27.5</ele>
        <time>2023-06-23T12:34:07Z</time>
      </trkpt>
      <trkpt lat="49.88176" lon="2.25323">
        <ele>27.5</ele>
        <time>2023-06-23T12:34:08Z</time>
      </trkpt>
      <trkpt lat="49.88176" lon="2.25322">
        <ele>27.5</ele>
        <time>2023-06-23T12:34:09Z</time>
      </trkpt>
      <trkpt lat="49.88177" lon="2.2532">
        <ele>27.5</ele>
        <time>2023-06-23T12:34:10Z</time>
      </trkpt>
      <trkpt lat="49.88177" lon="2.25318">
        <ele>27.5</ele>
        <time>2023-06-23T12:34:11Z</time>
      </trkpt>
      <trkpt lat="49.88178" lon="2.25316">
        <ele>27.5</ele>
        <time>2023-06-23T12:34:13Z</time>
      </trkpt>
      <trkpt lat="49.88179" lon="2.25313">
        <ele>27.4</ele>
        <time>2023-06-23T12:34:14Z</time>
      </trkpt>
      <trkpt lat="49.88179" lon="2.25312">
        <ele>27.4</ele>
        <time>2023-06-23T12:34:15Z</time>
      </trkpt>
      <trkpt lat="49.88179" lon="2.25311">
        <ele>27.4</ele>
        <time>2023-06-23T12:34:16Z</time>
      </trkpt>
      <trkpt lat="49.8818" lon="2.25308">
        <ele>27.4</ele>
        <time>2023-06-23T12:34:17Z</time>
      </trkpt>
      <trkpt lat="49.88181" lon="2.25307">
        <ele>27.4</ele>
        <time>2023-06-23T12:34:18Z</time>
      </trkpt>
      <trkpt lat="49.88181" lon="2.25306">
        <ele>27.4</ele>
        <time>2023-06-23T12:34:19Z</time>
      </trkpt>
      <trkpt lat="49.88182" lon="2.25304">
        <ele>27.4</ele>
        <time>2023-06-23T12:34:20Z</time>
      </trkpt>
      <trkpt lat="49.88183" lon="2.25303">
        <ele>27.4</ele>
        <time>2023-06-23T12:34:21Z</time>
      </trkpt>
      <trkpt lat="49.88183" lon="2.25301">
        <ele>27.4</ele>
        <time>2023-06-23T12:34:22Z</time>
      </trkpt>
      <trkpt lat="49.88184" lon="2.253">
        <ele>27.4</ele>
        <time>2023-06-23T12:34:24Z</time>
      </trkpt>
      <trkpt lat="49.88185" lon="2.25299">
        <ele>27.3</ele>
        <time>2023-06-23T12:34:25Z</time>
      </trkpt>
      <trkpt lat="49.88185" lon="2.25297">
        <ele>27.3</ele>
        <time>2023-06-23T12:34:26Z</time>
      </trkpt>
      <trkpt lat="49.88186" lon="2.25296">
        <ele>27.3</ele>
        <time>2023-06-23T12:34:27Z</time>
      </trkpt>
      <trkpt lat="49.88187" lon="2.25294">
        <ele>27.3</ele>
        <time>2023-06-23T12:34:28Z</time>
      </trkpt>
      <trkpt lat="49.88188" lon="2.25292">
        <ele>27.3</ele>
        <time>2023-06-23T12:34:30Z</time>
      </trkpt>
      <trkpt lat="49.88189" lon="2.25291">
        <ele>27.3</ele>
        <time>2023-06-23T12:34:31Z</time>
      </trkpt>
      <trkpt lat="49.8819" lon="2.25289">
        <ele>27.3</ele>
        <time>2023-06-23T12:34:32Z</time>
      </trkpt>
      <trkpt lat="49.88191" lon="2.25287">
        <ele>27.3</ele>
        <time>2023-06-23T12:34:33Z</time>
      </trkpt>
      <trkpt lat="49.88192" lon="2.25286">
        <ele>27.3</ele>
        <time>2023-06-23T12:34:34Z</time>
      </trkpt>
      <trkpt lat="49.88193" lon="2.25285">
        <ele>27.3</ele>
        <time>2023-06-23T12:34:35Z</time>
      </trkpt>
      <trkpt lat="49.88194" lon="2.25283">
        <ele>27.3</ele>
        <time>2023-06-23T12:34:36Z</time>
      </trkpt>
      <trkpt lat="49.88195" lon="2.25282">
        <ele>27.3</ele>
        <time>2023-06-23T12:34:37Z</time>
      </trkpt>
      <trkpt lat="49.88197" lon="2.2528">
        <ele>27.3</ele>
        <time>2023-06-23T12:34:38Z</time>
      </trkpt>
      <trkpt lat="49.88198" lon="2.25279">
        <ele>27.2</ele>
        <time>2023-06-23T12:34:39Z</time>
      </trkpt>
      <trkpt lat="49.88198" lon="2.25278">
        <ele>27.2</ele>
        <time>2023-06-23T12:34:40Z</time>
      </trkpt>
      <trkpt lat="49.882" lon="2.25276">
        <ele>27.2</ele>
        <time>2023-06-23T12:34:41Z</time>
      </trkpt>
      <trkpt lat="49.88201" lon="2.25275">
        <ele>27.2</ele>
        <time>2023-06-23T12:34:43Z</time>
      </trkpt>
      <trkpt lat="49.88202" lon="2.25274">
        <ele>27.2</ele>
        <time>2023-06-23T12:34:44Z</time>
      </trkpt>
      <trkpt lat="49.88202" lon="2.25273">
        <ele>27.2</ele>
        <time>2023-06-23T12:34:45Z</time>
      </trkpt>
      <trkpt lat="49.88203" lon="2.25272">
        <ele>27.2</ele>
        <time>2023-06-23T12:34:46Z</time>
      </trkpt>
      <trkpt lat="49.88205" lon="2.25269">
        <ele>27.2</ele>
        <time>2023-06-23T12:34:47Z</time>
      </trkpt>
      <trkpt lat="49.88205" lon="2.25268">
        <ele>27.2</ele>
        <time>2023-06-23T12:34:48Z</time>
      </trkpt>
      <trkpt lat="49.88206" lon="2.25267">
        <ele>27.2</ele>
        <time>2023-06-23T12:34:49Z</time>
      </trkpt>
      <trkpt lat="49.88207" lon="2.25264">
        <ele>27.2</ele>
        <time>2023-06-23T12:34:51Z</time>
      </trkpt>
      <trkpt lat="49.88207" lon="2.25263">
        <ele>27.2</ele>
        <time>2023-06-23T12:34:52Z</time>
      </trkpt>
      <trkpt lat="49.88207" lon="2.25262">
        <ele>27.2</ele>
        <time>2023-06-23T12:34:53Z</time>
      </trkpt>
      <trkpt lat="49.88208" lon="2.25259">
        <ele>27.2</ele>
        <time>2023-06-23T12:34:54Z</time>
      </trkpt>
      <trkpt lat="49.88209" lon="2.25258">
        <ele>27.2</ele>
        <time>2023-06-23T12:34:55Z</time>
      </trkpt>
      <trkpt lat="49.88209" lon="2.25256">
        <ele>27.2</ele>
        <time>2023-06-23T12:34:56Z</time>
      </trkpt>
      <trkpt lat="49.88209" lon="2.25253">
        <ele>27.2</ele>
        <time>2023-06-23T12:34:57Z</time>
      </trkpt>
      <trkpt lat="49.8821" lon="2.25252">
        <ele>27.2</ele>
        <time>2023-06-23T12:34:58Z</time>
      </trkpt>
      <trkpt lat="49.8821" lon="2.25251">
        <ele>27.2</ele>
        <time>2023-06-23T12:34:59Z</time>
      </trkpt>
      <trkpt lat="49.8821" lon="2.25249">
        <ele>27.2</ele>
        <time>2023-06-23T12:35:00Z</time>
      </trkpt>
      <trkpt lat="49.88211" lon="2.25246">
        <ele>27.2</ele>
        <time>2023-06-23T12:35:02Z</time>
      </trkpt>
      <trkpt lat="49.88211" lon="2.25244">
        <ele>27.2</ele>
        <time>2023-06-23T12:35:03Z</time>
      </trkpt>
      <trkpt lat="49.88212" lon="2.25243">
        <ele>27.2</ele>
        <time>2023-06-23T12:35:04Z</time>
      </trkpt>
      <trkpt lat="49.88212" lon="2.25241">
        <ele>27.2</ele>
        <time>2023-06-23T12:35:05Z</time>
      </trkpt>
      <trkpt lat="49.88213" lon="2.2524">
        <ele>27.2</ele>
        <time>2023-06-23T12:35:06Z</time>
      </trkpt>
      <trkpt lat="49.88213" lon="2.25238">
        <ele>27.2</ele>
        <time>2023-06-23T12:35:07Z</time>
      </trkpt>
      <trkpt lat="49.88214" lon="2.25236">
        <ele>27.2</ele>
        <time>2023-06-23T12:35:09Z</time>
      </trkpt>
      <trkpt lat="49.88216" lon="2.25234">
        <ele>27.2</ele>
        <time>2023-06-23T12:35:10Z</time>
      </trkpt>
      <trkpt lat="49.88216" lon="2.25233">
        <ele>27.2</ele>
        <time>2023-06-23T12:35:11Z</time>
      </trkpt>
      <trkpt lat="49.88217" lon="2.25232">
        <ele>27.2</ele>
        <time>2023-06-23T12:35:12Z</time>
      </trkpt>
      <trkpt lat="49.88219" lon="2.25229">
        <ele>27.2</ele>
        <time>2023-06-23T12:35:13Z</time>
      </trkpt>
      <trkpt lat="49.8822" lon="2.25228">
        <ele>27.2</ele>
        <time>2023-06-23T12:35:15Z</time>
      </trkpt>
      <trkpt lat="49.88221" lon="2.25227">
        <ele>27.2</ele>
        <time>2023-06-23T12:35:16Z</time>
      </trkpt>
      <trkpt lat="49.88221" lon="2.25226">
        <ele>27.2</ele>
        <time>2023-06-23T12:35:17Z</time>
      </trkpt>
      <trkpt lat="49.88222" lon="2.25225">
        <ele>27.2</ele>
        <time>2023-06-23T12:35:18Z</time>
      </trkpt>
      <trkpt lat="49.88223" lon="2.25224">
        <ele>27.2</ele>
        <time>2023-06-23T12:35:19Z</time>
      </trkpt>
      <trkpt lat="49.88224" lon="2.25223">
        <ele>27.2</ele>
        <time>2023-06-23T12:35:20Z</time>
      </trkpt>
      <trkpt lat="49.88225" lon="2.25221">
        <ele>27.2</ele>
        <time>2023-06-23T12:35:21Z</time>
      </trkpt>
      <trkpt lat="49.88226" lon="2.2522">
        <ele>27.2</ele>
        <time>2023-06-23T12:35:22Z</time>
      </trkpt>
      <trkpt lat="49.88227" lon="2.25218">
        <ele>27.2</ele>
        <time>2023-06-23T12:35:24Z</time>
      </trkpt>
      <trkpt lat="49.88228" lon="2.25216">
        <ele>27.2</ele>
        <time>2023-06-23T12:35:25Z</time>
      </trkpt>
      <trkpt lat="49.8823" lon="2.25214">
        <ele>27.2</ele>
        <time>2023-06-23T12:35:26Z</time>
      </trkpt>
      <trkpt lat="49.8823" lon="2.25213">
        <ele>27.2</ele>
        <time>2023-06-23T12:35:27Z</time>
      </trkpt>
      <trkpt lat="49.88231" lon="2.25212">
        <ele>27.2</ele>
        <time>2023-06-23T12:35:28Z</time>
      </trkpt>
      <trkpt lat="49.88232" lon="2.2521">
        <ele>27.2</ele>
        <time>2023-06-23T12:35:29Z</time>
      </trkpt>
      <trkpt lat="49.88232" lon="2.25208">
        <ele>27.2</ele>
        <time>2023-06-23T12:35:30Z</time>
      </trkpt>
      <trkpt lat="49.88233" lon="2.25206">
        <ele>27.1</ele>
        <time>2023-06-23T12:35:32Z</time>
      </trkpt>
      <trkpt lat="49.88234" lon="2.25204">
        <ele>27.1</ele>
        <time>2023-06-23T12:35:33Z</time>
      </trkpt>
      <trkpt lat="49.88235" lon="2.25203">
        <ele>27.1</ele>
        <time>2023-06-23T12:35:34Z</time>
      </trkpt>
      <trkpt lat="49.88235" lon="2.25201">
        <ele>27.1</ele>
        <time>2023-06-23T12:35:36Z</time>
      </trkpt>
      <trkpt lat="49.88236" lon="2.252">
        <ele>27.1</ele>
        <time>2023-06-23T12:35:37Z</time>
      </trkpt>
      <trkpt lat="49.88237" lon="2.25197">
        <ele>27.1</ele>
        <time>2023-06-23T12:35:38Z</time>
      </trkpt>
      <trkpt lat="49.88238" lon="2.25196">
        <ele>27.1</ele>
        <time>2023-06-23T12:35:39Z</time>
      </trkpt>
      <trkpt lat="49.88238" lon="2.25195">
        <ele>27.1</ele>
        <time>2023-06-23T12:35:40Z</time>
      </trkpt>
      <trkpt lat="49.88239" lon="2.25194">
        <ele>27.1</ele>
        <time>2023-06-23T12:35:41Z</time>
      </trkpt>
      <trkpt lat="49.8824" lon="2.25192">
        <ele>27.1</ele>
        <time>2023-06-23T12:35:42Z</time>
      </trkpt>
      <trkpt lat="49.88242" lon="2.25189">
        <ele>27.1</ele>
        <time>2023-06-23T12:35:43Z</time>
      </trkpt>
      <trkpt lat="49.88242" lon="2.25187">
        <ele>27.1</ele>
        <time>2023-06-23T12:35:45Z</time>
      </trkpt>
      <trkpt lat="49.88243" lon="2.25186">
        <ele>27.1</ele>
        <time>2023-06-23T12:35:46Z</time>
      </trkpt>
      <trkpt lat="49.88243" lon="2.25185">
        <ele>27.1</ele>
        <time>2023-06-23T12:35:47Z</time>
      </trkpt>
      <trkpt lat="49.88244" lon="2.25183">
        <ele>27.1</ele>
        <time>2023-06-23T12:35:48Z</time>
      </trkpt>
      <trkpt lat="49.88244" lon="2.25182">
        <ele>27.1</ele>
        <time>2023-06-23T12:35:49Z</time>
      </trkpt>
      <trkpt lat="49.88245" lon="2.2518">
        <ele>27.1</ele>
        <time>2023-06-23T12:35:50Z</time>
      </trkpt>
      <trkpt lat="49.88245" lon="2.25178">
        <ele>27.1</ele>
        <time>2023-06-23T12:35:51Z</time>
      </trkpt>
      <trkpt lat="49.88246" lon="2.25177">
        <ele>27.1</ele>
        <time>2023-06-23T12:35:52Z</time>
      </trkpt>
      <trkpt lat="49.88246" lon="2.25175">
        <ele>27.1</ele>
        <time>2023-06-23T12:35:53Z</time>
      </trkpt>
      <trkpt lat="49.88247" lon="2.25174">
        <ele>27.1</ele>
        <time>2023-06-23T12:35:54Z</time>
      </trkpt>
      <trkpt lat="49.88247" lon="2.25172">
        <ele>27.1</ele>
        <time>2023-06-23T12:35:55Z</time>
      </trkpt>
      <trkpt lat="49.88248" lon="2.2517">
        <ele>27.1</ele>
        <time>2023-06-23T12:35:56Z</time>
      </trkpt>
      <trkpt lat="49.88248" lon="2.25169">
        <ele>27.1</ele>
        <time>2023-06-23T12:35:57Z</time>
      </trkpt>
      <trkpt lat="49.88249" lon="2.25167">
        <ele>27.1</ele>
        <time>2023-06-23T12:35:59Z</time>
      </trkpt>
      <trkpt lat="49.88249" lon="2.25165">
        <ele>27.1</ele>
        <time>2023-06-23T12:36:00Z</time>
      </trkpt>
      <trkpt lat="49.8825" lon="2.25164">
        <ele>27.1</ele>
        <time>2023-06-23T12:36:01Z</time>
      </trkpt>
      <trkpt lat="49.8825" lon="2.25161">
        <ele>27.1</ele>
        <time>2023-06-23T12:36:02Z</time>
      </trkpt>
      <trkpt lat="49.88251" lon="2.2516">
        <ele>27.1</ele>
        <time>2023-06-23T12:36:03Z</time>
      </trkpt>
      <trkpt lat="49.88252" lon="2.25158">
        <ele>27.1</ele>
        <time>2023-06-23T12:36:05Z</time>
      </trkpt>
      <trkpt lat="49.88252" lon="2.25157">
        <ele>27.1</ele>
        <time>2023-06-23T12:36:06Z</time>
      </trkpt>
      <trkpt lat="49.88253" lon="2.25155">
        <ele>27.1</ele>
        <time>2023-06-23T12:36:07Z</time>
      </trkpt>
      <trkpt lat="49.88253" lon="2.25154">
        <ele>27.1</ele>
        <time>2023-06-23T12:36:08Z</time>
      </trkpt>
      <trkpt lat="49.88254" lon="2.25151">
        <ele>27.1</ele>
        <time>2023-06-23T12:36:09Z</time>
      </trkpt>
      <trkpt lat="49.88255" lon="2.2515">
        <ele>27.1</ele>
        <time>2023-06-23T12:36:10Z</time>
      </trkpt>
      <trkpt lat="49.88255" lon="2.25149">
        <ele>27.1</ele>
        <time>2023-06-23T12:36:11Z</time>
      </trkpt>
      <trkpt lat="49.88256" lon="2.25147">
        <ele>27.1</ele>
        <time>2023-06-23T12:36:12Z</time>
      </trkpt>
      <trkpt lat="49.88257" lon="2.25145">
        <ele>27.1</ele>
        <time>2023-06-23T12:36:14Z</time>
      </trkpt>
      <trkpt lat="49.88258" lon="2.25144">
        <ele>27.1</ele>
        <time>2023-06-23T12:36:15Z</time>
      </trkpt>
      <trkpt lat="49.88259" lon="2.25142">
        <ele>27.1</ele>
        <time>2023-06-23T12:36:16Z</time>
      </trkpt>
      <trkpt lat="49.8826" lon="2.25141">
        <ele>27.1</ele>
        <time>2023-06-23T12:36:17Z</time>
      </trkpt>
      <trkpt lat="49.88261" lon="2.2514">
        <ele>27.1</ele>
        <time>2023-06-23T12:36:18Z</time>
      </trkpt>
      <trkpt lat="49.88261" lon="2.25139">
        <ele>27.1</ele>
        <time>2023-06-23T12:36:19Z</time>
      </trkpt>
      <trkpt lat="49.88262" lon="2.25137">
        <ele>27.1</ele>
        <time>2023-06-23T12:36:20Z</time>
      </trkpt>
      <trkpt lat="49.88263" lon="2.25135">
        <ele>27.1</ele>
        <time>2023-06-23T12:36:21Z</time>
      </trkpt>
      <trkpt lat="49.88264" lon="2.25133">
        <ele>27.1</ele>
        <time>2023-06-23T12:36:22Z</time>
      </trkpt>
      <trkpt lat="49.88264" lon="2.25131">
        <ele>27.1</ele>
        <time>2023-06-23T12:36:24Z</time>
      </trkpt>
      <trkpt lat="49.88265" lon="2.2513">
        <ele>27.1</ele>
        <time>2023-06-23T12:36:25Z</time>
      </trkpt>
      <trkpt lat="49.88265" lon="2.25128">
        <ele>27.1</ele>
        <time>2023-06-23T12:36:26Z</time>
      </trkpt>
      <trkpt lat="49.88266" lon="2.25127">
        <ele>27.1</ele>
        <time>2023-06-23T12:36:27Z</time>
      </trkpt>
      <trkpt lat="49.88267" lon="2.25125">
        <ele>27.1</ele>
        <time>2023-06-23T12:36:28Z</time>
      </trkpt>
      <trkpt lat="49.88267" lon="2.25123">
        <ele>27.1</ele>
        <time>2023-06-23T12:36:29Z</time>
      </trkpt>
      <trkpt lat="49.88268" lon="2.25122">
        <ele>27.1</ele>
        <time>2023-06-23T12:36:30Z</time>
      </trkpt>
      <trkpt lat="49.88268" lon="2.2512">
        <ele>27.1</ele>
        <time>2023-06-23T12:36:31Z</time>
      </trkpt>
      <trkpt lat="49.88269" lon="2.25118">
        <ele>27.1</ele>
        <time>2023-06-23T12:36:33Z</time>
      </trkpt>
      <trkpt lat="49.8827" lon="2.25116">
        <ele>27.1</ele>
        <time>2023-06-23T12:36:34Z</time>
      </trkpt>
      <trkpt lat="49.8827" lon="2.25114">
        <ele>27.1</ele>
        <time>2023-06-23T12:36:35Z</time>
      </trkpt>
      <trkpt lat="49.88271" lon="2.25113">
        <ele>27.1</ele>
        <time>2023-06-23T12:36:36Z</time>
      </trkpt>
      <trkpt lat="49.88272" lon="2.25111">
        <ele>27.1</ele>
        <time>2023-06-23T12:36:37Z</time>
      </trkpt>
      <trkpt lat="49.88272" lon="2.25109">
        <ele>27.1</ele>
        <time>2023-06-23T12:36:38Z</time>
      </trkpt>
      <trkpt lat="49.88274" lon="2.25107">
        <ele>27.1</ele>
        <time>2023-06-23T12:36:39Z</time>
      </trkpt>
      <trkpt lat="49.88275" lon="2.25106">
        <ele>27.1</ele>
        <time>2023-06-23T12:36:40Z</time>
      </trkpt>
      <trkpt lat="49.88276" lon="2.25105">
        <ele>27.1</ele>
        <time>2023-06-23T12:36:41Z</time>
      </trkpt>
      <trkpt lat="49.88278" lon="2.25103">
        <ele>27.1</ele>
        <time>2023-06-23T12:36:42Z</time>
      </trkpt>
      <trkpt lat="49.88279" lon="2.25102">
        <ele>27.1</ele>
        <time>2023-06-23T12:36:44Z</time>
      </trkpt>
      <trkpt lat="49.88279" lon="2.25101">
        <ele>27.1</ele>
        <time>2023-06-23T12:36:45Z</time>
      </trkpt>
      <trkpt lat="49.8828" lon="2.251">
        <ele>27.1</ele>
        <time>2023-06-23T12:36:46Z</time>
      </trkpt>
      <trkpt lat="49.88281" lon="2.25099">
        <ele>27.1</ele>
        <time>2023-06-23T12:36:47Z</time>
      </trkpt>
      <trkpt lat="49.88283" lon="2.25097">
        <ele>27.1</ele>
        <time>2023-06-23T12:36:48Z</time>
      </trkpt>
      <trkpt lat="49.88283" lon="2.25096">
        <ele>27.1</ele>
        <time>2023-06-23T12:36:49Z</time>
      </trkpt>
      <trkpt lat="49.88284" lon="2.25095">
        <ele>27.1</ele>
        <time>2023-06-23T12:36:50Z</time>
      </trkpt>
      <trkpt lat="49.88284" lon="2.25094">
        <ele>27.1</ele>
        <time>2023-06-23T12:36:51Z</time>
      </trkpt>
      <trkpt lat="49.88285" lon="2.25092">
        <ele>27.1</ele>
        <time>2023-06-23T12:36:52Z</time>
      </trkpt>
      <trkpt lat="49.88286" lon="2.25091">
        <ele>27.1</ele>
        <time>2023-06-23T12:36:53Z</time>
      </trkpt>
      <trkpt lat="49.88287" lon="2.25089">
        <ele>27.1</ele>
        <time>2023-06-23T12:36:55Z</time>
      </trkpt>
      <trkpt lat="49.88288" lon="2.25088">
        <ele>27.1</ele>
        <time>2023-06-23T12:36:56Z</time>
      </trkpt>
      <trkpt lat="49.88289" lon="2.25086">
        <ele>27.1</ele>
        <time>2023-06-23T12:36:57Z</time>
      </trkpt>
      <trkpt lat="49.8829" lon="2.25085">
        <ele>27.1</ele>
        <time>2023-06-23T12:36:58Z</time>
      </trkpt>
      <trkpt lat="49.8829" lon="2.25083">
        <ele>27.1</ele>
        <time>2023-06-23T12:36:59Z</time>
      </trkpt>
      <trkpt lat="49.8829" lon="2.25082">
        <ele>27.1</ele>
        <time>2023-06-23T12:37:00Z</time>
      </trkpt>
      <trkpt lat="49.88291" lon="2.2508">
        <ele>27.2</ele>
        <time>2023-06-23T12:37:01Z</time>
      </trkpt>
      <trkpt lat="49.88291" lon="2.25079">
        <ele>27.2</ele>
        <time>2023-06-23T12:37:03Z</time>
      </trkpt>
      <trkpt lat="49.88292" lon="2.25077">
        <ele>27.2</ele>
        <time>2023-06-23T12:37:04Z</time>
      </trkpt>
      <trkpt lat="49.88292" lon="2.25076">
        <ele>27.2</ele>
        <time>2023-06-23T12:37:05Z</time>
      </trkpt>
      <trkpt lat="49.88293" lon="2.25075">
        <ele>27.2</ele>
        <time>2023-06-23T12:37:06Z</time>
      </trkpt>
      <trkpt lat="49.88294" lon="2.25072">
        <ele>27.2</ele>
        <time>2023-06-23T12:37:07Z</time>
      </trkpt>
      <trkpt lat="49.88294" lon="2.2507">
        <ele>27.2</ele>
        <time>2023-06-23T12:37:08Z</time>
      </trkpt>
      <trkpt lat="49.88295" lon="2.25069">
        <ele>27.2</ele>
        <time>2023-06-23T12:37:09Z</time>
      </trkpt>
      <trkpt lat="49.88295" lon="2.25068">
        <ele>27.2</ele>
        <time>2023-06-23T12:37:11Z</time>
      </trkpt>
      <trkpt lat="49.88296" lon="2.25066">
        <ele>27.2</ele>
        <time>2023-06-23T12:37:12Z</time>
      </trkpt>
      <trkpt lat="49.88296" lon="2.25064">
        <ele>27.2</ele>
        <time>2023-06-23T12:37:13Z</time>
      </trkpt>
      <trkpt lat="49.88296" lon="2.25063">
        <ele>27.2</ele>
        <time>2023-06-23T12:37:14Z</time>
      </trkpt>
      <trkpt lat="49.88297" lon="2.25061">
        <ele>27.2</ele>
        <time>2023-06-23T12:37:15Z</time>
      </trkpt>
      <trkpt lat="49.88297" lon="2.25059">
        <ele>27.2</ele>
        <time>2023-06-23T12:37:16Z</time>
      </trkpt>
      <trkpt lat="49.88298" lon="2.25058">
        <ele>27.2</ele>
        <time>2023-06-23T12:37:17Z</time>
      </trkpt>
      <trkpt lat="49.88299" lon="2.25055">
        <ele>27.1</ele>
        <time>2023-06-23T12:37:19Z</time>
      </trkpt>
      <trkpt lat="49.88299" lon="2.25053">
        <ele>27.1</ele>
        <time>2023-06-23T12:37:20Z</time>
      </trkpt>
      <trkpt lat="49.883" lon="2.25051">
        <ele>27.1</ele>
        <time>2023-06-23T12:37:21Z</time>
      </trkpt>
      <trkpt lat="49.88301" lon="2.25048">
        <ele>27.1</ele>
        <time>2023-06-23T12:37:22Z</time>
      </trkpt>
      <trkpt lat="49.88301" lon="2.25046">
        <ele>27.1</ele>
        <time>2023-06-23T12:37:23Z</time>
      </trkpt>
      <trkpt lat="49.88301" lon="2.25045">
        <ele>27.1</ele>
        <time>2023-06-23T12:37:24Z</time>
      </trkpt>
      <trkpt lat="49.88303" lon="2.25042">
        <ele>27.1</ele>
        <time>2023-06-23T12:37:25Z</time>
      </trkpt>
      <trkpt lat="49.88303" lon="2.25041">
        <ele>27.1</ele>
        <time>2023-06-23T12:37:26Z</time>
      </trkpt>
      <trkpt lat="49.88304" lon="2.2504">
        <ele>27.1</ele>
        <time>2023-06-23T12:37:27Z</time>
      </trkpt>
      <trkpt lat="49.88305" lon="2.25039">
        <ele>27.1</ele>
        <time>2023-06-23T12:37:28Z</time>
      </trkpt>
      <trkpt lat="49.88305" lon="2.25036">
        <ele>27.2</ele>
        <time>2023-06-23T12:37:30Z</time>
      </trkpt>
      <trkpt lat="49.88306" lon="2.25035">
        <ele>27.2</ele>
        <time>2023-06-23T12:37:31Z</time>
      </trkpt>
      <trkpt lat="49.88306" lon="2.25033">
        <ele>27.2</ele>
        <time>2023-06-23T12:37:32Z</time>
      </trkpt>
      <trkpt lat="49.88307" lon="2.25031">
        <ele>27.2</ele>
        <time>2023-06-23T12:37:33Z</time>
      </trkpt>
      <trkpt lat="49.88308" lon="2.25029">
        <ele>27.2</ele>
        <time>2023-06-23T12:37:34Z</time>
      </trkpt>
      <trkpt lat="49.88308" lon="2.25028">
        <ele>27.2</ele>
        <time>2023-06-23T12:37:36Z</time>
      </trkpt>
      <trkpt lat="49.88309" lon="2.25027">
        <ele>27.2</ele>
        <time>2023-06-23T12:37:37Z</time>
      </trkpt>
      <trkpt lat="49.8831" lon="2.25024">
        <ele>27.2</ele>
        <time>2023-06-23T12:37:38Z</time>
      </trkpt>
      <trkpt lat="49.88311" lon="2.25024">
        <ele>27.2</ele>
        <time>2023-06-23T12:37:39Z</time>
      </trkpt>
      <trkpt lat="49.88312" lon="2.25023">
        <ele>27.2</ele>
        <time>2023-06-23T12:37:40Z</time>
      </trkpt>
      <trkpt lat="49.88313" lon="2.25021">
        <ele>27.2</ele>
        <time>2023-06-23T12:37:41Z</time>
      </trkpt>
      <trkpt lat="49.88314" lon="2.2502">
        <ele>27.2</ele>
        <time>2023-06-23T12:37:42Z</time>
      </trkpt>
      <trkpt lat="49.88314" lon="2.25019">
        <ele>27.2</ele>
        <time>2023-06-23T12:37:43Z</time>
      </trkpt>
      <trkpt lat="49.88316" lon="2.25017">
        <ele>27.2</ele>
        <time>2023-06-23T12:37:44Z</time>
      </trkpt>
      <trkpt lat="49.88317" lon="2.25016">
        <ele>27.2</ele>
        <time>2023-06-23T12:37:46Z</time>
      </trkpt>
      <trkpt lat="49.88317" lon="2.25014">
        <ele>27.2</ele>
        <time>2023-06-23T12:37:47Z</time>
      </trkpt>
      <trkpt lat="49.88318" lon="2.25013">
        <ele>27.2</ele>
        <time>2023-06-23T12:37:48Z</time>
      </trkpt>
      <trkpt lat="49.88319" lon="2.25012">
        <ele>27.2</ele>
        <time>2023-06-23T12:37:49Z</time>
      </trkpt>
      <trkpt lat="49.8832" lon="2.2501">
        <ele>27.2</ele>
        <time>2023-06-23T12:37:50Z</time>
      </trkpt>
      <trkpt lat="49.8832" lon="2.25008">
        <ele>27.2</ele>
        <time>2023-06-23T12:37:51Z</time>
      </trkpt>
      <trkpt lat="49.8832" lon="2.25007">
        <ele>27.2</ele>
        <time>2023-06-23T12:37:53Z</time>
      </trkpt>
      <trkpt lat="49.88321" lon="2.25006">
        <ele>27.2</ele>
        <time>2023-06-23T12:37:54Z</time>
      </trkpt>
      <trkpt lat="49.88321" lon="2.25004">
        <ele>27.2</ele>
        <time>2023-06-23T12:37:55Z</time>
      </trkpt>
      <trkpt lat="49.88322" lon="2.25003">
        <ele>27.2</ele>
        <time>2023-06-23T12:37:56Z</time>
      </trkpt>
      <trkpt lat="49.88322" lon="2.25001">
        <ele>27.2</ele>
        <time>2023-06-23T12:37:57Z</time>
      </trkpt>
      <trkpt lat="49.88323" lon="2.25">
        <ele>27.2</ele>
        <time>2023-06-23T12:37:58Z</time>
      </trkpt>
      <trkpt lat="49.88323" lon="2.24998">
        <ele>27.2</ele>
        <time>2023-06-23T12:37:59Z</time>
      </trkpt>
      <trkpt lat="49.88324" lon="2.24996">
        <ele>27.2</ele>
        <time>2023-06-23T12:38:01Z</time>
      </trkpt>
      <trkpt lat="49.88323" lon="2.24996">
        <ele>27.2</ele>
        <time>2023-06-23T12:38:03Z</time>
      </trkpt>
      <trkpt lat="49.88323" lon="2.24996">
        <ele>27.2</ele>
        <time>2023-06-23T12:38:04Z</time>
      </trkpt>
      <trkpt lat="49.88323" lon="2.24997">
        <ele>27.2</ele>
        <time>2023-06-23T12:38:05Z</time>
      </trkpt>
      <trkpt lat="49.88322" lon="2.24997">
        <ele>27.2</ele>
        <time>2023-06-23T12:38:07Z</time>
      </trkpt>
      <trkpt lat="49.88322" lon="2.24997">
        <ele>27.2</ele>
        <time>2023-06-23T12:38:08Z</time>
      </trkpt>
      <trkpt lat="49.88322" lon="2.24997">
        <ele>27.2</ele>
        <time>2023-06-23T12:38:10Z</time>
      </trkpt>
      <trkpt lat="49.88322" lon="2.24997">
        <ele>27.2</ele>
        <time>2023-06-23T12:38:11Z</time>
      </trkpt>
      <trkpt lat="49.88321" lon="2.24998">
        <ele>27.2</ele>
        <time>2023-06-23T12:38:13Z</time>
      </trkpt>
      <trkpt lat="49.88321" lon="2.24998">
        <ele>27.2</ele>
        <time>2023-06-23T12:38:14Z</time>
      </trkpt>
      <trkpt lat="49.88321" lon="2.24998">
        <ele>27.2</ele>
        <time>2023-06-23T12:38:15Z</time>
      </trkpt>
      <trkpt lat="49.8832" lon="2.24998">
        <ele>27.2</ele>
        <time>2023-06-23T12:38:17Z</time>
      </trkpt>
      <trkpt lat="49.8832" lon="2.24998">
        <ele>27.2</ele>
        <time>2023-06-23T12:38:18Z</time>
      </trkpt>
      <trkpt lat="49.8832" lon="2.24998">
        <ele>27.2</ele>
        <time>2023-06-23T12:38:20Z</time>
      </trkpt>
      <trkpt lat="49.88319" lon="2.24999">
        <ele>27.2</ele>
        <time>2023-06-23T12:38:21Z</time>
      </trkpt>
      <trkpt lat="49.88319" lon="2.24999">
        <ele>27.2</ele>
        <time>2023-06-23T12:38:22Z</time>
      </trkpt>
      <trkpt lat="49.88319" lon="2.24999">
        <ele>27.2</ele>
        <time>2023-06-23T12:38:24Z</time>
      </trkpt>
      <trkpt lat="49.88318" lon="2.24999">
        <ele>27.2</ele>
        <time>2023-06-23T12:38:25Z</time>
      </trkpt>
      <trkpt lat="49.88318" lon="2.24999">
        <ele>27.2</ele>
        <time>2023-06-23T12:38:26Z</time>
      </trkpt>
      <trkpt lat="49.88318" lon="2.24999">
        <ele>27.2</ele>
        <time>2023-06-23T12:38:27Z</time>
      </trkpt>
      <trkpt lat="49.88316" lon="2.25004">
        <ele>27.2</ele>
        <time>2023-06-23T12:38:28Z</time>
      </trkpt>
      <trkpt lat="49.88316" lon="2.25005">
        <ele>27.2</ele>
        <time>2023-06-23T12:38:29Z</time>
      </trkpt>
      <trkpt lat="49.88315" lon="2.2501">
        <ele>27.2</ele>
        <time>2023-06-23T12:38:31Z</time>
      </trkpt>
      <trkpt lat="49.88314" lon="2.25011">
        <ele>27.2</ele>
        <time>2023-06-23T12:38:32Z</time>
      </trkpt>
      <trkpt lat="49.88313" lon="2.25013">
        <ele>27.2</ele>
        <time>2023-06-23T12:38:33Z</time>
      </trkpt>
      <trkpt lat="49.88313" lon="2.25015">
        <ele>27.2</ele>
        <time>2023-06-23T12:38:34Z</time>
      </trkpt>
      <trkpt lat="49.88314" lon="2.25018">
        <ele>27.2</ele>
        <time>2023-06-23T12:38:35Z</time>
      </trkpt>
      <trkpt lat="49.88314" lon="2.2502">
        <ele>27.2</ele>
        <time>2023-06-23T12:38:37Z</time>
      </trkpt>
      <trkpt lat="49.88314" lon="2.25022">
        <ele>27.2</ele>
        <time>2023-06-23T12:38:38Z</time>
      </trkpt>
      <trkpt lat="49.88313" lon="2.25024">
        <ele>27.2</ele>
        <time>2023-06-23T12:38:39Z</time>
      </trkpt>
      <trkpt lat="49.88313" lon="2.25026">
        <ele>27.2</ele>
        <time>2023-06-23T12:38:40Z</time>
      </trkpt>
      <trkpt lat="49.88312" lon="2.25028">
        <ele>27.2</ele>
        <time>2023-06-23T12:38:41Z</time>
      </trkpt>
      <trkpt lat="49.88312" lon="2.25032">
        <ele>27.1</ele>
        <time>2023-06-23T12:38:42Z</time>
      </trkpt>
      <trkpt lat="49.88312" lon="2.25034">
        <ele>27.1</ele>
        <time>2023-06-23T12:38:44Z</time>
      </trkpt>
      <trkpt lat="49.88312" lon="2.25036">
        <ele>27.1</ele>
        <time>2023-06-23T12:38:45Z</time>
      </trkpt>
      <trkpt lat="49.88312" lon="2.25037">
        <ele>27.1</ele>
        <time>2023-06-23T12:38:46Z</time>
      </trkpt>
      <trkpt lat="49.88313" lon="2.25039">
        <ele>27.1</ele>
        <time>2023-06-23T12:38:47Z</time>
      </trkpt>
      <trkpt lat="49.88313" lon="2.25041">
        <ele>27.1</ele>
        <time>2023-06-23T12:38:48Z</time>
      </trkpt>
      <trkpt lat="49.88313" lon="2.25043">
        <ele>27.1</ele>
        <time>2023-06-23T12:38:50Z</time>
      </trkpt>
      <trkpt lat="49.88313" lon="2.25044">
        <ele>27.1</ele>
        <time>2023-06-23T12:38:51Z</time>
      </trkpt>
      <trkpt lat="49.88313" lon="2.25046">
        <ele>27.1</ele>
        <time>2023-06-23T12:38:52Z</time>
      </trkpt>
      <trkpt lat="49.88313" lon="2.25047">
        <ele>27.1</ele>
        <time>2023-06-23T12:38:53Z</time>
      </trkpt>
      <trkpt lat="49.88312" lon="2.25049">
        <ele>27.1</ele>
        <time>2023-06-23T12:38:54Z</time>
      </trkpt>
      <trkpt lat="49.88312" lon="2.2505">
        <ele>27.1</ele>
        <time>2023-06-23T12:38:55Z</time>
      </trkpt>
      <trkpt lat="49.88311" lon="2.25052">
        <ele>27.1</ele>
        <time>2023-06-23T12:38:56Z</time>
      </trkpt>
      <trkpt lat="49.88311" lon="2.25053">
        <ele>27.1</ele>
        <time>2023-06-23T12:38:57Z</time>
      </trkpt>
      <trkpt lat="49.8831" lon="2.25055">
        <ele>27.1</ele>
        <time>2023-06-23T12:38:59Z</time>
      </trkpt>
      <trkpt lat="49.8831" lon="2.25056">
        <ele>27.1</ele>
        <time>2023-06-23T12:39:00Z</time>
      </trkpt>
      <trkpt lat="49.88309" lon="2.25058">
        <ele>27.2</ele>
        <time>2023-06-23T12:39:01Z</time>
      </trkpt>
      <trkpt lat="49.88309" lon="2.25059">
        <ele>27.2</ele>
        <time>2023-06-23T12:39:02Z</time>
      </trkpt>
      <trkpt lat="49.88308" lon="2.25061">
        <ele>27.2</ele>
        <time>2023-06-23T12:39:03Z</time>
      </trkpt>
      <trkpt lat="49.88307" lon="2.25062">
        <ele>27.2</ele>
        <time>2023-06-23T12:39:04Z</time>
      </trkpt>
      <trkpt lat="49.88307" lon="2.25064">
        <ele>27.2</ele>
        <time>2023-06-23T12:39:05Z</time>
      </trkpt>
      <trkpt lat="49.88306" lon="2.25066">
        <ele>27.2</ele>
        <time>2023-06-23T12:39:06Z</time>
      </trkpt>
      <trkpt lat="49.88305" lon="2.25069">
        <ele>27.2</ele>
        <time>2023-06-23T12:39:08Z</time>
      </trkpt>
      <trkpt lat="49.88304" lon="2.25071">
        <ele>27.2</ele>
        <time>2023-06-23T12:39:09Z</time>
      </trkpt>
      <trkpt lat="49.88304" lon="2.25072">
        <ele>27.2</ele>
        <time>2023-06-23T12:39:10Z</time>
      </trkpt>
      <trkpt lat="49.88303" lon="2.25073">
        <ele>27.2</ele>
        <time>2023-06-23T12:39:11Z</time>
      </trkpt>
      <trkpt lat="49.88302" lon="2.25075">
        <ele>27.2</ele>
        <time>2023-06-23T12:39:13Z</time>
      </trkpt>
      <trkpt lat="49.88302" lon="2.25077">
        <ele>27.2</ele>
        <time>2023-06-23T12:39:14Z</time>
      </trkpt>
      <trkpt lat="49.88301" lon="2.25078">
        <ele>27.2</ele>
        <time>2023-06-23T12:39:15Z</time>
      </trkpt>
      <trkpt lat="49.883" lon="2.2508">
        <ele>27.2</ele>
        <time>2023-06-23T12:39:16Z</time>
      </trkpt>
      <trkpt lat="49.88298" lon="2.25081">
        <ele>27.1</ele>
        <time>2023-06-23T12:39:17Z</time>
      </trkpt>
      <trkpt lat="49.88297" lon="2.25082">
        <ele>27.1</ele>
        <time>2023-06-23T12:39:18Z</time>
      </trkpt>
      <trkpt lat="49.88296" lon="2.25083">
        <ele>27.1</ele>
        <time>2023-06-23T12:39:19Z</time>
      </trkpt>
      <trkpt lat="49.88295" lon="2.25085">
        <ele>27.1</ele>
        <time>2023-06-23T12:39:21Z</time>
      </trkpt>
      <trkpt lat="49.88294" lon="2.25086">
        <ele>27.1</ele>
        <time>2023-06-23T12:39:22Z</time>
      </trkpt>
      <trkpt lat="49.88294" lon="2.25087">
        <ele>27.1</ele>
        <time>2023-06-23T12:39:23Z</time>
      </trkpt>
      <trkpt lat="49.88292" lon="2.2509">
        <ele>27.1</ele>
        <time>2023-06-23T12:39:24Z</time>
      </trkpt>
      <trkpt lat="49.88292" lon="2.2509">
        <ele>27.1</ele>
        <time>2023-06-23T12:39:25Z</time>
      </trkpt>
      <trkpt lat="49.88291" lon="2.25091">
        <ele>27.1</ele>
        <time>2023-06-23T12:39:26Z</time>
      </trkpt>
      <trkpt lat="49.8829" lon="2.25094">
        <ele>27.1</ele>
        <time>2023-06-23T12:39:27Z</time>
      </trkpt>
      <trkpt lat="49.8829" lon="2.25095">
        <ele>27.1</ele>
        <time>2023-06-23T12:39:29Z</time>
      </trkpt>
      <trkpt lat="49.88289" lon="2.25096">
        <ele>27.1</ele>
        <time>2023-06-23T12:39:30Z</time>
      </trkpt>
      <trkpt lat="49.88288" lon="2.25099">
        <ele>27.1</ele>
        <time>2023-06-23T12:39:31Z</time>
      </trkpt>
      <trkpt lat="49.88288" lon="2.251">
        <ele>27.1</ele>
        <time>2023-06-23T12:39:32Z</time>
      </trkpt>
      <trkpt lat="49.88288" lon="2.25101">
        <ele>27.1</ele>
        <time>2023-06-23T12:39:33Z</time>
      </trkpt>
      <trkpt lat="49.88287" lon="2.25102">
        <ele>27.1</ele>
        <time>2023-06-23T12:39:34Z</time>
      </trkpt>
      <trkpt lat="49.88286" lon="2.25104">
        <ele>27.1</ele>
        <time>2023-06-23T12:39:35Z</time>
      </trkpt>
      <trkpt lat="49.88286" lon="2.25105">
        <ele>27.1</ele>
        <time>2023-06-23T12:39:36Z</time>
      </trkpt>
      <trkpt lat="49.88285" lon="2.25107">
        <ele>27.1</ele>
        <time>2023-06-23T12:39:37Z</time>
      </trkpt>
      <trkpt lat="49.88284" lon="2.25109">
        <ele>27.1</ele>
        <time>2023-06-23T12:39:38Z</time>
      </trkpt>
      <trkpt lat="49.88284" lon="2.2511">
        <ele>27.1</ele>
        <time>2023-06-23T12:39:40Z</time>
      </trkpt>
      <trkpt lat="49.88283" lon="2.25113">
        <ele>27.1</ele>
        <time>2023-06-23T12:39:41Z</time>
      </trkpt>
      <trkpt lat="49.88282" lon="2.25114">
        <ele>27.1</ele>
        <time>2023-06-23T12:39:42Z</time>
      </trkpt>
      <trkpt lat="49.88282" lon="2.25115">
        <ele>27.1</ele>
        <time>2023-06-23T12:39:43Z</time>
      </trkpt>
      <trkpt lat="49.88281" lon="2.25117">
        <ele>27.1</ele>
        <time>2023-06-23T12:39:44Z</time>
      </trkpt>
      <trkpt lat="49.88281" lon="2.25119">
        <ele>27.1</ele>
        <time>2023-06-23T12:39:45Z</time>
      </trkpt>
      <trkpt lat="49.88281" lon="2.2512">
        <ele>27.1</ele>
        <time>2023-06-23T12:39:46Z</time>
      </trkpt>
      <trkpt lat="49.8828" lon="2.25123">
        <ele>27.1</ele>
        <time>2023-06-23T12:39:47Z</time>
      </trkpt>
      <trkpt lat="49.88279" lon="2.25124">
        <ele>27.1</ele>
        <time>2023-06-23T12:39:49Z</time>
      </trkpt>
      <trkpt lat="49.88279" lon="2.25125">
        <ele>27.1</ele>
        <time>2023-06-23T12:39:50Z</time>
      </trkpt>
      <trkpt lat="49.88278" lon="2.25126">
        <ele>27.1</ele>
        <time>2023-06-23T12:39:51Z</time>
      </trkpt>
      <trkpt lat="49.88277" lon="2.25127">
        <ele>27.1</ele>
        <time>2023-06-23T12:39:52Z</time>
      </trkpt>
      <trkpt lat="49.88276" lon="2.25128">
        <ele>27.1</ele>
        <time>2023-06-23T12:39:54Z</time>
      </trkpt>
      <trkpt lat="49.88275" lon="2.25127">
        <ele>27.1</ele>
        <time>2023-06-23T12:39:55Z</time>
      </trkpt>
      <trkpt lat="49.88275" lon="2.25126">
        <ele>27.1</ele>
        <time>2023-06-23T12:39:57Z</time>
      </trkpt>
      <trkpt lat="49.88275" lon="2.25126">
        <ele>27.1</ele>
        <time>2023-06-23T12:39:58Z</time>
      </trkpt>
      <trkpt lat="49.88275" lon="2.25126">
        <ele>27.1</ele>
        <time>2023-06-23T12:39:59Z</time>
      </trkpt>
      <trkpt lat="49.88275" lon="2.25125">
        <ele>27.1</ele>
        <time>2023-06-23T12:40:01Z</time>
      </trkpt>
      <trkpt lat="49.88275" lon="2.25125">
        <ele>27.1</ele>
        <time>2023-06-23T12:40:02Z</time>
      </trkpt>
      <trkpt lat="49.88274" lon="2.25125">
        <ele>27.1</ele>
        <time>2023-06-23T12:40:04Z</time>
      </trkpt>
      <trkpt lat="49.88274" lon="2.25125">
        <ele>27.1</ele>
        <time>2023-06-23T12:40:05Z</time>
      </trkpt>
      <trkpt lat="49.88274" lon="2.25125">
        <ele>27.1</ele>
        <time>2023-06-23T12:40:06Z</time>
      </trkpt>
      <trkpt lat="49.88274" lon="2.25126">
        <ele>27.1</ele>
        <time>2023-06-23T12:40:08Z</time>
      </trkpt>
      <trkpt lat="49.88274" lon="2.25126">
        <ele>27.1</ele>
        <time>2023-06-23T12:40:09Z</time>
      </trkpt>
      <trkpt lat="49.88273" lon="2.25127">
        <ele>27.1</ele>
        <time>2023-06-23T12:40:10Z</time>
      </trkpt>
      <trkpt lat="49.88271" lon="2.25127">
        <ele>27.1</ele>
        <time>2023-06-23T12:40:11Z</time>
      </trkpt>
      <trkpt lat="49.8827" lon="2.25128">
        <ele>27.1</ele>
        <time>2023-06-23T12:40:12Z</time>
      </trkpt>
      <trkpt lat="49.8827" lon="2.25128">
        <ele>27.1</ele>
        <time>2023-06-23T12:40:13Z</time>
      </trkpt>
      <trkpt lat="49.88268" lon="2.2513">
        <ele>27.1</ele>
        <time>2023-06-23T12:40:14Z</time>
      </trkpt>
      <trkpt lat="49.88267" lon="2.2513">
        <ele>27.1</ele>
        <time>2023-06-23T12:40:15Z</time>
      </trkpt>
      <trkpt lat="49.88266" lon="2.25131">
        <ele>27.1</ele>
        <time>2023-06-23T12:40:16Z</time>
      </trkpt>
      <trkpt lat="49.88264" lon="2.25133">
        <ele>27.1</ele>
        <time>2023-06-23T12:40:17Z</time>
      </trkpt>
      <trkpt lat="49.88263" lon="2.25133">
        <ele>27.1</ele>
        <time>2023-06-23T12:40:19Z</time>
      </trkpt>
      <trkpt lat="49.88263" lon="2.25134">
        <ele>27.1</ele>
        <time>2023-06-23T12:40:20Z</time>
      </trkpt>
      <trkpt lat="49.88261" lon="2.25135">
        <ele>27.1</ele>
        <time>2023-06-23T12:40:21Z</time>
      </trkpt>
      <trkpt lat="49.8826" lon="2.25136">
        <ele>27.1</ele>
        <time>2023-06-23T12:40:22Z</time>
      </trkpt>
      <trkpt lat="49.88258" lon="2.25136">
        <ele>27.1</ele>
        <time>2023-06-23T12:40:23Z</time>
      </trkpt>
      <trkpt lat="49.88257" lon="2.25136">
        <ele>27.1</ele>
        <time>2023-06-23T12:40:24Z</time>
      </trkpt>
      <trkpt lat="49.88256" lon="2.25136">
        <ele>27.1</ele>
        <time>2023-06-23T12:40:25Z</time>
      </trkpt>
      <trkpt lat="49.88255" lon="2.25135">
        <ele>27.1</ele>
        <time>2023-06-23T12:40:26Z</time>
      </trkpt>
      <trkpt lat="49.88254" lon="2.25134">
        <ele>27.1</ele>
        <time>2023-06-23T12:40:28Z</time>
      </trkpt>
      <trkpt lat="49.88253" lon="2.25132">
        <ele>27.1</ele>
        <time>2023-06-23T12:40:29Z</time>
      </trkpt>
      <trkpt lat="49.88252" lon="2.25131">
        <ele>27.1</ele>
        <time>2023-06-23T12:40:30Z</time>
      </trkpt>
      <trkpt lat="49.88251" lon="2.2513">
        <ele>27.1</ele>
        <time>2023-06-23T12:40:31Z</time>
      </trkpt>
      <trkpt lat="49.8825" lon="2.25128">
        <ele>27.1</ele>
        <time>2023-06-23T12:40:32Z</time>
      </trkpt>
      <trkpt lat="49.88249" lon="2.25126">
        <ele>27.1</ele>
        <time>2023-06-23T12:40:33Z</time>
      </trkpt>
      <trkpt lat="49.88248" lon="2.25124">
        <ele>27.1</ele>
        <time>2023-06-23T12:40:35Z</time>
      </trkpt>
      <trkpt lat="49.88248" lon="2.25123">
        <ele>27.1</ele>
        <time>2023-06-23T12:40:36Z</time>
      </trkpt>
      <trkpt lat="49.88247" lon="2.25121">
        <ele>27.1</ele>
        <time>2023-06-23T12:40:37Z</time>
      </trkpt>
      <trkpt lat="49.88247" lon="2.2512">
        <ele>27.1</ele>
        <time>2023-06-23T12:40:38Z</time>
      </trkpt>
      <trkpt lat="49.88246" lon="2.25119">
        <ele>27.1</ele>
        <time>2023-06-23T12:40:39Z</time>
      </trkpt>
      <trkpt lat="49.88245" lon="2.25117">
        <ele>27.1</ele>
        <time>2023-06-23T12:40:40Z</time>
      </trkpt>
      <trkpt lat="49.88244" lon="2.25115">
        <ele>27.2</ele>
        <time>2023-06-23T12:40:41Z</time>
      </trkpt>
      <trkpt lat="49.88243" lon="2.25113">
        <ele>27.2</ele>
        <time>2023-06-23T12:40:42Z</time>
      </trkpt>
      <trkpt lat="49.88243" lon="2.25112">
        <ele>27.2</ele>
        <time>2023-06-23T12:40:43Z</time>
      </trkpt>
      <trkpt lat="49.88242" lon="2.25111">
        <ele>27.2</ele>
        <time>2023-06-23T12:40:45Z</time>
      </trkpt>
      <trkpt lat="49.88241" lon="2.25109">
        <ele>27.2</ele>
        <time>2023-06-23T12:40:46Z</time>
      </trkpt>
      <trkpt lat="49.88241" lon="2.25108">
        <ele>27.2</ele>
        <time>2023-06-23T12:40:47Z</time>
      </trkpt>
      <trkpt lat="49.8824" lon="2.25107">
        <ele>27.2</ele>
        <time>2023-06-23T12:40:48Z</time>
      </trkpt>
      <trkpt lat="49.88239" lon="2.25106">
        <ele>27.2</ele>
        <time>2023-06-23T12:40:49Z</time>
      </trkpt>
      <trkpt lat="49.88238" lon="2.25104">
        <ele>27.2</ele>
        <time>2023-06-23T12:40:51Z</time>
      </trkpt>
      <trkpt lat="49.88237" lon="2.25103">
        <ele>27.2</ele>
        <time>2023-06-23T12:40:52Z</time>
      </trkpt>
      <trkpt lat="49.88236" lon="2.25102">
        <ele>27.2</ele>
        <time>2023-06-23T12:40:53Z</time>
      </trkpt>
      <trkpt lat="49.88235" lon="2.25101">
        <ele>27.2</ele>
        <time>2023-06-23T12:40:54Z</time>
      </trkpt>
      <trkpt lat="49.88235" lon="2.251">
        <ele>27.2</ele>
        <time>2023-06-23T12:40:55Z</time>
      </trkpt>
      <trkpt lat="49.88234" lon="2.25099">
        <ele>27.2</ele>
        <time>2023-06-23T12:40:57Z</time>
      </trkpt>
      <trkpt lat="49.88233" lon="2.25097">
        <ele>27.2</ele>
        <time>2023-06-23T12:40:58Z</time>
      </trkpt>
      <trkpt lat="49.88233" lon="2.25096">
        <ele>27.2</ele>
        <time>2023-06-23T12:40:59Z</time>
      </trkpt>
      <trkpt lat="49.88233" lon="2.25094">
        <ele>27.2</ele>
        <time>2023-06-23T12:41:00Z</time>
      </trkpt>
      <trkpt lat="49.88232" lon="2.25093">
        <ele>27.2</ele>
        <time>2023-06-23T12:41:01Z</time>
      </trkpt>
      <trkpt lat="49.88232" lon="2.25091">
        <ele>27.2</ele>
        <time>2023-06-23T12:41:02Z</time>
      </trkpt>
      <trkpt lat="49.88231" lon="2.25089">
        <ele>27.1</ele>
        <time>2023-06-23T12:41:03Z</time>
      </trkpt>
      <trkpt lat="49.88231" lon="2.25088">
        <ele>27.1</ele>
        <time>2023-06-23T12:41:05Z</time>
      </trkpt>
      <trkpt lat="49.88231" lon="2.25086">
        <ele>27.1</ele>
        <time>2023-06-23T12:41:06Z</time>
      </trkpt>
      <trkpt lat="49.8823" lon="2.25085">
        <ele>27.1</ele>
        <time>2023-06-23T12:41:07Z</time>
      </trkpt>
      <trkpt lat="49.8823" lon="2.25083">
        <ele>27.1</ele>
        <time>2023-06-23T12:41:08Z</time>
      </trkpt>
      <trkpt lat="49.88229" lon="2.25081">
        <ele>27.1</ele>
        <time>2023-06-23T12:41:09Z</time>
      </trkpt>
      <trkpt lat="49.88229" lon="2.2508">
        <ele>27.1</ele>
        <time>2023-06-23T12:41:10Z</time>
      </trkpt>
      <trkpt lat="49.88228" lon="2.25079">
        <ele>27.1</ele>
        <time>2023-06-23T12:41:11Z</time>
      </trkpt>
      <trkpt lat="49.88228" lon="2.25078">
        <ele>27.1</ele>
        <time>2023-06-23T12:41:13Z</time>
      </trkpt>
      <trkpt lat="49.88227" lon="2.25076">
        <ele>27.1</ele>
        <time>2023-06-23T12:41:14Z</time>
      </trkpt>
      <trkpt lat="49.88227" lon="2.25074">
        <ele>27.1</ele>
        <time>2023-06-23T12:41:15Z</time>
      </trkpt>
      <trkpt lat="49.88225" lon="2.25071">
        <ele>27.1</ele>
        <time>2023-06-23T12:41:16Z</time>
      </trkpt>
      <trkpt lat="49.88225" lon="2.2507">
        <ele>27.1</ele>
        <time>2023-06-23T12:41:17Z</time>
      </trkpt>
      <trkpt lat="49.88224" lon="2.25069">
        <ele>27.1</ele>
        <time>2023-06-23T12:41:18Z</time>
      </trkpt>
      <trkpt lat="49.88224" lon="2.25067">
        <ele>27.1</ele>
        <time>2023-06-23T12:41:19Z</time>
      </trkpt>
      <trkpt lat="49.88223" lon="2.25066">
        <ele>27</ele>
        <time>2023-06-23T12:41:21Z</time>
      </trkpt>
      <trkpt lat="49.88223" lon="2.25065">
        <ele>27</ele>
        <time>2023-06-23T12:41:22Z</time>
      </trkpt>
      <trkpt lat="49.88222" lon="2.25063">
        <ele>27</ele>
        <time>2023-06-23T12:41:23Z</time>
      </trkpt>
      <trkpt lat="49.88222" lon="2.25062">
        <ele>27</ele>
        <time>2023-06-23T12:41:24Z</time>
      </trkpt>
      <trkpt lat="49.88221" lon="2.2506">
        <ele>27</ele>
        <time>2023-06-23T12:41:25Z</time>
      </trkpt>
      <trkpt lat="49.8822" lon="2.25058">
        <ele>27</ele>
        <time>2023-06-23T12:41:26Z</time>
      </trkpt>
      <trkpt lat="49.8822" lon="2.25057">
        <ele>27</ele>
        <time>2023-06-23T12:41:27Z</time>
      </trkpt>
      <trkpt lat="49.88219" lon="2.25056">
        <ele>27</ele>
        <time>2023-06-23T12:41:28Z</time>
      </trkpt>
      <trkpt lat="49.88218" lon="2.25053">
        <ele>27</ele>
        <time>2023-06-23T12:41:29Z</time>
      </trkpt>
      <trkpt lat="49.88218" lon="2.25052">
        <ele>27</ele>
        <time>2023-06-23T12:41:31Z</time>
      </trkpt>
      <trkpt lat="49.88217" lon="2.25051">
        <ele>27</ele>
        <time>2023-06-23T12:41:32Z</time>
      </trkpt>
      <trkpt lat="49.88216" lon="2.25048">
        <ele>27</ele>
        <time>2023-06-23T12:41:33Z</time>
      </trkpt>
      <trkpt lat="49.88216" lon="2.25047">
        <ele>27</ele>
        <time>2023-06-23T12:41:34Z</time>
      </trkpt>
      <trkpt lat="49.88215" lon="2.25046">
        <ele>27</ele>
        <time>2023-06-23T12:41:35Z</time>
      </trkpt>
      <trkpt lat="49.88215" lon="2.25044">
        <ele>27</ele>
        <time>2023-06-23T12:41:36Z</time>
      </trkpt>
      <trkpt lat="49.88214" lon="2.25042">
        <ele>27</ele>
        <time>2023-06-23T12:41:37Z</time>
      </trkpt>
      <trkpt lat="49.88214" lon="2.25041">
        <ele>27</ele>
        <time>2023-06-23T12:41:38Z</time>
      </trkpt>
      <trkpt lat="49.88213" lon="2.25039">
        <ele>27</ele>
        <time>2023-06-23T12:41:39Z</time>
      </trkpt>
      <trkpt lat="49.88213" lon="2.25037">
        <ele>26.9</ele>
        <time>2023-06-23T12:41:40Z</time>
      </trkpt>
      <trkpt lat="49.88212" lon="2.25035">
        <ele>26.9</ele>
        <time>2023-06-23T12:41:42Z</time>
      </trkpt>
      <trkpt lat="49.88212" lon="2.25033">
        <ele>26.9</ele>
        <time>2023-06-23T12:41:43Z</time>
      </trkpt>
      <trkpt lat="49.88211" lon="2.25031">
        <ele>26.9</ele>
        <time>2023-06-23T12:41:44Z</time>
      </trkpt>
      <trkpt lat="49.88211" lon="2.25029">
        <ele>26.9</ele>
        <time>2023-06-23T12:41:45Z</time>
      </trkpt>
      <trkpt lat="49.8821" lon="2.25027">
        <ele>26.9</ele>
        <time>2023-06-23T12:41:46Z</time>
      </trkpt>
      <trkpt lat="49.8821" lon="2.25026">
        <ele>26.9</ele>
        <time>2023-06-23T12:41:47Z</time>
      </trkpt>
      <trkpt lat="49.88209" lon="2.25025">
        <ele>26.9</ele>
        <time>2023-06-23T12:41:48Z</time>
      </trkpt>
      <trkpt lat="49.88208" lon="2.25023">
        <ele>26.9</ele>
        <time>2023-06-23T12:41:49Z</time>
      </trkpt>
      <trkpt lat="49.88208" lon="2.25022">
        <ele>26.9</ele>
        <time>2023-06-23T12:41:50Z</time>
      </trkpt>
      <trkpt lat="49.88207" lon="2.2502">
        <ele>26.9</ele>
        <time>2023-06-23T12:41:51Z</time>
      </trkpt>
      <trkpt lat="49.88207" lon="2.25018">
        <ele>26.9</ele>
        <time>2023-06-23T12:41:53Z</time>
      </trkpt>
      <trkpt lat="49.88207" lon="2.25016">
        <ele>26.9</ele>
        <time>2023-06-23T12:41:54Z</time>
      </trkpt>
      <trkpt lat="49.88206" lon="2.25013">
        <ele>26.9</ele>
        <time>2023-06-23T12:41:55Z</time>
      </trkpt>
      <trkpt lat="49.88205" lon="2.25012">
        <ele>26.9</ele>
        <time>2023-06-23T12:41:56Z</time>
      </trkpt>
      <trkpt lat="49.88205" lon="2.25011">
        <ele>26.9</ele>
        <time>2023-06-23T12:41:57Z</time>
      </trkpt>
      <trkpt lat="49.88205" lon="2.2501">
        <ele>26.9</ele>
        <time>2023-06-23T12:41:58Z</time>
      </trkpt>
      <trkpt lat="49.88204" lon="2.25008">
        <ele>26.9</ele>
        <time>2023-06-23T12:41:59Z</time>
      </trkpt>
      <trkpt lat="49.88204" lon="2.25006">
        <ele>26.9</ele>
        <time>2023-06-23T12:42:01Z</time>
      </trkpt>
      <trkpt lat="49.88203" lon="2.25005">
        <ele>26.9</ele>
        <time>2023-06-23T12:42:02Z</time>
      </trkpt>
      <trkpt lat="49.88203" lon="2.25003">
        <ele>26.8</ele>
        <time>2023-06-23T12:42:03Z</time>
      </trkpt>
      <trkpt lat="49.88203" lon="2.25001">
        <ele>26.8</ele>
        <time>2023-06-23T12:42:04Z</time>
      </trkpt>
      <trkpt lat="49.88202" lon="2.24998">
        <ele>26.8</ele>
        <time>2023-06-23T12:42:05Z</time>
      </trkpt>
      <trkpt lat="49.88202" lon="2.24997">
        <ele>26.8</ele>
        <time>2023-06-23T12:42:07Z</time>
      </trkpt>
      <trkpt lat="49.88202" lon="2.24996">
        <ele>26.8</ele>
        <time>2023-06-23T12:42:08Z</time>
      </trkpt>
      <trkpt lat="49.88201" lon="2.24994">
        <ele>26.8</ele>
        <time>2023-06-23T12:42:09Z</time>
      </trkpt>
      <trkpt lat="49.88201" lon="2.24992">
        <ele>26.8</ele>
        <time>2023-06-23T12:42:10Z</time>
      </trkpt>
      <trkpt lat="49.882" lon="2.24991">
        <ele>26.8</ele>
        <time>2023-06-23T12:42:11Z</time>
      </trkpt>
      <trkpt lat="49.88199" lon="2.24989">
        <ele>26.8</ele>
        <time>2023-06-23T12:42:12Z</time>
      </trkpt>
      <trkpt lat="49.88198" lon="2.24988">
        <ele>26.8</ele>
        <time>2023-06-23T12:42:13Z</time>
      </trkpt>
      <trkpt lat="49.88198" lon="2.24986">
        <ele>26.8</ele>
        <time>2023-06-23T12:42:14Z</time>
      </trkpt>
      <trkpt lat="49.88198" lon="2.24985">
        <ele>26.8</ele>
        <time>2023-06-23T12:42:15Z</time>
      </trkpt>
      <trkpt lat="49.88197" lon="2.24983">
        <ele>26.8</ele>
        <time>2023-06-23T12:42:17Z</time>
      </trkpt>
      <trkpt lat="49.88197" lon="2.24981">
        <ele>26.8</ele>
        <time>2023-06-23T12:42:18Z</time>
      </trkpt>
      <trkpt lat="49.88197" lon="2.2498">
        <ele>26.8</ele>
        <time>2023-06-23T12:42:19Z</time>
      </trkpt>
      <trkpt lat="49.88197" lon="2.24978">
        <ele>26.8</ele>
        <time>2023-06-23T12:42:20Z</time>
      </trkpt>
      <trkpt lat="49.88196" lon="2.24976">
        <ele>26.8</ele>
        <time>2023-06-23T12:42:21Z</time>
      </trkpt>
      <trkpt lat="49.88195" lon="2.24974">
        <ele>26.8</ele>
        <time>2023-06-23T12:42:22Z</time>
      </trkpt>
      <trkpt lat="49.88195" lon="2.24973">
        <ele>26.8</ele>
        <time>2023-06-23T12:42:23Z</time>
      </trkpt>
      <trkpt lat="49.88194" lon="2.24972">
        <ele>26.7</ele>
        <time>2023-06-23T12:42:24Z</time>
      </trkpt>
      <trkpt lat="49.88193" lon="2.24969">
        <ele>26.7</ele>
        <time>2023-06-23T12:42:25Z</time>
      </trkpt>
      <trkpt lat="49.88192" lon="2.24967">
        <ele>26.7</ele>
        <time>2023-06-23T12:42:27Z</time>
      </trkpt>
      <trkpt lat="49.88192" lon="2.24966">
        <ele>26.7</ele>
        <time>2023-06-23T12:42:28Z</time>
      </trkpt>
      <trkpt lat="49.88191" lon="2.24965">
        <ele>26.7</ele>
        <time>2023-06-23T12:42:29Z</time>
      </trkpt>
      <trkpt lat="49.8819" lon="2.24963">
        <ele>26.7</ele>
        <time>2023-06-23T12:42:30Z</time>
      </trkpt>
      <trkpt lat="49.88189" lon="2.24962">
        <ele>26.7</ele>
        <time>2023-06-23T12:42:32Z</time>
      </trkpt>
      <trkpt lat="49.88189" lon="2.2496">
        <ele>26.7</ele>
        <time>2023-06-23T12:42:33Z</time>
      </trkpt>
      <trkpt lat="49.88187" lon="2.24958">
        <ele>26.7</ele>
        <time>2023-06-23T12:42:34Z</time>
      </trkpt>
      <trkpt lat="49.88187" lon="2.24957">
        <ele>26.7</ele>
        <time>2023-06-23T12:42:35Z</time>
      </trkpt>
      <trkpt lat="49.88186" lon="2.24955">
        <ele>26.7</ele>
        <time>2023-06-23T12:42:36Z</time>
      </trkpt>
      <trkpt lat="49.88184" lon="2.24953">
        <ele>26.7</ele>
        <time>2023-06-23T12:42:37Z</time>
      </trkpt>
      <trkpt lat="49.88184" lon="2.24953">
        <ele>26.7</ele>
        <time>2023-06-23T12:42:38Z</time>
      </trkpt>
      <trkpt lat="49.88183" lon="2.24952">
        <ele>26.6</ele>
        <time>2023-06-23T12:42:39Z</time>
      </trkpt>
      <trkpt lat="49.88181" lon="2.2495">
        <ele>26.6</ele>
        <time>2023-06-23T12:42:40Z</time>
      </trkpt>
      <trkpt lat="49.8818" lon="2.24949">
        <ele>26.6</ele>
        <time>2023-06-23T12:42:42Z</time>
      </trkpt>
      <trkpt lat="49.88179" lon="2.24948">
        <ele>26.6</ele>
        <time>2023-06-23T12:42:43Z</time>
      </trkpt>
      <trkpt lat="49.88178" lon="2.24947">
        <ele>26.6</ele>
        <time>2023-06-23T12:42:44Z</time>
      </trkpt>
      <trkpt lat="49.88178" lon="2.24946">
        <ele>26.6</ele>
        <time>2023-06-23T12:42:45Z</time>
      </trkpt>
      <trkpt lat="49.88177" lon="2.24945">
        <ele>26.6</ele>
        <time>2023-06-23T12:42:46Z</time>
      </trkpt>
      <trkpt lat="49.88176" lon="2.24944">
        <ele>26.6</ele>
        <time>2023-06-23T12:42:47Z</time>
      </trkpt>
      <trkpt lat="49.88175" lon="2.24942">
        <ele>26.6</ele>
        <time>2023-06-23T12:42:48Z</time>
      </trkpt>
      <trkpt lat="49.88174" lon="2.2494">
        <ele>26.6</ele>
        <time>2023-06-23T12:42:50Z</time>
      </trkpt>
      <trkpt lat="49.88173" lon="2.24939">
        <ele>26.6</ele>
        <time>2023-06-23T12:42:51Z</time>
      </trkpt>
      <trkpt lat="49.88173" lon="2.24938">
        <ele>26.6</ele>
        <time>2023-06-23T12:42:52Z</time>
      </trkpt>
      <trkpt lat="49.88172" lon="2.24935">
        <ele>26.6</ele>
        <time>2023-06-23T12:42:53Z</time>
      </trkpt>
      <trkpt lat="49.88171" lon="2.24934">
        <ele>26.5</ele>
        <time>2023-06-23T12:42:54Z</time>
      </trkpt>
      <trkpt lat="49.88171" lon="2.24933">
        <ele>26.5</ele>
        <time>2023-06-23T12:42:55Z</time>
      </trkpt>
      <trkpt lat="49.8817" lon="2.24931">
        <ele>26.5</ele>
        <time>2023-06-23T12:42:56Z</time>
      </trkpt>
      <trkpt lat="49.8817" lon="2.2493">
        <ele>26.5</ele>
        <time>2023-06-23T12:42:57Z</time>
      </trkpt>
      <trkpt lat="49.88169" lon="2.24928">
        <ele>26.5</ele>
        <time>2023-06-23T12:42:58Z</time>
      </trkpt>
      <trkpt lat="49.88168" lon="2.24925">
        <ele>26.5</ele>
        <time>2023-06-23T12:43:00Z</time>
      </trkpt>
      <trkpt lat="49.88168" lon="2.24924">
        <ele>26.5</ele>
        <time>2023-06-23T12:43:01Z</time>
      </trkpt>
      <trkpt lat="49.88168" lon="2.24923">
        <ele>26.5</ele>
        <time>2023-06-23T12:43:02Z</time>
      </trkpt>
      <trkpt lat="49.88167" lon="2.24921">
        <ele>26.5</ele>
        <time>2023-06-23T12:43:03Z</time>
      </trkpt>
      <trkpt lat="49.88167" lon="2.24919">
        <ele>26.5</ele>
        <time>2023-06-23T12:43:04Z</time>
      </trkpt>
      <trkpt lat="49.88166" lon="2.24917">
        <ele>26.5</ele>
        <time>2023-06-23T12:43:05Z</time>
      </trkpt>
      <trkpt lat="49.88166" lon="2.24916">
        <ele>26.5</ele>
        <time>2023-06-23T12:43:06Z</time>
      </trkpt>
      <trkpt lat="49.88165" lon="2.24914">
        <ele>26.5</ele>
        <time>2023-06-23T12:43:07Z</time>
      </trkpt>
      <trkpt lat="49.88165" lon="2.24912">
        <ele>26.4</ele>
        <time>2023-06-23T12:43:08Z</time>
      </trkpt>
      <trkpt lat="49.88165" lon="2.2491">
        <ele>26.4</ele>
        <time>2023-06-23T12:43:09Z</time>
      </trkpt>
      <trkpt lat="49.88164" lon="2.24908">
        <ele>26.4</ele>
        <time>2023-06-23T12:43:11Z</time>
      </trkpt>
      <trkpt lat="49.88164" lon="2.24905">
        <ele>26.4</ele>
        <time>2023-06-23T12:43:12Z</time>
      </trkpt>
      <trkpt lat="49.88164" lon="2.24904">
        <ele>26.4</ele>
        <time>2023-06-23T12:43:13Z</time>
      </trkpt>
      <trkpt lat="49.88163" lon="2.24902">
        <ele>26.4</ele>
        <time>2023-06-23T12:43:14Z</time>
      </trkpt>
      <trkpt lat="49.88163" lon="2.24899">
        <ele>26.4</ele>
        <time>2023-06-23T12:43:15Z</time>
      </trkpt>
      <trkpt lat="49.88163" lon="2.24898">
        <ele>26.4</ele>
        <time>2023-06-23T12:43:16Z</time>
      </trkpt>
      <trkpt lat="49.88162" lon="2.24897">
        <ele>26.4</ele>
        <time>2023-06-23T12:43:17Z</time>
      </trkpt>
      <trkpt lat="49.88162" lon="2.24895">
        <ele>26.4</ele>
        <time>2023-06-23T12:43:19Z</time>
      </trkpt>
      <trkpt lat="49.88162" lon="2.24893">
        <ele>26.4</ele>
        <time>2023-06-23T12:43:20Z</time>
      </trkpt>
      <trkpt lat="49.88161" lon="2.2489">
        <ele>26.3</ele>
        <time>2023-06-23T12:43:21Z</time>
      </trkpt>
      <trkpt lat="49.88161" lon="2.24888">
        <ele>26.3</ele>
        <time>2023-06-23T12:43:22Z</time>
      </trkpt>
      <trkpt lat="49.88161" lon="2.24887">
        <ele>26.3</ele>
        <time>2023-06-23T12:43:23Z</time>
      </trkpt>
      <trkpt lat="49.88161" lon="2.24886">
        <ele>26.3</ele>
        <time>2023-06-23T12:43:24Z</time>
      </trkpt>
      <trkpt lat="49.8816" lon="2.24884">
        <ele>26.3</ele>
        <time>2023-06-23T12:43:25Z</time>
      </trkpt>
      <trkpt lat="49.8816" lon="2.24882">
        <ele>26.3</ele>
        <time>2023-06-23T12:43:27Z</time>
      </trkpt>
      <trkpt lat="49.8816" lon="2.24881">
        <ele>26.3</ele>
        <time>2023-06-23T12:43:28Z</time>
      </trkpt>
      <trkpt lat="49.88159" lon="2.24879">
        <ele>26.3</ele>
        <time>2023-06-23T12:43:29Z</time>
      </trkpt>
      <trkpt lat="49.88159" lon="2.24877">
        <ele>26.3</ele>
        <time>2023-06-23T12:43:30Z</time>
      </trkpt>
      <trkpt lat="49.88159" lon="2.24876">
        <ele>26.3</ele>
        <time>2023-06-23T12:43:31Z</time>
      </trkpt>
      <trkpt lat="49.88158" lon="2.24874">
        <ele>26.3</ele>
        <time>2023-06-23T12:43:32Z</time>
      </trkpt>
      <trkpt lat="49.88158" lon="2.24873">
        <ele>26.3</ele>
        <time>2023-06-23T12:43:33Z</time>
      </trkpt>
      <trkpt lat="49.88157" lon="2.24871">
        <ele>26.3</ele>
        <time>2023-06-23T12:43:35Z</time>
      </trkpt>
      <trkpt lat="49.88157" lon="2.2487">
        <ele>26.3</ele>
        <time>2023-06-23T12:43:36Z</time>
      </trkpt>
      <trkpt lat="49.88156" lon="2.24869">
        <ele>26.3</ele>
        <time>2023-06-23T12:43:37Z</time>
      </trkpt>
      <trkpt lat="49.88156" lon="2.24868">
        <ele>26.3</ele>
        <time>2023-06-23T12:43:38Z</time>
      </trkpt>
      <trkpt lat="49.88155" lon="2.24867">
        <ele>26.3</ele>
        <time>2023-06-23T12:43:39Z</time>
      </trkpt>
      <trkpt lat="49.88155" lon="2.24866">
        <ele>26.3</ele>
        <time>2023-06-23T12:43:40Z</time>
      </trkpt>
      <trkpt lat="49.88154" lon="2.24865">
        <ele>26.3</ele>
        <time>2023-06-23T12:43:41Z</time>
      </trkpt>
      <trkpt lat="49.88153" lon="2.24862">
        <ele>26.3</ele>
        <time>2023-06-23T12:43:42Z</time>
      </trkpt>
      <trkpt lat="49.88153" lon="2.24861">
        <ele>26.3</ele>
        <time>2023-06-23T12:43:43Z</time>
      </trkpt>
      <trkpt lat="49.88152" lon="2.24859">
        <ele>26.3</ele>
        <time>2023-06-23T12:43:45Z</time>
      </trkpt>
      <trkpt lat="49.88152" lon="2.24858">
        <ele>26.3</ele>
        <time>2023-06-23T12:43:46Z</time>
      </trkpt>
      <trkpt lat="49.88151" lon="2.24856">
        <ele>26.3</ele>
        <time>2023-06-23T12:43:47Z</time>
      </trkpt>
      <trkpt lat="49.8815" lon="2.24855">
        <ele>26.3</ele>
        <time>2023-06-23T12:43:49Z</time>
      </trkpt>
      <trkpt lat="49.8815" lon="2.24854">
        <ele>26.3</ele>
        <time>2023-06-23T12:43:50Z</time>
      </trkpt>
      <trkpt lat="49.88149" lon="2.24852">
        <ele>26.3</ele>
        <time>2023-06-23T12:43:51Z</time>
      </trkpt>
      <trkpt lat="49.88149" lon="2.24851">
        <ele>26.3</ele>
        <time>2023-06-23T12:43:52Z</time>
      </trkpt>
      <trkpt lat="49.88148" lon="2.24848">
        <ele>26.3</ele>
        <time>2023-06-23T12:43:53Z</time>
      </trkpt>
      <trkpt lat="49.88147" lon="2.24847">
        <ele>26.3</ele>
        <time>2023-06-23T12:43:54Z</time>
      </trkpt>
      <trkpt lat="49.88147" lon="2.24846">
        <ele>26.3</ele>
        <time>2023-06-23T12:43:55Z</time>
      </trkpt>
      <trkpt lat="49.88145" lon="2.24843">
        <ele>26.3</ele>
        <time>2023-06-23T12:43:56Z</time>
      </trkpt>
      <trkpt lat="49.88145" lon="2.24842">
        <ele>26.3</ele>
        <time>2023-06-23T12:43:57Z</time>
      </trkpt>
      <trkpt lat="49.88144" lon="2.24841">
        <ele>26.3</ele>
        <time>2023-06-23T12:43:58Z</time>
      </trkpt>
      <trkpt lat="49.88143" lon="2.24839">
        <ele>26.3</ele>
        <time>2023-06-23T12:44:00Z</time>
      </trkpt>
      <trkpt lat="49.88142" lon="2.24838">
        <ele>26.3</ele>
        <time>2023-06-23T12:44:01Z</time>
      </trkpt>
      <trkpt lat="49.88141" lon="2.24836">
        <ele>26.3</ele>
        <time>2023-06-23T12:44:02Z</time>
      </trkpt>
      <trkpt lat="49.8814" lon="2.24834">
        <ele>26.3</ele>
        <time>2023-06-23T12:44:03Z</time>
      </trkpt>
      <trkpt lat="49.8814" lon="2.24833">
        <ele>26.3</ele>
        <time>2023-06-23T12:44:04Z</time>
      </trkpt>
      <trkpt lat="49.88139" lon="2.24832">
        <ele>26.3</ele>
        <time>2023-06-23T12:44:05Z</time>
      </trkpt>
      <trkpt lat="49.88138" lon="2.2483">
        <ele>26.3</ele>
        <time>2023-06-23T12:44:06Z</time>
      </trkpt>
      <trkpt lat="49.88137" lon="2.24828">
        <ele>26.3</ele>
        <time>2023-06-23T12:44:07Z</time>
      </trkpt>
      <trkpt lat="49.88137" lon="2.24826">
        <ele>26.3</ele>
        <time>2023-06-23T12:44:09Z</time>
      </trkpt>
      <trkpt lat="49.88136" lon="2.24825">
        <ele>26.3</ele>
        <time>2023-06-23T12:44:10Z</time>
      </trkpt>
      <trkpt lat="49.88135" lon="2.24823">
        <ele>26.3</ele>
        <time>2023-06-23T12:44:11Z</time>
      </trkpt>
      <trkpt lat="49.88134" lon="2.24822">
        <ele>26.3</ele>
        <time>2023-06-23T12:44:12Z</time>
      </trkpt>
      <trkpt lat="49.88133" lon="2.2482">
        <ele>26.3</ele>
        <time>2023-06-23T12:44:13Z</time>
      </trkpt>
      <trkpt lat="49.88133" lon="2.24819">
        <ele>26.3</ele>
        <time>2023-06-23T12:44:14Z</time>
      </trkpt>
      <trkpt lat="49.88132" lon="2.24818">
        <ele>26.3</ele>
        <time>2023-06-23T12:44:15Z</time>
      </trkpt>
      <trkpt lat="49.88131" lon="2.24817">
        <ele>26.3</ele>
        <time>2023-06-23T12:44:16Z</time>
      </trkpt>
      <trkpt lat="49.8813" lon="2.24814">
        <ele>26.3</ele>
        <time>2023-06-23T12:44:17Z</time>
      </trkpt>
      <trkpt lat="49.88129" lon="2.24813">
        <ele>26.3</ele>
        <time>2023-06-23T12:44:19Z</time>
      </trkpt>
      <trkpt lat="49.88129" lon="2.24812">
        <ele>26.3</ele>
        <time>2023-06-23T12:44:20Z</time>
      </trkpt>
      <trkpt lat="49.88127" lon="2.24809">
        <ele>26.3</ele>
        <time>2023-06-23T12:44:21Z</time>
      </trkpt>
      <trkpt lat="49.88127" lon="2.24808">
        <ele>26.3</ele>
        <time>2023-06-23T12:44:22Z</time>
      </trkpt>
      <trkpt lat="49.88126" lon="2.24807">
        <ele>26.3</ele>
        <time>2023-06-23T12:44:23Z</time>
      </trkpt>
      <trkpt lat="49.88126" lon="2.24806">
        <ele>26.3</ele>
        <time>2023-06-23T12:44:24Z</time>
      </trkpt>
      <trkpt lat="49.88125" lon="2.24805">
        <ele>26.3</ele>
        <time>2023-06-23T12:44:25Z</time>
      </trkpt>
      <trkpt lat="49.88125" lon="2.24803">
        <ele>26.3</ele>
        <time>2023-06-23T12:44:26Z</time>
      </trkpt>
      <trkpt lat="49.88124" lon="2.24802">
        <ele>26.3</ele>
        <time>2023-06-23T12:44:28Z</time>
      </trkpt>
      <trkpt lat="49.88124" lon="2.248">
        <ele>26.3</ele>
        <time>2023-06-23T12:44:29Z</time>
      </trkpt>
      <trkpt lat="49.88123" lon="2.24799">
        <ele>26.3</ele>
        <time>2023-06-23T12:44:30Z</time>
      </trkpt>
      <trkpt lat="49.88122" lon="2.24796">
        <ele>26.3</ele>
        <time>2023-06-23T12:44:31Z</time>
      </trkpt>
      <trkpt lat="49.88121" lon="2.24795">
        <ele>26.3</ele>
        <time>2023-06-23T12:44:32Z</time>
      </trkpt>
      <trkpt lat="49.88121" lon="2.24794">
        <ele>26.3</ele>
        <time>2023-06-23T12:44:33Z</time>
      </trkpt>
      <trkpt lat="49.8812" lon="2.24792">
        <ele>26.4</ele>
        <time>2023-06-23T12:44:34Z</time>
      </trkpt>
      <trkpt lat="49.88119" lon="2.24791">
        <ele>26.4</ele>
        <time>2023-06-23T12:44:35Z</time>
      </trkpt>
      <trkpt lat="49.88119" lon="2.24789">
        <ele>26.4</ele>
        <time>2023-06-23T12:44:37Z</time>
      </trkpt>
      <trkpt lat="49.88118" lon="2.24788">
        <ele>26.4</ele>
        <time>2023-06-23T12:44:38Z</time>
      </trkpt>
      <trkpt lat="49.88117" lon="2.24786">
        <ele>26.4</ele>
        <time>2023-06-23T12:44:39Z</time>
      </trkpt>
      <trkpt lat="49.88117" lon="2.24785">
        <ele>26.4</ele>
        <time>2023-06-23T12:44:40Z</time>
      </trkpt>
      <trkpt lat="49.88116" lon="2.24783">
        <ele>26.4</ele>
        <time>2023-06-23T12:44:41Z</time>
      </trkpt>
      <trkpt lat="49.88115" lon="2.24781">
        <ele>26.4</ele>
        <time>2023-06-23T12:44:42Z</time>
      </trkpt>
      <trkpt lat="49.88114" lon="2.2478">
        <ele>26.4</ele>
        <time>2023-06-23T12:44:43Z</time>
      </trkpt>
      <trkpt lat="49.88113" lon="2.24778">
        <ele>26.4</ele>
        <time>2023-06-23T12:44:44Z</time>
      </trkpt>
      <trkpt lat="49.88112" lon="2.24777">
        <ele>26.4</ele>
        <time>2023-06-23T12:44:45Z</time>
      </trkpt>
      <trkpt lat="49.88111" lon="2.24776">
        <ele>26.4</ele>
        <time>2023-06-23T12:44:47Z</time>
      </trkpt>
      <trkpt lat="49.8811" lon="2.24774">
        <ele>26.4</ele>
        <time>2023-06-23T12:44:48Z</time>
      </trkpt>
      <trkpt lat="49.88109" lon="2.24773">
        <ele>26.4</ele>
        <time>2023-06-23T12:44:49Z</time>
      </trkpt>
      <trkpt lat="49.88109" lon="2.24772">
        <ele>26.4</ele>
        <time>2023-06-23T12:44:50Z</time>
      </trkpt>
      <trkpt lat="49.88108" lon="2.2477">
        <ele>26.4</ele>
        <time>2023-06-23T12:44:51Z</time>
      </trkpt>
      <trkpt lat="49.88107" lon="2.24769">
        <ele>26.4</ele>
        <time>2023-06-23T12:44:52Z</time>
      </trkpt>
      <trkpt lat="49.88107" lon="2.24768">
        <ele>26.4</ele>
        <time>2023-06-23T12:44:53Z</time>
      </trkpt>
      <trkpt lat="49.88106" lon="2.24767">
        <ele>26.4</ele>
        <time>2023-06-23T12:44:54Z</time>
      </trkpt>
      <trkpt lat="49.88105" lon="2.24765">
        <ele>26.4</ele>
        <time>2023-06-23T12:44:56Z</time>
      </trkpt>
      <trkpt lat="49.88105" lon="2.24764">
        <ele>26.4</ele>
        <time>2023-06-23T12:44:57Z</time>
      </trkpt>
      <trkpt lat="49.88104" lon="2.24762">
        <ele>26.4</ele>
        <time>2023-06-23T12:44:58Z</time>
      </trkpt>
      <trkpt lat="49.88103" lon="2.24761">
        <ele>26.4</ele>
        <time>2023-06-23T12:44:59Z</time>
      </trkpt>
      <trkpt lat="49.88103" lon="2.24759">
        <ele>26.4</ele>
        <time>2023-06-23T12:45:00Z</time>
      </trkpt>
      <trkpt lat="49.88102" lon="2.24757">
        <ele>26.4</ele>
        <time>2023-06-23T12:45:01Z</time>
      </trkpt>
      <trkpt lat="49.88102" lon="2.24756">
        <ele>26.4</ele>
        <time>2023-06-23T12:45:02Z</time>
      </trkpt>
      <trkpt lat="49.88101" lon="2.24754">
        <ele>26.4</ele>
        <time>2023-06-23T12:45:03Z</time>
      </trkpt>
      <trkpt lat="49.88101" lon="2.24753">
        <ele>26.4</ele>
        <time>2023-06-23T12:45:05Z</time>
      </trkpt>
      <trkpt lat="49.881" lon="2.24751">
        <ele>26.4</ele>
        <time>2023-06-23T12:45:06Z</time>
      </trkpt>
      <trkpt lat="49.881" lon="2.2475">
        <ele>26.4</ele>
        <time>2023-06-23T12:45:07Z</time>
      </trkpt>
      <trkpt lat="49.88099" lon="2.24749">
        <ele>26.4</ele>
        <time>2023-06-23T12:45:08Z</time>
      </trkpt>
      <trkpt lat="49.88099" lon="2.24747">
        <ele>26.4</ele>
        <time>2023-06-23T12:45:09Z</time>
      </trkpt>
      <trkpt lat="49.88098" lon="2.24746">
        <ele>26.4</ele>
        <time>2023-06-23T12:45:10Z</time>
      </trkpt>
      <trkpt lat="49.88098" lon="2.24744">
        <ele>26.4</ele>
        <time>2023-06-23T12:45:11Z</time>
      </trkpt>
      <trkpt lat="49.88097" lon="2.24742">
        <ele>26.4</ele>
        <time>2023-06-23T12:45:12Z</time>
      </trkpt>
      <trkpt lat="49.88097" lon="2.24741">
        <ele>26.4</ele>
        <time>2023-06-23T12:45:13Z</time>
      </trkpt>
      <trkpt lat="49.88096" lon="2.24738">
        <ele>26.4</ele>
        <time>2023-06-23T12:45:15Z</time>
      </trkpt>
      <trkpt lat="49.88096" lon="2.24736">
        <ele>26.4</ele>
        <time>2023-06-23T12:45:16Z</time>
      </trkpt>
      <trkpt lat="49.88096" lon="2.24735">
        <ele>26.4</ele>
        <time>2023-06-23T12:45:17Z</time>
      </trkpt>
      <trkpt lat="49.88095" lon="2.24733">
        <ele>26.4</ele>
        <time>2023-06-23T12:45:18Z</time>
      </trkpt>
      <trkpt lat="49.88095" lon="2.24731">
        <ele>26.4</ele>
        <time>2023-06-23T12:45:19Z</time>
      </trkpt>
      <trkpt lat="49.88095" lon="2.24729">
        <ele>26.4</ele>
        <time>2023-06-23T12:45:20Z</time>
      </trkpt>
      <trkpt lat="49.88094" lon="2.24727">
        <ele>26.4</ele>
        <time>2023-06-23T12:45:22Z</time>
      </trkpt>
      <trkpt lat="49.88094" lon="2.24726">
        <ele>26.4</ele>
        <time>2023-06-23T12:45:23Z</time>
      </trkpt>
      <trkpt lat="49.88094" lon="2.24724">
        <ele>26.4</ele>
        <time>2023-06-23T12:45:24Z</time>
      </trkpt>
      <trkpt lat="49.88093" lon="2.24723">
        <ele>26.4</ele>
        <time>2023-06-23T12:45:25Z</time>
      </trkpt>
      <trkpt lat="49.88093" lon="2.24721">
        <ele>26.4</ele>
        <time>2023-06-23T12:45:26Z</time>
      </trkpt>
      <trkpt lat="49.88092" lon="2.24718">
        <ele>26.4</ele>
        <time>2023-06-23T12:45:27Z</time>
      </trkpt>
      <trkpt lat="49.88091" lon="2.24717">
        <ele>26.4</ele>
        <time>2023-06-23T12:45:29Z</time>
      </trkpt>
      <trkpt lat="49.8809" lon="2.24716">
        <ele>26.4</ele>
        <time>2023-06-23T12:45:30Z</time>
      </trkpt>
      <trkpt lat="49.88089" lon="2.24715">
        <ele>26.4</ele>
        <time>2023-06-23T12:45:31Z</time>
      </trkpt>
      <trkpt lat="49.88088" lon="2.24713">
        <ele>26.4</ele>
        <time>2023-06-23T12:45:32Z</time>
      </trkpt>
      <trkpt lat="49.88087" lon="2.24712">
        <ele>26.4</ele>
        <time>2023-06-23T12:45:33Z</time>
      </trkpt>
      <trkpt lat="49.88086" lon="2.2471">
        <ele>26.4</ele>
        <time>2023-06-23T12:45:35Z</time>
      </trkpt>
      <trkpt lat="49.88086" lon="2.24708">
        <ele>26.4</ele>
        <time>2023-06-23T12:45:36Z</time>
      </trkpt>
      <trkpt lat="49.88085" lon="2.24706">
        <ele>26.4</ele>
        <time>2023-06-23T12:45:37Z</time>
      </trkpt>
      <trkpt lat="49.88084" lon="2.24705">
        <ele>26.4</ele>
        <time>2023-06-23T12:45:38Z</time>
      </trkpt>
      <trkpt lat="49.88084" lon="2.24704">
        <ele>26.4</ele>
        <time>2023-06-23T12:45:39Z</time>
      </trkpt>
      <trkpt lat="49.88084" lon="2.24703">
        <ele>26.4</ele>
        <time>2023-06-23T12:45:41Z</time>
      </trkpt>
      <trkpt lat="49.88084" lon="2.247">
        <ele>26.4</ele>
        <time>2023-06-23T12:45:42Z</time>
      </trkpt>
      <trkpt lat="49.88083" lon="2.24699">
        <ele>26.4</ele>
        <time>2023-06-23T12:45:44Z</time>
      </trkpt>
      <trkpt lat="49.88082" lon="2.24697">
        <ele>26.4</ele>
        <time>2023-06-23T12:45:45Z</time>
      </trkpt>
      <trkpt lat="49.88081" lon="2.24696">
        <ele>26.4</ele>
        <time>2023-06-23T12:45:46Z</time>
      </trkpt>
      <trkpt lat="49.88081" lon="2.24695">
        <ele>26.4</ele>
        <time>2023-06-23T12:45:47Z</time>
      </trkpt>
      <trkpt lat="49.88081" lon="2.24693">
        <ele>26.4</ele>
        <time>2023-06-23T12:45:48Z</time>
      </trkpt>
      <trkpt lat="49.8808" lon="2.24691">
        <ele>26.4</ele>
        <time>2023-06-23T12:45:49Z</time>
      </trkpt>
      <trkpt lat="49.8808" lon="2.2469">
        <ele>26.4</ele>
        <time>2023-06-23T12:45:50Z</time>
      </trkpt>
      <trkpt lat="49.88079" lon="2.24688">
        <ele>26.4</ele>
        <time>2023-06-23T12:45:52Z</time>
      </trkpt>
      <trkpt lat="49.88079" lon="2.24688">
        <ele>26.4</ele>
        <time>2023-06-23T12:45:53Z</time>
      </trkpt>
      <trkpt lat="49.88079" lon="2.24687">
        <ele>26.4</ele>
        <time>2023-06-23T12:45:54Z</time>
      </trkpt>
      <trkpt lat="49.88079" lon="2.24687">
        <ele>26.4</ele>
        <time>2023-06-23T12:45:55Z</time>
      </trkpt>
      <trkpt lat="49.88078" lon="2.24686">
        <ele>26.4</ele>
        <time>2023-06-23T12:45:56Z</time>
      </trkpt>
      <trkpt lat="49.88078" lon="2.24685">
        <ele>26.4</ele>
        <time>2023-06-23T12:45:57Z</time>
      </trkpt>
      <trkpt lat="49.88077" lon="2.24684">
        <ele>26.4</ele>
        <time>2023-06-23T12:45:58Z</time>
      </trkpt>
      <trkpt lat="49.88077" lon="2.24683">
        <ele>26.4</ele>
        <time>2023-06-23T12:46:00Z</time>
      </trkpt>
      <trkpt lat="49.88076" lon="2.24682">
        <ele>26.4</ele>
        <time>2023-06-23T12:46:01Z</time>
      </trkpt>
      <trkpt lat="49.88076" lon="2.24682">
        <ele>26.4</ele>
        <time>2023-06-23T12:46:02Z</time>
      </trkpt>
      <trkpt lat="49.88075" lon="2.24681">
        <ele>26.4</ele>
        <time>2023-06-23T12:46:03Z</time>
      </trkpt>
      <trkpt lat="49.88073" lon="2.2468">
        <ele>26.4</ele>
        <time>2023-06-23T12:46:04Z</time>
      </trkpt>
      <trkpt lat="49.88072" lon="2.24679">
        <ele>26.4</ele>
        <time>2023-06-23T12:46:05Z</time>
      </trkpt>
      <trkpt lat="49.88071" lon="2.24678">
        <ele>26.4</ele>
        <time>2023-06-23T12:46:07Z</time>
      </trkpt>
      <trkpt lat="49.88071" lon="2.24678">
        <ele>26.4</ele>
        <time>2023-06-23T12:46:08Z</time>
      </trkpt>
      <trkpt lat="49.8807" lon="2.24677">
        <ele>26.4</ele>
        <time>2023-06-23T12:46:09Z</time>
      </trkpt>
      <trkpt lat="49.88069" lon="2.24676">
        <ele>26.4</ele>
        <time>2023-06-23T12:46:10Z</time>
      </trkpt>
      <trkpt lat="49.88067" lon="2.24674">
        <ele>26.4</ele>
        <time>2023-06-23T12:46:11Z</time>
      </trkpt>
      <trkpt lat="49.88067" lon="2.24673">
        <ele>26.4</ele>
        <time>2023-06-23T12:46:12Z</time>
      </trkpt>
      <trkpt lat="49.88066" lon="2.24673">
        <ele>26.4</ele>
        <time>2023-06-23T12:46:13Z</time>
      </trkpt>
      <trkpt lat="49.88065" lon="2.24671">
        <ele>26.4</ele>
        <time>2023-06-23T12:46:15Z</time>
      </trkpt>
      <trkpt lat="49.88064" lon="2.2467">
        <ele>26.4</ele>
        <time>2023-06-23T12:46:16Z</time>
      </trkpt>
      <trkpt lat="49.88064" lon="2.24669">
        <ele>26.4</ele>
        <time>2023-06-23T12:46:17Z</time>
      </trkpt>
      <trkpt lat="49.88063" lon="2.24666">
        <ele>26.4</ele>
        <time>2023-06-23T12:46:18Z</time>
      </trkpt>
      <trkpt lat="49.88062" lon="2.24665">
        <ele>26.4</ele>
        <time>2023-06-23T12:46:19Z</time>
      </trkpt>
      <trkpt lat="49.88062" lon="2.24663">
        <ele>26.5</ele>
        <time>2023-06-23T12:46:21Z</time>
      </trkpt>
      <trkpt lat="49.88061" lon="2.24662">
        <ele>26.5</ele>
        <time>2023-06-23T12:46:22Z</time>
      </trkpt>
      <trkpt lat="49.88061" lon="2.24661">
        <ele>26.5</ele>
        <time>2023-06-23T12:46:23Z</time>
      </trkpt>
      <trkpt lat="49.8806" lon="2.24659">
        <ele>26.5</ele>
        <time>2023-06-23T12:46:24Z</time>
      </trkpt>
      <trkpt lat="49.88059" lon="2.24657">
        <ele>26.5</ele>
        <time>2023-06-23T12:46:25Z</time>
      </trkpt>
      <trkpt lat="49.88059" lon="2.24655">
        <ele>26.5</ele>
        <time>2023-06-23T12:46:26Z</time>
      </trkpt>
      <trkpt lat="49.88059" lon="2.24654">
        <ele>26.5</ele>
        <time>2023-06-23T12:46:27Z</time>
      </trkpt>
      <trkpt lat="49.88057" lon="2.24652">
        <ele>26.5</ele>
        <time>2023-06-23T12:46:28Z</time>
      </trkpt>
      <trkpt lat="49.88057" lon="2.2465">
        <ele>26.5</ele>
        <time>2023-06-23T12:46:30Z</time>
      </trkpt>
      <trkpt lat="49.88057" lon="2.24649">
        <ele>26.5</ele>
        <time>2023-06-23T12:46:31Z</time>
      </trkpt>
      <trkpt lat="49.88056" lon="2.24648">
        <ele>26.5</ele>
        <time>2023-06-23T12:46:32Z</time>
      </trkpt>
      <trkpt lat="49.88055" lon="2.24647">
        <ele>26.6</ele>
        <time>2023-06-23T12:46:33Z</time>
      </trkpt>
      <trkpt lat="49.88055" lon="2.24646">
        <ele>26.6</ele>
        <time>2023-06-23T12:46:34Z</time>
      </trkpt>
      <trkpt lat="49.88053" lon="2.24643">
        <ele>26.6</ele>
        <time>2023-06-23T12:46:35Z</time>
      </trkpt>
      <trkpt lat="49.88053" lon="2.24642">
        <ele>26.6</ele>
        <time>2023-06-23T12:46:37Z</time>
      </trkpt>
      <trkpt lat="49.88052" lon="2.24641">
        <ele>26.6</ele>
        <time>2023-06-23T12:46:38Z</time>
      </trkpt>
      <trkpt lat="49.88051" lon="2.24638">
        <ele>26.6</ele>
        <time>2023-06-23T12:46:39Z</time>
      </trkpt>
      <trkpt lat="49.88051" lon="2.24637">
        <ele>26.7</ele>
        <time>2023-06-23T12:46:40Z</time>
      </trkpt>
      <trkpt lat="49.8805" lon="2.24636">
        <ele>26.7</ele>
        <time>2023-06-23T12:46:41Z</time>
      </trkpt>
      <trkpt lat="49.88049" lon="2.24634">
        <ele>26.7</ele>
        <time>2023-06-23T12:46:42Z</time>
      </trkpt>
      <trkpt lat="49.88048" lon="2.24632">
        <ele>26.7</ele>
        <time>2023-06-23T12:46:44Z</time>
      </trkpt>
      <trkpt lat="49.88048" lon="2.24631">
        <ele>26.7</ele>
        <time>2023-06-23T12:46:45Z</time>
      </trkpt>
      <trkpt lat="49.88047" lon="2.2463">
        <ele>26.7</ele>
        <time>2023-06-23T12:46:46Z</time>
      </trkpt>
      <trkpt lat="49.88046" lon="2.24628">
        <ele>26.7</ele>
        <time>2023-06-23T12:46:47Z</time>
      </trkpt>
      <trkpt lat="49.88044" lon="2.24627">
        <ele>26.7</ele>
        <time>2023-06-23T12:46:48Z</time>
      </trkpt>
      <trkpt lat="49.88043" lon="2.24626">
        <ele>26.8</ele>
        <time>2023-06-23T12:46:49Z</time>
      </trkpt>
      <trkpt lat="49.88041" lon="2.24625">
        <ele>26.8</ele>
        <time>2023-06-23T12:46:50Z</time>
      </trkpt>
      <trkpt lat="49.8804" lon="2.24623">
        <ele>26.8</ele>
        <time>2023-06-23T12:46:51Z</time>
      </trkpt>
      <trkpt lat="49.88039" lon="2.24621">
        <ele>26.8</ele>
        <time>2023-06-23T12:46:53Z</time>
      </trkpt>
      <trkpt lat="49.88038" lon="2.24621">
        <ele>26.8</ele>
        <time>2023-06-23T12:46:54Z</time>
      </trkpt>
      <trkpt lat="49.88037" lon="2.2462">
        <ele>26.8</ele>
        <time>2023-06-23T12:46:55Z</time>
      </trkpt>
      <trkpt lat="49.88036" lon="2.24618">
        <ele>26.8</ele>
        <time>2023-06-23T12:46:56Z</time>
      </trkpt>
      <trkpt lat="49.88035" lon="2.24617">
        <ele>26.8</ele>
        <time>2023-06-23T12:46:57Z</time>
      </trkpt>
      <trkpt lat="49.88034" lon="2.24616">
        <ele>26.8</ele>
        <time>2023-06-23T12:46:58Z</time>
      </trkpt>
      <trkpt lat="49.88032" lon="2.24614">
        <ele>26.8</ele>
        <time>2023-06-23T12:46:59Z</time>
      </trkpt>
      <trkpt lat="49.88032" lon="2.24613">
        <ele>26.8</ele>
        <time>2023-06-23T12:47:01Z</time>
      </trkpt>
      <trkpt lat="49.88031" lon="2.24612">
        <ele>26.8</ele>
        <time>2023-06-23T12:47:02Z</time>
      </trkpt>
      <trkpt lat="49.8803" lon="2.24611">
        <ele>26.8</ele>
        <time>2023-06-23T12:47:03Z</time>
      </trkpt>
      <trkpt lat="49.88029" lon="2.2461">
        <ele>26.8</ele>
        <time>2023-06-23T12:47:04Z</time>
      </trkpt>
      <trkpt lat="49.88028" lon="2.24609">
        <ele>26.8</ele>
        <time>2023-06-23T12:47:05Z</time>
      </trkpt>
      <trkpt lat="49.88027" lon="2.24607">
        <ele>26.8</ele>
        <time>2023-06-23T12:47:06Z</time>
      </trkpt>
      <trkpt lat="49.88026" lon="2.24606">
        <ele>26.8</ele>
        <time>2023-06-23T12:47:08Z</time>
      </trkpt>
      <trkpt lat="49.88026" lon="2.24605">
        <ele>26.8</ele>
        <time>2023-06-23T12:47:09Z</time>
      </trkpt>
      <trkpt lat="49.88025" lon="2.24604">
        <ele>26.8</ele>
        <time>2023-06-23T12:47:10Z</time>
      </trkpt>
      <trkpt lat="49.88024" lon="2.24603">
        <ele>26.8</ele>
        <time>2023-06-23T12:47:11Z</time>
      </trkpt>
      <trkpt lat="49.88023" lon="2.24603">
        <ele>26.8</ele>
        <time>2023-06-23T12:47:12Z</time>
      </trkpt>
      <trkpt lat="49.88023" lon="2.24602">
        <ele>26.8</ele>
        <time>2023-06-23T12:47:14Z</time>
      </trkpt>
      <trkpt lat="49.88023" lon="2.24601">
        <ele>26.8</ele>
        <time>2023-06-23T12:47:15Z</time>
      </trkpt>
      <trkpt lat="49.88023" lon="2.246">
        <ele>26.8</ele>
        <time>2023-06-23T12:47:17Z</time>
      </trkpt>
      <trkpt lat="49.88023" lon="2.246">
        <ele>26.8</ele>
        <time>2023-06-23T12:47:18Z</time>
      </trkpt>
      <trkpt lat="49.88023" lon="2.246">
        <ele>26.8</ele>
        <time>2023-06-23T12:47:20Z</time>
      </trkpt>
      <trkpt lat="49.88024" lon="2.246">
        <ele>26.8</ele>
        <time>2023-06-23T12:47:21Z</time>
      </trkpt>
      <trkpt lat="49.88024" lon="2.246">
        <ele>26.8</ele>
        <time>2023-06-23T12:47:22Z</time>
      </trkpt>
      <trkpt lat="49.88024" lon="2.24601">
        <ele>26.8</ele>
        <time>2023-06-23T12:47:24Z</time>
      </trkpt>
      <trkpt lat="49.88024" lon="2.24601">
        <ele>26.8</ele>
        <time>2023-06-23T12:47:25Z</time>
      </trkpt>
      <trkpt lat="49.88024" lon="2.24601">
        <ele>26.8</ele>
        <time>2023-06-23T12:47:27Z</time>
      </trkpt>
      <trkpt lat="49.88024" lon="2.24601">
        <ele>26.8</ele>
        <time>2023-06-23T12:47:28Z</time>
      </trkpt>
      <trkpt lat="49.88024" lon="2.246">
        <ele>26.8</ele>
        <time>2023-06-23T12:47:30Z</time>
      </trkpt>
      <trkpt lat="49.88024" lon="2.246">
        <ele>26.8</ele>
        <time>2023-06-23T12:47:31Z</time>
      </trkpt>
      <trkpt lat="49.88024" lon="2.24601">
        <ele>26.8</ele>
        <time>2023-06-23T12:47:32Z</time>
      </trkpt>
      <trkpt lat="49.88024" lon="2.24601">
        <ele>26.8</ele>
        <time>2023-06-23T12:47:33Z</time>
      </trkpt>
      <trkpt lat="49.88024" lon="2.24601">
        <ele>26.8</ele>
        <time>2023-06-23T12:47:34Z</time>
      </trkpt>
      <trkpt lat="49.88024" lon="2.24601">
        <ele>26.8</ele>
        <time>2023-06-23T12:47:35Z</time>
      </trkpt>
      <trkpt lat="49.88024" lon="2.24601">
        <ele>26.8</ele>
        <time>2023-06-23T12:47:36Z</time>
      </trkpt>
      <trkpt lat="49.88024" lon="2.24601">
        <ele>26.8</ele>
        <time>2023-06-23T12:47:37Z</time>
      </trkpt>
      <trkpt lat="49.88024" lon="2.24601">
        <ele>26.8</ele>
        <time>2023-06-23T12:47:38Z</time>
      </trkpt>
      <trkpt lat="49.88024" lon="2.24601">
        <ele>26.8</ele>
        <time>2023-06-23T12:47:39Z</time>
      </trkpt>
      <trkpt lat="49.88024" lon="2.24601">
        <ele>26.8</ele>
        <time>2023-06-23T12:47:40Z</time>
      </trkpt>
      <trkpt lat="49.88024" lon="2.24601">
        <ele>26.8</ele>
        <time>2023-06-23T12:47:41Z</time>
      </trkpt>
      <trkpt lat="49.88024" lon="2.24601">
        <ele>26.8</ele>
        <time>2023-06-23T12:47:42Z</time>
      </trkpt>
      <trkpt lat="49.88024" lon="2.24601">
        <ele>26.8</ele>
        <time>2023-06-23T12:47:43Z</time>
      </trkpt>
      <trkpt lat="49.88024" lon="2.24601">
        <ele>26.8</ele>
        <time>2023-06-23T12:47:44Z</time>
      </trkpt>
      <trkpt lat="49.88024" lon="2.24601">
        <ele>26.8</ele>
        <time>2023-06-23T12:47:45Z</time>
      </trkpt>
      <trkpt lat="49.88024" lon="2.24601">
        <ele>26.8</ele>
        <time>2023-06-23T12:47:46Z</time>
      </trkpt>
      <trkpt lat="49.88024" lon="2.24601">
        <ele>26.8</ele>
        <time>2023-06-23T12:47:47Z</time>
      </trkpt>
      <trkpt lat="49.88024" lon="2.24601">
        <ele>26.8</ele>
        <time>2023-06-23T12:47:48Z</time>
      </trkpt>
      <trkpt lat="49.88024" lon="2.24601">
        <ele>26.8</ele>
        <time>2023-06-23T12:47:49Z</time>
      </trkpt>
      <trkpt lat="49.88024" lon="2.24601">
        <ele>26.8</ele>
        <time>2023-06-23T12:47:50Z</time>
      </trkpt>
      <trkpt lat="49.88024" lon="2.24601">
        <ele>26.8</ele>
        <time>2023-06-23T12:47:51Z</time>
      </trkpt>
      <trkpt lat="49.88024" lon="2.24601">
        <ele>26.8</ele>
        <time>2023-06-23T12:47:52Z</time>
      </trkpt>
      <trkpt lat="49.88024" lon="2.24601">
        <ele>26.8</ele>
        <time>2023-06-23T12:47:53Z</time>
      </trkpt>
      <trkpt lat="49.88024" lon="2.24601">
        <ele>26.8</ele>
        <time>2023-06-23T12:47:54Z</time>
      </trkpt>
      <trkpt lat="49.88024" lon="2.24601">
        <ele>26.8</ele>
        <time>2023-06-23T12:47:55Z</time>
      </trkpt>
      <trkpt lat="49.88024" lon="2.24601">
        <ele>26.8</ele>
        <time>2023-06-23T12:47:56Z</time>
      </trkpt>
      <trkpt lat="49.88024" lon="2.24601">
        <ele>26.8</ele>
        <time>2023-06-23T12:47:57Z</time>
      </trkpt>
      <trkpt lat="49.88024" lon="2.24601">
        <ele>26.8</ele>
        <time>2023-06-23T12:47:58Z</time>
      </trkpt>
      <trkpt lat="49.88024" lon="2.24601">
        <ele>26.8</ele>
        <time>2023-06-23T12:47:59Z</time>
      </trkpt>
      <trkpt lat="49.88024" lon="2.24601">
        <ele>26.8</ele>
        <time>2023-06-23T12:48:00Z</time>
      </trkpt>
      <trkpt lat="49.88024" lon="2.24599">
        <ele>26.8</ele>
        <time>2023-06-23T12:48:01Z</time>
      </trkpt>
      <trkpt lat="49.88024" lon="2.24597">
        <ele>26.8</ele>
        <time>2023-06-23T12:48:02Z</time>
      </trkpt>
      <trkpt lat="49.88024" lon="2.24596">
        <ele>26.8</ele>
        <time>2023-06-23T12:48:03Z</time>
      </trkpt>
      <trkpt lat="49.88024" lon="2.24595">
        <ele>26.8</ele>
        <time>2023-06-23T12:48:04Z</time>
      </trkpt>
      <trkpt lat="49.88023" lon="2.24594">
        <ele>26.8</ele>
        <time>2023-06-23T12:48:05Z</time>
      </trkpt>
      <trkpt lat="49.88023" lon="2.24593">
        <ele>26.8</ele>
        <time>2023-06-23T12:48:06Z</time>
      </trkpt>
      <trkpt lat="49.88023" lon="2.24592">
        <ele>26.8</ele>
        <time>2023-06-23T12:48:07Z</time>
      </trkpt>
      <trkpt lat="49.88024" lon="2.24591">
        <ele>26.8</ele>
        <time>2023-06-23T12:48:08Z</time>
      </trkpt>
      <trkpt lat="49.88024" lon="2.2459">
        <ele>26.8</ele>
        <time>2023-06-23T12:48:09Z</time>
      </trkpt>
      <trkpt lat="49.88024" lon="2.2459">
        <ele>26.8</ele>
        <time>2023-06-23T12:48:10Z</time>
      </trkpt>
      <trkpt lat="49.88024" lon="2.2459">
        <ele>26.8</ele>
        <time>2023-06-23T12:48:11Z</time>
      </trkpt>
      <trkpt lat="49.88024" lon="2.2459">
        <ele>26.8</ele>
        <time>2023-06-23T12:48:12Z</time>
      </trkpt>
      <trkpt lat="49.88024" lon="2.2459">
        <ele>26.8</ele>
        <time>2023-06-23T12:48:13Z</time>
      </trkpt>
      <trkpt lat="49.88024" lon="2.2459">
        <ele>26.8</ele>
        <time>2023-06-23T12:48:14Z</time>
      </trkpt>
      <trkpt lat="49.88024" lon="2.2459">
        <ele>26.8</ele>
        <time>2023-06-23T12:48:15Z</time>
      </trkpt>
      <trkpt lat="49.88024" lon="2.2459">
        <ele>26.8</ele>
        <time>2023-06-23T12:48:16Z</time>
      </trkpt>
      <trkpt lat="49.88024" lon="2.2459">
        <ele>26.8</ele>
        <time>2023-06-23T12:48:17Z</time>
      </trkpt>
      <trkpt lat="49.88024" lon="2.2459">
        <ele>26.8</ele>
        <time>2023-06-23T12:48:18Z</time>
      </trkpt>
      <trkpt lat="49.88024" lon="2.24591">
        <ele>26.8</ele>
        <time>2023-06-23T12:48:19Z</time>
      </trkpt>
      <trkpt lat="49.88024" lon="2.24591">
        <ele>26.8</ele>
        <time>2023-06-23T12:48:20Z</time>
      </trkpt>
      <trkpt lat="49.88024" lon="2.24591">
        <ele>26.8</ele>
        <time>2023-06-23T12:48:21Z</time>
      </trkpt>
      <trkpt lat="49.88024" lon="2.24591">
        <ele>26.8</ele>
        <time>2023-06-23T12:48:22Z</time>
      </trkpt>
      <trkpt lat="49.88024" lon="2.24591">
        <ele>26.8</ele>
        <time>2023-06-23T12:48:23Z</time>
      </trkpt>
      <trkpt lat="49.88024" lon="2.24591">
        <ele>26.8</ele>
        <time>2023-06-23T12:48:24Z</time>
      </trkpt>
      <trkpt lat="49.88024" lon="2.24591">
        <ele>26.8</ele>
        <time>2023-06-23T12:48:25Z</time>
      </trkpt>
      <trkpt lat="49.88024" lon="2.24591">
        <ele>26.8</ele>
        <time>2023-06-23T12:48:26Z</time>
      </trkpt>
      <trkpt lat="49.88024" lon="2.24591">
        <ele>26.8</ele>
        <time>2023-06-23T12:48:27Z</time>
      </trkpt>
      <trkpt lat="49.88024" lon="2.24591">
        <ele>26.8</ele>
        <time>2023-06-23T12:48:28Z</time>
      </trkpt>
      <trkpt lat="49.88024" lon="2.24591">
        <ele>26.8</ele>
        <time>2023-06-23T12:48:29Z</time>
      </trkpt>
      <trkpt lat="49.88024" lon="2.24591">
        <ele>26.8</ele>
        <time>2023-06-23T12:48:30Z</time>
      </trkpt>
      <trkpt lat="49.88024" lon="2.24591">
        <ele>26.8</ele>
        <time>2023-06-23T12:48:31Z</time>
      </trkpt>
      <trkpt lat="49.88024" lon="2.24591">
        <ele>26.8</ele>
        <time>2023-06-23T12:48:32Z</time>
      </trkpt>
      <trkpt lat="49.88024" lon="2.24591">
        <ele>26.8</ele>
        <time>2023-06-23T12:48:33Z</time>
      </trkpt>
      <trkpt lat="49.88024" lon="2.24591">
        <ele>26.8</ele>
        <time>2023-06-23T12:48:34Z</time>
      </trkpt>
      <trkpt lat="49.88024" lon="2.24591">
        <ele>26.8</ele>
        <time>2023-06-23T12:48:35Z</time>
      </trkpt>
      <trkpt lat="49.88024" lon="2.24591">
        <ele>26.8</ele>
        <time>2023-06-23T12:48:36Z</time>
      </trkpt>
      <trkpt lat="49.88024" lon="2.24591">
        <ele>26.8</ele>
        <time>2023-06-23T12:48:37Z</time>
      </trkpt>
      <trkpt lat="49.88024" lon="2.24591">
        <ele>26.8</ele>
        <time>2023-06-23T12:48:38Z</time>
      </trkpt>
      <trkpt lat="49.88024" lon="2.24591">
        <ele>26.8</ele>
        <time>2023-06-23T12:48:39Z</time>
      </trkpt>
      <trkpt lat="49.88024" lon="2.24591">
        <ele>26.8</ele>
        <time>2023-06-23T12:48:40Z</time>
      </trkpt>
      <trkpt lat="49.88024" lon="2.24591">
        <ele>26.8</ele>
        <time>2023-06-23T12:48:41Z</time>
      </trkpt>
      <trkpt lat="49.88024" lon="2.24591">
        <ele>26.8</ele>
        <time>2023-06-23T12:48:42Z</time>
      </trkpt>
      <trkpt lat="49.88024" lon="2.24591">
        <ele>26.8</ele>
        <time>2023-06-23T12:48:43Z</time>
      </trkpt>
      <trkpt lat="49.88024" lon="2.24591">
        <ele>26.8</ele>
        <time>2023-06-23T12:48:44Z</time>
      </trkpt>
      <trkpt lat="49.88024" lon="2.24591">
        <ele>26.8</ele>
        <time>2023-06-23T12:48:45Z</time>
      </trkpt>
      <trkpt lat="49.88024" lon="2.24591">
        <ele>26.8</ele>
        <time>2023-06-23T12:48:46Z</time>
      </trkpt>
      <trkpt lat="49.88024" lon="2.24591">
        <ele>26.8</ele>
        <time>2023-06-23T12:48:47Z</time>
      </trkpt>
      <trkpt lat="49.88024" lon="2.24591">
        <ele>26.8</ele>
        <time>2023-06-23T12:48:48Z</time>
      </trkpt>
      <trkpt lat="49.88024" lon="2.24591">
        <ele>26.8</ele>
        <time>2023-06-23T12:48:49Z</time>
      </trkpt>
      <trkpt lat="49.88024" lon="2.24591">
        <ele>26.8</ele>
        <time>2023-06-23T12:48:50Z</time>
      </trkpt>
      <trkpt lat="49.88024" lon="2.24591">
        <ele>26.8</ele>
        <time>2023-06-23T12:48:51Z</time>
      </trkpt>
      <trkpt lat="49.88024" lon="2.24591">
        <ele>26.8</ele>
        <time>2023-06-23T12:48:52Z</time>
      </trkpt>
      <trkpt lat="49.88023" lon="2.24591">
        <ele>26.8</ele>
        <time>2023-06-23T12:48:53Z</time>
      </trkpt>
      <trkpt lat="49.88022" lon="2.24591">
        <ele>26.8</ele>
        <time>2023-06-23T12:48:54Z</time>
      </trkpt>
      <trkpt lat="49.88022" lon="2.2459">
        <ele>26.8</ele>
        <time>2023-06-23T12:48:55Z</time>
      </trkpt>
      <trkpt lat="49.88021" lon="2.24589">
        <ele>26.8</ele>
        <time>2023-06-23T12:48:56Z</time>
      </trkpt>
      <trkpt lat="49.88021" lon="2.24589">
        <ele>26.8</ele>
        <time>2023-06-23T12:48:57Z</time>
      </trkpt>
      <trkpt lat="49.88021" lon="2.24588">
        <ele>26.8</ele>
        <time>2023-06-23T12:48:58Z</time>
      </trkpt>
      <trkpt lat="49.88021" lon="2.24587">
        <ele>26.8</ele>
        <time>2023-06-23T12:48:59Z</time>
      </trkpt>
      <trkpt lat="49.8802" lon="2.24586">
        <ele>26.8</ele>
        <time>2023-06-23T12:49:00Z</time>
      </trkpt>
      <trkpt lat="49.8802" lon="2.24586">
        <ele>26.8</ele>
        <time>2023-06-23T12:49:02Z</time>
      </trkpt>
      <trkpt lat="49.88019" lon="2.24586">
        <ele>26.8</ele>
        <time>2023-06-23T12:49:03Z</time>
      </trkpt>
      <trkpt lat="49.88016" lon="2.24585">
        <ele>26.8</ele>
        <time>2023-06-23T12:49:05Z</time>
      </trkpt>
      <trkpt lat="49.88015" lon="2.24584">
        <ele>26.8</ele>
        <time>2023-06-23T12:49:06Z</time>
      </trkpt>
      <trkpt lat="49.88014" lon="2.24584">
        <ele>26.8</ele>
        <time>2023-06-23T12:49:07Z</time>
      </trkpt>
      <trkpt lat="49.88012" lon="2.24585">
        <ele>26.8</ele>
        <time>2023-06-23T12:49:09Z</time>
      </trkpt>
      <trkpt lat="49.88011" lon="2.24586">
        <ele>26.8</ele>
        <time>2023-06-23T12:49:10Z</time>
      </trkpt>
      <trkpt lat="49.88011" lon="2.24586">
        <ele>26.8</ele>
        <time>2023-06-23T12:49:12Z</time>
      </trkpt>
      <trkpt lat="49.88011" lon="2.24586">
        <ele>26.8</ele>
        <time>2023-06-23T12:49:13Z</time>
      </trkpt>
      <trkpt lat="49.88011" lon="2.24586">
        <ele>26.8</ele>
        <time>2023-06-23T12:49:14Z</time>
      </trkpt>
      <trkpt lat="49.88011" lon="2.24586">
        <ele>26.8</ele>
        <time>2023-06-23T12:49:16Z</time>
      </trkpt>
      <trkpt lat="49.88011" lon="2.24586">
        <ele>26.8</ele>
        <time>2023-06-23T12:49:17Z</time>
      </trkpt>
      <trkpt lat="49.88011" lon="2.24586">
        <ele>26.8</ele>
        <time>2023-06-23T12:49:19Z</time>
      </trkpt>
      <trkpt lat="49.88011" lon="2.24586">
        <ele>26.8</ele>
        <time>2023-06-23T12:49:20Z</time>
      </trkpt>
      <trkpt lat="49.88011" lon="2.24586">
        <ele>26.8</ele>
        <time>2023-06-23T12:49:22Z</time>
      </trkpt>
      <trkpt lat="49.88011" lon="2.24586">
        <ele>26.8</ele>
        <time>2023-06-23T12:49:23Z</time>
      </trkpt>
      <trkpt lat="49.88011" lon="2.24586">
        <ele>26.8</ele>
        <time>2023-06-23T12:49:24Z</time>
      </trkpt>
      <trkpt lat="49.88012" lon="2.24586">
        <ele>26.8</ele>
        <time>2023-06-23T12:49:25Z</time>
      </trkpt>
      <trkpt lat="49.88012" lon="2.24586">
        <ele>26.8</ele>
        <time>2023-06-23T12:49:26Z</time>
      </trkpt>
      <trkpt lat="49.88012" lon="2.24586">
        <ele>26.8</ele>
        <time>2023-06-23T12:49:27Z</time>
      </trkpt>
      <trkpt lat="49.88012" lon="2.24586">
        <ele>26.8</ele>
        <time>2023-06-23T12:49:28Z</time>
      </trkpt>
      <trkpt lat="49.88012" lon="2.24586">
        <ele>26.8</ele>
        <time>2023-06-23T12:49:29Z</time>
      </trkpt>
      <trkpt lat="49.88012" lon="2.24586">
        <ele>26.8</ele>
        <time>2023-06-23T12:49:30Z</time>
      </trkpt>
      <trkpt lat="49.88012" lon="2.24586">
        <ele>26.8</ele>
        <time>2023-06-23T12:49:31Z</time>
      </trkpt>
      <trkpt lat="49.88012" lon="2.24586">
        <ele>26.8</ele>
        <time>2023-06-23T12:49:32Z</time>
      </trkpt>
      <trkpt lat="49.88012" lon="2.24586">
        <ele>26.8</ele>
        <time>2023-06-23T12:49:33Z</time>
      </trkpt>
      <trkpt lat="49.88012" lon="2.24586">
        <ele>26.8</ele>
        <time>2023-06-23T12:49:34Z</time>
      </trkpt>
      <trkpt lat="49.88012" lon="2.24586">
        <ele>26.8</ele>
        <time>2023-06-23T12:49:35Z</time>
      </trkpt>
      <trkpt lat="49.88012" lon="2.24586">
        <ele>26.8</ele>
        <time>2023-06-23T12:49:36Z</time>
      </trkpt>
      <trkpt lat="49.88012" lon="2.24586">
        <ele>26.8</ele>
        <time>2023-06-23T12:49:37Z</time>
      </trkpt>
      <trkpt lat="49.88012" lon="2.24586">
        <ele>26.8</ele>
        <time>2023-06-23T12:49:38Z</time>
      </trkpt>
      <trkpt lat="49.88012" lon="2.24586">
        <ele>26.8</ele>
        <time>2023-06-23T12:49:39Z</time>
      </trkpt>
      <trkpt lat="49.88012" lon="2.24586">
        <ele>26.8</ele>
        <time>2023-06-23T12:49:40Z</time>
      </trkpt>
      <trkpt lat="49.88012" lon="2.24586">
        <ele>26.8</ele>
        <time>2023-06-23T12:49:41Z</time>
      </trkpt>
      <trkpt lat="49.88012" lon="2.24586">
        <ele>26.8</ele>
        <time>2023-06-23T12:49:42Z</time>
      </trkpt>
      <trkpt lat="49.88012" lon="2.24586">
        <ele>26.8</ele>
        <time>2023-06-23T12:49:43Z</time>
      </trkpt>
      <trkpt lat="49.88012" lon="2.24586">
        <ele>26.8</ele>
        <time>2023-06-23T12:49:44Z</time>
      </trkpt>
      <trkpt lat="49.88013" lon="2.24586">
        <ele>26.8</ele>
        <time>2023-06-23T12:49:45Z</time>
      </trkpt>
      <trkpt lat="49.88013" lon="2.24586">
        <ele>26.8</ele>
        <time>2023-06-23T12:49:46Z</time>
      </trkpt>
      <trkpt lat="49.88013" lon="2.24586">
        <ele>26.8</ele>
        <time>2023-06-23T12:49:47Z</time>
      </trkpt>
      <trkpt lat="49.88013" lon="2.24586">
        <ele>26.8</ele>
        <time>2023-06-23T12:49:48Z</time>
      </trkpt>
      <trkpt lat="49.88013" lon="2.24586">
        <ele>26.8</ele>
        <time>2023-06-23T12:49:49Z</time>
      </trkpt>
      <trkpt lat="49.88013" lon="2.24586">
        <ele>26.8</ele>
        <time>2023-06-23T12:49:50Z</time>
      </trkpt>
      <trkpt lat="49.88013" lon="2.24586">
        <ele>26.8</ele>
        <time>2023-06-23T12:49:51Z</time>
      </trkpt>
      <trkpt lat="49.88013" lon="2.24586">
        <ele>26.8</ele>
        <time>2023-06-23T12:49:52Z</time>
      </trkpt>
      <trkpt lat="49.88013" lon="2.24586">
        <ele>26.8</ele>
        <time>2023-06-23T12:49:53Z</time>
      </trkpt>
      <trkpt lat="49.88013" lon="2.24586">
        <ele>26.8</ele>
        <time>2023-06-23T12:49:54Z</time>
      </trkpt>
      <trkpt lat="49.88013" lon="2.24586">
        <ele>26.8</ele>
        <time>2023-06-23T12:49:55Z</time>
      </trkpt>
      <trkpt lat="49.88013" lon="2.24587">
        <ele>26.8</ele>
        <time>2023-06-23T12:49:56Z</time>
      </trkpt>
      <trkpt lat="49.88013" lon="2.24587">
        <ele>26.8</ele>
        <time>2023-06-23T12:49:57Z</time>
      </trkpt>
      <trkpt lat="49.88013" lon="2.24587">
        <ele>26.8</ele>
        <time>2023-06-23T12:49:58Z</time>
      </trkpt>
      <trkpt lat="49.88013" lon="2.24587">
        <ele>26.8</ele>
        <time>2023-06-23T12:49:59Z</time>
      </trkpt>
      <trkpt lat="49.88013" lon="2.24587">
        <ele>26.8</ele>
        <time>2023-06-23T12:50:00Z</time>
      </trkpt>
      <trkpt lat="49.88013" lon="2.24587">
        <ele>26.8</ele>
        <time>2023-06-23T12:50:01Z</time>
      </trkpt>
      <trkpt lat="49.88013" lon="2.24587">
        <ele>26.8</ele>
        <time>2023-06-23T12:50:02Z</time>
      </trkpt>
      <trkpt lat="49.88013" lon="2.24587">
        <ele>26.8</ele>
        <time>2023-06-23T12:50:03Z</time>
      </trkpt>
      <trkpt lat="49.88014" lon="2.24587">
        <ele>26.8</ele>
        <time>2023-06-23T12:50:04Z</time>
      </trkpt>
      <trkpt lat="49.88014" lon="2.24587">
        <ele>26.8</ele>
        <time>2023-06-23T12:50:05Z</time>
      </trkpt>
      <trkpt lat="49.88014" lon="2.24587">
        <ele>26.8</ele>
        <time>2023-06-23T12:50:06Z</time>
      </trkpt>
      <trkpt lat="49.88014" lon="2.24587">
        <ele>26.8</ele>
        <time>2023-06-23T12:50:07Z</time>
      </trkpt>
      <trkpt lat="49.88014" lon="2.24587">
        <ele>26.8</ele>
        <time>2023-06-23T12:50:08Z</time>
      </trkpt>
      <trkpt lat="49.88014" lon="2.24587">
        <ele>26.8</ele>
        <time>2023-06-23T12:50:09Z</time>
      </trkpt>
      <trkpt lat="49.88014" lon="2.24587">
        <ele>26.8</ele>
        <time>2023-06-23T12:50:10Z</time>
      </trkpt>
      <trkpt lat="49.88014" lon="2.24587">
        <ele>26.8</ele>
        <time>2023-06-23T12:50:11Z</time>
      </trkpt>
      <trkpt lat="49.88014" lon="2.24587">
        <ele>26.8</ele>
        <time>2023-06-23T12:50:12Z</time>
      </trkpt>
      <trkpt lat="49.88014" lon="2.24587">
        <ele>26.8</ele>
        <time>2023-06-23T12:50:13Z</time>
      </trkpt>
      <trkpt lat="49.88014" lon="2.24587">
        <ele>26.8</ele>
        <time>2023-06-23T12:50:14Z</time>
      </trkpt>
      <trkpt lat="49.88014" lon="2.24587">
        <ele>26.8</ele>
        <time>2023-06-23T12:50:15Z</time>
      </trkpt>
      <trkpt lat="49.88014" lon="2.24587">
        <ele>26.8</ele>
        <time>2023-06-23T12:50:16Z</time>
      </trkpt>
      <trkpt lat="49.88014" lon="2.24587">
        <ele>26.8</ele>
        <time>2023-06-23T12:50:17Z</time>
      </trkpt>
      <trkpt lat="49.88014" lon="2.24587">
        <ele>26.8</ele>
        <time>2023-06-23T12:50:18Z</time>
      </trkpt>
      <trkpt lat="49.88014" lon="2.24587">
        <ele>26.8</ele>
        <time>2023-06-23T12:50:19Z</time>
      </trkpt>
      <trkpt lat="49.88014" lon="2.24587">
        <ele>26.8</ele>
        <time>2023-06-23T12:50:20Z</time>
      </trkpt>
      <trkpt lat="49.88014" lon="2.24587">
        <ele>26.8</ele>
        <time>2023-06-23T12:50:21Z</time>
      </trkpt>
      <trkpt lat="49.88014" lon="2.24587">
        <ele>26.8</ele>
        <time>2023-06-23T12:50:22Z</time>
      </trkpt>
      <trkpt lat="49.88015" lon="2.24587">
        <ele>26.8</ele>
        <time>2023-06-23T12:50:23Z</time>
      </trkpt>
      <trkpt lat="49.88015" lon="2.24587">
        <ele>26.8</ele>
        <time>2023-06-23T12:50:24Z</time>
      </trkpt>
      <trkpt lat="49.88015" lon="2.24587">
        <ele>26.8</ele>
        <time>2023-06-23T12:50:25Z</time>
      </trkpt>
      <trkpt lat="49.88015" lon="2.24587">
        <ele>26.8</ele>
        <time>2023-06-23T12:50:26Z</time>
      </trkpt>
      <trkpt lat="49.88015" lon="2.24587">
        <ele>26.8</ele>
        <time>2023-06-23T12:50:27Z</time>
      </trkpt>
      <trkpt lat="49.88015" lon="2.24587">
        <ele>26.8</ele>
        <time>2023-06-23T12:50:28Z</time>
      </trkpt>
      <trkpt lat="49.88015" lon="2.24587">
        <ele>26.8</ele>
        <time>2023-06-23T12:50:29Z</time>
      </trkpt>
      <trkpt lat="49.88015" lon="2.24587">
        <ele>26.8</ele>
        <time>2023-06-23T12:50:30Z</time>
      </trkpt>
      <trkpt lat="49.88015" lon="2.24587">
        <ele>26.8</ele>
        <time>2023-06-23T12:50:31Z</time>
      </trkpt>
      <trkpt lat="49.88015" lon="2.24587">
        <ele>26.8</ele>
        <time>2023-06-23T12:50:32Z</time>
      </trkpt>
      <trkpt lat="49.88015" lon="2.24587">
        <ele>26.8</ele>
        <time>2023-06-23T12:50:33Z</time>
      </trkpt>
      <trkpt lat="49.88015" lon="2.24587">
        <ele>26.8</ele>
        <time>2023-06-23T12:50:34Z</time>
      </trkpt>
      <trkpt lat="49.88015" lon="2.24587">
        <ele>26.8</ele>
        <time>2023-06-23T12:50:35Z</time>
      </trkpt>
      <trkpt lat="49.88015" lon="2.24587">
        <ele>26.8</ele>
        <time>2023-06-23T12:50:36Z</time>
      </trkpt>
      <trkpt lat="49.88017" lon="2.24586">
        <ele>26.8</ele>
        <time>2023-06-23T12:50:37Z</time>
      </trkpt>
      <trkpt lat="49.88018" lon="2.24586">
        <ele>26.8</ele>
        <time>2023-06-23T12:50:38Z</time>
      </trkpt>
      <trkpt lat="49.88018" lon="2.24585">
        <ele>26.8</ele>
        <time>2023-06-23T12:50:39Z</time>
      </trkpt>
      <trkpt lat="49.88018" lon="2.24585">
        <ele>26.8</ele>
        <time>2023-06-23T12:50:40Z</time>
      </trkpt>
      <trkpt lat="49.88018" lon="2.24585">
        <ele>26.8</ele>
        <time>2023-06-23T12:50:41Z</time>
      </trkpt>
      <trkpt lat="49.88018" lon="2.24585">
        <ele>26.8</ele>
        <time>2023-06-23T12:50:42Z</time>
      </trkpt>
      <trkpt lat="49.88018" lon="2.24585">
        <ele>26.8</ele>
        <time>2023-06-23T12:50:43Z</time>
      </trkpt>
      <trkpt lat="49.88018" lon="2.24585">
        <ele>26.8</ele>
        <time>2023-06-23T12:50:44Z</time>
      </trkpt>
      <trkpt lat="49.88018" lon="2.24585">
        <ele>26.8</ele>
        <time>2023-06-23T12:50:45Z</time>
      </trkpt>
      <trkpt lat="49.88018" lon="2.24585">
        <ele>26.8</ele>
        <time>2023-06-23T12:50:46Z</time>
      </trkpt>
      <trkpt lat="49.88018" lon="2.24585">
        <ele>26.8</ele>
        <time>2023-06-23T12:50:47Z</time>
      </trkpt>
      <trkpt lat="49.88018" lon="2.24585">
        <ele>26.8</ele>
        <time>2023-06-23T12:50:48Z</time>
      </trkpt>
      <trkpt lat="49.88018" lon="2.24585">
        <ele>26.8</ele>
        <time>2023-06-23T12:50:49Z</time>
      </trkpt>
      <trkpt lat="49.88018" lon="2.24585">
        <ele>26.8</ele>
        <time>2023-06-23T12:50:50Z</time>
      </trkpt>
      <trkpt lat="49.88018" lon="2.24585">
        <ele>26.8</ele>
        <time>2023-06-23T12:50:51Z</time>
      </trkpt>
      <trkpt lat="49.88018" lon="2.24585">
        <ele>26.8</ele>
        <time>2023-06-23T12:50:52Z</time>
      </trkpt>
      <trkpt lat="49.88018" lon="2.24585">
        <ele>26.8</ele>
        <time>2023-06-23T12:50:53Z</time>
      </trkpt>
      <trkpt lat="49.88018" lon="2.24585">
        <ele>26.8</ele>
        <time>2023-06-23T12:50:54Z</time>
      </trkpt>
      <trkpt lat="49.88018" lon="2.24585">
        <ele>26.8</ele>
        <time>2023-06-23T12:50:55Z</time>
      </trkpt>
      <trkpt lat="49.88018" lon="2.24585">
        <ele>26.8</ele>
        <time>2023-06-23T12:50:56Z</time>
      </trkpt>
      <trkpt lat="49.88018" lon="2.24585">
        <ele>26.8</ele>
        <time>2023-06-23T12:50:57Z</time>
      </trkpt>
      <trkpt lat="49.88018" lon="2.24585">
        <ele>26.8</ele>
        <time>2023-06-23T12:50:58Z</time>
      </trkpt>
      <trkpt lat="49.88018" lon="2.24585">
        <ele>26.8</ele>
        <time>2023-06-23T12:50:59Z</time>
      </trkpt>
      <trkpt lat="49.88018" lon="2.24585">
        <ele>26.8</ele>
        <time>2023-06-23T12:51:00Z</time>
      </trkpt>
      <trkpt lat="49.88018" lon="2.24585">
        <ele>26.8</ele>
        <time>2023-06-23T12:51:01Z</time>
      </trkpt>
      <trkpt lat="49.88018" lon="2.24585">
        <ele>26.8</ele>
        <time>2023-06-23T12:51:02Z</time>
      </trkpt>
      <trkpt lat="49.88019" lon="2.24585">
        <ele>26.8</ele>
        <time>2023-06-23T12:51:03Z</time>
      </trkpt>
      <trkpt lat="49.8802" lon="2.24585">
        <ele>26.7</ele>
        <time>2023-06-23T12:51:04Z</time>
      </trkpt>
      <trkpt lat="49.8802" lon="2.24585">
        <ele>26.7</ele>
        <time>2023-06-23T12:51:06Z</time>
      </trkpt>
      <trkpt lat="49.88021" lon="2.24584">
        <ele>26.7</ele>
        <time>2023-06-23T12:51:07Z</time>
      </trkpt>
      <trkpt lat="49.88022" lon="2.24582">
        <ele>26.7</ele>
        <time>2023-06-23T12:51:08Z</time>
      </trkpt>
      <trkpt lat="49.88023" lon="2.2458">
        <ele>26.7</ele>
        <time>2023-06-23T12:51:09Z</time>
      </trkpt>
      <trkpt lat="49.88023" lon="2.24577">
        <ele>26.7</ele>
        <time>2023-06-23T12:51:10Z</time>
      </trkpt>
      <trkpt lat="49.88023" lon="2.24573">
        <ele>26.7</ele>
        <time>2023-06-23T12:51:12Z</time>
      </trkpt>
      <trkpt lat="49.88023" lon="2.24568">
        <ele>26.7</ele>
        <time>2023-06-23T12:51:13Z</time>
      </trkpt>
      <trkpt lat="49.88023" lon="2.24567">
        <ele>26.7</ele>
        <time>2023-06-23T12:51:14Z</time>
      </trkpt>
      <trkpt lat="49.88024" lon="2.24563">
        <ele>26.7</ele>
        <time>2023-06-23T12:51:16Z</time>
      </trkpt>
      <trkpt lat="49.88024" lon="2.24562">
        <ele>26.7</ele>
        <time>2023-06-23T12:51:17Z</time>
      </trkpt>
      <trkpt lat="49.88024" lon="2.24561">
        <ele>26.7</ele>
        <time>2023-06-23T12:51:18Z</time>
      </trkpt>
      <trkpt lat="49.88024" lon="2.24558">
        <ele>26.6</ele>
        <time>2023-06-23T12:51:19Z</time>
      </trkpt>
      <trkpt lat="49.88024" lon="2.24557">
        <ele>26.6</ele>
        <time>2023-06-23T12:51:20Z</time>
      </trkpt>
      <trkpt lat="49.88025" lon="2.24555">
        <ele>26.6</ele>
        <time>2023-06-23T12:51:21Z</time>
      </trkpt>
      <trkpt lat="49.88025" lon="2.24553">
        <ele>26.6</ele>
        <time>2023-06-23T12:51:22Z</time>
      </trkpt>
      <trkpt lat="49.88025" lon="2.24551">
        <ele>26.6</ele>
        <time>2023-06-23T12:51:24Z</time>
      </trkpt>
      <trkpt lat="49.88026" lon="2.24549">
        <ele>26.6</ele>
        <time>2023-06-23T12:51:26Z</time>
      </trkpt>
      <trkpt lat="49.88027" lon="2.24547">
        <ele>26.6</ele>
        <time>2023-06-23T12:51:27Z</time>
      </trkpt>
      <trkpt lat="49.88027" lon="2.24546">
        <ele>26.6</ele>
        <time>2023-06-23T12:51:28Z</time>
      </trkpt>
      <trkpt lat="49.88028" lon="2.24545">
        <ele>26.6</ele>
        <time>2023-06-23T12:51:29Z</time>
      </trkpt>
      <trkpt lat="49.88028" lon="2.24544">
        <ele>26.6</ele>
        <time>2023-06-23T12:51:30Z</time>
      </trkpt>
      <trkpt lat="49.88029" lon="2.24543">
        <ele>26.6</ele>
        <time>2023-06-23T12:51:31Z</time>
      </trkpt>
      <trkpt lat="49.8803" lon="2.24541">
        <ele>26.6</ele>
        <time>2023-06-23T12:51:33Z</time>
      </trkpt>
      <trkpt lat="49.88031" lon="2.2454">
        <ele>26.6</ele>
        <time>2023-06-23T12:51:34Z</time>
      </trkpt>
      <trkpt lat="49.88032" lon="2.24539">
        <ele>26.6</ele>
        <time>2023-06-23T12:51:35Z</time>
      </trkpt>
      <trkpt lat="49.88033" lon="2.24538">
        <ele>26.6</ele>
        <time>2023-06-23T12:51:36Z</time>
      </trkpt>
      <trkpt lat="49.88034" lon="2.24537">
        <ele>26.6</ele>
        <time>2023-06-23T12:51:37Z</time>
      </trkpt>
      <trkpt lat="49.88035" lon="2.24536">
        <ele>26.5</ele>
        <time>2023-06-23T12:51:38Z</time>
      </trkpt>
      <trkpt lat="49.88036" lon="2.24534">
        <ele>26.5</ele>
        <time>2023-06-23T12:51:39Z</time>
      </trkpt>
      <trkpt lat="49.88036" lon="2.24533">
        <ele>26.5</ele>
        <time>2023-06-23T12:51:41Z</time>
      </trkpt>
      <trkpt lat="49.88037" lon="2.24532">
        <ele>26.5</ele>
        <time>2023-06-23T12:51:42Z</time>
      </trkpt>
      <trkpt lat="49.88038" lon="2.2453">
        <ele>26.5</ele>
        <time>2023-06-23T12:51:43Z</time>
      </trkpt>
      <trkpt lat="49.88038" lon="2.24529">
        <ele>26.5</ele>
        <time>2023-06-23T12:51:44Z</time>
      </trkpt>
      <trkpt lat="49.88039" lon="2.24528">
        <ele>26.5</ele>
        <time>2023-06-23T12:51:45Z</time>
      </trkpt>
      <trkpt lat="49.8804" lon="2.24527">
        <ele>26.5</ele>
        <time>2023-06-23T12:51:46Z</time>
      </trkpt>
      <trkpt lat="49.88041" lon="2.24526">
        <ele>26.5</ele>
        <time>2023-06-23T12:51:47Z</time>
      </trkpt>
      <trkpt lat="49.88042" lon="2.24525">
        <ele>26.5</ele>
        <time>2023-06-23T12:51:48Z</time>
      </trkpt>
      <trkpt lat="49.88043" lon="2.24524">
        <ele>26.5</ele>
        <time>2023-06-23T12:51:50Z</time>
      </trkpt>
      <trkpt lat="49.88043" lon="2.24523">
        <ele>26.5</ele>
        <time>2023-06-23T12:51:51Z</time>
      </trkpt>
      <trkpt lat="49.88044" lon="2.24522">
        <ele>26.5</ele>
        <time>2023-06-23T12:51:52Z</time>
      </trkpt>
      <trkpt lat="49.88045" lon="2.2452">
        <ele>26.5</ele>
        <time>2023-06-23T12:51:53Z</time>
      </trkpt>
      <trkpt lat="49.88046" lon="2.24519">
        <ele>26.5</ele>
        <time>2023-06-23T12:51:54Z</time>
      </trkpt>
      <trkpt lat="49.88047" lon="2.24519">
        <ele>26.5</ele>
        <time>2023-06-23T12:51:55Z</time>
      </trkpt>
      <trkpt lat="49.88049" lon="2.24517">
        <ele>26.5</ele>
        <time>2023-06-23T12:51:56Z</time>
      </trkpt>
      <trkpt lat="49.8805" lon="2.24516">
        <ele>26.5</ele>
        <time>2023-06-23T12:51:58Z</time>
      </trkpt>
      <trkpt lat="49.88051" lon="2.24515">
        <ele>26.5</ele>
        <time>2023-06-23T12:51:59Z</time>
      </trkpt>
      <trkpt lat="49.88052" lon="2.24514">
        <ele>26.5</ele>
        <time>2023-06-23T12:52:00Z</time>
      </trkpt>
      <trkpt lat="49.88052" lon="2.24513">
        <ele>26.5</ele>
        <time>2023-06-23T12:52:01Z</time>
      </trkpt>
      <trkpt lat="49.88054" lon="2.24512">
        <ele>26.5</ele>
        <time>2023-06-23T12:52:02Z</time>
      </trkpt>
      <trkpt lat="49.88055" lon="2.24511">
        <ele>26.5</ele>
        <time>2023-06-23T12:52:03Z</time>
      </trkpt>
      <trkpt lat="49.88056" lon="2.24511">
        <ele>26.5</ele>
        <time>2023-06-23T12:52:04Z</time>
      </trkpt>
      <trkpt lat="49.88058" lon="2.24508">
        <ele>26.5</ele>
        <time>2023-06-23T12:52:05Z</time>
      </trkpt>
      <trkpt lat="49.88059" lon="2.24507">
        <ele>26.6</ele>
        <time>2023-06-23T12:52:07Z</time>
      </trkpt>
      <trkpt lat="49.8806" lon="2.24506">
        <ele>26.6</ele>
        <time>2023-06-23T12:52:08Z</time>
      </trkpt>
      <trkpt lat="49.8806" lon="2.24505">
        <ele>26.6</ele>
        <time>2023-06-23T12:52:09Z</time>
      </trkpt>
      <trkpt lat="49.88061" lon="2.24504">
        <ele>26.6</ele>
        <time>2023-06-23T12:52:10Z</time>
      </trkpt>
      <trkpt lat="49.88063" lon="2.24502">
        <ele>26.6</ele>
        <time>2023-06-23T12:52:11Z</time>
      </trkpt>
      <trkpt lat="49.88063" lon="2.24501">
        <ele>26.6</ele>
        <time>2023-06-23T12:52:12Z</time>
      </trkpt>
      <trkpt lat="49.88064" lon="2.24499">
        <ele>26.6</ele>
        <time>2023-06-23T12:52:13Z</time>
      </trkpt>
      <trkpt lat="49.88065" lon="2.24498">
        <ele>26.6</ele>
        <time>2023-06-23T12:52:14Z</time>
      </trkpt>
      <trkpt lat="49.88066" lon="2.24496">
        <ele>26.6</ele>
        <time>2023-06-23T12:52:15Z</time>
      </trkpt>
      <trkpt lat="49.88067" lon="2.24494">
        <ele>26.6</ele>
        <time>2023-06-23T12:52:17Z</time>
      </trkpt>
      <trkpt lat="49.88067" lon="2.24493">
        <ele>26.6</ele>
        <time>2023-06-23T12:52:18Z</time>
      </trkpt>
      <trkpt lat="49.88068" lon="2.24491">
        <ele>26.6</ele>
        <time>2023-06-23T12:52:19Z</time>
      </trkpt>
      <trkpt lat="49.88069" lon="2.2449">
        <ele>26.7</ele>
        <time>2023-06-23T12:52:20Z</time>
      </trkpt>
      <trkpt lat="49.8807" lon="2.24489">
        <ele>26.7</ele>
        <time>2023-06-23T12:52:21Z</time>
      </trkpt>
      <trkpt lat="49.88071" lon="2.24486">
        <ele>26.7</ele>
        <time>2023-06-23T12:52:22Z</time>
      </trkpt>
      <trkpt lat="49.88071" lon="2.24485">
        <ele>26.7</ele>
        <time>2023-06-23T12:52:23Z</time>
      </trkpt>
      <trkpt lat="49.88072" lon="2.24484">
        <ele>26.7</ele>
        <time>2023-06-23T12:52:24Z</time>
      </trkpt>
      <trkpt lat="49.88073" lon="2.24481">
        <ele>26.7</ele>
        <time>2023-06-23T12:52:25Z</time>
      </trkpt>
      <trkpt lat="49.88073" lon="2.2448">
        <ele>26.7</ele>
        <time>2023-06-23T12:52:27Z</time>
      </trkpt>
      <trkpt lat="49.88073" lon="2.24478">
        <ele>26.8</ele>
        <time>2023-06-23T12:52:28Z</time>
      </trkpt>
      <trkpt lat="49.88074" lon="2.24477">
        <ele>26.8</ele>
        <time>2023-06-23T12:52:29Z</time>
      </trkpt>
      <trkpt lat="49.88074" lon="2.24475">
        <ele>26.8</ele>
        <time>2023-06-23T12:52:30Z</time>
      </trkpt>
      <trkpt lat="49.88075" lon="2.24473">
        <ele>26.8</ele>
        <time>2023-06-23T12:52:31Z</time>
      </trkpt>
      <trkpt lat="49.88075" lon="2.24472">
        <ele>26.8</ele>
        <time>2023-06-23T12:52:32Z</time>
      </trkpt>
      <trkpt lat="49.88075" lon="2.2447">
        <ele>26.8</ele>
        <time>2023-06-23T12:52:33Z</time>
      </trkpt>
      <trkpt lat="49.88075" lon="2.24468">
        <ele>26.9</ele>
        <time>2023-06-23T12:52:34Z</time>
      </trkpt>
      <trkpt lat="49.88076" lon="2.24466">
        <ele>26.9</ele>
        <time>2023-06-23T12:52:36Z</time>
      </trkpt>
      <trkpt lat="49.88076" lon="2.24464">
        <ele>26.9</ele>
        <time>2023-06-23T12:52:37Z</time>
      </trkpt>
      <trkpt lat="49.88076" lon="2.24463">
        <ele>26.9</ele>
        <time>2023-06-23T12:52:38Z</time>
      </trkpt>
      <trkpt lat="49.88077" lon="2.24461">
        <ele>26.9</ele>
        <time>2023-06-23T12:52:40Z</time>
      </trkpt>
      <trkpt lat="49.88077" lon="2.2446">
        <ele>26.9</ele>
        <time>2023-06-23T12:52:41Z</time>
      </trkpt>
      <trkpt lat="49.88077" lon="2.24458">
        <ele>26.9</ele>
        <time>2023-06-23T12:52:42Z</time>
      </trkpt>
      <trkpt lat="49.88077" lon="2.24456">
        <ele>27</ele>
        <time>2023-06-23T12:52:43Z</time>
      </trkpt>
      <trkpt lat="49.88077" lon="2.24454">
        <ele>27</ele>
        <time>2023-06-23T12:52:45Z</time>
      </trkpt>
      <trkpt lat="49.88078" lon="2.24452">
        <ele>27</ele>
        <time>2023-06-23T12:52:46Z</time>
      </trkpt>
      <trkpt lat="49.88078" lon="2.2445">
        <ele>27</ele>
        <time>2023-06-23T12:52:47Z</time>
      </trkpt>
      <trkpt lat="49.88078" lon="2.24447">
        <ele>27.1</ele>
        <time>2023-06-23T12:52:48Z</time>
      </trkpt>
      <trkpt lat="49.88079" lon="2.24446">
        <ele>27.1</ele>
        <time>2023-06-23T12:52:49Z</time>
      </trkpt>
      <trkpt lat="49.88079" lon="2.24445">
        <ele>27.1</ele>
        <time>2023-06-23T12:52:50Z</time>
      </trkpt>
      <trkpt lat="49.88079" lon="2.24443">
        <ele>27.1</ele>
        <time>2023-06-23T12:52:51Z</time>
      </trkpt>
      <trkpt lat="49.88078" lon="2.24441">
        <ele>27.1</ele>
        <time>2023-06-23T12:52:53Z</time>
      </trkpt>
      <trkpt lat="49.88078" lon="2.24439">
        <ele>27.1</ele>
        <time>2023-06-23T12:52:54Z</time>
      </trkpt>
      <trkpt lat="49.88078" lon="2.24437">
        <ele>27.2</ele>
        <time>2023-06-23T12:52:55Z</time>
      </trkpt>
      <trkpt lat="49.88078" lon="2.24434">
        <ele>27.2</ele>
        <time>2023-06-23T12:52:56Z</time>
      </trkpt>
      <trkpt lat="49.88078" lon="2.24432">
        <ele>27.2</ele>
        <time>2023-06-23T12:52:57Z</time>
      </trkpt>
      <trkpt lat="49.88078" lon="2.2443">
        <ele>27.2</ele>
        <time>2023-06-23T12:52:58Z</time>
      </trkpt>
      <trkpt lat="49.88078" lon="2.24428">
        <ele>27.2</ele>
        <time>2023-06-23T12:52:59Z</time>
      </trkpt>
      <trkpt lat="49.88078" lon="2.24426">
        <ele>27.2</ele>
        <time>2023-06-23T12:53:00Z</time>
      </trkpt>
      <trkpt lat="49.88078" lon="2.24425">
        <ele>27.2</ele>
        <time>2023-06-23T12:53:02Z</time>
      </trkpt>
      <trkpt lat="49.88079" lon="2.24423">
        <ele>27.2</ele>
        <time>2023-06-23T12:53:03Z</time>
      </trkpt>
      <trkpt lat="49.88079" lon="2.24422">
        <ele>27.2</ele>
        <time>2023-06-23T12:53:04Z</time>
      </trkpt>
      <trkpt lat="49.8808" lon="2.2442">
        <ele>27.2</ele>
        <time>2023-06-23T12:53:05Z</time>
      </trkpt>
      <trkpt lat="49.8808" lon="2.24418">
        <ele>27.3</ele>
        <time>2023-06-23T12:53:06Z</time>
      </trkpt>
      <trkpt lat="49.88081" lon="2.24416">
        <ele>27.3</ele>
        <time>2023-06-23T12:53:07Z</time>
      </trkpt>
      <trkpt lat="49.88082" lon="2.24414">
        <ele>27.3</ele>
        <time>2023-06-23T12:53:09Z</time>
      </trkpt>
      <trkpt lat="49.88083" lon="2.24413">
        <ele>27.3</ele>
        <time>2023-06-23T12:53:10Z</time>
      </trkpt>
      <trkpt lat="49.88084" lon="2.24412">
        <ele>27.3</ele>
        <time>2023-06-23T12:53:11Z</time>
      </trkpt>
      <trkpt lat="49.88086" lon="2.24411">
        <ele>27.3</ele>
        <time>2023-06-23T12:53:12Z</time>
      </trkpt>
      <trkpt lat="49.88088" lon="2.2441">
        <ele>27.3</ele>
        <time>2023-06-23T12:53:13Z</time>
      </trkpt>
      <trkpt lat="49.88088" lon="2.24409">
        <ele>27.4</ele>
        <time>2023-06-23T12:53:15Z</time>
      </trkpt>
      <trkpt lat="49.88089" lon="2.24408">
        <ele>27.4</ele>
        <time>2023-06-23T12:53:16Z</time>
      </trkpt>
      <trkpt lat="49.8809" lon="2.24408">
        <ele>27.4</ele>
        <time>2023-06-23T12:53:17Z</time>
      </trkpt>
      <trkpt lat="49.88091" lon="2.24407">
        <ele>27.5</ele>
        <time>2023-06-23T12:53:18Z</time>
      </trkpt>
      <trkpt lat="49.88092" lon="2.24406">
        <ele>27.6</ele>
        <time>2023-06-23T12:53:19Z</time>
      </trkpt>
      <trkpt lat="49.88092" lon="2.24405">
        <ele>27.6</ele>
        <time>2023-06-23T12:53:20Z</time>
      </trkpt>
      <trkpt lat="49.88093" lon="2.24404">
        <ele>27.7</ele>
        <time>2023-06-23T12:53:22Z</time>
      </trkpt>
      <trkpt lat="49.88094" lon="2.24403">
        <ele>27.8</ele>
        <time>2023-06-23T12:53:23Z</time>
      </trkpt>
      <trkpt lat="49.88095" lon="2.24402">
        <ele>27.8</ele>
        <time>2023-06-23T12:53:24Z</time>
      </trkpt>
      <trkpt lat="49.88096" lon="2.24401">
        <ele>27.9</ele>
        <time>2023-06-23T12:53:25Z</time>
      </trkpt>
      <trkpt lat="49.88097" lon="2.244">
        <ele>28</ele>
        <time>2023-06-23T12:53:26Z</time>
      </trkpt>
      <trkpt lat="49.88098" lon="2.24399">
        <ele>28.1</ele>
        <time>2023-06-23T12:53:27Z</time>
      </trkpt>
      <trkpt lat="49.88099" lon="2.24399">
        <ele>28.1</ele>
        <time>2023-06-23T12:53:28Z</time>
      </trkpt>
      <trkpt lat="49.881" lon="2.24398">
        <ele>28.2</ele>
        <time>2023-06-23T12:53:30Z</time>
      </trkpt>
      <trkpt lat="49.88101" lon="2.24397">
        <ele>28.3</ele>
        <time>2023-06-23T12:53:31Z</time>
      </trkpt>
      <trkpt lat="49.88102" lon="2.24396">
        <ele>28.4</ele>
        <time>2023-06-23T12:53:32Z</time>
      </trkpt>
      <trkpt lat="49.88103" lon="2.24396">
        <ele>28.5</ele>
        <time>2023-06-23T12:53:33Z</time>
      </trkpt>
      <trkpt lat="49.88104" lon="2.24395">
        <ele>28.6</ele>
        <time>2023-06-23T12:53:34Z</time>
      </trkpt>
      <trkpt lat="49.88105" lon="2.24394">
        <ele>28.7</ele>
        <time>2023-06-23T12:53:36Z</time>
      </trkpt>
      <trkpt lat="49.88106" lon="2.24393">
        <ele>28.8</ele>
        <time>2023-06-23T12:53:37Z</time>
      </trkpt>
      <trkpt lat="49.88107" lon="2.24392">
        <ele>28.9</ele>
        <time>2023-06-23T12:53:38Z</time>
      </trkpt>
      <trkpt lat="49.88108" lon="2.24392">
        <ele>28.9</ele>
        <time>2023-06-23T12:53:39Z</time>
      </trkpt>
      <trkpt lat="49.88109" lon="2.24391">
        <ele>29</ele>
        <time>2023-06-23T12:53:40Z</time>
      </trkpt>
      <trkpt lat="49.88111" lon="2.2439">
        <ele>29.2</ele>
        <time>2023-06-23T12:53:42Z</time>
      </trkpt>
      <trkpt lat="49.88112" lon="2.2439">
        <ele>29.3</ele>
        <time>2023-06-23T12:53:43Z</time>
      </trkpt>
      <trkpt lat="49.88112" lon="2.24389">
        <ele>29.3</ele>
        <time>2023-06-23T12:53:44Z</time>
      </trkpt>
      <trkpt lat="49.88113" lon="2.24388">
        <ele>29.5</ele>
        <time>2023-06-23T12:53:45Z</time>
      </trkpt>
      <trkpt lat="49.88114" lon="2.24387">
        <ele>29.6</ele>
        <time>2023-06-23T12:53:46Z</time>
      </trkpt>
      <trkpt lat="49.88115" lon="2.24387">
        <ele>29.7</ele>
        <time>2023-06-23T12:53:48Z</time>
      </trkpt>
      <trkpt lat="49.88116" lon="2.24386">
        <ele>29.8</ele>
        <time>2023-06-23T12:53:49Z</time>
      </trkpt>
      <trkpt lat="49.88117" lon="2.24385">
        <ele>29.9</ele>
        <time>2023-06-23T12:53:50Z</time>
      </trkpt>
      <trkpt lat="49.88118" lon="2.24384">
        <ele>30</ele>
        <time>2023-06-23T12:53:51Z</time>
      </trkpt>
      <trkpt lat="49.8812" lon="2.24383">
        <ele>30.2</ele>
        <time>2023-06-23T12:53:52Z</time>
      </trkpt>
      <trkpt lat="49.88121" lon="2.24383">
        <ele>30.3</ele>
        <time>2023-06-23T12:53:54Z</time>
      </trkpt>
      <trkpt lat="49.88122" lon="2.24383">
        <ele>30.4</ele>
        <time>2023-06-23T12:53:55Z</time>
      </trkpt>
      <trkpt lat="49.88124" lon="2.24382">
        <ele>30.6</ele>
        <time>2023-06-23T12:53:56Z</time>
      </trkpt>
      <trkpt lat="49.88125" lon="2.24382">
        <ele>30.7</ele>
        <time>2023-06-23T12:53:57Z</time>
      </trkpt>
      <trkpt lat="49.88126" lon="2.24382">
        <ele>30.8</ele>
        <time>2023-06-23T12:53:58Z</time>
      </trkpt>
      <trkpt lat="49.88126" lon="2.24381">
        <ele>30.9</ele>
        <time>2023-06-23T12:53:59Z</time>
      </trkpt>
      <trkpt lat="49.88127" lon="2.2438">
        <ele>30.9</ele>
        <time>2023-06-23T12:54:00Z</time>
      </trkpt>
      <trkpt lat="49.88128" lon="2.24379">
        <ele>31</ele>
        <time>2023-06-23T12:54:01Z</time>
      </trkpt>
      <trkpt lat="49.8813" lon="2.24378">
        <ele>31.2</ele>
        <time>2023-06-23T12:54:03Z</time>
      </trkpt>
      <trkpt lat="49.8813" lon="2.24378">
        <ele>31.3</ele>
        <time>2023-06-23T12:54:04Z</time>
      </trkpt>
      <trkpt lat="49.88131" lon="2.24377">
        <ele>31.4</ele>
        <time>2023-06-23T12:54:05Z</time>
      </trkpt>
      <trkpt lat="49.88132" lon="2.24377">
        <ele>31.5</ele>
        <time>2023-06-23T12:54:06Z</time>
      </trkpt>
      <trkpt lat="49.88133" lon="2.24377">
        <ele>31.6</ele>
        <time>2023-06-23T12:54:07Z</time>
      </trkpt>
      <trkpt lat="49.88134" lon="2.24377">
        <ele>31.7</ele>
        <time>2023-06-23T12:54:08Z</time>
      </trkpt>
      <trkpt lat="49.88135" lon="2.24376">
        <ele>31.9</ele>
        <time>2023-06-23T12:54:10Z</time>
      </trkpt>
      <trkpt lat="49.88137" lon="2.24375">
        <ele>32</ele>
        <time>2023-06-23T12:54:11Z</time>
      </trkpt>
      <trkpt lat="49.88137" lon="2.24375">
        <ele>32.1</ele>
        <time>2023-06-23T12:54:12Z</time>
      </trkpt>
      <trkpt lat="49.88138" lon="2.24374">
        <ele>32.1</ele>
        <time>2023-06-23T12:54:13Z</time>
      </trkpt>
      <trkpt lat="49.88138" lon="2.24374">
        <ele>32.2</ele>
        <time>2023-06-23T12:54:14Z</time>
      </trkpt>
      <trkpt lat="49.88139" lon="2.24373">
        <ele>32.3</ele>
        <time>2023-06-23T12:54:15Z</time>
      </trkpt>
      <trkpt lat="49.8814" lon="2.24372">
        <ele>32.4</ele>
        <time>2023-06-23T12:54:17Z</time>
      </trkpt>
      <trkpt lat="49.8814" lon="2.24371">
        <ele>32.5</ele>
        <time>2023-06-23T12:54:18Z</time>
      </trkpt>
      <trkpt lat="49.88141" lon="2.2437">
        <ele>32.6</ele>
        <time>2023-06-23T12:54:19Z</time>
      </trkpt>
      <trkpt lat="49.88141" lon="2.24369">
        <ele>32.6</ele>
        <time>2023-06-23T12:54:20Z</time>
      </trkpt>
      <trkpt lat="49.88142" lon="2.24368">
        <ele>32.7</ele>
        <time>2023-06-23T12:54:21Z</time>
      </trkpt>
      <trkpt lat="49.88143" lon="2.24368">
        <ele>32.8</ele>
        <time>2023-06-23T12:54:22Z</time>
      </trkpt>
      <trkpt lat="49.88144" lon="2.24367">
        <ele>32.9</ele>
        <time>2023-06-23T12:54:24Z</time>
      </trkpt>
      <trkpt lat="49.88145" lon="2.24366">
        <ele>33</ele>
        <time>2023-06-23T12:54:25Z</time>
      </trkpt>
      <trkpt lat="49.88146" lon="2.24366">
        <ele>33.1</ele>
        <time>2023-06-23T12:54:26Z</time>
      </trkpt>
      <trkpt lat="49.88147" lon="2.24367">
        <ele>33.2</ele>
        <time>2023-06-23T12:54:27Z</time>
      </trkpt>
      <trkpt lat="49.88148" lon="2.24368">
        <ele>33.3</ele>
        <time>2023-06-23T12:54:28Z</time>
      </trkpt>
      <trkpt lat="49.88149" lon="2.2437">
        <ele>33.3</ele>
        <time>2023-06-23T12:54:30Z</time>
      </trkpt>
      <trkpt lat="49.88149" lon="2.24371">
        <ele>33.3</ele>
        <time>2023-06-23T12:54:31Z</time>
      </trkpt>
      <trkpt lat="49.8815" lon="2.24373">
        <ele>33.3</ele>
        <time>2023-06-23T12:54:32Z</time>
      </trkpt>
      <trkpt lat="49.8815" lon="2.24374">
        <ele>33.3</ele>
        <time>2023-06-23T12:54:33Z</time>
      </trkpt>
      <trkpt lat="49.88151" lon="2.24374">
        <ele>33.3</ele>
        <time>2023-06-23T12:54:34Z</time>
      </trkpt>
      <trkpt lat="49.88151" lon="2.24374">
        <ele>33.3</ele>
        <time>2023-06-23T12:54:35Z</time>
      </trkpt>
      <trkpt lat="49.88152" lon="2.24373">
        <ele>33.3</ele>
        <time>2023-06-23T12:54:37Z</time>
      </trkpt>
      <trkpt lat="49.88152" lon="2.24371">
        <ele>33.3</ele>
        <time>2023-06-23T12:54:38Z</time>
      </trkpt>
      <trkpt lat="49.88153" lon="2.24369">
        <ele>33.3</ele>
        <time>2023-06-23T12:54:39Z</time>
      </trkpt>
      <trkpt lat="49.88153" lon="2.24367">
        <ele>33.3</ele>
        <time>2023-06-23T12:54:40Z</time>
      </trkpt>
      <trkpt lat="49.88154" lon="2.24365">
        <ele>33.3</ele>
        <time>2023-06-23T12:54:41Z</time>
      </trkpt>
      <trkpt lat="49.88155" lon="2.24364">
        <ele>33.3</ele>
        <time>2023-06-23T12:54:43Z</time>
      </trkpt>
      <trkpt lat="49.88156" lon="2.24363">
        <ele>33.3</ele>
        <time>2023-06-23T12:54:44Z</time>
      </trkpt>
      <trkpt lat="49.88157" lon="2.24362">
        <ele>33.3</ele>
        <time>2023-06-23T12:54:45Z</time>
      </trkpt>
      <trkpt lat="49.88157" lon="2.24361">
        <ele>33.3</ele>
        <time>2023-06-23T12:54:46Z</time>
      </trkpt>
      <trkpt lat="49.88158" lon="2.2436">
        <ele>33.3</ele>
        <time>2023-06-23T12:54:47Z</time>
      </trkpt>
      <trkpt lat="49.88158" lon="2.2436">
        <ele>33.3</ele>
        <time>2023-06-23T12:54:48Z</time>
      </trkpt>
      <trkpt lat="49.88159" lon="2.24361">
        <ele>33.3</ele>
        <time>2023-06-23T12:54:50Z</time>
      </trkpt>
      <trkpt lat="49.88159" lon="2.24361">
        <ele>33.3</ele>
        <time>2023-06-23T12:54:51Z</time>
      </trkpt>
      <trkpt lat="49.88159" lon="2.24361">
        <ele>33.3</ele>
        <time>2023-06-23T12:54:52Z</time>
      </trkpt>
      <trkpt lat="49.88159" lon="2.24362">
        <ele>33.3</ele>
        <time>2023-06-23T12:54:54Z</time>
      </trkpt>
      <trkpt lat="49.88159" lon="2.24362">
        <ele>33.3</ele>
        <time>2023-06-23T12:54:55Z</time>
      </trkpt>
      <trkpt lat="49.88159" lon="2.24363">
        <ele>33.3</ele>
        <time>2023-06-23T12:54:57Z</time>
      </trkpt>
      <trkpt lat="49.88159" lon="2.24363">
        <ele>33.3</ele>
        <time>2023-06-23T12:54:58Z</time>
      </trkpt>
      <trkpt lat="49.88159" lon="2.24363">
        <ele>33.3</ele>
        <time>2023-06-23T12:55:00Z</time>
      </trkpt>
      <trkpt lat="49.88159" lon="2.24364">
        <ele>33.3</ele>
        <time>2023-06-23T12:55:01Z</time>
      </trkpt>
      <trkpt lat="49.88159" lon="2.24364">
        <ele>33.3</ele>
        <time>2023-06-23T12:55:03Z</time>
      </trkpt>
      <trkpt lat="49.88159" lon="2.24365">
        <ele>33.3</ele>
        <time>2023-06-23T12:55:05Z</time>
      </trkpt>
      <trkpt lat="49.88159" lon="2.24365">
        <ele>33.3</ele>
        <time>2023-06-23T12:55:06Z</time>
      </trkpt>
      <trkpt lat="49.88159" lon="2.24365">
        <ele>33.3</ele>
        <time>2023-06-23T12:55:07Z</time>
      </trkpt>
      <trkpt lat="49.8816" lon="2.24367">
        <ele>33.3</ele>
        <time>2023-06-23T12:55:08Z</time>
      </trkpt>
      <trkpt lat="49.8816" lon="2.24369">
        <ele>33.3</ele>
        <time>2023-06-23T12:55:09Z</time>
      </trkpt>
      <trkpt lat="49.8816" lon="2.24372">
        <ele>33.3</ele>
        <time>2023-06-23T12:55:11Z</time>
      </trkpt>
      <trkpt lat="49.8816" lon="2.24373">
        <ele>33.3</ele>
        <time>2023-06-23T12:55:12Z</time>
      </trkpt>
      <trkpt lat="49.8816" lon="2.24374">
        <ele>33.3</ele>
        <time>2023-06-23T12:55:13Z</time>
      </trkpt>
      <trkpt lat="49.88159" lon="2.24375">
        <ele>33.3</ele>
        <time>2023-06-23T12:55:15Z</time>
      </trkpt>
      <trkpt lat="49.88159" lon="2.24376">
        <ele>33.3</ele>
        <time>2023-06-23T12:55:16Z</time>
      </trkpt>
      <trkpt lat="49.88159" lon="2.24376">
        <ele>33.3</ele>
        <time>2023-06-23T12:55:17Z</time>
      </trkpt>
      <trkpt lat="49.88159" lon="2.24377">
        <ele>33.3</ele>
        <time>2023-06-23T12:55:19Z</time>
      </trkpt>
      <trkpt lat="49.8816" lon="2.24378">
        <ele>33.3</ele>
        <time>2023-06-23T12:55:20Z</time>
      </trkpt>
      <trkpt lat="49.8816" lon="2.24379">
        <ele>33.3</ele>
        <time>2023-06-23T12:55:21Z</time>
      </trkpt>
      <trkpt lat="49.8816" lon="2.24379">
        <ele>33.3</ele>
        <time>2023-06-23T12:55:22Z</time>
      </trkpt>
      <trkpt lat="49.88161" lon="2.2438">
        <ele>33.3</ele>
        <time>2023-06-23T12:55:23Z</time>
      </trkpt>
      <trkpt lat="49.88163" lon="2.24382">
        <ele>33.3</ele>
        <time>2023-06-23T12:55:25Z</time>
      </trkpt>
      <trkpt lat="49.88164" lon="2.24382">
        <ele>33.3</ele>
        <time>2023-06-23T12:55:26Z</time>
      </trkpt>
      <trkpt lat="49.88165" lon="2.24383">
        <ele>33.3</ele>
        <time>2023-06-23T12:55:27Z</time>
      </trkpt>
      <trkpt lat="49.88168" lon="2.24383">
        <ele>33.3</ele>
        <time>2023-06-23T12:55:28Z</time>
      </trkpt>
      <trkpt lat="49.88169" lon="2.24383">
        <ele>33.3</ele>
        <time>2023-06-23T12:55:29Z</time>
      </trkpt>
      <trkpt lat="49.88173" lon="2.24383">
        <ele>33.3</ele>
        <time>2023-06-23T12:55:30Z</time>
      </trkpt>
      <trkpt lat="49.88174" lon="2.24383">
        <ele>33.3</ele>
        <time>2023-06-23T12:55:31Z</time>
      </trkpt>
      <trkpt lat="49.88177" lon="2.24383">
        <ele>33.3</ele>
        <time>2023-06-23T12:55:32Z</time>
      </trkpt>
      <trkpt lat="49.88178" lon="2.24384">
        <ele>33.2</ele>
        <time>2023-06-23T12:55:33Z</time>
      </trkpt>
      <trkpt lat="49.88181" lon="2.24384">
        <ele>33.2</ele>
        <time>2023-06-23T12:55:35Z</time>
      </trkpt>
      <trkpt lat="49.88182" lon="2.24385">
        <ele>33.2</ele>
        <time>2023-06-23T12:55:36Z</time>
      </trkpt>
      <trkpt lat="49.88184" lon="2.24385">
        <ele>33.2</ele>
        <time>2023-06-23T12:55:37Z</time>
      </trkpt>
      <trkpt lat="49.88185" lon="2.24386">
        <ele>33.2</ele>
        <time>2023-06-23T12:55:38Z</time>
      </trkpt>
      <trkpt lat="49.88187" lon="2.24387">
        <ele>33.2</ele>
        <time>2023-06-23T12:55:39Z</time>
      </trkpt>
      <trkpt lat="49.88189" lon="2.24387">
        <ele>33.1</ele>
        <time>2023-06-23T12:55:40Z</time>
      </trkpt>
      <trkpt lat="49.8819" lon="2.24388">
        <ele>33.1</ele>
        <time>2023-06-23T12:55:41Z</time>
      </trkpt>
      <trkpt lat="49.88192" lon="2.24388">
        <ele>33.1</ele>
        <time>2023-06-23T12:55:43Z</time>
      </trkpt>
      <trkpt lat="49.88193" lon="2.24389">
        <ele>33.1</ele>
        <time>2023-06-23T12:55:44Z</time>
      </trkpt>
      <trkpt lat="49.88195" lon="2.24389">
        <ele>33.1</ele>
        <time>2023-06-23T12:55:45Z</time>
      </trkpt>
      <trkpt lat="49.88197" lon="2.2439">
        <ele>33</ele>
        <time>2023-06-23T12:55:46Z</time>
      </trkpt>
      <trkpt lat="49.88198" lon="2.24391">
        <ele>33</ele>
        <time>2023-06-23T12:55:47Z</time>
      </trkpt>
      <trkpt lat="49.882" lon="2.24392">
        <ele>33</ele>
        <time>2023-06-23T12:55:48Z</time>
      </trkpt>
      <trkpt lat="49.88201" lon="2.24393">
        <ele>33</ele>
        <time>2023-06-23T12:55:49Z</time>
      </trkpt>
      <trkpt lat="49.88202" lon="2.24394">
        <ele>33</ele>
        <time>2023-06-23T12:55:50Z</time>
      </trkpt>
      <trkpt lat="49.88203" lon="2.24395">
        <ele>32.9</ele>
        <time>2023-06-23T12:55:51Z</time>
      </trkpt>
      <trkpt lat="49.88204" lon="2.24397">
        <ele>32.9</ele>
        <time>2023-06-23T12:55:52Z</time>
      </trkpt>
      <trkpt lat="49.88205" lon="2.24398">
        <ele>32.9</ele>
        <time>2023-06-23T12:55:53Z</time>
      </trkpt>
      <trkpt lat="49.88207" lon="2.244">
        <ele>32.9</ele>
        <time>2023-06-23T12:55:54Z</time>
      </trkpt>
      <trkpt lat="49.88208" lon="2.24401">
        <ele>32.9</ele>
        <time>2023-06-23T12:55:55Z</time>
      </trkpt>
      <trkpt lat="49.88208" lon="2.24402">
        <ele>32.9</ele>
        <time>2023-06-23T12:55:56Z</time>
      </trkpt>
      <trkpt lat="49.8821" lon="2.24404">
        <ele>32.8</ele>
        <time>2023-06-23T12:55:58Z</time>
      </trkpt>
      <trkpt lat="49.88211" lon="2.24405">
        <ele>32.8</ele>
        <time>2023-06-23T12:55:59Z</time>
      </trkpt>
      <trkpt lat="49.88211" lon="2.24406">
        <ele>32.8</ele>
        <time>2023-06-23T12:56:00Z</time>
      </trkpt>
      <trkpt lat="49.88212" lon="2.24407">
        <ele>32.8</ele>
        <time>2023-06-23T12:56:01Z</time>
      </trkpt>
      <trkpt lat="49.88213" lon="2.24409">
        <ele>32.8</ele>
        <time>2023-06-23T12:56:02Z</time>
      </trkpt>
      <trkpt lat="49.88215" lon="2.2441">
        <ele>32.7</ele>
        <time>2023-06-23T12:56:03Z</time>
      </trkpt>
      <trkpt lat="49.88216" lon="2.2441">
        <ele>32.7</ele>
        <time>2023-06-23T12:56:04Z</time>
      </trkpt>
      <trkpt lat="49.88218" lon="2.24411">
        <ele>32.7</ele>
        <time>2023-06-23T12:56:05Z</time>
      </trkpt>
      <trkpt lat="49.88219" lon="2.2441">
        <ele>32.7</ele>
        <time>2023-06-23T12:56:06Z</time>
      </trkpt>
      <trkpt lat="49.8822" lon="2.2441">
        <ele>32.7</ele>
        <time>2023-06-23T12:56:07Z</time>
      </trkpt>
      <trkpt lat="49.88221" lon="2.2441">
        <ele>32.7</ele>
        <time>2023-06-23T12:56:08Z</time>
      </trkpt>
      <trkpt lat="49.88223" lon="2.24411">
        <ele>32.6</ele>
        <time>2023-06-23T12:56:09Z</time>
      </trkpt>
      <trkpt lat="49.88224" lon="2.2441">
        <ele>32.6</ele>
        <time>2023-06-23T12:56:11Z</time>
      </trkpt>
      <trkpt lat="49.88226" lon="2.2441">
        <ele>32.6</ele>
        <time>2023-06-23T12:56:12Z</time>
      </trkpt>
      <trkpt lat="49.88227" lon="2.24409">
        <ele>32.6</ele>
        <time>2023-06-23T12:56:13Z</time>
      </trkpt>
      <trkpt lat="49.88228" lon="2.24409">
        <ele>32.6</ele>
        <time>2023-06-23T12:56:14Z</time>
      </trkpt>
      <trkpt lat="49.8823" lon="2.24408">
        <ele>32.5</ele>
        <time>2023-06-23T12:56:15Z</time>
      </trkpt>
      <trkpt lat="49.88231" lon="2.24408">
        <ele>32.5</ele>
        <time>2023-06-23T12:56:16Z</time>
      </trkpt>
      <trkpt lat="49.88233" lon="2.24407">
        <ele>32.5</ele>
        <time>2023-06-23T12:56:18Z</time>
      </trkpt>
      <trkpt lat="49.88234" lon="2.24407">
        <ele>32.5</ele>
        <time>2023-06-23T12:56:19Z</time>
      </trkpt>
      <trkpt lat="49.88236" lon="2.24406">
        <ele>32.5</ele>
        <time>2023-06-23T12:56:20Z</time>
      </trkpt>
      <trkpt lat="49.88237" lon="2.24406">
        <ele>32.4</ele>
        <time>2023-06-23T12:56:21Z</time>
      </trkpt>
      <trkpt lat="49.88238" lon="2.24406">
        <ele>32.4</ele>
        <time>2023-06-23T12:56:22Z</time>
      </trkpt>
      <trkpt lat="49.8824" lon="2.24406">
        <ele>32.4</ele>
        <time>2023-06-23T12:56:23Z</time>
      </trkpt>
      <trkpt lat="49.88241" lon="2.24406">
        <ele>32.4</ele>
        <time>2023-06-23T12:56:24Z</time>
      </trkpt>
      <trkpt lat="49.88242" lon="2.24406">
        <ele>32.4</ele>
        <time>2023-06-23T12:56:25Z</time>
      </trkpt>
      <trkpt lat="49.88244" lon="2.24405">
        <ele>32.3</ele>
        <time>2023-06-23T12:56:26Z</time>
      </trkpt>
      <trkpt lat="49.88245" lon="2.24405">
        <ele>32.6</ele>
        <time>2023-06-23T12:56:28Z</time>
      </trkpt>
      <trkpt lat="49.88246" lon="2.24405">
        <ele>32.6</ele>
        <time>2023-06-23T12:56:29Z</time>
      </trkpt>
      <trkpt lat="49.88247" lon="2.24405">
        <ele>32.6</ele>
        <time>2023-06-23T12:56:30Z</time>
      </trkpt>
      <trkpt lat="49.88248" lon="2.24404">
        <ele>32.7</ele>
        <time>2023-06-23T12:56:31Z</time>
      </trkpt>
      <trkpt lat="49.88249" lon="2.24404">
        <ele>32.7</ele>
        <time>2023-06-23T12:56:32Z</time>
      </trkpt>
      <trkpt lat="49.8825" lon="2.24403">
        <ele>32.8</ele>
        <time>2023-06-23T12:56:33Z</time>
      </trkpt>
      <trkpt lat="49.88251" lon="2.24401">
        <ele>32.8</ele>
        <time>2023-06-23T12:56:34Z</time>
      </trkpt>
      <trkpt lat="49.88252" lon="2.24399">
        <ele>32.9</ele>
        <time>2023-06-23T12:56:36Z</time>
      </trkpt>
      <trkpt lat="49.88253" lon="2.24397">
        <ele>33</ele>
        <time>2023-06-23T12:56:37Z</time>
      </trkpt>
      <trkpt lat="49.88253" lon="2.24395">
        <ele>33</ele>
        <time>2023-06-23T12:56:38Z</time>
      </trkpt>
      <trkpt lat="49.88253" lon="2.24394">
        <ele>33</ele>
        <time>2023-06-23T12:56:40Z</time>
      </trkpt>
      <trkpt lat="49.88253" lon="2.24393">
        <ele>33.1</ele>
        <time>2023-06-23T12:56:41Z</time>
      </trkpt>
      <trkpt lat="49.88252" lon="2.24391">
        <ele>33.1</ele>
        <time>2023-06-23T12:56:42Z</time>
      </trkpt>
      <trkpt lat="49.88252" lon="2.2439">
        <ele>33.1</ele>
        <time>2023-06-23T12:56:43Z</time>
      </trkpt>
      <trkpt lat="49.88251" lon="2.24389">
        <ele>33.2</ele>
        <time>2023-06-23T12:56:44Z</time>
      </trkpt>
      <trkpt lat="49.8825" lon="2.24386">
        <ele>33.3</ele>
        <time>2023-06-23T12:56:45Z</time>
      </trkpt>
      <trkpt lat="49.8825" lon="2.24384">
        <ele>33.3</ele>
        <time>2023-06-23T12:56:47Z</time>
      </trkpt>
      <trkpt lat="49.8825" lon="2.24383">
        <ele>33.3</ele>
        <time>2023-06-23T12:56:48Z</time>
      </trkpt>
      <trkpt lat="49.88249" lon="2.24381">
        <ele>33.4</ele>
        <time>2023-06-23T12:56:49Z</time>
      </trkpt>
      <trkpt lat="49.88249" lon="2.2438">
        <ele>33.4</ele>
        <time>2023-06-23T12:56:50Z</time>
      </trkpt>
      <trkpt lat="49.88249" lon="2.24378">
        <ele>33.5</ele>
        <time>2023-06-23T12:56:51Z</time>
      </trkpt>
      <trkpt lat="49.88249" lon="2.24377">
        <ele>33.5</ele>
        <time>2023-06-23T12:56:52Z</time>
      </trkpt>
      <trkpt lat="49.88248" lon="2.24376">
        <ele>33.5</ele>
        <time>2023-06-23T12:56:53Z</time>
      </trkpt>
      <trkpt lat="49.88248" lon="2.24375">
        <ele>33.6</ele>
        <time>2023-06-23T12:56:54Z</time>
      </trkpt>
      <trkpt lat="49.88248" lon="2.24373">
        <ele>33.6</ele>
        <time>2023-06-23T12:56:55Z</time>
      </trkpt>
      <trkpt lat="49.88249" lon="2.24371">
        <ele>33.7</ele>
        <time>2023-06-23T12:56:56Z</time>
      </trkpt>
      <trkpt lat="49.88249" lon="2.2437">
        <ele>33.7</ele>
        <time>2023-06-23T12:56:58Z</time>
      </trkpt>
      <trkpt lat="49.88249" lon="2.24369">
        <ele>33.7</ele>
        <time>2023-06-23T12:56:59Z</time>
      </trkpt>
      <trkpt lat="49.88249" lon="2.24368">
        <ele>33.7</ele>
        <time>2023-06-23T12:57:00Z</time>
      </trkpt>
      <trkpt lat="49.88249" lon="2.24366">
        <ele>33.8</ele>
        <time>2023-06-23T12:57:01Z</time>
      </trkpt>
      <trkpt lat="49.8825" lon="2.24365">
        <ele>33.8</ele>
        <time>2023-06-23T12:57:02Z</time>
      </trkpt>
      <trkpt lat="49.8825" lon="2.24363">
        <ele>33.8</ele>
        <time>2023-06-23T12:57:03Z</time>
      </trkpt>
      <trkpt lat="49.8825" lon="2.24362">
        <ele>33.9</ele>
        <time>2023-06-23T12:57:04Z</time>
      </trkpt>
      <trkpt lat="49.8825" lon="2.2436">
        <ele>33.9</ele>
        <time>2023-06-23T12:57:05Z</time>
      </trkpt>
      <trkpt lat="49.8825" lon="2.24359">
        <ele>34</ele>
        <time>2023-06-23T12:57:06Z</time>
      </trkpt>
      <trkpt lat="49.8825" lon="2.24357">
        <ele>34</ele>
        <time>2023-06-23T12:57:07Z</time>
      </trkpt>
      <trkpt lat="49.8825" lon="2.24356">
        <ele>34.1</ele>
        <time>2023-06-23T12:57:08Z</time>
      </trkpt>
      <trkpt lat="49.8825" lon="2.24354">
        <ele>34.1</ele>
        <time>2023-06-23T12:57:10Z</time>
      </trkpt>
      <trkpt lat="49.8825" lon="2.24353">
        <ele>34.1</ele>
        <time>2023-06-23T12:57:11Z</time>
      </trkpt>
      <trkpt lat="49.88249" lon="2.24351">
        <ele>34.2</ele>
        <time>2023-06-23T12:57:12Z</time>
      </trkpt>
      <trkpt lat="49.88249" lon="2.24349">
        <ele>34.2</ele>
        <time>2023-06-23T12:57:13Z</time>
      </trkpt>
      <trkpt lat="49.88249" lon="2.24347">
        <ele>34.3</ele>
        <time>2023-06-23T12:57:14Z</time>
      </trkpt>
      <trkpt lat="49.88249" lon="2.24345">
        <ele>34.4</ele>
        <time>2023-06-23T12:57:15Z</time>
      </trkpt>
      <trkpt lat="49.88249" lon="2.24344">
        <ele>34.4</ele>
        <time>2023-06-23T12:57:16Z</time>
      </trkpt>
      <trkpt lat="49.8825" lon="2.24341">
        <ele>34.5</ele>
        <time>2023-06-23T12:57:17Z</time>
      </trkpt>
      <trkpt lat="49.8825" lon="2.24339">
        <ele>34.6</ele>
        <time>2023-06-23T12:57:18Z</time>
      </trkpt>
      <trkpt lat="49.8825" lon="2.24338">
        <ele>34.6</ele>
        <time>2023-06-23T12:57:19Z</time>
      </trkpt>
      <trkpt lat="49.8825" lon="2.24335">
        <ele>34.7</ele>
        <time>2023-06-23T12:57:21Z</time>
      </trkpt>
      <trkpt lat="49.8825" lon="2.24333">
        <ele>34.7</ele>
        <time>2023-06-23T12:57:22Z</time>
      </trkpt>
      <trkpt lat="49.8825" lon="2.24332">
        <ele>34.8</ele>
        <time>2023-06-23T12:57:23Z</time>
      </trkpt>
      <trkpt lat="49.88251" lon="2.2433">
        <ele>34.8</ele>
        <time>2023-06-23T12:57:24Z</time>
      </trkpt>
      <trkpt lat="49.88251" lon="2.24329">
        <ele>34.9</ele>
        <time>2023-06-23T12:57:25Z</time>
      </trkpt>
      <trkpt lat="49.88251" lon="2.24327">
        <ele>34.9</ele>
        <time>2023-06-23T12:57:27Z</time>
      </trkpt>
      <trkpt lat="49.88251" lon="2.24325">
        <ele>35</ele>
        <time>2023-06-23T12:57:28Z</time>
      </trkpt>
      <trkpt lat="49.88251" lon="2.24323">
        <ele>35</ele>
        <time>2023-06-23T12:57:29Z</time>
      </trkpt>
      <trkpt lat="49.88251" lon="2.24321">
        <ele>35.1</ele>
        <time>2023-06-23T12:57:30Z</time>
      </trkpt>
      <trkpt lat="49.88251" lon="2.24318">
        <ele>35.2</ele>
        <time>2023-06-23T12:57:31Z</time>
      </trkpt>
      <trkpt lat="49.88251" lon="2.24317">
        <ele>35.3</ele>
        <time>2023-06-23T12:57:32Z</time>
      </trkpt>
      <trkpt lat="49.88251" lon="2.24315">
        <ele>35.3</ele>
        <time>2023-06-23T12:57:33Z</time>
      </trkpt>
      <trkpt lat="49.88251" lon="2.24312">
        <ele>35.4</ele>
        <time>2023-06-23T12:57:34Z</time>
      </trkpt>
      <trkpt lat="49.88251" lon="2.2431">
        <ele>35.5</ele>
        <time>2023-06-23T12:57:35Z</time>
      </trkpt>
      <trkpt lat="49.88251" lon="2.24309">
        <ele>35.5</ele>
        <time>2023-06-23T12:57:37Z</time>
      </trkpt>
      <trkpt lat="49.88251" lon="2.24307">
        <ele>35.6</ele>
        <time>2023-06-23T12:57:38Z</time>
      </trkpt>
      <trkpt lat="49.88251" lon="2.24306">
        <ele>35.6</ele>
        <time>2023-06-23T12:57:39Z</time>
      </trkpt>
      <trkpt lat="49.88251" lon="2.24304">
        <ele>35.7</ele>
        <time>2023-06-23T12:57:40Z</time>
      </trkpt>
      <trkpt lat="49.88251" lon="2.24301">
        <ele>35.8</ele>
        <time>2023-06-23T12:57:41Z</time>
      </trkpt>
      <trkpt lat="49.88251" lon="2.24299">
        <ele>35.8</ele>
        <time>2023-06-23T12:57:42Z</time>
      </trkpt>
      <trkpt lat="49.88251" lon="2.24298">
        <ele>35.9</ele>
        <time>2023-06-23T12:57:43Z</time>
      </trkpt>
      <trkpt lat="49.88251" lon="2.24297">
        <ele>35.9</ele>
        <time>2023-06-23T12:57:44Z</time>
      </trkpt>
      <trkpt lat="49.88251" lon="2.24295">
        <ele>36</ele>
        <time>2023-06-23T12:57:45Z</time>
      </trkpt>
      <trkpt lat="49.88251" lon="2.24292">
        <ele>36.1</ele>
        <time>2023-06-23T12:57:47Z</time>
      </trkpt>
      <trkpt lat="49.88251" lon="2.24288">
        <ele>36.2</ele>
        <time>2023-06-23T12:57:48Z</time>
      </trkpt>
      <trkpt lat="49.88251" lon="2.24287">
        <ele>36.3</ele>
        <time>2023-06-23T12:57:49Z</time>
      </trkpt>
      <trkpt lat="49.88251" lon="2.24286">
        <ele>36.3</ele>
        <time>2023-06-23T12:57:50Z</time>
      </trkpt>
      <trkpt lat="49.88251" lon="2.24284">
        <ele>36.4</ele>
        <time>2023-06-23T12:57:51Z</time>
      </trkpt>
      <trkpt lat="49.88251" lon="2.24282">
        <ele>36.5</ele>
        <time>2023-06-23T12:57:52Z</time>
      </trkpt>
      <trkpt lat="49.88251" lon="2.2428">
        <ele>36.5</ele>
        <time>2023-06-23T12:57:54Z</time>
      </trkpt>
      <trkpt lat="49.8825" lon="2.24278">
        <ele>36.6</ele>
        <time>2023-06-23T12:57:55Z</time>
      </trkpt>
      <trkpt lat="49.8825" lon="2.24276">
        <ele>36.7</ele>
        <time>2023-06-23T12:57:56Z</time>
      </trkpt>
      <trkpt lat="49.8825" lon="2.24274">
        <ele>36.8</ele>
        <time>2023-06-23T12:57:57Z</time>
      </trkpt>
      <trkpt lat="49.8825" lon="2.24272">
        <ele>36.8</ele>
        <time>2023-06-23T12:57:58Z</time>
      </trkpt>
      <trkpt lat="49.88251" lon="2.24271">
        <ele>36.9</ele>
        <time>2023-06-23T12:57:59Z</time>
      </trkpt>
      <trkpt lat="49.8825" lon="2.24269">
        <ele>36.9</ele>
        <time>2023-06-23T12:58:00Z</time>
      </trkpt>
      <trkpt lat="49.8825" lon="2.24268">
        <ele>37</ele>
        <time>2023-06-23T12:58:01Z</time>
      </trkpt>
      <trkpt lat="49.8825" lon="2.24266">
        <ele>37.1</ele>
        <time>2023-06-23T12:58:03Z</time>
      </trkpt>
      <trkpt lat="49.88251" lon="2.24264">
        <ele>37.2</ele>
        <time>2023-06-23T12:58:04Z</time>
      </trkpt>
      <trkpt lat="49.88252" lon="2.24262">
        <ele>37.3</ele>
        <time>2023-06-23T12:58:05Z</time>
      </trkpt>
      <trkpt lat="49.88252" lon="2.2426">
        <ele>38.1</ele>
        <time>2023-06-23T12:58:06Z</time>
      </trkpt>
      <trkpt lat="49.88253" lon="2.24259">
        <ele>38.1</ele>
        <time>2023-06-23T12:58:07Z</time>
      </trkpt>
      <trkpt lat="49.88253" lon="2.24258">
        <ele>38.1</ele>
        <time>2023-06-23T12:58:08Z</time>
      </trkpt>
      <trkpt lat="49.88255" lon="2.24256">
        <ele>38.2</ele>
        <time>2023-06-23T12:58:09Z</time>
      </trkpt>
      <trkpt lat="49.88256" lon="2.24255">
        <ele>38.2</ele>
        <time>2023-06-23T12:58:10Z</time>
      </trkpt>
      <trkpt lat="49.88257" lon="2.24254">
        <ele>38.2</ele>
        <time>2023-06-23T12:58:12Z</time>
      </trkpt>
      <trkpt lat="49.88258" lon="2.24254">
        <ele>38.2</ele>
        <time>2023-06-23T12:58:13Z</time>
      </trkpt>
      <trkpt lat="49.8826" lon="2.24253">
        <ele>38.3</ele>
        <time>2023-06-23T12:58:14Z</time>
      </trkpt>
      <trkpt lat="49.88261" lon="2.24253">
        <ele>38.3</ele>
        <time>2023-06-23T12:58:15Z</time>
      </trkpt>
      <trkpt lat="49.88262" lon="2.24253">
        <ele>38.3</ele>
        <time>2023-06-23T12:58:16Z</time>
      </trkpt>
      <trkpt lat="49.88264" lon="2.24253">
        <ele>38.4</ele>
        <time>2023-06-23T12:58:17Z</time>
      </trkpt>
      <trkpt lat="49.88264" lon="2.24253">
        <ele>38.4</ele>
        <time>2023-06-23T12:58:19Z</time>
      </trkpt>
      <trkpt lat="49.88265" lon="2.24253">
        <ele>38.4</ele>
        <time>2023-06-23T12:58:20Z</time>
      </trkpt>
      <trkpt lat="49.88267" lon="2.24251">
        <ele>38.5</ele>
        <time>2023-06-23T12:58:21Z</time>
      </trkpt>
      <trkpt lat="49.88267" lon="2.2425">
        <ele>38.5</ele>
        <time>2023-06-23T12:58:22Z</time>
      </trkpt>
      <trkpt lat="49.88268" lon="2.24249">
        <ele>38.6</ele>
        <time>2023-06-23T12:58:23Z</time>
      </trkpt>
      <trkpt lat="49.8827" lon="2.24246">
        <ele>38.7</ele>
        <time>2023-06-23T12:58:24Z</time>
      </trkpt>
      <trkpt lat="49.8827" lon="2.24244">
        <ele>38.7</ele>
        <time>2023-06-23T12:58:26Z</time>
      </trkpt>
      <trkpt lat="49.88271" lon="2.24243">
        <ele>38.8</ele>
        <time>2023-06-23T12:58:27Z</time>
      </trkpt>
      <trkpt lat="49.88272" lon="2.24242">
        <ele>38.8</ele>
        <time>2023-06-23T12:58:28Z</time>
      </trkpt>
      <trkpt lat="49.88273" lon="2.24241">
        <ele>38.9</ele>
        <time>2023-06-23T12:58:29Z</time>
      </trkpt>
      <trkpt lat="49.88274" lon="2.2424">
        <ele>38.9</ele>
        <time>2023-06-23T12:58:30Z</time>
      </trkpt>
      <trkpt lat="49.88276" lon="2.24238">
        <ele>39</ele>
        <time>2023-06-23T12:58:32Z</time>
      </trkpt>
      <trkpt lat="49.88277" lon="2.24238">
        <ele>39.1</ele>
        <time>2023-06-23T12:58:34Z</time>
      </trkpt>
      <trkpt lat="49.88278" lon="2.24237">
        <ele>39.1</ele>
        <time>2023-06-23T12:58:35Z</time>
      </trkpt>
      <trkpt lat="49.88278" lon="2.24237">
        <ele>39.2</ele>
        <time>2023-06-23T12:58:36Z</time>
      </trkpt>
      <trkpt lat="49.88279" lon="2.24236">
        <ele>39.2</ele>
        <time>2023-06-23T12:58:38Z</time>
      </trkpt>
      <trkpt lat="49.88279" lon="2.24235">
        <ele>39.2</ele>
        <time>2023-06-23T12:58:39Z</time>
      </trkpt>
      <trkpt lat="49.88279" lon="2.24234">
        <ele>39.3</ele>
        <time>2023-06-23T12:58:40Z</time>
      </trkpt>
      <trkpt lat="49.8828" lon="2.24233">
        <ele>39.3</ele>
        <time>2023-06-23T12:58:41Z</time>
      </trkpt>
      <trkpt lat="49.8828" lon="2.24232">
        <ele>39.3</ele>
        <time>2023-06-23T12:58:43Z</time>
      </trkpt>
      <trkpt lat="49.88281" lon="2.24231">
        <ele>39.4</ele>
        <time>2023-06-23T12:58:44Z</time>
      </trkpt>
      <trkpt lat="49.88282" lon="2.2423">
        <ele>39.4</ele>
        <time>2023-06-23T12:58:45Z</time>
      </trkpt>
      <trkpt lat="49.88282" lon="2.24229">
        <ele>39.5</ele>
        <time>2023-06-23T12:58:46Z</time>
      </trkpt>
      <trkpt lat="49.88283" lon="2.24229">
        <ele>39.5</ele>
        <time>2023-06-23T12:58:47Z</time>
      </trkpt>
      <trkpt lat="49.88283" lon="2.24229">
        <ele>39.6</ele>
        <time>2023-06-23T12:58:48Z</time>
      </trkpt>
      <trkpt lat="49.88284" lon="2.24229">
        <ele>39.6</ele>
        <time>2023-06-23T12:58:50Z</time>
      </trkpt>
      <trkpt lat="49.88284" lon="2.2423">
        <ele>39.6</ele>
        <time>2023-06-23T12:58:51Z</time>
      </trkpt>
      <trkpt lat="49.88285" lon="2.24232">
        <ele>39.7</ele>
        <time>2023-06-23T12:58:52Z</time>
      </trkpt>
      <trkpt lat="49.88286" lon="2.24233">
        <ele>39.7</ele>
        <time>2023-06-23T12:58:53Z</time>
      </trkpt>
      <trkpt lat="49.88286" lon="2.24235">
        <ele>39.8</ele>
        <time>2023-06-23T12:58:55Z</time>
      </trkpt>
      <trkpt lat="49.88287" lon="2.24237">
        <ele>39.9</ele>
        <time>2023-06-23T12:58:56Z</time>
      </trkpt>
      <trkpt lat="49.88287" lon="2.24239">
        <ele>40</ele>
        <time>2023-06-23T12:58:57Z</time>
      </trkpt>
      <trkpt lat="49.88287" lon="2.2424">
        <ele>40</ele>
        <time>2023-06-23T12:58:58Z</time>
      </trkpt>
      <trkpt lat="49.88287" lon="2.24241">
        <ele>40.1</ele>
        <time>2023-06-23T12:58:59Z</time>
      </trkpt>
      <trkpt lat="49.88287" lon="2.24243">
        <ele>40.1</ele>
        <time>2023-06-23T12:59:00Z</time>
      </trkpt>
      <trkpt lat="49.88287" lon="2.24244">
        <ele>40.2</ele>
        <time>2023-06-23T12:59:02Z</time>
      </trkpt>
      <trkpt lat="49.88287" lon="2.24244">
        <ele>40.2</ele>
        <time>2023-06-23T12:59:03Z</time>
      </trkpt>
      <trkpt lat="49.88286" lon="2.24243">
        <ele>40.2</ele>
        <time>2023-06-23T12:59:04Z</time>
      </trkpt>
      <trkpt lat="49.88286" lon="2.24243">
        <ele>40.2</ele>
        <time>2023-06-23T12:59:06Z</time>
      </trkpt>
      <trkpt lat="49.88285" lon="2.24243">
        <ele>40.3</ele>
        <time>2023-06-23T12:59:07Z</time>
      </trkpt>
      <trkpt lat="49.88284" lon="2.24243">
        <ele>40.3</ele>
        <time>2023-06-23T12:59:08Z</time>
      </trkpt>
      <trkpt lat="49.88284" lon="2.24244">
        <ele>40.4</ele>
        <time>2023-06-23T12:59:09Z</time>
      </trkpt>
      <trkpt lat="49.88283" lon="2.24244">
        <ele>40.4</ele>
        <time>2023-06-23T12:59:10Z</time>
      </trkpt>
      <trkpt lat="49.88282" lon="2.24244">
        <ele>40.4</ele>
        <time>2023-06-23T12:59:12Z</time>
      </trkpt>
      <trkpt lat="49.88282" lon="2.24244">
        <ele>40.5</ele>
        <time>2023-06-23T12:59:13Z</time>
      </trkpt>
      <trkpt lat="49.88281" lon="2.24244">
        <ele>40.5</ele>
        <time>2023-06-23T12:59:14Z</time>
      </trkpt>
      <trkpt lat="49.88281" lon="2.24245">
        <ele>40.6</ele>
        <time>2023-06-23T12:59:16Z</time>
      </trkpt>
      <trkpt lat="49.8828" lon="2.24245">
        <ele>40.6</ele>
        <time>2023-06-23T12:59:17Z</time>
      </trkpt>
      <trkpt lat="49.88279" lon="2.24245">
        <ele>40.6</ele>
        <time>2023-06-23T12:59:18Z</time>
      </trkpt>
      <trkpt lat="49.88279" lon="2.24245">
        <ele>40.7</ele>
        <time>2023-06-23T12:59:20Z</time>
      </trkpt>
      <trkpt lat="49.88278" lon="2.24245">
        <ele>40.7</ele>
        <time>2023-06-23T12:59:21Z</time>
      </trkpt>
      <trkpt lat="49.88277" lon="2.24246">
        <ele>40.8</ele>
        <time>2023-06-23T12:59:23Z</time>
      </trkpt>
      <trkpt lat="49.88277" lon="2.24246">
        <ele>40.8</ele>
        <time>2023-06-23T12:59:24Z</time>
      </trkpt>
      <trkpt lat="49.88276" lon="2.24246">
        <ele>40.8</ele>
        <time>2023-06-23T12:59:25Z</time>
      </trkpt>
      <trkpt lat="49.88275" lon="2.24246">
        <ele>40.9</ele>
        <time>2023-06-23T12:59:27Z</time>
      </trkpt>
      <trkpt lat="49.88273" lon="2.24246">
        <ele>41</ele>
        <time>2023-06-23T12:59:28Z</time>
      </trkpt>
      <trkpt lat="49.88272" lon="2.24246">
        <ele>41.1</ele>
        <time>2023-06-23T12:59:29Z</time>
      </trkpt>
      <trkpt lat="49.88271" lon="2.24247">
        <ele>41.2</ele>
        <time>2023-06-23T12:59:30Z</time>
      </trkpt>
      <trkpt lat="49.88269" lon="2.24247">
        <ele>41.3</ele>
        <time>2023-06-23T12:59:31Z</time>
      </trkpt>
      <trkpt lat="49.88268" lon="2.24247">
        <ele>41.3</ele>
        <time>2023-06-23T12:59:32Z</time>
      </trkpt>
      <trkpt lat="49.88267" lon="2.24245">
        <ele>41.4</ele>
        <time>2023-06-23T12:59:34Z</time>
      </trkpt>
      <trkpt lat="49.88267" lon="2.24244">
        <ele>41.4</ele>
        <time>2023-06-23T12:59:35Z</time>
      </trkpt>
      <trkpt lat="49.88267" lon="2.24242">
        <ele>41.5</ele>
        <time>2023-06-23T12:59:36Z</time>
      </trkpt>
      <trkpt lat="49.88268" lon="2.2424">
        <ele>41.6</ele>
        <time>2023-06-23T12:59:37Z</time>
      </trkpt>
      <trkpt lat="49.88268" lon="2.24238">
        <ele>41.7</ele>
        <time>2023-06-23T12:59:39Z</time>
      </trkpt>
      <trkpt lat="49.88269" lon="2.24237">
        <ele>41.8</ele>
        <time>2023-06-23T12:59:40Z</time>
      </trkpt>
      <trkpt lat="49.8827" lon="2.24235">
        <ele>41.9</ele>
        <time>2023-06-23T12:59:41Z</time>
      </trkpt>
      <trkpt lat="49.88271" lon="2.24233">
        <ele>41.9</ele>
        <time>2023-06-23T12:59:42Z</time>
      </trkpt>
      <trkpt lat="49.88273" lon="2.24232">
        <ele>42</ele>
        <time>2023-06-23T12:59:43Z</time>
      </trkpt>
      <trkpt lat="49.88274" lon="2.24231">
        <ele>42.1</ele>
        <time>2023-06-23T12:59:44Z</time>
      </trkpt>
      <trkpt lat="49.88276" lon="2.24229">
        <ele>42.2</ele>
        <time>2023-06-23T12:59:46Z</time>
      </trkpt>
      <trkpt lat="49.88277" lon="2.24229">
        <ele>42.3</ele>
        <time>2023-06-23T12:59:47Z</time>
      </trkpt>
      <trkpt lat="49.88279" lon="2.24227">
        <ele>42.5</ele>
        <time>2023-06-23T12:59:48Z</time>
      </trkpt>
      <trkpt lat="49.8828" lon="2.24227">
        <ele>42.5</ele>
        <time>2023-06-23T12:59:49Z</time>
      </trkpt>
      <trkpt lat="49.88281" lon="2.24227">
        <ele>42.6</ele>
        <time>2023-06-23T12:59:50Z</time>
      </trkpt>
      <trkpt lat="49.88282" lon="2.24225">
        <ele>42.7</ele>
        <time>2023-06-23T12:59:51Z</time>
      </trkpt>
      <trkpt lat="49.88283" lon="2.24224">
        <ele>42.7</ele>
        <time>2023-06-23T12:59:53Z</time>
      </trkpt>
      <trkpt lat="49.88284" lon="2.24223">
        <ele>42.8</ele>
        <time>2023-06-23T12:59:54Z</time>
      </trkpt>
      <trkpt lat="49.88285" lon="2.24222">
        <ele>42.9</ele>
        <time>2023-06-23T12:59:55Z</time>
      </trkpt>
      <trkpt lat="49.88286" lon="2.24221">
        <ele>42.9</ele>
        <time>2023-06-23T12:59:56Z</time>
      </trkpt>
      <trkpt lat="49.88287" lon="2.2422">
        <ele>43</ele>
        <time>2023-06-23T12:59:57Z</time>
      </trkpt>
      <trkpt lat="49.88288" lon="2.24219">
        <ele>43.1</ele>
        <time>2023-06-23T12:59:58Z</time>
      </trkpt>
      <trkpt lat="49.88289" lon="2.24218">
        <ele>43.1</ele>
        <time>2023-06-23T13:00:00Z</time>
      </trkpt>
      <trkpt lat="49.8829" lon="2.24217">
        <ele>43.2</ele>
        <time>2023-06-23T13:00:01Z</time>
      </trkpt>
      <trkpt lat="49.88291" lon="2.24215">
        <ele>43.3</ele>
        <time>2023-06-23T13:00:02Z</time>
      </trkpt>
      <trkpt lat="49.88292" lon="2.24214">
        <ele>43.4</ele>
        <time>2023-06-23T13:00:03Z</time>
      </trkpt>
      <trkpt lat="49.88293" lon="2.24214">
        <ele>43.4</ele>
        <time>2023-06-23T13:00:05Z</time>
      </trkpt>
      <trkpt lat="49.88294" lon="2.24213">
        <ele>43.5</ele>
        <time>2023-06-23T13:00:06Z</time>
      </trkpt>
      <trkpt lat="49.88295" lon="2.24212">
        <ele>43.6</ele>
        <time>2023-06-23T13:00:07Z</time>
      </trkpt>
      <trkpt lat="49.88297" lon="2.24211">
        <ele>43.7</ele>
        <time>2023-06-23T13:00:08Z</time>
      </trkpt>
      <trkpt lat="49.88297" lon="2.2421">
        <ele>43.7</ele>
        <time>2023-06-23T13:00:09Z</time>
      </trkpt>
      <trkpt lat="49.88299" lon="2.24209">
        <ele>43.8</ele>
        <time>2023-06-23T13:00:10Z</time>
      </trkpt>
      <trkpt lat="49.883" lon="2.24209">
        <ele>43.9</ele>
        <time>2023-06-23T13:00:11Z</time>
      </trkpt>
      <trkpt lat="49.88301" lon="2.24209">
        <ele>43.9</ele>
        <time>2023-06-23T13:00:12Z</time>
      </trkpt>
      <trkpt lat="49.88301" lon="2.24208">
        <ele>44</ele>
        <time>2023-06-23T13:00:13Z</time>
      </trkpt>
      <trkpt lat="49.88303" lon="2.24208">
        <ele>44</ele>
        <time>2023-06-23T13:00:15Z</time>
      </trkpt>
      <trkpt lat="49.88304" lon="2.24208">
        <ele>44.1</ele>
        <time>2023-06-23T13:00:16Z</time>
      </trkpt>
      <trkpt lat="49.88304" lon="2.24207">
        <ele>44.1</ele>
        <time>2023-06-23T13:00:17Z</time>
      </trkpt>
      <trkpt lat="49.88305" lon="2.24207">
        <ele>44.2</ele>
        <time>2023-06-23T13:00:18Z</time>
      </trkpt>
      <trkpt lat="49.88306" lon="2.24207">
        <ele>44.2</ele>
        <time>2023-06-23T13:00:20Z</time>
      </trkpt>
      <trkpt lat="49.88307" lon="2.24207">
        <ele>44.3</ele>
        <time>2023-06-23T13:00:21Z</time>
      </trkpt>
      <trkpt lat="49.88308" lon="2.24207">
        <ele>44.3</ele>
        <time>2023-06-23T13:00:22Z</time>
      </trkpt>
      <trkpt lat="49.88309" lon="2.24207">
        <ele>44.4</ele>
        <time>2023-06-23T13:00:23Z</time>
      </trkpt>
      <trkpt lat="49.88309" lon="2.24207">
        <ele>44.4</ele>
        <time>2023-06-23T13:00:24Z</time>
      </trkpt>
      <trkpt lat="49.8831" lon="2.24207">
        <ele>44.5</ele>
        <time>2023-06-23T13:00:25Z</time>
      </trkpt>
      <trkpt lat="49.88312" lon="2.24207">
        <ele>44.6</ele>
        <time>2023-06-23T13:00:27Z</time>
      </trkpt>
      <trkpt lat="49.88314" lon="2.24207">
        <ele>44.7</ele>
        <time>2023-06-23T13:00:29Z</time>
      </trkpt>
      <trkpt lat="49.88315" lon="2.24206">
        <ele>44.8</ele>
        <time>2023-06-23T13:00:30Z</time>
      </trkpt>
      <trkpt lat="49.88317" lon="2.24206">
        <ele>44.8</ele>
        <time>2023-06-23T13:00:31Z</time>
      </trkpt>
      <trkpt lat="49.88318" lon="2.24206">
        <ele>44.9</ele>
        <time>2023-06-23T13:00:32Z</time>
      </trkpt>
      <trkpt lat="49.8832" lon="2.24205">
        <ele>45</ele>
        <time>2023-06-23T13:00:33Z</time>
      </trkpt>
      <trkpt lat="49.88321" lon="2.24203">
        <ele>45.1</ele>
        <time>2023-06-23T13:00:35Z</time>
      </trkpt>
      <trkpt lat="49.88322" lon="2.24202">
        <ele>45.2</ele>
        <time>2023-06-23T13:00:36Z</time>
      </trkpt>
      <trkpt lat="49.88322" lon="2.242">
        <ele>45.3</ele>
        <time>2023-06-23T13:00:37Z</time>
      </trkpt>
      <trkpt lat="49.88323" lon="2.24199">
        <ele>45.3</ele>
        <time>2023-06-23T13:00:38Z</time>
      </trkpt>
      <trkpt lat="49.88323" lon="2.24198">
        <ele>45.3</ele>
        <time>2023-06-23T13:00:39Z</time>
      </trkpt>
      <trkpt lat="49.88323" lon="2.24197">
        <ele>45.4</ele>
        <time>2023-06-23T13:00:40Z</time>
      </trkpt>
      <trkpt lat="49.88324" lon="2.24196">
        <ele>45.4</ele>
        <time>2023-06-23T13:00:41Z</time>
      </trkpt>
      <trkpt lat="49.88325" lon="2.24195">
        <ele>45.5</ele>
        <time>2023-06-23T13:00:43Z</time>
      </trkpt>
      <trkpt lat="49.88326" lon="2.24194">
        <ele>45.5</ele>
        <time>2023-06-23T13:00:44Z</time>
      </trkpt>
      <trkpt lat="49.88327" lon="2.24193">
        <ele>45.6</ele>
        <time>2023-06-23T13:00:45Z</time>
      </trkpt>
      <trkpt lat="49.88327" lon="2.24193">
        <ele>45.6</ele>
        <time>2023-06-23T13:00:46Z</time>
      </trkpt>
      <trkpt lat="49.88328" lon="2.24192">
        <ele>45.7</ele>
        <time>2023-06-23T13:00:47Z</time>
      </trkpt>
      <trkpt lat="49.88329" lon="2.24192">
        <ele>45.7</ele>
        <time>2023-06-23T13:00:49Z</time>
      </trkpt>
      <trkpt lat="49.8833" lon="2.24191">
        <ele>45.8</ele>
        <time>2023-06-23T13:00:50Z</time>
      </trkpt>
      <trkpt lat="49.88331" lon="2.2419">
        <ele>45.8</ele>
        <time>2023-06-23T13:00:51Z</time>
      </trkpt>
      <trkpt lat="49.88331" lon="2.2419">
        <ele>45.8</ele>
        <time>2023-06-23T13:00:52Z</time>
      </trkpt>
      <trkpt lat="49.88332" lon="2.24189">
        <ele>45.9</ele>
        <time>2023-06-23T13:00:53Z</time>
      </trkpt>
      <trkpt lat="49.88333" lon="2.24189">
        <ele>45.9</ele>
        <time>2023-06-23T13:00:54Z</time>
      </trkpt>
      <trkpt lat="49.88334" lon="2.24189">
        <ele>46</ele>
        <time>2023-06-23T13:00:55Z</time>
      </trkpt>
      <trkpt lat="49.88335" lon="2.24188">
        <ele>46.1</ele>
        <time>2023-06-23T13:00:56Z</time>
      </trkpt>
      <trkpt lat="49.88336" lon="2.24188">
        <ele>46.1</ele>
        <time>2023-06-23T13:00:58Z</time>
      </trkpt>
      <trkpt lat="49.88338" lon="2.24187">
        <ele>46.2</ele>
        <time>2023-06-23T13:00:59Z</time>
      </trkpt>
      <trkpt lat="49.88339" lon="2.24187">
        <ele>46.3</ele>
        <time>2023-06-23T13:01:00Z</time>
      </trkpt>
      <trkpt lat="49.8834" lon="2.24186">
        <ele>46.3</ele>
        <time>2023-06-23T13:01:01Z</time>
      </trkpt>
      <trkpt lat="49.88341" lon="2.24186">
        <ele>46.4</ele>
        <time>2023-06-23T13:01:02Z</time>
      </trkpt>
      <trkpt lat="49.88342" lon="2.24185">
        <ele>46.4</ele>
        <time>2023-06-23T13:01:04Z</time>
      </trkpt>
      <trkpt lat="49.88343" lon="2.24185">
        <ele>46.5</ele>
        <time>2023-06-23T13:01:05Z</time>
      </trkpt>
      <trkpt lat="49.88344" lon="2.24185">
        <ele>46.5</ele>
        <time>2023-06-23T13:01:06Z</time>
      </trkpt>
      <trkpt lat="49.88345" lon="2.24184">
        <ele>46.6</ele>
        <time>2023-06-23T13:01:07Z</time>
      </trkpt>
      <trkpt lat="49.88347" lon="2.24183">
        <ele>46.7</ele>
        <time>2023-06-23T13:01:09Z</time>
      </trkpt>
      <trkpt lat="49.88348" lon="2.24183">
        <ele>46.7</ele>
        <time>2023-06-23T13:01:10Z</time>
      </trkpt>
      <trkpt lat="49.88349" lon="2.24183">
        <ele>46.7</ele>
        <time>2023-06-23T13:01:11Z</time>
      </trkpt>
      <trkpt lat="49.8835" lon="2.24182">
        <ele>46.8</ele>
        <time>2023-06-23T13:01:12Z</time>
      </trkpt>
      <trkpt lat="49.88351" lon="2.24181">
        <ele>46.8</ele>
        <time>2023-06-23T13:01:13Z</time>
      </trkpt>
      <trkpt lat="49.88352" lon="2.24181">
        <ele>46.9</ele>
        <time>2023-06-23T13:01:14Z</time>
      </trkpt>
      <trkpt lat="49.88353" lon="2.2418">
        <ele>46.9</ele>
        <time>2023-06-23T13:01:15Z</time>
      </trkpt>
      <trkpt lat="49.88355" lon="2.24179">
        <ele>47</ele>
        <time>2023-06-23T13:01:17Z</time>
      </trkpt>
      <trkpt lat="49.88356" lon="2.24178">
        <ele>47.1</ele>
        <time>2023-06-23T13:01:18Z</time>
      </trkpt>
      <trkpt lat="49.88357" lon="2.24177">
        <ele>47.1</ele>
        <time>2023-06-23T13:01:19Z</time>
      </trkpt>
      <trkpt lat="49.88358" lon="2.24177">
        <ele>47.1</ele>
        <time>2023-06-23T13:01:20Z</time>
      </trkpt>
      <trkpt lat="49.88359" lon="2.24176">
        <ele>47.2</ele>
        <time>2023-06-23T13:01:21Z</time>
      </trkpt>
      <trkpt lat="49.8836" lon="2.24175">
        <ele>47.2</ele>
        <time>2023-06-23T13:01:22Z</time>
      </trkpt>
      <trkpt lat="49.8836" lon="2.24174">
        <ele>47.3</ele>
        <time>2023-06-23T13:01:23Z</time>
      </trkpt>
      <trkpt lat="49.88361" lon="2.24173">
        <ele>47.3</ele>
        <time>2023-06-23T13:01:24Z</time>
      </trkpt>
      <trkpt lat="49.88361" lon="2.24172">
        <ele>47.3</ele>
        <time>2023-06-23T13:01:26Z</time>
      </trkpt>
      <trkpt lat="49.88362" lon="2.24171">
        <ele>47.4</ele>
        <time>2023-06-23T13:01:27Z</time>
      </trkpt>
      <trkpt lat="49.88363" lon="2.24171">
        <ele>47.4</ele>
        <time>2023-06-23T13:01:28Z</time>
      </trkpt>
      <trkpt lat="49.88364" lon="2.2417">
        <ele>47.4</ele>
        <time>2023-06-23T13:01:29Z</time>
      </trkpt>
      <trkpt lat="49.88365" lon="2.24169">
        <ele>47.5</ele>
        <time>2023-06-23T13:01:30Z</time>
      </trkpt>
      <trkpt lat="49.88367" lon="2.24168">
        <ele>47.5</ele>
        <time>2023-06-23T13:01:32Z</time>
      </trkpt>
      <trkpt lat="49.88368" lon="2.24168">
        <ele>47.6</ele>
        <time>2023-06-23T13:01:33Z</time>
      </trkpt>
      <trkpt lat="49.88369" lon="2.24167">
        <ele>47.6</ele>
        <time>2023-06-23T13:01:34Z</time>
      </trkpt>
      <trkpt lat="49.8837" lon="2.24166">
        <ele>47.7</ele>
        <time>2023-06-23T13:01:35Z</time>
      </trkpt>
      <trkpt lat="49.88371" lon="2.24166">
        <ele>47.7</ele>
        <time>2023-06-23T13:01:36Z</time>
      </trkpt>
      <trkpt lat="49.88372" lon="2.24166">
        <ele>47.7</ele>
        <time>2023-06-23T13:01:37Z</time>
      </trkpt>
      <trkpt lat="49.88373" lon="2.24165">
        <ele>47.7</ele>
        <time>2023-06-23T13:01:38Z</time>
      </trkpt>
      <trkpt lat="49.88374" lon="2.24165">
        <ele>47.7</ele>
        <time>2023-06-23T13:01:39Z</time>
      </trkpt>
      <trkpt lat="49.88375" lon="2.24165">
        <ele>47.8</ele>
        <time>2023-06-23T13:01:40Z</time>
      </trkpt>
      <trkpt lat="49.88376" lon="2.24164">
        <ele>47.8</ele>
        <time>2023-06-23T13:01:42Z</time>
      </trkpt>
      <trkpt lat="49.88378" lon="2.24164">
        <ele>47.8</ele>
        <time>2023-06-23T13:01:43Z</time>
      </trkpt>
      <trkpt lat="49.88379" lon="2.24164">
        <ele>47.8</ele>
        <time>2023-06-23T13:01:44Z</time>
      </trkpt>
      <trkpt lat="49.8838" lon="2.24164">
        <ele>47.8</ele>
        <time>2023-06-23T13:01:45Z</time>
      </trkpt>
      <trkpt lat="49.88381" lon="2.24164">
        <ele>47.9</ele>
        <time>2023-06-23T13:01:46Z</time>
      </trkpt>
      <trkpt lat="49.88382" lon="2.24164">
        <ele>47.9</ele>
        <time>2023-06-23T13:01:48Z</time>
      </trkpt>
      <trkpt lat="49.88383" lon="2.24165">
        <ele>47.9</ele>
        <time>2023-06-23T13:01:49Z</time>
      </trkpt>
      <trkpt lat="49.88384" lon="2.24165">
        <ele>48</ele>
        <time>2023-06-23T13:01:50Z</time>
      </trkpt>
      <trkpt lat="49.88385" lon="2.24165">
        <ele>48</ele>
        <time>2023-06-23T13:01:51Z</time>
      </trkpt>
      <trkpt lat="49.88386" lon="2.24165">
        <ele>48.1</ele>
        <time>2023-06-23T13:01:52Z</time>
      </trkpt>
      <trkpt lat="49.88387" lon="2.24165">
        <ele>48.1</ele>
        <time>2023-06-23T13:01:53Z</time>
      </trkpt>
      <trkpt lat="49.88388" lon="2.24164">
        <ele>48.1</ele>
        <time>2023-06-23T13:01:54Z</time>
      </trkpt>
      <trkpt lat="49.88389" lon="2.24164">
        <ele>48.2</ele>
        <time>2023-06-23T13:01:56Z</time>
      </trkpt>
      <trkpt lat="49.8839" lon="2.24163">
        <ele>48.2</ele>
        <time>2023-06-23T13:01:57Z</time>
      </trkpt>
      <trkpt lat="49.88391" lon="2.24163">
        <ele>48.3</ele>
        <time>2023-06-23T13:01:58Z</time>
      </trkpt>
      <trkpt lat="49.88392" lon="2.24163">
        <ele>48.3</ele>
        <time>2023-06-23T13:01:59Z</time>
      </trkpt>
      <trkpt lat="49.88393" lon="2.24162">
        <ele>48.3</ele>
        <time>2023-06-23T13:02:01Z</time>
      </trkpt>
      <trkpt lat="49.88395" lon="2.24162">
        <ele>48.4</ele>
        <time>2023-06-23T13:02:02Z</time>
      </trkpt>
      <trkpt lat="49.88396" lon="2.24162">
        <ele>48.4</ele>
        <time>2023-06-23T13:02:03Z</time>
      </trkpt>
      <trkpt lat="49.88397" lon="2.24162">
        <ele>48.5</ele>
        <time>2023-06-23T13:02:04Z</time>
      </trkpt>
      <trkpt lat="49.88398" lon="2.24162">
        <ele>48.5</ele>
        <time>2023-06-23T13:02:05Z</time>
      </trkpt>
      <trkpt lat="49.88399" lon="2.24162">
        <ele>48.6</ele>
        <time>2023-06-23T13:02:06Z</time>
      </trkpt>
      <trkpt lat="49.884" lon="2.24162">
        <ele>48.6</ele>
        <time>2023-06-23T13:02:07Z</time>
      </trkpt>
      <trkpt lat="49.88402" lon="2.24162">
        <ele>48.7</ele>
        <time>2023-06-23T13:02:09Z</time>
      </trkpt>
      <trkpt lat="49.88403" lon="2.24162">
        <ele>48.7</ele>
        <time>2023-06-23T13:02:10Z</time>
      </trkpt>
      <trkpt lat="49.88404" lon="2.24162">
        <ele>48.7</ele>
        <time>2023-06-23T13:02:11Z</time>
      </trkpt>
      <trkpt lat="49.88405" lon="2.24162">
        <ele>48.8</ele>
        <time>2023-06-23T13:02:12Z</time>
      </trkpt>
      <trkpt lat="49.88407" lon="2.24162">
        <ele>48.8</ele>
        <time>2023-06-23T13:02:13Z</time>
      </trkpt>
      <trkpt lat="49.88408" lon="2.24161">
        <ele>48.9</ele>
        <time>2023-06-23T13:02:15Z</time>
      </trkpt>
      <trkpt lat="49.8841" lon="2.24161">
        <ele>48.9</ele>
        <time>2023-06-23T13:02:16Z</time>
      </trkpt>
      <trkpt lat="49.88412" lon="2.2416">
        <ele>49</ele>
        <time>2023-06-23T13:02:17Z</time>
      </trkpt>
      <trkpt lat="49.88413" lon="2.2416">
        <ele>49.1</ele>
        <time>2023-06-23T13:02:18Z</time>
      </trkpt>
      <trkpt lat="49.88413" lon="2.2416">
        <ele>49.1</ele>
        <time>2023-06-23T13:02:19Z</time>
      </trkpt>
      <trkpt lat="49.88415" lon="2.24159">
        <ele>49.2</ele>
        <time>2023-06-23T13:02:20Z</time>
      </trkpt>
      <trkpt lat="49.88416" lon="2.24158">
        <ele>49.2</ele>
        <time>2023-06-23T13:02:21Z</time>
      </trkpt>
      <trkpt lat="49.88417" lon="2.24158">
        <ele>49.2</ele>
        <time>2023-06-23T13:02:22Z</time>
      </trkpt>
      <trkpt lat="49.88418" lon="2.24157">
        <ele>49.3</ele>
        <time>2023-06-23T13:02:24Z</time>
      </trkpt>
      <trkpt lat="49.88419" lon="2.24157">
        <ele>49.3</ele>
        <time>2023-06-23T13:02:25Z</time>
      </trkpt>
      <trkpt lat="49.8842" lon="2.24156">
        <ele>49.3</ele>
        <time>2023-06-23T13:02:26Z</time>
      </trkpt>
      <trkpt lat="49.88421" lon="2.24156">
        <ele>49.4</ele>
        <time>2023-06-23T13:02:27Z</time>
      </trkpt>
      <trkpt lat="49.88422" lon="2.24156">
        <ele>49.4</ele>
        <time>2023-06-23T13:02:28Z</time>
      </trkpt>
      <trkpt lat="49.88423" lon="2.24155">
        <ele>49.5</ele>
        <time>2023-06-23T13:02:29Z</time>
      </trkpt>
      <trkpt lat="49.88425" lon="2.24154">
        <ele>49.5</ele>
        <time>2023-06-23T13:02:30Z</time>
      </trkpt>
      <trkpt lat="49.88426" lon="2.24154">
        <ele>49.6</ele>
        <time>2023-06-23T13:02:31Z</time>
      </trkpt>
      <trkpt lat="49.88427" lon="2.24153">
        <ele>49.6</ele>
        <time>2023-06-23T13:02:32Z</time>
      </trkpt>
      <trkpt lat="49.88428" lon="2.24152">
        <ele>49.6</ele>
        <time>2023-06-23T13:02:34Z</time>
      </trkpt>
      <trkpt lat="49.88429" lon="2.24152">
        <ele>49.7</ele>
        <time>2023-06-23T13:02:35Z</time>
      </trkpt>
      <trkpt lat="49.8843" lon="2.24151">
        <ele>49.7</ele>
        <time>2023-06-23T13:02:36Z</time>
      </trkpt>
      <trkpt lat="49.88432" lon="2.2415">
        <ele>49.8</ele>
        <time>2023-06-23T13:02:37Z</time>
      </trkpt>
      <trkpt lat="49.88433" lon="2.2415">
        <ele>49.8</ele>
        <time>2023-06-23T13:02:38Z</time>
      </trkpt>
      <trkpt lat="49.88434" lon="2.24149">
        <ele>49.9</ele>
        <time>2023-06-23T13:02:39Z</time>
      </trkpt>
      <trkpt lat="49.88435" lon="2.24149">
        <ele>49.9</ele>
        <time>2023-06-23T13:02:40Z</time>
      </trkpt>
      <trkpt lat="49.88436" lon="2.24148">
        <ele>50</ele>
        <time>2023-06-23T13:02:41Z</time>
      </trkpt>
      <trkpt lat="49.88437" lon="2.24148">
        <ele>50</ele>
        <time>2023-06-23T13:02:42Z</time>
      </trkpt>
      <trkpt lat="49.88439" lon="2.24147">
        <ele>50</ele>
        <time>2023-06-23T13:02:43Z</time>
      </trkpt>
      <trkpt lat="49.8844" lon="2.24147">
        <ele>50</ele>
        <time>2023-06-23T13:02:44Z</time>
      </trkpt>
      <trkpt lat="49.88441" lon="2.24147">
        <ele>50</ele>
        <time>2023-06-23T13:02:45Z</time>
      </trkpt>
      <trkpt lat="49.88442" lon="2.24146">
        <ele>50</ele>
        <time>2023-06-23T13:02:47Z</time>
      </trkpt>
      <trkpt lat="49.88443" lon="2.24146">
        <ele>50</ele>
        <time>2023-06-23T13:02:48Z</time>
      </trkpt>
      <trkpt lat="49.88444" lon="2.24145">
        <ele>50</ele>
        <time>2023-06-23T13:02:49Z</time>
      </trkpt>
      <trkpt lat="49.88445" lon="2.24145">
        <ele>50</ele>
        <time>2023-06-23T13:02:50Z</time>
      </trkpt>
      <trkpt lat="49.88446" lon="2.24145">
        <ele>50.1</ele>
        <time>2023-06-23T13:02:51Z</time>
      </trkpt>
      <trkpt lat="49.88447" lon="2.24145">
        <ele>50.1</ele>
        <time>2023-06-23T13:02:52Z</time>
      </trkpt>
      <trkpt lat="49.88448" lon="2.24145">
        <ele>50.1</ele>
        <time>2023-06-23T13:02:53Z</time>
      </trkpt>
      <trkpt lat="49.88449" lon="2.24144">
        <ele>50.1</ele>
        <time>2023-06-23T13:02:54Z</time>
      </trkpt>
      <trkpt lat="49.8845" lon="2.24144">
        <ele>50.1</ele>
        <time>2023-06-23T13:02:56Z</time>
      </trkpt>
      <trkpt lat="49.88451" lon="2.24143">
        <ele>50.1</ele>
        <time>2023-06-23T13:02:57Z</time>
      </trkpt>
      <trkpt lat="49.88452" lon="2.24143">
        <ele>50.1</ele>
        <time>2023-06-23T13:02:58Z</time>
      </trkpt>
      <trkpt lat="49.88453" lon="2.24143">
        <ele>50.1</ele>
        <time>2023-06-23T13:02:59Z</time>
      </trkpt>
      <trkpt lat="49.88455" lon="2.24142">
        <ele>50.1</ele>
        <time>2023-06-23T13:03:00Z</time>
      </trkpt>
      <trkpt lat="49.88456" lon="2.24141">
        <ele>50.1</ele>
        <time>2023-06-23T13:03:01Z</time>
      </trkpt>
      <trkpt lat="49.88456" lon="2.24141">
        <ele>50.1</ele>
        <time>2023-06-23T13:03:02Z</time>
      </trkpt>
      <trkpt lat="49.88458" lon="2.2414">
        <ele>50.1</ele>
        <time>2023-06-23T13:03:03Z</time>
      </trkpt>
      <trkpt lat="49.88459" lon="2.2414">
        <ele>50.1</ele>
        <time>2023-06-23T13:03:04Z</time>
      </trkpt>
      <trkpt lat="49.8846" lon="2.2414">
        <ele>50.1</ele>
        <time>2023-06-23T13:03:06Z</time>
      </trkpt>
      <trkpt lat="49.88461" lon="2.2414">
        <ele>50.2</ele>
        <time>2023-06-23T13:03:07Z</time>
      </trkpt>
      <trkpt lat="49.88462" lon="2.2414">
        <ele>50.2</ele>
        <time>2023-06-23T13:03:08Z</time>
      </trkpt>
      <trkpt lat="49.88463" lon="2.24139">
        <ele>50.2</ele>
        <time>2023-06-23T13:03:09Z</time>
      </trkpt>
      <trkpt lat="49.88464" lon="2.24139">
        <ele>50.2</ele>
        <time>2023-06-23T13:03:10Z</time>
      </trkpt>
      <trkpt lat="49.88465" lon="2.24138">
        <ele>50.2</ele>
        <time>2023-06-23T13:03:11Z</time>
      </trkpt>
      <trkpt lat="49.88466" lon="2.24136">
        <ele>50.2</ele>
        <time>2023-06-23T13:03:12Z</time>
      </trkpt>
      <trkpt lat="49.88467" lon="2.24134">
        <ele>50.2</ele>
        <time>2023-06-23T13:03:13Z</time>
      </trkpt>
      <trkpt lat="49.88468" lon="2.24134">
        <ele>50.2</ele>
        <time>2023-06-23T13:03:15Z</time>
      </trkpt>
      <trkpt lat="49.88469" lon="2.24133">
        <ele>50.2</ele>
        <time>2023-06-23T13:03:16Z</time>
      </trkpt>
      <trkpt lat="49.88471" lon="2.24133">
        <ele>50.3</ele>
        <time>2023-06-23T13:03:17Z</time>
      </trkpt>
      <trkpt lat="49.88472" lon="2.24133">
        <ele>50.3</ele>
        <time>2023-06-23T13:03:18Z</time>
      </trkpt>
      <trkpt lat="49.88473" lon="2.24133">
        <ele>50.3</ele>
        <time>2023-06-23T13:03:19Z</time>
      </trkpt>
      <trkpt lat="49.88474" lon="2.24133">
        <ele>50.3</ele>
        <time>2023-06-23T13:03:20Z</time>
      </trkpt>
      <trkpt lat="49.88476" lon="2.24133">
        <ele>50.3</ele>
        <time>2023-06-23T13:03:21Z</time>
      </trkpt>
      <trkpt lat="49.88477" lon="2.24133">
        <ele>50.4</ele>
        <time>2023-06-23T13:03:23Z</time>
      </trkpt>
      <trkpt lat="49.88479" lon="2.24133">
        <ele>50.4</ele>
        <time>2023-06-23T13:03:24Z</time>
      </trkpt>
      <trkpt lat="49.8848" lon="2.24133">
        <ele>50.4</ele>
        <time>2023-06-23T13:03:25Z</time>
      </trkpt>
      <trkpt lat="49.88481" lon="2.24132">
        <ele>50.4</ele>
        <time>2023-06-23T13:03:26Z</time>
      </trkpt>
      <trkpt lat="49.88483" lon="2.24131">
        <ele>50.4</ele>
        <time>2023-06-23T13:03:27Z</time>
      </trkpt>
      <trkpt lat="49.88485" lon="2.24131">
        <ele>50.5</ele>
        <time>2023-06-23T13:03:28Z</time>
      </trkpt>
      <trkpt lat="49.88485" lon="2.24131">
        <ele>50.5</ele>
        <time>2023-06-23T13:03:30Z</time>
      </trkpt>
      <trkpt lat="49.88486" lon="2.2413">
        <ele>50.5</ele>
        <time>2023-06-23T13:03:31Z</time>
      </trkpt>
      <trkpt lat="49.88487" lon="2.2413">
        <ele>50.5</ele>
        <time>2023-06-23T13:03:32Z</time>
      </trkpt>
      <trkpt lat="49.88488" lon="2.2413">
        <ele>50.5</ele>
        <time>2023-06-23T13:03:33Z</time>
      </trkpt>
      <trkpt lat="49.88489" lon="2.2413">
        <ele>50.6</ele>
        <time>2023-06-23T13:03:34Z</time>
      </trkpt>
      <trkpt lat="49.88491" lon="2.24129">
        <ele>50.6</ele>
        <time>2023-06-23T13:03:35Z</time>
      </trkpt>
      <trkpt lat="49.88492" lon="2.24128">
        <ele>50.6</ele>
        <time>2023-06-23T13:03:37Z</time>
      </trkpt>
      <trkpt lat="49.88493" lon="2.24128">
        <ele>50.6</ele>
        <time>2023-06-23T13:03:38Z</time>
      </trkpt>
      <trkpt lat="49.88494" lon="2.24127">
        <ele>50.6</ele>
        <time>2023-06-23T13:03:39Z</time>
      </trkpt>
      <trkpt lat="49.88495" lon="2.24127">
        <ele>50.7</ele>
        <time>2023-06-23T13:03:40Z</time>
      </trkpt>
      <trkpt lat="49.88496" lon="2.24126">
        <ele>50.7</ele>
        <time>2023-06-23T13:03:41Z</time>
      </trkpt>
      <trkpt lat="49.88499" lon="2.24125">
        <ele>50.7</ele>
        <time>2023-06-23T13:03:42Z</time>
      </trkpt>
      <trkpt lat="49.885" lon="2.24125">
        <ele>50.7</ele>
        <time>2023-06-23T13:03:44Z</time>
      </trkpt>
      <trkpt lat="49.885" lon="2.24124">
        <ele>50.7</ele>
        <time>2023-06-23T13:03:45Z</time>
      </trkpt>
      <trkpt lat="49.88501" lon="2.24124">
        <ele>50.8</ele>
        <time>2023-06-23T13:03:46Z</time>
      </trkpt>
      <trkpt lat="49.88502" lon="2.24124">
        <ele>50.8</ele>
        <time>2023-06-23T13:03:47Z</time>
      </trkpt>
      <trkpt lat="49.88504" lon="2.24123">
        <ele>50.8</ele>
        <time>2023-06-23T13:03:49Z</time>
      </trkpt>
      <trkpt lat="49.88505" lon="2.24122">
        <ele>50.8</ele>
        <time>2023-06-23T13:03:50Z</time>
      </trkpt>
      <trkpt lat="49.88506" lon="2.24122">
        <ele>50.8</ele>
        <time>2023-06-23T13:03:51Z</time>
      </trkpt>
      <trkpt lat="49.88507" lon="2.24122">
        <ele>50.9</ele>
        <time>2023-06-23T13:03:52Z</time>
      </trkpt>
      <trkpt lat="49.88508" lon="2.24122">
        <ele>50.9</ele>
        <time>2023-06-23T13:03:53Z</time>
      </trkpt>
      <trkpt lat="49.88509" lon="2.24122">
        <ele>50.9</ele>
        <time>2023-06-23T13:03:54Z</time>
      </trkpt>
      <trkpt lat="49.8851" lon="2.24121">
        <ele>50.9</ele>
        <time>2023-06-23T13:03:55Z</time>
      </trkpt>
      <trkpt lat="49.88511" lon="2.2412">
        <ele>50.9</ele>
        <time>2023-06-23T13:03:57Z</time>
      </trkpt>
      <trkpt lat="49.88512" lon="2.24119">
        <ele>50.9</ele>
        <time>2023-06-23T13:03:58Z</time>
      </trkpt>
      <trkpt lat="49.88512" lon="2.24118">
        <ele>50.9</ele>
        <time>2023-06-23T13:03:59Z</time>
      </trkpt>
      <trkpt lat="49.88511" lon="2.24116">
        <ele>50.9</ele>
        <time>2023-06-23T13:04:00Z</time>
      </trkpt>
      <trkpt lat="49.88511" lon="2.24115">
        <ele>51</ele>
        <time>2023-06-23T13:04:02Z</time>
      </trkpt>
      <trkpt lat="49.88512" lon="2.24114">
        <ele>51</ele>
        <time>2023-06-23T13:04:03Z</time>
      </trkpt>
      <trkpt lat="49.88513" lon="2.24114">
        <ele>51</ele>
        <time>2023-06-23T13:04:04Z</time>
      </trkpt>
      <trkpt lat="49.88515" lon="2.24114">
        <ele>51</ele>
        <time>2023-06-23T13:04:05Z</time>
      </trkpt>
      <trkpt lat="49.88517" lon="2.24115">
        <ele>51</ele>
        <time>2023-06-23T13:04:06Z</time>
      </trkpt>
      <trkpt lat="49.88518" lon="2.24115">
        <ele>51</ele>
        <time>2023-06-23T13:04:07Z</time>
      </trkpt>
      <trkpt lat="49.88518" lon="2.24115">
        <ele>51</ele>
        <time>2023-06-23T13:04:08Z</time>
      </trkpt>
      <trkpt lat="49.8852" lon="2.24115">
        <ele>51.1</ele>
        <time>2023-06-23T13:04:10Z</time>
      </trkpt>
      <trkpt lat="49.88521" lon="2.24115">
        <ele>51.1</ele>
        <time>2023-06-23T13:04:11Z</time>
      </trkpt>
      <trkpt lat="49.88523" lon="2.24115">
        <ele>51.1</ele>
        <time>2023-06-23T13:04:12Z</time>
      </trkpt>
      <trkpt lat="49.88524" lon="2.24115">
        <ele>51.1</ele>
        <time>2023-06-23T13:04:13Z</time>
      </trkpt>
      <trkpt lat="49.88525" lon="2.24114">
        <ele>51.1</ele>
        <time>2023-06-23T13:04:14Z</time>
      </trkpt>
      <trkpt lat="49.88526" lon="2.24114">
        <ele>51.1</ele>
        <time>2023-06-23T13:04:15Z</time>
      </trkpt>
      <trkpt lat="49.88527" lon="2.24113">
        <ele>51.1</ele>
        <time>2023-06-23T13:04:16Z</time>
      </trkpt>
      <trkpt lat="49.88529" lon="2.24113">
        <ele>51.2</ele>
        <time>2023-06-23T13:04:17Z</time>
      </trkpt>
      <trkpt lat="49.88531" lon="2.24112">
        <ele>51.2</ele>
        <time>2023-06-23T13:04:18Z</time>
      </trkpt>
      <trkpt lat="49.88532" lon="2.24111">
        <ele>51.2</ele>
        <time>2023-06-23T13:04:20Z</time>
      </trkpt>
      <trkpt lat="49.88533" lon="2.24111">
        <ele>51.2</ele>
        <time>2023-06-23T13:04:21Z</time>
      </trkpt>
      <trkpt lat="49.88534" lon="2.2411">
        <ele>51.2</ele>
        <time>2023-06-23T13:04:22Z</time>
      </trkpt>
      <trkpt lat="49.88534" lon="2.24109">
        <ele>51.2</ele>
        <time>2023-06-23T13:04:23Z</time>
      </trkpt>
      <trkpt lat="49.88535" lon="2.24108">
        <ele>51.2</ele>
        <time>2023-06-23T13:04:25Z</time>
      </trkpt>
      <trkpt lat="49.88536" lon="2.24107">
        <ele>51.2</ele>
        <time>2023-06-23T13:04:26Z</time>
      </trkpt>
      <trkpt lat="49.88537" lon="2.24107">
        <ele>51.3</ele>
        <time>2023-06-23T13:04:27Z</time>
      </trkpt>
      <trkpt lat="49.88539" lon="2.24106">
        <ele>51.3</ele>
        <time>2023-06-23T13:04:28Z</time>
      </trkpt>
      <trkpt lat="49.8854" lon="2.24105">
        <ele>51.3</ele>
        <time>2023-06-23T13:04:29Z</time>
      </trkpt>
      <trkpt lat="49.88542" lon="2.24103">
        <ele>51.3</ele>
        <time>2023-06-23T13:04:30Z</time>
      </trkpt>
      <trkpt lat="49.88543" lon="2.24103">
        <ele>51.3</ele>
        <time>2023-06-23T13:04:31Z</time>
      </trkpt>
      <trkpt lat="49.88544" lon="2.24103">
        <ele>51.3</ele>
        <time>2023-06-23T13:04:32Z</time>
      </trkpt>
      <trkpt lat="49.88545" lon="2.24102">
        <ele>51.4</ele>
        <time>2023-06-23T13:04:33Z</time>
      </trkpt>
      <trkpt lat="49.88546" lon="2.24101">
        <ele>51.4</ele>
        <time>2023-06-23T13:04:34Z</time>
      </trkpt>
      <trkpt lat="49.88547" lon="2.24101">
        <ele>51.4</ele>
        <time>2023-06-23T13:04:36Z</time>
      </trkpt>
      <trkpt lat="49.88548" lon="2.241">
        <ele>51.4</ele>
        <time>2023-06-23T13:04:37Z</time>
      </trkpt>
      <trkpt lat="49.88549" lon="2.24099">
        <ele>51.4</ele>
        <time>2023-06-23T13:04:38Z</time>
      </trkpt>
      <trkpt lat="49.8855" lon="2.24099">
        <ele>51.4</ele>
        <time>2023-06-23T13:04:39Z</time>
      </trkpt>
      <trkpt lat="49.88552" lon="2.24098">
        <ele>51.5</ele>
        <time>2023-06-23T13:04:40Z</time>
      </trkpt>
      <trkpt lat="49.88553" lon="2.24098">
        <ele>51.5</ele>
        <time>2023-06-23T13:04:42Z</time>
      </trkpt>
      <trkpt lat="49.88554" lon="2.24097">
        <ele>51.5</ele>
        <time>2023-06-23T13:04:43Z</time>
      </trkpt>
      <trkpt lat="49.88556" lon="2.24096">
        <ele>51.5</ele>
        <time>2023-06-23T13:04:44Z</time>
      </trkpt>
      <trkpt lat="49.88557" lon="2.24096">
        <ele>51.5</ele>
        <time>2023-06-23T13:04:45Z</time>
      </trkpt>
      <trkpt lat="49.88558" lon="2.24095">
        <ele>51.6</ele>
        <time>2023-06-23T13:04:46Z</time>
      </trkpt>
      <trkpt lat="49.88559" lon="2.24094">
        <ele>51.6</ele>
        <time>2023-06-23T13:04:47Z</time>
      </trkpt>
      <trkpt lat="49.8856" lon="2.24094">
        <ele>51.6</ele>
        <time>2023-06-23T13:04:48Z</time>
      </trkpt>
      <trkpt lat="49.88561" lon="2.24093">
        <ele>51.6</ele>
        <time>2023-06-23T13:04:49Z</time>
      </trkpt>
      <trkpt lat="49.88562" lon="2.24092">
        <ele>51.6</ele>
        <time>2023-06-23T13:04:50Z</time>
      </trkpt>
      <trkpt lat="49.88563" lon="2.24092">
        <ele>51.6</ele>
        <time>2023-06-23T13:04:51Z</time>
      </trkpt>
      <trkpt lat="49.88564" lon="2.24091">
        <ele>51.7</ele>
        <time>2023-06-23T13:04:53Z</time>
      </trkpt>
      <trkpt lat="49.88566" lon="2.2409">
        <ele>51.7</ele>
        <time>2023-06-23T13:04:54Z</time>
      </trkpt>
      <trkpt lat="49.88567" lon="2.2409">
        <ele>51.7</ele>
        <time>2023-06-23T13:04:55Z</time>
      </trkpt>
      <trkpt lat="49.88568" lon="2.2409">
        <ele>51.7</ele>
        <time>2023-06-23T13:04:56Z</time>
      </trkpt>
      <trkpt lat="49.8857" lon="2.24088">
        <ele>51.7</ele>
        <time>2023-06-23T13:04:57Z</time>
      </trkpt>
      <trkpt lat="49.88571" lon="2.24088">
        <ele>51.8</ele>
        <time>2023-06-23T13:04:58Z</time>
      </trkpt>
      <trkpt lat="49.88571" lon="2.24087">
        <ele>51.8</ele>
        <time>2023-06-23T13:04:59Z</time>
      </trkpt>
      <trkpt lat="49.88572" lon="2.24087">
        <ele>51.8</ele>
        <time>2023-06-23T13:05:00Z</time>
      </trkpt>
      <trkpt lat="49.88573" lon="2.24086">
        <ele>51.8</ele>
        <time>2023-06-23T13:05:01Z</time>
      </trkpt>
      <trkpt lat="49.88574" lon="2.24085">
        <ele>51.8</ele>
        <time>2023-06-23T13:05:02Z</time>
      </trkpt>
      <trkpt lat="49.88576" lon="2.24084">
        <ele>51.9</ele>
        <time>2023-06-23T13:05:03Z</time>
      </trkpt>
      <trkpt lat="49.88577" lon="2.24084">
        <ele>51.9</ele>
        <time>2023-06-23T13:05:04Z</time>
      </trkpt>
      <trkpt lat="49.88579" lon="2.24084">
        <ele>51.9</ele>
        <time>2023-06-23T13:05:06Z</time>
      </trkpt>
      <trkpt lat="49.8858" lon="2.24083">
        <ele>51.9</ele>
        <time>2023-06-23T13:05:07Z</time>
      </trkpt>
      <trkpt lat="49.88581" lon="2.24083">
        <ele>51.9</ele>
        <time>2023-06-23T13:05:08Z</time>
      </trkpt>
      <trkpt lat="49.88582" lon="2.24083">
        <ele>52</ele>
        <time>2023-06-23T13:05:09Z</time>
      </trkpt>
      <trkpt lat="49.88583" lon="2.24083">
        <ele>52</ele>
        <time>2023-06-23T13:05:10Z</time>
      </trkpt>
      <trkpt lat="49.88585" lon="2.24083">
        <ele>52</ele>
        <time>2023-06-23T13:05:11Z</time>
      </trkpt>
      <trkpt lat="49.88586" lon="2.24081">
        <ele>52.1</ele>
        <time>2023-06-23T13:05:12Z</time>
      </trkpt>
      <trkpt lat="49.88587" lon="2.24081">
        <ele>52.1</ele>
        <time>2023-06-23T13:05:13Z</time>
      </trkpt>
      <trkpt lat="49.88588" lon="2.2408">
        <ele>52.1</ele>
        <time>2023-06-23T13:05:14Z</time>
      </trkpt>
      <trkpt lat="49.88589" lon="2.24079">
        <ele>52.1</ele>
        <time>2023-06-23T13:05:15Z</time>
      </trkpt>
      <trkpt lat="49.8859" lon="2.24078">
        <ele>52.1</ele>
        <time>2023-06-23T13:05:16Z</time>
      </trkpt>
      <trkpt lat="49.88591" lon="2.24077">
        <ele>52.2</ele>
        <time>2023-06-23T13:05:18Z</time>
      </trkpt>
      <trkpt lat="49.88592" lon="2.24076">
        <ele>52.2</ele>
        <time>2023-06-23T13:05:19Z</time>
      </trkpt>
      <trkpt lat="49.88593" lon="2.24075">
        <ele>52.2</ele>
        <time>2023-06-23T13:05:20Z</time>
      </trkpt>
      <trkpt lat="49.88594" lon="2.24074">
        <ele>52.2</ele>
        <time>2023-06-23T13:05:21Z</time>
      </trkpt>
      <trkpt lat="49.88595" lon="2.24073">
        <ele>52.2</ele>
        <time>2023-06-23T13:05:22Z</time>
      </trkpt>
      <trkpt lat="49.88596" lon="2.24073">
        <ele>52.3</ele>
        <time>2023-06-23T13:05:23Z</time>
      </trkpt>
      <trkpt lat="49.88597" lon="2.24071">
        <ele>52.3</ele>
        <time>2023-06-23T13:05:24Z</time>
      </trkpt>
      <trkpt lat="49.88598" lon="2.2407">
        <ele>52.3</ele>
        <time>2023-06-23T13:05:25Z</time>
      </trkpt>
      <trkpt lat="49.88599" lon="2.24069">
        <ele>52.4</ele>
        <time>2023-06-23T13:05:27Z</time>
      </trkpt>
      <trkpt lat="49.886" lon="2.24068">
        <ele>52.4</ele>
        <time>2023-06-23T13:05:28Z</time>
      </trkpt>
      <trkpt lat="49.88601" lon="2.24067">
        <ele>52.4</ele>
        <time>2023-06-23T13:05:29Z</time>
      </trkpt>
      <trkpt lat="49.88602" lon="2.24067">
        <ele>52.4</ele>
        <time>2023-06-23T13:05:30Z</time>
      </trkpt>
      <trkpt lat="49.88603" lon="2.24066">
        <ele>52.5</ele>
        <time>2023-06-23T13:05:31Z</time>
      </trkpt>
      <trkpt lat="49.88604" lon="2.24065">
        <ele>52.5</ele>
        <time>2023-06-23T13:05:32Z</time>
      </trkpt>
      <trkpt lat="49.88605" lon="2.24064">
        <ele>52.5</ele>
        <time>2023-06-23T13:05:33Z</time>
      </trkpt>
      <trkpt lat="49.88606" lon="2.24063">
        <ele>52.6</ele>
        <time>2023-06-23T13:05:34Z</time>
      </trkpt>
      <trkpt lat="49.88607" lon="2.24063">
        <ele>52.6</ele>
        <time>2023-06-23T13:05:36Z</time>
      </trkpt>
      <trkpt lat="49.88607" lon="2.24062">
        <ele>52.6</ele>
        <time>2023-06-23T13:05:37Z</time>
      </trkpt>
      <trkpt lat="49.88608" lon="2.24061">
        <ele>52.6</ele>
        <time>2023-06-23T13:05:38Z</time>
      </trkpt>
      <trkpt lat="49.88609" lon="2.2406">
        <ele>52.7</ele>
        <time>2023-06-23T13:05:39Z</time>
      </trkpt>
      <trkpt lat="49.8861" lon="2.24059">
        <ele>52.7</ele>
        <time>2023-06-23T13:05:40Z</time>
      </trkpt>
      <trkpt lat="49.88611" lon="2.24058">
        <ele>52.8</ele>
        <time>2023-06-23T13:05:41Z</time>
      </trkpt>
      <trkpt lat="49.88613" lon="2.24057">
        <ele>52.8</ele>
        <time>2023-06-23T13:05:42Z</time>
      </trkpt>
      <trkpt lat="49.88614" lon="2.24056">
        <ele>52.9</ele>
        <time>2023-06-23T13:05:44Z</time>
      </trkpt>
      <trkpt lat="49.88615" lon="2.24054">
        <ele>52.9</ele>
        <time>2023-06-23T13:05:45Z</time>
      </trkpt>
      <trkpt lat="49.88615" lon="2.24054">
        <ele>52.9</ele>
        <time>2023-06-23T13:05:46Z</time>
      </trkpt>
      <trkpt lat="49.88616" lon="2.24053">
        <ele>53</ele>
        <time>2023-06-23T13:05:47Z</time>
      </trkpt>
      <trkpt lat="49.88617" lon="2.24051">
        <ele>53</ele>
        <time>2023-06-23T13:05:48Z</time>
      </trkpt>
      <trkpt lat="49.88618" lon="2.2405">
        <ele>53.1</ele>
        <time>2023-06-23T13:05:50Z</time>
      </trkpt>
      <trkpt lat="49.88619" lon="2.24049">
        <ele>53.1</ele>
        <time>2023-06-23T13:05:51Z</time>
      </trkpt>
      <trkpt lat="49.88621" lon="2.24048">
        <ele>53.2</ele>
        <time>2023-06-23T13:05:52Z</time>
      </trkpt>
      <trkpt lat="49.88623" lon="2.24046">
        <ele>53.2</ele>
        <time>2023-06-23T13:05:53Z</time>
      </trkpt>
      <trkpt lat="49.88624" lon="2.24046">
        <ele>53.3</ele>
        <time>2023-06-23T13:05:54Z</time>
      </trkpt>
      <trkpt lat="49.88625" lon="2.24046">
        <ele>53.3</ele>
        <time>2023-06-23T13:05:55Z</time>
      </trkpt>
      <trkpt lat="49.88626" lon="2.24045">
        <ele>53.3</ele>
        <time>2023-06-23T13:05:57Z</time>
      </trkpt>
      <trkpt lat="49.88627" lon="2.24044">
        <ele>53.4</ele>
        <time>2023-06-23T13:05:58Z</time>
      </trkpt>
      <trkpt lat="49.88628" lon="2.24044">
        <ele>53.4</ele>
        <time>2023-06-23T13:05:59Z</time>
      </trkpt>
      <trkpt lat="49.88628" lon="2.24043">
        <ele>53.4</ele>
        <time>2023-06-23T13:06:00Z</time>
      </trkpt>
      <trkpt lat="49.88629" lon="2.24042">
        <ele>53.5</ele>
        <time>2023-06-23T13:06:01Z</time>
      </trkpt>
      <trkpt lat="49.8863" lon="2.24041">
        <ele>53.5</ele>
        <time>2023-06-23T13:06:02Z</time>
      </trkpt>
      <trkpt lat="49.88631" lon="2.2404">
        <ele>53.5</ele>
        <time>2023-06-23T13:06:03Z</time>
      </trkpt>
      <trkpt lat="49.88632" lon="2.24038">
        <ele>53.6</ele>
        <time>2023-06-23T13:06:04Z</time>
      </trkpt>
      <trkpt lat="49.88633" lon="2.24037">
        <ele>53.6</ele>
        <time>2023-06-23T13:06:06Z</time>
      </trkpt>
      <trkpt lat="49.88634" lon="2.24036">
        <ele>53.7</ele>
        <time>2023-06-23T13:06:07Z</time>
      </trkpt>
      <trkpt lat="49.88635" lon="2.24035">
        <ele>53.7</ele>
        <time>2023-06-23T13:06:08Z</time>
      </trkpt>
      <trkpt lat="49.88636" lon="2.24034">
        <ele>53.7</ele>
        <time>2023-06-23T13:06:09Z</time>
      </trkpt>
      <trkpt lat="49.88637" lon="2.24033">
        <ele>53.8</ele>
        <time>2023-06-23T13:06:10Z</time>
      </trkpt>
      <trkpt lat="49.88638" lon="2.24032">
        <ele>53.8</ele>
        <time>2023-06-23T13:06:11Z</time>
      </trkpt>
      <trkpt lat="49.88639" lon="2.24031">
        <ele>53.8</ele>
        <time>2023-06-23T13:06:12Z</time>
      </trkpt>
      <trkpt lat="49.8864" lon="2.2403">
        <ele>53.9</ele>
        <time>2023-06-23T13:06:13Z</time>
      </trkpt>
      <trkpt lat="49.88641" lon="2.2403">
        <ele>53.9</ele>
        <time>2023-06-23T13:06:15Z</time>
      </trkpt>
      <trkpt lat="49.88642" lon="2.2403">
        <ele>53.9</ele>
        <time>2023-06-23T13:06:16Z</time>
      </trkpt>
      <trkpt lat="49.88643" lon="2.2403">
        <ele>54</ele>
        <time>2023-06-23T13:06:17Z</time>
      </trkpt>
      <trkpt lat="49.88644" lon="2.24031">
        <ele>54</ele>
        <time>2023-06-23T13:06:18Z</time>
      </trkpt>
      <trkpt lat="49.88644" lon="2.24032">
        <ele>54</ele>
        <time>2023-06-23T13:06:19Z</time>
      </trkpt>
      <trkpt lat="49.88646" lon="2.24033">
        <ele>54.1</ele>
        <time>2023-06-23T13:06:21Z</time>
      </trkpt>
      <trkpt lat="49.88647" lon="2.24033">
        <ele>54.1</ele>
        <time>2023-06-23T13:06:22Z</time>
      </trkpt>
      <trkpt lat="49.88647" lon="2.24034">
        <ele>54.1</ele>
        <time>2023-06-23T13:06:23Z</time>
      </trkpt>
      <trkpt lat="49.88648" lon="2.24034">
        <ele>54.2</ele>
        <time>2023-06-23T13:06:25Z</time>
      </trkpt>
      <trkpt lat="49.88648" lon="2.24034">
        <ele>54.2</ele>
        <time>2023-06-23T13:06:26Z</time>
      </trkpt>
      <trkpt lat="49.88648" lon="2.24034">
        <ele>54.2</ele>
        <time>2023-06-23T13:06:28Z</time>
      </trkpt>
      <trkpt lat="49.88648" lon="2.24034">
        <ele>54.2</ele>
        <time>2023-06-23T13:06:29Z</time>
      </trkpt>
      <trkpt lat="49.88648" lon="2.24034">
        <ele>54.2</ele>
        <time>2023-06-23T13:06:31Z</time>
      </trkpt>
      <trkpt lat="49.88648" lon="2.24034">
        <ele>54.2</ele>
        <time>2023-06-23T13:06:32Z</time>
      </trkpt>
      <trkpt lat="49.88648" lon="2.24034">
        <ele>54.2</ele>
        <time>2023-06-23T13:06:33Z</time>
      </trkpt>
      <trkpt lat="49.88648" lon="2.24034">
        <ele>54.2</ele>
        <time>2023-06-23T13:06:35Z</time>
      </trkpt>
      <trkpt lat="49.88648" lon="2.24034">
        <ele>54.2</ele>
        <time>2023-06-23T13:06:36Z</time>
      </trkpt>
      <trkpt lat="49.88648" lon="2.24034">
        <ele>54.2</ele>
        <time>2023-06-23T13:06:38Z</time>
      </trkpt>
      <trkpt lat="49.88647" lon="2.24034">
        <ele>54.2</ele>
        <time>2023-06-23T13:06:39Z</time>
      </trkpt>
      <trkpt lat="49.88647" lon="2.24034">
        <ele>54.2</ele>
        <time>2023-06-23T13:06:40Z</time>
      </trkpt>
      <trkpt lat="49.88648" lon="2.24033">
        <ele>54.2</ele>
        <time>2023-06-23T13:06:41Z</time>
      </trkpt>
      <trkpt lat="49.88648" lon="2.24032">
        <ele>54.3</ele>
        <time>2023-06-23T13:06:42Z</time>
      </trkpt>
      <trkpt lat="49.88649" lon="2.24033">
        <ele>54.3</ele>
        <time>2023-06-23T13:06:44Z</time>
      </trkpt>
      <trkpt lat="49.8865" lon="2.24033">
        <ele>54.3</ele>
        <time>2023-06-23T13:06:45Z</time>
      </trkpt>
      <trkpt lat="49.8865" lon="2.24033">
        <ele>54.3</ele>
        <time>2023-06-23T13:06:46Z</time>
      </trkpt>
      <trkpt lat="49.88651" lon="2.24032">
        <ele>54.4</ele>
        <time>2023-06-23T13:06:48Z</time>
      </trkpt>
      <trkpt lat="49.88651" lon="2.24032">
        <ele>54.4</ele>
        <time>2023-06-23T13:06:49Z</time>
      </trkpt>
      <trkpt lat="49.88651" lon="2.24032">
        <ele>54.4</ele>
        <time>2023-06-23T13:06:51Z</time>
      </trkpt>
      <trkpt lat="49.88651" lon="2.24031">
        <ele>54.4</ele>
        <time>2023-06-23T13:06:52Z</time>
      </trkpt>
      <trkpt lat="49.88652" lon="2.2403">
        <ele>54.4</ele>
        <time>2023-06-23T13:06:54Z</time>
      </trkpt>
      <trkpt lat="49.88652" lon="2.24029">
        <ele>54.4</ele>
        <time>2023-06-23T13:06:55Z</time>
      </trkpt>
      <trkpt lat="49.88653" lon="2.24028">
        <ele>54.5</ele>
        <time>2023-06-23T13:06:56Z</time>
      </trkpt>
      <trkpt lat="49.88655" lon="2.24026">
        <ele>54.5</ele>
        <time>2023-06-23T13:06:57Z</time>
      </trkpt>
      <trkpt lat="49.88656" lon="2.24025">
        <ele>54.6</ele>
        <time>2023-06-23T13:06:59Z</time>
      </trkpt>
      <trkpt lat="49.88658" lon="2.24025">
        <ele>54.6</ele>
        <time>2023-06-23T13:07:00Z</time>
      </trkpt>
      <trkpt lat="49.88659" lon="2.24024">
        <ele>54.7</ele>
        <time>2023-06-23T13:07:01Z</time>
      </trkpt>
      <trkpt lat="49.88661" lon="2.24023">
        <ele>54.7</ele>
        <time>2023-06-23T13:07:02Z</time>
      </trkpt>
      <trkpt lat="49.88662" lon="2.24023">
        <ele>54.8</ele>
        <time>2023-06-23T13:07:03Z</time>
      </trkpt>
      <trkpt lat="49.88663" lon="2.24022">
        <ele>54.8</ele>
        <time>2023-06-23T13:07:04Z</time>
      </trkpt>
      <trkpt lat="49.88664" lon="2.24022">
        <ele>54.8</ele>
        <time>2023-06-23T13:07:05Z</time>
      </trkpt>
      <trkpt lat="49.88664" lon="2.24021">
        <ele>54.8</ele>
        <time>2023-06-23T13:07:06Z</time>
      </trkpt>
      <trkpt lat="49.88666" lon="2.2402">
        <ele>54.9</ele>
        <time>2023-06-23T13:07:08Z</time>
      </trkpt>
      <trkpt lat="49.88666" lon="2.24019">
        <ele>54.9</ele>
        <time>2023-06-23T13:07:09Z</time>
      </trkpt>
      <trkpt lat="49.88667" lon="2.24018">
        <ele>54.9</ele>
        <time>2023-06-23T13:07:10Z</time>
      </trkpt>
      <trkpt lat="49.88668" lon="2.24018">
        <ele>55</ele>
        <time>2023-06-23T13:07:11Z</time>
      </trkpt>
      <trkpt lat="49.88669" lon="2.24017">
        <ele>55</ele>
        <time>2023-06-23T13:07:12Z</time>
      </trkpt>
      <trkpt lat="49.8867" lon="2.24016">
        <ele>55</ele>
        <time>2023-06-23T13:07:13Z</time>
      </trkpt>
      <trkpt lat="49.88671" lon="2.24016">
        <ele>55.1</ele>
        <time>2023-06-23T13:07:14Z</time>
      </trkpt>
      <trkpt lat="49.88672" lon="2.24015">
        <ele>55.1</ele>
        <time>2023-06-23T13:07:15Z</time>
      </trkpt>
      <trkpt lat="49.88673" lon="2.24014">
        <ele>55.2</ele>
        <time>2023-06-23T13:07:17Z</time>
      </trkpt>
      <trkpt lat="49.88674" lon="2.24013">
        <ele>55.2</ele>
        <time>2023-06-23T13:07:18Z</time>
      </trkpt>
      <trkpt lat="49.88676" lon="2.24012">
        <ele>55.3</ele>
        <time>2023-06-23T13:07:19Z</time>
      </trkpt>
      <trkpt lat="49.88678" lon="2.2401">
        <ele>55.4</ele>
        <time>2023-06-23T13:07:20Z</time>
      </trkpt>
      <trkpt lat="49.88679" lon="2.2401">
        <ele>55.4</ele>
        <time>2023-06-23T13:07:21Z</time>
      </trkpt>
      <trkpt lat="49.88681" lon="2.24009">
        <ele>55.4</ele>
        <time>2023-06-23T13:07:22Z</time>
      </trkpt>
      <trkpt lat="49.88682" lon="2.24008">
        <ele>55.5</ele>
        <time>2023-06-23T13:07:23Z</time>
      </trkpt>
      <trkpt lat="49.88683" lon="2.24008">
        <ele>55.5</ele>
        <time>2023-06-23T13:07:24Z</time>
      </trkpt>
      <trkpt lat="49.88684" lon="2.24007">
        <ele>55.6</ele>
        <time>2023-06-23T13:07:25Z</time>
      </trkpt>
      <trkpt lat="49.88686" lon="2.24007">
        <ele>55.6</ele>
        <time>2023-06-23T13:07:27Z</time>
      </trkpt>
      <trkpt lat="49.88687" lon="2.24006">
        <ele>55.7</ele>
        <time>2023-06-23T13:07:28Z</time>
      </trkpt>
      <trkpt lat="49.88688" lon="2.24005">
        <ele>55.7</ele>
        <time>2023-06-23T13:07:29Z</time>
      </trkpt>
      <trkpt lat="49.8869" lon="2.24004">
        <ele>55.8</ele>
        <time>2023-06-23T13:07:30Z</time>
      </trkpt>
      <trkpt lat="49.88691" lon="2.24002">
        <ele>55.8</ele>
        <time>2023-06-23T13:07:31Z</time>
      </trkpt>
      <trkpt lat="49.88692" lon="2.24002">
        <ele>55.9</ele>
        <time>2023-06-23T13:07:32Z</time>
      </trkpt>
      <trkpt lat="49.88692" lon="2.24001">
        <ele>55.9</ele>
        <time>2023-06-23T13:07:33Z</time>
      </trkpt>
      <trkpt lat="49.88693" lon="2.24">
        <ele>55.9</ele>
        <time>2023-06-23T13:07:34Z</time>
      </trkpt>
      <trkpt lat="49.88694" lon="2.23998">
        <ele>56</ele>
        <time>2023-06-23T13:07:35Z</time>
      </trkpt>
      <trkpt lat="49.88695" lon="2.23997">
        <ele>56</ele>
        <time>2023-06-23T13:07:37Z</time>
      </trkpt>
      <trkpt lat="49.88696" lon="2.23995">
        <ele>56</ele>
        <time>2023-06-23T13:07:38Z</time>
      </trkpt>
      <trkpt lat="49.88698" lon="2.23994">
        <ele>56.1</ele>
        <time>2023-06-23T13:07:39Z</time>
      </trkpt>
      <trkpt lat="49.88699" lon="2.23992">
        <ele>56.2</ele>
        <time>2023-06-23T13:07:40Z</time>
      </trkpt>
      <trkpt lat="49.887" lon="2.23991">
        <ele>56.2</ele>
        <time>2023-06-23T13:07:41Z</time>
      </trkpt>
      <trkpt lat="49.887" lon="2.2399">
        <ele>56.2</ele>
        <time>2023-06-23T13:07:42Z</time>
      </trkpt>
      <trkpt lat="49.88701" lon="2.23989">
        <ele>56.2</ele>
        <time>2023-06-23T13:07:43Z</time>
      </trkpt>
      <trkpt lat="49.88702" lon="2.23988">
        <ele>56.3</ele>
        <time>2023-06-23T13:07:44Z</time>
      </trkpt>
      <trkpt lat="49.88703" lon="2.23987">
        <ele>56.3</ele>
        <time>2023-06-23T13:07:46Z</time>
      </trkpt>
      <trkpt lat="49.88705" lon="2.23985">
        <ele>56.4</ele>
        <time>2023-06-23T13:07:47Z</time>
      </trkpt>
      <trkpt lat="49.88706" lon="2.23984">
        <ele>56.4</ele>
        <time>2023-06-23T13:07:48Z</time>
      </trkpt>
      <trkpt lat="49.88707" lon="2.23983">
        <ele>56.4</ele>
        <time>2023-06-23T13:07:49Z</time>
      </trkpt>
      <trkpt lat="49.88707" lon="2.23982">
        <ele>56.4</ele>
        <time>2023-06-23T13:07:50Z</time>
      </trkpt>
      <trkpt lat="49.88708" lon="2.23982">
        <ele>56.5</ele>
        <time>2023-06-23T13:07:51Z</time>
      </trkpt>
      <trkpt lat="49.88709" lon="2.23981">
        <ele>56.5</ele>
        <time>2023-06-23T13:07:52Z</time>
      </trkpt>
      <trkpt lat="49.8871" lon="2.2398">
        <ele>56.5</ele>
        <time>2023-06-23T13:07:53Z</time>
      </trkpt>
      <trkpt lat="49.88711" lon="2.23979">
        <ele>56.5</ele>
        <time>2023-06-23T13:07:55Z</time>
      </trkpt>
      <trkpt lat="49.88712" lon="2.23978">
        <ele>56.6</ele>
        <time>2023-06-23T13:07:56Z</time>
      </trkpt>
      <trkpt lat="49.88714" lon="2.23976">
        <ele>56.6</ele>
        <time>2023-06-23T13:07:57Z</time>
      </trkpt>
      <trkpt lat="49.88715" lon="2.23976">
        <ele>56.7</ele>
        <time>2023-06-23T13:07:58Z</time>
      </trkpt>
      <trkpt lat="49.88715" lon="2.23975">
        <ele>56.7</ele>
        <time>2023-06-23T13:07:59Z</time>
      </trkpt>
      <trkpt lat="49.88716" lon="2.23974">
        <ele>56.7</ele>
        <time>2023-06-23T13:08:00Z</time>
      </trkpt>
      <trkpt lat="49.88717" lon="2.23973">
        <ele>56.7</ele>
        <time>2023-06-23T13:08:01Z</time>
      </trkpt>
      <trkpt lat="49.88718" lon="2.23972">
        <ele>56.7</ele>
        <time>2023-06-23T13:08:02Z</time>
      </trkpt>
      <trkpt lat="49.88719" lon="2.2397">
        <ele>56.8</ele>
        <time>2023-06-23T13:08:03Z</time>
      </trkpt>
      <trkpt lat="49.8872" lon="2.2397">
        <ele>56.8</ele>
        <time>2023-06-23T13:08:05Z</time>
      </trkpt>
      <trkpt lat="49.88721" lon="2.23969">
        <ele>56.8</ele>
        <time>2023-06-23T13:08:06Z</time>
      </trkpt>
      <trkpt lat="49.88722" lon="2.23969">
        <ele>56.9</ele>
        <time>2023-06-23T13:08:07Z</time>
      </trkpt>
      <trkpt lat="49.88723" lon="2.23968">
        <ele>56.9</ele>
        <time>2023-06-23T13:08:08Z</time>
      </trkpt>
      <trkpt lat="49.88724" lon="2.23967">
        <ele>57</ele>
        <time>2023-06-23T13:08:10Z</time>
      </trkpt>
      <trkpt lat="49.88726" lon="2.23966">
        <ele>57</ele>
        <time>2023-06-23T13:08:11Z</time>
      </trkpt>
      <trkpt lat="49.88726" lon="2.23965">
        <ele>57</ele>
        <time>2023-06-23T13:08:12Z</time>
      </trkpt>
      <trkpt lat="49.88727" lon="2.23964">
        <ele>57.1</ele>
        <time>2023-06-23T13:08:13Z</time>
      </trkpt>
      <trkpt lat="49.88728" lon="2.23963">
        <ele>57.1</ele>
        <time>2023-06-23T13:08:14Z</time>
      </trkpt>
      <trkpt lat="49.8873" lon="2.23962">
        <ele>57.1</ele>
        <time>2023-06-23T13:08:15Z</time>
      </trkpt>
      <trkpt lat="49.88731" lon="2.23962">
        <ele>57.2</ele>
        <time>2023-06-23T13:08:16Z</time>
      </trkpt>
      <trkpt lat="49.88732" lon="2.23961">
        <ele>57.2</ele>
        <time>2023-06-23T13:08:17Z</time>
      </trkpt>
      <trkpt lat="49.88733" lon="2.2396">
        <ele>57.2</ele>
        <time>2023-06-23T13:08:18Z</time>
      </trkpt>
      <trkpt lat="49.88734" lon="2.23959">
        <ele>57.3</ele>
        <time>2023-06-23T13:08:20Z</time>
      </trkpt>
      <trkpt lat="49.88735" lon="2.23959">
        <ele>57.3</ele>
        <time>2023-06-23T13:08:21Z</time>
      </trkpt>
      <trkpt lat="49.88736" lon="2.23958">
        <ele>57.3</ele>
        <time>2023-06-23T13:08:22Z</time>
      </trkpt>
      <trkpt lat="49.88737" lon="2.23956">
        <ele>57.4</ele>
        <time>2023-06-23T13:08:23Z</time>
      </trkpt>
      <trkpt lat="49.88738" lon="2.23955">
        <ele>57.4</ele>
        <time>2023-06-23T13:08:24Z</time>
      </trkpt>
      <trkpt lat="49.88739" lon="2.23954">
        <ele>57.4</ele>
        <time>2023-06-23T13:08:25Z</time>
      </trkpt>
      <trkpt lat="49.88739" lon="2.23954">
        <ele>57.5</ele>
        <time>2023-06-23T13:08:26Z</time>
      </trkpt>
      <trkpt lat="49.8874" lon="2.23953">
        <ele>57.5</ele>
        <time>2023-06-23T13:08:27Z</time>
      </trkpt>
      <trkpt lat="49.88741" lon="2.23952">
        <ele>57.5</ele>
        <time>2023-06-23T13:08:28Z</time>
      </trkpt>
      <trkpt lat="49.88743" lon="2.23949">
        <ele>57.6</ele>
        <time>2023-06-23T13:08:29Z</time>
      </trkpt>
      <trkpt lat="49.88744" lon="2.23948">
        <ele>57.6</ele>
        <time>2023-06-23T13:08:31Z</time>
      </trkpt>
      <trkpt lat="49.88745" lon="2.23947">
        <ele>57.7</ele>
        <time>2023-06-23T13:08:32Z</time>
      </trkpt>
      <trkpt lat="49.88745" lon="2.23946">
        <ele>57.7</ele>
        <time>2023-06-23T13:08:33Z</time>
      </trkpt>
      <trkpt lat="49.88746" lon="2.23945">
        <ele>57.7</ele>
        <time>2023-06-23T13:08:34Z</time>
      </trkpt>
      <trkpt lat="49.88748" lon="2.23944">
        <ele>57.8</ele>
        <time>2023-06-23T13:08:35Z</time>
      </trkpt>
      <trkpt lat="49.88749" lon="2.23943">
        <ele>57.8</ele>
        <time>2023-06-23T13:08:36Z</time>
      </trkpt>
      <trkpt lat="49.8875" lon="2.23941">
        <ele>57.9</ele>
        <time>2023-06-23T13:08:37Z</time>
      </trkpt>
      <trkpt lat="49.88751" lon="2.2394">
        <ele>57.9</ele>
        <time>2023-06-23T13:08:38Z</time>
      </trkpt>
      <trkpt lat="49.88752" lon="2.23939">
        <ele>57.9</ele>
        <time>2023-06-23T13:08:39Z</time>
      </trkpt>
      <trkpt lat="49.88753" lon="2.23937">
        <ele>58</ele>
        <time>2023-06-23T13:08:41Z</time>
      </trkpt>
      <trkpt lat="49.88754" lon="2.23936">
        <ele>58</ele>
        <time>2023-06-23T13:08:42Z</time>
      </trkpt>
      <trkpt lat="49.88755" lon="2.23935">
        <ele>58</ele>
        <time>2023-06-23T13:08:43Z</time>
      </trkpt>
      <trkpt lat="49.88757" lon="2.23934">
        <ele>58.1</ele>
        <time>2023-06-23T13:08:44Z</time>
      </trkpt>
      <trkpt lat="49.88759" lon="2.23932">
        <ele>58.1</ele>
        <time>2023-06-23T13:08:45Z</time>
      </trkpt>
      <trkpt lat="49.8876" lon="2.23932">
        <ele>58.1</ele>
        <time>2023-06-23T13:08:47Z</time>
      </trkpt>
      <trkpt lat="49.88761" lon="2.23931">
        <ele>58.2</ele>
        <time>2023-06-23T13:08:48Z</time>
      </trkpt>
      <trkpt lat="49.88762" lon="2.23931">
        <ele>58.2</ele>
        <time>2023-06-23T13:08:49Z</time>
      </trkpt>
      <trkpt lat="49.88763" lon="2.2393">
        <ele>58.2</ele>
        <time>2023-06-23T13:08:50Z</time>
      </trkpt>
      <trkpt lat="49.88764" lon="2.23929">
        <ele>58.3</ele>
        <time>2023-06-23T13:08:51Z</time>
      </trkpt>
      <trkpt lat="49.88765" lon="2.23928">
        <ele>58.3</ele>
        <time>2023-06-23T13:08:52Z</time>
      </trkpt>
      <trkpt lat="49.88767" lon="2.23927">
        <ele>58.3</ele>
        <time>2023-06-23T13:08:53Z</time>
      </trkpt>
      <trkpt lat="49.88768" lon="2.23926">
        <ele>58.3</ele>
        <time>2023-06-23T13:08:54Z</time>
      </trkpt>
      <trkpt lat="49.88769" lon="2.23925">
        <ele>58.4</ele>
        <time>2023-06-23T13:08:55Z</time>
      </trkpt>
      <trkpt lat="49.8877" lon="2.23924">
        <ele>58.4</ele>
        <time>2023-06-23T13:08:56Z</time>
      </trkpt>
      <trkpt lat="49.88771" lon="2.23923">
        <ele>58.4</ele>
        <time>2023-06-23T13:08:58Z</time>
      </trkpt>
      <trkpt lat="49.88772" lon="2.23923">
        <ele>58.4</ele>
        <time>2023-06-23T13:08:59Z</time>
      </trkpt>
      <trkpt lat="49.88773" lon="2.23922">
        <ele>58.5</ele>
        <time>2023-06-23T13:09:00Z</time>
      </trkpt>
      <trkpt lat="49.88774" lon="2.23921">
        <ele>58.5</ele>
        <time>2023-06-23T13:09:01Z</time>
      </trkpt>
      <trkpt lat="49.88776" lon="2.2392">
        <ele>58.5</ele>
        <time>2023-06-23T13:09:02Z</time>
      </trkpt>
      <trkpt lat="49.88777" lon="2.2392">
        <ele>58.5</ele>
        <time>2023-06-23T13:09:03Z</time>
      </trkpt>
      <trkpt lat="49.88778" lon="2.23919">
        <ele>58.5</ele>
        <time>2023-06-23T13:09:04Z</time>
      </trkpt>
      <trkpt lat="49.88779" lon="2.23919">
        <ele>58.6</ele>
        <time>2023-06-23T13:09:05Z</time>
      </trkpt>
      <trkpt lat="49.8878" lon="2.23918">
        <ele>58.6</ele>
        <time>2023-06-23T13:09:06Z</time>
      </trkpt>
      <trkpt lat="49.88781" lon="2.23917">
        <ele>58.6</ele>
        <time>2023-06-23T13:09:08Z</time>
      </trkpt>
      <trkpt lat="49.88782" lon="2.23916">
        <ele>58.6</ele>
        <time>2023-06-23T13:09:09Z</time>
      </trkpt>
      <trkpt lat="49.88783" lon="2.23915">
        <ele>58.6</ele>
        <time>2023-06-23T13:09:10Z</time>
      </trkpt>
      <trkpt lat="49.88784" lon="2.23915">
        <ele>58.7</ele>
        <time>2023-06-23T13:09:11Z</time>
      </trkpt>
      <trkpt lat="49.88786" lon="2.23913">
        <ele>58.7</ele>
        <time>2023-06-23T13:09:12Z</time>
      </trkpt>
      <trkpt lat="49.88787" lon="2.23913">
        <ele>58.7</ele>
        <time>2023-06-23T13:09:13Z</time>
      </trkpt>
      <trkpt lat="49.88787" lon="2.23912">
        <ele>58.7</ele>
        <time>2023-06-23T13:09:14Z</time>
      </trkpt>
      <trkpt lat="49.88789" lon="2.23911">
        <ele>58.8</ele>
        <time>2023-06-23T13:09:15Z</time>
      </trkpt>
      <trkpt lat="49.8879" lon="2.23911">
        <ele>58.8</ele>
        <time>2023-06-23T13:09:16Z</time>
      </trkpt>
      <trkpt lat="49.88791" lon="2.2391">
        <ele>58.8</ele>
        <time>2023-06-23T13:09:17Z</time>
      </trkpt>
      <trkpt lat="49.88793" lon="2.23909">
        <ele>58.8</ele>
        <time>2023-06-23T13:09:18Z</time>
      </trkpt>
      <trkpt lat="49.88794" lon="2.23909">
        <ele>58.8</ele>
        <time>2023-06-23T13:09:20Z</time>
      </trkpt>
      <trkpt lat="49.88794" lon="2.23908">
        <ele>58.9</ele>
        <time>2023-06-23T13:09:21Z</time>
      </trkpt>
      <trkpt lat="49.88795" lon="2.23907">
        <ele>58.9</ele>
        <time>2023-06-23T13:09:22Z</time>
      </trkpt>
      <trkpt lat="49.88796" lon="2.23906">
        <ele>58.9</ele>
        <time>2023-06-23T13:09:23Z</time>
      </trkpt>
      <trkpt lat="49.88797" lon="2.23906">
        <ele>58.9</ele>
        <time>2023-06-23T13:09:24Z</time>
      </trkpt>
      <trkpt lat="49.88798" lon="2.23905">
        <ele>58.9</ele>
        <time>2023-06-23T13:09:25Z</time>
      </trkpt>
      <trkpt lat="49.88799" lon="2.23904">
        <ele>59</ele>
        <time>2023-06-23T13:09:26Z</time>
      </trkpt>
      <trkpt lat="49.888" lon="2.23903">
        <ele>59</ele>
        <time>2023-06-23T13:09:27Z</time>
      </trkpt>
      <trkpt lat="49.88802" lon="2.23903">
        <ele>59</ele>
        <time>2023-06-23T13:09:28Z</time>
      </trkpt>
      <trkpt lat="49.88803" lon="2.23902">
        <ele>59</ele>
        <time>2023-06-23T13:09:29Z</time>
      </trkpt>
      <trkpt lat="49.88804" lon="2.23901">
        <ele>59</ele>
        <time>2023-06-23T13:09:31Z</time>
      </trkpt>
      <trkpt lat="49.88806" lon="2.239">
        <ele>59.1</ele>
        <time>2023-06-23T13:09:32Z</time>
      </trkpt>
      <trkpt lat="49.88806" lon="2.23899">
        <ele>59.1</ele>
        <time>2023-06-23T13:09:33Z</time>
      </trkpt>
      <trkpt lat="49.88807" lon="2.23899">
        <ele>59.1</ele>
        <time>2023-06-23T13:09:34Z</time>
      </trkpt>
      <trkpt lat="49.88808" lon="2.23898">
        <ele>59.1</ele>
        <time>2023-06-23T13:09:35Z</time>
      </trkpt>
      <trkpt lat="49.8881" lon="2.23897">
        <ele>59.1</ele>
        <time>2023-06-23T13:09:36Z</time>
      </trkpt>
      <trkpt lat="49.88811" lon="2.23895">
        <ele>59.1</ele>
        <time>2023-06-23T13:09:38Z</time>
      </trkpt>
      <trkpt lat="49.88812" lon="2.23894">
        <ele>59.2</ele>
        <time>2023-06-23T13:09:39Z</time>
      </trkpt>
      <trkpt lat="49.88814" lon="2.23893">
        <ele>59.2</ele>
        <time>2023-06-23T13:09:40Z</time>
      </trkpt>
      <trkpt lat="49.88815" lon="2.23891">
        <ele>59.2</ele>
        <time>2023-06-23T13:09:41Z</time>
      </trkpt>
      <trkpt lat="49.88817" lon="2.2389">
        <ele>59.2</ele>
        <time>2023-06-23T13:09:42Z</time>
      </trkpt>
      <trkpt lat="49.88818" lon="2.23889">
        <ele>59.3</ele>
        <time>2023-06-23T13:09:43Z</time>
      </trkpt>
      <trkpt lat="49.88818" lon="2.23888">
        <ele>59.3</ele>
        <time>2023-06-23T13:09:44Z</time>
      </trkpt>
      <trkpt lat="49.88819" lon="2.23887">
        <ele>59.3</ele>
        <time>2023-06-23T13:09:45Z</time>
      </trkpt>
      <trkpt lat="49.88821" lon="2.23886">
        <ele>59.3</ele>
        <time>2023-06-23T13:09:46Z</time>
      </trkpt>
      <trkpt lat="49.88822" lon="2.23884">
        <ele>59.3</ele>
        <time>2023-06-23T13:09:48Z</time>
      </trkpt>
      <trkpt lat="49.88823" lon="2.23883">
        <ele>59.3</ele>
        <time>2023-06-23T13:09:49Z</time>
      </trkpt>
      <trkpt lat="49.88825" lon="2.23882">
        <ele>59.4</ele>
        <time>2023-06-23T13:09:50Z</time>
      </trkpt>
      <trkpt lat="49.88826" lon="2.2388">
        <ele>59.4</ele>
        <time>2023-06-23T13:09:51Z</time>
      </trkpt>
      <trkpt lat="49.88827" lon="2.23879">
        <ele>59.4</ele>
        <time>2023-06-23T13:09:52Z</time>
      </trkpt>
      <trkpt lat="49.88828" lon="2.23879">
        <ele>59.4</ele>
        <time>2023-06-23T13:09:53Z</time>
      </trkpt>
      <trkpt lat="49.8883" lon="2.23877">
        <ele>59.4</ele>
        <time>2023-06-23T13:09:54Z</time>
      </trkpt>
      <trkpt lat="49.88831" lon="2.23876">
        <ele>59.4</ele>
        <time>2023-06-23T13:09:55Z</time>
      </trkpt>
      <trkpt lat="49.88831" lon="2.23876">
        <ele>59.4</ele>
        <time>2023-06-23T13:09:56Z</time>
      </trkpt>
      <trkpt lat="49.88832" lon="2.23875">
        <ele>59.5</ele>
        <time>2023-06-23T13:09:58Z</time>
      </trkpt>
      <trkpt lat="49.88833" lon="2.23874">
        <ele>59.5</ele>
        <time>2023-06-23T13:09:59Z</time>
      </trkpt>
      <trkpt lat="49.88834" lon="2.23873">
        <ele>59.5</ele>
        <time>2023-06-23T13:10:00Z</time>
      </trkpt>
      <trkpt lat="49.88836" lon="2.23871">
        <ele>59.5</ele>
        <time>2023-06-23T13:10:01Z</time>
      </trkpt>
      <trkpt lat="49.88836" lon="2.2387">
        <ele>59.5</ele>
        <time>2023-06-23T13:10:02Z</time>
      </trkpt>
      <trkpt lat="49.88837" lon="2.23869">
        <ele>59.5</ele>
        <time>2023-06-23T13:10:03Z</time>
      </trkpt>
      <trkpt lat="49.88838" lon="2.23867">
        <ele>59.6</ele>
        <time>2023-06-23T13:10:05Z</time>
      </trkpt>
      <trkpt lat="49.88839" lon="2.23866">
        <ele>59.6</ele>
        <time>2023-06-23T13:10:06Z</time>
      </trkpt>
      <trkpt lat="49.8884" lon="2.23865">
        <ele>59.6</ele>
        <time>2023-06-23T13:10:07Z</time>
      </trkpt>
      <trkpt lat="49.88841" lon="2.23864">
        <ele>59.6</ele>
        <time>2023-06-23T13:10:08Z</time>
      </trkpt>
      <trkpt lat="49.88842" lon="2.23864">
        <ele>59.6</ele>
        <time>2023-06-23T13:10:09Z</time>
      </trkpt>
      <trkpt lat="49.88843" lon="2.23863">
        <ele>59.6</ele>
        <time>2023-06-23T13:10:10Z</time>
      </trkpt>
      <trkpt lat="49.88844" lon="2.23862">
        <ele>59.7</ele>
        <time>2023-06-23T13:10:11Z</time>
      </trkpt>
      <trkpt lat="49.88844" lon="2.23861">
        <ele>59.7</ele>
        <time>2023-06-23T13:10:12Z</time>
      </trkpt>
      <trkpt lat="49.88846" lon="2.23859">
        <ele>59.7</ele>
        <time>2023-06-23T13:10:13Z</time>
      </trkpt>
      <trkpt lat="49.88847" lon="2.23858">
        <ele>59.7</ele>
        <time>2023-06-23T13:10:14Z</time>
      </trkpt>
      <trkpt lat="49.88847" lon="2.23857">
        <ele>59.7</ele>
        <time>2023-06-23T13:10:15Z</time>
      </trkpt>
      <trkpt lat="49.88849" lon="2.23855">
        <ele>59.8</ele>
        <time>2023-06-23T13:10:17Z</time>
      </trkpt>
      <trkpt lat="49.8885" lon="2.23855">
        <ele>59.8</ele>
        <time>2023-06-23T13:10:18Z</time>
      </trkpt>
      <trkpt lat="49.88851" lon="2.23854">
        <ele>59.8</ele>
        <time>2023-06-23T13:10:19Z</time>
      </trkpt>
      <trkpt lat="49.88852" lon="2.23853">
        <ele>59.8</ele>
        <time>2023-06-23T13:10:20Z</time>
      </trkpt>
      <trkpt lat="49.88853" lon="2.23852">
        <ele>59.8</ele>
        <time>2023-06-23T13:10:21Z</time>
      </trkpt>
      <trkpt lat="49.88853" lon="2.23851">
        <ele>59.8</ele>
        <time>2023-06-23T13:10:22Z</time>
      </trkpt>
      <trkpt lat="49.88854" lon="2.2385">
        <ele>59.8</ele>
        <time>2023-06-23T13:10:23Z</time>
      </trkpt>
      <trkpt lat="49.88855" lon="2.23849">
        <ele>59.9</ele>
        <time>2023-06-23T13:10:24Z</time>
      </trkpt>
      <trkpt lat="49.88856" lon="2.23848">
        <ele>59.9</ele>
        <time>2023-06-23T13:10:26Z</time>
      </trkpt>
      <trkpt lat="49.88857" lon="2.23847">
        <ele>59.9</ele>
        <time>2023-06-23T13:10:27Z</time>
      </trkpt>
      <trkpt lat="49.88858" lon="2.23846">
        <ele>59.9</ele>
        <time>2023-06-23T13:10:28Z</time>
      </trkpt>
      <trkpt lat="49.88859" lon="2.23845">
        <ele>59.9</ele>
        <time>2023-06-23T13:10:29Z</time>
      </trkpt>
      <trkpt lat="49.8886" lon="2.23844">
        <ele>59.9</ele>
        <time>2023-06-23T13:10:30Z</time>
      </trkpt>
      <trkpt lat="49.88861" lon="2.23843">
        <ele>59.9</ele>
        <time>2023-06-23T13:10:32Z</time>
      </trkpt>
      <trkpt lat="49.88862" lon="2.23842">
        <ele>59.9</ele>
        <time>2023-06-23T13:10:33Z</time>
      </trkpt>
      <trkpt lat="49.88864" lon="2.2384">
        <ele>60</ele>
        <time>2023-06-23T13:10:34Z</time>
      </trkpt>
      <trkpt lat="49.88864" lon="2.2384">
        <ele>60</ele>
        <time>2023-06-23T13:10:35Z</time>
      </trkpt>
      <trkpt lat="49.88865" lon="2.23839">
        <ele>60</ele>
        <time>2023-06-23T13:10:36Z</time>
      </trkpt>
      <trkpt lat="49.88867" lon="2.23837">
        <ele>60</ele>
        <time>2023-06-23T13:10:37Z</time>
      </trkpt>
      <trkpt lat="49.88867" lon="2.23836">
        <ele>60</ele>
        <time>2023-06-23T13:10:38Z</time>
      </trkpt>
      <trkpt lat="49.88868" lon="2.23836">
        <ele>60</ele>
        <time>2023-06-23T13:10:39Z</time>
      </trkpt>
      <trkpt lat="49.88869" lon="2.23834">
        <ele>60</ele>
        <time>2023-06-23T13:10:40Z</time>
      </trkpt>
      <trkpt lat="49.8887" lon="2.23833">
        <ele>60.1</ele>
        <time>2023-06-23T13:10:41Z</time>
      </trkpt>
      <trkpt lat="49.88871" lon="2.23832">
        <ele>60.1</ele>
        <time>2023-06-23T13:10:43Z</time>
      </trkpt>
      <trkpt lat="49.88872" lon="2.23831">
        <ele>60.1</ele>
        <time>2023-06-23T13:10:44Z</time>
      </trkpt>
      <trkpt lat="49.88873" lon="2.2383">
        <ele>60.1</ele>
        <time>2023-06-23T13:10:45Z</time>
      </trkpt>
      <trkpt lat="49.88874" lon="2.23829">
        <ele>60.1</ele>
        <time>2023-06-23T13:10:46Z</time>
      </trkpt>
      <trkpt lat="49.88876" lon="2.23828">
        <ele>60.1</ele>
        <time>2023-06-23T13:10:47Z</time>
      </trkpt>
      <trkpt lat="49.88876" lon="2.23827">
        <ele>60.1</ele>
        <time>2023-06-23T13:10:48Z</time>
      </trkpt>
      <trkpt lat="49.88877" lon="2.23826">
        <ele>60.2</ele>
        <time>2023-06-23T13:10:49Z</time>
      </trkpt>
      <trkpt lat="49.88879" lon="2.23824">
        <ele>60.2</ele>
        <time>2023-06-23T13:10:50Z</time>
      </trkpt>
      <trkpt lat="49.8888" lon="2.23823">
        <ele>60.2</ele>
        <time>2023-06-23T13:10:52Z</time>
      </trkpt>
      <trkpt lat="49.88881" lon="2.23823">
        <ele>60.2</ele>
        <time>2023-06-23T13:10:53Z</time>
      </trkpt>
      <trkpt lat="49.88882" lon="2.23822">
        <ele>60.2</ele>
        <time>2023-06-23T13:10:54Z</time>
      </trkpt>
      <trkpt lat="49.88883" lon="2.23821">
        <ele>60.2</ele>
        <time>2023-06-23T13:10:55Z</time>
      </trkpt>
      <trkpt lat="49.88885" lon="2.23819">
        <ele>60.2</ele>
        <time>2023-06-23T13:10:56Z</time>
      </trkpt>
      <trkpt lat="49.88885" lon="2.23818">
        <ele>60.2</ele>
        <time>2023-06-23T13:10:57Z</time>
      </trkpt>
      <trkpt lat="49.88886" lon="2.23818">
        <ele>60.2</ele>
        <time>2023-06-23T13:10:58Z</time>
      </trkpt>
      <trkpt lat="49.88889" lon="2.23814">
        <ele>60.3</ele>
        <time>2023-06-23T13:11:01Z</time>
      </trkpt>
      <trkpt lat="49.8889" lon="2.23813">
        <ele>60.3</ele>
        <time>2023-06-23T13:11:02Z</time>
      </trkpt>
      <trkpt lat="49.8889" lon="2.23812">
        <ele>60.3</ele>
        <time>2023-06-23T13:11:03Z</time>
      </trkpt>
      <trkpt lat="49.88891" lon="2.23811">
        <ele>60.3</ele>
        <time>2023-06-23T13:11:04Z</time>
      </trkpt>
      <trkpt lat="49.88893" lon="2.23809">
        <ele>60.3</ele>
        <time>2023-06-23T13:11:05Z</time>
      </trkpt>
      <trkpt lat="49.88894" lon="2.23808">
        <ele>60.3</ele>
        <time>2023-06-23T13:11:06Z</time>
      </trkpt>
      <trkpt lat="49.88894" lon="2.23807">
        <ele>60.3</ele>
        <time>2023-06-23T13:11:07Z</time>
      </trkpt>
      <trkpt lat="49.88896" lon="2.23806">
        <ele>60.3</ele>
        <time>2023-06-23T13:11:09Z</time>
      </trkpt>
      <trkpt lat="49.88897" lon="2.23805">
        <ele>60.3</ele>
        <time>2023-06-23T13:11:10Z</time>
      </trkpt>
      <trkpt lat="49.88898" lon="2.23803">
        <ele>60.3</ele>
        <time>2023-06-23T13:11:11Z</time>
      </trkpt>
      <trkpt lat="49.88899" lon="2.23802">
        <ele>60.3</ele>
        <time>2023-06-23T13:11:12Z</time>
      </trkpt>
      <trkpt lat="49.88899" lon="2.23801">
        <ele>60.4</ele>
        <time>2023-06-23T13:11:13Z</time>
      </trkpt>
      <trkpt lat="49.889" lon="2.238">
        <ele>60.4</ele>
        <time>2023-06-23T13:11:14Z</time>
      </trkpt>
      <trkpt lat="49.88901" lon="2.23798">
        <ele>60.4</ele>
        <time>2023-06-23T13:11:16Z</time>
      </trkpt>
      <trkpt lat="49.88902" lon="2.23798">
        <ele>60.4</ele>
        <time>2023-06-23T13:11:17Z</time>
      </trkpt>
      <trkpt lat="49.88903" lon="2.23797">
        <ele>60.4</ele>
        <time>2023-06-23T13:11:19Z</time>
      </trkpt>
      <trkpt lat="49.88904" lon="2.23796">
        <ele>60.4</ele>
        <time>2023-06-23T13:11:20Z</time>
      </trkpt>
      <trkpt lat="49.88904" lon="2.23796">
        <ele>60.4</ele>
        <time>2023-06-23T13:11:21Z</time>
      </trkpt>
      <trkpt lat="49.88904" lon="2.23795">
        <ele>60.4</ele>
        <time>2023-06-23T13:11:22Z</time>
      </trkpt>
      <trkpt lat="49.88905" lon="2.23795">
        <ele>60.4</ele>
        <time>2023-06-23T13:11:23Z</time>
      </trkpt>
      <trkpt lat="49.88905" lon="2.23793">
        <ele>60.4</ele>
        <time>2023-06-23T13:11:24Z</time>
      </trkpt>
      <trkpt lat="49.88906" lon="2.23792">
        <ele>60.4</ele>
        <time>2023-06-23T13:11:25Z</time>
      </trkpt>
      <trkpt lat="49.88907" lon="2.23791">
        <ele>60.4</ele>
        <time>2023-06-23T13:11:26Z</time>
      </trkpt>
      <trkpt lat="49.88907" lon="2.2379">
        <ele>60.4</ele>
        <time>2023-06-23T13:11:28Z</time>
      </trkpt>
      <trkpt lat="49.88908" lon="2.23789">
        <ele>60.5</ele>
        <time>2023-06-23T13:11:29Z</time>
      </trkpt>
      <trkpt lat="49.88909" lon="2.23788">
        <ele>60.5</ele>
        <time>2023-06-23T13:11:30Z</time>
      </trkpt>
      <trkpt lat="49.8891" lon="2.23787">
        <ele>60.5</ele>
        <time>2023-06-23T13:11:31Z</time>
      </trkpt>
      <trkpt lat="49.88911" lon="2.23786">
        <ele>60.5</ele>
        <time>2023-06-23T13:11:32Z</time>
      </trkpt>
      <trkpt lat="49.88912" lon="2.23784">
        <ele>60.5</ele>
        <time>2023-06-23T13:11:34Z</time>
      </trkpt>
      <trkpt lat="49.88913" lon="2.23783">
        <ele>60.5</ele>
        <time>2023-06-23T13:11:35Z</time>
      </trkpt>
      <trkpt lat="49.88914" lon="2.2378">
        <ele>60.5</ele>
        <time>2023-06-23T13:11:36Z</time>
      </trkpt>
      <trkpt lat="49.88915" lon="2.23779">
        <ele>60.5</ele>
        <time>2023-06-23T13:11:37Z</time>
      </trkpt>
      <trkpt lat="49.88916" lon="2.23778">
        <ele>60.5</ele>
        <time>2023-06-23T13:11:38Z</time>
      </trkpt>
      <trkpt lat="49.88917" lon="2.23776">
        <ele>60.5</ele>
        <time>2023-06-23T13:11:39Z</time>
      </trkpt>
      <trkpt lat="49.88918" lon="2.23775">
        <ele>60.5</ele>
        <time>2023-06-23T13:11:40Z</time>
      </trkpt>
      <trkpt lat="49.88919" lon="2.23774">
        <ele>60.5</ele>
        <time>2023-06-23T13:11:42Z</time>
      </trkpt>
      <trkpt lat="49.8892" lon="2.23773">
        <ele>60.5</ele>
        <time>2023-06-23T13:11:43Z</time>
      </trkpt>
      <trkpt lat="49.88921" lon="2.23772">
        <ele>60.5</ele>
        <time>2023-06-23T13:11:44Z</time>
      </trkpt>
      <trkpt lat="49.88921" lon="2.23772">
        <ele>60.5</ele>
        <time>2023-06-23T13:11:45Z</time>
      </trkpt>
      <trkpt lat="49.88923" lon="2.23769">
        <ele>60.5</ele>
        <time>2023-06-23T13:11:46Z</time>
      </trkpt>
      <trkpt lat="49.88923" lon="2.23768">
        <ele>60.5</ele>
        <time>2023-06-23T13:11:47Z</time>
      </trkpt>
      <trkpt lat="49.88924" lon="2.23767">
        <ele>60.5</ele>
        <time>2023-06-23T13:11:48Z</time>
      </trkpt>
      <trkpt lat="49.88925" lon="2.23766">
        <ele>60.4</ele>
        <time>2023-06-23T13:11:49Z</time>
      </trkpt>
      <trkpt lat="49.88926" lon="2.23764">
        <ele>60.4</ele>
        <time>2023-06-23T13:11:50Z</time>
      </trkpt>
      <trkpt lat="49.88927" lon="2.23762">
        <ele>60.4</ele>
        <time>2023-06-23T13:11:52Z</time>
      </trkpt>
      <trkpt lat="49.88928" lon="2.2376">
        <ele>60.4</ele>
        <time>2023-06-23T13:11:53Z</time>
      </trkpt>
      <trkpt lat="49.88928" lon="2.23759">
        <ele>60.4</ele>
        <time>2023-06-23T13:11:54Z</time>
      </trkpt>
      <trkpt lat="49.88929" lon="2.23757">
        <ele>60.4</ele>
        <time>2023-06-23T13:11:55Z</time>
      </trkpt>
      <trkpt lat="49.8893" lon="2.23754">
        <ele>60.4</ele>
        <time>2023-06-23T13:11:56Z</time>
      </trkpt>
      <trkpt lat="49.88931" lon="2.23753">
        <ele>60.4</ele>
        <time>2023-06-23T13:11:57Z</time>
      </trkpt>
      <trkpt lat="49.88931" lon="2.23752">
        <ele>60.4</ele>
        <time>2023-06-23T13:11:58Z</time>
      </trkpt>
      <trkpt lat="49.88932" lon="2.2375">
        <ele>60.3</ele>
        <time>2023-06-23T13:11:59Z</time>
      </trkpt>
      <trkpt lat="49.88933" lon="2.23748">
        <ele>60.3</ele>
        <time>2023-06-23T13:12:00Z</time>
      </trkpt>
      <trkpt lat="49.88933" lon="2.23745">
        <ele>60.3</ele>
        <time>2023-06-23T13:12:02Z</time>
      </trkpt>
      <trkpt lat="49.88934" lon="2.23744">
        <ele>60.3</ele>
        <time>2023-06-23T13:12:03Z</time>
      </trkpt>
      <trkpt lat="49.88934" lon="2.23743">
        <ele>60.3</ele>
        <time>2023-06-23T13:12:04Z</time>
      </trkpt>
      <trkpt lat="49.88935" lon="2.2374">
        <ele>60.3</ele>
        <time>2023-06-23T13:12:05Z</time>
      </trkpt>
      <trkpt lat="49.88936" lon="2.23739">
        <ele>60.3</ele>
        <time>2023-06-23T13:12:06Z</time>
      </trkpt>
      <trkpt lat="49.88936" lon="2.23737">
        <ele>60.3</ele>
        <time>2023-06-23T13:12:07Z</time>
      </trkpt>
      <trkpt lat="49.88937" lon="2.23735">
        <ele>60.3</ele>
        <time>2023-06-23T13:12:08Z</time>
      </trkpt>
      <trkpt lat="49.88938" lon="2.23734">
        <ele>60.3</ele>
        <time>2023-06-23T13:12:09Z</time>
      </trkpt>
      <trkpt lat="49.88938" lon="2.23733">
        <ele>60.3</ele>
        <time>2023-06-23T13:12:10Z</time>
      </trkpt>
      <trkpt lat="49.88939" lon="2.2373">
        <ele>60.3</ele>
        <time>2023-06-23T13:12:12Z</time>
      </trkpt>
      <trkpt lat="49.8894" lon="2.23729">
        <ele>60.3</ele>
        <time>2023-06-23T13:12:13Z</time>
      </trkpt>
      <trkpt lat="49.8894" lon="2.23728">
        <ele>60.3</ele>
        <time>2023-06-23T13:12:14Z</time>
      </trkpt>
      <trkpt lat="49.88941" lon="2.23726">
        <ele>60.3</ele>
        <time>2023-06-23T13:12:15Z</time>
      </trkpt>
      <trkpt lat="49.88941" lon="2.23724">
        <ele>60.3</ele>
        <time>2023-06-23T13:12:16Z</time>
      </trkpt>
      <trkpt lat="49.88941" lon="2.23722">
        <ele>60.3</ele>
        <time>2023-06-23T13:12:17Z</time>
      </trkpt>
      <trkpt lat="49.88942" lon="2.23719">
        <ele>60.3</ele>
        <time>2023-06-23T13:12:18Z</time>
      </trkpt>
      <trkpt lat="49.88943" lon="2.23718">
        <ele>60.3</ele>
        <time>2023-06-23T13:12:19Z</time>
      </trkpt>
      <trkpt lat="49.88943" lon="2.23716">
        <ele>60.3</ele>
        <time>2023-06-23T13:12:21Z</time>
      </trkpt>
      <trkpt lat="49.88944" lon="2.23715">
        <ele>60.3</ele>
        <time>2023-06-23T13:12:22Z</time>
      </trkpt>
      <trkpt lat="49.88944" lon="2.23714">
        <ele>60.3</ele>
        <time>2023-06-23T13:12:23Z</time>
      </trkpt>
      <trkpt lat="49.88944" lon="2.23712">
        <ele>60.3</ele>
        <time>2023-06-23T13:12:24Z</time>
      </trkpt>
      <trkpt lat="49.88945" lon="2.2371">
        <ele>60.3</ele>
        <time>2023-06-23T13:12:25Z</time>
      </trkpt>
      <trkpt lat="49.88946" lon="2.23708">
        <ele>60.3</ele>
        <time>2023-06-23T13:12:26Z</time>
      </trkpt>
      <trkpt lat="49.88947" lon="2.23707">
        <ele>60.3</ele>
        <time>2023-06-23T13:12:27Z</time>
      </trkpt>
      <trkpt lat="49.88948" lon="2.23705">
        <ele>60.3</ele>
        <time>2023-06-23T13:12:28Z</time>
      </trkpt>
      <trkpt lat="49.88948" lon="2.23705">
        <ele>60.3</ele>
        <time>2023-06-23T13:12:29Z</time>
      </trkpt>
      <trkpt lat="49.8895" lon="2.23702">
        <ele>60.3</ele>
        <time>2023-06-23T13:12:30Z</time>
      </trkpt>
      <trkpt lat="49.8895" lon="2.23701">
        <ele>60.3</ele>
        <time>2023-06-23T13:12:31Z</time>
      </trkpt>
      <trkpt lat="49.88951" lon="2.237">
        <ele>60.3</ele>
        <time>2023-06-23T13:12:32Z</time>
      </trkpt>
      <trkpt lat="49.88951" lon="2.23699">
        <ele>60.3</ele>
        <time>2023-06-23T13:12:34Z</time>
      </trkpt>
      <trkpt lat="49.88952" lon="2.23696">
        <ele>60.3</ele>
        <time>2023-06-23T13:12:35Z</time>
      </trkpt>
      <trkpt lat="49.88953" lon="2.23692">
        <ele>60.3</ele>
        <time>2023-06-23T13:12:36Z</time>
      </trkpt>
      <trkpt lat="49.88953" lon="2.23691">
        <ele>60.3</ele>
        <time>2023-06-23T13:12:37Z</time>
      </trkpt>
      <trkpt lat="49.88954" lon="2.2369">
        <ele>60.3</ele>
        <time>2023-06-23T13:12:38Z</time>
      </trkpt>
      <trkpt lat="49.88955" lon="2.23688">
        <ele>60.3</ele>
        <time>2023-06-23T13:12:39Z</time>
      </trkpt>
      <trkpt lat="49.88956" lon="2.23687">
        <ele>60.3</ele>
        <time>2023-06-23T13:12:40Z</time>
      </trkpt>
      <trkpt lat="49.88957" lon="2.23686">
        <ele>60.3</ele>
        <time>2023-06-23T13:12:42Z</time>
      </trkpt>
      <trkpt lat="49.88957" lon="2.23685">
        <ele>60.3</ele>
        <time>2023-06-23T13:12:43Z</time>
      </trkpt>
      <trkpt lat="49.88958" lon="2.23684">
        <ele>60.3</ele>
        <time>2023-06-23T13:12:44Z</time>
      </trkpt>
      <trkpt lat="49.88959" lon="2.23682">
        <ele>60.3</ele>
        <time>2023-06-23T13:12:45Z</time>
      </trkpt>
      <trkpt lat="49.8896" lon="2.23681">
        <ele>60.3</ele>
        <time>2023-06-23T13:12:46Z</time>
      </trkpt>
      <trkpt lat="49.88961" lon="2.2368">
        <ele>60.3</ele>
        <time>2023-06-23T13:12:47Z</time>
      </trkpt>
      <trkpt lat="49.88962" lon="2.23678">
        <ele>60.3</ele>
        <time>2023-06-23T13:12:49Z</time>
      </trkpt>
      <trkpt lat="49.88962" lon="2.23676">
        <ele>60.3</ele>
        <time>2023-06-23T13:12:50Z</time>
      </trkpt>
      <trkpt lat="49.88963" lon="2.23674">
        <ele>60.3</ele>
        <time>2023-06-23T13:12:51Z</time>
      </trkpt>
      <trkpt lat="49.88964" lon="2.23672">
        <ele>60.3</ele>
        <time>2023-06-23T13:12:52Z</time>
      </trkpt>
      <trkpt lat="49.88965" lon="2.23671">
        <ele>60.3</ele>
        <time>2023-06-23T13:12:53Z</time>
      </trkpt>
      <trkpt lat="49.88966" lon="2.23668">
        <ele>60.3</ele>
        <time>2023-06-23T13:12:54Z</time>
      </trkpt>
      <trkpt lat="49.88967" lon="2.23667">
        <ele>60.3</ele>
        <time>2023-06-23T13:12:55Z</time>
      </trkpt>
      <trkpt lat="49.88967" lon="2.23666">
        <ele>60.3</ele>
        <time>2023-06-23T13:12:56Z</time>
      </trkpt>
      <trkpt lat="49.88968" lon="2.23664">
        <ele>60.3</ele>
        <time>2023-06-23T13:12:58Z</time>
      </trkpt>
      <trkpt lat="49.88969" lon="2.23663">
        <ele>60.3</ele>
        <time>2023-06-23T13:12:59Z</time>
      </trkpt>
      <trkpt lat="49.8897" lon="2.23662">
        <ele>60.3</ele>
        <time>2023-06-23T13:13:00Z</time>
      </trkpt>
      <trkpt lat="49.8897" lon="2.23661">
        <ele>60.3</ele>
        <time>2023-06-23T13:13:01Z</time>
      </trkpt>
      <trkpt lat="49.88971" lon="2.23659">
        <ele>60.3</ele>
        <time>2023-06-23T13:13:02Z</time>
      </trkpt>
      <trkpt lat="49.88973" lon="2.23656">
        <ele>60.3</ele>
        <time>2023-06-23T13:13:03Z</time>
      </trkpt>
      <trkpt lat="49.88973" lon="2.23654">
        <ele>60.4</ele>
        <time>2023-06-23T13:13:05Z</time>
      </trkpt>
      <trkpt lat="49.88974" lon="2.23653">
        <ele>60.4</ele>
        <time>2023-06-23T13:13:06Z</time>
      </trkpt>
      <trkpt lat="49.88974" lon="2.23651">
        <ele>60.4</ele>
        <time>2023-06-23T13:13:07Z</time>
      </trkpt>
      <trkpt lat="49.88975" lon="2.2365">
        <ele>60.4</ele>
        <time>2023-06-23T13:13:08Z</time>
      </trkpt>
      <trkpt lat="49.88976" lon="2.23648">
        <ele>60.4</ele>
        <time>2023-06-23T13:13:09Z</time>
      </trkpt>
      <trkpt lat="49.88977" lon="2.23646">
        <ele>60.4</ele>
        <time>2023-06-23T13:13:10Z</time>
      </trkpt>
      <trkpt lat="49.88978" lon="2.23644">
        <ele>60.4</ele>
        <time>2023-06-23T13:13:11Z</time>
      </trkpt>
      <trkpt lat="49.88978" lon="2.23643">
        <ele>60.4</ele>
        <time>2023-06-23T13:13:13Z</time>
      </trkpt>
      <trkpt lat="49.88979" lon="2.23642">
        <ele>60.4</ele>
        <time>2023-06-23T13:13:14Z</time>
      </trkpt>
      <trkpt lat="49.8898" lon="2.23639">
        <ele>60.5</ele>
        <time>2023-06-23T13:13:15Z</time>
      </trkpt>
      <trkpt lat="49.88981" lon="2.23638">
        <ele>60.5</ele>
        <time>2023-06-23T13:13:16Z</time>
      </trkpt>
      <trkpt lat="49.88981" lon="2.23637">
        <ele>60.5</ele>
        <time>2023-06-23T13:13:17Z</time>
      </trkpt>
      <trkpt lat="49.88983" lon="2.23634">
        <ele>60.5</ele>
        <time>2023-06-23T13:13:18Z</time>
      </trkpt>
      <trkpt lat="49.88983" lon="2.23633">
        <ele>60.5</ele>
        <time>2023-06-23T13:13:20Z</time>
      </trkpt>
      <trkpt lat="49.88984" lon="2.23631">
        <ele>60.5</ele>
        <time>2023-06-23T13:13:21Z</time>
      </trkpt>
      <trkpt lat="49.88984" lon="2.2363">
        <ele>60.5</ele>
        <time>2023-06-23T13:13:22Z</time>
      </trkpt>
      <trkpt lat="49.88985" lon="2.23628">
        <ele>60.6</ele>
        <time>2023-06-23T13:13:23Z</time>
      </trkpt>
      <trkpt lat="49.88985" lon="2.23627">
        <ele>60.6</ele>
        <time>2023-06-23T13:13:24Z</time>
      </trkpt>
      <trkpt lat="49.88986" lon="2.23626">
        <ele>60.6</ele>
        <time>2023-06-23T13:13:25Z</time>
      </trkpt>
      <trkpt lat="49.88987" lon="2.23625">
        <ele>60.6</ele>
        <time>2023-06-23T13:13:26Z</time>
      </trkpt>
      <trkpt lat="49.88988" lon="2.23622">
        <ele>60.6</ele>
        <time>2023-06-23T13:13:27Z</time>
      </trkpt>
      <trkpt lat="49.88989" lon="2.23621">
        <ele>60.6</ele>
        <time>2023-06-23T13:13:29Z</time>
      </trkpt>
      <trkpt lat="49.8899" lon="2.2362">
        <ele>60.7</ele>
        <time>2023-06-23T13:13:30Z</time>
      </trkpt>
      <trkpt lat="49.88991" lon="2.23617">
        <ele>60.7</ele>
        <time>2023-06-23T13:13:31Z</time>
      </trkpt>
      <trkpt lat="49.88991" lon="2.23616">
        <ele>60.7</ele>
        <time>2023-06-23T13:13:32Z</time>
      </trkpt>
      <trkpt lat="49.88992" lon="2.23615">
        <ele>60.7</ele>
        <time>2023-06-23T13:13:33Z</time>
      </trkpt>
      <trkpt lat="49.88993" lon="2.23612">
        <ele>60.7</ele>
        <time>2023-06-23T13:13:34Z</time>
      </trkpt>
      <trkpt lat="49.88993" lon="2.2361">
        <ele>60.8</ele>
        <time>2023-06-23T13:13:35Z</time>
      </trkpt>
      <trkpt lat="49.88994" lon="2.23609">
        <ele>60.8</ele>
        <time>2023-06-23T13:13:36Z</time>
      </trkpt>
      <trkpt lat="49.88994" lon="2.23608">
        <ele>60.8</ele>
        <time>2023-06-23T13:13:37Z</time>
      </trkpt>
      <trkpt lat="49.88995" lon="2.23606">
        <ele>60.8</ele>
        <time>2023-06-23T13:13:38Z</time>
      </trkpt>
      <trkpt lat="49.88995" lon="2.23604">
        <ele>60.8</ele>
        <time>2023-06-23T13:13:40Z</time>
      </trkpt>
      <trkpt lat="49.88997" lon="2.23602">
        <ele>60.9</ele>
        <time>2023-06-23T13:13:41Z</time>
      </trkpt>
      <trkpt lat="49.88997" lon="2.23601">
        <ele>60.9</ele>
        <time>2023-06-23T13:13:42Z</time>
      </trkpt>
      <trkpt lat="49.88998" lon="2.236">
        <ele>60.9</ele>
        <time>2023-06-23T13:13:43Z</time>
      </trkpt>
      <trkpt lat="49.88999" lon="2.23597">
        <ele>60.9</ele>
        <time>2023-06-23T13:13:44Z</time>
      </trkpt>
      <trkpt lat="49.89" lon="2.23596">
        <ele>61</ele>
        <time>2023-06-23T13:13:46Z</time>
      </trkpt>
      <trkpt lat="49.89" lon="2.23595">
        <ele>61</ele>
        <time>2023-06-23T13:13:47Z</time>
      </trkpt>
      <trkpt lat="49.89001" lon="2.23593">
        <ele>61</ele>
        <time>2023-06-23T13:13:48Z</time>
      </trkpt>
      <trkpt lat="49.89002" lon="2.23592">
        <ele>61</ele>
        <time>2023-06-23T13:13:49Z</time>
      </trkpt>
      <trkpt lat="49.89002" lon="2.23591">
        <ele>61</ele>
        <time>2023-06-23T13:13:50Z</time>
      </trkpt>
      <trkpt lat="49.89004" lon="2.23589">
        <ele>61.1</ele>
        <time>2023-06-23T13:13:51Z</time>
      </trkpt>
      <trkpt lat="49.89005" lon="2.23588">
        <ele>61.1</ele>
        <time>2023-06-23T13:13:52Z</time>
      </trkpt>
      <trkpt lat="49.89005" lon="2.23587">
        <ele>61.1</ele>
        <time>2023-06-23T13:13:53Z</time>
      </trkpt>
      <trkpt lat="49.89006" lon="2.23586">
        <ele>61.1</ele>
        <time>2023-06-23T13:13:54Z</time>
      </trkpt>
      <trkpt lat="49.89007" lon="2.23584">
        <ele>61.1</ele>
        <time>2023-06-23T13:13:55Z</time>
      </trkpt>
      <trkpt lat="49.89008" lon="2.23581">
        <ele>61.2</ele>
        <time>2023-06-23T13:13:57Z</time>
      </trkpt>
      <trkpt lat="49.89009" lon="2.2358">
        <ele>61.2</ele>
        <time>2023-06-23T13:13:58Z</time>
      </trkpt>
      <trkpt lat="49.8901" lon="2.23578">
        <ele>61.2</ele>
        <time>2023-06-23T13:13:59Z</time>
      </trkpt>
      <trkpt lat="49.89011" lon="2.23577">
        <ele>61.2</ele>
        <time>2023-06-23T13:14:00Z</time>
      </trkpt>
      <trkpt lat="49.89011" lon="2.23576">
        <ele>61.3</ele>
        <time>2023-06-23T13:14:01Z</time>
      </trkpt>
      <trkpt lat="49.89012" lon="2.23574">
        <ele>61.3</ele>
        <time>2023-06-23T13:14:03Z</time>
      </trkpt>
      <trkpt lat="49.89013" lon="2.23572">
        <ele>61.3</ele>
        <time>2023-06-23T13:14:04Z</time>
      </trkpt>
      <trkpt lat="49.89014" lon="2.23571">
        <ele>61.4</ele>
        <time>2023-06-23T13:14:05Z</time>
      </trkpt>
      <trkpt lat="49.89015" lon="2.23569">
        <ele>61.4</ele>
        <time>2023-06-23T13:14:06Z</time>
      </trkpt>
      <trkpt lat="49.89016" lon="2.23568">
        <ele>61.4</ele>
        <time>2023-06-23T13:14:07Z</time>
      </trkpt>
      <trkpt lat="49.89016" lon="2.23566">
        <ele>61.4</ele>
        <time>2023-06-23T13:14:08Z</time>
      </trkpt>
      <trkpt lat="49.89017" lon="2.23565">
        <ele>61.5</ele>
        <time>2023-06-23T13:14:10Z</time>
      </trkpt>
      <trkpt lat="49.89018" lon="2.23563">
        <ele>61.5</ele>
        <time>2023-06-23T13:14:11Z</time>
      </trkpt>
      <trkpt lat="49.89019" lon="2.23562">
        <ele>61.6</ele>
        <time>2023-06-23T13:14:12Z</time>
      </trkpt>
      <trkpt lat="49.8902" lon="2.23561">
        <ele>61.6</ele>
        <time>2023-06-23T13:14:13Z</time>
      </trkpt>
      <trkpt lat="49.89021" lon="2.23559">
        <ele>61.6</ele>
        <time>2023-06-23T13:14:14Z</time>
      </trkpt>
      <trkpt lat="49.89023" lon="2.23557">
        <ele>61.7</ele>
        <time>2023-06-23T13:14:15Z</time>
      </trkpt>
      <trkpt lat="49.89024" lon="2.23556">
        <ele>61.7</ele>
        <time>2023-06-23T13:14:16Z</time>
      </trkpt>
      <trkpt lat="49.89025" lon="2.23556">
        <ele>61.7</ele>
        <time>2023-06-23T13:14:17Z</time>
      </trkpt>
      <trkpt lat="49.89026" lon="2.23554">
        <ele>61.8</ele>
        <time>2023-06-23T13:14:18Z</time>
      </trkpt>
      <trkpt lat="49.89027" lon="2.23553">
        <ele>61.8</ele>
        <time>2023-06-23T13:14:20Z</time>
      </trkpt>
      <trkpt lat="49.89027" lon="2.23552">
        <ele>61.8</ele>
        <time>2023-06-23T13:14:21Z</time>
      </trkpt>
      <trkpt lat="49.89029" lon="2.23549">
        <ele>61.9</ele>
        <time>2023-06-23T13:14:22Z</time>
      </trkpt>
      <trkpt lat="49.89029" lon="2.23548">
        <ele>61.9</ele>
        <time>2023-06-23T13:14:23Z</time>
      </trkpt>
      <trkpt lat="49.8903" lon="2.23547">
        <ele>61.9</ele>
        <time>2023-06-23T13:14:24Z</time>
      </trkpt>
      <trkpt lat="49.8903" lon="2.23545">
        <ele>62</ele>
        <time>2023-06-23T13:14:25Z</time>
      </trkpt>
      <trkpt lat="49.89031" lon="2.23544">
        <ele>62</ele>
        <time>2023-06-23T13:14:26Z</time>
      </trkpt>
      <trkpt lat="49.89031" lon="2.23542">
        <ele>62</ele>
        <time>2023-06-23T13:14:28Z</time>
      </trkpt>
      <trkpt lat="49.89032" lon="2.23539">
        <ele>62.1</ele>
        <time>2023-06-23T13:14:29Z</time>
      </trkpt>
      <trkpt lat="49.89033" lon="2.23538">
        <ele>62.1</ele>
        <time>2023-06-23T13:14:30Z</time>
      </trkpt>
      <trkpt lat="49.89033" lon="2.23537">
        <ele>62.1</ele>
        <time>2023-06-23T13:14:31Z</time>
      </trkpt>
      <trkpt lat="49.89034" lon="2.23535">
        <ele>62.1</ele>
        <time>2023-06-23T13:14:32Z</time>
      </trkpt>
      <trkpt lat="49.89035" lon="2.23534">
        <ele>62.2</ele>
        <time>2023-06-23T13:14:33Z</time>
      </trkpt>
      <trkpt lat="49.89035" lon="2.23532">
        <ele>62.2</ele>
        <time>2023-06-23T13:14:35Z</time>
      </trkpt>
      <trkpt lat="49.89036" lon="2.23531">
        <ele>62.2</ele>
        <time>2023-06-23T13:14:36Z</time>
      </trkpt>
      <trkpt lat="49.89036" lon="2.2353">
        <ele>62.2</ele>
        <time>2023-06-23T13:14:37Z</time>
      </trkpt>
      <trkpt lat="49.89037" lon="2.23529">
        <ele>62.3</ele>
        <time>2023-06-23T13:14:38Z</time>
      </trkpt>
      <trkpt lat="49.89038" lon="2.23528">
        <ele>62.3</ele>
        <time>2023-06-23T13:14:39Z</time>
      </trkpt>
      <trkpt lat="49.89039" lon="2.23527">
        <ele>62.3</ele>
        <time>2023-06-23T13:14:40Z</time>
      </trkpt>
      <trkpt lat="49.8904" lon="2.23525">
        <ele>62.4</ele>
        <time>2023-06-23T13:14:42Z</time>
      </trkpt>
      <trkpt lat="49.89041" lon="2.23524">
        <ele>62.3</ele>
        <time>2023-06-23T13:14:44Z</time>
      </trkpt>
      <trkpt lat="49.89042" lon="2.23523">
        <ele>62.3</ele>
        <time>2023-06-23T13:14:45Z</time>
      </trkpt>
      <trkpt lat="49.89043" lon="2.23521">
        <ele>62.2</ele>
        <time>2023-06-23T13:14:46Z</time>
      </trkpt>
      <trkpt lat="49.89044" lon="2.23522">
        <ele>62.2</ele>
        <time>2023-06-23T13:14:47Z</time>
      </trkpt>
      <trkpt lat="49.89045" lon="2.23524">
        <ele>62.2</ele>
        <time>2023-06-23T13:14:48Z</time>
      </trkpt>
      <trkpt lat="49.89045" lon="2.23525">
        <ele>62.2</ele>
        <time>2023-06-23T13:14:49Z</time>
      </trkpt>
      <trkpt lat="49.89045" lon="2.23525">
        <ele>62.2</ele>
        <time>2023-06-23T13:14:51Z</time>
      </trkpt>
      <trkpt lat="49.89045" lon="2.23525">
        <ele>62.2</ele>
        <time>2023-06-23T13:14:52Z</time>
      </trkpt>
      <trkpt lat="49.89045" lon="2.23525">
        <ele>62.2</ele>
        <time>2023-06-23T13:14:54Z</time>
      </trkpt>
      <trkpt lat="49.89045" lon="2.23525">
        <ele>62.2</ele>
        <time>2023-06-23T13:14:55Z</time>
      </trkpt>
      <trkpt lat="49.89045" lon="2.23525">
        <ele>62.2</ele>
        <time>2023-06-23T13:14:57Z</time>
      </trkpt>
      <trkpt lat="49.89045" lon="2.23525">
        <ele>62.2</ele>
        <time>2023-06-23T13:14:58Z</time>
      </trkpt>
      <trkpt lat="49.89045" lon="2.23526">
        <ele>62.2</ele>
        <time>2023-06-23T13:14:59Z</time>
      </trkpt>
      <trkpt lat="49.89045" lon="2.23526">
        <ele>62.2</ele>
        <time>2023-06-23T13:15:01Z</time>
      </trkpt>
      <trkpt lat="49.89045" lon="2.23526">
        <ele>62.2</ele>
        <time>2023-06-23T13:15:02Z</time>
      </trkpt>
      <trkpt lat="49.89045" lon="2.23526">
        <ele>62.2</ele>
        <time>2023-06-23T13:15:04Z</time>
      </trkpt>
      <trkpt lat="49.89045" lon="2.23526">
        <ele>62.2</ele>
        <time>2023-06-23T13:15:05Z</time>
      </trkpt>
      <trkpt lat="49.89045" lon="2.23526">
        <ele>62.1</ele>
        <time>2023-06-23T13:15:06Z</time>
      </trkpt>
      <trkpt lat="49.89045" lon="2.23526">
        <ele>62.1</ele>
        <time>2023-06-23T13:15:07Z</time>
      </trkpt>
      <trkpt lat="49.89045" lon="2.23526">
        <ele>62.1</ele>
        <time>2023-06-23T13:15:08Z</time>
      </trkpt>
      <trkpt lat="49.89045" lon="2.23526">
        <ele>62.1</ele>
        <time>2023-06-23T13:15:09Z</time>
      </trkpt>
      <trkpt lat="49.89044" lon="2.23526">
        <ele>62.1</ele>
        <time>2023-06-23T13:15:10Z</time>
      </trkpt>
      <trkpt lat="49.89044" lon="2.23526">
        <ele>62.1</ele>
        <time>2023-06-23T13:15:11Z</time>
      </trkpt>
      <trkpt lat="49.89044" lon="2.23526">
        <ele>62.1</ele>
        <time>2023-06-23T13:15:12Z</time>
      </trkpt>
      <trkpt lat="49.89044" lon="2.23526">
        <ele>62.1</ele>
        <time>2023-06-23T13:15:13Z</time>
      </trkpt>
      <trkpt lat="49.89044" lon="2.23526">
        <ele>62.1</ele>
        <time>2023-06-23T13:15:14Z</time>
      </trkpt>
      <trkpt lat="49.89044" lon="2.23526">
        <ele>62.1</ele>
        <time>2023-06-23T13:15:15Z</time>
      </trkpt>
      <trkpt lat="49.89044" lon="2.23526">
        <ele>62.1</ele>
        <time>2023-06-23T13:15:16Z</time>
      </trkpt>
      <trkpt lat="49.89044" lon="2.23526">
        <ele>62.1</ele>
        <time>2023-06-23T13:15:17Z</time>
      </trkpt>
      <trkpt lat="49.89044" lon="2.23526">
        <ele>62.1</ele>
        <time>2023-06-23T13:15:18Z</time>
      </trkpt>
      <trkpt lat="49.89044" lon="2.23526">
        <ele>62.1</ele>
        <time>2023-06-23T13:15:19Z</time>
      </trkpt>
      <trkpt lat="49.89044" lon="2.23526">
        <ele>62.1</ele>
        <time>2023-06-23T13:15:20Z</time>
      </trkpt>
      <trkpt lat="49.89044" lon="2.23526">
        <ele>62.1</ele>
        <time>2023-06-23T13:15:21Z</time>
      </trkpt>
      <trkpt lat="49.89044" lon="2.23526">
        <ele>62.1</ele>
        <time>2023-06-23T13:15:22Z</time>
      </trkpt>
      <trkpt lat="49.89044" lon="2.23526">
        <ele>62.1</ele>
        <time>2023-06-23T13:15:23Z</time>
      </trkpt>
      <trkpt lat="49.89044" lon="2.23526">
        <ele>62.1</ele>
        <time>2023-06-23T13:15:24Z</time>
      </trkpt>
      <trkpt lat="49.89044" lon="2.23526">
        <ele>62.1</ele>
        <time>2023-06-23T13:15:25Z</time>
      </trkpt>
      <trkpt lat="49.89044" lon="2.23526">
        <ele>62.1</ele>
        <time>2023-06-23T13:15:26Z</time>
      </trkpt>
      <trkpt lat="49.89044" lon="2.23526">
        <ele>62.1</ele>
        <time>2023-06-23T13:15:27Z</time>
      </trkpt>
      <trkpt lat="49.89044" lon="2.23526">
        <ele>62.1</ele>
        <time>2023-06-23T13:15:28Z</time>
      </trkpt>
      <trkpt lat="49.89044" lon="2.23526">
        <ele>62.1</ele>
        <time>2023-06-23T13:15:29Z</time>
      </trkpt>
      <trkpt lat="49.89044" lon="2.23527">
        <ele>62.1</ele>
        <time>2023-06-23T13:15:30Z</time>
      </trkpt>
      <trkpt lat="49.89043" lon="2.23527">
        <ele>62.1</ele>
        <time>2023-06-23T13:15:31Z</time>
      </trkpt>
      <trkpt lat="49.89043" lon="2.23527">
        <ele>62.1</ele>
        <time>2023-06-23T13:15:32Z</time>
      </trkpt>
      <trkpt lat="49.89043" lon="2.23527">
        <ele>62.1</ele>
        <time>2023-06-23T13:15:33Z</time>
      </trkpt>
      <trkpt lat="49.89043" lon="2.23527">
        <ele>62.1</ele>
        <time>2023-06-23T13:15:34Z</time>
      </trkpt>
      <trkpt lat="49.89043" lon="2.23527">
        <ele>62.1</ele>
        <time>2023-06-23T13:15:35Z</time>
      </trkpt>
      <trkpt lat="49.89043" lon="2.23527">
        <ele>62.1</ele>
        <time>2023-06-23T13:15:36Z</time>
      </trkpt>
      <trkpt lat="49.89043" lon="2.23527">
        <ele>62.1</ele>
        <time>2023-06-23T13:15:37Z</time>
      </trkpt>
      <trkpt lat="49.89043" lon="2.23527">
        <ele>62.1</ele>
        <time>2023-06-23T13:15:38Z</time>
      </trkpt>
      <trkpt lat="49.89043" lon="2.23527">
        <ele>62.1</ele>
        <time>2023-06-23T13:15:39Z</time>
      </trkpt>
      <trkpt lat="49.89043" lon="2.23527">
        <ele>62.1</ele>
        <time>2023-06-23T13:15:40Z</time>
      </trkpt>
      <trkpt lat="49.89043" lon="2.23527">
        <ele>62.1</ele>
        <time>2023-06-23T13:15:41Z</time>
      </trkpt>
      <trkpt lat="49.89043" lon="2.23527">
        <ele>62.1</ele>
        <time>2023-06-23T13:15:42Z</time>
      </trkpt>
      <trkpt lat="49.89043" lon="2.23527">
        <ele>62.1</ele>
        <time>2023-06-23T13:15:43Z</time>
      </trkpt>
      <trkpt lat="49.89043" lon="2.23527">
        <ele>62.1</ele>
        <time>2023-06-23T13:15:44Z</time>
      </trkpt>
      <trkpt lat="49.89043" lon="2.23527">
        <ele>62.1</ele>
        <time>2023-06-23T13:15:45Z</time>
      </trkpt>
      <trkpt lat="49.89043" lon="2.23527">
        <ele>62.1</ele>
        <time>2023-06-23T13:15:46Z</time>
      </trkpt>
      <trkpt lat="49.89043" lon="2.23527">
        <ele>62.1</ele>
        <time>2023-06-23T13:15:47Z</time>
      </trkpt>
      <trkpt lat="49.89043" lon="2.23527">
        <ele>62.1</ele>
        <time>2023-06-23T13:15:48Z</time>
      </trkpt>
      <trkpt lat="49.89043" lon="2.23527">
        <ele>62.1</ele>
        <time>2023-06-23T13:15:49Z</time>
      </trkpt>
      <trkpt lat="49.89043" lon="2.23527">
        <ele>62.1</ele>
        <time>2023-06-23T13:15:50Z</time>
      </trkpt>
      <trkpt lat="49.89043" lon="2.23527">
        <ele>62.1</ele>
        <time>2023-06-23T13:15:51Z</time>
      </trkpt>
      <trkpt lat="49.89042" lon="2.23527">
        <ele>62.1</ele>
        <time>2023-06-23T13:15:52Z</time>
      </trkpt>
      <trkpt lat="49.89042" lon="2.23527">
        <ele>62.1</ele>
        <time>2023-06-23T13:15:53Z</time>
      </trkpt>
      <trkpt lat="49.89042" lon="2.23527">
        <ele>62.1</ele>
        <time>2023-06-23T13:15:54Z</time>
      </trkpt>
      <trkpt lat="49.89042" lon="2.23527">
        <ele>62.1</ele>
        <time>2023-06-23T13:15:55Z</time>
      </trkpt>
      <trkpt lat="49.89042" lon="2.23527">
        <ele>62.1</ele>
        <time>2023-06-23T13:15:56Z</time>
      </trkpt>
      <trkpt lat="49.89042" lon="2.23527">
        <ele>62.1</ele>
        <time>2023-06-23T13:15:57Z</time>
      </trkpt>
      <trkpt lat="49.89042" lon="2.23527">
        <ele>62.1</ele>
        <time>2023-06-23T13:15:58Z</time>
      </trkpt>
      <trkpt lat="49.89042" lon="2.23527">
        <ele>62.1</ele>
        <time>2023-06-23T13:15:59Z</time>
      </trkpt>
      <trkpt lat="49.89042" lon="2.23528">
        <ele>62.1</ele>
        <time>2023-06-23T13:16:00Z</time>
      </trkpt>
      <trkpt lat="49.89042" lon="2.23528">
        <ele>62.1</ele>
        <time>2023-06-23T13:16:01Z</time>
      </trkpt>
      <trkpt lat="49.89042" lon="2.23528">
        <ele>62.1</ele>
        <time>2023-06-23T13:16:02Z</time>
      </trkpt>
      <trkpt lat="49.89042" lon="2.23528">
        <ele>62.1</ele>
        <time>2023-06-23T13:16:03Z</time>
      </trkpt>
      <trkpt lat="49.89042" lon="2.23528">
        <ele>62.1</ele>
        <time>2023-06-23T13:16:04Z</time>
      </trkpt>
      <trkpt lat="49.89042" lon="2.23528">
        <ele>62.1</ele>
        <time>2023-06-23T13:16:05Z</time>
      </trkpt>
      <trkpt lat="49.89042" lon="2.23528">
        <ele>62.1</ele>
        <time>2023-06-23T13:16:06Z</time>
      </trkpt>
      <trkpt lat="49.89042" lon="2.23528">
        <ele>62.1</ele>
        <time>2023-06-23T13:16:07Z</time>
      </trkpt>
      <trkpt lat="49.89042" lon="2.23528">
        <ele>62.1</ele>
        <time>2023-06-23T13:16:08Z</time>
      </trkpt>
      <trkpt lat="49.89042" lon="2.23528">
        <ele>62.1</ele>
        <time>2023-06-23T13:16:09Z</time>
      </trkpt>
      <trkpt lat="49.89042" lon="2.23528">
        <ele>62.1</ele>
        <time>2023-06-23T13:16:10Z</time>
      </trkpt>
      <trkpt lat="49.89042" lon="2.23528">
        <ele>62.1</ele>
        <time>2023-06-23T13:16:11Z</time>
      </trkpt>
      <trkpt lat="49.89042" lon="2.23528">
        <ele>62.1</ele>
        <time>2023-06-23T13:16:12Z</time>
      </trkpt>
      <trkpt lat="49.89041" lon="2.23528">
        <ele>62.1</ele>
        <time>2023-06-23T13:16:13Z</time>
      </trkpt>
      <trkpt lat="49.89041" lon="2.23528">
        <ele>62.1</ele>
        <time>2023-06-23T13:16:14Z</time>
      </trkpt>
      <trkpt lat="49.89041" lon="2.23528">
        <ele>62.1</ele>
        <time>2023-06-23T13:16:15Z</time>
      </trkpt>
      <trkpt lat="49.89041" lon="2.23528">
        <ele>62.1</ele>
        <time>2023-06-23T13:16:16Z</time>
      </trkpt>
      <trkpt lat="49.89041" lon="2.23528">
        <ele>62.1</ele>
        <time>2023-06-23T13:16:17Z</time>
      </trkpt>
      <trkpt lat="49.89041" lon="2.23528">
        <ele>62.1</ele>
        <time>2023-06-23T13:16:18Z</time>
      </trkpt>
      <trkpt lat="49.89041" lon="2.23528">
        <ele>62.1</ele>
        <time>2023-06-23T13:16:19Z</time>
      </trkpt>
      <trkpt lat="49.89041" lon="2.23528">
        <ele>62.1</ele>
        <time>2023-06-23T13:16:20Z</time>
      </trkpt>
      <trkpt lat="49.89041" lon="2.23528">
        <ele>62</ele>
        <time>2023-06-23T13:16:21Z</time>
      </trkpt>
      <trkpt lat="49.89041" lon="2.23528">
        <ele>62</ele>
        <time>2023-06-23T13:16:22Z</time>
      </trkpt>
      <trkpt lat="49.89041" lon="2.23528">
        <ele>62</ele>
        <time>2023-06-23T13:16:23Z</time>
      </trkpt>
      <trkpt lat="49.8904" lon="2.23527">
        <ele>62</ele>
        <time>2023-06-23T13:16:24Z</time>
      </trkpt>
      <trkpt lat="49.8904" lon="2.23526">
        <ele>62</ele>
        <time>2023-06-23T13:16:25Z</time>
      </trkpt>
      <trkpt lat="49.8904" lon="2.23526">
        <ele>62</ele>
        <time>2023-06-23T13:16:26Z</time>
      </trkpt>
      <trkpt lat="49.8904" lon="2.23526">
        <ele>62</ele>
        <time>2023-06-23T13:16:27Z</time>
      </trkpt>
      <trkpt lat="49.8904" lon="2.23526">
        <ele>62</ele>
        <time>2023-06-23T13:16:28Z</time>
      </trkpt>
      <trkpt lat="49.8904" lon="2.23526">
        <ele>62</ele>
        <time>2023-06-23T13:16:29Z</time>
      </trkpt>
      <trkpt lat="49.8904" lon="2.23526">
        <ele>62</ele>
        <time>2023-06-23T13:16:30Z</time>
      </trkpt>
      <trkpt lat="49.8904" lon="2.23526">
        <ele>62</ele>
        <time>2023-06-23T13:16:31Z</time>
      </trkpt>
      <trkpt lat="49.8904" lon="2.23526">
        <ele>62</ele>
        <time>2023-06-23T13:16:32Z</time>
      </trkpt>
      <trkpt lat="49.8904" lon="2.23526">
        <ele>62</ele>
        <time>2023-06-23T13:16:33Z</time>
      </trkpt>
      <trkpt lat="49.8904" lon="2.23526">
        <ele>62</ele>
        <time>2023-06-23T13:16:34Z</time>
      </trkpt>
      <trkpt lat="49.8904" lon="2.23526">
        <ele>62</ele>
        <time>2023-06-23T13:16:35Z</time>
      </trkpt>
      <trkpt lat="49.8904" lon="2.23526">
        <ele>62</ele>
        <time>2023-06-23T13:16:36Z</time>
      </trkpt>
      <trkpt lat="49.8904" lon="2.23526">
        <ele>62</ele>
        <time>2023-06-23T13:16:37Z</time>
      </trkpt>
      <trkpt lat="49.8904" lon="2.23526">
        <ele>62</ele>
        <time>2023-06-23T13:16:38Z</time>
      </trkpt>
      <trkpt lat="49.8904" lon="2.23526">
        <ele>62</ele>
        <time>2023-06-23T13:16:39Z</time>
      </trkpt>
      <trkpt lat="49.8904" lon="2.23526">
        <ele>62</ele>
        <time>2023-06-23T13:16:40Z</time>
      </trkpt>
      <trkpt lat="49.8904" lon="2.23526">
        <ele>62</ele>
        <time>2023-06-23T13:16:41Z</time>
      </trkpt>
      <trkpt lat="49.8904" lon="2.23526">
        <ele>62</ele>
        <time>2023-06-23T13:16:42Z</time>
      </trkpt>
      <trkpt lat="49.8904" lon="2.23526">
        <ele>62</ele>
        <time>2023-06-23T13:16:43Z</time>
      </trkpt>
      <trkpt lat="49.8904" lon="2.23526">
        <ele>62</ele>
        <time>2023-06-23T13:16:44Z</time>
      </trkpt>
      <trkpt lat="49.8904" lon="2.23526">
        <ele>62</ele>
        <time>2023-06-23T13:16:45Z</time>
      </trkpt>
      <trkpt lat="49.8904" lon="2.23526">
        <ele>62</ele>
        <time>2023-06-23T13:16:46Z</time>
      </trkpt>
      <trkpt lat="49.8904" lon="2.23526">
        <ele>62</ele>
        <time>2023-06-23T13:16:47Z</time>
      </trkpt>
      <trkpt lat="49.8904" lon="2.23526">
        <ele>62</ele>
        <time>2023-06-23T13:16:48Z</time>
      </trkpt>
      <trkpt lat="49.8904" lon="2.23526">
        <ele>62</ele>
        <time>2023-06-23T13:16:49Z</time>
      </trkpt>
      <trkpt lat="49.8904" lon="2.23526">
        <ele>62</ele>
        <time>2023-06-23T13:16:50Z</time>
      </trkpt>
      <trkpt lat="49.8904" lon="2.23526">
        <ele>62</ele>
        <time>2023-06-23T13:16:51Z</time>
      </trkpt>
      <trkpt lat="49.8904" lon="2.23526">
        <ele>62</ele>
        <time>2023-06-23T13:16:52Z</time>
      </trkpt>
      <trkpt lat="49.8904" lon="2.23526">
        <ele>62</ele>
        <time>2023-06-23T13:16:53Z</time>
      </trkpt>
      <trkpt lat="49.8904" lon="2.23526">
        <ele>62</ele>
        <time>2023-06-23T13:16:54Z</time>
      </trkpt>
      <trkpt lat="49.8904" lon="2.23526">
        <ele>62</ele>
        <time>2023-06-23T13:16:55Z</time>
      </trkpt>
      <trkpt lat="49.8904" lon="2.23526">
        <ele>62</ele>
        <time>2023-06-23T13:16:56Z</time>
      </trkpt>
      <trkpt lat="49.8904" lon="2.23526">
        <ele>62</ele>
        <time>2023-06-23T13:16:57Z</time>
      </trkpt>
      <trkpt lat="49.8904" lon="2.23526">
        <ele>62</ele>
        <time>2023-06-23T13:16:58Z</time>
      </trkpt>
      <trkpt lat="49.8904" lon="2.23526">
        <ele>62</ele>
        <time>2023-06-23T13:16:59Z</time>
      </trkpt>
      <trkpt lat="49.8904" lon="2.23526">
        <ele>62</ele>
        <time>2023-06-23T13:17:00Z</time>
      </trkpt>
      <trkpt lat="49.8904" lon="2.23526">
        <ele>62</ele>
        <time>2023-06-23T13:17:01Z</time>
      </trkpt>
      <trkpt lat="49.8904" lon="2.23526">
        <ele>62</ele>
        <time>2023-06-23T13:17:02Z</time>
      </trkpt>
      <trkpt lat="49.8904" lon="2.23526">
        <ele>62</ele>
        <time>2023-06-23T13:17:03Z</time>
      </trkpt>
      <trkpt lat="49.8904" lon="2.23526">
        <ele>62</ele>
        <time>2023-06-23T13:17:04Z</time>
      </trkpt>
      <trkpt lat="49.8904" lon="2.23526">
        <ele>62</ele>
        <time>2023-06-23T13:17:05Z</time>
      </trkpt>
      <trkpt lat="49.8904" lon="2.23526">
        <ele>62</ele>
        <time>2023-06-23T13:17:06Z</time>
      </trkpt>
      <trkpt lat="49.8904" lon="2.23526">
        <ele>62</ele>
        <time>2023-06-23T13:17:07Z</time>
      </trkpt>
      <trkpt lat="49.8904" lon="2.23526">
        <ele>62</ele>
        <time>2023-06-23T13:17:08Z</time>
      </trkpt>
      <trkpt lat="49.8904" lon="2.23526">
        <ele>62</ele>
        <time>2023-06-23T13:17:09Z</time>
      </trkpt>
      <trkpt lat="49.8904" lon="2.23526">
        <ele>62</ele>
        <time>2023-06-23T13:17:10Z</time>
      </trkpt>
      <trkpt lat="49.8904" lon="2.23526">
        <ele>62</ele>
        <time>2023-06-23T13:17:11Z</time>
      </trkpt>
      <trkpt lat="49.8904" lon="2.23526">
        <ele>62</ele>
        <time>2023-06-23T13:17:12Z</time>
      </trkpt>
      <trkpt lat="49.8904" lon="2.23526">
        <ele>62</ele>
        <time>2023-06-23T13:17:13Z</time>
      </trkpt>
      <trkpt lat="49.8904" lon="2.23526">
        <ele>62</ele>
        <time>2023-06-23T13:17:14Z</time>
      </trkpt>
      <trkpt lat="49.8904" lon="2.23526">
        <ele>62</ele>
        <time>2023-06-23T13:17:15Z</time>
      </trkpt>
      <trkpt lat="49.8904" lon="2.23526">
        <ele>62</ele>
        <time>2023-06-23T13:17:16Z</time>
      </trkpt>
      <trkpt lat="49.8904" lon="2.23526">
        <ele>62</ele>
        <time>2023-06-23T13:17:17Z</time>
      </trkpt>
      <trkpt lat="49.8904" lon="2.23527">
        <ele>62</ele>
        <time>2023-06-23T13:17:19Z</time>
      </trkpt>
      <trkpt lat="49.89041" lon="2.23528">
        <ele>62</ele>
        <time>2023-06-23T13:17:20Z</time>
      </trkpt>
      <trkpt lat="49.89042" lon="2.23529">
        <ele>61.9</ele>
        <time>2023-06-23T13:17:21Z</time>
      </trkpt>
      <trkpt lat="49.89043" lon="2.23531">
        <ele>61.9</ele>
        <time>2023-06-23T13:17:22Z</time>
      </trkpt>
      <trkpt lat="49.89045" lon="2.23533">
        <ele>61.8</ele>
        <time>2023-06-23T13:17:24Z</time>
      </trkpt>
      <trkpt lat="49.89046" lon="2.23534">
        <ele>61.8</ele>
        <time>2023-06-23T13:17:25Z</time>
      </trkpt>
      <trkpt lat="49.89046" lon="2.23535">
        <ele>61.8</ele>
        <time>2023-06-23T13:17:26Z</time>
      </trkpt>
      <trkpt lat="49.89047" lon="2.23536">
        <ele>61.8</ele>
        <time>2023-06-23T13:17:27Z</time>
      </trkpt>
      <trkpt lat="49.89048" lon="2.23537">
        <ele>61.8</ele>
        <time>2023-06-23T13:17:29Z</time>
      </trkpt>
      <trkpt lat="49.89048" lon="2.23538">
        <ele>61.7</ele>
        <time>2023-06-23T13:17:30Z</time>
      </trkpt>
      <trkpt lat="49.89049" lon="2.23539">
        <ele>61.7</ele>
        <time>2023-06-23T13:17:31Z</time>
      </trkpt>
      <trkpt lat="49.8905" lon="2.2354">
        <ele>61.7</ele>
        <time>2023-06-23T13:17:32Z</time>
      </trkpt>
      <trkpt lat="49.89051" lon="2.23541">
        <ele>61.7</ele>
        <time>2023-06-23T13:17:33Z</time>
      </trkpt>
      <trkpt lat="49.89052" lon="2.23542">
        <ele>61.7</ele>
        <time>2023-06-23T13:17:34Z</time>
      </trkpt>
      <trkpt lat="49.89052" lon="2.23543">
        <ele>61.6</ele>
        <time>2023-06-23T13:17:35Z</time>
      </trkpt>
      <trkpt lat="49.89055" lon="2.23545">
        <ele>61.6</ele>
        <time>2023-06-23T13:17:37Z</time>
      </trkpt>
      <trkpt lat="49.89056" lon="2.23546">
        <ele>61.5</ele>
        <time>2023-06-23T13:17:38Z</time>
      </trkpt>
      <trkpt lat="49.89058" lon="2.23548">
        <ele>61.5</ele>
        <time>2023-06-23T13:17:39Z</time>
      </trkpt>
      <trkpt lat="49.89059" lon="2.23549">
        <ele>61.5</ele>
        <time>2023-06-23T13:17:40Z</time>
      </trkpt>
      <trkpt lat="49.89062" lon="2.23551">
        <ele>61.4</ele>
        <time>2023-06-23T13:17:41Z</time>
      </trkpt>
      <trkpt lat="49.89063" lon="2.23551">
        <ele>61.4</ele>
        <time>2023-06-23T13:17:43Z</time>
      </trkpt>
      <trkpt lat="49.89064" lon="2.23552">
        <ele>61.4</ele>
        <time>2023-06-23T13:17:44Z</time>
      </trkpt>
      <trkpt lat="49.89064" lon="2.23553">
        <ele>61.4</ele>
        <time>2023-06-23T13:17:45Z</time>
      </trkpt>
      <trkpt lat="49.89065" lon="2.23554">
        <ele>61.4</ele>
        <time>2023-06-23T13:17:46Z</time>
      </trkpt>
      <trkpt lat="49.89067" lon="2.23555">
        <ele>61.3</ele>
        <time>2023-06-23T13:17:47Z</time>
      </trkpt>
      <trkpt lat="49.89068" lon="2.23556">
        <ele>61.3</ele>
        <time>2023-06-23T13:17:48Z</time>
      </trkpt>
      <trkpt lat="49.89069" lon="2.23559">
        <ele>61.3</ele>
        <time>2023-06-23T13:17:49Z</time>
      </trkpt>
      <trkpt lat="49.89069" lon="2.2356">
        <ele>61.3</ele>
        <time>2023-06-23T13:17:51Z</time>
      </trkpt>
      <trkpt lat="49.8907" lon="2.23561">
        <ele>61.2</ele>
        <time>2023-06-23T13:17:52Z</time>
      </trkpt>
      <trkpt lat="49.89071" lon="2.23562">
        <ele>61.2</ele>
        <time>2023-06-23T13:17:53Z</time>
      </trkpt>
      <trkpt lat="49.89072" lon="2.23563">
        <ele>61.2</ele>
        <time>2023-06-23T13:17:54Z</time>
      </trkpt>
      <trkpt lat="49.89072" lon="2.23565">
        <ele>61.2</ele>
        <time>2023-06-23T13:17:55Z</time>
      </trkpt>
      <trkpt lat="49.89073" lon="2.23568">
        <ele>61.1</ele>
        <time>2023-06-23T13:17:56Z</time>
      </trkpt>
      <trkpt lat="49.89074" lon="2.23569">
        <ele>61.1</ele>
        <time>2023-06-23T13:17:57Z</time>
      </trkpt>
      <trkpt lat="49.89074" lon="2.2357">
        <ele>61.1</ele>
        <time>2023-06-23T13:17:58Z</time>
      </trkpt>
      <trkpt lat="49.89075" lon="2.23573">
        <ele>61.1</ele>
        <time>2023-06-23T13:18:00Z</time>
      </trkpt>
      <trkpt lat="49.89075" lon="2.23575">
        <ele>61</ele>
        <time>2023-06-23T13:18:01Z</time>
      </trkpt>
      <trkpt lat="49.89076" lon="2.23578">
        <ele>61</ele>
        <time>2023-06-23T13:18:02Z</time>
      </trkpt>
      <trkpt lat="49.89076" lon="2.23579">
        <ele>61</ele>
        <time>2023-06-23T13:18:03Z</time>
      </trkpt>
      <trkpt lat="49.89076" lon="2.2358">
        <ele>61</ele>
        <time>2023-06-23T13:18:04Z</time>
      </trkpt>
      <trkpt lat="49.89077" lon="2.23582">
        <ele>60.9</ele>
        <time>2023-06-23T13:18:05Z</time>
      </trkpt>
      <trkpt lat="49.89078" lon="2.23584">
        <ele>60.9</ele>
        <time>2023-06-23T13:18:06Z</time>
      </trkpt>
      <trkpt lat="49.89078" lon="2.23586">
        <ele>60.9</ele>
        <time>2023-06-23T13:18:07Z</time>
      </trkpt>
      <trkpt lat="49.89079" lon="2.23588">
        <ele>60.9</ele>
        <time>2023-06-23T13:18:08Z</time>
      </trkpt>
      <trkpt lat="49.89079" lon="2.23591">
        <ele>60.8</ele>
        <time>2023-06-23T13:18:09Z</time>
      </trkpt>
      <trkpt lat="49.8908" lon="2.23593">
        <ele>60.8</ele>
        <time>2023-06-23T13:18:11Z</time>
      </trkpt>
      <trkpt lat="49.8908" lon="2.23595">
        <ele>60.8</ele>
        <time>2023-06-23T13:18:12Z</time>
      </trkpt>
      <trkpt lat="49.8908" lon="2.23597">
        <ele>60.7</ele>
        <time>2023-06-23T13:18:13Z</time>
      </trkpt>
      <trkpt lat="49.89081" lon="2.23598">
        <ele>60.7</ele>
        <time>2023-06-23T13:18:14Z</time>
      </trkpt>
      <trkpt lat="49.89081" lon="2.236">
        <ele>60.7</ele>
        <time>2023-06-23T13:18:15Z</time>
      </trkpt>
      <trkpt lat="49.89081" lon="2.23602">
        <ele>60.7</ele>
        <time>2023-06-23T13:18:16Z</time>
      </trkpt>
      <trkpt lat="49.89082" lon="2.23605">
        <ele>60.7</ele>
        <time>2023-06-23T13:18:18Z</time>
      </trkpt>
      <trkpt lat="49.89082" lon="2.23606">
        <ele>60.6</ele>
        <time>2023-06-23T13:18:19Z</time>
      </trkpt>
      <trkpt lat="49.89082" lon="2.23608">
        <ele>60.6</ele>
        <time>2023-06-23T13:18:20Z</time>
      </trkpt>
      <trkpt lat="49.89082" lon="2.23611">
        <ele>60.6</ele>
        <time>2023-06-23T13:18:21Z</time>
      </trkpt>
      <trkpt lat="49.89083" lon="2.23613">
        <ele>60.6</ele>
        <time>2023-06-23T13:18:22Z</time>
      </trkpt>
      <trkpt lat="49.89083" lon="2.23615">
        <ele>60.5</ele>
        <time>2023-06-23T13:18:23Z</time>
      </trkpt>
      <trkpt lat="49.89084" lon="2.23617">
        <ele>60.5</ele>
        <time>2023-06-23T13:18:24Z</time>
      </trkpt>
      <trkpt lat="49.89084" lon="2.23619">
        <ele>60.5</ele>
        <time>2023-06-23T13:18:25Z</time>
      </trkpt>
      <trkpt lat="49.89084" lon="2.2362">
        <ele>60.5</ele>
        <time>2023-06-23T13:18:26Z</time>
      </trkpt>
      <trkpt lat="49.89085" lon="2.23622">
        <ele>60.4</ele>
        <time>2023-06-23T13:18:27Z</time>
      </trkpt>
      <trkpt lat="49.89085" lon="2.23625">
        <ele>60.4</ele>
        <time>2023-06-23T13:18:29Z</time>
      </trkpt>
      <trkpt lat="49.89086" lon="2.23627">
        <ele>60.4</ele>
        <time>2023-06-23T13:18:30Z</time>
      </trkpt>
      <trkpt lat="49.89086" lon="2.23629">
        <ele>60.4</ele>
        <time>2023-06-23T13:18:31Z</time>
      </trkpt>
      <trkpt lat="49.89087" lon="2.23631">
        <ele>60.3</ele>
        <time>2023-06-23T13:18:32Z</time>
      </trkpt>
      <trkpt lat="49.89088" lon="2.23633">
        <ele>60.3</ele>
        <time>2023-06-23T13:18:33Z</time>
      </trkpt>
      <trkpt lat="49.89088" lon="2.23635">
        <ele>60.3</ele>
        <time>2023-06-23T13:18:34Z</time>
      </trkpt>
      <trkpt lat="49.89089" lon="2.23637">
        <ele>60.2</ele>
        <time>2023-06-23T13:18:36Z</time>
      </trkpt>
      <trkpt lat="49.89089" lon="2.23639">
        <ele>60.2</ele>
        <time>2023-06-23T13:18:37Z</time>
      </trkpt>
      <trkpt lat="49.8909" lon="2.23641">
        <ele>60.2</ele>
        <time>2023-06-23T13:18:38Z</time>
      </trkpt>
      <trkpt lat="49.8909" lon="2.23642">
        <ele>60.2</ele>
        <time>2023-06-23T13:18:39Z</time>
      </trkpt>
      <trkpt lat="49.89091" lon="2.23644">
        <ele>60.2</ele>
        <time>2023-06-23T13:18:40Z</time>
      </trkpt>
      <trkpt lat="49.89091" lon="2.23646">
        <ele>60.1</ele>
        <time>2023-06-23T13:18:41Z</time>
      </trkpt>
      <trkpt lat="49.89091" lon="2.23648">
        <ele>60.1</ele>
        <time>2023-06-23T13:18:42Z</time>
      </trkpt>
      <trkpt lat="49.89092" lon="2.23651">
        <ele>60.1</ele>
        <time>2023-06-23T13:18:43Z</time>
      </trkpt>
      <trkpt lat="49.89093" lon="2.23653">
        <ele>60</ele>
        <time>2023-06-23T13:18:45Z</time>
      </trkpt>
      <trkpt lat="49.89094" lon="2.23654">
        <ele>60</ele>
        <time>2023-06-23T13:18:46Z</time>
      </trkpt>
      <trkpt lat="49.89094" lon="2.23656">
        <ele>60</ele>
        <time>2023-06-23T13:18:48Z</time>
      </trkpt>
      <trkpt lat="49.89095" lon="2.23657">
        <ele>60</ele>
        <time>2023-06-23T13:18:49Z</time>
      </trkpt>
      <trkpt lat="49.89095" lon="2.23659">
        <ele>60</ele>
        <time>2023-06-23T13:18:50Z</time>
      </trkpt>
      <trkpt lat="49.89096" lon="2.23661">
        <ele>59.9</ele>
        <time>2023-06-23T13:18:51Z</time>
      </trkpt>
      <trkpt lat="49.89097" lon="2.23662">
        <ele>59.9</ele>
        <time>2023-06-23T13:18:52Z</time>
      </trkpt>
      <trkpt lat="49.89097" lon="2.23664">
        <ele>59.9</ele>
        <time>2023-06-23T13:18:53Z</time>
      </trkpt>
      <trkpt lat="49.89099" lon="2.23667">
        <ele>59.8</ele>
        <time>2023-06-23T13:18:54Z</time>
      </trkpt>
      <trkpt lat="49.89099" lon="2.23668">
        <ele>59.8</ele>
        <time>2023-06-23T13:18:55Z</time>
      </trkpt>
      <trkpt lat="49.891" lon="2.23669">
        <ele>59.8</ele>
        <time>2023-06-23T13:18:56Z</time>
      </trkpt>
      <trkpt lat="49.89101" lon="2.23672">
        <ele>59.8</ele>
        <time>2023-06-23T13:18:57Z</time>
      </trkpt>
      <trkpt lat="49.89101" lon="2.23673">
        <ele>59.8</ele>
        <time>2023-06-23T13:18:59Z</time>
      </trkpt>
      <trkpt lat="49.89101" lon="2.23674">
        <ele>59.7</ele>
        <time>2023-06-23T13:19:00Z</time>
      </trkpt>
      <trkpt lat="49.89102" lon="2.23675">
        <ele>59.7</ele>
        <time>2023-06-23T13:19:01Z</time>
      </trkpt>
      <trkpt lat="49.89102" lon="2.23677">
        <ele>59.7</ele>
        <time>2023-06-23T13:19:02Z</time>
      </trkpt>
      <trkpt lat="49.89103" lon="2.23679">
        <ele>59.7</ele>
        <time>2023-06-23T13:19:03Z</time>
      </trkpt>
      <trkpt lat="49.89103" lon="2.23682">
        <ele>59.6</ele>
        <time>2023-06-23T13:19:04Z</time>
      </trkpt>
      <trkpt lat="49.89104" lon="2.23683">
        <ele>59.6</ele>
        <time>2023-06-23T13:19:05Z</time>
      </trkpt>
      <trkpt lat="49.89104" lon="2.23684">
        <ele>59.6</ele>
        <time>2023-06-23T13:19:06Z</time>
      </trkpt>
      <trkpt lat="49.89105" lon="2.23687">
        <ele>59.6</ele>
        <time>2023-06-23T13:19:07Z</time>
      </trkpt>
      <trkpt lat="49.89105" lon="2.23688">
        <ele>59.6</ele>
        <time>2023-06-23T13:19:08Z</time>
      </trkpt>
      <trkpt lat="49.89106" lon="2.23692">
        <ele>59.5</ele>
        <time>2023-06-23T13:19:10Z</time>
      </trkpt>
      <trkpt lat="49.89106" lon="2.23694">
        <ele>59.5</ele>
        <time>2023-06-23T13:19:11Z</time>
      </trkpt>
      <trkpt lat="49.89106" lon="2.23696">
        <ele>59.5</ele>
        <time>2023-06-23T13:19:12Z</time>
      </trkpt>
      <trkpt lat="49.89106" lon="2.23697">
        <ele>59.5</ele>
        <time>2023-06-23T13:19:13Z</time>
      </trkpt>
      <trkpt lat="49.89107" lon="2.23699">
        <ele>59.4</ele>
        <time>2023-06-23T13:19:14Z</time>
      </trkpt>
      <trkpt lat="49.89107" lon="2.23702">
        <ele>59.4</ele>
        <time>2023-06-23T13:19:15Z</time>
      </trkpt>
      <trkpt lat="49.89108" lon="2.23703">
        <ele>59.4</ele>
        <time>2023-06-23T13:19:17Z</time>
      </trkpt>
      <trkpt lat="49.89108" lon="2.23704">
        <ele>59.4</ele>
        <time>2023-06-23T13:19:18Z</time>
      </trkpt>
      <trkpt lat="49.89109" lon="2.23707">
        <ele>59.3</ele>
        <time>2023-06-23T13:19:19Z</time>
      </trkpt>
      <trkpt lat="49.89109" lon="2.23708">
        <ele>59.3</ele>
        <time>2023-06-23T13:19:20Z</time>
      </trkpt>
      <trkpt lat="49.89109" lon="2.23709">
        <ele>59.3</ele>
        <time>2023-06-23T13:19:21Z</time>
      </trkpt>
      <trkpt lat="49.8911" lon="2.23712">
        <ele>59.2</ele>
        <time>2023-06-23T13:19:22Z</time>
      </trkpt>
      <trkpt lat="49.89111" lon="2.23714">
        <ele>59.2</ele>
        <time>2023-06-23T13:19:24Z</time>
      </trkpt>
      <trkpt lat="49.89111" lon="2.23715">
        <ele>59.2</ele>
        <time>2023-06-23T13:19:25Z</time>
      </trkpt>
      <trkpt lat="49.89112" lon="2.23717">
        <ele>59.1</ele>
        <time>2023-06-23T13:19:26Z</time>
      </trkpt>
      <trkpt lat="49.89112" lon="2.23718">
        <ele>59.1</ele>
        <time>2023-06-23T13:19:27Z</time>
      </trkpt>
      <trkpt lat="49.89113" lon="2.23721">
        <ele>59.1</ele>
        <time>2023-06-23T13:19:28Z</time>
      </trkpt>
      <trkpt lat="49.89114" lon="2.23722">
        <ele>59</ele>
        <time>2023-06-23T13:19:29Z</time>
      </trkpt>
      <trkpt lat="49.89114" lon="2.23724">
        <ele>59</ele>
        <time>2023-06-23T13:19:30Z</time>
      </trkpt>
      <trkpt lat="49.89115" lon="2.23726">
        <ele>59</ele>
        <time>2023-06-23T13:19:31Z</time>
      </trkpt>
      <trkpt lat="49.89116" lon="2.23728">
        <ele>58.9</ele>
        <time>2023-06-23T13:19:32Z</time>
      </trkpt>
      <trkpt lat="49.89116" lon="2.23729">
        <ele>58.9</ele>
        <time>2023-06-23T13:19:33Z</time>
      </trkpt>
      <trkpt lat="49.89117" lon="2.23731">
        <ele>58.9</ele>
        <time>2023-06-23T13:19:34Z</time>
      </trkpt>
      <trkpt lat="49.89118" lon="2.23732">
        <ele>58.8</ele>
        <time>2023-06-23T13:19:35Z</time>
      </trkpt>
      <trkpt lat="49.89118" lon="2.23734">
        <ele>58.8</ele>
        <time>2023-06-23T13:19:37Z</time>
      </trkpt>
      <trkpt lat="49.89119" lon="2.23736">
        <ele>58.8</ele>
        <time>2023-06-23T13:19:38Z</time>
      </trkpt>
      <trkpt lat="49.89119" lon="2.23737">
        <ele>58.8</ele>
        <time>2023-06-23T13:19:39Z</time>
      </trkpt>
      <trkpt lat="49.8912" lon="2.23739">
        <ele>58.7</ele>
        <time>2023-06-23T13:19:40Z</time>
      </trkpt>
      <trkpt lat="49.8912" lon="2.2374">
        <ele>58.7</ele>
        <time>2023-06-23T13:19:41Z</time>
      </trkpt>
      <trkpt lat="49.89121" lon="2.23742">
        <ele>58.7</ele>
        <time>2023-06-23T13:19:42Z</time>
      </trkpt>
      <trkpt lat="49.89122" lon="2.23745">
        <ele>58.6</ele>
        <time>2023-06-23T13:19:43Z</time>
      </trkpt>
      <trkpt lat="49.89122" lon="2.23746">
        <ele>58.6</ele>
        <time>2023-06-23T13:19:44Z</time>
      </trkpt>
      <trkpt lat="49.89123" lon="2.23747">
        <ele>58.6</ele>
        <time>2023-06-23T13:19:45Z</time>
      </trkpt>
      <trkpt lat="49.89124" lon="2.23751">
        <ele>58.5</ele>
        <time>2023-06-23T13:19:46Z</time>
      </trkpt>
      <trkpt lat="49.89124" lon="2.23752">
        <ele>58.5</ele>
        <time>2023-06-23T13:19:47Z</time>
      </trkpt>
      <trkpt lat="49.89124" lon="2.23753">
        <ele>58.5</ele>
        <time>2023-06-23T13:19:48Z</time>
      </trkpt>
      <trkpt lat="49.89125" lon="2.23755">
        <ele>58.4</ele>
        <time>2023-06-23T13:19:50Z</time>
      </trkpt>
      <trkpt lat="49.89125" lon="2.23757">
        <ele>58.4</ele>
        <time>2023-06-23T13:19:51Z</time>
      </trkpt>
      <trkpt lat="49.89125" lon="2.23758">
        <ele>58.4</ele>
        <time>2023-06-23T13:19:52Z</time>
      </trkpt>
      <trkpt lat="49.89125" lon="2.2376">
        <ele>58.4</ele>
        <time>2023-06-23T13:19:53Z</time>
      </trkpt>
      <trkpt lat="49.89126" lon="2.23762">
        <ele>58.3</ele>
        <time>2023-06-23T13:19:54Z</time>
      </trkpt>
      <trkpt lat="49.89126" lon="2.23763">
        <ele>58.3</ele>
        <time>2023-06-23T13:19:55Z</time>
      </trkpt>
      <trkpt lat="49.89126" lon="2.23765">
        <ele>58.3</ele>
        <time>2023-06-23T13:19:56Z</time>
      </trkpt>
      <trkpt lat="49.89126" lon="2.23766">
        <ele>58.3</ele>
        <time>2023-06-23T13:19:57Z</time>
      </trkpt>
      <trkpt lat="49.89126" lon="2.23767">
        <ele>58.2</ele>
        <time>2023-06-23T13:19:58Z</time>
      </trkpt>
      <trkpt lat="49.89127" lon="2.2377">
        <ele>58.2</ele>
        <time>2023-06-23T13:20:00Z</time>
      </trkpt>
      <trkpt lat="49.89127" lon="2.23772">
        <ele>58.2</ele>
        <time>2023-06-23T13:20:01Z</time>
      </trkpt>
      <trkpt lat="49.89127" lon="2.23774">
        <ele>58.2</ele>
        <time>2023-06-23T13:20:02Z</time>
      </trkpt>
      <trkpt lat="49.89127" lon="2.23776">
        <ele>58.1</ele>
        <time>2023-06-23T13:20:03Z</time>
      </trkpt>
      <trkpt lat="49.89128" lon="2.23779">
        <ele>58.1</ele>
        <time>2023-06-23T13:20:05Z</time>
      </trkpt>
      <trkpt lat="49.89129" lon="2.23783">
        <ele>58</ele>
        <time>2023-06-23T13:20:06Z</time>
      </trkpt>
      <trkpt lat="49.89129" lon="2.23784">
        <ele>58</ele>
        <time>2023-06-23T13:20:08Z</time>
      </trkpt>
      <trkpt lat="49.8913" lon="2.23786">
        <ele>58</ele>
        <time>2023-06-23T13:20:09Z</time>
      </trkpt>
      <trkpt lat="49.8913" lon="2.23788">
        <ele>58</ele>
        <time>2023-06-23T13:20:10Z</time>
      </trkpt>
      <trkpt lat="49.89131" lon="2.23789">
        <ele>58</ele>
        <time>2023-06-23T13:20:11Z</time>
      </trkpt>
      <trkpt lat="49.89131" lon="2.23791">
        <ele>58</ele>
        <time>2023-06-23T13:20:12Z</time>
      </trkpt>
      <trkpt lat="49.89131" lon="2.23793">
        <ele>58</ele>
        <time>2023-06-23T13:20:13Z</time>
      </trkpt>
      <trkpt lat="49.89131" lon="2.23794">
        <ele>57.9</ele>
        <time>2023-06-23T13:20:14Z</time>
      </trkpt>
      <trkpt lat="49.8913" lon="2.23796">
        <ele>57.9</ele>
        <time>2023-06-23T13:20:16Z</time>
      </trkpt>
      <trkpt lat="49.8913" lon="2.23797">
        <ele>57.9</ele>
        <time>2023-06-23T13:20:17Z</time>
      </trkpt>
      <trkpt lat="49.8913" lon="2.23799">
        <ele>57.9</ele>
        <time>2023-06-23T13:20:18Z</time>
      </trkpt>
      <trkpt lat="49.8913" lon="2.238">
        <ele>57.9</ele>
        <time>2023-06-23T13:20:19Z</time>
      </trkpt>
      <trkpt lat="49.8913" lon="2.23802">
        <ele>57.9</ele>
        <time>2023-06-23T13:20:20Z</time>
      </trkpt>
      <trkpt lat="49.8913" lon="2.23803">
        <ele>57.9</ele>
        <time>2023-06-23T13:20:21Z</time>
      </trkpt>
      <trkpt lat="49.8913" lon="2.23805">
        <ele>57.9</ele>
        <time>2023-06-23T13:20:22Z</time>
      </trkpt>
      <trkpt lat="49.8913" lon="2.23806">
        <ele>57.9</ele>
        <time>2023-06-23T13:20:23Z</time>
      </trkpt>
      <trkpt lat="49.8913" lon="2.23808">
        <ele>57.9</ele>
        <time>2023-06-23T13:20:24Z</time>
      </trkpt>
      <trkpt lat="49.8913" lon="2.23811">
        <ele>57.9</ele>
        <time>2023-06-23T13:20:26Z</time>
      </trkpt>
      <trkpt lat="49.8913" lon="2.23813">
        <ele>57.9</ele>
        <time>2023-06-23T13:20:27Z</time>
      </trkpt>
      <trkpt lat="49.8913" lon="2.23814">
        <ele>57.8</ele>
        <time>2023-06-23T13:20:28Z</time>
      </trkpt>
      <trkpt lat="49.8913" lon="2.23817">
        <ele>57.8</ele>
        <time>2023-06-23T13:20:29Z</time>
      </trkpt>
      <trkpt lat="49.8913" lon="2.23818">
        <ele>57.8</ele>
        <time>2023-06-23T13:20:30Z</time>
      </trkpt>
      <trkpt lat="49.8913" lon="2.2382">
        <ele>57.8</ele>
        <time>2023-06-23T13:20:31Z</time>
      </trkpt>
      <trkpt lat="49.89131" lon="2.23823">
        <ele>57.8</ele>
        <time>2023-06-23T13:20:32Z</time>
      </trkpt>
      <trkpt lat="49.89131" lon="2.23825">
        <ele>57.8</ele>
        <time>2023-06-23T13:20:34Z</time>
      </trkpt>
      <trkpt lat="49.89131" lon="2.23826">
        <ele>57.8</ele>
        <time>2023-06-23T13:20:35Z</time>
      </trkpt>
      <trkpt lat="49.89132" lon="2.23828">
        <ele>57.8</ele>
        <time>2023-06-23T13:20:36Z</time>
      </trkpt>
      <trkpt lat="49.89132" lon="2.23829">
        <ele>57.8</ele>
        <time>2023-06-23T13:20:37Z</time>
      </trkpt>
      <trkpt lat="49.89132" lon="2.23833">
        <ele>57.8</ele>
        <time>2023-06-23T13:20:38Z</time>
      </trkpt>
      <trkpt lat="49.89133" lon="2.23834">
        <ele>57.8</ele>
        <time>2023-06-23T13:20:39Z</time>
      </trkpt>
      <trkpt lat="49.89133" lon="2.23836">
        <ele>57.8</ele>
        <time>2023-06-23T13:20:41Z</time>
      </trkpt>
      <trkpt lat="49.89133" lon="2.23837">
        <ele>57.8</ele>
        <time>2023-06-23T13:20:42Z</time>
      </trkpt>
      <trkpt lat="49.89133" lon="2.23839">
        <ele>57.8</ele>
        <time>2023-06-23T13:20:43Z</time>
      </trkpt>
      <trkpt lat="49.89133" lon="2.23841">
        <ele>57.8</ele>
        <time>2023-06-23T13:20:44Z</time>
      </trkpt>
      <trkpt lat="49.89133" lon="2.23844">
        <ele>57.8</ele>
        <time>2023-06-23T13:20:45Z</time>
      </trkpt>
      <trkpt lat="49.89133" lon="2.23845">
        <ele>57.8</ele>
        <time>2023-06-23T13:20:46Z</time>
      </trkpt>
      <trkpt lat="49.89134" lon="2.23847">
        <ele>57.8</ele>
        <time>2023-06-23T13:20:47Z</time>
      </trkpt>
      <trkpt lat="49.89134" lon="2.23849">
        <ele>57.8</ele>
        <time>2023-06-23T13:20:48Z</time>
      </trkpt>
      <trkpt lat="49.89134" lon="2.23851">
        <ele>57.8</ele>
        <time>2023-06-23T13:20:49Z</time>
      </trkpt>
      <trkpt lat="49.89135" lon="2.23852">
        <ele>57.8</ele>
        <time>2023-06-23T13:20:51Z</time>
      </trkpt>
      <trkpt lat="49.89135" lon="2.23855">
        <ele>57.8</ele>
        <time>2023-06-23T13:20:52Z</time>
      </trkpt>
      <trkpt lat="49.89135" lon="2.23856">
        <ele>57.8</ele>
        <time>2023-06-23T13:20:53Z</time>
      </trkpt>
      <trkpt lat="49.89136" lon="2.23857">
        <ele>57.8</ele>
        <time>2023-06-23T13:20:54Z</time>
      </trkpt>
      <trkpt lat="49.89136" lon="2.2386">
        <ele>57.8</ele>
        <time>2023-06-23T13:20:55Z</time>
      </trkpt>
      <trkpt lat="49.89137" lon="2.23862">
        <ele>57.8</ele>
        <time>2023-06-23T13:20:56Z</time>
      </trkpt>
      <trkpt lat="49.89137" lon="2.23863">
        <ele>57.8</ele>
        <time>2023-06-23T13:20:57Z</time>
      </trkpt>
      <trkpt lat="49.89138" lon="2.23866">
        <ele>57.8</ele>
        <time>2023-06-23T13:20:58Z</time>
      </trkpt>
      <trkpt lat="49.89139" lon="2.23867">
        <ele>57.8</ele>
        <time>2023-06-23T13:20:59Z</time>
      </trkpt>
      <trkpt lat="49.89139" lon="2.23869">
        <ele>57.8</ele>
        <time>2023-06-23T13:21:00Z</time>
      </trkpt>
      <trkpt lat="49.8914" lon="2.23872">
        <ele>57.8</ele>
        <time>2023-06-23T13:21:01Z</time>
      </trkpt>
      <trkpt lat="49.8914" lon="2.23873">
        <ele>57.8</ele>
        <time>2023-06-23T13:21:02Z</time>
      </trkpt>
      <trkpt lat="49.89141" lon="2.23874">
        <ele>57.8</ele>
        <time>2023-06-23T13:21:03Z</time>
      </trkpt>
      <trkpt lat="49.89141" lon="2.23876">
        <ele>57.8</ele>
        <time>2023-06-23T13:21:04Z</time>
      </trkpt>
      <trkpt lat="49.89142" lon="2.23878">
        <ele>57.8</ele>
        <time>2023-06-23T13:21:05Z</time>
      </trkpt>
      <trkpt lat="49.89142" lon="2.23881">
        <ele>57.8</ele>
        <time>2023-06-23T13:21:07Z</time>
      </trkpt>
      <trkpt lat="49.89143" lon="2.23884">
        <ele>57.8</ele>
        <time>2023-06-23T13:21:08Z</time>
      </trkpt>
      <trkpt lat="49.89143" lon="2.23885">
        <ele>57.8</ele>
        <time>2023-06-23T13:21:09Z</time>
      </trkpt>
      <trkpt lat="49.89143" lon="2.23886">
        <ele>57.8</ele>
        <time>2023-06-23T13:21:10Z</time>
      </trkpt>
      <trkpt lat="49.89144" lon="2.23888">
        <ele>57.8</ele>
        <time>2023-06-23T13:21:11Z</time>
      </trkpt>
      <trkpt lat="49.89144" lon="2.2389">
        <ele>57.8</ele>
        <time>2023-06-23T13:21:12Z</time>
      </trkpt>
      <trkpt lat="49.89145" lon="2.23892">
        <ele>57.8</ele>
        <time>2023-06-23T13:21:14Z</time>
      </trkpt>
      <trkpt lat="49.89145" lon="2.23895">
        <ele>57.8</ele>
        <time>2023-06-23T13:21:15Z</time>
      </trkpt>
      <trkpt lat="49.89145" lon="2.23897">
        <ele>57.7</ele>
        <time>2023-06-23T13:21:16Z</time>
      </trkpt>
      <trkpt lat="49.89146" lon="2.23898">
        <ele>57.7</ele>
        <time>2023-06-23T13:21:17Z</time>
      </trkpt>
      <trkpt lat="49.89146" lon="2.239">
        <ele>57.7</ele>
        <time>2023-06-23T13:21:18Z</time>
      </trkpt>
      <trkpt lat="49.89146" lon="2.23901">
        <ele>57.7</ele>
        <time>2023-06-23T13:21:19Z</time>
      </trkpt>
      <trkpt lat="49.89146" lon="2.23903">
        <ele>57.7</ele>
        <time>2023-06-23T13:21:20Z</time>
      </trkpt>
      <trkpt lat="49.89146" lon="2.23906">
        <ele>57.7</ele>
        <time>2023-06-23T13:21:22Z</time>
      </trkpt>
      <trkpt lat="49.89146" lon="2.23908">
        <ele>57.7</ele>
        <time>2023-06-23T13:21:23Z</time>
      </trkpt>
      <trkpt lat="49.89146" lon="2.2391">
        <ele>57.7</ele>
        <time>2023-06-23T13:21:24Z</time>
      </trkpt>
      <trkpt lat="49.89146" lon="2.23912">
        <ele>57.7</ele>
        <time>2023-06-23T13:21:25Z</time>
      </trkpt>
      <trkpt lat="49.89147" lon="2.23915">
        <ele>57.6</ele>
        <time>2023-06-23T13:21:27Z</time>
      </trkpt>
      <trkpt lat="49.89148" lon="2.23916">
        <ele>57.6</ele>
        <time>2023-06-23T13:21:28Z</time>
      </trkpt>
      <trkpt lat="49.89148" lon="2.2392">
        <ele>57.6</ele>
        <time>2023-06-23T13:21:29Z</time>
      </trkpt>
      <trkpt lat="49.89149" lon="2.23921">
        <ele>57.6</ele>
        <time>2023-06-23T13:21:30Z</time>
      </trkpt>
      <trkpt lat="49.89149" lon="2.23922">
        <ele>57.6</ele>
        <time>2023-06-23T13:21:31Z</time>
      </trkpt>
      <trkpt lat="49.89149" lon="2.23925">
        <ele>57.6</ele>
        <time>2023-06-23T13:21:32Z</time>
      </trkpt>
      <trkpt lat="49.8915" lon="2.23927">
        <ele>57.5</ele>
        <time>2023-06-23T13:21:33Z</time>
      </trkpt>
      <trkpt lat="49.8915" lon="2.23928">
        <ele>57.5</ele>
        <time>2023-06-23T13:21:34Z</time>
      </trkpt>
      <trkpt lat="49.8915" lon="2.23931">
        <ele>57.5</ele>
        <time>2023-06-23T13:21:35Z</time>
      </trkpt>
      <trkpt lat="49.8915" lon="2.23933">
        <ele>57.5</ele>
        <time>2023-06-23T13:21:36Z</time>
      </trkpt>
      <trkpt lat="49.89151" lon="2.23934">
        <ele>57.5</ele>
        <time>2023-06-23T13:21:37Z</time>
      </trkpt>
      <trkpt lat="49.89151" lon="2.23936">
        <ele>57.5</ele>
        <time>2023-06-23T13:21:38Z</time>
      </trkpt>
      <trkpt lat="49.89151" lon="2.23938">
        <ele>57.4</ele>
        <time>2023-06-23T13:21:39Z</time>
      </trkpt>
      <trkpt lat="49.89152" lon="2.2394">
        <ele>57.4</ele>
        <time>2023-06-23T13:21:41Z</time>
      </trkpt>
      <trkpt lat="49.89152" lon="2.23942">
        <ele>57.4</ele>
        <time>2023-06-23T13:21:42Z</time>
      </trkpt>
      <trkpt lat="49.89153" lon="2.23944">
        <ele>57.4</ele>
        <time>2023-06-23T13:21:43Z</time>
      </trkpt>
      <trkpt lat="49.89153" lon="2.23946">
        <ele>57.4</ele>
        <time>2023-06-23T13:21:44Z</time>
      </trkpt>
      <trkpt lat="49.89153" lon="2.23948">
        <ele>57.4</ele>
        <time>2023-06-23T13:21:45Z</time>
      </trkpt>
      <trkpt lat="49.89154" lon="2.23949">
        <ele>57.3</ele>
        <time>2023-06-23T13:21:46Z</time>
      </trkpt>
      <trkpt lat="49.89154" lon="2.23951">
        <ele>57.3</ele>
        <time>2023-06-23T13:21:47Z</time>
      </trkpt>
      <trkpt lat="49.89154" lon="2.23954">
        <ele>57.3</ele>
        <time>2023-06-23T13:21:49Z</time>
      </trkpt>
      <trkpt lat="49.89155" lon="2.23957">
        <ele>57.3</ele>
        <time>2023-06-23T13:21:50Z</time>
      </trkpt>
      <trkpt lat="49.89155" lon="2.23958">
        <ele>57.3</ele>
        <time>2023-06-23T13:21:51Z</time>
      </trkpt>
      <trkpt lat="49.89155" lon="2.2396">
        <ele>57.3</ele>
        <time>2023-06-23T13:21:52Z</time>
      </trkpt>
      <trkpt lat="49.89156" lon="2.23962">
        <ele>57.2</ele>
        <time>2023-06-23T13:21:53Z</time>
      </trkpt>
      <trkpt lat="49.89156" lon="2.23965">
        <ele>57.2</ele>
        <time>2023-06-23T13:21:55Z</time>
      </trkpt>
      <trkpt lat="49.89156" lon="2.23967">
        <ele>57.2</ele>
        <time>2023-06-23T13:21:56Z</time>
      </trkpt>
      <trkpt lat="49.89156" lon="2.23969">
        <ele>57.2</ele>
        <time>2023-06-23T13:21:57Z</time>
      </trkpt>
      <trkpt lat="49.89156" lon="2.23971">
        <ele>57.2</ele>
        <time>2023-06-23T13:21:58Z</time>
      </trkpt>
      <trkpt lat="49.89157" lon="2.23973">
        <ele>57.1</ele>
        <time>2023-06-23T13:21:59Z</time>
      </trkpt>
      <trkpt lat="49.89157" lon="2.23976">
        <ele>57.1</ele>
        <time>2023-06-23T13:22:00Z</time>
      </trkpt>
      <trkpt lat="49.89157" lon="2.23978">
        <ele>57.1</ele>
        <time>2023-06-23T13:22:01Z</time>
      </trkpt>
      <trkpt lat="49.89157" lon="2.2398">
        <ele>57.1</ele>
        <time>2023-06-23T13:22:02Z</time>
      </trkpt>
      <trkpt lat="49.89157" lon="2.23982">
        <ele>57.1</ele>
        <time>2023-06-23T13:22:03Z</time>
      </trkpt>
      <trkpt lat="49.89157" lon="2.23983">
        <ele>57.1</ele>
        <time>2023-06-23T13:22:04Z</time>
      </trkpt>
      <trkpt lat="49.89157" lon="2.23986">
        <ele>57</ele>
        <time>2023-06-23T13:22:05Z</time>
      </trkpt>
      <trkpt lat="49.89157" lon="2.23988">
        <ele>57</ele>
        <time>2023-06-23T13:22:06Z</time>
      </trkpt>
      <trkpt lat="49.89157" lon="2.23989">
        <ele>57</ele>
        <time>2023-06-23T13:22:07Z</time>
      </trkpt>
      <trkpt lat="49.89157" lon="2.23992">
        <ele>57</ele>
        <time>2023-06-23T13:22:09Z</time>
      </trkpt>
      <trkpt lat="49.89157" lon="2.23994">
        <ele>57</ele>
        <time>2023-06-23T13:22:10Z</time>
      </trkpt>
      <trkpt lat="49.89157" lon="2.23996">
        <ele>57</ele>
        <time>2023-06-23T13:22:11Z</time>
      </trkpt>
      <trkpt lat="49.89157" lon="2.23998">
        <ele>56.9</ele>
        <time>2023-06-23T13:22:12Z</time>
      </trkpt>
      <trkpt lat="49.89158" lon="2.24">
        <ele>56.9</ele>
        <time>2023-06-23T13:22:13Z</time>
      </trkpt>
      <trkpt lat="49.89158" lon="2.24003">
        <ele>56.9</ele>
        <time>2023-06-23T13:22:14Z</time>
      </trkpt>
      <trkpt lat="49.89158" lon="2.24005">
        <ele>56.9</ele>
        <time>2023-06-23T13:22:15Z</time>
      </trkpt>
      <trkpt lat="49.89158" lon="2.24008">
        <ele>56.9</ele>
        <time>2023-06-23T13:22:16Z</time>
      </trkpt>
      <trkpt lat="49.89158" lon="2.2401">
        <ele>56.8</ele>
        <time>2023-06-23T13:22:18Z</time>
      </trkpt>
      <trkpt lat="49.89158" lon="2.24013">
        <ele>56.8</ele>
        <time>2023-06-23T13:22:19Z</time>
      </trkpt>
      <trkpt lat="49.89158" lon="2.24015">
        <ele>56.8</ele>
        <time>2023-06-23T13:22:20Z</time>
      </trkpt>
      <trkpt lat="49.89158" lon="2.24016">
        <ele>56.8</ele>
        <time>2023-06-23T13:22:21Z</time>
      </trkpt>
      <trkpt lat="49.89158" lon="2.24018">
        <ele>56.8</ele>
        <time>2023-06-23T13:22:22Z</time>
      </trkpt>
      <trkpt lat="49.89158" lon="2.24022">
        <ele>56.7</ele>
        <time>2023-06-23T13:22:23Z</time>
      </trkpt>
      <trkpt lat="49.89158" lon="2.24023">
        <ele>56.7</ele>
        <time>2023-06-23T13:22:25Z</time>
      </trkpt>
      <trkpt lat="49.89158" lon="2.24025">
        <ele>56.7</ele>
        <time>2023-06-23T13:22:26Z</time>
      </trkpt>
      <trkpt lat="49.89158" lon="2.24027">
        <ele>56.7</ele>
        <time>2023-06-23T13:22:27Z</time>
      </trkpt>
      <trkpt lat="49.89158" lon="2.24029">
        <ele>56.7</ele>
        <time>2023-06-23T13:22:28Z</time>
      </trkpt>
      <trkpt lat="49.89157" lon="2.24031">
        <ele>56.7</ele>
        <time>2023-06-23T13:22:29Z</time>
      </trkpt>
      <trkpt lat="49.89157" lon="2.24033">
        <ele>56.7</ele>
        <time>2023-06-23T13:22:30Z</time>
      </trkpt>
      <trkpt lat="49.89157" lon="2.24035">
        <ele>56.7</ele>
        <time>2023-06-23T13:22:31Z</time>
      </trkpt>
      <trkpt lat="49.89157" lon="2.24037">
        <ele>56.7</ele>
        <time>2023-06-23T13:22:32Z</time>
      </trkpt>
      <trkpt lat="49.89157" lon="2.2404">
        <ele>56.7</ele>
        <time>2023-06-23T13:22:34Z</time>
      </trkpt>
      <trkpt lat="49.89157" lon="2.24042">
        <ele>56.7</ele>
        <time>2023-06-23T13:22:35Z</time>
      </trkpt>
      <trkpt lat="49.89157" lon="2.24043">
        <ele>56.6</ele>
        <time>2023-06-23T13:22:36Z</time>
      </trkpt>
      <trkpt lat="49.89157" lon="2.24044">
        <ele>56.6</ele>
        <time>2023-06-23T13:22:37Z</time>
      </trkpt>
      <trkpt lat="49.89157" lon="2.24046">
        <ele>56.6</ele>
        <time>2023-06-23T13:22:38Z</time>
      </trkpt>
      <trkpt lat="49.89157" lon="2.24047">
        <ele>56.6</ele>
        <time>2023-06-23T13:22:39Z</time>
      </trkpt>
      <trkpt lat="49.89158" lon="2.24049">
        <ele>56.6</ele>
        <time>2023-06-23T13:22:41Z</time>
      </trkpt>
      <trkpt lat="49.89158" lon="2.24051">
        <ele>56.6</ele>
        <time>2023-06-23T13:22:42Z</time>
      </trkpt>
      <trkpt lat="49.89157" lon="2.24052">
        <ele>56.6</ele>
        <time>2023-06-23T13:22:43Z</time>
      </trkpt>
      <trkpt lat="49.89157" lon="2.24054">
        <ele>56.7</ele>
        <time>2023-06-23T13:22:45Z</time>
      </trkpt>
      <trkpt lat="49.89157" lon="2.24055">
        <ele>56.7</ele>
        <time>2023-06-23T13:22:46Z</time>
      </trkpt>
      <trkpt lat="49.89157" lon="2.24057">
        <ele>56.7</ele>
        <time>2023-06-23T13:22:47Z</time>
      </trkpt>
      <trkpt lat="49.89157" lon="2.24058">
        <ele>56.7</ele>
        <time>2023-06-23T13:22:48Z</time>
      </trkpt>
      <trkpt lat="49.89157" lon="2.2406">
        <ele>56.7</ele>
        <time>2023-06-23T13:22:49Z</time>
      </trkpt>
      <trkpt lat="49.89157" lon="2.24062">
        <ele>56.7</ele>
        <time>2023-06-23T13:22:50Z</time>
      </trkpt>
      <trkpt lat="49.89158" lon="2.24064">
        <ele>56.7</ele>
        <time>2023-06-23T13:22:52Z</time>
      </trkpt>
      <trkpt lat="49.89159" lon="2.24066">
        <ele>56.7</ele>
        <time>2023-06-23T13:22:53Z</time>
      </trkpt>
      <trkpt lat="49.89161" lon="2.24067">
        <ele>56.7</ele>
        <time>2023-06-23T13:22:54Z</time>
      </trkpt>
      <trkpt lat="49.89162" lon="2.24067">
        <ele>56.7</ele>
        <time>2023-06-23T13:22:55Z</time>
      </trkpt>
      <trkpt lat="49.89163" lon="2.24068">
        <ele>56.7</ele>
        <time>2023-06-23T13:22:56Z</time>
      </trkpt>
      <trkpt lat="49.89164" lon="2.24068">
        <ele>56.7</ele>
        <time>2023-06-23T13:22:57Z</time>
      </trkpt>
      <trkpt lat="49.89165" lon="2.24068">
        <ele>56.8</ele>
        <time>2023-06-23T13:22:58Z</time>
      </trkpt>
      <trkpt lat="49.89167" lon="2.24067">
        <ele>56.8</ele>
        <time>2023-06-23T13:23:00Z</time>
      </trkpt>
      <trkpt lat="49.89168" lon="2.24066">
        <ele>56.8</ele>
        <time>2023-06-23T13:23:01Z</time>
      </trkpt>
      <trkpt lat="49.89168" lon="2.24066">
        <ele>56.8</ele>
        <time>2023-06-23T13:23:02Z</time>
      </trkpt>
      <trkpt lat="49.89169" lon="2.24066">
        <ele>56.8</ele>
        <time>2023-06-23T13:23:03Z</time>
      </trkpt>
      <trkpt lat="49.89171" lon="2.24065">
        <ele>56.8</ele>
        <time>2023-06-23T13:23:04Z</time>
      </trkpt>
      <trkpt lat="49.89172" lon="2.24065">
        <ele>56.8</ele>
        <time>2023-06-23T13:23:06Z</time>
      </trkpt>
      <trkpt lat="49.89172" lon="2.24065">
        <ele>56.9</ele>
        <time>2023-06-23T13:23:07Z</time>
      </trkpt>
      <trkpt lat="49.89173" lon="2.24065">
        <ele>56.9</ele>
        <time>2023-06-23T13:23:08Z</time>
      </trkpt>
      <trkpt lat="49.89173" lon="2.24066">
        <ele>56.9</ele>
        <time>2023-06-23T13:23:09Z</time>
      </trkpt>
      <trkpt lat="49.89174" lon="2.24067">
        <ele>56.9</ele>
        <time>2023-06-23T13:23:11Z</time>
      </trkpt>
      <trkpt lat="49.89174" lon="2.24067">
        <ele>56.9</ele>
        <time>2023-06-23T13:23:12Z</time>
      </trkpt>
      <trkpt lat="49.89175" lon="2.24067">
        <ele>56.9</ele>
        <time>2023-06-23T13:23:13Z</time>
      </trkpt>
      <trkpt lat="49.89175" lon="2.24067">
        <ele>56.9</ele>
        <time>2023-06-23T13:23:14Z</time>
      </trkpt>
      <trkpt lat="49.89176" lon="2.24068">
        <ele>56.9</ele>
        <time>2023-06-23T13:23:16Z</time>
      </trkpt>
      <trkpt lat="49.89177" lon="2.24068">
        <ele>56.9</ele>
        <time>2023-06-23T13:23:17Z</time>
      </trkpt>
      <trkpt lat="49.89178" lon="2.24069">
        <ele>56.9</ele>
        <time>2023-06-23T13:23:18Z</time>
      </trkpt>
      <trkpt lat="49.89178" lon="2.24069">
        <ele>57</ele>
        <time>2023-06-23T13:23:19Z</time>
      </trkpt>
      <trkpt lat="49.89179" lon="2.24069">
        <ele>57</ele>
        <time>2023-06-23T13:23:20Z</time>
      </trkpt>
      <trkpt lat="49.8918" lon="2.2407">
        <ele>57</ele>
        <time>2023-06-23T13:23:21Z</time>
      </trkpt>
      <trkpt lat="49.89181" lon="2.2407">
        <ele>57</ele>
        <time>2023-06-23T13:23:22Z</time>
      </trkpt>
      <trkpt lat="49.89182" lon="2.24071">
        <ele>57</ele>
        <time>2023-06-23T13:23:23Z</time>
      </trkpt>
      <trkpt lat="49.89184" lon="2.24071">
        <ele>57</ele>
        <time>2023-06-23T13:23:25Z</time>
      </trkpt>
      <trkpt lat="49.89185" lon="2.24072">
        <ele>57.1</ele>
        <time>2023-06-23T13:23:26Z</time>
      </trkpt>
      <trkpt lat="49.89186" lon="2.24072">
        <ele>57.1</ele>
        <time>2023-06-23T13:23:27Z</time>
      </trkpt>
      <trkpt lat="49.89187" lon="2.24072">
        <ele>57.1</ele>
        <time>2023-06-23T13:23:28Z</time>
      </trkpt>
      <trkpt lat="49.89188" lon="2.24073">
        <ele>57.1</ele>
        <time>2023-06-23T13:23:29Z</time>
      </trkpt>
      <trkpt lat="49.89189" lon="2.24073">
        <ele>57.1</ele>
        <time>2023-06-23T13:23:30Z</time>
      </trkpt>
      <trkpt lat="49.8919" lon="2.24073">
        <ele>57.1</ele>
        <time>2023-06-23T13:23:31Z</time>
      </trkpt>
      <trkpt lat="49.89192" lon="2.24073">
        <ele>57.2</ele>
        <time>2023-06-23T13:23:32Z</time>
      </trkpt>
      <trkpt lat="49.89193" lon="2.24074">
        <ele>57.2</ele>
        <time>2023-06-23T13:23:33Z</time>
      </trkpt>
      <trkpt lat="49.89194" lon="2.24074">
        <ele>57.2</ele>
        <time>2023-06-23T13:23:35Z</time>
      </trkpt>
      <trkpt lat="49.89195" lon="2.24074">
        <ele>57.2</ele>
        <time>2023-06-23T13:23:36Z</time>
      </trkpt>
      <trkpt lat="49.89196" lon="2.24075">
        <ele>57.2</ele>
        <time>2023-06-23T13:23:37Z</time>
      </trkpt>
      <trkpt lat="49.89197" lon="2.24075">
        <ele>57.2</ele>
        <time>2023-06-23T13:23:38Z</time>
      </trkpt>
      <trkpt lat="49.89199" lon="2.24076">
        <ele>57.3</ele>
        <time>2023-06-23T13:23:39Z</time>
      </trkpt>
      <trkpt lat="49.892" lon="2.24076">
        <ele>57.3</ele>
        <time>2023-06-23T13:23:40Z</time>
      </trkpt>
      <trkpt lat="49.89201" lon="2.24076">
        <ele>57.3</ele>
        <time>2023-06-23T13:23:41Z</time>
      </trkpt>
      <trkpt lat="49.89202" lon="2.24077">
        <ele>57.3</ele>
        <time>2023-06-23T13:23:42Z</time>
      </trkpt>
      <trkpt lat="49.89203" lon="2.24078">
        <ele>57.3</ele>
        <time>2023-06-23T13:23:43Z</time>
      </trkpt>
      <trkpt lat="49.89205" lon="2.24078">
        <ele>57.3</ele>
        <time>2023-06-23T13:23:45Z</time>
      </trkpt>
      <trkpt lat="49.89206" lon="2.24078">
        <ele>57.3</ele>
        <time>2023-06-23T13:23:46Z</time>
      </trkpt>
      <trkpt lat="49.89207" lon="2.24078">
        <ele>57.4</ele>
        <time>2023-06-23T13:23:47Z</time>
      </trkpt>
      <trkpt lat="49.89208" lon="2.24079">
        <ele>57.4</ele>
        <time>2023-06-23T13:23:48Z</time>
      </trkpt>
      <trkpt lat="49.89209" lon="2.2408">
        <ele>57.4</ele>
        <time>2023-06-23T13:23:49Z</time>
      </trkpt>
      <trkpt lat="49.89212" lon="2.24081">
        <ele>57.4</ele>
        <time>2023-06-23T13:23:50Z</time>
      </trkpt>
      <trkpt lat="49.89213" lon="2.24082">
        <ele>57.4</ele>
        <time>2023-06-23T13:23:52Z</time>
      </trkpt>
      <trkpt lat="49.89214" lon="2.24083">
        <ele>57.4</ele>
        <time>2023-06-23T13:23:53Z</time>
      </trkpt>
      <trkpt lat="49.89215" lon="2.24084">
        <ele>57.4</ele>
        <time>2023-06-23T13:23:54Z</time>
      </trkpt>
      <trkpt lat="49.89216" lon="2.24085">
        <ele>57.4</ele>
        <time>2023-06-23T13:23:55Z</time>
      </trkpt>
      <trkpt lat="49.89217" lon="2.24086">
        <ele>57.4</ele>
        <time>2023-06-23T13:23:56Z</time>
      </trkpt>
      <trkpt lat="49.89218" lon="2.24087">
        <ele>57.4</ele>
        <time>2023-06-23T13:23:57Z</time>
      </trkpt>
      <trkpt lat="49.89219" lon="2.24087">
        <ele>57.5</ele>
        <time>2023-06-23T13:23:58Z</time>
      </trkpt>
      <trkpt lat="49.8922" lon="2.24088">
        <ele>57.5</ele>
        <time>2023-06-23T13:23:59Z</time>
      </trkpt>
      <trkpt lat="49.89222" lon="2.24089">
        <ele>57.5</ele>
        <time>2023-06-23T13:24:01Z</time>
      </trkpt>
      <trkpt lat="49.89223" lon="2.2409">
        <ele>57.5</ele>
        <time>2023-06-23T13:24:02Z</time>
      </trkpt>
      <trkpt lat="49.89224" lon="2.24091">
        <ele>57.5</ele>
        <time>2023-06-23T13:24:03Z</time>
      </trkpt>
      <trkpt lat="49.89225" lon="2.24092">
        <ele>57.5</ele>
        <time>2023-06-23T13:24:04Z</time>
      </trkpt>
      <trkpt lat="49.89227" lon="2.24093">
        <ele>57.5</ele>
        <time>2023-06-23T13:24:05Z</time>
      </trkpt>
      <trkpt lat="49.89228" lon="2.24094">
        <ele>57.5</ele>
        <time>2023-06-23T13:24:06Z</time>
      </trkpt>
      <trkpt lat="49.89229" lon="2.24094">
        <ele>57.5</ele>
        <time>2023-06-23T13:24:07Z</time>
      </trkpt>
      <trkpt lat="49.8923" lon="2.24095">
        <ele>57.5</ele>
        <time>2023-06-23T13:24:09Z</time>
      </trkpt>
      <trkpt lat="49.89231" lon="2.24096">
        <ele>57.6</ele>
        <time>2023-06-23T13:24:10Z</time>
      </trkpt>
      <trkpt lat="49.89233" lon="2.24097">
        <ele>57.6</ele>
        <time>2023-06-23T13:24:11Z</time>
      </trkpt>
      <trkpt lat="49.89234" lon="2.24097">
        <ele>57.6</ele>
        <time>2023-06-23T13:24:12Z</time>
      </trkpt>
      <trkpt lat="49.89235" lon="2.24098">
        <ele>57.6</ele>
        <time>2023-06-23T13:24:13Z</time>
      </trkpt>
      <trkpt lat="49.89236" lon="2.24098">
        <ele>57.6</ele>
        <time>2023-06-23T13:24:15Z</time>
      </trkpt>
      <trkpt lat="49.89238" lon="2.24099">
        <ele>57.6</ele>
        <time>2023-06-23T13:24:16Z</time>
      </trkpt>
      <trkpt lat="49.8924" lon="2.24099">
        <ele>57.6</ele>
        <time>2023-06-23T13:24:17Z</time>
      </trkpt>
      <trkpt lat="49.89241" lon="2.24099">
        <ele>57.6</ele>
        <time>2023-06-23T13:24:18Z</time>
      </trkpt>
      <trkpt lat="49.89242" lon="2.241">
        <ele>57.6</ele>
        <time>2023-06-23T13:24:19Z</time>
      </trkpt>
      <trkpt lat="49.89243" lon="2.241">
        <ele>57.6</ele>
        <time>2023-06-23T13:24:20Z</time>
      </trkpt>
      <trkpt lat="49.89244" lon="2.24101">
        <ele>57.6</ele>
        <time>2023-06-23T13:24:21Z</time>
      </trkpt>
      <trkpt lat="49.89246" lon="2.24102">
        <ele>57.6</ele>
        <time>2023-06-23T13:24:22Z</time>
      </trkpt>
      <trkpt lat="49.89247" lon="2.24103">
        <ele>57.6</ele>
        <time>2023-06-23T13:24:24Z</time>
      </trkpt>
      <trkpt lat="49.89248" lon="2.24103">
        <ele>57.6</ele>
        <time>2023-06-23T13:24:25Z</time>
      </trkpt>
      <trkpt lat="49.89249" lon="2.24104">
        <ele>57.6</ele>
        <time>2023-06-23T13:24:26Z</time>
      </trkpt>
      <trkpt lat="49.8925" lon="2.24105">
        <ele>57.6</ele>
        <time>2023-06-23T13:24:27Z</time>
      </trkpt>
      <trkpt lat="49.89251" lon="2.24105">
        <ele>57.6</ele>
        <time>2023-06-23T13:24:28Z</time>
      </trkpt>
      <trkpt lat="49.89252" lon="2.24106">
        <ele>57.6</ele>
        <time>2023-06-23T13:24:29Z</time>
      </trkpt>
      <trkpt lat="49.89253" lon="2.24107">
        <ele>57.6</ele>
        <time>2023-06-23T13:24:31Z</time>
      </trkpt>
      <trkpt lat="49.89255" lon="2.24108">
        <ele>57.6</ele>
        <time>2023-06-23T13:24:32Z</time>
      </trkpt>
      <trkpt lat="49.89256" lon="2.24109">
        <ele>57.6</ele>
        <time>2023-06-23T13:24:33Z</time>
      </trkpt>
      <trkpt lat="49.89258" lon="2.2411">
        <ele>57.6</ele>
        <time>2023-06-23T13:24:34Z</time>
      </trkpt>
      <trkpt lat="49.89259" lon="2.24111">
        <ele>57.6</ele>
        <time>2023-06-23T13:24:35Z</time>
      </trkpt>
      <trkpt lat="49.89259" lon="2.24112">
        <ele>57.6</ele>
        <time>2023-06-23T13:24:36Z</time>
      </trkpt>
      <trkpt lat="49.8926" lon="2.24113">
        <ele>57.6</ele>
        <time>2023-06-23T13:24:37Z</time>
      </trkpt>
      <trkpt lat="49.89261" lon="2.24114">
        <ele>57.6</ele>
        <time>2023-06-23T13:24:38Z</time>
      </trkpt>
      <trkpt lat="49.89262" lon="2.24115">
        <ele>57.6</ele>
        <time>2023-06-23T13:24:39Z</time>
      </trkpt>
      <trkpt lat="49.89263" lon="2.24116">
        <ele>57.6</ele>
        <time>2023-06-23T13:24:40Z</time>
      </trkpt>
      <trkpt lat="49.89264" lon="2.24117">
        <ele>57.6</ele>
        <time>2023-06-23T13:24:41Z</time>
      </trkpt>
      <trkpt lat="49.89266" lon="2.24118">
        <ele>57.6</ele>
        <time>2023-06-23T13:24:43Z</time>
      </trkpt>
      <trkpt lat="49.89267" lon="2.24119">
        <ele>57.6</ele>
        <time>2023-06-23T13:24:44Z</time>
      </trkpt>
      <trkpt lat="49.89267" lon="2.2412">
        <ele>57.6</ele>
        <time>2023-06-23T13:24:45Z</time>
      </trkpt>
      <trkpt lat="49.89268" lon="2.24121">
        <ele>57.6</ele>
        <time>2023-06-23T13:24:46Z</time>
      </trkpt>
      <trkpt lat="49.89269" lon="2.24123">
        <ele>57.6</ele>
        <time>2023-06-23T13:24:47Z</time>
      </trkpt>
      <trkpt lat="49.8927" lon="2.24125">
        <ele>57.6</ele>
        <time>2023-06-23T13:24:48Z</time>
      </trkpt>
      <trkpt lat="49.89271" lon="2.24126">
        <ele>57.6</ele>
        <time>2023-06-23T13:24:50Z</time>
      </trkpt>
      <trkpt lat="49.89271" lon="2.24128">
        <ele>57.6</ele>
        <time>2023-06-23T13:24:51Z</time>
      </trkpt>
      <trkpt lat="49.89272" lon="2.24129">
        <ele>57.6</ele>
        <time>2023-06-23T13:24:52Z</time>
      </trkpt>
      <trkpt lat="49.89273" lon="2.24131">
        <ele>57.6</ele>
        <time>2023-06-23T13:24:53Z</time>
      </trkpt>
      <trkpt lat="49.89273" lon="2.24132">
        <ele>57.6</ele>
        <time>2023-06-23T13:24:54Z</time>
      </trkpt>
      <trkpt lat="49.89274" lon="2.24134">
        <ele>57.6</ele>
        <time>2023-06-23T13:24:55Z</time>
      </trkpt>
      <trkpt lat="49.89275" lon="2.24136">
        <ele>57.6</ele>
        <time>2023-06-23T13:24:56Z</time>
      </trkpt>
      <trkpt lat="49.89275" lon="2.24138">
        <ele>57.6</ele>
        <time>2023-06-23T13:24:57Z</time>
      </trkpt>
      <trkpt lat="49.89276" lon="2.24139">
        <ele>57.6</ele>
        <time>2023-06-23T13:24:58Z</time>
      </trkpt>
      <trkpt lat="49.89277" lon="2.24142">
        <ele>57.6</ele>
        <time>2023-06-23T13:24:59Z</time>
      </trkpt>
      <trkpt lat="49.89277" lon="2.24143">
        <ele>57.5</ele>
        <time>2023-06-23T13:25:00Z</time>
      </trkpt>
      <trkpt lat="49.89277" lon="2.24145">
        <ele>57.5</ele>
        <time>2023-06-23T13:25:01Z</time>
      </trkpt>
      <trkpt lat="49.89278" lon="2.24147">
        <ele>57.5</ele>
        <time>2023-06-23T13:25:03Z</time>
      </trkpt>
      <trkpt lat="49.89279" lon="2.24148">
        <ele>57.5</ele>
        <time>2023-06-23T13:25:04Z</time>
      </trkpt>
      <trkpt lat="49.89279" lon="2.2415">
        <ele>57.5</ele>
        <time>2023-06-23T13:25:05Z</time>
      </trkpt>
      <trkpt lat="49.8928" lon="2.24152">
        <ele>57.5</ele>
        <time>2023-06-23T13:25:06Z</time>
      </trkpt>
      <trkpt lat="49.89281" lon="2.24153">
        <ele>57.5</ele>
        <time>2023-06-23T13:25:07Z</time>
      </trkpt>
      <trkpt lat="49.89282" lon="2.24156">
        <ele>57.4</ele>
        <time>2023-06-23T13:25:08Z</time>
      </trkpt>
      <trkpt lat="49.89283" lon="2.24157">
        <ele>57.4</ele>
        <time>2023-06-23T13:25:09Z</time>
      </trkpt>
      <trkpt lat="49.89283" lon="2.24158">
        <ele>57.4</ele>
        <time>2023-06-23T13:25:10Z</time>
      </trkpt>
      <trkpt lat="49.89284" lon="2.2416">
        <ele>57.4</ele>
        <time>2023-06-23T13:25:11Z</time>
      </trkpt>
      <trkpt lat="49.89285" lon="2.24162">
        <ele>57.4</ele>
        <time>2023-06-23T13:25:12Z</time>
      </trkpt>
      <trkpt lat="49.89286" lon="2.24164">
        <ele>57.3</ele>
        <time>2023-06-23T13:25:14Z</time>
      </trkpt>
      <trkpt lat="49.89286" lon="2.24166">
        <ele>57.3</ele>
        <time>2023-06-23T13:25:15Z</time>
      </trkpt>
      <trkpt lat="49.89287" lon="2.24169">
        <ele>57.3</ele>
        <time>2023-06-23T13:25:16Z</time>
      </trkpt>
      <trkpt lat="49.89286" lon="2.2417">
        <ele>57.3</ele>
        <time>2023-06-23T13:25:17Z</time>
      </trkpt>
      <trkpt lat="49.89286" lon="2.24172">
        <ele>57.2</ele>
        <time>2023-06-23T13:25:18Z</time>
      </trkpt>
      <trkpt lat="49.89287" lon="2.24175">
        <ele>57.2</ele>
        <time>2023-06-23T13:25:20Z</time>
      </trkpt>
      <trkpt lat="49.89288" lon="2.24177">
        <ele>57.2</ele>
        <time>2023-06-23T13:25:21Z</time>
      </trkpt>
      <trkpt lat="49.89289" lon="2.24178">
        <ele>57.2</ele>
        <time>2023-06-23T13:25:22Z</time>
      </trkpt>
      <trkpt lat="49.89291" lon="2.24181">
        <ele>57.1</ele>
        <time>2023-06-23T13:25:23Z</time>
      </trkpt>
      <trkpt lat="49.89291" lon="2.24182">
        <ele>57.1</ele>
        <time>2023-06-23T13:25:25Z</time>
      </trkpt>
      <trkpt lat="49.89292" lon="2.24183">
        <ele>57.1</ele>
        <time>2023-06-23T13:25:26Z</time>
      </trkpt>
      <trkpt lat="49.89293" lon="2.24184">
        <ele>57.1</ele>
        <time>2023-06-23T13:25:27Z</time>
      </trkpt>
      <trkpt lat="49.89293" lon="2.24185">
        <ele>57.1</ele>
        <time>2023-06-23T13:25:28Z</time>
      </trkpt>
      <trkpt lat="49.89294" lon="2.24186">
        <ele>57</ele>
        <time>2023-06-23T13:25:29Z</time>
      </trkpt>
      <trkpt lat="49.89295" lon="2.24188">
        <ele>57</ele>
        <time>2023-06-23T13:25:30Z</time>
      </trkpt>
      <trkpt lat="49.89296" lon="2.2419">
        <ele>57</ele>
        <time>2023-06-23T13:25:31Z</time>
      </trkpt>
      <trkpt lat="49.89296" lon="2.24191">
        <ele>57</ele>
        <time>2023-06-23T13:25:32Z</time>
      </trkpt>
      <trkpt lat="49.89297" lon="2.24193">
        <ele>57</ele>
        <time>2023-06-23T13:25:33Z</time>
      </trkpt>
      <trkpt lat="49.89297" lon="2.24194">
        <ele>57</ele>
        <time>2023-06-23T13:25:34Z</time>
      </trkpt>
      <trkpt lat="49.89298" lon="2.24195">
        <ele>56.9</ele>
        <time>2023-06-23T13:25:35Z</time>
      </trkpt>
      <trkpt lat="49.89298" lon="2.24196">
        <ele>56.9</ele>
        <time>2023-06-23T13:25:36Z</time>
      </trkpt>
      <trkpt lat="49.89299" lon="2.24198">
        <ele>56.9</ele>
        <time>2023-06-23T13:25:38Z</time>
      </trkpt>
      <trkpt lat="49.893" lon="2.24199">
        <ele>56.9</ele>
        <time>2023-06-23T13:25:39Z</time>
      </trkpt>
      <trkpt lat="49.893" lon="2.24201">
        <ele>56.9</ele>
        <time>2023-06-23T13:25:40Z</time>
      </trkpt>
      <trkpt lat="49.89301" lon="2.24203">
        <ele>56.8</ele>
        <time>2023-06-23T13:25:41Z</time>
      </trkpt>
      <trkpt lat="49.89302" lon="2.24205">
        <ele>56.8</ele>
        <time>2023-06-23T13:25:42Z</time>
      </trkpt>
      <trkpt lat="49.89302" lon="2.24206">
        <ele>56.8</ele>
        <time>2023-06-23T13:25:43Z</time>
      </trkpt>
      <trkpt lat="49.89303" lon="2.24208">
        <ele>56.8</ele>
        <time>2023-06-23T13:25:44Z</time>
      </trkpt>
      <trkpt lat="49.89303" lon="2.2421">
        <ele>56.7</ele>
        <time>2023-06-23T13:25:45Z</time>
      </trkpt>
      <trkpt lat="49.89304" lon="2.24212">
        <ele>56.7</ele>
        <time>2023-06-23T13:25:46Z</time>
      </trkpt>
      <trkpt lat="49.89304" lon="2.24214">
        <ele>56.7</ele>
        <time>2023-06-23T13:25:47Z</time>
      </trkpt>
      <trkpt lat="49.89304" lon="2.24216">
        <ele>56.6</ele>
        <time>2023-06-23T13:25:48Z</time>
      </trkpt>
      <trkpt lat="49.89305" lon="2.24218">
        <ele>56.6</ele>
        <time>2023-06-23T13:25:50Z</time>
      </trkpt>
      <trkpt lat="49.89305" lon="2.24222">
        <ele>56.5</ele>
        <time>2023-06-23T13:25:51Z</time>
      </trkpt>
      <trkpt lat="49.89305" lon="2.24223">
        <ele>56.5</ele>
        <time>2023-06-23T13:25:52Z</time>
      </trkpt>
      <trkpt lat="49.89305" lon="2.24224">
        <ele>56.5</ele>
        <time>2023-06-23T13:25:53Z</time>
      </trkpt>
      <trkpt lat="49.89305" lon="2.24226">
        <ele>56.5</ele>
        <time>2023-06-23T13:25:54Z</time>
      </trkpt>
      <trkpt lat="49.89305" lon="2.24228">
        <ele>56.4</ele>
        <time>2023-06-23T13:25:55Z</time>
      </trkpt>
      <trkpt lat="49.89304" lon="2.2423">
        <ele>56.4</ele>
        <time>2023-06-23T13:25:56Z</time>
      </trkpt>
      <trkpt lat="49.89304" lon="2.24232">
        <ele>56.4</ele>
        <time>2023-06-23T13:25:57Z</time>
      </trkpt>
      <trkpt lat="49.89304" lon="2.24234">
        <ele>56.4</ele>
        <time>2023-06-23T13:25:59Z</time>
      </trkpt>
      <trkpt lat="49.89304" lon="2.24237">
        <ele>56.3</ele>
        <time>2023-06-23T13:26:00Z</time>
      </trkpt>
      <trkpt lat="49.89303" lon="2.2424">
        <ele>56.3</ele>
        <time>2023-06-23T13:26:01Z</time>
      </trkpt>
      <trkpt lat="49.89303" lon="2.24241">
        <ele>56.2</ele>
        <time>2023-06-23T13:26:02Z</time>
      </trkpt>
      <trkpt lat="49.89303" lon="2.24242">
        <ele>56.2</ele>
        <time>2023-06-23T13:26:03Z</time>
      </trkpt>
      <trkpt lat="49.89303" lon="2.24245">
        <ele>56.2</ele>
        <time>2023-06-23T13:26:04Z</time>
      </trkpt>
      <trkpt lat="49.89303" lon="2.24247">
        <ele>56.2</ele>
        <time>2023-06-23T13:26:05Z</time>
      </trkpt>
      <trkpt lat="49.89302" lon="2.24249">
        <ele>56.1</ele>
        <time>2023-06-23T13:26:07Z</time>
      </trkpt>
      <trkpt lat="49.89302" lon="2.24251">
        <ele>56.1</ele>
        <time>2023-06-23T13:26:08Z</time>
      </trkpt>
      <trkpt lat="49.89301" lon="2.24254">
        <ele>56.1</ele>
        <time>2023-06-23T13:26:09Z</time>
      </trkpt>
      <trkpt lat="49.89301" lon="2.24256">
        <ele>56</ele>
        <time>2023-06-23T13:26:10Z</time>
      </trkpt>
      <trkpt lat="49.89301" lon="2.24257">
        <ele>56</ele>
        <time>2023-06-23T13:26:11Z</time>
      </trkpt>
      <trkpt lat="49.89301" lon="2.24259">
        <ele>56</ele>
        <time>2023-06-23T13:26:12Z</time>
      </trkpt>
      <trkpt lat="49.89301" lon="2.24261">
        <ele>56</ele>
        <time>2023-06-23T13:26:13Z</time>
      </trkpt>
      <trkpt lat="49.89301" lon="2.24263">
        <ele>56</ele>
        <time>2023-06-23T13:26:14Z</time>
      </trkpt>
      <trkpt lat="49.89302" lon="2.24264">
        <ele>55.9</ele>
        <time>2023-06-23T13:26:15Z</time>
      </trkpt>
      <trkpt lat="49.89302" lon="2.24267">
        <ele>55.9</ele>
        <time>2023-06-23T13:26:16Z</time>
      </trkpt>
      <trkpt lat="49.89303" lon="2.24268">
        <ele>55.9</ele>
        <time>2023-06-23T13:26:17Z</time>
      </trkpt>
      <trkpt lat="49.89303" lon="2.2427">
        <ele>55.9</ele>
        <time>2023-06-23T13:26:18Z</time>
      </trkpt>
      <trkpt lat="49.89304" lon="2.24272">
        <ele>55.9</ele>
        <time>2023-06-23T13:26:19Z</time>
      </trkpt>
      <trkpt lat="49.89304" lon="2.24274">
        <ele>55.8</ele>
        <time>2023-06-23T13:26:21Z</time>
      </trkpt>
      <trkpt lat="49.89305" lon="2.24276">
        <ele>55.8</ele>
        <time>2023-06-23T13:26:22Z</time>
      </trkpt>
      <trkpt lat="49.89306" lon="2.24278">
        <ele>55.8</ele>
        <time>2023-06-23T13:26:23Z</time>
      </trkpt>
      <trkpt lat="49.89306" lon="2.24279">
        <ele>55.8</ele>
        <time>2023-06-23T13:26:24Z</time>
      </trkpt>
      <trkpt lat="49.89307" lon="2.24281">
        <ele>55.8</ele>
        <time>2023-06-23T13:26:25Z</time>
      </trkpt>
      <trkpt lat="49.89307" lon="2.24283">
        <ele>55.7</ele>
        <time>2023-06-23T13:26:26Z</time>
      </trkpt>
      <trkpt lat="49.89308" lon="2.24285">
        <ele>55.7</ele>
        <time>2023-06-23T13:26:27Z</time>
      </trkpt>
      <trkpt lat="49.89309" lon="2.24287">
        <ele>55.7</ele>
        <time>2023-06-23T13:26:28Z</time>
      </trkpt>
      <trkpt lat="49.8931" lon="2.24288">
        <ele>55.7</ele>
        <time>2023-06-23T13:26:29Z</time>
      </trkpt>
      <trkpt lat="49.8931" lon="2.2429">
        <ele>55.7</ele>
        <time>2023-06-23T13:26:30Z</time>
      </trkpt>
      <trkpt lat="49.89311" lon="2.24291">
        <ele>55.7</ele>
        <time>2023-06-23T13:26:31Z</time>
      </trkpt>
      <trkpt lat="49.89311" lon="2.24292">
        <ele>55.7</ele>
        <time>2023-06-23T13:26:32Z</time>
      </trkpt>
      <trkpt lat="49.89311" lon="2.24294">
        <ele>55.6</ele>
        <time>2023-06-23T13:26:33Z</time>
      </trkpt>
      <trkpt lat="49.89312" lon="2.24296">
        <ele>55.6</ele>
        <time>2023-06-23T13:26:35Z</time>
      </trkpt>
      <trkpt lat="49.89313" lon="2.24297">
        <ele>55.6</ele>
        <time>2023-06-23T13:26:36Z</time>
      </trkpt>
      <trkpt lat="49.89314" lon="2.243">
        <ele>55.6</ele>
        <time>2023-06-23T13:26:37Z</time>
      </trkpt>
      <trkpt lat="49.89314" lon="2.24302">
        <ele>55.6</ele>
        <time>2023-06-23T13:26:38Z</time>
      </trkpt>
      <trkpt lat="49.89315" lon="2.24303">
        <ele>55.6</ele>
        <time>2023-06-23T13:26:39Z</time>
      </trkpt>
      <trkpt lat="49.89316" lon="2.24306">
        <ele>55.6</ele>
        <time>2023-06-23T13:26:40Z</time>
      </trkpt>
      <trkpt lat="49.89316" lon="2.24307">
        <ele>55.6</ele>
        <time>2023-06-23T13:26:41Z</time>
      </trkpt>
      <trkpt lat="49.89317" lon="2.24308">
        <ele>55.6</ele>
        <time>2023-06-23T13:26:42Z</time>
      </trkpt>
      <trkpt lat="49.89318" lon="2.2431">
        <ele>55.6</ele>
        <time>2023-06-23T13:26:44Z</time>
      </trkpt>
      <trkpt lat="49.89318" lon="2.24312">
        <ele>55.5</ele>
        <time>2023-06-23T13:26:45Z</time>
      </trkpt>
      <trkpt lat="49.89319" lon="2.24314">
        <ele>55.5</ele>
        <time>2023-06-23T13:26:46Z</time>
      </trkpt>
      <trkpt lat="49.8932" lon="2.24315">
        <ele>55.5</ele>
        <time>2023-06-23T13:26:47Z</time>
      </trkpt>
      <trkpt lat="49.8932" lon="2.24316">
        <ele>55.5</ele>
        <time>2023-06-23T13:26:48Z</time>
      </trkpt>
      <trkpt lat="49.89321" lon="2.24318">
        <ele>55.5</ele>
        <time>2023-06-23T13:26:49Z</time>
      </trkpt>
      <trkpt lat="49.89321" lon="2.24319">
        <ele>55.5</ele>
        <time>2023-06-23T13:26:50Z</time>
      </trkpt>
      <trkpt lat="49.89322" lon="2.24321">
        <ele>55.5</ele>
        <time>2023-06-23T13:26:52Z</time>
      </trkpt>
      <trkpt lat="49.89322" lon="2.24322">
        <ele>55.5</ele>
        <time>2023-06-23T13:26:53Z</time>
      </trkpt>
      <trkpt lat="49.89323" lon="2.24324">
        <ele>55.5</ele>
        <time>2023-06-23T13:26:54Z</time>
      </trkpt>
      <trkpt lat="49.89324" lon="2.24326">
        <ele>55.5</ele>
        <time>2023-06-23T13:26:55Z</time>
      </trkpt>
      <trkpt lat="49.89325" lon="2.24328">
        <ele>55.5</ele>
        <time>2023-06-23T13:26:56Z</time>
      </trkpt>
      <trkpt lat="49.89325" lon="2.2433">
        <ele>55.5</ele>
        <time>2023-06-23T13:26:57Z</time>
      </trkpt>
      <trkpt lat="49.89326" lon="2.24331">
        <ele>55.5</ele>
        <time>2023-06-23T13:26:58Z</time>
      </trkpt>
      <trkpt lat="49.89327" lon="2.24332">
        <ele>55.5</ele>
        <time>2023-06-23T13:26:59Z</time>
      </trkpt>
      <trkpt lat="49.89328" lon="2.24333">
        <ele>55.5</ele>
        <time>2023-06-23T13:27:00Z</time>
      </trkpt>
      <trkpt lat="49.89328" lon="2.24335">
        <ele>55.4</ele>
        <time>2023-06-23T13:27:01Z</time>
      </trkpt>
      <trkpt lat="49.89329" lon="2.24336">
        <ele>55.4</ele>
        <time>2023-06-23T13:27:02Z</time>
      </trkpt>
      <trkpt lat="49.8933" lon="2.24337">
        <ele>55.4</ele>
        <time>2023-06-23T13:27:03Z</time>
      </trkpt>
      <trkpt lat="49.89331" lon="2.24339">
        <ele>55.4</ele>
        <time>2023-06-23T13:27:05Z</time>
      </trkpt>
      <trkpt lat="49.89333" lon="2.24341">
        <ele>55.4</ele>
        <time>2023-06-23T13:27:06Z</time>
      </trkpt>
      <trkpt lat="49.89333" lon="2.24342">
        <ele>55.4</ele>
        <time>2023-06-23T13:27:07Z</time>
      </trkpt>
      <trkpt lat="49.89334" lon="2.24343">
        <ele>55.4</ele>
        <time>2023-06-23T13:27:08Z</time>
      </trkpt>
      <trkpt lat="49.89334" lon="2.24345">
        <ele>55.4</ele>
        <time>2023-06-23T13:27:09Z</time>
      </trkpt>
      <trkpt lat="49.89335" lon="2.24347">
        <ele>55.4</ele>
        <time>2023-06-23T13:27:10Z</time>
      </trkpt>
      <trkpt lat="49.89336" lon="2.2435">
        <ele>55.4</ele>
        <time>2023-06-23T13:27:11Z</time>
      </trkpt>
      <trkpt lat="49.89337" lon="2.24351">
        <ele>55.3</ele>
        <time>2023-06-23T13:27:12Z</time>
      </trkpt>
      <trkpt lat="49.89337" lon="2.24352">
        <ele>55.3</ele>
        <time>2023-06-23T13:27:13Z</time>
      </trkpt>
      <trkpt lat="49.89339" lon="2.24355">
        <ele>55.3</ele>
        <time>2023-06-23T13:27:14Z</time>
      </trkpt>
      <trkpt lat="49.89339" lon="2.24356">
        <ele>55.3</ele>
        <time>2023-06-23T13:27:15Z</time>
      </trkpt>
      <trkpt lat="49.8934" lon="2.24357">
        <ele>55.3</ele>
        <time>2023-06-23T13:27:16Z</time>
      </trkpt>
      <trkpt lat="49.8934" lon="2.24359">
        <ele>55.3</ele>
        <time>2023-06-23T13:27:18Z</time>
      </trkpt>
      <trkpt lat="49.89341" lon="2.2436">
        <ele>55.3</ele>
        <time>2023-06-23T13:27:19Z</time>
      </trkpt>
      <trkpt lat="49.89343" lon="2.24363">
        <ele>55.3</ele>
        <time>2023-06-23T13:27:20Z</time>
      </trkpt>
      <trkpt lat="49.89343" lon="2.24364">
        <ele>55.3</ele>
        <time>2023-06-23T13:27:21Z</time>
      </trkpt>
      <trkpt lat="49.89344" lon="2.24366">
        <ele>55.3</ele>
        <time>2023-06-23T13:27:22Z</time>
      </trkpt>
      <trkpt lat="49.89345" lon="2.24368">
        <ele>55.2</ele>
        <time>2023-06-23T13:27:23Z</time>
      </trkpt>
      <trkpt lat="49.89345" lon="2.24369">
        <ele>55.2</ele>
        <time>2023-06-23T13:27:25Z</time>
      </trkpt>
      <trkpt lat="49.89345" lon="2.24371">
        <ele>55.2</ele>
        <time>2023-06-23T13:27:26Z</time>
      </trkpt>
      <trkpt lat="49.89346" lon="2.24372">
        <ele>55.2</ele>
        <time>2023-06-23T13:27:27Z</time>
      </trkpt>
      <trkpt lat="49.89346" lon="2.24374">
        <ele>55.2</ele>
        <time>2023-06-23T13:27:28Z</time>
      </trkpt>
      <trkpt lat="49.89347" lon="2.24375">
        <ele>55.2</ele>
        <time>2023-06-23T13:27:29Z</time>
      </trkpt>
      <trkpt lat="49.89348" lon="2.24378">
        <ele>55.2</ele>
        <time>2023-06-23T13:27:30Z</time>
      </trkpt>
      <trkpt lat="49.89348" lon="2.2438">
        <ele>55.2</ele>
        <time>2023-06-23T13:27:31Z</time>
      </trkpt>
      <trkpt lat="49.89348" lon="2.24381">
        <ele>55.2</ele>
        <time>2023-06-23T13:27:32Z</time>
      </trkpt>
      <trkpt lat="49.89349" lon="2.24383">
        <ele>55.2</ele>
        <time>2023-06-23T13:27:34Z</time>
      </trkpt>
      <trkpt lat="49.8935" lon="2.24384">
        <ele>55.2</ele>
        <time>2023-06-23T13:27:35Z</time>
      </trkpt>
      <trkpt lat="49.8935" lon="2.24386">
        <ele>55.2</ele>
        <time>2023-06-23T13:27:36Z</time>
      </trkpt>
      <trkpt lat="49.89351" lon="2.24387">
        <ele>55.1</ele>
        <time>2023-06-23T13:27:37Z</time>
      </trkpt>
      <trkpt lat="49.89351" lon="2.24389">
        <ele>55.1</ele>
        <time>2023-06-23T13:27:38Z</time>
      </trkpt>
      <trkpt lat="49.89352" lon="2.2439">
        <ele>55.1</ele>
        <time>2023-06-23T13:27:39Z</time>
      </trkpt>
      <trkpt lat="49.89353" lon="2.24391">
        <ele>55.1</ele>
        <time>2023-06-23T13:27:40Z</time>
      </trkpt>
      <trkpt lat="49.89355" lon="2.24393">
        <ele>55.1</ele>
        <time>2023-06-23T13:27:42Z</time>
      </trkpt>
      <trkpt lat="49.89356" lon="2.24394">
        <ele>55.1</ele>
        <time>2023-06-23T13:27:43Z</time>
      </trkpt>
      <trkpt lat="49.89357" lon="2.24395">
        <ele>55.1</ele>
        <time>2023-06-23T13:27:45Z</time>
      </trkpt>
      <trkpt lat="49.89358" lon="2.24395">
        <ele>55.1</ele>
        <time>2023-06-23T13:27:46Z</time>
      </trkpt>
      <trkpt lat="49.89359" lon="2.24397">
        <ele>55.1</ele>
        <time>2023-06-23T13:27:47Z</time>
      </trkpt>
      <trkpt lat="49.89359" lon="2.24398">
        <ele>55.1</ele>
        <time>2023-06-23T13:27:48Z</time>
      </trkpt>
      <trkpt lat="49.8936" lon="2.24399">
        <ele>55.1</ele>
        <time>2023-06-23T13:27:49Z</time>
      </trkpt>
      <trkpt lat="49.8936" lon="2.24401">
        <ele>55.1</ele>
        <time>2023-06-23T13:27:50Z</time>
      </trkpt>
      <trkpt lat="49.8936" lon="2.24403">
        <ele>55.1</ele>
        <time>2023-06-23T13:27:51Z</time>
      </trkpt>
      <trkpt lat="49.8936" lon="2.24405">
        <ele>55.1</ele>
        <time>2023-06-23T13:27:52Z</time>
      </trkpt>
      <trkpt lat="49.8936" lon="2.24407">
        <ele>55.1</ele>
        <time>2023-06-23T13:27:53Z</time>
      </trkpt>
      <trkpt lat="49.89361" lon="2.2441">
        <ele>55.1</ele>
        <time>2023-06-23T13:27:55Z</time>
      </trkpt>
      <trkpt lat="49.89361" lon="2.24411">
        <ele>55.1</ele>
        <time>2023-06-23T13:27:56Z</time>
      </trkpt>
      <trkpt lat="49.89362" lon="2.24412">
        <ele>55.1</ele>
        <time>2023-06-23T13:27:57Z</time>
      </trkpt>
      <trkpt lat="49.89362" lon="2.24414">
        <ele>55.1</ele>
        <time>2023-06-23T13:27:58Z</time>
      </trkpt>
      <trkpt lat="49.89363" lon="2.24415">
        <ele>55.1</ele>
        <time>2023-06-23T13:27:59Z</time>
      </trkpt>
      <trkpt lat="49.89364" lon="2.24416">
        <ele>55.1</ele>
        <time>2023-06-23T13:28:00Z</time>
      </trkpt>
      <trkpt lat="49.89364" lon="2.24418">
        <ele>55.1</ele>
        <time>2023-06-23T13:28:01Z</time>
      </trkpt>
      <trkpt lat="49.89365" lon="2.2442">
        <ele>55.1</ele>
        <time>2023-06-23T13:28:03Z</time>
      </trkpt>
      <trkpt lat="49.89366" lon="2.24422">
        <ele>55.1</ele>
        <time>2023-06-23T13:28:04Z</time>
      </trkpt>
      <trkpt lat="49.89366" lon="2.24424">
        <ele>55.1</ele>
        <time>2023-06-23T13:28:05Z</time>
      </trkpt>
      <trkpt lat="49.89367" lon="2.24426">
        <ele>55.1</ele>
        <time>2023-06-23T13:28:06Z</time>
      </trkpt>
      <trkpt lat="49.89368" lon="2.24427">
        <ele>55.1</ele>
        <time>2023-06-23T13:28:07Z</time>
      </trkpt>
      <trkpt lat="49.89368" lon="2.24429">
        <ele>55.1</ele>
        <time>2023-06-23T13:28:08Z</time>
      </trkpt>
      <trkpt lat="49.8937" lon="2.24431">
        <ele>55.1</ele>
        <time>2023-06-23T13:28:09Z</time>
      </trkpt>
      <trkpt lat="49.89371" lon="2.24433">
        <ele>55.1</ele>
        <time>2023-06-23T13:28:11Z</time>
      </trkpt>
      <trkpt lat="49.89371" lon="2.24434">
        <ele>55.1</ele>
        <time>2023-06-23T13:28:12Z</time>
      </trkpt>
      <trkpt lat="49.89372" lon="2.24436">
        <ele>55.1</ele>
        <time>2023-06-23T13:28:13Z</time>
      </trkpt>
      <trkpt lat="49.89372" lon="2.24437">
        <ele>55.1</ele>
        <time>2023-06-23T13:28:14Z</time>
      </trkpt>
      <trkpt lat="49.89373" lon="2.24439">
        <ele>55.1</ele>
        <time>2023-06-23T13:28:15Z</time>
      </trkpt>
      <trkpt lat="49.89374" lon="2.2444">
        <ele>55.1</ele>
        <time>2023-06-23T13:28:16Z</time>
      </trkpt>
      <trkpt lat="49.89375" lon="2.24443">
        <ele>55.1</ele>
        <time>2023-06-23T13:28:17Z</time>
      </trkpt>
      <trkpt lat="49.89376" lon="2.24445">
        <ele>55.1</ele>
        <time>2023-06-23T13:28:18Z</time>
      </trkpt>
      <trkpt lat="49.89376" lon="2.24446">
        <ele>55.1</ele>
        <time>2023-06-23T13:28:19Z</time>
      </trkpt>
      <trkpt lat="49.89377" lon="2.24447">
        <ele>55.1</ele>
        <time>2023-06-23T13:28:21Z</time>
      </trkpt>
      <trkpt lat="49.89377" lon="2.24449">
        <ele>55.1</ele>
        <time>2023-06-23T13:28:22Z</time>
      </trkpt>
      <trkpt lat="49.89378" lon="2.2445">
        <ele>55.1</ele>
        <time>2023-06-23T13:28:23Z</time>
      </trkpt>
      <trkpt lat="49.89378" lon="2.24452">
        <ele>55.1</ele>
        <time>2023-06-23T13:28:24Z</time>
      </trkpt>
      <trkpt lat="49.89379" lon="2.24453">
        <ele>55.1</ele>
        <time>2023-06-23T13:28:25Z</time>
      </trkpt>
      <trkpt lat="49.89379" lon="2.24455">
        <ele>55.1</ele>
        <time>2023-06-23T13:28:26Z</time>
      </trkpt>
      <trkpt lat="49.8938" lon="2.24457">
        <ele>55.1</ele>
        <time>2023-06-23T13:28:27Z</time>
      </trkpt>
      <trkpt lat="49.89381" lon="2.24458">
        <ele>55.1</ele>
        <time>2023-06-23T13:28:28Z</time>
      </trkpt>
      <trkpt lat="49.89381" lon="2.2446">
        <ele>55.1</ele>
        <time>2023-06-23T13:28:29Z</time>
      </trkpt>
      <trkpt lat="49.89382" lon="2.24463">
        <ele>55.1</ele>
        <time>2023-06-23T13:28:30Z</time>
      </trkpt>
      <trkpt lat="49.89383" lon="2.24464">
        <ele>55.1</ele>
        <time>2023-06-23T13:28:31Z</time>
      </trkpt>
      <trkpt lat="49.89383" lon="2.24465">
        <ele>55.1</ele>
        <time>2023-06-23T13:28:32Z</time>
      </trkpt>
      <trkpt lat="49.89384" lon="2.24468">
        <ele>55.1</ele>
        <time>2023-06-23T13:28:34Z</time>
      </trkpt>
      <trkpt lat="49.89384" lon="2.24469">
        <ele>55.1</ele>
        <time>2023-06-23T13:28:35Z</time>
      </trkpt>
      <trkpt lat="49.89385" lon="2.2447">
        <ele>55.1</ele>
        <time>2023-06-23T13:28:36Z</time>
      </trkpt>
      <trkpt lat="49.89386" lon="2.24472">
        <ele>55.1</ele>
        <time>2023-06-23T13:28:37Z</time>
      </trkpt>
      <trkpt lat="49.89386" lon="2.24473">
        <ele>55.1</ele>
        <time>2023-06-23T13:28:38Z</time>
      </trkpt>
      <trkpt lat="49.89387" lon="2.24474">
        <ele>55.1</ele>
        <time>2023-06-23T13:28:39Z</time>
      </trkpt>
      <trkpt lat="49.89388" lon="2.24476">
        <ele>55.1</ele>
        <time>2023-06-23T13:28:40Z</time>
      </trkpt>
      <trkpt lat="49.89388" lon="2.24478">
        <ele>55.1</ele>
        <time>2023-06-23T13:28:41Z</time>
      </trkpt>
      <trkpt lat="49.89389" lon="2.2448">
        <ele>55.1</ele>
        <time>2023-06-23T13:28:43Z</time>
      </trkpt>
      <trkpt lat="49.8939" lon="2.24483">
        <ele>55.1</ele>
        <time>2023-06-23T13:28:44Z</time>
      </trkpt>
      <trkpt lat="49.89391" lon="2.24484">
        <ele>55.1</ele>
        <time>2023-06-23T13:28:45Z</time>
      </trkpt>
      <trkpt lat="49.89392" lon="2.24485">
        <ele>55.1</ele>
        <time>2023-06-23T13:28:46Z</time>
      </trkpt>
      <trkpt lat="49.89393" lon="2.24488">
        <ele>55.1</ele>
        <time>2023-06-23T13:28:47Z</time>
      </trkpt>
      <trkpt lat="49.89394" lon="2.24489">
        <ele>55.1</ele>
        <time>2023-06-23T13:28:49Z</time>
      </trkpt>
      <trkpt lat="49.89395" lon="2.2449">
        <ele>55.1</ele>
        <time>2023-06-23T13:28:50Z</time>
      </trkpt>
      <trkpt lat="49.89396" lon="2.24491">
        <ele>55.1</ele>
        <time>2023-06-23T13:28:51Z</time>
      </trkpt>
      <trkpt lat="49.89397" lon="2.24492">
        <ele>55.1</ele>
        <time>2023-06-23T13:28:52Z</time>
      </trkpt>
      <trkpt lat="49.89398" lon="2.24494">
        <ele>55.1</ele>
        <time>2023-06-23T13:28:53Z</time>
      </trkpt>
      <trkpt lat="49.89399" lon="2.24496">
        <ele>55.1</ele>
        <time>2023-06-23T13:28:55Z</time>
      </trkpt>
      <trkpt lat="49.89399" lon="2.24498">
        <ele>55.1</ele>
        <time>2023-06-23T13:28:56Z</time>
      </trkpt>
      <trkpt lat="49.894" lon="2.245">
        <ele>55.1</ele>
        <time>2023-06-23T13:28:57Z</time>
      </trkpt>
      <trkpt lat="49.89401" lon="2.24501">
        <ele>55.1</ele>
        <time>2023-06-23T13:28:58Z</time>
      </trkpt>
      <trkpt lat="49.89402" lon="2.24503">
        <ele>55.1</ele>
        <time>2023-06-23T13:28:59Z</time>
      </trkpt>
      <trkpt lat="49.89403" lon="2.24505">
        <ele>55.1</ele>
        <time>2023-06-23T13:29:00Z</time>
      </trkpt>
      <trkpt lat="49.89404" lon="2.24506">
        <ele>55.1</ele>
        <time>2023-06-23T13:29:01Z</time>
      </trkpt>
      <trkpt lat="49.89405" lon="2.24509">
        <ele>55.1</ele>
        <time>2023-06-23T13:29:02Z</time>
      </trkpt>
      <trkpt lat="49.89405" lon="2.2451">
        <ele>55.1</ele>
        <time>2023-06-23T13:29:03Z</time>
      </trkpt>
      <trkpt lat="49.89406" lon="2.24511">
        <ele>55.1</ele>
        <time>2023-06-23T13:29:04Z</time>
      </trkpt>
      <trkpt lat="49.89406" lon="2.24513">
        <ele>55.1</ele>
        <time>2023-06-23T13:29:05Z</time>
      </trkpt>
      <trkpt lat="49.89407" lon="2.24515">
        <ele>55.1</ele>
        <time>2023-06-23T13:29:06Z</time>
      </trkpt>
      <trkpt lat="49.89408" lon="2.24516">
        <ele>55.1</ele>
        <time>2023-06-23T13:29:08Z</time>
      </trkpt>
      <trkpt lat="49.89409" lon="2.24518">
        <ele>55.1</ele>
        <time>2023-06-23T13:29:09Z</time>
      </trkpt>
      <trkpt lat="49.8941" lon="2.2452">
        <ele>55.1</ele>
        <time>2023-06-23T13:29:10Z</time>
      </trkpt>
      <trkpt lat="49.89411" lon="2.24521">
        <ele>55.1</ele>
        <time>2023-06-23T13:29:11Z</time>
      </trkpt>
      <trkpt lat="49.89411" lon="2.24523">
        <ele>55.1</ele>
        <time>2023-06-23T13:29:12Z</time>
      </trkpt>
      <trkpt lat="49.89412" lon="2.24525">
        <ele>55.1</ele>
        <time>2023-06-23T13:29:13Z</time>
      </trkpt>
      <trkpt lat="49.89412" lon="2.24527">
        <ele>55.1</ele>
        <time>2023-06-23T13:29:14Z</time>
      </trkpt>
      <trkpt lat="49.89413" lon="2.24529">
        <ele>55.1</ele>
        <time>2023-06-23T13:29:15Z</time>
      </trkpt>
      <trkpt lat="49.89414" lon="2.2453">
        <ele>55.1</ele>
        <time>2023-06-23T13:29:16Z</time>
      </trkpt>
      <trkpt lat="49.89415" lon="2.24532">
        <ele>55.1</ele>
        <time>2023-06-23T13:29:17Z</time>
      </trkpt>
      <trkpt lat="49.89415" lon="2.24533">
        <ele>55.1</ele>
        <time>2023-06-23T13:29:18Z</time>
      </trkpt>
      <trkpt lat="49.89415" lon="2.24535">
        <ele>55.1</ele>
        <time>2023-06-23T13:29:19Z</time>
      </trkpt>
      <trkpt lat="49.89416" lon="2.24536">
        <ele>55.1</ele>
        <time>2023-06-23T13:29:20Z</time>
      </trkpt>
      <trkpt lat="49.89416" lon="2.24538">
        <ele>55.1</ele>
        <time>2023-06-23T13:29:22Z</time>
      </trkpt>
      <trkpt lat="49.89416" lon="2.2454">
        <ele>55.1</ele>
        <time>2023-06-23T13:29:23Z</time>
      </trkpt>
      <trkpt lat="49.89417" lon="2.24543">
        <ele>55</ele>
        <time>2023-06-23T13:29:24Z</time>
      </trkpt>
      <trkpt lat="49.89417" lon="2.24544">
        <ele>55</ele>
        <time>2023-06-23T13:29:25Z</time>
      </trkpt>
      <trkpt lat="49.89418" lon="2.24545">
        <ele>55</ele>
        <time>2023-06-23T13:29:26Z</time>
      </trkpt>
      <trkpt lat="49.89418" lon="2.24547">
        <ele>55</ele>
        <time>2023-06-23T13:29:28Z</time>
      </trkpt>
      <trkpt lat="49.89418" lon="2.24549">
        <ele>55</ele>
        <time>2023-06-23T13:29:29Z</time>
      </trkpt>
      <trkpt lat="49.89419" lon="2.2455">
        <ele>55</ele>
        <time>2023-06-23T13:29:30Z</time>
      </trkpt>
      <trkpt lat="49.89419" lon="2.24552">
        <ele>55</ele>
        <time>2023-06-23T13:29:31Z</time>
      </trkpt>
      <trkpt lat="49.8942" lon="2.24554">
        <ele>55</ele>
        <time>2023-06-23T13:29:32Z</time>
      </trkpt>
      <trkpt lat="49.8942" lon="2.24555">
        <ele>55</ele>
        <time>2023-06-23T13:29:33Z</time>
      </trkpt>
      <trkpt lat="49.89421" lon="2.24556">
        <ele>55</ele>
        <time>2023-06-23T13:29:35Z</time>
      </trkpt>
      <trkpt lat="49.89421" lon="2.24558">
        <ele>55</ele>
        <time>2023-06-23T13:29:36Z</time>
      </trkpt>
      <trkpt lat="49.89422" lon="2.24559">
        <ele>55</ele>
        <time>2023-06-23T13:29:37Z</time>
      </trkpt>
      <trkpt lat="49.89422" lon="2.2456">
        <ele>55</ele>
        <time>2023-06-23T13:29:38Z</time>
      </trkpt>
      <trkpt lat="49.89423" lon="2.24561">
        <ele>55</ele>
        <time>2023-06-23T13:29:39Z</time>
      </trkpt>
      <trkpt lat="49.89423" lon="2.24563">
        <ele>55</ele>
        <time>2023-06-23T13:29:40Z</time>
      </trkpt>
      <trkpt lat="49.89423" lon="2.24566">
        <ele>55</ele>
        <time>2023-06-23T13:29:42Z</time>
      </trkpt>
      <trkpt lat="49.89423" lon="2.24568">
        <ele>55</ele>
        <time>2023-06-23T13:29:43Z</time>
      </trkpt>
      <trkpt lat="49.89423" lon="2.24569">
        <ele>55</ele>
        <time>2023-06-23T13:29:44Z</time>
      </trkpt>
      <trkpt lat="49.89423" lon="2.24571">
        <ele>55</ele>
        <time>2023-06-23T13:29:45Z</time>
      </trkpt>
      <trkpt lat="49.89423" lon="2.24573">
        <ele>55</ele>
        <time>2023-06-23T13:29:46Z</time>
      </trkpt>
      <trkpt lat="49.89423" lon="2.24575">
        <ele>55</ele>
        <time>2023-06-23T13:29:47Z</time>
      </trkpt>
      <trkpt lat="49.89424" lon="2.24578">
        <ele>55</ele>
        <time>2023-06-23T13:29:48Z</time>
      </trkpt>
      <trkpt lat="49.89424" lon="2.24579">
        <ele>55</ele>
        <time>2023-06-23T13:29:50Z</time>
      </trkpt>
      <trkpt lat="49.89425" lon="2.2458">
        <ele>55</ele>
        <time>2023-06-23T13:29:51Z</time>
      </trkpt>
      <trkpt lat="49.89425" lon="2.24582">
        <ele>55</ele>
        <time>2023-06-23T13:29:52Z</time>
      </trkpt>
      <trkpt lat="49.89426" lon="2.24584">
        <ele>55</ele>
        <time>2023-06-23T13:29:53Z</time>
      </trkpt>
      <trkpt lat="49.89427" lon="2.24587">
        <ele>55</ele>
        <time>2023-06-23T13:29:54Z</time>
      </trkpt>
      <trkpt lat="49.89427" lon="2.24588">
        <ele>55</ele>
        <time>2023-06-23T13:29:55Z</time>
      </trkpt>
      <trkpt lat="49.89427" lon="2.24589">
        <ele>55</ele>
        <time>2023-06-23T13:29:56Z</time>
      </trkpt>
      <trkpt lat="49.89428" lon="2.24592">
        <ele>55</ele>
        <time>2023-06-23T13:29:57Z</time>
      </trkpt>
      <trkpt lat="49.89428" lon="2.24594">
        <ele>55</ele>
        <time>2023-06-23T13:29:59Z</time>
      </trkpt>
      <trkpt lat="49.89428" lon="2.24595">
        <ele>55</ele>
        <time>2023-06-23T13:30:00Z</time>
      </trkpt>
      <trkpt lat="49.89428" lon="2.24596">
        <ele>55</ele>
        <time>2023-06-23T13:30:01Z</time>
      </trkpt>
      <trkpt lat="49.89428" lon="2.24599">
        <ele>55</ele>
        <time>2023-06-23T13:30:02Z</time>
      </trkpt>
      <trkpt lat="49.89428" lon="2.246">
        <ele>55</ele>
        <time>2023-06-23T13:30:03Z</time>
      </trkpt>
      <trkpt lat="49.89428" lon="2.24602">
        <ele>55</ele>
        <time>2023-06-23T13:30:05Z</time>
      </trkpt>
      <trkpt lat="49.89428" lon="2.24603">
        <ele>55</ele>
        <time>2023-06-23T13:30:06Z</time>
      </trkpt>
      <trkpt lat="49.89428" lon="2.24605">
        <ele>55</ele>
        <time>2023-06-23T13:30:07Z</time>
      </trkpt>
      <trkpt lat="49.89428" lon="2.24606">
        <ele>55</ele>
        <time>2023-06-23T13:30:08Z</time>
      </trkpt>
      <trkpt lat="49.89428" lon="2.24608">
        <ele>55</ele>
        <time>2023-06-23T13:30:09Z</time>
      </trkpt>
      <trkpt lat="49.89428" lon="2.2461">
        <ele>55</ele>
        <time>2023-06-23T13:30:10Z</time>
      </trkpt>
      <trkpt lat="49.89427" lon="2.24612">
        <ele>55</ele>
        <time>2023-06-23T13:30:11Z</time>
      </trkpt>
      <trkpt lat="49.89427" lon="2.24614">
        <ele>55</ele>
        <time>2023-06-23T13:30:12Z</time>
      </trkpt>
      <trkpt lat="49.89426" lon="2.24616">
        <ele>55</ele>
        <time>2023-06-23T13:30:14Z</time>
      </trkpt>
      <trkpt lat="49.89426" lon="2.24618">
        <ele>55</ele>
        <time>2023-06-23T13:30:15Z</time>
      </trkpt>
      <trkpt lat="49.89426" lon="2.24619">
        <ele>54.9</ele>
        <time>2023-06-23T13:30:16Z</time>
      </trkpt>
      <trkpt lat="49.89426" lon="2.24623">
        <ele>54.9</ele>
        <time>2023-06-23T13:30:17Z</time>
      </trkpt>
      <trkpt lat="49.89426" lon="2.24624">
        <ele>54.9</ele>
        <time>2023-06-23T13:30:18Z</time>
      </trkpt>
      <trkpt lat="49.89426" lon="2.24625">
        <ele>54.9</ele>
        <time>2023-06-23T13:30:19Z</time>
      </trkpt>
      <trkpt lat="49.89426" lon="2.24627">
        <ele>54.9</ele>
        <time>2023-06-23T13:30:20Z</time>
      </trkpt>
      <trkpt lat="49.89427" lon="2.24629">
        <ele>54.9</ele>
        <time>2023-06-23T13:30:21Z</time>
      </trkpt>
      <trkpt lat="49.89427" lon="2.24632">
        <ele>54.9</ele>
        <time>2023-06-23T13:30:23Z</time>
      </trkpt>
      <trkpt lat="49.89428" lon="2.24633">
        <ele>54.9</ele>
        <time>2023-06-23T13:30:24Z</time>
      </trkpt>
      <trkpt lat="49.89428" lon="2.24635">
        <ele>54.9</ele>
        <time>2023-06-23T13:30:25Z</time>
      </trkpt>
      <trkpt lat="49.89428" lon="2.24637">
        <ele>54.9</ele>
        <time>2023-06-23T13:30:26Z</time>
      </trkpt>
      <trkpt lat="49.89429" lon="2.24639">
        <ele>54.9</ele>
        <time>2023-06-23T13:30:27Z</time>
      </trkpt>
      <trkpt lat="49.8943" lon="2.24642">
        <ele>54.9</ele>
        <time>2023-06-23T13:30:29Z</time>
      </trkpt>
      <trkpt lat="49.8943" lon="2.24643">
        <ele>54.9</ele>
        <time>2023-06-23T13:30:30Z</time>
      </trkpt>
      <trkpt lat="49.8943" lon="2.24644">
        <ele>54.8</ele>
        <time>2023-06-23T13:30:31Z</time>
      </trkpt>
      <trkpt lat="49.89431" lon="2.24645">
        <ele>54.8</ele>
        <time>2023-06-23T13:30:32Z</time>
      </trkpt>
      <trkpt lat="49.89431" lon="2.24647">
        <ele>54.8</ele>
        <time>2023-06-23T13:30:33Z</time>
      </trkpt>
      <trkpt lat="49.89432" lon="2.24649">
        <ele>54.8</ele>
        <time>2023-06-23T13:30:34Z</time>
      </trkpt>
      <trkpt lat="49.89432" lon="2.2465">
        <ele>54.8</ele>
        <time>2023-06-23T13:30:35Z</time>
      </trkpt>
      <trkpt lat="49.89433" lon="2.24652">
        <ele>54.8</ele>
        <time>2023-06-23T13:30:37Z</time>
      </trkpt>
      <trkpt lat="49.89434" lon="2.24653">
        <ele>54.8</ele>
        <time>2023-06-23T13:30:38Z</time>
      </trkpt>
      <trkpt lat="49.89435" lon="2.24655">
        <ele>54.8</ele>
        <time>2023-06-23T13:30:39Z</time>
      </trkpt>
      <trkpt lat="49.89435" lon="2.24657">
        <ele>54.8</ele>
        <time>2023-06-23T13:30:40Z</time>
      </trkpt>
      <trkpt lat="49.89435" lon="2.24658">
        <ele>54.8</ele>
        <time>2023-06-23T13:30:42Z</time>
      </trkpt>
      <trkpt lat="49.89435" lon="2.24659">
        <ele>54.8</ele>
        <time>2023-06-23T13:30:43Z</time>
      </trkpt>
      <trkpt lat="49.89435" lon="2.24661">
        <ele>54.7</ele>
        <time>2023-06-23T13:30:44Z</time>
      </trkpt>
      <trkpt lat="49.89435" lon="2.24662">
        <ele>54.7</ele>
        <time>2023-06-23T13:30:45Z</time>
      </trkpt>
      <trkpt lat="49.89435" lon="2.24664">
        <ele>54.7</ele>
        <time>2023-06-23T13:30:46Z</time>
      </trkpt>
      <trkpt lat="49.89435" lon="2.24666">
        <ele>54.7</ele>
        <time>2023-06-23T13:30:47Z</time>
      </trkpt>
      <trkpt lat="49.89435" lon="2.24668">
        <ele>54.7</ele>
        <time>2023-06-23T13:30:48Z</time>
      </trkpt>
      <trkpt lat="49.89436" lon="2.2467">
        <ele>54.7</ele>
        <time>2023-06-23T13:30:49Z</time>
      </trkpt>
      <trkpt lat="49.89436" lon="2.24671">
        <ele>54.7</ele>
        <time>2023-06-23T13:30:50Z</time>
      </trkpt>
      <trkpt lat="49.89437" lon="2.24672">
        <ele>54.7</ele>
        <time>2023-06-23T13:30:51Z</time>
      </trkpt>
      <trkpt lat="49.89438" lon="2.24675">
        <ele>54.6</ele>
        <time>2023-06-23T13:30:53Z</time>
      </trkpt>
      <trkpt lat="49.89438" lon="2.24676">
        <ele>54.6</ele>
        <time>2023-06-23T13:30:54Z</time>
      </trkpt>
      <trkpt lat="49.89439" lon="2.24677">
        <ele>54.6</ele>
        <time>2023-06-23T13:30:55Z</time>
      </trkpt>
      <trkpt lat="49.89439" lon="2.24679">
        <ele>54.6</ele>
        <time>2023-06-23T13:30:56Z</time>
      </trkpt>
      <trkpt lat="49.8944" lon="2.2468">
        <ele>54.6</ele>
        <time>2023-06-23T13:30:57Z</time>
      </trkpt>
      <trkpt lat="49.89441" lon="2.2468">
        <ele>54.6</ele>
        <time>2023-06-23T13:30:58Z</time>
      </trkpt>
      <trkpt lat="49.89442" lon="2.24681">
        <ele>54.6</ele>
        <time>2023-06-23T13:30:59Z</time>
      </trkpt>
      <trkpt lat="49.89443" lon="2.24683">
        <ele>54.5</ele>
        <time>2023-06-23T13:31:00Z</time>
      </trkpt>
      <trkpt lat="49.89443" lon="2.24685">
        <ele>54.5</ele>
        <time>2023-06-23T13:31:02Z</time>
      </trkpt>
      <trkpt lat="49.89445" lon="2.24687">
        <ele>54.5</ele>
        <time>2023-06-23T13:31:03Z</time>
      </trkpt>
      <trkpt lat="49.89445" lon="2.24688">
        <ele>54.5</ele>
        <time>2023-06-23T13:31:04Z</time>
      </trkpt>
      <trkpt lat="49.89446" lon="2.24689">
        <ele>54.5</ele>
        <time>2023-06-23T13:31:05Z</time>
      </trkpt>
      <trkpt lat="49.89447" lon="2.24689">
        <ele>54.5</ele>
        <time>2023-06-23T13:31:06Z</time>
      </trkpt>
      <trkpt lat="49.89448" lon="2.24689">
        <ele>54.5</ele>
        <time>2023-06-23T13:31:07Z</time>
      </trkpt>
      <trkpt lat="49.89449" lon="2.2469">
        <ele>54.5</ele>
        <time>2023-06-23T13:31:08Z</time>
      </trkpt>
      <trkpt lat="49.8945" lon="2.24691">
        <ele>54.5</ele>
        <time>2023-06-23T13:31:10Z</time>
      </trkpt>
      <trkpt lat="49.89451" lon="2.24692">
        <ele>54.6</ele>
        <time>2023-06-23T13:31:11Z</time>
      </trkpt>
      <trkpt lat="49.89452" lon="2.24692">
        <ele>54.6</ele>
        <time>2023-06-23T13:31:12Z</time>
      </trkpt>
      <trkpt lat="49.89453" lon="2.24693">
        <ele>54.6</ele>
        <time>2023-06-23T13:31:13Z</time>
      </trkpt>
      <trkpt lat="49.89454" lon="2.24693">
        <ele>54.6</ele>
        <time>2023-06-23T13:31:14Z</time>
      </trkpt>
      <trkpt lat="49.89455" lon="2.24694">
        <ele>54.6</ele>
        <time>2023-06-23T13:31:16Z</time>
      </trkpt>
      <trkpt lat="49.89456" lon="2.24695">
        <ele>54.6</ele>
        <time>2023-06-23T13:31:17Z</time>
      </trkpt>
      <trkpt lat="49.89456" lon="2.24695">
        <ele>54.6</ele>
        <time>2023-06-23T13:31:18Z</time>
      </trkpt>
      <trkpt lat="49.89456" lon="2.24697">
        <ele>54.6</ele>
        <time>2023-06-23T13:31:19Z</time>
      </trkpt>
      <trkpt lat="49.89457" lon="2.24699">
        <ele>54.6</ele>
        <time>2023-06-23T13:31:21Z</time>
      </trkpt>
      <trkpt lat="49.89458" lon="2.24701">
        <ele>54.6</ele>
        <time>2023-06-23T13:31:22Z</time>
      </trkpt>
      <trkpt lat="49.89457" lon="2.24701">
        <ele>54.6</ele>
        <time>2023-06-23T13:31:24Z</time>
      </trkpt>
      <trkpt lat="49.89457" lon="2.247">
        <ele>54.6</ele>
        <time>2023-06-23T13:31:25Z</time>
      </trkpt>
      <trkpt lat="49.89457" lon="2.247">
        <ele>54.6</ele>
        <time>2023-06-23T13:31:27Z</time>
      </trkpt>
      <trkpt lat="49.89457" lon="2.247">
        <ele>54.6</ele>
        <time>2023-06-23T13:31:28Z</time>
      </trkpt>
      <trkpt lat="49.89457" lon="2.247">
        <ele>54.6</ele>
        <time>2023-06-23T13:31:30Z</time>
      </trkpt>
      <trkpt lat="49.89457" lon="2.247">
        <ele>54.6</ele>
        <time>2023-06-23T13:31:31Z</time>
      </trkpt>
      <trkpt lat="49.89457" lon="2.247">
        <ele>54.6</ele>
        <time>2023-06-23T13:31:32Z</time>
      </trkpt>
      <trkpt lat="49.89457" lon="2.247">
        <ele>54.6</ele>
        <time>2023-06-23T13:31:34Z</time>
      </trkpt>
      <trkpt lat="49.89457" lon="2.247">
        <ele>54.6</ele>
        <time>2023-06-23T13:31:35Z</time>
      </trkpt>
      <trkpt lat="49.89457" lon="2.247">
        <ele>54.6</ele>
        <time>2023-06-23T13:31:37Z</time>
      </trkpt>
      <trkpt lat="49.89457" lon="2.247">
        <ele>54.6</ele>
        <time>2023-06-23T13:31:38Z</time>
      </trkpt>
      <trkpt lat="49.89457" lon="2.247">
        <ele>54.6</ele>
        <time>2023-06-23T13:31:39Z</time>
      </trkpt>
      <trkpt lat="49.89457" lon="2.247">
        <ele>54.6</ele>
        <time>2023-06-23T13:31:40Z</time>
      </trkpt>
      <trkpt lat="49.89457" lon="2.247">
        <ele>54.6</ele>
        <time>2023-06-23T13:31:41Z</time>
      </trkpt>
      <trkpt lat="49.89457" lon="2.247">
        <ele>54.6</ele>
        <time>2023-06-23T13:31:42Z</time>
      </trkpt>
      <trkpt lat="49.89457" lon="2.247">
        <ele>54.6</ele>
        <time>2023-06-23T13:31:43Z</time>
      </trkpt>
      <trkpt lat="49.89457" lon="2.247">
        <ele>54.6</ele>
        <time>2023-06-23T13:31:44Z</time>
      </trkpt>
      <trkpt lat="49.89457" lon="2.247">
        <ele>54.6</ele>
        <time>2023-06-23T13:31:45Z</time>
      </trkpt>
      <trkpt lat="49.89457" lon="2.24699">
        <ele>54.6</ele>
        <time>2023-06-23T13:31:46Z</time>
      </trkpt>
      <trkpt lat="49.89456" lon="2.24699">
        <ele>54.6</ele>
        <time>2023-06-23T13:31:47Z</time>
      </trkpt>
      <trkpt lat="49.89456" lon="2.24699">
        <ele>54.6</ele>
        <time>2023-06-23T13:31:48Z</time>
      </trkpt>
      <trkpt lat="49.89456" lon="2.24699">
        <ele>54.6</ele>
        <time>2023-06-23T13:31:49Z</time>
      </trkpt>
      <trkpt lat="49.89456" lon="2.24699">
        <ele>54.6</ele>
        <time>2023-06-23T13:31:50Z</time>
      </trkpt>
      <trkpt lat="49.89456" lon="2.24699">
        <ele>54.6</ele>
        <time>2023-06-23T13:31:51Z</time>
      </trkpt>
      <trkpt lat="49.89456" lon="2.24699">
        <ele>54.7</ele>
        <time>2023-06-23T13:31:52Z</time>
      </trkpt>
      <trkpt lat="49.89456" lon="2.24699">
        <ele>54.7</ele>
        <time>2023-06-23T13:31:53Z</time>
      </trkpt>
      <trkpt lat="49.89456" lon="2.24699">
        <ele>54.7</ele>
        <time>2023-06-23T13:31:54Z</time>
      </trkpt>
      <trkpt lat="49.89456" lon="2.24699">
        <ele>54.7</ele>
        <time>2023-06-23T13:31:55Z</time>
      </trkpt>
      <trkpt lat="49.89456" lon="2.24699">
        <ele>54.7</ele>
        <time>2023-06-23T13:31:56Z</time>
      </trkpt>
      <trkpt lat="49.89456" lon="2.24699">
        <ele>54.7</ele>
        <time>2023-06-23T13:31:57Z</time>
      </trkpt>
      <trkpt lat="49.89456" lon="2.24699">
        <ele>54.7</ele>
        <time>2023-06-23T13:31:58Z</time>
      </trkpt>
      <trkpt lat="49.89456" lon="2.24699">
        <ele>54.7</ele>
        <time>2023-06-23T13:31:59Z</time>
      </trkpt>
      <trkpt lat="49.89456" lon="2.24699">
        <ele>54.7</ele>
        <time>2023-06-23T13:32:00Z</time>
      </trkpt>
      <trkpt lat="49.89456" lon="2.24699">
        <ele>54.7</ele>
        <time>2023-06-23T13:32:01Z</time>
      </trkpt>
      <trkpt lat="49.89456" lon="2.24699">
        <ele>54.7</ele>
        <time>2023-06-23T13:32:02Z</time>
      </trkpt>
      <trkpt lat="49.89456" lon="2.24699">
        <ele>54.7</ele>
        <time>2023-06-23T13:32:03Z</time>
      </trkpt>
      <trkpt lat="49.89456" lon="2.24698">
        <ele>54.7</ele>
        <time>2023-06-23T13:32:04Z</time>
      </trkpt>
      <trkpt lat="49.89456" lon="2.24698">
        <ele>54.7</ele>
        <time>2023-06-23T13:32:05Z</time>
      </trkpt>
      <trkpt lat="49.89455" lon="2.24698">
        <ele>54.7</ele>
        <time>2023-06-23T13:32:06Z</time>
      </trkpt>
      <trkpt lat="49.89455" lon="2.24698">
        <ele>54.7</ele>
        <time>2023-06-23T13:32:07Z</time>
      </trkpt>
      <trkpt lat="49.89455" lon="2.24698">
        <ele>54.7</ele>
        <time>2023-06-23T13:32:08Z</time>
      </trkpt>
      <trkpt lat="49.89455" lon="2.24698">
        <ele>54.7</ele>
        <time>2023-06-23T13:32:09Z</time>
      </trkpt>
      <trkpt lat="49.89455" lon="2.24698">
        <ele>54.7</ele>
        <time>2023-06-23T13:32:10Z</time>
      </trkpt>
      <trkpt lat="49.89455" lon="2.24698">
        <ele>54.7</ele>
        <time>2023-06-23T13:32:11Z</time>
      </trkpt>
      <trkpt lat="49.89455" lon="2.24698">
        <ele>54.7</ele>
        <time>2023-06-23T13:32:12Z</time>
      </trkpt>
      <trkpt lat="49.89455" lon="2.24698">
        <ele>54.7</ele>
        <time>2023-06-23T13:32:13Z</time>
      </trkpt>
      <trkpt lat="49.89455" lon="2.24698">
        <ele>54.7</ele>
        <time>2023-06-23T13:32:14Z</time>
      </trkpt>
      <trkpt lat="49.89455" lon="2.24698">
        <ele>54.7</ele>
        <time>2023-06-23T13:32:15Z</time>
      </trkpt>
      <trkpt lat="49.89455" lon="2.24698">
        <ele>54.7</ele>
        <time>2023-06-23T13:32:16Z</time>
      </trkpt>
      <trkpt lat="49.89455" lon="2.24698">
        <ele>54.7</ele>
        <time>2023-06-23T13:32:17Z</time>
      </trkpt>
      <trkpt lat="49.89455" lon="2.24698">
        <ele>54.7</ele>
        <time>2023-06-23T13:32:18Z</time>
      </trkpt>
      <trkpt lat="49.89455" lon="2.24698">
        <ele>54.7</ele>
        <time>2023-06-23T13:32:19Z</time>
      </trkpt>
      <trkpt lat="49.89455" lon="2.24698">
        <ele>54.7</ele>
        <time>2023-06-23T13:32:20Z</time>
      </trkpt>
      <trkpt lat="49.89455" lon="2.24698">
        <ele>54.7</ele>
        <time>2023-06-23T13:32:21Z</time>
      </trkpt>
      <trkpt lat="49.89455" lon="2.24697">
        <ele>54.7</ele>
        <time>2023-06-23T13:32:22Z</time>
      </trkpt>
      <trkpt lat="49.89455" lon="2.24697">
        <ele>54.7</ele>
        <time>2023-06-23T13:32:23Z</time>
      </trkpt>
      <trkpt lat="49.89455" lon="2.24697">
        <ele>54.7</ele>
        <time>2023-06-23T13:32:24Z</time>
      </trkpt>
      <trkpt lat="49.89454" lon="2.24697">
        <ele>54.7</ele>
        <time>2023-06-23T13:32:25Z</time>
      </trkpt>
      <trkpt lat="49.89454" lon="2.24697">
        <ele>54.7</ele>
        <time>2023-06-23T13:32:26Z</time>
      </trkpt>
      <trkpt lat="49.89454" lon="2.24697">
        <ele>54.7</ele>
        <time>2023-06-23T13:32:27Z</time>
      </trkpt>
      <trkpt lat="49.89454" lon="2.24697">
        <ele>54.7</ele>
        <time>2023-06-23T13:32:28Z</time>
      </trkpt>
      <trkpt lat="49.89454" lon="2.24697">
        <ele>54.7</ele>
        <time>2023-06-23T13:32:29Z</time>
      </trkpt>
      <trkpt lat="49.89454" lon="2.24697">
        <ele>54.7</ele>
        <time>2023-06-23T13:32:30Z</time>
      </trkpt>
      <trkpt lat="49.89454" lon="2.24697">
        <ele>54.7</ele>
        <time>2023-06-23T13:32:31Z</time>
      </trkpt>
      <trkpt lat="49.89454" lon="2.24697">
        <ele>54.7</ele>
        <time>2023-06-23T13:32:32Z</time>
      </trkpt>
      <trkpt lat="49.89454" lon="2.24697">
        <ele>54.7</ele>
        <time>2023-06-23T13:32:33Z</time>
      </trkpt>
      <trkpt lat="49.89454" lon="2.24697">
        <ele>54.7</ele>
        <time>2023-06-23T13:32:34Z</time>
      </trkpt>
      <trkpt lat="49.89454" lon="2.24697">
        <ele>54.7</ele>
        <time>2023-06-23T13:32:35Z</time>
      </trkpt>
      <trkpt lat="49.89454" lon="2.24697">
        <ele>54.7</ele>
        <time>2023-06-23T13:32:36Z</time>
      </trkpt>
      <trkpt lat="49.89454" lon="2.24697">
        <ele>54.7</ele>
        <time>2023-06-23T13:32:37Z</time>
      </trkpt>
      <trkpt lat="49.89454" lon="2.24697">
        <ele>54.7</ele>
        <time>2023-06-23T13:32:38Z</time>
      </trkpt>
      <trkpt lat="49.89453" lon="2.24695">
        <ele>54.7</ele>
        <time>2023-06-23T13:32:39Z</time>
      </trkpt>
      <trkpt lat="49.89453" lon="2.24694">
        <ele>54.7</ele>
        <time>2023-06-23T13:32:40Z</time>
      </trkpt>
      <trkpt lat="49.89453" lon="2.24694">
        <ele>54.7</ele>
        <time>2023-06-23T13:32:41Z</time>
      </trkpt>
      <trkpt lat="49.89453" lon="2.24693">
        <ele>54.7</ele>
        <time>2023-06-23T13:32:42Z</time>
      </trkpt>
      <trkpt lat="49.89453" lon="2.24693">
        <ele>54.7</ele>
        <time>2023-06-23T13:32:43Z</time>
      </trkpt>
      <trkpt lat="49.89453" lon="2.24693">
        <ele>54.7</ele>
        <time>2023-06-23T13:32:44Z</time>
      </trkpt>
      <trkpt lat="49.89453" lon="2.24693">
        <ele>54.7</ele>
        <time>2023-06-23T13:32:45Z</time>
      </trkpt>
      <trkpt lat="49.89453" lon="2.24693">
        <ele>54.7</ele>
        <time>2023-06-23T13:32:46Z</time>
      </trkpt>
      <trkpt lat="49.89453" lon="2.24693">
        <ele>54.7</ele>
        <time>2023-06-23T13:32:47Z</time>
      </trkpt>
      <trkpt lat="49.89453" lon="2.24693">
        <ele>54.7</ele>
        <time>2023-06-23T13:32:48Z</time>
      </trkpt>
      <trkpt lat="49.89453" lon="2.24693">
        <ele>54.7</ele>
        <time>2023-06-23T13:32:49Z</time>
      </trkpt>
      <trkpt lat="49.89453" lon="2.24693">
        <ele>54.7</ele>
        <time>2023-06-23T13:32:50Z</time>
      </trkpt>
      <trkpt lat="49.89453" lon="2.24693">
        <ele>54.7</ele>
        <time>2023-06-23T13:32:51Z</time>
      </trkpt>
      <trkpt lat="49.89453" lon="2.24693">
        <ele>54.7</ele>
        <time>2023-06-23T13:32:52Z</time>
      </trkpt>
      <trkpt lat="49.89453" lon="2.24693">
        <ele>54.7</ele>
        <time>2023-06-23T13:32:53Z</time>
      </trkpt>
      <trkpt lat="49.89453" lon="2.24693">
        <ele>54.7</ele>
        <time>2023-06-23T13:32:54Z</time>
      </trkpt>
      <trkpt lat="49.89453" lon="2.24693">
        <ele>54.7</ele>
        <time>2023-06-23T13:32:55Z</time>
      </trkpt>
      <trkpt lat="49.89453" lon="2.24693">
        <ele>54.7</ele>
        <time>2023-06-23T13:32:56Z</time>
      </trkpt>
      <trkpt lat="49.89453" lon="2.24693">
        <ele>54.7</ele>
        <time>2023-06-23T13:32:57Z</time>
      </trkpt>
      <trkpt lat="49.89453" lon="2.24693">
        <ele>54.7</ele>
        <time>2023-06-23T13:32:58Z</time>
      </trkpt>
      <trkpt lat="49.89453" lon="2.24693">
        <ele>54.7</ele>
        <time>2023-06-23T13:32:59Z</time>
      </trkpt>
      <trkpt lat="49.89453" lon="2.24693">
        <ele>54.7</ele>
        <time>2023-06-23T13:33:00Z</time>
      </trkpt>
      <trkpt lat="49.89453" lon="2.24693">
        <ele>54.7</ele>
        <time>2023-06-23T13:33:01Z</time>
      </trkpt>
      <trkpt lat="49.89453" lon="2.24693">
        <ele>54.7</ele>
        <time>2023-06-23T13:33:02Z</time>
      </trkpt>
      <trkpt lat="49.89453" lon="2.24693">
        <ele>54.7</ele>
        <time>2023-06-23T13:33:03Z</time>
      </trkpt>
      <trkpt lat="49.89453" lon="2.24693">
        <ele>54.7</ele>
        <time>2023-06-23T13:33:04Z</time>
      </trkpt>
      <trkpt lat="49.89453" lon="2.24693">
        <ele>54.7</ele>
        <time>2023-06-23T13:33:05Z</time>
      </trkpt>
      <trkpt lat="49.89453" lon="2.24693">
        <ele>54.7</ele>
        <time>2023-06-23T13:33:06Z</time>
      </trkpt>
      <trkpt lat="49.89453" lon="2.24693">
        <ele>54.7</ele>
        <time>2023-06-23T13:33:07Z</time>
      </trkpt>
      <trkpt lat="49.89453" lon="2.24693">
        <ele>54.7</ele>
        <time>2023-06-23T13:33:08Z</time>
      </trkpt>
      <trkpt lat="49.89453" lon="2.24693">
        <ele>54.7</ele>
        <time>2023-06-23T13:33:09Z</time>
      </trkpt>
      <trkpt lat="49.89453" lon="2.24693">
        <ele>54.7</ele>
        <time>2023-06-23T13:33:10Z</time>
      </trkpt>
      <trkpt lat="49.89453" lon="2.24693">
        <ele>54.7</ele>
        <time>2023-06-23T13:33:11Z</time>
      </trkpt>
      <trkpt lat="49.89453" lon="2.24693">
        <ele>54.7</ele>
        <time>2023-06-23T13:33:12Z</time>
      </trkpt>
      <trkpt lat="49.89453" lon="2.24693">
        <ele>54.7</ele>
        <time>2023-06-23T13:33:13Z</time>
      </trkpt>
      <trkpt lat="49.89453" lon="2.24693">
        <ele>54.7</ele>
        <time>2023-06-23T13:33:14Z</time>
      </trkpt>
      <trkpt lat="49.89453" lon="2.24693">
        <ele>54.7</ele>
        <time>2023-06-23T13:33:15Z</time>
      </trkpt>
      <trkpt lat="49.89453" lon="2.24693">
        <ele>54.7</ele>
        <time>2023-06-23T13:33:16Z</time>
      </trkpt>
      <trkpt lat="49.89453" lon="2.24693">
        <ele>54.7</ele>
        <time>2023-06-23T13:33:17Z</time>
      </trkpt>
      <trkpt lat="49.89453" lon="2.24693">
        <ele>54.7</ele>
        <time>2023-06-23T13:33:18Z</time>
      </trkpt>
      <trkpt lat="49.89453" lon="2.24693">
        <ele>54.7</ele>
        <time>2023-06-23T13:33:19Z</time>
      </trkpt>
      <trkpt lat="49.89453" lon="2.24693">
        <ele>54.7</ele>
        <time>2023-06-23T13:33:20Z</time>
      </trkpt>
      <trkpt lat="49.89453" lon="2.24693">
        <ele>54.7</ele>
        <time>2023-06-23T13:33:21Z</time>
      </trkpt>
      <trkpt lat="49.89453" lon="2.24693">
        <ele>54.7</ele>
        <time>2023-06-23T13:33:22Z</time>
      </trkpt>
      <trkpt lat="49.89453" lon="2.24693">
        <ele>54.7</ele>
        <time>2023-06-23T13:33:23Z</time>
      </trkpt>
      <trkpt lat="49.89453" lon="2.24693">
        <ele>54.7</ele>
        <time>2023-06-23T13:33:24Z</time>
      </trkpt>
      <trkpt lat="49.89453" lon="2.24693">
        <ele>54.7</ele>
        <time>2023-06-23T13:33:25Z</time>
      </trkpt>
      <trkpt lat="49.89453" lon="2.24693">
        <ele>54.7</ele>
        <time>2023-06-23T13:33:26Z</time>
      </trkpt>
      <trkpt lat="49.89453" lon="2.24693">
        <ele>54.7</ele>
        <time>2023-06-23T13:33:27Z</time>
      </trkpt>
      <trkpt lat="49.89453" lon="2.24693">
        <ele>54.7</ele>
        <time>2023-06-23T13:33:28Z</time>
      </trkpt>
      <trkpt lat="49.89453" lon="2.24693">
        <ele>54.7</ele>
        <time>2023-06-23T13:33:29Z</time>
      </trkpt>
      <trkpt lat="49.89453" lon="2.24693">
        <ele>54.7</ele>
        <time>2023-06-23T13:33:30Z</time>
      </trkpt>
      <trkpt lat="49.89453" lon="2.24693">
        <ele>54.7</ele>
        <time>2023-06-23T13:33:31Z</time>
      </trkpt>
      <trkpt lat="49.89453" lon="2.24693">
        <ele>54.7</ele>
        <time>2023-06-23T13:33:32Z</time>
      </trkpt>
      <trkpt lat="49.89453" lon="2.24693">
        <ele>54.7</ele>
        <time>2023-06-23T13:33:33Z</time>
      </trkpt>
      <trkpt lat="49.89453" lon="2.24693">
        <ele>54.7</ele>
        <time>2023-06-23T13:33:34Z</time>
      </trkpt>
      <trkpt lat="49.89453" lon="2.24693">
        <ele>54.7</ele>
        <time>2023-06-23T13:33:35Z</time>
      </trkpt>
      <trkpt lat="49.89453" lon="2.24693">
        <ele>54.7</ele>
        <time>2023-06-23T13:33:36Z</time>
      </trkpt>
      <trkpt lat="49.89453" lon="2.24693">
        <ele>54.7</ele>
        <time>2023-06-23T13:33:37Z</time>
      </trkpt>
      <trkpt lat="49.89453" lon="2.24693">
        <ele>54.7</ele>
        <time>2023-06-23T13:33:38Z</time>
      </trkpt>
      <trkpt lat="49.89453" lon="2.24693">
        <ele>54.7</ele>
        <time>2023-06-23T13:33:39Z</time>
      </trkpt>
      <trkpt lat="49.89453" lon="2.24693">
        <ele>54.7</ele>
        <time>2023-06-23T13:33:40Z</time>
      </trkpt>
      <trkpt lat="49.89453" lon="2.24693">
        <ele>54.7</ele>
        <time>2023-06-23T13:33:41Z</time>
      </trkpt>
      <trkpt lat="49.89453" lon="2.24693">
        <ele>54.7</ele>
        <time>2023-06-23T13:33:42Z</time>
      </trkpt>
      <trkpt lat="49.89453" lon="2.24693">
        <ele>54.7</ele>
        <time>2023-06-23T13:33:43Z</time>
      </trkpt>
      <trkpt lat="49.89453" lon="2.24693">
        <ele>54.7</ele>
        <time>2023-06-23T13:33:44Z</time>
      </trkpt>
      <trkpt lat="49.89453" lon="2.24693">
        <ele>54.7</ele>
        <time>2023-06-23T13:33:45Z</time>
      </trkpt>
      <trkpt lat="49.89453" lon="2.24693">
        <ele>54.7</ele>
        <time>2023-06-23T13:33:46Z</time>
      </trkpt>
      <trkpt lat="49.89453" lon="2.24693">
        <ele>54.7</ele>
        <time>2023-06-23T13:33:47Z</time>
      </trkpt>
      <trkpt lat="49.89453" lon="2.24693">
        <ele>54.7</ele>
        <time>2023-06-23T13:33:48Z</time>
      </trkpt>
      <trkpt lat="49.89453" lon="2.24693">
        <ele>54.7</ele>
        <time>2023-06-23T13:33:49Z</time>
      </trkpt>
      <trkpt lat="49.89453" lon="2.24693">
        <ele>54.7</ele>
        <time>2023-06-23T13:33:50Z</time>
      </trkpt>
      <trkpt lat="49.89453" lon="2.24693">
        <ele>54.7</ele>
        <time>2023-06-23T13:33:51Z</time>
      </trkpt>
      <trkpt lat="49.89453" lon="2.24693">
        <ele>54.7</ele>
        <time>2023-06-23T13:33:52Z</time>
      </trkpt>
      <trkpt lat="49.89453" lon="2.24693">
        <ele>54.7</ele>
        <time>2023-06-23T13:33:53Z</time>
      </trkpt>
      <trkpt lat="49.89453" lon="2.24693">
        <ele>54.7</ele>
        <time>2023-06-23T13:33:54Z</time>
      </trkpt>
      <trkpt lat="49.89453" lon="2.24693">
        <ele>54.7</ele>
        <time>2023-06-23T13:33:55Z</time>
      </trkpt>
      <trkpt lat="49.89453" lon="2.24693">
        <ele>54.7</ele>
        <time>2023-06-23T13:33:56Z</time>
      </trkpt>
      <trkpt lat="49.89453" lon="2.24693">
        <ele>54.7</ele>
        <time>2023-06-23T13:33:57Z</time>
      </trkpt>
      <trkpt lat="49.89453" lon="2.24693">
        <ele>54.7</ele>
        <time>2023-06-23T13:33:58Z</time>
      </trkpt>
      <trkpt lat="49.89453" lon="2.24693">
        <ele>54.7</ele>
        <time>2023-06-23T13:33:59Z</time>
      </trkpt>
      <trkpt lat="49.89453" lon="2.24693">
        <ele>54.7</ele>
        <time>2023-06-23T13:34:00Z</time>
      </trkpt>
      <trkpt lat="49.89453" lon="2.24693">
        <ele>54.7</ele>
        <time>2023-06-23T13:34:01Z</time>
      </trkpt>
      <trkpt lat="49.89453" lon="2.24693">
        <ele>54.7</ele>
        <time>2023-06-23T13:34:02Z</time>
      </trkpt>
      <trkpt lat="49.89453" lon="2.24693">
        <ele>54.7</ele>
        <time>2023-06-23T13:34:03Z</time>
      </trkpt>
      <trkpt lat="49.89453" lon="2.24693">
        <ele>54.7</ele>
        <time>2023-06-23T13:34:04Z</time>
      </trkpt>
      <trkpt lat="49.89453" lon="2.24693">
        <ele>54.7</ele>
        <time>2023-06-23T13:34:05Z</time>
      </trkpt>
      <trkpt lat="49.89453" lon="2.24693">
        <ele>54.7</ele>
        <time>2023-06-23T13:34:06Z</time>
      </trkpt>
      <trkpt lat="49.89453" lon="2.24693">
        <ele>54.7</ele>
        <time>2023-06-23T13:34:07Z</time>
      </trkpt>
      <trkpt lat="49.89453" lon="2.24693">
        <ele>54.7</ele>
        <time>2023-06-23T13:34:08Z</time>
      </trkpt>
      <trkpt lat="49.89453" lon="2.24693">
        <ele>54.7</ele>
        <time>2023-06-23T13:34:09Z</time>
      </trkpt>
      <trkpt lat="49.89453" lon="2.24693">
        <ele>54.7</ele>
        <time>2023-06-23T13:34:10Z</time>
      </trkpt>
      <trkpt lat="49.89453" lon="2.24693">
        <ele>54.7</ele>
        <time>2023-06-23T13:34:11Z</time>
      </trkpt>
      <trkpt lat="49.89453" lon="2.24693">
        <ele>54.7</ele>
        <time>2023-06-23T13:34:12Z</time>
      </trkpt>
      <trkpt lat="49.89453" lon="2.24693">
        <ele>54.7</ele>
        <time>2023-06-23T13:34:13Z</time>
      </trkpt>
      <trkpt lat="49.89453" lon="2.24693">
        <ele>54.7</ele>
        <time>2023-06-23T13:34:14Z</time>
      </trkpt>
      <trkpt lat="49.89453" lon="2.24693">
        <ele>54.7</ele>
        <time>2023-06-23T13:34:15Z</time>
      </trkpt>
      <trkpt lat="49.89453" lon="2.24693">
        <ele>54.7</ele>
        <time>2023-06-23T13:34:16Z</time>
      </trkpt>
      <trkpt lat="49.89453" lon="2.24693">
        <ele>54.7</ele>
        <time>2023-06-23T13:34:17Z</time>
      </trkpt>
      <trkpt lat="49.89453" lon="2.24693">
        <ele>54.7</ele>
        <time>2023-06-23T13:34:18Z</time>
      </trkpt>
      <trkpt lat="49.89453" lon="2.24693">
        <ele>54.7</ele>
        <time>2023-06-23T13:34:19Z</time>
      </trkpt>
      <trkpt lat="49.89453" lon="2.24693">
        <ele>54.7</ele>
        <time>2023-06-23T13:34:20Z</time>
      </trkpt>
      <trkpt lat="49.89453" lon="2.24693">
        <ele>54.7</ele>
        <time>2023-06-23T13:34:21Z</time>
      </trkpt>
      <trkpt lat="49.89453" lon="2.24693">
        <ele>54.7</ele>
        <time>2023-06-23T13:34:22Z</time>
      </trkpt>
      <trkpt lat="49.89453" lon="2.24693">
        <ele>54.7</ele>
        <time>2023-06-23T13:34:23Z</time>
      </trkpt>
      <trkpt lat="49.89453" lon="2.24693">
        <ele>54.7</ele>
        <time>2023-06-23T13:34:24Z</time>
      </trkpt>
      <trkpt lat="49.89453" lon="2.24693">
        <ele>54.7</ele>
        <time>2023-06-23T13:34:25Z</time>
      </trkpt>
      <trkpt lat="49.89453" lon="2.24693">
        <ele>54.7</ele>
        <time>2023-06-23T13:34:26Z</time>
      </trkpt>
      <trkpt lat="49.89453" lon="2.24693">
        <ele>54.7</ele>
        <time>2023-06-23T13:34:27Z</time>
      </trkpt>
      <trkpt lat="49.89453" lon="2.24693">
        <ele>54.7</ele>
        <time>2023-06-23T13:34:28Z</time>
      </trkpt>
      <trkpt lat="49.89453" lon="2.24693">
        <ele>54.7</ele>
        <time>2023-06-23T13:34:29Z</time>
      </trkpt>
      <trkpt lat="49.89453" lon="2.24693">
        <ele>54.7</ele>
        <time>2023-06-23T13:34:30Z</time>
      </trkpt>
      <trkpt lat="49.89453" lon="2.24693">
        <ele>54.7</ele>
        <time>2023-06-23T13:34:31Z</time>
      </trkpt>
      <trkpt lat="49.89453" lon="2.24693">
        <ele>54.7</ele>
        <time>2023-06-23T13:34:32Z</time>
      </trkpt>
      <trkpt lat="49.89453" lon="2.24693">
        <ele>54.7</ele>
        <time>2023-06-23T13:34:33Z</time>
      </trkpt>
      <trkpt lat="49.89453" lon="2.24693">
        <ele>54.7</ele>
        <time>2023-06-23T13:34:34Z</time>
      </trkpt>
      <trkpt lat="49.89453" lon="2.24693">
        <ele>54.7</ele>
        <time>2023-06-23T13:34:35Z</time>
      </trkpt>
      <trkpt lat="49.89453" lon="2.24693">
        <ele>54.7</ele>
        <time>2023-06-23T13:34:36Z</time>
      </trkpt>
      <trkpt lat="49.89453" lon="2.24693">
        <ele>54.7</ele>
        <time>2023-06-23T13:34:37Z</time>
      </trkpt>
      <trkpt lat="49.89453" lon="2.24693">
        <ele>54.7</ele>
        <time>2023-06-23T13:34:38Z</time>
      </trkpt>
      <trkpt lat="49.89453" lon="2.24693">
        <ele>54.7</ele>
        <time>2023-06-23T13:34:39Z</time>
      </trkpt>
      <trkpt lat="49.89453" lon="2.24693">
        <ele>54.7</ele>
        <time>2023-06-23T13:34:40Z</time>
      </trkpt>
      <trkpt lat="49.89453" lon="2.24693">
        <ele>54.7</ele>
        <time>2023-06-23T13:34:41Z</time>
      </trkpt>
      <trkpt lat="49.89453" lon="2.24693">
        <ele>54.7</ele>
        <time>2023-06-23T13:34:42Z</time>
      </trkpt>
      <trkpt lat="49.89453" lon="2.24693">
        <ele>54.7</ele>
        <time>2023-06-23T13:34:43Z</time>
      </trkpt>
      <trkpt lat="49.89453" lon="2.24693">
        <ele>54.7</ele>
        <time>2023-06-23T13:34:44Z</time>
      </trkpt>
      <trkpt lat="49.89453" lon="2.24693">
        <ele>54.7</ele>
        <time>2023-06-23T13:34:45Z</time>
      </trkpt>
      <trkpt lat="49.89453" lon="2.24693">
        <ele>54.7</ele>
        <time>2023-06-23T13:34:46Z</time>
      </trkpt>
      <trkpt lat="49.89453" lon="2.24693">
        <ele>54.7</ele>
        <time>2023-06-23T13:34:47Z</time>
      </trkpt>
      <trkpt lat="49.89453" lon="2.24693">
        <ele>54.7</ele>
        <time>2023-06-23T13:34:48Z</time>
      </trkpt>
      <trkpt lat="49.89453" lon="2.24693">
        <ele>54.7</ele>
        <time>2023-06-23T13:34:49Z</time>
      </trkpt>
      <trkpt lat="49.89453" lon="2.24693">
        <ele>54.7</ele>
        <time>2023-06-23T13:34:50Z</time>
      </trkpt>
      <trkpt lat="49.89453" lon="2.24693">
        <ele>54.7</ele>
        <time>2023-06-23T13:34:51Z</time>
      </trkpt>
      <trkpt lat="49.89453" lon="2.24693">
        <ele>54.7</ele>
        <time>2023-06-23T13:34:52Z</time>
      </trkpt>
      <trkpt lat="49.89453" lon="2.24693">
        <ele>54.7</ele>
        <time>2023-06-23T13:34:53Z</time>
      </trkpt>
      <trkpt lat="49.89453" lon="2.24693">
        <ele>54.7</ele>
        <time>2023-06-23T13:34:54Z</time>
      </trkpt>
      <trkpt lat="49.89453" lon="2.24693">
        <ele>54.7</ele>
        <time>2023-06-23T13:34:55Z</time>
      </trkpt>
      <trkpt lat="49.89453" lon="2.24693">
        <ele>54.7</ele>
        <time>2023-06-23T13:34:56Z</time>
      </trkpt>
      <trkpt lat="49.89453" lon="2.24693">
        <ele>54.7</ele>
        <time>2023-06-23T13:34:57Z</time>
      </trkpt>
      <trkpt lat="49.89453" lon="2.24693">
        <ele>54.7</ele>
        <time>2023-06-23T13:34:58Z</time>
      </trkpt>
      <trkpt lat="49.89453" lon="2.24693">
        <ele>54.7</ele>
        <time>2023-06-23T13:34:59Z</time>
      </trkpt>
      <trkpt lat="49.89453" lon="2.24693">
        <ele>54.7</ele>
        <time>2023-06-23T13:35:00Z</time>
      </trkpt>
      <trkpt lat="49.89453" lon="2.24693">
        <ele>54.7</ele>
        <time>2023-06-23T13:35:01Z</time>
      </trkpt>
      <trkpt lat="49.89453" lon="2.24693">
        <ele>54.7</ele>
        <time>2023-06-23T13:35:02Z</time>
      </trkpt>
      <trkpt lat="49.89453" lon="2.24693">
        <ele>54.7</ele>
        <time>2023-06-23T13:35:03Z</time>
      </trkpt>
      <trkpt lat="49.89453" lon="2.24693">
        <ele>54.7</ele>
        <time>2023-06-23T13:35:04Z</time>
      </trkpt>
      <trkpt lat="49.89453" lon="2.24693">
        <ele>54.7</ele>
        <time>2023-06-23T13:35:05Z</time>
      </trkpt>
      <trkpt lat="49.89453" lon="2.24693">
        <ele>54.7</ele>
        <time>2023-06-23T13:35:06Z</time>
      </trkpt>
      <trkpt lat="49.89453" lon="2.24693">
        <ele>54.7</ele>
        <time>2023-06-23T13:35:07Z</time>
      </trkpt>
      <trkpt lat="49.89453" lon="2.24693">
        <ele>54.7</ele>
        <time>2023-06-23T13:35:08Z</time>
      </trkpt>
      <trkpt lat="49.89453" lon="2.24693">
        <ele>54.7</ele>
        <time>2023-06-23T13:35:09Z</time>
      </trkpt>
      <trkpt lat="49.89453" lon="2.24693">
        <ele>54.7</ele>
        <time>2023-06-23T13:35:10Z</time>
      </trkpt>
      <trkpt lat="49.89453" lon="2.24693">
        <ele>54.7</ele>
        <time>2023-06-23T13:35:11Z</time>
      </trkpt>
      <trkpt lat="49.89453" lon="2.24693">
        <ele>54.7</ele>
        <time>2023-06-23T13:35:12Z</time>
      </trkpt>
      <trkpt lat="49.89453" lon="2.24693">
        <ele>54.7</ele>
        <time>2023-06-23T13:35:13Z</time>
      </trkpt>
      <trkpt lat="49.89453" lon="2.24693">
        <ele>54.7</ele>
        <time>2023-06-23T13:35:14Z</time>
      </trkpt>
      <trkpt lat="49.89453" lon="2.24693">
        <ele>54.7</ele>
        <time>2023-06-23T13:35:15Z</time>
      </trkpt>
      <trkpt lat="49.89453" lon="2.24693">
        <ele>54.7</ele>
        <time>2023-06-23T13:35:16Z</time>
      </trkpt>
      <trkpt lat="49.89453" lon="2.24693">
        <ele>54.7</ele>
        <time>2023-06-23T13:35:17Z</time>
      </trkpt>
      <trkpt lat="49.89453" lon="2.24693">
        <ele>54.7</ele>
        <time>2023-06-23T13:35:18Z</time>
      </trkpt>
      <trkpt lat="49.89453" lon="2.24693">
        <ele>54.7</ele>
        <time>2023-06-23T13:35:19Z</time>
      </trkpt>
      <trkpt lat="49.89453" lon="2.24693">
        <ele>54.7</ele>
        <time>2023-06-23T13:35:20Z</time>
      </trkpt>
      <trkpt lat="49.89453" lon="2.24693">
        <ele>54.7</ele>
        <time>2023-06-23T13:35:21Z</time>
      </trkpt>
      <trkpt lat="49.89453" lon="2.24693">
        <ele>54.7</ele>
        <time>2023-06-23T13:35:22Z</time>
      </trkpt>
      <trkpt lat="49.89453" lon="2.24693">
        <ele>54.7</ele>
        <time>2023-06-23T13:35:23Z</time>
      </trkpt>
      <trkpt lat="49.89453" lon="2.24693">
        <ele>54.7</ele>
        <time>2023-06-23T13:35:24Z</time>
      </trkpt>
      <trkpt lat="49.89453" lon="2.24693">
        <ele>54.7</ele>
        <time>2023-06-23T13:35:25Z</time>
      </trkpt>
      <trkpt lat="49.89453" lon="2.24693">
        <ele>54.7</ele>
        <time>2023-06-23T13:35:26Z</time>
      </trkpt>
      <trkpt lat="49.89453" lon="2.24693">
        <ele>54.7</ele>
        <time>2023-06-23T13:35:27Z</time>
      </trkpt>
      <trkpt lat="49.89453" lon="2.24693">
        <ele>54.7</ele>
        <time>2023-06-23T13:35:28Z</time>
      </trkpt>
      <trkpt lat="49.89453" lon="2.24693">
        <ele>54.7</ele>
        <time>2023-06-23T13:35:29Z</time>
      </trkpt>
      <trkpt lat="49.89453" lon="2.24693">
        <ele>54.7</ele>
        <time>2023-06-23T13:35:30Z</time>
      </trkpt>
      <trkpt lat="49.89453" lon="2.24693">
        <ele>54.7</ele>
        <time>2023-06-23T13:35:31Z</time>
      </trkpt>
      <trkpt lat="49.89453" lon="2.24693">
        <ele>54.7</ele>
        <time>2023-06-23T13:35:32Z</time>
      </trkpt>
      <trkpt lat="49.89453" lon="2.24693">
        <ele>54.7</ele>
        <time>2023-06-23T13:35:33Z</time>
      </trkpt>
      <trkpt lat="49.89453" lon="2.24693">
        <ele>54.7</ele>
        <time>2023-06-23T13:35:34Z</time>
      </trkpt>
      <trkpt lat="49.89453" lon="2.24693">
        <ele>54.7</ele>
        <time>2023-06-23T13:35:35Z</time>
      </trkpt>
      <trkpt lat="49.89453" lon="2.24693">
        <ele>54.7</ele>
        <time>2023-06-23T13:35:36Z</time>
      </trkpt>
      <trkpt lat="49.89453" lon="2.24693">
        <ele>54.7</ele>
        <time>2023-06-23T13:35:37Z</time>
      </trkpt>
      <trkpt lat="49.89453" lon="2.24693">
        <ele>54.7</ele>
        <time>2023-06-23T13:35:38Z</time>
      </trkpt>
      <trkpt lat="49.89453" lon="2.24693">
        <ele>54.7</ele>
        <time>2023-06-23T13:35:39Z</time>
      </trkpt>
      <trkpt lat="49.89453" lon="2.24693">
        <ele>54.7</ele>
        <time>2023-06-23T13:35:40Z</time>
      </trkpt>
      <trkpt lat="49.89453" lon="2.24693">
        <ele>54.7</ele>
        <time>2023-06-23T13:35:41Z</time>
      </trkpt>
      <trkpt lat="49.89453" lon="2.24693">
        <ele>54.7</ele>
        <time>2023-06-23T13:35:42Z</time>
      </trkpt>
      <trkpt lat="49.89453" lon="2.24693">
        <ele>54.7</ele>
        <time>2023-06-23T13:35:43Z</time>
      </trkpt>
      <trkpt lat="49.89453" lon="2.24693">
        <ele>54.7</ele>
        <time>2023-06-23T13:35:44Z</time>
      </trkpt>
      <trkpt lat="49.89453" lon="2.24693">
        <ele>54.7</ele>
        <time>2023-06-23T13:35:45Z</time>
      </trkpt>
      <trkpt lat="49.89453" lon="2.24693">
        <ele>54.7</ele>
        <time>2023-06-23T13:35:46Z</time>
      </trkpt>
      <trkpt lat="49.89453" lon="2.24693">
        <ele>54.7</ele>
        <time>2023-06-23T13:35:47Z</time>
      </trkpt>
      <trkpt lat="49.89453" lon="2.24693">
        <ele>54.7</ele>
        <time>2023-06-23T13:35:48Z</time>
      </trkpt>
      <trkpt lat="49.89453" lon="2.24693">
        <ele>54.7</ele>
        <time>2023-06-23T13:35:49Z</time>
      </trkpt>
      <trkpt lat="49.89453" lon="2.24693">
        <ele>54.7</ele>
        <time>2023-06-23T13:35:50Z</time>
      </trkpt>
      <trkpt lat="49.89453" lon="2.24693">
        <ele>54.7</ele>
        <time>2023-06-23T13:35:51Z</time>
      </trkpt>
      <trkpt lat="49.89453" lon="2.24693">
        <ele>54.7</ele>
        <time>2023-06-23T13:35:52Z</time>
      </trkpt>
      <trkpt lat="49.89453" lon="2.24693">
        <ele>54.7</ele>
        <time>2023-06-23T13:35:53Z</time>
      </trkpt>
      <trkpt lat="49.89453" lon="2.24693">
        <ele>54.7</ele>
        <time>2023-06-23T13:35:54Z</time>
      </trkpt>
      <trkpt lat="49.89453" lon="2.24693">
        <ele>54.7</ele>
        <time>2023-06-23T13:35:55Z</time>
      </trkpt>
      <trkpt lat="49.89453" lon="2.24693">
        <ele>54.7</ele>
        <time>2023-06-23T13:35:56Z</time>
      </trkpt>
      <trkpt lat="49.89453" lon="2.24693">
        <ele>54.7</ele>
        <time>2023-06-23T13:35:57Z</time>
      </trkpt>
      <trkpt lat="49.89453" lon="2.24693">
        <ele>54.7</ele>
        <time>2023-06-23T13:35:58Z</time>
      </trkpt>
      <trkpt lat="49.89453" lon="2.24693">
        <ele>54.7</ele>
        <time>2023-06-23T13:35:59Z</time>
      </trkpt>
      <trkpt lat="49.89453" lon="2.24693">
        <ele>54.7</ele>
        <time>2023-06-23T13:36:00Z</time>
      </trkpt>
      <trkpt lat="49.89453" lon="2.24693">
        <ele>54.7</ele>
        <time>2023-06-23T13:36:01Z</time>
      </trkpt>
      <trkpt lat="49.89453" lon="2.24693">
        <ele>54.7</ele>
        <time>2023-06-23T13:36:02Z</time>
      </trkpt>
      <trkpt lat="49.89453" lon="2.24693">
        <ele>54.7</ele>
        <time>2023-06-23T13:36:03Z</time>
      </trkpt>
      <trkpt lat="49.89453" lon="2.24693">
        <ele>54.7</ele>
        <time>2023-06-23T13:36:04Z</time>
      </trkpt>
      <trkpt lat="49.89453" lon="2.24693">
        <ele>54.7</ele>
        <time>2023-06-23T13:36:05Z</time>
      </trkpt>
      <trkpt lat="49.89453" lon="2.24693">
        <ele>54.7</ele>
        <time>2023-06-23T13:36:06Z</time>
      </trkpt>
      <trkpt lat="49.89453" lon="2.24693">
        <ele>54.7</ele>
        <time>2023-06-23T13:36:07Z</time>
      </trkpt>
      <trkpt lat="49.89453" lon="2.24693">
        <ele>54.7</ele>
        <time>2023-06-23T13:36:08Z</time>
      </trkpt>
      <trkpt lat="49.89453" lon="2.24693">
        <ele>54.7</ele>
        <time>2023-06-23T13:36:09Z</time>
      </trkpt>
      <trkpt lat="49.89453" lon="2.24693">
        <ele>54.7</ele>
        <time>2023-06-23T13:36:10Z</time>
      </trkpt>
      <trkpt lat="49.89453" lon="2.24693">
        <ele>54.7</ele>
        <time>2023-06-23T13:36:11Z</time>
      </trkpt>
      <trkpt lat="49.89453" lon="2.24693">
        <ele>54.7</ele>
        <time>2023-06-23T13:36:12Z</time>
      </trkpt>
      <trkpt lat="49.89453" lon="2.24693">
        <ele>54.7</ele>
        <time>2023-06-23T13:36:13Z</time>
      </trkpt>
      <trkpt lat="49.89453" lon="2.24694">
        <ele>54.7</ele>
        <time>2023-06-23T13:36:14Z</time>
      </trkpt>
      <trkpt lat="49.89453" lon="2.24696">
        <ele>54.7</ele>
        <time>2023-06-23T13:36:15Z</time>
      </trkpt>
      <trkpt lat="49.89454" lon="2.24697">
        <ele>54.7</ele>
        <time>2023-06-23T13:36:16Z</time>
      </trkpt>
      <trkpt lat="49.89455" lon="2.24698">
        <ele>54.7</ele>
        <time>2023-06-23T13:36:17Z</time>
      </trkpt>
      <trkpt lat="49.89455" lon="2.24699">
        <ele>54.7</ele>
        <time>2023-06-23T13:36:18Z</time>
      </trkpt>
      <trkpt lat="49.89456" lon="2.24699">
        <ele>54.7</ele>
        <time>2023-06-23T13:36:19Z</time>
      </trkpt>
      <trkpt lat="49.89457" lon="2.24699">
        <ele>54.8</ele>
        <time>2023-06-23T13:36:21Z</time>
      </trkpt>
      <trkpt lat="49.89458" lon="2.247">
        <ele>54.8</ele>
        <time>2023-06-23T13:36:22Z</time>
      </trkpt>
      <trkpt lat="49.89459" lon="2.24701">
        <ele>54.8</ele>
        <time>2023-06-23T13:36:23Z</time>
      </trkpt>
      <trkpt lat="49.8946" lon="2.24702">
        <ele>54.8</ele>
        <time>2023-06-23T13:36:24Z</time>
      </trkpt>
      <trkpt lat="49.89462" lon="2.24703">
        <ele>54.8</ele>
        <time>2023-06-23T13:36:25Z</time>
      </trkpt>
      <trkpt lat="49.89463" lon="2.24704">
        <ele>54.8</ele>
        <time>2023-06-23T13:36:27Z</time>
      </trkpt>
      <trkpt lat="49.89464" lon="2.24705">
        <ele>54.8</ele>
        <time>2023-06-23T13:36:28Z</time>
      </trkpt>
      <trkpt lat="49.89466" lon="2.24705">
        <ele>54.8</ele>
        <time>2023-06-23T13:36:29Z</time>
      </trkpt>
      <trkpt lat="49.89467" lon="2.24705">
        <ele>54.8</ele>
        <time>2023-06-23T13:36:30Z</time>
      </trkpt>
      <trkpt lat="49.89468" lon="2.24705">
        <ele>54.8</ele>
        <time>2023-06-23T13:36:31Z</time>
      </trkpt>
      <trkpt lat="49.8947" lon="2.24706">
        <ele>54.9</ele>
        <time>2023-06-23T13:36:33Z</time>
      </trkpt>
      <trkpt lat="49.89471" lon="2.24706">
        <ele>54.9</ele>
        <time>2023-06-23T13:36:34Z</time>
      </trkpt>
      <trkpt lat="49.89471" lon="2.24706">
        <ele>54.9</ele>
        <time>2023-06-23T13:36:35Z</time>
      </trkpt>
      <trkpt lat="49.89473" lon="2.24706">
        <ele>54.9</ele>
        <time>2023-06-23T13:36:36Z</time>
      </trkpt>
      <trkpt lat="49.89474" lon="2.24706">
        <ele>54.9</ele>
        <time>2023-06-23T13:36:37Z</time>
      </trkpt>
      <trkpt lat="49.89474" lon="2.24706">
        <ele>54.9</ele>
        <time>2023-06-23T13:36:38Z</time>
      </trkpt>
      <trkpt lat="49.89475" lon="2.24706">
        <ele>54.9</ele>
        <time>2023-06-23T13:36:40Z</time>
      </trkpt>
      <trkpt lat="49.89477" lon="2.24706">
        <ele>54.9</ele>
        <time>2023-06-23T13:36:41Z</time>
      </trkpt>
      <trkpt lat="49.89478" lon="2.24706">
        <ele>54.9</ele>
        <time>2023-06-23T13:36:42Z</time>
      </trkpt>
      <trkpt lat="49.89479" lon="2.24706">
        <ele>54.9</ele>
        <time>2023-06-23T13:36:43Z</time>
      </trkpt>
      <trkpt lat="49.8948" lon="2.24705">
        <ele>54.9</ele>
        <time>2023-06-23T13:36:44Z</time>
      </trkpt>
      <trkpt lat="49.89481" lon="2.24705">
        <ele>54.9</ele>
        <time>2023-06-23T13:36:45Z</time>
      </trkpt>
      <trkpt lat="49.89482" lon="2.24705">
        <ele>54.9</ele>
        <time>2023-06-23T13:36:46Z</time>
      </trkpt>
      <trkpt lat="49.89483" lon="2.24705">
        <ele>54.9</ele>
        <time>2023-06-23T13:36:48Z</time>
      </trkpt>
      <trkpt lat="49.89484" lon="2.24705">
        <ele>54.9</ele>
        <time>2023-06-23T13:36:49Z</time>
      </trkpt>
      <trkpt lat="49.89486" lon="2.24705">
        <ele>55</ele>
        <time>2023-06-23T13:36:50Z</time>
      </trkpt>
      <trkpt lat="49.89487" lon="2.24705">
        <ele>55</ele>
        <time>2023-06-23T13:36:51Z</time>
      </trkpt>
      <trkpt lat="49.89488" lon="2.24705">
        <ele>55</ele>
        <time>2023-06-23T13:36:52Z</time>
      </trkpt>
      <trkpt lat="49.89489" lon="2.24705">
        <ele>55</ele>
        <time>2023-06-23T13:36:53Z</time>
      </trkpt>
      <trkpt lat="49.8949" lon="2.24705">
        <ele>55</ele>
        <time>2023-06-23T13:36:54Z</time>
      </trkpt>
      <trkpt lat="49.89491" lon="2.24705">
        <ele>55</ele>
        <time>2023-06-23T13:36:55Z</time>
      </trkpt>
      <trkpt lat="49.89493" lon="2.24706">
        <ele>55</ele>
        <time>2023-06-23T13:36:57Z</time>
      </trkpt>
      <trkpt lat="49.89494" lon="2.24706">
        <ele>55</ele>
        <time>2023-06-23T13:36:58Z</time>
      </trkpt>
      <trkpt lat="49.89495" lon="2.24706">
        <ele>55</ele>
        <time>2023-06-23T13:36:59Z</time>
      </trkpt>
      <trkpt lat="49.89497" lon="2.24706">
        <ele>55</ele>
        <time>2023-06-23T13:37:00Z</time>
      </trkpt>
      <trkpt lat="49.89498" lon="2.24706">
        <ele>55</ele>
        <time>2023-06-23T13:37:01Z</time>
      </trkpt>
      <trkpt lat="49.89499" lon="2.24706">
        <ele>55</ele>
        <time>2023-06-23T13:37:02Z</time>
      </trkpt>
      <trkpt lat="49.89501" lon="2.24707">
        <ele>55.1</ele>
        <time>2023-06-23T13:37:03Z</time>
      </trkpt>
      <trkpt lat="49.89502" lon="2.24707">
        <ele>55.1</ele>
        <time>2023-06-23T13:37:04Z</time>
      </trkpt>
      <trkpt lat="49.89503" lon="2.24707">
        <ele>55.1</ele>
        <time>2023-06-23T13:37:06Z</time>
      </trkpt>
      <trkpt lat="49.89504" lon="2.24707">
        <ele>55.1</ele>
        <time>2023-06-23T13:37:07Z</time>
      </trkpt>
      <trkpt lat="49.89505" lon="2.24707">
        <ele>55.1</ele>
        <time>2023-06-23T13:37:08Z</time>
      </trkpt>
      <trkpt lat="49.89506" lon="2.24707">
        <ele>55.1</ele>
        <time>2023-06-23T13:37:09Z</time>
      </trkpt>
      <trkpt lat="49.89508" lon="2.24707">
        <ele>55.1</ele>
        <time>2023-06-23T13:37:10Z</time>
      </trkpt>
      <trkpt lat="49.89508" lon="2.24706">
        <ele>55.1</ele>
        <time>2023-06-23T13:37:11Z</time>
      </trkpt>
      <trkpt lat="49.8951" lon="2.24706">
        <ele>55.1</ele>
        <time>2023-06-23T13:37:12Z</time>
      </trkpt>
      <trkpt lat="49.89511" lon="2.24705">
        <ele>55.1</ele>
        <time>2023-06-23T13:37:13Z</time>
      </trkpt>
      <trkpt lat="49.89512" lon="2.24705">
        <ele>55.1</ele>
        <time>2023-06-23T13:37:14Z</time>
      </trkpt>
      <trkpt lat="49.89514" lon="2.24705">
        <ele>55.2</ele>
        <time>2023-06-23T13:37:16Z</time>
      </trkpt>
      <trkpt lat="49.89516" lon="2.24704">
        <ele>55.2</ele>
        <time>2023-06-23T13:37:17Z</time>
      </trkpt>
      <trkpt lat="49.89516" lon="2.24704">
        <ele>55.2</ele>
        <time>2023-06-23T13:37:18Z</time>
      </trkpt>
      <trkpt lat="49.89517" lon="2.24704">
        <ele>55.2</ele>
        <time>2023-06-23T13:37:19Z</time>
      </trkpt>
      <trkpt lat="49.89519" lon="2.24704">
        <ele>55.2</ele>
        <time>2023-06-23T13:37:20Z</time>
      </trkpt>
      <trkpt lat="49.89519" lon="2.24704">
        <ele>55.2</ele>
        <time>2023-06-23T13:37:21Z</time>
      </trkpt>
      <trkpt lat="49.8952" lon="2.24703">
        <ele>55.2</ele>
        <time>2023-06-23T13:37:22Z</time>
      </trkpt>
      <trkpt lat="49.89522" lon="2.24703">
        <ele>55.2</ele>
        <time>2023-06-23T13:37:23Z</time>
      </trkpt>
      <trkpt lat="49.89523" lon="2.24703">
        <ele>55.2</ele>
        <time>2023-06-23T13:37:24Z</time>
      </trkpt>
      <trkpt lat="49.89524" lon="2.24702">
        <ele>55.2</ele>
        <time>2023-06-23T13:37:26Z</time>
      </trkpt>
      <trkpt lat="49.89526" lon="2.24702">
        <ele>55.2</ele>
        <time>2023-06-23T13:37:27Z</time>
      </trkpt>
      <trkpt lat="49.89527" lon="2.24701">
        <ele>55.2</ele>
        <time>2023-06-23T13:37:28Z</time>
      </trkpt>
      <trkpt lat="49.89528" lon="2.24701">
        <ele>55.2</ele>
        <time>2023-06-23T13:37:29Z</time>
      </trkpt>
      <trkpt lat="49.8953" lon="2.247">
        <ele>55.2</ele>
        <time>2023-06-23T13:37:30Z</time>
      </trkpt>
      <trkpt lat="49.89531" lon="2.247">
        <ele>55.2</ele>
        <time>2023-06-23T13:37:31Z</time>
      </trkpt>
      <trkpt lat="49.89531" lon="2.247">
        <ele>55.2</ele>
        <time>2023-06-23T13:37:32Z</time>
      </trkpt>
      <trkpt lat="49.89534" lon="2.247">
        <ele>55.2</ele>
        <time>2023-06-23T13:37:33Z</time>
      </trkpt>
      <trkpt lat="49.89534" lon="2.247">
        <ele>55.2</ele>
        <time>2023-06-23T13:37:35Z</time>
      </trkpt>
      <trkpt lat="49.89535" lon="2.24699">
        <ele>55.2</ele>
        <time>2023-06-23T13:37:36Z</time>
      </trkpt>
      <trkpt lat="49.89537" lon="2.24699">
        <ele>55.2</ele>
        <time>2023-06-23T13:37:37Z</time>
      </trkpt>
      <trkpt lat="49.89538" lon="2.24699">
        <ele>55.2</ele>
        <time>2023-06-23T13:37:38Z</time>
      </trkpt>
      <trkpt lat="49.89539" lon="2.24698">
        <ele>55.2</ele>
        <time>2023-06-23T13:37:39Z</time>
      </trkpt>
      <trkpt lat="49.8954" lon="2.24698">
        <ele>55.2</ele>
        <time>2023-06-23T13:37:40Z</time>
      </trkpt>
      <trkpt lat="49.89541" lon="2.24698">
        <ele>55.2</ele>
        <time>2023-06-23T13:37:41Z</time>
      </trkpt>
      <trkpt lat="49.89543" lon="2.24698">
        <ele>55.2</ele>
        <time>2023-06-23T13:37:42Z</time>
      </trkpt>
      <trkpt lat="49.89544" lon="2.24697">
        <ele>55.2</ele>
        <time>2023-06-23T13:37:43Z</time>
      </trkpt>
      <trkpt lat="49.89545" lon="2.24698">
        <ele>55.2</ele>
        <time>2023-06-23T13:37:44Z</time>
      </trkpt>
      <trkpt lat="49.89546" lon="2.24698">
        <ele>55.2</ele>
        <time>2023-06-23T13:37:46Z</time>
      </trkpt>
      <trkpt lat="49.89548" lon="2.24699">
        <ele>55.1</ele>
        <time>2023-06-23T13:37:47Z</time>
      </trkpt>
      <trkpt lat="49.89549" lon="2.24699">
        <ele>55.1</ele>
        <time>2023-06-23T13:37:48Z</time>
      </trkpt>
      <trkpt lat="49.8955" lon="2.247">
        <ele>55.1</ele>
        <time>2023-06-23T13:37:49Z</time>
      </trkpt>
      <trkpt lat="49.89551" lon="2.247">
        <ele>55.1</ele>
        <time>2023-06-23T13:37:50Z</time>
      </trkpt>
      <trkpt lat="49.89552" lon="2.24701">
        <ele>55.1</ele>
        <time>2023-06-23T13:37:51Z</time>
      </trkpt>
      <trkpt lat="49.89553" lon="2.24702">
        <ele>55.1</ele>
        <time>2023-06-23T13:37:52Z</time>
      </trkpt>
      <trkpt lat="49.89554" lon="2.24703">
        <ele>55.1</ele>
        <time>2023-06-23T13:37:53Z</time>
      </trkpt>
      <trkpt lat="49.89555" lon="2.24704">
        <ele>55.1</ele>
        <time>2023-06-23T13:37:54Z</time>
      </trkpt>
      <trkpt lat="49.89556" lon="2.24705">
        <ele>55.1</ele>
        <time>2023-06-23T13:37:56Z</time>
      </trkpt>
      <trkpt lat="49.89557" lon="2.24706">
        <ele>55.1</ele>
        <time>2023-06-23T13:37:57Z</time>
      </trkpt>
      <trkpt lat="49.89558" lon="2.24708">
        <ele>55.1</ele>
        <time>2023-06-23T13:37:58Z</time>
      </trkpt>
      <trkpt lat="49.8956" lon="2.2471">
        <ele>55.1</ele>
        <time>2023-06-23T13:37:59Z</time>
      </trkpt>
      <trkpt lat="49.89561" lon="2.2471">
        <ele>55.1</ele>
        <time>2023-06-23T13:38:00Z</time>
      </trkpt>
      <trkpt lat="49.89562" lon="2.24711">
        <ele>55.1</ele>
        <time>2023-06-23T13:38:01Z</time>
      </trkpt>
      <trkpt lat="49.89562" lon="2.24712">
        <ele>55.1</ele>
        <time>2023-06-23T13:38:02Z</time>
      </trkpt>
      <trkpt lat="49.89564" lon="2.24713">
        <ele>55</ele>
        <time>2023-06-23T13:38:03Z</time>
      </trkpt>
      <trkpt lat="49.89565" lon="2.24714">
        <ele>55</ele>
        <time>2023-06-23T13:38:04Z</time>
      </trkpt>
      <trkpt lat="49.89566" lon="2.24715">
        <ele>55</ele>
        <time>2023-06-23T13:38:06Z</time>
      </trkpt>
      <trkpt lat="49.89567" lon="2.24716">
        <ele>55</ele>
        <time>2023-06-23T13:38:07Z</time>
      </trkpt>
      <trkpt lat="49.89568" lon="2.24717">
        <ele>55</ele>
        <time>2023-06-23T13:38:08Z</time>
      </trkpt>
      <trkpt lat="49.89569" lon="2.24718">
        <ele>55</ele>
        <time>2023-06-23T13:38:09Z</time>
      </trkpt>
      <trkpt lat="49.89571" lon="2.24719">
        <ele>55</ele>
        <time>2023-06-23T13:38:11Z</time>
      </trkpt>
      <trkpt lat="49.89572" lon="2.2472">
        <ele>55</ele>
        <time>2023-06-23T13:38:12Z</time>
      </trkpt>
      <trkpt lat="49.89573" lon="2.24721">
        <ele>55</ele>
        <time>2023-06-23T13:38:14Z</time>
      </trkpt>
      <trkpt lat="49.89574" lon="2.24722">
        <ele>55</ele>
        <time>2023-06-23T13:38:15Z</time>
      </trkpt>
      <trkpt lat="49.89575" lon="2.24723">
        <ele>55</ele>
        <time>2023-06-23T13:38:17Z</time>
      </trkpt>
      <trkpt lat="49.89576" lon="2.24725">
        <ele>55</ele>
        <time>2023-06-23T13:38:18Z</time>
      </trkpt>
      <trkpt lat="49.89578" lon="2.24726">
        <ele>55</ele>
        <time>2023-06-23T13:38:19Z</time>
      </trkpt>
      <trkpt lat="49.89579" lon="2.24726">
        <ele>54.9</ele>
        <time>2023-06-23T13:38:20Z</time>
      </trkpt>
      <trkpt lat="49.89579" lon="2.24727">
        <ele>54.9</ele>
        <time>2023-06-23T13:38:22Z</time>
      </trkpt>
      <trkpt lat="49.8958" lon="2.24727">
        <ele>54.9</ele>
        <time>2023-06-23T13:38:23Z</time>
      </trkpt>
      <trkpt lat="49.89581" lon="2.24727">
        <ele>54.9</ele>
        <time>2023-06-23T13:38:24Z</time>
      </trkpt>
      <trkpt lat="49.89582" lon="2.24727">
        <ele>54.9</ele>
        <time>2023-06-23T13:38:25Z</time>
      </trkpt>
      <trkpt lat="49.89583" lon="2.24727">
        <ele>54.9</ele>
        <time>2023-06-23T13:38:26Z</time>
      </trkpt>
      <trkpt lat="49.89584" lon="2.24727">
        <ele>54.9</ele>
        <time>2023-06-23T13:38:27Z</time>
      </trkpt>
      <trkpt lat="49.89584" lon="2.24726">
        <ele>54.9</ele>
        <time>2023-06-23T13:38:28Z</time>
      </trkpt>
      <trkpt lat="49.89585" lon="2.24726">
        <ele>54.9</ele>
        <time>2023-06-23T13:38:29Z</time>
      </trkpt>
      <trkpt lat="49.89586" lon="2.24726">
        <ele>54.9</ele>
        <time>2023-06-23T13:38:30Z</time>
      </trkpt>
      <trkpt lat="49.89587" lon="2.24727">
        <ele>54.9</ele>
        <time>2023-06-23T13:38:32Z</time>
      </trkpt>
      <trkpt lat="49.89587" lon="2.24727">
        <ele>54.9</ele>
        <time>2023-06-23T13:38:33Z</time>
      </trkpt>
      <trkpt lat="49.89588" lon="2.24727">
        <ele>54.9</ele>
        <time>2023-06-23T13:38:34Z</time>
      </trkpt>
      <trkpt lat="49.89589" lon="2.24728">
        <ele>54.9</ele>
        <time>2023-06-23T13:38:35Z</time>
      </trkpt>
      <trkpt lat="49.8959" lon="2.24729">
        <ele>54.9</ele>
        <time>2023-06-23T13:38:36Z</time>
      </trkpt>
      <trkpt lat="49.89591" lon="2.2473">
        <ele>54.9</ele>
        <time>2023-06-23T13:38:37Z</time>
      </trkpt>
      <trkpt lat="49.89592" lon="2.24732">
        <ele>54.9</ele>
        <time>2023-06-23T13:38:39Z</time>
      </trkpt>
      <trkpt lat="49.89593" lon="2.24733">
        <ele>54.8</ele>
        <time>2023-06-23T13:38:40Z</time>
      </trkpt>
      <trkpt lat="49.89595" lon="2.24735">
        <ele>54.8</ele>
        <time>2023-06-23T13:38:41Z</time>
      </trkpt>
      <trkpt lat="49.89596" lon="2.24736">
        <ele>54.8</ele>
        <time>2023-06-23T13:38:42Z</time>
      </trkpt>
      <trkpt lat="49.89597" lon="2.24736">
        <ele>54.8</ele>
        <time>2023-06-23T13:38:43Z</time>
      </trkpt>
      <trkpt lat="49.89599" lon="2.24737">
        <ele>54.8</ele>
        <time>2023-06-23T13:38:44Z</time>
      </trkpt>
      <trkpt lat="49.896" lon="2.24738">
        <ele>54.8</ele>
        <time>2023-06-23T13:38:45Z</time>
      </trkpt>
      <trkpt lat="49.896" lon="2.24738">
        <ele>54.8</ele>
        <time>2023-06-23T13:38:46Z</time>
      </trkpt>
      <trkpt lat="49.89602" lon="2.24739">
        <ele>54.8</ele>
        <time>2023-06-23T13:38:48Z</time>
      </trkpt>
      <trkpt lat="49.89603" lon="2.2474">
        <ele>54.7</ele>
        <time>2023-06-23T13:38:49Z</time>
      </trkpt>
      <trkpt lat="49.89604" lon="2.24741">
        <ele>54.7</ele>
        <time>2023-06-23T13:38:50Z</time>
      </trkpt>
      <trkpt lat="49.89605" lon="2.24741">
        <ele>54.7</ele>
        <time>2023-06-23T13:38:51Z</time>
      </trkpt>
      <trkpt lat="49.89606" lon="2.24742">
        <ele>54.7</ele>
        <time>2023-06-23T13:38:52Z</time>
      </trkpt>
      <trkpt lat="49.89607" lon="2.24743">
        <ele>54.7</ele>
        <time>2023-06-23T13:38:53Z</time>
      </trkpt>
      <trkpt lat="49.89608" lon="2.24744">
        <ele>54.7</ele>
        <time>2023-06-23T13:38:54Z</time>
      </trkpt>
      <trkpt lat="49.8961" lon="2.24745">
        <ele>54.7</ele>
        <time>2023-06-23T13:38:56Z</time>
      </trkpt>
      <trkpt lat="49.89611" lon="2.24746">
        <ele>54.7</ele>
        <time>2023-06-23T13:38:57Z</time>
      </trkpt>
      <trkpt lat="49.89612" lon="2.24747">
        <ele>54.7</ele>
        <time>2023-06-23T13:38:58Z</time>
      </trkpt>
      <trkpt lat="49.89613" lon="2.24748">
        <ele>54.7</ele>
        <time>2023-06-23T13:38:59Z</time>
      </trkpt>
      <trkpt lat="49.89613" lon="2.24748">
        <ele>54.6</ele>
        <time>2023-06-23T13:39:00Z</time>
      </trkpt>
      <trkpt lat="49.89615" lon="2.24749">
        <ele>54.6</ele>
        <time>2023-06-23T13:39:01Z</time>
      </trkpt>
      <trkpt lat="49.89616" lon="2.2475">
        <ele>54.6</ele>
        <time>2023-06-23T13:39:02Z</time>
      </trkpt>
      <trkpt lat="49.89617" lon="2.24751">
        <ele>54.6</ele>
        <time>2023-06-23T13:39:03Z</time>
      </trkpt>
      <trkpt lat="49.89618" lon="2.24751">
        <ele>54.6</ele>
        <time>2023-06-23T13:39:04Z</time>
      </trkpt>
      <trkpt lat="49.89619" lon="2.24752">
        <ele>54.6</ele>
        <time>2023-06-23T13:39:06Z</time>
      </trkpt>
      <trkpt lat="49.8962" lon="2.24753">
        <ele>54.6</ele>
        <time>2023-06-23T13:39:07Z</time>
      </trkpt>
      <trkpt lat="49.89621" lon="2.24754">
        <ele>54.6</ele>
        <time>2023-06-23T13:39:08Z</time>
      </trkpt>
      <trkpt lat="49.89622" lon="2.24755">
        <ele>54.6</ele>
        <time>2023-06-23T13:39:09Z</time>
      </trkpt>
      <trkpt lat="49.89624" lon="2.24756">
        <ele>54.5</ele>
        <time>2023-06-23T13:39:10Z</time>
      </trkpt>
      <trkpt lat="49.89624" lon="2.24757">
        <ele>54.5</ele>
        <time>2023-06-23T13:39:11Z</time>
      </trkpt>
      <trkpt lat="49.89625" lon="2.24758">
        <ele>54.5</ele>
        <time>2023-06-23T13:39:12Z</time>
      </trkpt>
      <trkpt lat="49.89627" lon="2.2476">
        <ele>54.5</ele>
        <time>2023-06-23T13:39:14Z</time>
      </trkpt>
      <trkpt lat="49.89628" lon="2.24761">
        <ele>54.5</ele>
        <time>2023-06-23T13:39:15Z</time>
      </trkpt>
      <trkpt lat="49.89629" lon="2.24761">
        <ele>54.5</ele>
        <time>2023-06-23T13:39:16Z</time>
      </trkpt>
      <trkpt lat="49.8963" lon="2.24762">
        <ele>54.5</ele>
        <time>2023-06-23T13:39:17Z</time>
      </trkpt>
      <trkpt lat="49.89631" lon="2.24764">
        <ele>54.5</ele>
        <time>2023-06-23T13:39:18Z</time>
      </trkpt>
      <trkpt lat="49.89632" lon="2.24765">
        <ele>54.5</ele>
        <time>2023-06-23T13:39:19Z</time>
      </trkpt>
      <trkpt lat="49.89633" lon="2.24766">
        <ele>54.5</ele>
        <time>2023-06-23T13:39:20Z</time>
      </trkpt>
      <trkpt lat="49.89633" lon="2.24767">
        <ele>54.4</ele>
        <time>2023-06-23T13:39:21Z</time>
      </trkpt>
      <trkpt lat="49.89634" lon="2.24769">
        <ele>54.4</ele>
        <time>2023-06-23T13:39:22Z</time>
      </trkpt>
      <trkpt lat="49.89635" lon="2.2477">
        <ele>54.4</ele>
        <time>2023-06-23T13:39:23Z</time>
      </trkpt>
      <trkpt lat="49.89636" lon="2.24772">
        <ele>54.4</ele>
        <time>2023-06-23T13:39:25Z</time>
      </trkpt>
      <trkpt lat="49.89637" lon="2.24774">
        <ele>54.4</ele>
        <time>2023-06-23T13:39:26Z</time>
      </trkpt>
      <trkpt lat="49.89638" lon="2.24775">
        <ele>54.4</ele>
        <time>2023-06-23T13:39:27Z</time>
      </trkpt>
      <trkpt lat="49.89639" lon="2.24777">
        <ele>54.4</ele>
        <time>2023-06-23T13:39:28Z</time>
      </trkpt>
      <trkpt lat="49.8964" lon="2.24779">
        <ele>54.4</ele>
        <time>2023-06-23T13:39:29Z</time>
      </trkpt>
      <trkpt lat="49.89642" lon="2.24782">
        <ele>54.4</ele>
        <time>2023-06-23T13:39:30Z</time>
      </trkpt>
      <trkpt lat="49.89643" lon="2.24783">
        <ele>54.3</ele>
        <time>2023-06-23T13:39:32Z</time>
      </trkpt>
      <trkpt lat="49.89643" lon="2.24785">
        <ele>54.3</ele>
        <time>2023-06-23T13:39:33Z</time>
      </trkpt>
      <trkpt lat="49.89644" lon="2.24786">
        <ele>54.3</ele>
        <time>2023-06-23T13:39:34Z</time>
      </trkpt>
      <trkpt lat="49.89645" lon="2.24788">
        <ele>54.3</ele>
        <time>2023-06-23T13:39:35Z</time>
      </trkpt>
      <trkpt lat="49.89646" lon="2.24789">
        <ele>54.3</ele>
        <time>2023-06-23T13:39:36Z</time>
      </trkpt>
      <trkpt lat="49.89646" lon="2.24791">
        <ele>54.3</ele>
        <time>2023-06-23T13:39:37Z</time>
      </trkpt>
      <trkpt lat="49.89647" lon="2.24793">
        <ele>54.3</ele>
        <time>2023-06-23T13:39:38Z</time>
      </trkpt>
      <trkpt lat="49.89648" lon="2.24795">
        <ele>54.3</ele>
        <time>2023-06-23T13:39:39Z</time>
      </trkpt>
      <trkpt lat="49.89648" lon="2.24797">
        <ele>54.3</ele>
        <time>2023-06-23T13:39:40Z</time>
      </trkpt>
      <trkpt lat="49.89649" lon="2.24799">
        <ele>54.3</ele>
        <time>2023-06-23T13:39:41Z</time>
      </trkpt>
      <trkpt lat="49.8965" lon="2.24801">
        <ele>54.3</ele>
        <time>2023-06-23T13:39:42Z</time>
      </trkpt>
      <trkpt lat="49.8965" lon="2.24803">
        <ele>54.3</ele>
        <time>2023-06-23T13:39:43Z</time>
      </trkpt>
      <trkpt lat="49.89652" lon="2.24806">
        <ele>54.3</ele>
        <time>2023-06-23T13:39:45Z</time>
      </trkpt>
      <trkpt lat="49.89652" lon="2.24807">
        <ele>54.3</ele>
        <time>2023-06-23T13:39:46Z</time>
      </trkpt>
      <trkpt lat="49.89652" lon="2.24808">
        <ele>54.3</ele>
        <time>2023-06-23T13:39:47Z</time>
      </trkpt>
      <trkpt lat="49.89653" lon="2.2481">
        <ele>54.2</ele>
        <time>2023-06-23T13:39:48Z</time>
      </trkpt>
      <trkpt lat="49.89654" lon="2.24812">
        <ele>54.2</ele>
        <time>2023-06-23T13:39:49Z</time>
      </trkpt>
      <trkpt lat="49.89654" lon="2.24813">
        <ele>54.2</ele>
        <time>2023-06-23T13:39:50Z</time>
      </trkpt>
      <trkpt lat="49.89655" lon="2.24815">
        <ele>54.2</ele>
        <time>2023-06-23T13:39:51Z</time>
      </trkpt>
      <trkpt lat="49.89656" lon="2.24817">
        <ele>54.2</ele>
        <time>2023-06-23T13:39:52Z</time>
      </trkpt>
      <trkpt lat="49.89656" lon="2.24819">
        <ele>54.2</ele>
        <time>2023-06-23T13:39:53Z</time>
      </trkpt>
      <trkpt lat="49.89657" lon="2.24823">
        <ele>54.2</ele>
        <time>2023-06-23T13:39:54Z</time>
      </trkpt>
      <trkpt lat="49.89658" lon="2.24825">
        <ele>54.2</ele>
        <time>2023-06-23T13:39:56Z</time>
      </trkpt>
      <trkpt lat="49.89658" lon="2.24826">
        <ele>54.2</ele>
        <time>2023-06-23T13:39:57Z</time>
      </trkpt>
      <trkpt lat="49.89659" lon="2.24827">
        <ele>54.1</ele>
        <time>2023-06-23T13:39:58Z</time>
      </trkpt>
      <trkpt lat="49.89659" lon="2.24829">
        <ele>54.1</ele>
        <time>2023-06-23T13:39:59Z</time>
      </trkpt>
      <trkpt lat="49.8966" lon="2.24832">
        <ele>54.1</ele>
        <time>2023-06-23T13:40:00Z</time>
      </trkpt>
      <trkpt lat="49.89661" lon="2.24834">
        <ele>54.1</ele>
        <time>2023-06-23T13:40:01Z</time>
      </trkpt>
      <trkpt lat="49.89661" lon="2.24836">
        <ele>54.1</ele>
        <time>2023-06-23T13:40:03Z</time>
      </trkpt>
      <trkpt lat="49.89662" lon="2.24838">
        <ele>54.1</ele>
        <time>2023-06-23T13:40:05Z</time>
      </trkpt>
      <trkpt lat="49.89662" lon="2.24839">
        <ele>54.1</ele>
        <time>2023-06-23T13:40:06Z</time>
      </trkpt>
      <trkpt lat="49.89663" lon="2.24841">
        <ele>54</ele>
        <time>2023-06-23T13:40:07Z</time>
      </trkpt>
      <trkpt lat="49.89664" lon="2.24843">
        <ele>54</ele>
        <time>2023-06-23T13:40:08Z</time>
      </trkpt>
      <trkpt lat="49.89665" lon="2.24846">
        <ele>54</ele>
        <time>2023-06-23T13:40:09Z</time>
      </trkpt>
      <trkpt lat="49.89665" lon="2.24847">
        <ele>54</ele>
        <time>2023-06-23T13:40:10Z</time>
      </trkpt>
      <trkpt lat="49.89666" lon="2.24848">
        <ele>54</ele>
        <time>2023-06-23T13:40:11Z</time>
      </trkpt>
      <trkpt lat="49.89667" lon="2.24851">
        <ele>53.9</ele>
        <time>2023-06-23T13:40:12Z</time>
      </trkpt>
      <trkpt lat="49.89667" lon="2.24852">
        <ele>53.9</ele>
        <time>2023-06-23T13:40:14Z</time>
      </trkpt>
      <trkpt lat="49.89668" lon="2.24854">
        <ele>53.9</ele>
        <time>2023-06-23T13:40:15Z</time>
      </trkpt>
      <trkpt lat="49.89668" lon="2.24855">
        <ele>53.9</ele>
        <time>2023-06-23T13:40:16Z</time>
      </trkpt>
      <trkpt lat="49.89669" lon="2.24857">
        <ele>53.9</ele>
        <time>2023-06-23T13:40:17Z</time>
      </trkpt>
      <trkpt lat="49.89669" lon="2.24859">
        <ele>53.9</ele>
        <time>2023-06-23T13:40:18Z</time>
      </trkpt>
      <trkpt lat="49.8967" lon="2.24861">
        <ele>53.8</ele>
        <time>2023-06-23T13:40:19Z</time>
      </trkpt>
      <trkpt lat="49.89671" lon="2.24863">
        <ele>53.8</ele>
        <time>2023-06-23T13:40:20Z</time>
      </trkpt>
      <trkpt lat="49.89671" lon="2.24864">
        <ele>53.8</ele>
        <time>2023-06-23T13:40:21Z</time>
      </trkpt>
      <trkpt lat="49.89672" lon="2.24866">
        <ele>53.8</ele>
        <time>2023-06-23T13:40:22Z</time>
      </trkpt>
      <trkpt lat="49.89672" lon="2.24867">
        <ele>53.8</ele>
        <time>2023-06-23T13:40:23Z</time>
      </trkpt>
      <trkpt lat="49.89672" lon="2.2487">
        <ele>53.7</ele>
        <time>2023-06-23T13:40:24Z</time>
      </trkpt>
      <trkpt lat="49.89673" lon="2.24872">
        <ele>53.7</ele>
        <time>2023-06-23T13:40:26Z</time>
      </trkpt>
      <trkpt lat="49.89673" lon="2.24873">
        <ele>53.7</ele>
        <time>2023-06-23T13:40:27Z</time>
      </trkpt>
      <trkpt lat="49.89673" lon="2.24875">
        <ele>53.7</ele>
        <time>2023-06-23T13:40:28Z</time>
      </trkpt>
      <trkpt lat="49.89674" lon="2.24877">
        <ele>53.7</ele>
        <time>2023-06-23T13:40:29Z</time>
      </trkpt>
      <trkpt lat="49.89674" lon="2.2488">
        <ele>53.7</ele>
        <time>2023-06-23T13:40:30Z</time>
      </trkpt>
      <trkpt lat="49.89674" lon="2.24882">
        <ele>53.6</ele>
        <time>2023-06-23T13:40:31Z</time>
      </trkpt>
      <trkpt lat="49.89674" lon="2.24883">
        <ele>53.6</ele>
        <time>2023-06-23T13:40:32Z</time>
      </trkpt>
      <trkpt lat="49.89674" lon="2.24885">
        <ele>53.6</ele>
        <time>2023-06-23T13:40:33Z</time>
      </trkpt>
      <trkpt lat="49.89675" lon="2.24887">
        <ele>53.6</ele>
        <time>2023-06-23T13:40:34Z</time>
      </trkpt>
      <trkpt lat="49.89675" lon="2.24888">
        <ele>53.6</ele>
        <time>2023-06-23T13:40:35Z</time>
      </trkpt>
      <trkpt lat="49.89675" lon="2.24891">
        <ele>53.5</ele>
        <time>2023-06-23T13:40:37Z</time>
      </trkpt>
      <trkpt lat="49.89675" lon="2.24892">
        <ele>53.5</ele>
        <time>2023-06-23T13:40:38Z</time>
      </trkpt>
      <trkpt lat="49.89674" lon="2.24894">
        <ele>53.5</ele>
        <time>2023-06-23T13:40:39Z</time>
      </trkpt>
      <trkpt lat="49.89674" lon="2.24896">
        <ele>53.5</ele>
        <time>2023-06-23T13:40:40Z</time>
      </trkpt>
      <trkpt lat="49.89674" lon="2.24898">
        <ele>53.4</ele>
        <time>2023-06-23T13:40:41Z</time>
      </trkpt>
      <trkpt lat="49.89674" lon="2.249">
        <ele>53.4</ele>
        <time>2023-06-23T13:40:42Z</time>
      </trkpt>
      <trkpt lat="49.89674" lon="2.24902">
        <ele>53.4</ele>
        <time>2023-06-23T13:40:43Z</time>
      </trkpt>
      <trkpt lat="49.89673" lon="2.24904">
        <ele>53.4</ele>
        <time>2023-06-23T13:40:45Z</time>
      </trkpt>
      <trkpt lat="49.89673" lon="2.24906">
        <ele>53.3</ele>
        <time>2023-06-23T13:40:46Z</time>
      </trkpt>
      <trkpt lat="49.89673" lon="2.24907">
        <ele>53.3</ele>
        <time>2023-06-23T13:40:47Z</time>
      </trkpt>
      <trkpt lat="49.89673" lon="2.24908">
        <ele>53.3</ele>
        <time>2023-06-23T13:40:48Z</time>
      </trkpt>
      <trkpt lat="49.89672" lon="2.24911">
        <ele>53.3</ele>
        <time>2023-06-23T13:40:49Z</time>
      </trkpt>
      <trkpt lat="49.89672" lon="2.24912">
        <ele>53.2</ele>
        <time>2023-06-23T13:40:50Z</time>
      </trkpt>
      <trkpt lat="49.89672" lon="2.24914">
        <ele>53.2</ele>
        <time>2023-06-23T13:40:51Z</time>
      </trkpt>
      <trkpt lat="49.89672" lon="2.24917">
        <ele>53.2</ele>
        <time>2023-06-23T13:40:52Z</time>
      </trkpt>
      <trkpt lat="49.89672" lon="2.24919">
        <ele>53.2</ele>
        <time>2023-06-23T13:40:53Z</time>
      </trkpt>
      <trkpt lat="49.89672" lon="2.2492">
        <ele>53.1</ele>
        <time>2023-06-23T13:40:54Z</time>
      </trkpt>
      <trkpt lat="49.89672" lon="2.24922">
        <ele>53.1</ele>
        <time>2023-06-23T13:40:55Z</time>
      </trkpt>
      <trkpt lat="49.89672" lon="2.24924">
        <ele>53.1</ele>
        <time>2023-06-23T13:40:57Z</time>
      </trkpt>
      <trkpt lat="49.89672" lon="2.24925">
        <ele>53.1</ele>
        <time>2023-06-23T13:40:58Z</time>
      </trkpt>
      <trkpt lat="49.89672" lon="2.24927">
        <ele>53.1</ele>
        <time>2023-06-23T13:40:59Z</time>
      </trkpt>
      <trkpt lat="49.89672" lon="2.24929">
        <ele>53</ele>
        <time>2023-06-23T13:41:00Z</time>
      </trkpt>
      <trkpt lat="49.89671" lon="2.2493">
        <ele>53</ele>
        <time>2023-06-23T13:41:01Z</time>
      </trkpt>
      <trkpt lat="49.89671" lon="2.24933">
        <ele>53</ele>
        <time>2023-06-23T13:41:02Z</time>
      </trkpt>
      <trkpt lat="49.89671" lon="2.24935">
        <ele>52.9</ele>
        <time>2023-06-23T13:41:03Z</time>
      </trkpt>
      <trkpt lat="49.89671" lon="2.24936">
        <ele>52.9</ele>
        <time>2023-06-23T13:41:04Z</time>
      </trkpt>
      <trkpt lat="49.89671" lon="2.24938">
        <ele>52.9</ele>
        <time>2023-06-23T13:41:05Z</time>
      </trkpt>
      <trkpt lat="49.89671" lon="2.2494">
        <ele>52.9</ele>
        <time>2023-06-23T13:41:06Z</time>
      </trkpt>
      <trkpt lat="49.89672" lon="2.24942">
        <ele>52.9</ele>
        <time>2023-06-23T13:41:07Z</time>
      </trkpt>
      <trkpt lat="49.89672" lon="2.24944">
        <ele>52.8</ele>
        <time>2023-06-23T13:41:09Z</time>
      </trkpt>
      <trkpt lat="49.89672" lon="2.24946">
        <ele>52.8</ele>
        <time>2023-06-23T13:41:10Z</time>
      </trkpt>
      <trkpt lat="49.89672" lon="2.24947">
        <ele>52.8</ele>
        <time>2023-06-23T13:41:11Z</time>
      </trkpt>
      <trkpt lat="49.89671" lon="2.24949">
        <ele>52.8</ele>
        <time>2023-06-23T13:41:12Z</time>
      </trkpt>
      <trkpt lat="49.89671" lon="2.24951">
        <ele>52.7</ele>
        <time>2023-06-23T13:41:13Z</time>
      </trkpt>
      <trkpt lat="49.89671" lon="2.24953">
        <ele>52.7</ele>
        <time>2023-06-23T13:41:14Z</time>
      </trkpt>
      <trkpt lat="49.89671" lon="2.24955">
        <ele>52.7</ele>
        <time>2023-06-23T13:41:16Z</time>
      </trkpt>
      <trkpt lat="49.89671" lon="2.24957">
        <ele>52.6</ele>
        <time>2023-06-23T13:41:17Z</time>
      </trkpt>
      <trkpt lat="49.89671" lon="2.2496">
        <ele>52.6</ele>
        <time>2023-06-23T13:41:18Z</time>
      </trkpt>
      <trkpt lat="49.89671" lon="2.24962">
        <ele>52.6</ele>
        <time>2023-06-23T13:41:19Z</time>
      </trkpt>
      <trkpt lat="49.89671" lon="2.24964">
        <ele>52.5</ele>
        <time>2023-06-23T13:41:20Z</time>
      </trkpt>
      <trkpt lat="49.89671" lon="2.24967">
        <ele>52.5</ele>
        <time>2023-06-23T13:41:21Z</time>
      </trkpt>
      <trkpt lat="49.89671" lon="2.24969">
        <ele>52.5</ele>
        <time>2023-06-23T13:41:22Z</time>
      </trkpt>
      <trkpt lat="49.89671" lon="2.2497">
        <ele>52.5</ele>
        <time>2023-06-23T13:41:23Z</time>
      </trkpt>
      <trkpt lat="49.89671" lon="2.24973">
        <ele>52.4</ele>
        <time>2023-06-23T13:41:24Z</time>
      </trkpt>
      <trkpt lat="49.89671" lon="2.24974">
        <ele>52.4</ele>
        <time>2023-06-23T13:41:25Z</time>
      </trkpt>
      <trkpt lat="49.89671" lon="2.24975">
        <ele>52.4</ele>
        <time>2023-06-23T13:41:26Z</time>
      </trkpt>
      <trkpt lat="49.8967" lon="2.24978">
        <ele>52.3</ele>
        <time>2023-06-23T13:41:28Z</time>
      </trkpt>
      <trkpt lat="49.8967" lon="2.2498">
        <ele>52.3</ele>
        <time>2023-06-23T13:41:29Z</time>
      </trkpt>
      <trkpt lat="49.8967" lon="2.24983">
        <ele>52.3</ele>
        <time>2023-06-23T13:41:30Z</time>
      </trkpt>
      <trkpt lat="49.8967" lon="2.24984">
        <ele>52.2</ele>
        <time>2023-06-23T13:41:31Z</time>
      </trkpt>
      <trkpt lat="49.8967" lon="2.24986">
        <ele>52.2</ele>
        <time>2023-06-23T13:41:32Z</time>
      </trkpt>
      <trkpt lat="49.89669" lon="2.24988">
        <ele>52.2</ele>
        <time>2023-06-23T13:41:33Z</time>
      </trkpt>
      <trkpt lat="49.89669" lon="2.2499">
        <ele>52.2</ele>
        <time>2023-06-23T13:41:34Z</time>
      </trkpt>
      <trkpt lat="49.89669" lon="2.24992">
        <ele>52.1</ele>
        <time>2023-06-23T13:41:36Z</time>
      </trkpt>
      <trkpt lat="49.89669" lon="2.24994">
        <ele>52.1</ele>
        <time>2023-06-23T13:41:37Z</time>
      </trkpt>
      <trkpt lat="49.89668" lon="2.24998">
        <ele>52</ele>
        <time>2023-06-23T13:41:38Z</time>
      </trkpt>
      <trkpt lat="49.89668" lon="2.24999">
        <ele>52</ele>
        <time>2023-06-23T13:41:39Z</time>
      </trkpt>
      <trkpt lat="49.89668" lon="2.25">
        <ele>52</ele>
        <time>2023-06-23T13:41:40Z</time>
      </trkpt>
      <trkpt lat="49.89667" lon="2.25004">
        <ele>51.9</ele>
        <time>2023-06-23T13:41:41Z</time>
      </trkpt>
      <trkpt lat="49.89667" lon="2.25005">
        <ele>51.9</ele>
        <time>2023-06-23T13:41:42Z</time>
      </trkpt>
      <trkpt lat="49.89667" lon="2.25006">
        <ele>51.9</ele>
        <time>2023-06-23T13:41:43Z</time>
      </trkpt>
      <trkpt lat="49.89667" lon="2.25008">
        <ele>51.9</ele>
        <time>2023-06-23T13:41:44Z</time>
      </trkpt>
      <trkpt lat="49.89666" lon="2.2501">
        <ele>51.8</ele>
        <time>2023-06-23T13:41:45Z</time>
      </trkpt>
      <trkpt lat="49.89666" lon="2.25012">
        <ele>51.8</ele>
        <time>2023-06-23T13:41:46Z</time>
      </trkpt>
      <trkpt lat="49.89665" lon="2.25015">
        <ele>51.7</ele>
        <time>2023-06-23T13:41:48Z</time>
      </trkpt>
      <trkpt lat="49.89664" lon="2.25018">
        <ele>51.7</ele>
        <time>2023-06-23T13:41:49Z</time>
      </trkpt>
      <trkpt lat="49.89664" lon="2.25019">
        <ele>51.7</ele>
        <time>2023-06-23T13:41:50Z</time>
      </trkpt>
      <trkpt lat="49.89663" lon="2.25022">
        <ele>51.6</ele>
        <time>2023-06-23T13:41:51Z</time>
      </trkpt>
      <trkpt lat="49.89663" lon="2.25024">
        <ele>51.6</ele>
        <time>2023-06-23T13:41:52Z</time>
      </trkpt>
      <trkpt lat="49.89662" lon="2.25025">
        <ele>51.5</ele>
        <time>2023-06-23T13:41:53Z</time>
      </trkpt>
      <trkpt lat="49.89662" lon="2.25027">
        <ele>51.5</ele>
        <time>2023-06-23T13:41:54Z</time>
      </trkpt>
      <trkpt lat="49.89661" lon="2.25029">
        <ele>51.5</ele>
        <time>2023-06-23T13:41:56Z</time>
      </trkpt>
      <trkpt lat="49.89661" lon="2.25032">
        <ele>51.4</ele>
        <time>2023-06-23T13:41:57Z</time>
      </trkpt>
      <trkpt lat="49.8966" lon="2.25033">
        <ele>51.4</ele>
        <time>2023-06-23T13:41:58Z</time>
      </trkpt>
      <trkpt lat="49.8966" lon="2.25035">
        <ele>51.3</ele>
        <time>2023-06-23T13:41:59Z</time>
      </trkpt>
      <trkpt lat="49.89659" lon="2.25038">
        <ele>51.3</ele>
        <time>2023-06-23T13:42:00Z</time>
      </trkpt>
      <trkpt lat="49.89659" lon="2.2504">
        <ele>51.2</ele>
        <time>2023-06-23T13:42:01Z</time>
      </trkpt>
      <trkpt lat="49.89659" lon="2.25042">
        <ele>51.2</ele>
        <time>2023-06-23T13:42:03Z</time>
      </trkpt>
      <trkpt lat="49.89658" lon="2.25044">
        <ele>51.2</ele>
        <time>2023-06-23T13:42:04Z</time>
      </trkpt>
      <trkpt lat="49.89658" lon="2.25045">
        <ele>51.1</ele>
        <time>2023-06-23T13:42:05Z</time>
      </trkpt>
      <trkpt lat="49.89658" lon="2.25047">
        <ele>51.1</ele>
        <time>2023-06-23T13:42:06Z</time>
      </trkpt>
      <trkpt lat="49.89658" lon="2.2505">
        <ele>51</ele>
        <time>2023-06-23T13:42:07Z</time>
      </trkpt>
      <trkpt lat="49.89658" lon="2.25051">
        <ele>51</ele>
        <time>2023-06-23T13:42:08Z</time>
      </trkpt>
      <trkpt lat="49.89658" lon="2.25053">
        <ele>51</ele>
        <time>2023-06-23T13:42:09Z</time>
      </trkpt>
      <trkpt lat="49.89659" lon="2.25056">
        <ele>50.9</ele>
        <time>2023-06-23T13:42:10Z</time>
      </trkpt>
      <trkpt lat="49.89659" lon="2.25057">
        <ele>50.9</ele>
        <time>2023-06-23T13:42:11Z</time>
      </trkpt>
      <trkpt lat="49.89659" lon="2.25058">
        <ele>50.9</ele>
        <time>2023-06-23T13:42:12Z</time>
      </trkpt>
      <trkpt lat="49.89659" lon="2.2506">
        <ele>50.8</ele>
        <time>2023-06-23T13:42:13Z</time>
      </trkpt>
      <trkpt lat="49.89659" lon="2.25063">
        <ele>50.8</ele>
        <time>2023-06-23T13:42:14Z</time>
      </trkpt>
      <trkpt lat="49.89659" lon="2.25066">
        <ele>50.7</ele>
        <time>2023-06-23T13:42:15Z</time>
      </trkpt>
      <trkpt lat="49.89659" lon="2.25067">
        <ele>50.7</ele>
        <time>2023-06-23T13:42:17Z</time>
      </trkpt>
      <trkpt lat="49.89659" lon="2.25069">
        <ele>50.6</ele>
        <time>2023-06-23T13:42:18Z</time>
      </trkpt>
      <trkpt lat="49.89659" lon="2.2507">
        <ele>50.6</ele>
        <time>2023-06-23T13:42:19Z</time>
      </trkpt>
      <trkpt lat="49.89659" lon="2.25072">
        <ele>50.6</ele>
        <time>2023-06-23T13:42:20Z</time>
      </trkpt>
      <trkpt lat="49.89659" lon="2.25073">
        <ele>50.5</ele>
        <time>2023-06-23T13:42:21Z</time>
      </trkpt>
      <trkpt lat="49.89658" lon="2.25075">
        <ele>50.5</ele>
        <time>2023-06-23T13:42:22Z</time>
      </trkpt>
      <trkpt lat="49.89658" lon="2.25077">
        <ele>50.5</ele>
        <time>2023-06-23T13:42:23Z</time>
      </trkpt>
      <trkpt lat="49.89658" lon="2.25078">
        <ele>50.4</ele>
        <time>2023-06-23T13:42:24Z</time>
      </trkpt>
      <trkpt lat="49.89657" lon="2.2508">
        <ele>50.4</ele>
        <time>2023-06-23T13:42:25Z</time>
      </trkpt>
      <trkpt lat="49.89657" lon="2.25082">
        <ele>50.3</ele>
        <time>2023-06-23T13:42:27Z</time>
      </trkpt>
      <trkpt lat="49.89657" lon="2.25084">
        <ele>50.3</ele>
        <time>2023-06-23T13:42:28Z</time>
      </trkpt>
      <trkpt lat="49.89657" lon="2.25086">
        <ele>50.3</ele>
        <time>2023-06-23T13:42:29Z</time>
      </trkpt>
      <trkpt lat="49.89657" lon="2.25086">
        <ele>50.3</ele>
        <time>2023-06-23T13:42:30Z</time>
      </trkpt>
      <trkpt lat="49.89658" lon="2.25085">
        <ele>50.2</ele>
        <time>2023-06-23T13:42:32Z</time>
      </trkpt>
      <trkpt lat="49.89659" lon="2.25085">
        <ele>50.2</ele>
        <time>2023-06-23T13:42:33Z</time>
      </trkpt>
      <trkpt lat="49.89659" lon="2.25084">
        <ele>50.2</ele>
        <time>2023-06-23T13:42:35Z</time>
      </trkpt>
      <trkpt lat="49.89659" lon="2.25084">
        <ele>50.2</ele>
        <time>2023-06-23T13:42:36Z</time>
      </trkpt>
      <trkpt lat="49.8966" lon="2.25084">
        <ele>50.2</ele>
        <time>2023-06-23T13:42:37Z</time>
      </trkpt>
      <trkpt lat="49.8966" lon="2.25085">
        <ele>50.1</ele>
        <time>2023-06-23T13:42:38Z</time>
      </trkpt>
      <trkpt lat="49.8966" lon="2.25085">
        <ele>50.1</ele>
        <time>2023-06-23T13:42:40Z</time>
      </trkpt>
      <trkpt lat="49.8966" lon="2.25086">
        <ele>50.1</ele>
        <time>2023-06-23T13:42:41Z</time>
      </trkpt>
      <trkpt lat="49.8966" lon="2.25087">
        <ele>50.1</ele>
        <time>2023-06-23T13:42:42Z</time>
      </trkpt>
      <trkpt lat="49.8966" lon="2.25088">
        <ele>50.1</ele>
        <time>2023-06-23T13:42:43Z</time>
      </trkpt>
      <trkpt lat="49.8966" lon="2.25089">
        <ele>50</ele>
        <time>2023-06-23T13:42:44Z</time>
      </trkpt>
      <trkpt lat="49.8966" lon="2.2509">
        <ele>50</ele>
        <time>2023-06-23T13:42:45Z</time>
      </trkpt>
      <trkpt lat="49.89659" lon="2.25092">
        <ele>50</ele>
        <time>2023-06-23T13:42:46Z</time>
      </trkpt>
      <trkpt lat="49.89659" lon="2.25094">
        <ele>49.9</ele>
        <time>2023-06-23T13:42:47Z</time>
      </trkpt>
      <trkpt lat="49.89658" lon="2.25096">
        <ele>49.8</ele>
        <time>2023-06-23T13:42:48Z</time>
      </trkpt>
      <trkpt lat="49.89658" lon="2.25099">
        <ele>49.8</ele>
        <time>2023-06-23T13:42:50Z</time>
      </trkpt>
      <trkpt lat="49.89657" lon="2.25101">
        <ele>49.7</ele>
        <time>2023-06-23T13:42:51Z</time>
      </trkpt>
      <trkpt lat="49.89656" lon="2.25103">
        <ele>49.7</ele>
        <time>2023-06-23T13:42:52Z</time>
      </trkpt>
      <trkpt lat="49.89656" lon="2.25105">
        <ele>49.6</ele>
        <time>2023-06-23T13:42:53Z</time>
      </trkpt>
      <trkpt lat="49.89656" lon="2.25107">
        <ele>49.5</ele>
        <time>2023-06-23T13:42:54Z</time>
      </trkpt>
      <trkpt lat="49.89655" lon="2.25109">
        <ele>49.5</ele>
        <time>2023-06-23T13:42:55Z</time>
      </trkpt>
      <trkpt lat="49.89655" lon="2.25112">
        <ele>49.4</ele>
        <time>2023-06-23T13:42:56Z</time>
      </trkpt>
      <trkpt lat="49.89655" lon="2.25114">
        <ele>49.4</ele>
        <time>2023-06-23T13:42:57Z</time>
      </trkpt>
      <trkpt lat="49.89655" lon="2.25115">
        <ele>49.3</ele>
        <time>2023-06-23T13:42:58Z</time>
      </trkpt>
      <trkpt lat="49.89655" lon="2.25117">
        <ele>49.3</ele>
        <time>2023-06-23T13:43:00Z</time>
      </trkpt>
      <trkpt lat="49.89655" lon="2.25119">
        <ele>49.2</ele>
        <time>2023-06-23T13:43:01Z</time>
      </trkpt>
      <trkpt lat="49.89655" lon="2.25121">
        <ele>49.2</ele>
        <time>2023-06-23T13:43:02Z</time>
      </trkpt>
      <trkpt lat="49.89655" lon="2.25124">
        <ele>49.1</ele>
        <time>2023-06-23T13:43:03Z</time>
      </trkpt>
      <trkpt lat="49.89656" lon="2.25126">
        <ele>49</ele>
        <time>2023-06-23T13:43:04Z</time>
      </trkpt>
      <trkpt lat="49.89656" lon="2.25129">
        <ele>49</ele>
        <time>2023-06-23T13:43:05Z</time>
      </trkpt>
      <trkpt lat="49.89656" lon="2.25131">
        <ele>48.9</ele>
        <time>2023-06-23T13:43:06Z</time>
      </trkpt>
      <trkpt lat="49.89656" lon="2.25133">
        <ele>48.8</ele>
        <time>2023-06-23T13:43:07Z</time>
      </trkpt>
      <trkpt lat="49.89657" lon="2.25137">
        <ele>48.7</ele>
        <time>2023-06-23T13:43:09Z</time>
      </trkpt>
      <trkpt lat="49.89657" lon="2.25139">
        <ele>48.7</ele>
        <time>2023-06-23T13:43:10Z</time>
      </trkpt>
      <trkpt lat="49.89657" lon="2.25141">
        <ele>48.6</ele>
        <time>2023-06-23T13:43:11Z</time>
      </trkpt>
      <trkpt lat="49.89657" lon="2.25144">
        <ele>48.5</ele>
        <time>2023-06-23T13:43:12Z</time>
      </trkpt>
      <trkpt lat="49.89657" lon="2.25146">
        <ele>48.5</ele>
        <time>2023-06-23T13:43:14Z</time>
      </trkpt>
      <trkpt lat="49.89657" lon="2.25148">
        <ele>48.5</ele>
        <time>2023-06-23T13:43:15Z</time>
      </trkpt>
      <trkpt lat="49.89657" lon="2.25151">
        <ele>48.4</ele>
        <time>2023-06-23T13:43:16Z</time>
      </trkpt>
      <trkpt lat="49.89657" lon="2.25152">
        <ele>48.3</ele>
        <time>2023-06-23T13:43:17Z</time>
      </trkpt>
      <trkpt lat="49.89657" lon="2.25154">
        <ele>48.2</ele>
        <time>2023-06-23T13:43:18Z</time>
      </trkpt>
      <trkpt lat="49.89656" lon="2.25156">
        <ele>48.2</ele>
        <time>2023-06-23T13:43:19Z</time>
      </trkpt>
      <trkpt lat="49.89656" lon="2.25159">
        <ele>48</ele>
        <time>2023-06-23T13:43:20Z</time>
      </trkpt>
      <trkpt lat="49.89656" lon="2.25161">
        <ele>48</ele>
        <time>2023-06-23T13:43:22Z</time>
      </trkpt>
      <trkpt lat="49.89656" lon="2.25163">
        <ele>47.9</ele>
        <time>2023-06-23T13:43:23Z</time>
      </trkpt>
      <trkpt lat="49.89656" lon="2.25165">
        <ele>47.9</ele>
        <time>2023-06-23T13:43:24Z</time>
      </trkpt>
      <trkpt lat="49.89656" lon="2.25166">
        <ele>47.8</ele>
        <time>2023-06-23T13:43:25Z</time>
      </trkpt>
      <trkpt lat="49.89656" lon="2.25169">
        <ele>47.7</ele>
        <time>2023-06-23T13:43:26Z</time>
      </trkpt>
      <trkpt lat="49.89656" lon="2.25171">
        <ele>47.6</ele>
        <time>2023-06-23T13:43:27Z</time>
      </trkpt>
      <trkpt lat="49.89656" lon="2.25174">
        <ele>47.5</ele>
        <time>2023-06-23T13:43:29Z</time>
      </trkpt>
      <trkpt lat="49.89656" lon="2.25175">
        <ele>47.5</ele>
        <time>2023-06-23T13:43:30Z</time>
      </trkpt>
      <trkpt lat="49.89656" lon="2.25177">
        <ele>47.4</ele>
        <time>2023-06-23T13:43:31Z</time>
      </trkpt>
      <trkpt lat="49.89656" lon="2.25178">
        <ele>47.4</ele>
        <time>2023-06-23T13:43:32Z</time>
      </trkpt>
      <trkpt lat="49.89656" lon="2.2518">
        <ele>47.3</ele>
        <time>2023-06-23T13:43:33Z</time>
      </trkpt>
      <trkpt lat="49.89656" lon="2.25182">
        <ele>47.2</ele>
        <time>2023-06-23T13:43:34Z</time>
      </trkpt>
      <trkpt lat="49.89656" lon="2.25184">
        <ele>47.2</ele>
        <time>2023-06-23T13:43:35Z</time>
      </trkpt>
      <trkpt lat="49.89656" lon="2.25187">
        <ele>47.1</ele>
        <time>2023-06-23T13:43:36Z</time>
      </trkpt>
      <trkpt lat="49.89655" lon="2.25189">
        <ele>47</ele>
        <time>2023-06-23T13:43:37Z</time>
      </trkpt>
      <trkpt lat="49.89655" lon="2.25191">
        <ele>46.9</ele>
        <time>2023-06-23T13:43:38Z</time>
      </trkpt>
      <trkpt lat="49.89655" lon="2.25192">
        <ele>46.9</ele>
        <time>2023-06-23T13:43:39Z</time>
      </trkpt>
      <trkpt lat="49.89655" lon="2.25194">
        <ele>46.8</ele>
        <time>2023-06-23T13:43:40Z</time>
      </trkpt>
      <trkpt lat="49.89654" lon="2.25197">
        <ele>46.7</ele>
        <time>2023-06-23T13:43:41Z</time>
      </trkpt>
      <trkpt lat="49.89654" lon="2.25198">
        <ele>46.6</ele>
        <time>2023-06-23T13:43:43Z</time>
      </trkpt>
      <trkpt lat="49.89653" lon="2.25199">
        <ele>46.6</ele>
        <time>2023-06-23T13:43:44Z</time>
      </trkpt>
      <trkpt lat="49.89653" lon="2.25201">
        <ele>46.5</ele>
        <time>2023-06-23T13:43:45Z</time>
      </trkpt>
      <trkpt lat="49.89652" lon="2.25204">
        <ele>46.4</ele>
        <time>2023-06-23T13:43:46Z</time>
      </trkpt>
      <trkpt lat="49.89652" lon="2.25206">
        <ele>46.3</ele>
        <time>2023-06-23T13:43:47Z</time>
      </trkpt>
      <trkpt lat="49.89651" lon="2.25207">
        <ele>46.3</ele>
        <time>2023-06-23T13:43:48Z</time>
      </trkpt>
      <trkpt lat="49.89651" lon="2.25209">
        <ele>46.2</ele>
        <time>2023-06-23T13:43:49Z</time>
      </trkpt>
      <trkpt lat="49.8965" lon="2.25211">
        <ele>46.1</ele>
        <time>2023-06-23T13:43:50Z</time>
      </trkpt>
      <trkpt lat="49.89649" lon="2.25213">
        <ele>46</ele>
        <time>2023-06-23T13:43:51Z</time>
      </trkpt>
      <trkpt lat="49.89649" lon="2.25216">
        <ele>45.9</ele>
        <time>2023-06-23T13:43:53Z</time>
      </trkpt>
      <trkpt lat="49.89648" lon="2.25218">
        <ele>45.8</ele>
        <time>2023-06-23T13:43:54Z</time>
      </trkpt>
      <trkpt lat="49.89647" lon="2.2522">
        <ele>45.7</ele>
        <time>2023-06-23T13:43:55Z</time>
      </trkpt>
      <trkpt lat="49.89647" lon="2.25223">
        <ele>45.6</ele>
        <time>2023-06-23T13:43:56Z</time>
      </trkpt>
      <trkpt lat="49.89647" lon="2.25224">
        <ele>45.6</ele>
        <time>2023-06-23T13:43:57Z</time>
      </trkpt>
      <trkpt lat="49.89646" lon="2.25225">
        <ele>45.5</ele>
        <time>2023-06-23T13:43:58Z</time>
      </trkpt>
      <trkpt lat="49.89646" lon="2.25227">
        <ele>45.5</ele>
        <time>2023-06-23T13:43:59Z</time>
      </trkpt>
      <trkpt lat="49.89645" lon="2.25229">
        <ele>45.4</ele>
        <time>2023-06-23T13:44:00Z</time>
      </trkpt>
      <trkpt lat="49.89644" lon="2.25231">
        <ele>45.3</ele>
        <time>2023-06-23T13:44:01Z</time>
      </trkpt>
      <trkpt lat="49.89644" lon="2.25233">
        <ele>45.3</ele>
        <time>2023-06-23T13:44:03Z</time>
      </trkpt>
      <trkpt lat="49.89643" lon="2.25234">
        <ele>45.2</ele>
        <time>2023-06-23T13:44:04Z</time>
      </trkpt>
      <trkpt lat="49.89643" lon="2.25236">
        <ele>45.1</ele>
        <time>2023-06-23T13:44:05Z</time>
      </trkpt>
      <trkpt lat="49.89642" lon="2.25237">
        <ele>45.1</ele>
        <time>2023-06-23T13:44:06Z</time>
      </trkpt>
      <trkpt lat="49.89641" lon="2.2524">
        <ele>45</ele>
        <time>2023-06-23T13:44:07Z</time>
      </trkpt>
      <trkpt lat="49.8964" lon="2.25243">
        <ele>44.8</ele>
        <time>2023-06-23T13:44:08Z</time>
      </trkpt>
      <trkpt lat="49.8964" lon="2.25244">
        <ele>44.8</ele>
        <time>2023-06-23T13:44:09Z</time>
      </trkpt>
      <trkpt lat="49.8964" lon="2.25245">
        <ele>44.8</ele>
        <time>2023-06-23T13:44:10Z</time>
      </trkpt>
      <trkpt lat="49.89639" lon="2.25247">
        <ele>44.7</ele>
        <time>2023-06-23T13:44:11Z</time>
      </trkpt>
      <trkpt lat="49.89638" lon="2.25248">
        <ele>44.6</ele>
        <time>2023-06-23T13:44:12Z</time>
      </trkpt>
      <trkpt lat="49.89638" lon="2.2525">
        <ele>44.6</ele>
        <time>2023-06-23T13:44:13Z</time>
      </trkpt>
      <trkpt lat="49.89637" lon="2.25252">
        <ele>44.5</ele>
        <time>2023-06-23T13:44:14Z</time>
      </trkpt>
      <trkpt lat="49.89637" lon="2.25254">
        <ele>44.4</ele>
        <time>2023-06-23T13:44:15Z</time>
      </trkpt>
      <trkpt lat="49.89636" lon="2.25256">
        <ele>44.4</ele>
        <time>2023-06-23T13:44:17Z</time>
      </trkpt>
      <trkpt lat="49.89636" lon="2.25259">
        <ele>44.2</ele>
        <time>2023-06-23T13:44:18Z</time>
      </trkpt>
      <trkpt lat="49.89636" lon="2.2526">
        <ele>44.2</ele>
        <time>2023-06-23T13:44:19Z</time>
      </trkpt>
      <trkpt lat="49.89635" lon="2.25261">
        <ele>44.2</ele>
        <time>2023-06-23T13:44:20Z</time>
      </trkpt>
      <trkpt lat="49.89635" lon="2.25264">
        <ele>44.1</ele>
        <time>2023-06-23T13:44:21Z</time>
      </trkpt>
      <trkpt lat="49.89635" lon="2.25266">
        <ele>44</ele>
        <time>2023-06-23T13:44:22Z</time>
      </trkpt>
      <trkpt lat="49.89634" lon="2.25267">
        <ele>44</ele>
        <time>2023-06-23T13:44:23Z</time>
      </trkpt>
      <trkpt lat="49.89634" lon="2.25269">
        <ele>43.9</ele>
        <time>2023-06-23T13:44:24Z</time>
      </trkpt>
      <trkpt lat="49.89633" lon="2.2527">
        <ele>43.9</ele>
        <time>2023-06-23T13:44:25Z</time>
      </trkpt>
      <trkpt lat="49.89633" lon="2.25271">
        <ele>43.8</ele>
        <time>2023-06-23T13:44:26Z</time>
      </trkpt>
      <trkpt lat="49.89631" lon="2.25273">
        <ele>43.7</ele>
        <time>2023-06-23T13:44:28Z</time>
      </trkpt>
      <trkpt lat="49.8963" lon="2.25275">
        <ele>43.6</ele>
        <time>2023-06-23T13:44:29Z</time>
      </trkpt>
      <trkpt lat="49.89629" lon="2.25278">
        <ele>43.5</ele>
        <time>2023-06-23T13:44:30Z</time>
      </trkpt>
      <trkpt lat="49.89629" lon="2.25279">
        <ele>43.5</ele>
        <time>2023-06-23T13:44:31Z</time>
      </trkpt>
      <trkpt lat="49.89628" lon="2.2528">
        <ele>43.4</ele>
        <time>2023-06-23T13:44:32Z</time>
      </trkpt>
      <trkpt lat="49.89628" lon="2.25283">
        <ele>43.3</ele>
        <time>2023-06-23T13:44:34Z</time>
      </trkpt>
      <trkpt lat="49.89627" lon="2.25285">
        <ele>43.3</ele>
        <time>2023-06-23T13:44:35Z</time>
      </trkpt>
      <trkpt lat="49.89627" lon="2.25286">
        <ele>43.3</ele>
        <time>2023-06-23T13:44:36Z</time>
      </trkpt>
      <trkpt lat="49.89626" lon="2.25289">
        <ele>43.1</ele>
        <time>2023-06-23T13:44:37Z</time>
      </trkpt>
      <trkpt lat="49.89626" lon="2.2529">
        <ele>43.1</ele>
        <time>2023-06-23T13:44:38Z</time>
      </trkpt>
      <trkpt lat="49.89626" lon="2.25291">
        <ele>43.1</ele>
        <time>2023-06-23T13:44:39Z</time>
      </trkpt>
      <trkpt lat="49.89626" lon="2.25293">
        <ele>43</ele>
        <time>2023-06-23T13:44:40Z</time>
      </trkpt>
      <trkpt lat="49.89625" lon="2.25296">
        <ele>42.9</ele>
        <time>2023-06-23T13:44:41Z</time>
      </trkpt>
      <trkpt lat="49.89625" lon="2.25298">
        <ele>42.9</ele>
        <time>2023-06-23T13:44:42Z</time>
      </trkpt>
      <trkpt lat="49.89625" lon="2.25299">
        <ele>42.8</ele>
        <time>2023-06-23T13:44:44Z</time>
      </trkpt>
      <trkpt lat="49.89625" lon="2.253">
        <ele>42.8</ele>
        <time>2023-06-23T13:44:45Z</time>
      </trkpt>
      <trkpt lat="49.89624" lon="2.25301">
        <ele>42.7</ele>
        <time>2023-06-23T13:44:46Z</time>
      </trkpt>
      <trkpt lat="49.89624" lon="2.25303">
        <ele>42.7</ele>
        <time>2023-06-23T13:44:47Z</time>
      </trkpt>
      <trkpt lat="49.89624" lon="2.25304">
        <ele>42.6</ele>
        <time>2023-06-23T13:44:48Z</time>
      </trkpt>
      <trkpt lat="49.89623" lon="2.25306">
        <ele>42.6</ele>
        <time>2023-06-23T13:44:49Z</time>
      </trkpt>
      <trkpt lat="49.89623" lon="2.25308">
        <ele>42.5</ele>
        <time>2023-06-23T13:44:51Z</time>
      </trkpt>
      <trkpt lat="49.89623" lon="2.25311">
        <ele>42.4</ele>
        <time>2023-06-23T13:44:52Z</time>
      </trkpt>
      <trkpt lat="49.89622" lon="2.25312">
        <ele>42.4</ele>
        <time>2023-06-23T13:44:53Z</time>
      </trkpt>
      <trkpt lat="49.89622" lon="2.25314">
        <ele>42.3</ele>
        <time>2023-06-23T13:44:54Z</time>
      </trkpt>
      <trkpt lat="49.89622" lon="2.25316">
        <ele>42.3</ele>
        <time>2023-06-23T13:44:55Z</time>
      </trkpt>
      <trkpt lat="49.89621" lon="2.25317">
        <ele>42.2</ele>
        <time>2023-06-23T13:44:56Z</time>
      </trkpt>
      <trkpt lat="49.89621" lon="2.25319">
        <ele>42.1</ele>
        <time>2023-06-23T13:44:57Z</time>
      </trkpt>
      <trkpt lat="49.8962" lon="2.2532">
        <ele>42.1</ele>
        <time>2023-06-23T13:44:58Z</time>
      </trkpt>
      <trkpt lat="49.89619" lon="2.25323">
        <ele>42</ele>
        <time>2023-06-23T13:44:59Z</time>
      </trkpt>
      <trkpt lat="49.89619" lon="2.25325">
        <ele>41.9</ele>
        <time>2023-06-23T13:45:01Z</time>
      </trkpt>
      <trkpt lat="49.89619" lon="2.25326">
        <ele>41.9</ele>
        <time>2023-06-23T13:45:02Z</time>
      </trkpt>
      <trkpt lat="49.89618" lon="2.25329">
        <ele>41.8</ele>
        <time>2023-06-23T13:45:03Z</time>
      </trkpt>
      <trkpt lat="49.89617" lon="2.2533">
        <ele>41.7</ele>
        <time>2023-06-23T13:45:04Z</time>
      </trkpt>
      <trkpt lat="49.89617" lon="2.25332">
        <ele>41.7</ele>
        <time>2023-06-23T13:45:05Z</time>
      </trkpt>
      <trkpt lat="49.89616" lon="2.25333">
        <ele>41.6</ele>
        <time>2023-06-23T13:45:06Z</time>
      </trkpt>
      <trkpt lat="49.89615" lon="2.25336">
        <ele>41.5</ele>
        <time>2023-06-23T13:45:08Z</time>
      </trkpt>
      <trkpt lat="49.89615" lon="2.25338">
        <ele>41.5</ele>
        <time>2023-06-23T13:45:09Z</time>
      </trkpt>
      <trkpt lat="49.89614" lon="2.25341">
        <ele>41.4</ele>
        <time>2023-06-23T13:45:10Z</time>
      </trkpt>
      <trkpt lat="49.89613" lon="2.25342">
        <ele>41.3</ele>
        <time>2023-06-23T13:45:11Z</time>
      </trkpt>
      <trkpt lat="49.89612" lon="2.25345">
        <ele>41.2</ele>
        <time>2023-06-23T13:45:12Z</time>
      </trkpt>
      <trkpt lat="49.89612" lon="2.25347">
        <ele>41.2</ele>
        <time>2023-06-23T13:45:13Z</time>
      </trkpt>
      <trkpt lat="49.89612" lon="2.25348">
        <ele>41.1</ele>
        <time>2023-06-23T13:45:14Z</time>
      </trkpt>
      <trkpt lat="49.89611" lon="2.2535">
        <ele>41.1</ele>
        <time>2023-06-23T13:45:15Z</time>
      </trkpt>
      <trkpt lat="49.8961" lon="2.25353">
        <ele>41</ele>
        <time>2023-06-23T13:45:16Z</time>
      </trkpt>
      <trkpt lat="49.8961" lon="2.25354">
        <ele>40.9</ele>
        <time>2023-06-23T13:45:17Z</time>
      </trkpt>
      <trkpt lat="49.89609" lon="2.25355">
        <ele>40.9</ele>
        <time>2023-06-23T13:45:18Z</time>
      </trkpt>
      <trkpt lat="49.89609" lon="2.25358">
        <ele>40.8</ele>
        <time>2023-06-23T13:45:19Z</time>
      </trkpt>
      <trkpt lat="49.89608" lon="2.2536">
        <ele>40.8</ele>
        <time>2023-06-23T13:45:20Z</time>
      </trkpt>
      <trkpt lat="49.89608" lon="2.25361">
        <ele>40.7</ele>
        <time>2023-06-23T13:45:21Z</time>
      </trkpt>
      <trkpt lat="49.89607" lon="2.25364">
        <ele>40.6</ele>
        <time>2023-06-23T13:45:23Z</time>
      </trkpt>
      <trkpt lat="49.89607" lon="2.25366">
        <ele>40.6</ele>
        <time>2023-06-23T13:45:24Z</time>
      </trkpt>
      <trkpt lat="49.89606" lon="2.25367">
        <ele>40.5</ele>
        <time>2023-06-23T13:45:25Z</time>
      </trkpt>
      <trkpt lat="49.89606" lon="2.25369">
        <ele>40.5</ele>
        <time>2023-06-23T13:45:26Z</time>
      </trkpt>
      <trkpt lat="49.89605" lon="2.25372">
        <ele>40.4</ele>
        <time>2023-06-23T13:45:27Z</time>
      </trkpt>
      <trkpt lat="49.89605" lon="2.25373">
        <ele>40.4</ele>
        <time>2023-06-23T13:45:28Z</time>
      </trkpt>
      <trkpt lat="49.89605" lon="2.25375">
        <ele>40.3</ele>
        <time>2023-06-23T13:45:29Z</time>
      </trkpt>
      <trkpt lat="49.89605" lon="2.25377">
        <ele>40.2</ele>
        <time>2023-06-23T13:45:31Z</time>
      </trkpt>
      <trkpt lat="49.89605" lon="2.25378">
        <ele>40.2</ele>
        <time>2023-06-23T13:45:32Z</time>
      </trkpt>
      <trkpt lat="49.89604" lon="2.25381">
        <ele>40.1</ele>
        <time>2023-06-23T13:45:33Z</time>
      </trkpt>
      <trkpt lat="49.89604" lon="2.25383">
        <ele>40.1</ele>
        <time>2023-06-23T13:45:34Z</time>
      </trkpt>
      <trkpt lat="49.89604" lon="2.25385">
        <ele>40</ele>
        <time>2023-06-23T13:45:35Z</time>
      </trkpt>
      <trkpt lat="49.89603" lon="2.25386">
        <ele>40</ele>
        <time>2023-06-23T13:45:36Z</time>
      </trkpt>
      <trkpt lat="49.89603" lon="2.25389">
        <ele>39.9</ele>
        <time>2023-06-23T13:45:37Z</time>
      </trkpt>
      <trkpt lat="49.89602" lon="2.2539">
        <ele>39.9</ele>
        <time>2023-06-23T13:45:38Z</time>
      </trkpt>
      <trkpt lat="49.89601" lon="2.25391">
        <ele>39.8</ele>
        <time>2023-06-23T13:45:39Z</time>
      </trkpt>
      <trkpt lat="49.89601" lon="2.25392">
        <ele>39.8</ele>
        <time>2023-06-23T13:45:40Z</time>
      </trkpt>
      <trkpt lat="49.896" lon="2.25394">
        <ele>39.7</ele>
        <time>2023-06-23T13:45:42Z</time>
      </trkpt>
      <trkpt lat="49.896" lon="2.25396">
        <ele>39.7</ele>
        <time>2023-06-23T13:45:43Z</time>
      </trkpt>
      <trkpt lat="49.896" lon="2.25397">
        <ele>39.7</ele>
        <time>2023-06-23T13:45:44Z</time>
      </trkpt>
      <trkpt lat="49.896" lon="2.25399">
        <ele>39.6</ele>
        <time>2023-06-23T13:45:45Z</time>
      </trkpt>
      <trkpt lat="49.896" lon="2.254">
        <ele>39.6</ele>
        <time>2023-06-23T13:45:46Z</time>
      </trkpt>
      <trkpt lat="49.896" lon="2.25402">
        <ele>39.5</ele>
        <time>2023-06-23T13:45:47Z</time>
      </trkpt>
      <trkpt lat="49.896" lon="2.25404">
        <ele>39.5</ele>
        <time>2023-06-23T13:45:48Z</time>
      </trkpt>
      <trkpt lat="49.896" lon="2.25405">
        <ele>39.5</ele>
        <time>2023-06-23T13:45:49Z</time>
      </trkpt>
      <trkpt lat="49.896" lon="2.25407">
        <ele>39.4</ele>
        <time>2023-06-23T13:45:50Z</time>
      </trkpt>
      <trkpt lat="49.89601" lon="2.25408">
        <ele>39.4</ele>
        <time>2023-06-23T13:45:51Z</time>
      </trkpt>
      <trkpt lat="49.89601" lon="2.2541">
        <ele>39.3</ele>
        <time>2023-06-23T13:45:52Z</time>
      </trkpt>
      <trkpt lat="49.89602" lon="2.25411">
        <ele>39.3</ele>
        <time>2023-06-23T13:45:53Z</time>
      </trkpt>
      <trkpt lat="49.89602" lon="2.25412">
        <ele>39.3</ele>
        <time>2023-06-23T13:45:54Z</time>
      </trkpt>
      <trkpt lat="49.89603" lon="2.25414">
        <ele>39.2</ele>
        <time>2023-06-23T13:45:56Z</time>
      </trkpt>
      <trkpt lat="49.89603" lon="2.25415">
        <ele>39.2</ele>
        <time>2023-06-23T13:45:57Z</time>
      </trkpt>
      <trkpt lat="49.89603" lon="2.25417">
        <ele>39.1</ele>
        <time>2023-06-23T13:45:58Z</time>
      </trkpt>
      <trkpt lat="49.89602" lon="2.25419">
        <ele>39.1</ele>
        <time>2023-06-23T13:45:59Z</time>
      </trkpt>
      <trkpt lat="49.89602" lon="2.25423">
        <ele>39</ele>
        <time>2023-06-23T13:46:00Z</time>
      </trkpt>
      <trkpt lat="49.89601" lon="2.25424">
        <ele>39</ele>
        <time>2023-06-23T13:46:01Z</time>
      </trkpt>
      <trkpt lat="49.89601" lon="2.25426">
        <ele>38.9</ele>
        <time>2023-06-23T13:46:02Z</time>
      </trkpt>
      <trkpt lat="49.896" lon="2.25429">
        <ele>38.8</ele>
        <time>2023-06-23T13:46:04Z</time>
      </trkpt>
      <trkpt lat="49.896" lon="2.2543">
        <ele>38.8</ele>
        <time>2023-06-23T13:46:05Z</time>
      </trkpt>
      <trkpt lat="49.89599" lon="2.25431">
        <ele>38.8</ele>
        <time>2023-06-23T13:46:06Z</time>
      </trkpt>
      <trkpt lat="49.89598" lon="2.25434">
        <ele>38.7</ele>
        <time>2023-06-23T13:46:07Z</time>
      </trkpt>
      <trkpt lat="49.89598" lon="2.25435">
        <ele>38.7</ele>
        <time>2023-06-23T13:46:08Z</time>
      </trkpt>
      <trkpt lat="49.89596" lon="2.25437">
        <ele>38.6</ele>
        <time>2023-06-23T13:46:10Z</time>
      </trkpt>
      <trkpt lat="49.89596" lon="2.25438">
        <ele>38.6</ele>
        <time>2023-06-23T13:46:11Z</time>
      </trkpt>
      <trkpt lat="49.89595" lon="2.25439">
        <ele>38.5</ele>
        <time>2023-06-23T13:46:12Z</time>
      </trkpt>
      <trkpt lat="49.89594" lon="2.25442">
        <ele>38.5</ele>
        <time>2023-06-23T13:46:13Z</time>
      </trkpt>
      <trkpt lat="49.89593" lon="2.25442">
        <ele>38.4</ele>
        <time>2023-06-23T13:46:14Z</time>
      </trkpt>
      <trkpt lat="49.89592" lon="2.25443">
        <ele>38.4</ele>
        <time>2023-06-23T13:46:15Z</time>
      </trkpt>
      <trkpt lat="49.89591" lon="2.25446">
        <ele>38.3</ele>
        <time>2023-06-23T13:46:16Z</time>
      </trkpt>
      <trkpt lat="49.89591" lon="2.25447">
        <ele>38.3</ele>
        <time>2023-06-23T13:46:17Z</time>
      </trkpt>
      <trkpt lat="49.8959" lon="2.25448">
        <ele>38.3</ele>
        <time>2023-06-23T13:46:18Z</time>
      </trkpt>
      <trkpt lat="49.8959" lon="2.25449">
        <ele>38.2</ele>
        <time>2023-06-23T13:46:19Z</time>
      </trkpt>
      <trkpt lat="49.89589" lon="2.2545">
        <ele>38.2</ele>
        <time>2023-06-23T13:46:20Z</time>
      </trkpt>
      <trkpt lat="49.89588" lon="2.25452">
        <ele>38.1</ele>
        <time>2023-06-23T13:46:21Z</time>
      </trkpt>
      <trkpt lat="49.89587" lon="2.25455">
        <ele>38.1</ele>
        <time>2023-06-23T13:46:22Z</time>
      </trkpt>
      <trkpt lat="49.89587" lon="2.25456">
        <ele>38</ele>
        <time>2023-06-23T13:46:23Z</time>
      </trkpt>
      <trkpt lat="49.89587" lon="2.25457">
        <ele>38</ele>
        <time>2023-06-23T13:46:24Z</time>
      </trkpt>
      <trkpt lat="49.89586" lon="2.25459">
        <ele>38</ele>
        <time>2023-06-23T13:46:25Z</time>
      </trkpt>
      <trkpt lat="49.89586" lon="2.2546">
        <ele>37.9</ele>
        <time>2023-06-23T13:46:27Z</time>
      </trkpt>
      <trkpt lat="49.89586" lon="2.25461">
        <ele>37.9</ele>
        <time>2023-06-23T13:46:28Z</time>
      </trkpt>
      <trkpt lat="49.89586" lon="2.25463">
        <ele>37.9</ele>
        <time>2023-06-23T13:46:29Z</time>
      </trkpt>
      <trkpt lat="49.89585" lon="2.25464">
        <ele>37.8</ele>
        <time>2023-06-23T13:46:30Z</time>
      </trkpt>
      <trkpt lat="49.89585" lon="2.25466">
        <ele>37.8</ele>
        <time>2023-06-23T13:46:31Z</time>
      </trkpt>
      <trkpt lat="49.89584" lon="2.25468">
        <ele>37.8</ele>
        <time>2023-06-23T13:46:32Z</time>
      </trkpt>
      <trkpt lat="49.89584" lon="2.25471">
        <ele>37.7</ele>
        <time>2023-06-23T13:46:33Z</time>
      </trkpt>
      <trkpt lat="49.89583" lon="2.25474">
        <ele>37.6</ele>
        <time>2023-06-23T13:46:35Z</time>
      </trkpt>
      <trkpt lat="49.89582" lon="2.25476">
        <ele>37.6</ele>
        <time>2023-06-23T13:46:36Z</time>
      </trkpt>
      <trkpt lat="49.89582" lon="2.25477">
        <ele>37.5</ele>
        <time>2023-06-23T13:46:37Z</time>
      </trkpt>
      <trkpt lat="49.89581" lon="2.25479">
        <ele>37.5</ele>
        <time>2023-06-23T13:46:38Z</time>
      </trkpt>
      <trkpt lat="49.89581" lon="2.2548">
        <ele>37.5</ele>
        <time>2023-06-23T13:46:39Z</time>
      </trkpt>
      <trkpt lat="49.8958" lon="2.25482">
        <ele>37.4</ele>
        <time>2023-06-23T13:46:40Z</time>
      </trkpt>
      <trkpt lat="49.89579" lon="2.25485">
        <ele>37.4</ele>
        <time>2023-06-23T13:46:41Z</time>
      </trkpt>
      <trkpt lat="49.89579" lon="2.25485">
        <ele>37.3</ele>
        <time>2023-06-23T13:46:42Z</time>
      </trkpt>
      <trkpt lat="49.89579" lon="2.25487">
        <ele>37.3</ele>
        <time>2023-06-23T13:46:43Z</time>
      </trkpt>
      <trkpt lat="49.89579" lon="2.25489">
        <ele>37.3</ele>
        <time>2023-06-23T13:46:44Z</time>
      </trkpt>
      <trkpt lat="49.89578" lon="2.25491">
        <ele>37.2</ele>
        <time>2023-06-23T13:46:45Z</time>
      </trkpt>
      <trkpt lat="49.89578" lon="2.25493">
        <ele>37.2</ele>
        <time>2023-06-23T13:46:47Z</time>
      </trkpt>
      <trkpt lat="49.89577" lon="2.25495">
        <ele>37.1</ele>
        <time>2023-06-23T13:46:48Z</time>
      </trkpt>
      <trkpt lat="49.89577" lon="2.25497">
        <ele>37.1</ele>
        <time>2023-06-23T13:46:49Z</time>
      </trkpt>
      <trkpt lat="49.89577" lon="2.25499">
        <ele>37.1</ele>
        <time>2023-06-23T13:46:50Z</time>
      </trkpt>
      <trkpt lat="49.89576" lon="2.25501">
        <ele>37</ele>
        <time>2023-06-23T13:46:51Z</time>
      </trkpt>
      <trkpt lat="49.89576" lon="2.25503">
        <ele>37</ele>
        <time>2023-06-23T13:46:52Z</time>
      </trkpt>
      <trkpt lat="49.89575" lon="2.25506">
        <ele>36.9</ele>
        <time>2023-06-23T13:46:54Z</time>
      </trkpt>
      <trkpt lat="49.89575" lon="2.25507">
        <ele>36.9</ele>
        <time>2023-06-23T13:46:55Z</time>
      </trkpt>
      <trkpt lat="49.89575" lon="2.25509">
        <ele>36.9</ele>
        <time>2023-06-23T13:46:56Z</time>
      </trkpt>
      <trkpt lat="49.89575" lon="2.2551">
        <ele>36.9</ele>
        <time>2023-06-23T13:46:57Z</time>
      </trkpt>
      <trkpt lat="49.89575" lon="2.25511">
        <ele>36.8</ele>
        <time>2023-06-23T13:46:58Z</time>
      </trkpt>
      <trkpt lat="49.89575" lon="2.25513">
        <ele>36.8</ele>
        <time>2023-06-23T13:46:59Z</time>
      </trkpt>
      <trkpt lat="49.89574" lon="2.25515">
        <ele>36.7</ele>
        <time>2023-06-23T13:47:00Z</time>
      </trkpt>
      <trkpt lat="49.89574" lon="2.25518">
        <ele>36.7</ele>
        <time>2023-06-23T13:47:02Z</time>
      </trkpt>
      <trkpt lat="49.89573" lon="2.2552">
        <ele>36.7</ele>
        <time>2023-06-23T13:47:03Z</time>
      </trkpt>
      <trkpt lat="49.89572" lon="2.25522">
        <ele>36.6</ele>
        <time>2023-06-23T13:47:04Z</time>
      </trkpt>
      <trkpt lat="49.89572" lon="2.25524">
        <ele>36.6</ele>
        <time>2023-06-23T13:47:05Z</time>
      </trkpt>
      <trkpt lat="49.89571" lon="2.25527">
        <ele>36.5</ele>
        <time>2023-06-23T13:47:06Z</time>
      </trkpt>
      <trkpt lat="49.89571" lon="2.25529">
        <ele>36.5</ele>
        <time>2023-06-23T13:47:07Z</time>
      </trkpt>
      <trkpt lat="49.89571" lon="2.25532">
        <ele>36.4</ele>
        <time>2023-06-23T13:47:09Z</time>
      </trkpt>
      <trkpt lat="49.8957" lon="2.25534">
        <ele>36.4</ele>
        <time>2023-06-23T13:47:10Z</time>
      </trkpt>
      <trkpt lat="49.8957" lon="2.25537">
        <ele>36.3</ele>
        <time>2023-06-23T13:47:11Z</time>
      </trkpt>
      <trkpt lat="49.89569" lon="2.2554">
        <ele>36.3</ele>
        <time>2023-06-23T13:47:12Z</time>
      </trkpt>
      <trkpt lat="49.89569" lon="2.25541">
        <ele>36.3</ele>
        <time>2023-06-23T13:47:13Z</time>
      </trkpt>
      <trkpt lat="49.89568" lon="2.25543">
        <ele>36.2</ele>
        <time>2023-06-23T13:47:14Z</time>
      </trkpt>
      <trkpt lat="49.89568" lon="2.25545">
        <ele>36.2</ele>
        <time>2023-06-23T13:47:15Z</time>
      </trkpt>
      <trkpt lat="49.89567" lon="2.25548">
        <ele>36.2</ele>
        <time>2023-06-23T13:47:16Z</time>
      </trkpt>
      <trkpt lat="49.89567" lon="2.2555">
        <ele>36.1</ele>
        <time>2023-06-23T13:47:18Z</time>
      </trkpt>
      <trkpt lat="49.89566" lon="2.25553">
        <ele>36.1</ele>
        <time>2023-06-23T13:47:19Z</time>
      </trkpt>
      <trkpt lat="49.89566" lon="2.25555">
        <ele>36</ele>
        <time>2023-06-23T13:47:20Z</time>
      </trkpt>
      <trkpt lat="49.89565" lon="2.25558">
        <ele>36</ele>
        <time>2023-06-23T13:47:21Z</time>
      </trkpt>
      <trkpt lat="49.89565" lon="2.25561">
        <ele>35.9</ele>
        <time>2023-06-23T13:47:22Z</time>
      </trkpt>
      <trkpt lat="49.89565" lon="2.25563">
        <ele>35.9</ele>
        <time>2023-06-23T13:47:24Z</time>
      </trkpt>
      <trkpt lat="49.89565" lon="2.25564">
        <ele>35.9</ele>
        <time>2023-06-23T13:47:25Z</time>
      </trkpt>
      <trkpt lat="49.89564" lon="2.25566">
        <ele>35.9</ele>
        <time>2023-06-23T13:47:26Z</time>
      </trkpt>
      <trkpt lat="49.89564" lon="2.25569">
        <ele>35.8</ele>
        <time>2023-06-23T13:47:27Z</time>
      </trkpt>
      <trkpt lat="49.89564" lon="2.2557">
        <ele>35.8</ele>
        <time>2023-06-23T13:47:28Z</time>
      </trkpt>
      <trkpt lat="49.89564" lon="2.25573">
        <ele>35.8</ele>
        <time>2023-06-23T13:47:29Z</time>
      </trkpt>
      <trkpt lat="49.89564" lon="2.25575">
        <ele>35.7</ele>
        <time>2023-06-23T13:47:31Z</time>
      </trkpt>
      <trkpt lat="49.89564" lon="2.25577">
        <ele>35.7</ele>
        <time>2023-06-23T13:47:32Z</time>
      </trkpt>
      <trkpt lat="49.89564" lon="2.25579">
        <ele>35.7</ele>
        <time>2023-06-23T13:47:33Z</time>
      </trkpt>
      <trkpt lat="49.89564" lon="2.25582">
        <ele>35.6</ele>
        <time>2023-06-23T13:47:34Z</time>
      </trkpt>
      <trkpt lat="49.89564" lon="2.25584">
        <ele>35.6</ele>
        <time>2023-06-23T13:47:35Z</time>
      </trkpt>
      <trkpt lat="49.89564" lon="2.25585">
        <ele>35.6</ele>
        <time>2023-06-23T13:47:36Z</time>
      </trkpt>
      <trkpt lat="49.89564" lon="2.25586">
        <ele>35.4</ele>
        <time>2023-06-23T13:47:37Z</time>
      </trkpt>
      <trkpt lat="49.89564" lon="2.25588">
        <ele>35.4</ele>
        <time>2023-06-23T13:47:38Z</time>
      </trkpt>
      <trkpt lat="49.89564" lon="2.25589">
        <ele>35.4</ele>
        <time>2023-06-23T13:47:39Z</time>
      </trkpt>
      <trkpt lat="49.89565" lon="2.25591">
        <ele>35.4</ele>
        <time>2023-06-23T13:47:40Z</time>
      </trkpt>
      <trkpt lat="49.89565" lon="2.25593">
        <ele>35.4</ele>
        <time>2023-06-23T13:47:41Z</time>
      </trkpt>
      <trkpt lat="49.89566" lon="2.25595">
        <ele>35.3</ele>
        <time>2023-06-23T13:47:43Z</time>
      </trkpt>
      <trkpt lat="49.89566" lon="2.25597">
        <ele>35.3</ele>
        <time>2023-06-23T13:47:44Z</time>
      </trkpt>
      <trkpt lat="49.89567" lon="2.25599">
        <ele>35.3</ele>
        <time>2023-06-23T13:47:45Z</time>
      </trkpt>
      <trkpt lat="49.89567" lon="2.256">
        <ele>35.3</ele>
        <time>2023-06-23T13:47:46Z</time>
      </trkpt>
      <trkpt lat="49.89568" lon="2.25603">
        <ele>35.2</ele>
        <time>2023-06-23T13:47:47Z</time>
      </trkpt>
      <trkpt lat="49.89568" lon="2.25604">
        <ele>35.2</ele>
        <time>2023-06-23T13:47:48Z</time>
      </trkpt>
      <trkpt lat="49.89568" lon="2.25606">
        <ele>35.1</ele>
        <time>2023-06-23T13:47:49Z</time>
      </trkpt>
      <trkpt lat="49.89568" lon="2.25608">
        <ele>35.1</ele>
        <time>2023-06-23T13:47:50Z</time>
      </trkpt>
      <trkpt lat="49.89568" lon="2.2561">
        <ele>35.1</ele>
        <time>2023-06-23T13:47:51Z</time>
      </trkpt>
      <trkpt lat="49.89568" lon="2.25611">
        <ele>35</ele>
        <time>2023-06-23T13:47:53Z</time>
      </trkpt>
      <trkpt lat="49.89568" lon="2.25613">
        <ele>35</ele>
        <time>2023-06-23T13:47:54Z</time>
      </trkpt>
      <trkpt lat="49.89567" lon="2.25615">
        <ele>35</ele>
        <time>2023-06-23T13:47:55Z</time>
      </trkpt>
      <trkpt lat="49.89566" lon="2.25618">
        <ele>34.9</ele>
        <time>2023-06-23T13:47:56Z</time>
      </trkpt>
      <trkpt lat="49.89566" lon="2.25619">
        <ele>34.9</ele>
        <time>2023-06-23T13:47:57Z</time>
      </trkpt>
      <trkpt lat="49.89565" lon="2.25621">
        <ele>34.8</ele>
        <time>2023-06-23T13:47:58Z</time>
      </trkpt>
      <trkpt lat="49.89565" lon="2.25622">
        <ele>34.8</ele>
        <time>2023-06-23T13:48:00Z</time>
      </trkpt>
      <trkpt lat="49.89564" lon="2.25624">
        <ele>34.8</ele>
        <time>2023-06-23T13:48:01Z</time>
      </trkpt>
      <trkpt lat="49.89564" lon="2.25625">
        <ele>34.7</ele>
        <time>2023-06-23T13:48:02Z</time>
      </trkpt>
      <trkpt lat="49.89563" lon="2.25626">
        <ele>34.7</ele>
        <time>2023-06-23T13:48:03Z</time>
      </trkpt>
      <trkpt lat="49.89562" lon="2.25629">
        <ele>34.6</ele>
        <time>2023-06-23T13:48:04Z</time>
      </trkpt>
      <trkpt lat="49.89561" lon="2.2563">
        <ele>34.6</ele>
        <time>2023-06-23T13:48:05Z</time>
      </trkpt>
      <trkpt lat="49.8956" lon="2.25632">
        <ele>34.5</ele>
        <time>2023-06-23T13:48:06Z</time>
      </trkpt>
      <trkpt lat="49.89559" lon="2.25634">
        <ele>34.5</ele>
        <time>2023-06-23T13:48:07Z</time>
      </trkpt>
      <trkpt lat="49.89559" lon="2.25635">
        <ele>34.4</ele>
        <time>2023-06-23T13:48:08Z</time>
      </trkpt>
      <trkpt lat="49.89558" lon="2.25637">
        <ele>34.4</ele>
        <time>2023-06-23T13:48:09Z</time>
      </trkpt>
      <trkpt lat="49.89557" lon="2.25639">
        <ele>34.3</ele>
        <time>2023-06-23T13:48:11Z</time>
      </trkpt>
      <trkpt lat="49.89556" lon="2.25642">
        <ele>34.2</ele>
        <time>2023-06-23T13:48:12Z</time>
      </trkpt>
      <trkpt lat="49.89556" lon="2.25643">
        <ele>34.2</ele>
        <time>2023-06-23T13:48:13Z</time>
      </trkpt>
      <trkpt lat="49.89555" lon="2.25646">
        <ele>34.1</ele>
        <time>2023-06-23T13:48:14Z</time>
      </trkpt>
      <trkpt lat="49.89554" lon="2.25647">
        <ele>34.1</ele>
        <time>2023-06-23T13:48:15Z</time>
      </trkpt>
      <trkpt lat="49.89554" lon="2.25648">
        <ele>34.1</ele>
        <time>2023-06-23T13:48:16Z</time>
      </trkpt>
      <trkpt lat="49.89553" lon="2.25651">
        <ele>34</ele>
        <time>2023-06-23T13:48:17Z</time>
      </trkpt>
      <trkpt lat="49.89553" lon="2.25652">
        <ele>33.9</ele>
        <time>2023-06-23T13:48:18Z</time>
      </trkpt>
      <trkpt lat="49.89552" lon="2.25653">
        <ele>33.9</ele>
        <time>2023-06-23T13:48:19Z</time>
      </trkpt>
      <trkpt lat="49.89551" lon="2.25655">
        <ele>33.8</ele>
        <time>2023-06-23T13:48:20Z</time>
      </trkpt>
      <trkpt lat="49.8955" lon="2.25657">
        <ele>33.8</ele>
        <time>2023-06-23T13:48:21Z</time>
      </trkpt>
      <trkpt lat="49.8955" lon="2.25658">
        <ele>33.7</ele>
        <time>2023-06-23T13:48:23Z</time>
      </trkpt>
      <trkpt lat="49.89549" lon="2.25659">
        <ele>33.7</ele>
        <time>2023-06-23T13:48:24Z</time>
      </trkpt>
      <trkpt lat="49.89549" lon="2.2566">
        <ele>33.7</ele>
        <time>2023-06-23T13:48:25Z</time>
      </trkpt>
      <trkpt lat="49.89547" lon="2.25662">
        <ele>33.6</ele>
        <time>2023-06-23T13:48:26Z</time>
      </trkpt>
      <trkpt lat="49.89547" lon="2.25663">
        <ele>33.5</ele>
        <time>2023-06-23T13:48:27Z</time>
      </trkpt>
      <trkpt lat="49.89546" lon="2.25664">
        <ele>33.5</ele>
        <time>2023-06-23T13:48:28Z</time>
      </trkpt>
      <trkpt lat="49.89545" lon="2.25666">
        <ele>33.4</ele>
        <time>2023-06-23T13:48:30Z</time>
      </trkpt>
      <trkpt lat="49.89544" lon="2.25668">
        <ele>33.4</ele>
        <time>2023-06-23T13:48:31Z</time>
      </trkpt>
      <trkpt lat="49.89542" lon="2.2567">
        <ele>33.3</ele>
        <time>2023-06-23T13:48:32Z</time>
      </trkpt>
      <trkpt lat="49.89542" lon="2.25671">
        <ele>33.2</ele>
        <time>2023-06-23T13:48:33Z</time>
      </trkpt>
      <trkpt lat="49.89541" lon="2.25672">
        <ele>33.2</ele>
        <time>2023-06-23T13:48:34Z</time>
      </trkpt>
      <trkpt lat="49.89541" lon="2.25673">
        <ele>33.2</ele>
        <time>2023-06-23T13:48:35Z</time>
      </trkpt>
      <trkpt lat="49.8954" lon="2.25674">
        <ele>33.1</ele>
        <time>2023-06-23T13:48:36Z</time>
      </trkpt>
      <trkpt lat="49.89539" lon="2.25675">
        <ele>33.1</ele>
        <time>2023-06-23T13:48:37Z</time>
      </trkpt>
      <trkpt lat="49.89538" lon="2.25677">
        <ele>33</ele>
        <time>2023-06-23T13:48:38Z</time>
      </trkpt>
      <trkpt lat="49.89538" lon="2.25678">
        <ele>33</ele>
        <time>2023-06-23T13:48:39Z</time>
      </trkpt>
      <trkpt lat="49.89537" lon="2.2568">
        <ele>32.9</ele>
        <time>2023-06-23T13:48:41Z</time>
      </trkpt>
      <trkpt lat="49.89536" lon="2.25681">
        <ele>32.9</ele>
        <time>2023-06-23T13:48:42Z</time>
      </trkpt>
      <trkpt lat="49.89536" lon="2.25682">
        <ele>32.8</ele>
        <time>2023-06-23T13:48:43Z</time>
      </trkpt>
      <trkpt lat="49.89535" lon="2.25683">
        <ele>32.8</ele>
        <time>2023-06-23T13:48:44Z</time>
      </trkpt>
      <trkpt lat="49.89534" lon="2.25684">
        <ele>32.7</ele>
        <time>2023-06-23T13:48:45Z</time>
      </trkpt>
      <trkpt lat="49.89533" lon="2.25686">
        <ele>32.7</ele>
        <time>2023-06-23T13:48:46Z</time>
      </trkpt>
      <trkpt lat="49.89533" lon="2.25687">
        <ele>32.6</ele>
        <time>2023-06-23T13:48:47Z</time>
      </trkpt>
      <trkpt lat="49.89532" lon="2.25688">
        <ele>32.6</ele>
        <time>2023-06-23T13:48:48Z</time>
      </trkpt>
      <trkpt lat="49.89531" lon="2.25689">
        <ele>32.5</ele>
        <time>2023-06-23T13:48:49Z</time>
      </trkpt>
      <trkpt lat="49.8953" lon="2.25691">
        <ele>32.5</ele>
        <time>2023-06-23T13:48:50Z</time>
      </trkpt>
      <trkpt lat="49.89529" lon="2.25692">
        <ele>32.4</ele>
        <time>2023-06-23T13:48:51Z</time>
      </trkpt>
      <trkpt lat="49.89528" lon="2.25693">
        <ele>32.4</ele>
        <time>2023-06-23T13:48:52Z</time>
      </trkpt>
      <trkpt lat="49.89528" lon="2.25695">
        <ele>32.3</ele>
        <time>2023-06-23T13:48:53Z</time>
      </trkpt>
      <trkpt lat="49.89527" lon="2.25699">
        <ele>32.2</ele>
        <time>2023-06-23T13:48:54Z</time>
      </trkpt>
      <trkpt lat="49.89527" lon="2.257">
        <ele>32.2</ele>
        <time>2023-06-23T13:48:56Z</time>
      </trkpt>
      <trkpt lat="49.89526" lon="2.25701">
        <ele>32.1</ele>
        <time>2023-06-23T13:48:57Z</time>
      </trkpt>
      <trkpt lat="49.89526" lon="2.25703">
        <ele>32.1</ele>
        <time>2023-06-23T13:48:58Z</time>
      </trkpt>
      <trkpt lat="49.89525" lon="2.25704">
        <ele>32</ele>
        <time>2023-06-23T13:48:59Z</time>
      </trkpt>
      <trkpt lat="49.89524" lon="2.25705">
        <ele>32</ele>
        <time>2023-06-23T13:49:00Z</time>
      </trkpt>
      <trkpt lat="49.89523" lon="2.25707">
        <ele>31.9</ele>
        <time>2023-06-23T13:49:01Z</time>
      </trkpt>
      <trkpt lat="49.89522" lon="2.25708">
        <ele>31.8</ele>
        <time>2023-06-23T13:49:03Z</time>
      </trkpt>
      <trkpt lat="49.8952" lon="2.2571">
        <ele>31.8</ele>
        <time>2023-06-23T13:49:04Z</time>
      </trkpt>
      <trkpt lat="49.89519" lon="2.25711">
        <ele>31.7</ele>
        <time>2023-06-23T13:49:05Z</time>
      </trkpt>
      <trkpt lat="49.89518" lon="2.25712">
        <ele>31.6</ele>
        <time>2023-06-23T13:49:06Z</time>
      </trkpt>
      <trkpt lat="49.89517" lon="2.25713">
        <ele>31.6</ele>
        <time>2023-06-23T13:49:07Z</time>
      </trkpt>
      <trkpt lat="49.89515" lon="2.25714">
        <ele>31.5</ele>
        <time>2023-06-23T13:49:08Z</time>
      </trkpt>
      <trkpt lat="49.89514" lon="2.25714">
        <ele>31.4</ele>
        <time>2023-06-23T13:49:09Z</time>
      </trkpt>
      <trkpt lat="49.89513" lon="2.25715">
        <ele>31.4</ele>
        <time>2023-06-23T13:49:10Z</time>
      </trkpt>
      <trkpt lat="49.89512" lon="2.25716">
        <ele>31.3</ele>
        <time>2023-06-23T13:49:12Z</time>
      </trkpt>
      <trkpt lat="49.89512" lon="2.25718">
        <ele>31.3</ele>
        <time>2023-06-23T13:49:13Z</time>
      </trkpt>
      <trkpt lat="49.89511" lon="2.25719">
        <ele>31.3</ele>
        <time>2023-06-23T13:49:14Z</time>
      </trkpt>
      <trkpt lat="49.89511" lon="2.25721">
        <ele>31.2</ele>
        <time>2023-06-23T13:49:15Z</time>
      </trkpt>
      <trkpt lat="49.8951" lon="2.25722">
        <ele>31.2</ele>
        <time>2023-06-23T13:49:16Z</time>
      </trkpt>
      <trkpt lat="49.89509" lon="2.25723">
        <ele>31.1</ele>
        <time>2023-06-23T13:49:17Z</time>
      </trkpt>
      <trkpt lat="49.89508" lon="2.25725">
        <ele>31</ele>
        <time>2023-06-23T13:49:19Z</time>
      </trkpt>
      <trkpt lat="49.89507" lon="2.25726">
        <ele>31</ele>
        <time>2023-06-23T13:49:20Z</time>
      </trkpt>
      <trkpt lat="49.89506" lon="2.25728">
        <ele>30.9</ele>
        <time>2023-06-23T13:49:21Z</time>
      </trkpt>
      <trkpt lat="49.89506" lon="2.25729">
        <ele>30.9</ele>
        <time>2023-06-23T13:49:22Z</time>
      </trkpt>
      <trkpt lat="49.89505" lon="2.2573">
        <ele>30.8</ele>
        <time>2023-06-23T13:49:23Z</time>
      </trkpt>
      <trkpt lat="49.89505" lon="2.25732">
        <ele>30.8</ele>
        <time>2023-06-23T13:49:24Z</time>
      </trkpt>
      <trkpt lat="49.89505" lon="2.25733">
        <ele>30.8</ele>
        <time>2023-06-23T13:49:25Z</time>
      </trkpt>
      <trkpt lat="49.89504" lon="2.25733">
        <ele>30.7</ele>
        <time>2023-06-23T13:49:26Z</time>
      </trkpt>
      <trkpt lat="49.89503" lon="2.25734">
        <ele>30.7</ele>
        <time>2023-06-23T13:49:27Z</time>
      </trkpt>
      <trkpt lat="49.89503" lon="2.25735">
        <ele>30.6</ele>
        <time>2023-06-23T13:49:29Z</time>
      </trkpt>
      <trkpt lat="49.89502" lon="2.25736">
        <ele>30.6</ele>
        <time>2023-06-23T13:49:30Z</time>
      </trkpt>
      <trkpt lat="49.89501" lon="2.25738">
        <ele>30.5</ele>
        <time>2023-06-23T13:49:31Z</time>
      </trkpt>
      <trkpt lat="49.89501" lon="2.25739">
        <ele>30.5</ele>
        <time>2023-06-23T13:49:32Z</time>
      </trkpt>
      <trkpt lat="49.895" lon="2.2574">
        <ele>30.5</ele>
        <time>2023-06-23T13:49:33Z</time>
      </trkpt>
      <trkpt lat="49.895" lon="2.25741">
        <ele>30.4</ele>
        <time>2023-06-23T13:49:34Z</time>
      </trkpt>
      <trkpt lat="49.895" lon="2.25742">
        <ele>30.4</ele>
        <time>2023-06-23T13:49:35Z</time>
      </trkpt>
      <trkpt lat="49.89499" lon="2.25743">
        <ele>30.3</ele>
        <time>2023-06-23T13:49:36Z</time>
      </trkpt>
      <trkpt lat="49.89499" lon="2.25744">
        <ele>30.3</ele>
        <time>2023-06-23T13:49:37Z</time>
      </trkpt>
      <trkpt lat="49.89498" lon="2.25747">
        <ele>30.2</ele>
        <time>2023-06-23T13:49:38Z</time>
      </trkpt>
      <trkpt lat="49.89497" lon="2.25748">
        <ele>30.2</ele>
        <time>2023-06-23T13:49:40Z</time>
      </trkpt>
      <trkpt lat="49.89497" lon="2.25749">
        <ele>30.1</ele>
        <time>2023-06-23T13:49:41Z</time>
      </trkpt>
      <trkpt lat="49.89496" lon="2.25752">
        <ele>30</ele>
        <time>2023-06-23T13:49:42Z</time>
      </trkpt>
      <trkpt lat="49.89495" lon="2.25753">
        <ele>30</ele>
        <time>2023-06-23T13:49:43Z</time>
      </trkpt>
      <trkpt lat="49.89495" lon="2.25754">
        <ele>29.9</ele>
        <time>2023-06-23T13:49:44Z</time>
      </trkpt>
      <trkpt lat="49.89493" lon="2.25756">
        <ele>29.8</ele>
        <time>2023-06-23T13:49:45Z</time>
      </trkpt>
      <trkpt lat="49.89493" lon="2.25757">
        <ele>29.8</ele>
        <time>2023-06-23T13:49:47Z</time>
      </trkpt>
      <trkpt lat="49.89492" lon="2.25758">
        <ele>29.8</ele>
        <time>2023-06-23T13:49:48Z</time>
      </trkpt>
      <trkpt lat="49.89491" lon="2.25759">
        <ele>29.7</ele>
        <time>2023-06-23T13:49:49Z</time>
      </trkpt>
      <trkpt lat="49.89491" lon="2.2576">
        <ele>29.7</ele>
        <time>2023-06-23T13:49:50Z</time>
      </trkpt>
      <trkpt lat="49.8949" lon="2.25762">
        <ele>29.7</ele>
        <time>2023-06-23T13:49:51Z</time>
      </trkpt>
      <trkpt lat="49.89489" lon="2.25763">
        <ele>29.6</ele>
        <time>2023-06-23T13:49:52Z</time>
      </trkpt>
      <trkpt lat="49.89488" lon="2.25764">
        <ele>29.6</ele>
        <time>2023-06-23T13:49:53Z</time>
      </trkpt>
      <trkpt lat="49.89488" lon="2.25766">
        <ele>29.5</ele>
        <time>2023-06-23T13:49:54Z</time>
      </trkpt>
      <trkpt lat="49.89487" lon="2.25767">
        <ele>29.5</ele>
        <time>2023-06-23T13:49:55Z</time>
      </trkpt>
      <trkpt lat="49.89486" lon="2.25768">
        <ele>29.4</ele>
        <time>2023-06-23T13:49:56Z</time>
      </trkpt>
      <trkpt lat="49.89486" lon="2.25769">
        <ele>29.4</ele>
        <time>2023-06-23T13:49:57Z</time>
      </trkpt>
      <trkpt lat="49.89485" lon="2.25771">
        <ele>29.4</ele>
        <time>2023-06-23T13:49:59Z</time>
      </trkpt>
      <trkpt lat="49.89484" lon="2.25772">
        <ele>29.3</ele>
        <time>2023-06-23T13:50:00Z</time>
      </trkpt>
      <trkpt lat="49.89483" lon="2.25773">
        <ele>29.3</ele>
        <time>2023-06-23T13:50:01Z</time>
      </trkpt>
      <trkpt lat="49.89481" lon="2.25774">
        <ele>29.2</ele>
        <time>2023-06-23T13:50:02Z</time>
      </trkpt>
      <trkpt lat="49.89481" lon="2.25775">
        <ele>29.2</ele>
        <time>2023-06-23T13:50:03Z</time>
      </trkpt>
      <trkpt lat="49.8948" lon="2.25776">
        <ele>29.1</ele>
        <time>2023-06-23T13:50:04Z</time>
      </trkpt>
      <trkpt lat="49.89478" lon="2.25778">
        <ele>29.1</ele>
        <time>2023-06-23T13:50:05Z</time>
      </trkpt>
      <trkpt lat="49.89478" lon="2.25779">
        <ele>29</ele>
        <time>2023-06-23T13:50:06Z</time>
      </trkpt>
      <trkpt lat="49.89477" lon="2.25779">
        <ele>29</ele>
        <time>2023-06-23T13:50:07Z</time>
      </trkpt>
      <trkpt lat="49.89475" lon="2.25781">
        <ele>28.9</ele>
        <time>2023-06-23T13:50:08Z</time>
      </trkpt>
      <trkpt lat="49.89474" lon="2.25782">
        <ele>28.9</ele>
        <time>2023-06-23T13:50:10Z</time>
      </trkpt>
      <trkpt lat="49.89474" lon="2.25782">
        <ele>28.8</ele>
        <time>2023-06-23T13:50:11Z</time>
      </trkpt>
      <trkpt lat="49.89473" lon="2.25783">
        <ele>28.8</ele>
        <time>2023-06-23T13:50:12Z</time>
      </trkpt>
      <trkpt lat="49.89472" lon="2.25784">
        <ele>28.8</ele>
        <time>2023-06-23T13:50:13Z</time>
      </trkpt>
      <trkpt lat="49.89471" lon="2.25785">
        <ele>28.7</ele>
        <time>2023-06-23T13:50:14Z</time>
      </trkpt>
      <trkpt lat="49.8947" lon="2.25786">
        <ele>28.7</ele>
        <time>2023-06-23T13:50:15Z</time>
      </trkpt>
      <trkpt lat="49.89469" lon="2.25787">
        <ele>28.6</ele>
        <time>2023-06-23T13:50:16Z</time>
      </trkpt>
      <trkpt lat="49.89468" lon="2.25789">
        <ele>28.6</ele>
        <time>2023-06-23T13:50:18Z</time>
      </trkpt>
      <trkpt lat="49.89467" lon="2.2579">
        <ele>28.5</ele>
        <time>2023-06-23T13:50:19Z</time>
      </trkpt>
      <trkpt lat="49.89466" lon="2.25792">
        <ele>28.5</ele>
        <time>2023-06-23T13:50:20Z</time>
      </trkpt>
      <trkpt lat="49.89464" lon="2.25793">
        <ele>28.4</ele>
        <time>2023-06-23T13:50:21Z</time>
      </trkpt>
      <trkpt lat="49.89463" lon="2.25795">
        <ele>28.4</ele>
        <time>2023-06-23T13:50:22Z</time>
      </trkpt>
      <trkpt lat="49.89462" lon="2.25797">
        <ele>28.3</ele>
        <time>2023-06-23T13:50:23Z</time>
      </trkpt>
      <trkpt lat="49.89461" lon="2.25798">
        <ele>28.3</ele>
        <time>2023-06-23T13:50:24Z</time>
      </trkpt>
      <trkpt lat="49.8946" lon="2.25799">
        <ele>28.3</ele>
        <time>2023-06-23T13:50:25Z</time>
      </trkpt>
      <trkpt lat="49.89458" lon="2.258">
        <ele>28.2</ele>
        <time>2023-06-23T13:50:26Z</time>
      </trkpt>
      <trkpt lat="49.89458" lon="2.25801">
        <ele>28.2</ele>
        <time>2023-06-23T13:50:27Z</time>
      </trkpt>
      <trkpt lat="49.89457" lon="2.25801">
        <ele>28.1</ele>
        <time>2023-06-23T13:50:28Z</time>
      </trkpt>
      <trkpt lat="49.89455" lon="2.25803">
        <ele>28.1</ele>
        <time>2023-06-23T13:50:29Z</time>
      </trkpt>
      <trkpt lat="49.89454" lon="2.25803">
        <ele>28</ele>
        <time>2023-06-23T13:50:30Z</time>
      </trkpt>
      <trkpt lat="49.89453" lon="2.25804">
        <ele>28</ele>
        <time>2023-06-23T13:50:31Z</time>
      </trkpt>
      <trkpt lat="49.89452" lon="2.25805">
        <ele>28</ele>
        <time>2023-06-23T13:50:33Z</time>
      </trkpt>
      <trkpt lat="49.8945" lon="2.25806">
        <ele>27.9</ele>
        <time>2023-06-23T13:50:34Z</time>
      </trkpt>
      <trkpt lat="49.89449" lon="2.25807">
        <ele>27.9</ele>
        <time>2023-06-23T13:50:35Z</time>
      </trkpt>
      <trkpt lat="49.89448" lon="2.25808">
        <ele>27.8</ele>
        <time>2023-06-23T13:50:36Z</time>
      </trkpt>
      <trkpt lat="49.89446" lon="2.2581">
        <ele>27.8</ele>
        <time>2023-06-23T13:50:37Z</time>
      </trkpt>
      <trkpt lat="49.89445" lon="2.25811">
        <ele>27.7</ele>
        <time>2023-06-23T13:50:38Z</time>
      </trkpt>
      <trkpt lat="49.89445" lon="2.25812">
        <ele>27.7</ele>
        <time>2023-06-23T13:50:39Z</time>
      </trkpt>
      <trkpt lat="49.89444" lon="2.25813">
        <ele>27.7</ele>
        <time>2023-06-23T13:50:40Z</time>
      </trkpt>
      <trkpt lat="49.89443" lon="2.25813">
        <ele>27.6</ele>
        <time>2023-06-23T13:50:41Z</time>
      </trkpt>
      <trkpt lat="49.89442" lon="2.25814">
        <ele>27.6</ele>
        <time>2023-06-23T13:50:43Z</time>
      </trkpt>
      <trkpt lat="49.89441" lon="2.25815">
        <ele>27.6</ele>
        <time>2023-06-23T13:50:44Z</time>
      </trkpt>
      <trkpt lat="49.8944" lon="2.25816">
        <ele>27.5</ele>
        <time>2023-06-23T13:50:45Z</time>
      </trkpt>
      <trkpt lat="49.89438" lon="2.25817">
        <ele>27.5</ele>
        <time>2023-06-23T13:50:46Z</time>
      </trkpt>
      <trkpt lat="49.89437" lon="2.25818">
        <ele>27.5</ele>
        <time>2023-06-23T13:50:47Z</time>
      </trkpt>
      <trkpt lat="49.89436" lon="2.25818">
        <ele>27.4</ele>
        <time>2023-06-23T13:50:48Z</time>
      </trkpt>
      <trkpt lat="49.89435" lon="2.25819">
        <ele>27.4</ele>
        <time>2023-06-23T13:50:49Z</time>
      </trkpt>
      <trkpt lat="49.89433" lon="2.2582">
        <ele>27.4</ele>
        <time>2023-06-23T13:50:50Z</time>
      </trkpt>
      <trkpt lat="49.89432" lon="2.2582">
        <ele>27.4</ele>
        <time>2023-06-23T13:50:51Z</time>
      </trkpt>
      <trkpt lat="49.8943" lon="2.25821">
        <ele>27.3</ele>
        <time>2023-06-23T13:50:53Z</time>
      </trkpt>
      <trkpt lat="49.89429" lon="2.25822">
        <ele>27.3</ele>
        <time>2023-06-23T13:50:54Z</time>
      </trkpt>
      <trkpt lat="49.89427" lon="2.25822">
        <ele>27.3</ele>
        <time>2023-06-23T13:50:55Z</time>
      </trkpt>
      <trkpt lat="49.89426" lon="2.25823">
        <ele>27.2</ele>
        <time>2023-06-23T13:50:56Z</time>
      </trkpt>
      <trkpt lat="49.89425" lon="2.25824">
        <ele>27.2</ele>
        <time>2023-06-23T13:50:57Z</time>
      </trkpt>
      <trkpt lat="49.89424" lon="2.25824">
        <ele>27.2</ele>
        <time>2023-06-23T13:50:58Z</time>
      </trkpt>
      <trkpt lat="49.89422" lon="2.25823">
        <ele>27.2</ele>
        <time>2023-06-23T13:51:00Z</time>
      </trkpt>
      <trkpt lat="49.89421" lon="2.25823">
        <ele>27.2</ele>
        <time>2023-06-23T13:51:01Z</time>
      </trkpt>
      <trkpt lat="49.89419" lon="2.25821">
        <ele>27.3</ele>
        <time>2023-06-23T13:51:02Z</time>
      </trkpt>
      <trkpt lat="49.89418" lon="2.25821">
        <ele>27.3</ele>
        <time>2023-06-23T13:51:03Z</time>
      </trkpt>
      <trkpt lat="49.89418" lon="2.2582">
        <ele>27.3</ele>
        <time>2023-06-23T13:51:04Z</time>
      </trkpt>
      <trkpt lat="49.89416" lon="2.2582">
        <ele>27.3</ele>
        <time>2023-06-23T13:51:05Z</time>
      </trkpt>
      <trkpt lat="49.89415" lon="2.25821">
        <ele>27.3</ele>
        <time>2023-06-23T13:51:07Z</time>
      </trkpt>
      <trkpt lat="49.89414" lon="2.25822">
        <ele>27.3</ele>
        <time>2023-06-23T13:51:08Z</time>
      </trkpt>
      <trkpt lat="49.89413" lon="2.25824">
        <ele>27.3</ele>
        <time>2023-06-23T13:51:09Z</time>
      </trkpt>
      <trkpt lat="49.89412" lon="2.25825">
        <ele>27.3</ele>
        <time>2023-06-23T13:51:10Z</time>
      </trkpt>
      <trkpt lat="49.8941" lon="2.25827">
        <ele>27.3</ele>
        <time>2023-06-23T13:51:11Z</time>
      </trkpt>
      <trkpt lat="49.8941" lon="2.25827">
        <ele>27.3</ele>
        <time>2023-06-23T13:51:13Z</time>
      </trkpt>
      <trkpt lat="49.89409" lon="2.25828">
        <ele>27.3</ele>
        <time>2023-06-23T13:51:14Z</time>
      </trkpt>
      <trkpt lat="49.89408" lon="2.25829">
        <ele>27.3</ele>
        <time>2023-06-23T13:51:15Z</time>
      </trkpt>
      <trkpt lat="49.89406" lon="2.25829">
        <ele>27.2</ele>
        <time>2023-06-23T13:51:16Z</time>
      </trkpt>
      <trkpt lat="49.89404" lon="2.2583">
        <ele>27.2</ele>
        <time>2023-06-23T13:51:17Z</time>
      </trkpt>
      <trkpt lat="49.89403" lon="2.25831">
        <ele>27.1</ele>
        <time>2023-06-23T13:51:18Z</time>
      </trkpt>
      <trkpt lat="49.89402" lon="2.25831">
        <ele>27.1</ele>
        <time>2023-06-23T13:51:19Z</time>
      </trkpt>
      <trkpt lat="49.89401" lon="2.25832">
        <ele>27.1</ele>
        <time>2023-06-23T13:51:20Z</time>
      </trkpt>
      <trkpt lat="49.894" lon="2.25833">
        <ele>27.1</ele>
        <time>2023-06-23T13:51:21Z</time>
      </trkpt>
      <trkpt lat="49.89399" lon="2.25834">
        <ele>27</ele>
        <time>2023-06-23T13:51:23Z</time>
      </trkpt>
      <trkpt lat="49.89397" lon="2.25835">
        <ele>27</ele>
        <time>2023-06-23T13:51:24Z</time>
      </trkpt>
      <trkpt lat="49.89397" lon="2.25836">
        <ele>27</ele>
        <time>2023-06-23T13:51:25Z</time>
      </trkpt>
      <trkpt lat="49.89396" lon="2.25837">
        <ele>26.9</ele>
        <time>2023-06-23T13:51:26Z</time>
      </trkpt>
      <trkpt lat="49.89395" lon="2.25838">
        <ele>26.9</ele>
        <time>2023-06-23T13:51:27Z</time>
      </trkpt>
      <trkpt lat="49.89394" lon="2.25839">
        <ele>26.9</ele>
        <time>2023-06-23T13:51:28Z</time>
      </trkpt>
      <trkpt lat="49.89394" lon="2.2584">
        <ele>26.8</ele>
        <time>2023-06-23T13:51:29Z</time>
      </trkpt>
      <trkpt lat="49.89393" lon="2.25841">
        <ele>26.8</ele>
        <time>2023-06-23T13:51:30Z</time>
      </trkpt>
      <trkpt lat="49.89392" lon="2.25841">
        <ele>26.8</ele>
        <time>2023-06-23T13:51:31Z</time>
      </trkpt>
      <trkpt lat="49.89392" lon="2.25842">
        <ele>26.8</ele>
        <time>2023-06-23T13:51:32Z</time>
      </trkpt>
      <trkpt lat="49.89391" lon="2.25843">
        <ele>26.8</ele>
        <time>2023-06-23T13:51:33Z</time>
      </trkpt>
      <trkpt lat="49.8939" lon="2.25844">
        <ele>26.7</ele>
        <time>2023-06-23T13:51:34Z</time>
      </trkpt>
      <trkpt lat="49.89389" lon="2.25846">
        <ele>26.7</ele>
        <time>2023-06-23T13:51:36Z</time>
      </trkpt>
      <trkpt lat="49.89389" lon="2.25847">
        <ele>26.7</ele>
        <time>2023-06-23T13:51:37Z</time>
      </trkpt>
      <trkpt lat="49.89388" lon="2.25848">
        <ele>26.6</ele>
        <time>2023-06-23T13:51:38Z</time>
      </trkpt>
      <trkpt lat="49.89388" lon="2.2585">
        <ele>26.6</ele>
        <time>2023-06-23T13:51:39Z</time>
      </trkpt>
      <trkpt lat="49.89387" lon="2.25851">
        <ele>26.6</ele>
        <time>2023-06-23T13:51:40Z</time>
      </trkpt>
      <trkpt lat="49.89386" lon="2.25853">
        <ele>26.5</ele>
        <time>2023-06-23T13:51:41Z</time>
      </trkpt>
      <trkpt lat="49.89385" lon="2.25853">
        <ele>26.5</ele>
        <time>2023-06-23T13:51:42Z</time>
      </trkpt>
      <trkpt lat="49.89384" lon="2.25855">
        <ele>26.5</ele>
        <time>2023-06-23T13:51:44Z</time>
      </trkpt>
      <trkpt lat="49.89384" lon="2.25855">
        <ele>26.5</ele>
        <time>2023-06-23T13:51:45Z</time>
      </trkpt>
      <trkpt lat="49.89383" lon="2.25856">
        <ele>26.4</ele>
        <time>2023-06-23T13:51:46Z</time>
      </trkpt>
      <trkpt lat="49.89382" lon="2.25857">
        <ele>26.4</ele>
        <time>2023-06-23T13:51:47Z</time>
      </trkpt>
      <trkpt lat="49.89382" lon="2.25858">
        <ele>26.4</ele>
        <time>2023-06-23T13:51:48Z</time>
      </trkpt>
      <trkpt lat="49.8938" lon="2.2586">
        <ele>26.3</ele>
        <time>2023-06-23T13:51:49Z</time>
      </trkpt>
      <trkpt lat="49.8938" lon="2.25861">
        <ele>26.3</ele>
        <time>2023-06-23T13:51:50Z</time>
      </trkpt>
      <trkpt lat="49.89379" lon="2.25862">
        <ele>26.3</ele>
        <time>2023-06-23T13:51:52Z</time>
      </trkpt>
      <trkpt lat="49.89378" lon="2.25863">
        <ele>26.3</ele>
        <time>2023-06-23T13:51:53Z</time>
      </trkpt>
      <trkpt lat="49.89378" lon="2.25863">
        <ele>26.2</ele>
        <time>2023-06-23T13:51:54Z</time>
      </trkpt>
      <trkpt lat="49.89377" lon="2.25864">
        <ele>26.2</ele>
        <time>2023-06-23T13:51:55Z</time>
      </trkpt>
      <trkpt lat="49.89377" lon="2.25865">
        <ele>26.2</ele>
        <time>2023-06-23T13:51:56Z</time>
      </trkpt>
      <trkpt lat="49.89376" lon="2.25867">
        <ele>26.2</ele>
        <time>2023-06-23T13:51:57Z</time>
      </trkpt>
      <trkpt lat="49.89376" lon="2.25868">
        <ele>26.2</ele>
        <time>2023-06-23T13:51:58Z</time>
      </trkpt>
      <trkpt lat="49.89375" lon="2.2587">
        <ele>26.1</ele>
        <time>2023-06-23T13:52:00Z</time>
      </trkpt>
      <trkpt lat="49.89374" lon="2.25871">
        <ele>26</ele>
        <time>2023-06-23T13:52:01Z</time>
      </trkpt>
      <trkpt lat="49.89374" lon="2.25872">
        <ele>26</ele>
        <time>2023-06-23T13:52:02Z</time>
      </trkpt>
      <trkpt lat="49.89375" lon="2.25873">
        <ele>25.9</ele>
        <time>2023-06-23T13:52:03Z</time>
      </trkpt>
      <trkpt lat="49.89375" lon="2.25875">
        <ele>25.9</ele>
        <time>2023-06-23T13:52:04Z</time>
      </trkpt>
      <trkpt lat="49.89375" lon="2.25876">
        <ele>25.9</ele>
        <time>2023-06-23T13:52:06Z</time>
      </trkpt>
      <trkpt lat="49.89375" lon="2.25878">
        <ele>25.8</ele>
        <time>2023-06-23T13:52:07Z</time>
      </trkpt>
      <trkpt lat="49.89376" lon="2.25879">
        <ele>25.8</ele>
        <time>2023-06-23T13:52:09Z</time>
      </trkpt>
      <trkpt lat="49.89376" lon="2.25881">
        <ele>25.7</ele>
        <time>2023-06-23T13:52:10Z</time>
      </trkpt>
      <trkpt lat="49.89375" lon="2.25883">
        <ele>25.7</ele>
        <time>2023-06-23T13:52:11Z</time>
      </trkpt>
      <trkpt lat="49.89375" lon="2.25885">
        <ele>25.6</ele>
        <time>2023-06-23T13:52:12Z</time>
      </trkpt>
      <trkpt lat="49.89375" lon="2.25886">
        <ele>25.6</ele>
        <time>2023-06-23T13:52:13Z</time>
      </trkpt>
      <trkpt lat="49.89374" lon="2.25888">
        <ele>25.5</ele>
        <time>2023-06-23T13:52:14Z</time>
      </trkpt>
      <trkpt lat="49.89374" lon="2.25891">
        <ele>25.4</ele>
        <time>2023-06-23T13:52:16Z</time>
      </trkpt>
      <trkpt lat="49.89374" lon="2.25893">
        <ele>25.4</ele>
        <time>2023-06-23T13:52:17Z</time>
      </trkpt>
      <trkpt lat="49.89374" lon="2.25894">
        <ele>25.3</ele>
        <time>2023-06-23T13:52:18Z</time>
      </trkpt>
      <trkpt lat="49.89374" lon="2.25896">
        <ele>25.3</ele>
        <time>2023-06-23T13:52:19Z</time>
      </trkpt>
      <trkpt lat="49.89374" lon="2.25898">
        <ele>25.2</ele>
        <time>2023-06-23T13:52:20Z</time>
      </trkpt>
      <trkpt lat="49.89374" lon="2.259">
        <ele>25.2</ele>
        <time>2023-06-23T13:52:21Z</time>
      </trkpt>
      <trkpt lat="49.89374" lon="2.25901">
        <ele>25.2</ele>
        <time>2023-06-23T13:52:22Z</time>
      </trkpt>
      <trkpt lat="49.89373" lon="2.25903">
        <ele>25.1</ele>
        <time>2023-06-23T13:52:23Z</time>
      </trkpt>
      <trkpt lat="49.89373" lon="2.25904">
        <ele>25.1</ele>
        <time>2023-06-23T13:52:24Z</time>
      </trkpt>
      <trkpt lat="49.89373" lon="2.25906">
        <ele>25.1</ele>
        <time>2023-06-23T13:52:25Z</time>
      </trkpt>
      <trkpt lat="49.89372" lon="2.25908">
        <ele>25</ele>
        <time>2023-06-23T13:52:27Z</time>
      </trkpt>
      <trkpt lat="49.89372" lon="2.2591">
        <ele>25</ele>
        <time>2023-06-23T13:52:28Z</time>
      </trkpt>
      <trkpt lat="49.89371" lon="2.25912">
        <ele>25</ele>
        <time>2023-06-23T13:52:29Z</time>
      </trkpt>
      <trkpt lat="49.89371" lon="2.25913">
        <ele>24.9</ele>
        <time>2023-06-23T13:52:30Z</time>
      </trkpt>
      <trkpt lat="49.8937" lon="2.25915">
        <ele>24.9</ele>
        <time>2023-06-23T13:52:31Z</time>
      </trkpt>
      <trkpt lat="49.8937" lon="2.25916">
        <ele>24.9</ele>
        <time>2023-06-23T13:52:33Z</time>
      </trkpt>
      <trkpt lat="49.89369" lon="2.25918">
        <ele>24.9</ele>
        <time>2023-06-23T13:52:34Z</time>
      </trkpt>
      <trkpt lat="49.89369" lon="2.2592">
        <ele>24.9</ele>
        <time>2023-06-23T13:52:35Z</time>
      </trkpt>
      <trkpt lat="49.89369" lon="2.25922">
        <ele>24.8</ele>
        <time>2023-06-23T13:52:36Z</time>
      </trkpt>
      <trkpt lat="49.89369" lon="2.25923">
        <ele>24.8</ele>
        <time>2023-06-23T13:52:37Z</time>
      </trkpt>
      <trkpt lat="49.89369" lon="2.25924">
        <ele>24.8</ele>
        <time>2023-06-23T13:52:38Z</time>
      </trkpt>
      <trkpt lat="49.89369" lon="2.25927">
        <ele>24.7</ele>
        <time>2023-06-23T13:52:39Z</time>
      </trkpt>
      <trkpt lat="49.89369" lon="2.25929">
        <ele>24.7</ele>
        <time>2023-06-23T13:52:41Z</time>
      </trkpt>
      <trkpt lat="49.89369" lon="2.2593">
        <ele>24.7</ele>
        <time>2023-06-23T13:52:42Z</time>
      </trkpt>
      <trkpt lat="49.89369" lon="2.25932">
        <ele>24.7</ele>
        <time>2023-06-23T13:52:43Z</time>
      </trkpt>
      <trkpt lat="49.89369" lon="2.25933">
        <ele>24.7</ele>
        <time>2023-06-23T13:52:44Z</time>
      </trkpt>
      <trkpt lat="49.89369" lon="2.25935">
        <ele>24.7</ele>
        <time>2023-06-23T13:52:45Z</time>
      </trkpt>
      <trkpt lat="49.89369" lon="2.25938">
        <ele>24.8</ele>
        <time>2023-06-23T13:52:47Z</time>
      </trkpt>
      <trkpt lat="49.89369" lon="2.25939">
        <ele>24.8</ele>
        <time>2023-06-23T13:52:48Z</time>
      </trkpt>
      <trkpt lat="49.89369" lon="2.25941">
        <ele>24.8</ele>
        <time>2023-06-23T13:52:50Z</time>
      </trkpt>
      <trkpt lat="49.8937" lon="2.25941">
        <ele>24.8</ele>
        <time>2023-06-23T13:52:51Z</time>
      </trkpt>
      <trkpt lat="49.8937" lon="2.25941">
        <ele>24.8</ele>
        <time>2023-06-23T13:52:52Z</time>
      </trkpt>
      <trkpt lat="49.8937" lon="2.25941">
        <ele>24.8</ele>
        <time>2023-06-23T13:52:54Z</time>
      </trkpt>
      <trkpt lat="49.8937" lon="2.25941">
        <ele>24.8</ele>
        <time>2023-06-23T13:52:55Z</time>
      </trkpt>
      <trkpt lat="49.8937" lon="2.25941">
        <ele>24.8</ele>
        <time>2023-06-23T13:52:57Z</time>
      </trkpt>
      <trkpt lat="49.8937" lon="2.25941">
        <ele>24.8</ele>
        <time>2023-06-23T13:52:58Z</time>
      </trkpt>
      <trkpt lat="49.8937" lon="2.25941">
        <ele>24.8</ele>
        <time>2023-06-23T13:53:00Z</time>
      </trkpt>
      <trkpt lat="49.8937" lon="2.25941">
        <ele>24.8</ele>
        <time>2023-06-23T13:53:01Z</time>
      </trkpt>
      <trkpt lat="49.8937" lon="2.25941">
        <ele>24.8</ele>
        <time>2023-06-23T13:53:02Z</time>
      </trkpt>
      <trkpt lat="49.8937" lon="2.25941">
        <ele>24.8</ele>
        <time>2023-06-23T13:53:04Z</time>
      </trkpt>
      <trkpt lat="49.8937" lon="2.25941">
        <ele>24.8</ele>
        <time>2023-06-23T13:53:05Z</time>
      </trkpt>
      <trkpt lat="49.8937" lon="2.25941">
        <ele>24.8</ele>
        <time>2023-06-23T13:53:07Z</time>
      </trkpt>
      <trkpt lat="49.8937" lon="2.25941">
        <ele>24.8</ele>
        <time>2023-06-23T13:53:08Z</time>
      </trkpt>
      <trkpt lat="49.8937" lon="2.25941">
        <ele>24.8</ele>
        <time>2023-06-23T13:53:09Z</time>
      </trkpt>
      <trkpt lat="49.8937" lon="2.2594">
        <ele>24.8</ele>
        <time>2023-06-23T13:53:10Z</time>
      </trkpt>
      <trkpt lat="49.8937" lon="2.2594">
        <ele>24.8</ele>
        <time>2023-06-23T13:53:11Z</time>
      </trkpt>
      <trkpt lat="49.8937" lon="2.2594">
        <ele>24.8</ele>
        <time>2023-06-23T13:53:12Z</time>
      </trkpt>
      <trkpt lat="49.8937" lon="2.2594">
        <ele>24.8</ele>
        <time>2023-06-23T13:53:13Z</time>
      </trkpt>
      <trkpt lat="49.8937" lon="2.2594">
        <ele>24.8</ele>
        <time>2023-06-23T13:53:14Z</time>
      </trkpt>
      <trkpt lat="49.8937" lon="2.2594">
        <ele>24.8</ele>
        <time>2023-06-23T13:53:15Z</time>
      </trkpt>
      <trkpt lat="49.8937" lon="2.2594">
        <ele>24.8</ele>
        <time>2023-06-23T13:53:16Z</time>
      </trkpt>
      <trkpt lat="49.8937" lon="2.2594">
        <ele>24.8</ele>
        <time>2023-06-23T13:53:17Z</time>
      </trkpt>
      <trkpt lat="49.8937" lon="2.2594">
        <ele>24.8</ele>
        <time>2023-06-23T13:53:18Z</time>
      </trkpt>
      <trkpt lat="49.8937" lon="2.2594">
        <ele>24.8</ele>
        <time>2023-06-23T13:53:19Z</time>
      </trkpt>
      <trkpt lat="49.8937" lon="2.2594">
        <ele>24.8</ele>
        <time>2023-06-23T13:53:20Z</time>
      </trkpt>
      <trkpt lat="49.8937" lon="2.2594">
        <ele>24.8</ele>
        <time>2023-06-23T13:53:21Z</time>
      </trkpt>
      <trkpt lat="49.8937" lon="2.2594">
        <ele>24.8</ele>
        <time>2023-06-23T13:53:22Z</time>
      </trkpt>
      <trkpt lat="49.8937" lon="2.2594">
        <ele>24.8</ele>
        <time>2023-06-23T13:53:23Z</time>
      </trkpt>
      <trkpt lat="49.8937" lon="2.2594">
        <ele>24.8</ele>
        <time>2023-06-23T13:53:24Z</time>
      </trkpt>
      <trkpt lat="49.8937" lon="2.2594">
        <ele>24.8</ele>
        <time>2023-06-23T13:53:25Z</time>
      </trkpt>
      <trkpt lat="49.8937" lon="2.25939">
        <ele>24.8</ele>
        <time>2023-06-23T13:53:26Z</time>
      </trkpt>
      <trkpt lat="49.8937" lon="2.25939">
        <ele>24.8</ele>
        <time>2023-06-23T13:53:27Z</time>
      </trkpt>
      <trkpt lat="49.8937" lon="2.25939">
        <ele>24.8</ele>
        <time>2023-06-23T13:53:28Z</time>
      </trkpt>
      <trkpt lat="49.8937" lon="2.25939">
        <ele>24.8</ele>
        <time>2023-06-23T13:53:29Z</time>
      </trkpt>
      <trkpt lat="49.8937" lon="2.25939">
        <ele>24.8</ele>
        <time>2023-06-23T13:53:30Z</time>
      </trkpt>
      <trkpt lat="49.8937" lon="2.25939">
        <ele>24.8</ele>
        <time>2023-06-23T13:53:31Z</time>
      </trkpt>
      <trkpt lat="49.8937" lon="2.25939">
        <ele>24.8</ele>
        <time>2023-06-23T13:53:32Z</time>
      </trkpt>
      <trkpt lat="49.8937" lon="2.25939">
        <ele>24.8</ele>
        <time>2023-06-23T13:53:33Z</time>
      </trkpt>
      <trkpt lat="49.8937" lon="2.25939">
        <ele>24.8</ele>
        <time>2023-06-23T13:53:34Z</time>
      </trkpt>
      <trkpt lat="49.8937" lon="2.25939">
        <ele>24.8</ele>
        <time>2023-06-23T13:53:35Z</time>
      </trkpt>
      <trkpt lat="49.8937" lon="2.25939">
        <ele>24.8</ele>
        <time>2023-06-23T13:53:37Z</time>
      </trkpt>
      <trkpt lat="49.8937" lon="2.25939">
        <ele>24.8</ele>
        <time>2023-06-23T13:53:38Z</time>
      </trkpt>
      <trkpt lat="49.8937" lon="2.25939">
        <ele>24.8</ele>
        <time>2023-06-23T13:53:39Z</time>
      </trkpt>
      <trkpt lat="49.8937" lon="2.25939">
        <ele>24.8</ele>
        <time>2023-06-23T13:53:40Z</time>
      </trkpt>
      <trkpt lat="49.8937" lon="2.25939">
        <ele>24.8</ele>
        <time>2023-06-23T13:53:41Z</time>
      </trkpt>
      <trkpt lat="49.8937" lon="2.25939">
        <ele>24.8</ele>
        <time>2023-06-23T13:53:42Z</time>
      </trkpt>
      <trkpt lat="49.8937" lon="2.25938">
        <ele>24.8</ele>
        <time>2023-06-23T13:53:43Z</time>
      </trkpt>
      <trkpt lat="49.8937" lon="2.25938">
        <ele>24.8</ele>
        <time>2023-06-23T13:53:44Z</time>
      </trkpt>
      <trkpt lat="49.8937" lon="2.25938">
        <ele>24.8</ele>
        <time>2023-06-23T13:53:45Z</time>
      </trkpt>
      <trkpt lat="49.8937" lon="2.25938">
        <ele>24.8</ele>
        <time>2023-06-23T13:53:46Z</time>
      </trkpt>
      <trkpt lat="49.8937" lon="2.25938">
        <ele>24.8</ele>
        <time>2023-06-23T13:53:47Z</time>
      </trkpt>
      <trkpt lat="49.8937" lon="2.25938">
        <ele>24.8</ele>
        <time>2023-06-23T13:53:48Z</time>
      </trkpt>
      <trkpt lat="49.8937" lon="2.25938">
        <ele>24.8</ele>
        <time>2023-06-23T13:53:49Z</time>
      </trkpt>
      <trkpt lat="49.8937" lon="2.25938">
        <ele>24.8</ele>
        <time>2023-06-23T13:53:50Z</time>
      </trkpt>
      <trkpt lat="49.8937" lon="2.25938">
        <ele>24.8</ele>
        <time>2023-06-23T13:53:51Z</time>
      </trkpt>
      <trkpt lat="49.8937" lon="2.25938">
        <ele>24.8</ele>
        <time>2023-06-23T13:53:52Z</time>
      </trkpt>
      <trkpt lat="49.8937" lon="2.25938">
        <ele>24.8</ele>
        <time>2023-06-23T13:53:53Z</time>
      </trkpt>
      <trkpt lat="49.8937" lon="2.25938">
        <ele>24.8</ele>
        <time>2023-06-23T13:53:54Z</time>
      </trkpt>
      <trkpt lat="49.8937" lon="2.25938">
        <ele>24.8</ele>
        <time>2023-06-23T13:53:55Z</time>
      </trkpt>
      <trkpt lat="49.8937" lon="2.25938">
        <ele>24.8</ele>
        <time>2023-06-23T13:53:56Z</time>
      </trkpt>
      <trkpt lat="49.8937" lon="2.25938">
        <ele>24.8</ele>
        <time>2023-06-23T13:53:57Z</time>
      </trkpt>
      <trkpt lat="49.8937" lon="2.25938">
        <ele>24.8</ele>
        <time>2023-06-23T13:53:58Z</time>
      </trkpt>
      <trkpt lat="49.8937" lon="2.25937">
        <ele>24.8</ele>
        <time>2023-06-23T13:53:59Z</time>
      </trkpt>
      <trkpt lat="49.8937" lon="2.25937">
        <ele>24.8</ele>
        <time>2023-06-23T13:54:00Z</time>
      </trkpt>
      <trkpt lat="49.8937" lon="2.25937">
        <ele>24.8</ele>
        <time>2023-06-23T13:54:01Z</time>
      </trkpt>
      <trkpt lat="49.8937" lon="2.25937">
        <ele>24.8</ele>
        <time>2023-06-23T13:54:02Z</time>
      </trkpt>
      <trkpt lat="49.8937" lon="2.25937">
        <ele>24.8</ele>
        <time>2023-06-23T13:54:03Z</time>
      </trkpt>
      <trkpt lat="49.8937" lon="2.25937">
        <ele>24.8</ele>
        <time>2023-06-23T13:54:04Z</time>
      </trkpt>
      <trkpt lat="49.8937" lon="2.25937">
        <ele>24.8</ele>
        <time>2023-06-23T13:54:05Z</time>
      </trkpt>
      <trkpt lat="49.8937" lon="2.25937">
        <ele>24.8</ele>
        <time>2023-06-23T13:54:06Z</time>
      </trkpt>
      <trkpt lat="49.8937" lon="2.25937">
        <ele>24.8</ele>
        <time>2023-06-23T13:54:07Z</time>
      </trkpt>
      <trkpt lat="49.8937" lon="2.25937">
        <ele>24.8</ele>
        <time>2023-06-23T13:54:08Z</time>
      </trkpt>
      <trkpt lat="49.8937" lon="2.25937">
        <ele>24.8</ele>
        <time>2023-06-23T13:54:09Z</time>
      </trkpt>
      <trkpt lat="49.8937" lon="2.25937">
        <ele>24.8</ele>
        <time>2023-06-23T13:54:10Z</time>
      </trkpt>
      <trkpt lat="49.8937" lon="2.25937">
        <ele>24.8</ele>
        <time>2023-06-23T13:54:11Z</time>
      </trkpt>
      <trkpt lat="49.8937" lon="2.25937">
        <ele>24.8</ele>
        <time>2023-06-23T13:54:12Z</time>
      </trkpt>
      <trkpt lat="49.89369" lon="2.25937">
        <ele>24.8</ele>
        <time>2023-06-23T13:54:13Z</time>
      </trkpt>
      <trkpt lat="49.89369" lon="2.25937">
        <ele>24.8</ele>
        <time>2023-06-23T13:54:14Z</time>
      </trkpt>
      <trkpt lat="49.89369" lon="2.25936">
        <ele>24.8</ele>
        <time>2023-06-23T13:54:15Z</time>
      </trkpt>
      <trkpt lat="49.89369" lon="2.25936">
        <ele>24.8</ele>
        <time>2023-06-23T13:54:16Z</time>
      </trkpt>
      <trkpt lat="49.89369" lon="2.25936">
        <ele>24.8</ele>
        <time>2023-06-23T13:54:17Z</time>
      </trkpt>
      <trkpt lat="49.89369" lon="2.25936">
        <ele>24.8</ele>
        <time>2023-06-23T13:54:18Z</time>
      </trkpt>
      <trkpt lat="49.89369" lon="2.25936">
        <ele>24.8</ele>
        <time>2023-06-23T13:54:19Z</time>
      </trkpt>
      <trkpt lat="49.89369" lon="2.25936">
        <ele>24.8</ele>
        <time>2023-06-23T13:54:20Z</time>
      </trkpt>
      <trkpt lat="49.89369" lon="2.25936">
        <ele>24.8</ele>
        <time>2023-06-23T13:54:21Z</time>
      </trkpt>
      <trkpt lat="49.89369" lon="2.25936">
        <ele>24.8</ele>
        <time>2023-06-23T13:54:22Z</time>
      </trkpt>
      <trkpt lat="49.89369" lon="2.25936">
        <ele>24.8</ele>
        <time>2023-06-23T13:54:23Z</time>
      </trkpt>
      <trkpt lat="49.89369" lon="2.25936">
        <ele>24.8</ele>
        <time>2023-06-23T13:54:24Z</time>
      </trkpt>
      <trkpt lat="49.89369" lon="2.25936">
        <ele>24.8</ele>
        <time>2023-06-23T13:54:25Z</time>
      </trkpt>
      <trkpt lat="49.89369" lon="2.25936">
        <ele>24.8</ele>
        <time>2023-06-23T13:54:26Z</time>
      </trkpt>
      <trkpt lat="49.89369" lon="2.25936">
        <ele>24.8</ele>
        <time>2023-06-23T13:54:27Z</time>
      </trkpt>
      <trkpt lat="49.89369" lon="2.25936">
        <ele>24.8</ele>
        <time>2023-06-23T13:54:28Z</time>
      </trkpt>
      <trkpt lat="49.89369" lon="2.25936">
        <ele>24.8</ele>
        <time>2023-06-23T13:54:29Z</time>
      </trkpt>
      <trkpt lat="49.89369" lon="2.25936">
        <ele>24.8</ele>
        <time>2023-06-23T13:54:30Z</time>
      </trkpt>
      <trkpt lat="49.89369" lon="2.25935">
        <ele>24.8</ele>
        <time>2023-06-23T13:54:31Z</time>
      </trkpt>
      <trkpt lat="49.89369" lon="2.25935">
        <ele>24.8</ele>
        <time>2023-06-23T13:54:32Z</time>
      </trkpt>
      <trkpt lat="49.89369" lon="2.25935">
        <ele>24.8</ele>
        <time>2023-06-23T13:54:33Z</time>
      </trkpt>
      <trkpt lat="49.89369" lon="2.25935">
        <ele>24.8</ele>
        <time>2023-06-23T13:54:34Z</time>
      </trkpt>
      <trkpt lat="49.89369" lon="2.25935">
        <ele>24.8</ele>
        <time>2023-06-23T13:54:35Z</time>
      </trkpt>
      <trkpt lat="49.89369" lon="2.25935">
        <ele>24.8</ele>
        <time>2023-06-23T13:54:36Z</time>
      </trkpt>
      <trkpt lat="49.89369" lon="2.25935">
        <ele>24.8</ele>
        <time>2023-06-23T13:54:37Z</time>
      </trkpt>
      <trkpt lat="49.89369" lon="2.25935">
        <ele>24.8</ele>
        <time>2023-06-23T13:54:38Z</time>
      </trkpt>
      <trkpt lat="49.89369" lon="2.25935">
        <ele>24.8</ele>
        <time>2023-06-23T13:54:39Z</time>
      </trkpt>
      <trkpt lat="49.89369" lon="2.25935">
        <ele>24.8</ele>
        <time>2023-06-23T13:54:40Z</time>
      </trkpt>
      <trkpt lat="49.89369" lon="2.25935">
        <ele>24.8</ele>
        <time>2023-06-23T13:54:41Z</time>
      </trkpt>
      <trkpt lat="49.89369" lon="2.25935">
        <ele>24.8</ele>
        <time>2023-06-23T13:54:42Z</time>
      </trkpt>
      <trkpt lat="49.89369" lon="2.25935">
        <ele>24.8</ele>
        <time>2023-06-23T13:54:43Z</time>
      </trkpt>
      <trkpt lat="49.89369" lon="2.25935">
        <ele>24.8</ele>
        <time>2023-06-23T13:54:44Z</time>
      </trkpt>
      <trkpt lat="49.89369" lon="2.25935">
        <ele>24.8</ele>
        <time>2023-06-23T13:54:45Z</time>
      </trkpt>
      <trkpt lat="49.89369" lon="2.25935">
        <ele>24.8</ele>
        <time>2023-06-23T13:54:46Z</time>
      </trkpt>
      <trkpt lat="49.89369" lon="2.25934">
        <ele>24.8</ele>
        <time>2023-06-23T13:54:47Z</time>
      </trkpt>
      <trkpt lat="49.89369" lon="2.25934">
        <ele>24.8</ele>
        <time>2023-06-23T13:54:48Z</time>
      </trkpt>
      <trkpt lat="49.89369" lon="2.25934">
        <ele>24.8</ele>
        <time>2023-06-23T13:54:49Z</time>
      </trkpt>
      <trkpt lat="49.89369" lon="2.25934">
        <ele>24.8</ele>
        <time>2023-06-23T13:54:50Z</time>
      </trkpt>
      <trkpt lat="49.89369" lon="2.25934">
        <ele>24.8</ele>
        <time>2023-06-23T13:54:51Z</time>
      </trkpt>
      <trkpt lat="49.89369" lon="2.25934">
        <ele>24.8</ele>
        <time>2023-06-23T13:54:52Z</time>
      </trkpt>
      <trkpt lat="49.89369" lon="2.25934">
        <ele>24.8</ele>
        <time>2023-06-23T13:54:53Z</time>
      </trkpt>
      <trkpt lat="49.89369" lon="2.25934">
        <ele>24.8</ele>
        <time>2023-06-23T13:54:54Z</time>
      </trkpt>
      <trkpt lat="49.89369" lon="2.25934">
        <ele>24.8</ele>
        <time>2023-06-23T13:54:55Z</time>
      </trkpt>
      <trkpt lat="49.89369" lon="2.25934">
        <ele>24.8</ele>
        <time>2023-06-23T13:54:56Z</time>
      </trkpt>
      <trkpt lat="49.89369" lon="2.25934">
        <ele>24.8</ele>
        <time>2023-06-23T13:54:57Z</time>
      </trkpt>
      <trkpt lat="49.89369" lon="2.25934">
        <ele>24.8</ele>
        <time>2023-06-23T13:54:58Z</time>
      </trkpt>
      <trkpt lat="49.89369" lon="2.25934">
        <ele>24.8</ele>
        <time>2023-06-23T13:54:59Z</time>
      </trkpt>
      <trkpt lat="49.89369" lon="2.25934">
        <ele>24.8</ele>
        <time>2023-06-23T13:55:00Z</time>
      </trkpt>
      <trkpt lat="49.89369" lon="2.25934">
        <ele>24.8</ele>
        <time>2023-06-23T13:55:01Z</time>
      </trkpt>
      <trkpt lat="49.89369" lon="2.25934">
        <ele>24.8</ele>
        <time>2023-06-23T13:55:02Z</time>
      </trkpt>
      <trkpt lat="49.89369" lon="2.25933">
        <ele>24.8</ele>
        <time>2023-06-23T13:55:03Z</time>
      </trkpt>
      <trkpt lat="49.89369" lon="2.25933">
        <ele>24.8</ele>
        <time>2023-06-23T13:55:04Z</time>
      </trkpt>
      <trkpt lat="49.89369" lon="2.25933">
        <ele>24.8</ele>
        <time>2023-06-23T13:55:05Z</time>
      </trkpt>
      <trkpt lat="49.89369" lon="2.25933">
        <ele>24.8</ele>
        <time>2023-06-23T13:55:06Z</time>
      </trkpt>
      <trkpt lat="49.89369" lon="2.25933">
        <ele>24.8</ele>
        <time>2023-06-23T13:55:07Z</time>
      </trkpt>
      <trkpt lat="49.89369" lon="2.25933">
        <ele>24.8</ele>
        <time>2023-06-23T13:55:08Z</time>
      </trkpt>
      <trkpt lat="49.89369" lon="2.25933">
        <ele>24.8</ele>
        <time>2023-06-23T13:55:09Z</time>
      </trkpt>
      <trkpt lat="49.89369" lon="2.25933">
        <ele>24.8</ele>
        <time>2023-06-23T13:55:10Z</time>
      </trkpt>
      <trkpt lat="49.89369" lon="2.25933">
        <ele>24.8</ele>
        <time>2023-06-23T13:55:11Z</time>
      </trkpt>
      <trkpt lat="49.89369" lon="2.25933">
        <ele>24.8</ele>
        <time>2023-06-23T13:55:12Z</time>
      </trkpt>
      <trkpt lat="49.89369" lon="2.25933">
        <ele>24.8</ele>
        <time>2023-06-23T13:55:13Z</time>
      </trkpt>
      <trkpt lat="49.89369" lon="2.25933">
        <ele>24.8</ele>
        <time>2023-06-23T13:55:14Z</time>
      </trkpt>
      <trkpt lat="49.89369" lon="2.25933">
        <ele>24.8</ele>
        <time>2023-06-23T13:55:15Z</time>
      </trkpt>
      <trkpt lat="49.89369" lon="2.25933">
        <ele>24.8</ele>
        <time>2023-06-23T13:55:16Z</time>
      </trkpt>
      <trkpt lat="49.89369" lon="2.25933">
        <ele>24.8</ele>
        <time>2023-06-23T13:55:17Z</time>
      </trkpt>
      <trkpt lat="49.89369" lon="2.25933">
        <ele>24.8</ele>
        <time>2023-06-23T13:55:18Z</time>
      </trkpt>
      <trkpt lat="49.89369" lon="2.25932">
        <ele>24.8</ele>
        <time>2023-06-23T13:55:19Z</time>
      </trkpt>
      <trkpt lat="49.89369" lon="2.25928">
        <ele>24.8</ele>
        <time>2023-06-23T13:55:20Z</time>
      </trkpt>
      <trkpt lat="49.8937" lon="2.25928">
        <ele>24.8</ele>
        <time>2023-06-23T13:55:21Z</time>
      </trkpt>
      <trkpt lat="49.8937" lon="2.25928">
        <ele>24.8</ele>
        <time>2023-06-23T13:55:22Z</time>
      </trkpt>
      <trkpt lat="49.89371" lon="2.25928">
        <ele>24.8</ele>
        <time>2023-06-23T13:55:23Z</time>
      </trkpt>
      <trkpt lat="49.89371" lon="2.25929">
        <ele>24.8</ele>
        <time>2023-06-23T13:55:24Z</time>
      </trkpt>
      <trkpt lat="49.8937" lon="2.25929">
        <ele>24.8</ele>
        <time>2023-06-23T13:55:26Z</time>
      </trkpt>
      <trkpt lat="49.89372" lon="2.25931">
        <ele>24.8</ele>
        <time>2023-06-23T13:55:27Z</time>
      </trkpt>
      <trkpt lat="49.89373" lon="2.25932">
        <ele>24.8</ele>
        <time>2023-06-23T13:55:28Z</time>
      </trkpt>
      <trkpt lat="49.89374" lon="2.25934">
        <ele>24.8</ele>
        <time>2023-06-23T13:55:29Z</time>
      </trkpt>
      <trkpt lat="49.89374" lon="2.25935">
        <ele>24.8</ele>
        <time>2023-06-23T13:55:30Z</time>
      </trkpt>
      <trkpt lat="49.89375" lon="2.25936">
        <ele>24.8</ele>
        <time>2023-06-23T13:55:32Z</time>
      </trkpt>
      <trkpt lat="49.89376" lon="2.25938">
        <ele>24.8</ele>
        <time>2023-06-23T13:55:33Z</time>
      </trkpt>
      <trkpt lat="49.89376" lon="2.25939">
        <ele>24.8</ele>
        <time>2023-06-23T13:55:34Z</time>
      </trkpt>
      <trkpt lat="49.89376" lon="2.2594">
        <ele>24.8</ele>
        <time>2023-06-23T13:55:35Z</time>
      </trkpt>
      <trkpt lat="49.89376" lon="2.2594">
        <ele>24.8</ele>
        <time>2023-06-23T13:55:36Z</time>
      </trkpt>
      <trkpt lat="49.89376" lon="2.2594">
        <ele>24.8</ele>
        <time>2023-06-23T13:55:38Z</time>
      </trkpt>
      <trkpt lat="49.89376" lon="2.2594">
        <ele>24.8</ele>
        <time>2023-06-23T13:55:39Z</time>
      </trkpt>
      <trkpt lat="49.89376" lon="2.25941">
        <ele>24.8</ele>
        <time>2023-06-23T13:55:40Z</time>
      </trkpt>
      <trkpt lat="49.89376" lon="2.25942">
        <ele>24.8</ele>
        <time>2023-06-23T13:55:41Z</time>
      </trkpt>
      <trkpt lat="49.89375" lon="2.25942">
        <ele>24.8</ele>
        <time>2023-06-23T13:55:42Z</time>
      </trkpt>
      <trkpt lat="49.89376" lon="2.25943">
        <ele>24.8</ele>
        <time>2023-06-23T13:55:44Z</time>
      </trkpt>
      <trkpt lat="49.89376" lon="2.25945">
        <ele>24.8</ele>
        <time>2023-06-23T13:55:45Z</time>
      </trkpt>
      <trkpt lat="49.89376" lon="2.25947">
        <ele>24.8</ele>
        <time>2023-06-23T13:55:46Z</time>
      </trkpt>
      <trkpt lat="49.89376" lon="2.2595">
        <ele>24.8</ele>
        <time>2023-06-23T13:55:47Z</time>
      </trkpt>
      <trkpt lat="49.89377" lon="2.25951">
        <ele>24.8</ele>
        <time>2023-06-23T13:55:48Z</time>
      </trkpt>
      <trkpt lat="49.89377" lon="2.25952">
        <ele>24.8</ele>
        <time>2023-06-23T13:55:49Z</time>
      </trkpt>
      <trkpt lat="49.89377" lon="2.25955">
        <ele>24.9</ele>
        <time>2023-06-23T13:55:50Z</time>
      </trkpt>
      <trkpt lat="49.89377" lon="2.25957">
        <ele>24.9</ele>
        <time>2023-06-23T13:55:52Z</time>
      </trkpt>
      <trkpt lat="49.89378" lon="2.25958">
        <ele>24.9</ele>
        <time>2023-06-23T13:55:53Z</time>
      </trkpt>
      <trkpt lat="49.89378" lon="2.25959">
        <ele>24.9</ele>
        <time>2023-06-23T13:55:54Z</time>
      </trkpt>
      <trkpt lat="49.89378" lon="2.25961">
        <ele>24.9</ele>
        <time>2023-06-23T13:55:55Z</time>
      </trkpt>
      <trkpt lat="49.89378" lon="2.25963">
        <ele>24.9</ele>
        <time>2023-06-23T13:55:56Z</time>
      </trkpt>
      <trkpt lat="49.8938" lon="2.25966">
        <ele>24.9</ele>
        <time>2023-06-23T13:55:57Z</time>
      </trkpt>
      <trkpt lat="49.8938" lon="2.25968">
        <ele>24.9</ele>
        <time>2023-06-23T13:55:58Z</time>
      </trkpt>
      <trkpt lat="49.89382" lon="2.25972">
        <ele>24.9</ele>
        <time>2023-06-23T13:56:00Z</time>
      </trkpt>
      <trkpt lat="49.89382" lon="2.25973">
        <ele>24.9</ele>
        <time>2023-06-23T13:56:01Z</time>
      </trkpt>
      <trkpt lat="49.89383" lon="2.25975">
        <ele>24.9</ele>
        <time>2023-06-23T13:56:02Z</time>
      </trkpt>
      <trkpt lat="49.89384" lon="2.25977">
        <ele>24.9</ele>
        <time>2023-06-23T13:56:03Z</time>
      </trkpt>
      <trkpt lat="49.89386" lon="2.2598">
        <ele>24.9</ele>
        <time>2023-06-23T13:56:04Z</time>
      </trkpt>
      <trkpt lat="49.89386" lon="2.25981">
        <ele>24.9</ele>
        <time>2023-06-23T13:56:05Z</time>
      </trkpt>
      <trkpt lat="49.89386" lon="2.25982">
        <ele>24.9</ele>
        <time>2023-06-23T13:56:06Z</time>
      </trkpt>
      <trkpt lat="49.89387" lon="2.25984">
        <ele>24.9</ele>
        <time>2023-06-23T13:56:08Z</time>
      </trkpt>
      <trkpt lat="49.89388" lon="2.25986">
        <ele>24.9</ele>
        <time>2023-06-23T13:56:09Z</time>
      </trkpt>
      <trkpt lat="49.89389" lon="2.25989">
        <ele>24.9</ele>
        <time>2023-06-23T13:56:10Z</time>
      </trkpt>
      <trkpt lat="49.8939" lon="2.2599">
        <ele>24.9</ele>
        <time>2023-06-23T13:56:11Z</time>
      </trkpt>
      <trkpt lat="49.8939" lon="2.25991">
        <ele>24.9</ele>
        <time>2023-06-23T13:56:12Z</time>
      </trkpt>
      <trkpt lat="49.89391" lon="2.25992">
        <ele>24.9</ele>
        <time>2023-06-23T13:56:13Z</time>
      </trkpt>
      <trkpt lat="49.89392" lon="2.25993">
        <ele>24.9</ele>
        <time>2023-06-23T13:56:14Z</time>
      </trkpt>
      <trkpt lat="49.89394" lon="2.25994">
        <ele>24.9</ele>
        <time>2023-06-23T13:56:16Z</time>
      </trkpt>
      <trkpt lat="49.89395" lon="2.25996">
        <ele>24.9</ele>
        <time>2023-06-23T13:56:17Z</time>
      </trkpt>
      <trkpt lat="49.89396" lon="2.25999">
        <ele>24.9</ele>
        <time>2023-06-23T13:56:18Z</time>
      </trkpt>
      <trkpt lat="49.89397" lon="2.26">
        <ele>24.9</ele>
        <time>2023-06-23T13:56:19Z</time>
      </trkpt>
      <trkpt lat="49.89397" lon="2.26001">
        <ele>25</ele>
        <time>2023-06-23T13:56:20Z</time>
      </trkpt>
      <trkpt lat="49.89399" lon="2.26003">
        <ele>25</ele>
        <time>2023-06-23T13:56:21Z</time>
      </trkpt>
      <trkpt lat="49.89399" lon="2.26004">
        <ele>25</ele>
        <time>2023-06-23T13:56:22Z</time>
      </trkpt>
      <trkpt lat="49.894" lon="2.26005">
        <ele>25</ele>
        <time>2023-06-23T13:56:23Z</time>
      </trkpt>
      <trkpt lat="49.89401" lon="2.26006">
        <ele>25</ele>
        <time>2023-06-23T13:56:24Z</time>
      </trkpt>
      <trkpt lat="49.89402" lon="2.26007">
        <ele>25</ele>
        <time>2023-06-23T13:56:26Z</time>
      </trkpt>
      <trkpt lat="49.89403" lon="2.26008">
        <ele>25</ele>
        <time>2023-06-23T13:56:27Z</time>
      </trkpt>
      <trkpt lat="49.89403" lon="2.26009">
        <ele>25</ele>
        <time>2023-06-23T13:56:28Z</time>
      </trkpt>
      <trkpt lat="49.89404" lon="2.2601">
        <ele>25</ele>
        <time>2023-06-23T13:56:29Z</time>
      </trkpt>
      <trkpt lat="49.89405" lon="2.26011">
        <ele>25</ele>
        <time>2023-06-23T13:56:30Z</time>
      </trkpt>
      <trkpt lat="49.89406" lon="2.26013">
        <ele>25</ele>
        <time>2023-06-23T13:56:31Z</time>
      </trkpt>
      <trkpt lat="49.89407" lon="2.26013">
        <ele>25</ele>
        <time>2023-06-23T13:56:32Z</time>
      </trkpt>
      <trkpt lat="49.89408" lon="2.26014">
        <ele>25</ele>
        <time>2023-06-23T13:56:33Z</time>
      </trkpt>
      <trkpt lat="49.89408" lon="2.26016">
        <ele>25</ele>
        <time>2023-06-23T13:56:34Z</time>
      </trkpt>
      <trkpt lat="49.89409" lon="2.26017">
        <ele>25</ele>
        <time>2023-06-23T13:56:36Z</time>
      </trkpt>
      <trkpt lat="49.8941" lon="2.26018">
        <ele>25</ele>
        <time>2023-06-23T13:56:37Z</time>
      </trkpt>
      <trkpt lat="49.89411" lon="2.2602">
        <ele>25</ele>
        <time>2023-06-23T13:56:38Z</time>
      </trkpt>
      <trkpt lat="49.89412" lon="2.26021">
        <ele>25</ele>
        <time>2023-06-23T13:56:39Z</time>
      </trkpt>
      <trkpt lat="49.89412" lon="2.26022">
        <ele>25</ele>
        <time>2023-06-23T13:56:40Z</time>
      </trkpt>
      <trkpt lat="49.89414" lon="2.26025">
        <ele>25</ele>
        <time>2023-06-23T13:56:41Z</time>
      </trkpt>
      <trkpt lat="49.89415" lon="2.26026">
        <ele>25</ele>
        <time>2023-06-23T13:56:42Z</time>
      </trkpt>
      <trkpt lat="49.89415" lon="2.26027">
        <ele>25</ele>
        <time>2023-06-23T13:56:43Z</time>
      </trkpt>
      <trkpt lat="49.89416" lon="2.26028">
        <ele>25</ele>
        <time>2023-06-23T13:56:44Z</time>
      </trkpt>
      <trkpt lat="49.89417" lon="2.2603">
        <ele>25</ele>
        <time>2023-06-23T13:56:45Z</time>
      </trkpt>
      <trkpt lat="49.89418" lon="2.26032">
        <ele>25</ele>
        <time>2023-06-23T13:56:47Z</time>
      </trkpt>
      <trkpt lat="49.89419" lon="2.26034">
        <ele>25</ele>
        <time>2023-06-23T13:56:48Z</time>
      </trkpt>
      <trkpt lat="49.89419" lon="2.26035">
        <ele>25</ele>
        <time>2023-06-23T13:56:49Z</time>
      </trkpt>
      <trkpt lat="49.8942" lon="2.26036">
        <ele>25</ele>
        <time>2023-06-23T13:56:50Z</time>
      </trkpt>
      <trkpt lat="49.89421" lon="2.26038">
        <ele>25</ele>
        <time>2023-06-23T13:56:51Z</time>
      </trkpt>
      <trkpt lat="49.89422" lon="2.2604">
        <ele>25</ele>
        <time>2023-06-23T13:56:53Z</time>
      </trkpt>
      <trkpt lat="49.89423" lon="2.26042">
        <ele>25</ele>
        <time>2023-06-23T13:56:54Z</time>
      </trkpt>
      <trkpt lat="49.89424" lon="2.26044">
        <ele>25</ele>
        <time>2023-06-23T13:56:55Z</time>
      </trkpt>
      <trkpt lat="49.89425" lon="2.26046">
        <ele>25</ele>
        <time>2023-06-23T13:56:56Z</time>
      </trkpt>
      <trkpt lat="49.89425" lon="2.26048">
        <ele>25</ele>
        <time>2023-06-23T13:56:57Z</time>
      </trkpt>
      <trkpt lat="49.89427" lon="2.2605">
        <ele>25</ele>
        <time>2023-06-23T13:56:58Z</time>
      </trkpt>
      <trkpt lat="49.89428" lon="2.26052">
        <ele>25</ele>
        <time>2023-06-23T13:56:59Z</time>
      </trkpt>
      <trkpt lat="49.89429" lon="2.26054">
        <ele>25</ele>
        <time>2023-06-23T13:57:01Z</time>
      </trkpt>
      <trkpt lat="49.89429" lon="2.26055">
        <ele>25</ele>
        <time>2023-06-23T13:57:02Z</time>
      </trkpt>
      <trkpt lat="49.89431" lon="2.26057">
        <ele>25</ele>
        <time>2023-06-23T13:57:03Z</time>
      </trkpt>
      <trkpt lat="49.89431" lon="2.26058">
        <ele>25</ele>
        <time>2023-06-23T13:57:04Z</time>
      </trkpt>
      <trkpt lat="49.89433" lon="2.26061">
        <ele>25</ele>
        <time>2023-06-23T13:57:05Z</time>
      </trkpt>
      <trkpt lat="49.89434" lon="2.26063">
        <ele>25</ele>
        <time>2023-06-23T13:57:06Z</time>
      </trkpt>
      <trkpt lat="49.89434" lon="2.26064">
        <ele>25</ele>
        <time>2023-06-23T13:57:07Z</time>
      </trkpt>
      <trkpt lat="49.89435" lon="2.26066">
        <ele>25.1</ele>
        <time>2023-06-23T13:57:08Z</time>
      </trkpt>
      <trkpt lat="49.89436" lon="2.26067">
        <ele>25.1</ele>
        <time>2023-06-23T13:57:10Z</time>
      </trkpt>
      <trkpt lat="49.89437" lon="2.26068">
        <ele>25.1</ele>
        <time>2023-06-23T13:57:11Z</time>
      </trkpt>
      <trkpt lat="49.89438" lon="2.2607">
        <ele>25.1</ele>
        <time>2023-06-23T13:57:12Z</time>
      </trkpt>
      <trkpt lat="49.89439" lon="2.26071">
        <ele>25.1</ele>
        <time>2023-06-23T13:57:13Z</time>
      </trkpt>
      <trkpt lat="49.89439" lon="2.26072">
        <ele>25.1</ele>
        <time>2023-06-23T13:57:14Z</time>
      </trkpt>
      <trkpt lat="49.89441" lon="2.26075">
        <ele>25.1</ele>
        <time>2023-06-23T13:57:15Z</time>
      </trkpt>
      <trkpt lat="49.89441" lon="2.26076">
        <ele>25.1</ele>
        <time>2023-06-23T13:57:16Z</time>
      </trkpt>
      <trkpt lat="49.89442" lon="2.26077">
        <ele>25.1</ele>
        <time>2023-06-23T13:57:17Z</time>
      </trkpt>
      <trkpt lat="49.89444" lon="2.26078">
        <ele>25.1</ele>
        <time>2023-06-23T13:57:18Z</time>
      </trkpt>
      <trkpt lat="49.89444" lon="2.26079">
        <ele>25.1</ele>
        <time>2023-06-23T13:57:19Z</time>
      </trkpt>
      <trkpt lat="49.89445" lon="2.2608">
        <ele>25.1</ele>
        <time>2023-06-23T13:57:21Z</time>
      </trkpt>
      <trkpt lat="49.89446" lon="2.26081">
        <ele>25.1</ele>
        <time>2023-06-23T13:57:22Z</time>
      </trkpt>
      <trkpt lat="49.89447" lon="2.26082">
        <ele>25.1</ele>
        <time>2023-06-23T13:57:23Z</time>
      </trkpt>
      <trkpt lat="49.89448" lon="2.26083">
        <ele>25.1</ele>
        <time>2023-06-23T13:57:24Z</time>
      </trkpt>
      <trkpt lat="49.8945" lon="2.26084">
        <ele>25.1</ele>
        <time>2023-06-23T13:57:25Z</time>
      </trkpt>
      <trkpt lat="49.89451" lon="2.26085">
        <ele>25.1</ele>
        <time>2023-06-23T13:57:26Z</time>
      </trkpt>
      <trkpt lat="49.89452" lon="2.26086">
        <ele>25.1</ele>
        <time>2023-06-23T13:57:27Z</time>
      </trkpt>
      <trkpt lat="49.89453" lon="2.26087">
        <ele>25.1</ele>
        <time>2023-06-23T13:57:28Z</time>
      </trkpt>
      <trkpt lat="49.89454" lon="2.26087">
        <ele>25.1</ele>
        <time>2023-06-23T13:57:30Z</time>
      </trkpt>
      <trkpt lat="49.89455" lon="2.26088">
        <ele>25.1</ele>
        <time>2023-06-23T13:57:31Z</time>
      </trkpt>
      <trkpt lat="49.89456" lon="2.26088">
        <ele>25.1</ele>
        <time>2023-06-23T13:57:32Z</time>
      </trkpt>
      <trkpt lat="49.89457" lon="2.2609">
        <ele>25.1</ele>
        <time>2023-06-23T13:57:33Z</time>
      </trkpt>
      <trkpt lat="49.89458" lon="2.2609">
        <ele>25.1</ele>
        <time>2023-06-23T13:57:34Z</time>
      </trkpt>
      <trkpt lat="49.89459" lon="2.26091">
        <ele>25.1</ele>
        <time>2023-06-23T13:57:35Z</time>
      </trkpt>
      <trkpt lat="49.8946" lon="2.26092">
        <ele>25.1</ele>
        <time>2023-06-23T13:57:37Z</time>
      </trkpt>
      <trkpt lat="49.89461" lon="2.26093">
        <ele>25.1</ele>
        <time>2023-06-23T13:57:38Z</time>
      </trkpt>
      <trkpt lat="49.89462" lon="2.26094">
        <ele>25.1</ele>
        <time>2023-06-23T13:57:39Z</time>
      </trkpt>
      <trkpt lat="49.89463" lon="2.26095">
        <ele>25.1</ele>
        <time>2023-06-23T13:57:40Z</time>
      </trkpt>
      <trkpt lat="49.89463" lon="2.26096">
        <ele>25.1</ele>
        <time>2023-06-23T13:57:41Z</time>
      </trkpt>
      <trkpt lat="49.89464" lon="2.26097">
        <ele>25.1</ele>
        <time>2023-06-23T13:57:43Z</time>
      </trkpt>
      <trkpt lat="49.89465" lon="2.26098">
        <ele>25.1</ele>
        <time>2023-06-23T13:57:44Z</time>
      </trkpt>
      <trkpt lat="49.89466" lon="2.26099">
        <ele>25.1</ele>
        <time>2023-06-23T13:57:45Z</time>
      </trkpt>
      <trkpt lat="49.89467" lon="2.261">
        <ele>25.1</ele>
        <time>2023-06-23T13:57:46Z</time>
      </trkpt>
      <trkpt lat="49.89468" lon="2.26101">
        <ele>25.1</ele>
        <time>2023-06-23T13:57:47Z</time>
      </trkpt>
      <trkpt lat="49.89469" lon="2.26102">
        <ele>25.1</ele>
        <time>2023-06-23T13:57:48Z</time>
      </trkpt>
      <trkpt lat="49.8947" lon="2.26102">
        <ele>25.1</ele>
        <time>2023-06-23T13:57:49Z</time>
      </trkpt>
      <trkpt lat="49.89471" lon="2.26103">
        <ele>25</ele>
        <time>2023-06-23T13:57:50Z</time>
      </trkpt>
      <trkpt lat="49.89472" lon="2.26104">
        <ele>25</ele>
        <time>2023-06-23T13:57:51Z</time>
      </trkpt>
      <trkpt lat="49.89473" lon="2.26104">
        <ele>25</ele>
        <time>2023-06-23T13:57:53Z</time>
      </trkpt>
      <trkpt lat="49.89474" lon="2.26105">
        <ele>25</ele>
        <time>2023-06-23T13:57:54Z</time>
      </trkpt>
      <trkpt lat="49.89475" lon="2.26105">
        <ele>25</ele>
        <time>2023-06-23T13:57:55Z</time>
      </trkpt>
      <trkpt lat="49.89476" lon="2.26106">
        <ele>25</ele>
        <time>2023-06-23T13:57:56Z</time>
      </trkpt>
      <trkpt lat="49.89477" lon="2.26106">
        <ele>25</ele>
        <time>2023-06-23T13:57:57Z</time>
      </trkpt>
      <trkpt lat="49.89478" lon="2.26106">
        <ele>25</ele>
        <time>2023-06-23T13:57:58Z</time>
      </trkpt>
      <trkpt lat="49.89479" lon="2.26107">
        <ele>25</ele>
        <time>2023-06-23T13:57:59Z</time>
      </trkpt>
      <trkpt lat="49.8948" lon="2.26107">
        <ele>25</ele>
        <time>2023-06-23T13:58:00Z</time>
      </trkpt>
      <trkpt lat="49.89481" lon="2.26108">
        <ele>24.9</ele>
        <time>2023-06-23T13:58:01Z</time>
      </trkpt>
      <trkpt lat="49.89482" lon="2.26109">
        <ele>24.9</ele>
        <time>2023-06-23T13:58:03Z</time>
      </trkpt>
      <trkpt lat="49.89483" lon="2.2611">
        <ele>24.9</ele>
        <time>2023-06-23T13:58:04Z</time>
      </trkpt>
      <trkpt lat="49.89484" lon="2.26111">
        <ele>24.9</ele>
        <time>2023-06-23T13:58:05Z</time>
      </trkpt>
      <trkpt lat="49.89485" lon="2.26112">
        <ele>24.9</ele>
        <time>2023-06-23T13:58:06Z</time>
      </trkpt>
      <trkpt lat="49.89486" lon="2.26113">
        <ele>24.9</ele>
        <time>2023-06-23T13:58:07Z</time>
      </trkpt>
      <trkpt lat="49.89487" lon="2.26115">
        <ele>24.8</ele>
        <time>2023-06-23T13:58:09Z</time>
      </trkpt>
      <trkpt lat="49.89489" lon="2.26117">
        <ele>24.8</ele>
        <time>2023-06-23T13:58:10Z</time>
      </trkpt>
      <trkpt lat="49.8949" lon="2.26117">
        <ele>24.8</ele>
        <time>2023-06-23T13:58:11Z</time>
      </trkpt>
      <trkpt lat="49.8949" lon="2.26118">
        <ele>24.8</ele>
        <time>2023-06-23T13:58:12Z</time>
      </trkpt>
      <trkpt lat="49.89492" lon="2.2612">
        <ele>24.8</ele>
        <time>2023-06-23T13:58:13Z</time>
      </trkpt>
      <trkpt lat="49.89493" lon="2.26121">
        <ele>24.8</ele>
        <time>2023-06-23T13:58:14Z</time>
      </trkpt>
      <trkpt lat="49.89493" lon="2.26122">
        <ele>24.7</ele>
        <time>2023-06-23T13:58:15Z</time>
      </trkpt>
      <trkpt lat="49.89494" lon="2.26124">
        <ele>24.7</ele>
        <time>2023-06-23T13:58:16Z</time>
      </trkpt>
      <trkpt lat="49.89495" lon="2.26126">
        <ele>24.7</ele>
        <time>2023-06-23T13:58:17Z</time>
      </trkpt>
      <trkpt lat="49.89495" lon="2.26127">
        <ele>24.7</ele>
        <time>2023-06-23T13:58:18Z</time>
      </trkpt>
      <trkpt lat="49.89496" lon="2.2613">
        <ele>24.7</ele>
        <time>2023-06-23T13:58:19Z</time>
      </trkpt>
      <trkpt lat="49.89497" lon="2.26131">
        <ele>24.7</ele>
        <time>2023-06-23T13:58:21Z</time>
      </trkpt>
      <trkpt lat="49.89497" lon="2.26132">
        <ele>24.6</ele>
        <time>2023-06-23T13:58:22Z</time>
      </trkpt>
      <trkpt lat="49.89498" lon="2.26134">
        <ele>24.6</ele>
        <time>2023-06-23T13:58:23Z</time>
      </trkpt>
      <trkpt lat="49.89499" lon="2.26135">
        <ele>24.6</ele>
        <time>2023-06-23T13:58:24Z</time>
      </trkpt>
      <trkpt lat="49.89499" lon="2.26136">
        <ele>24.6</ele>
        <time>2023-06-23T13:58:25Z</time>
      </trkpt>
      <trkpt lat="49.895" lon="2.26138">
        <ele>24.6</ele>
        <time>2023-06-23T13:58:26Z</time>
      </trkpt>
      <trkpt lat="49.89501" lon="2.26139">
        <ele>24.6</ele>
        <time>2023-06-23T13:58:27Z</time>
      </trkpt>
      <trkpt lat="49.89501" lon="2.26141">
        <ele>24.6</ele>
        <time>2023-06-23T13:58:28Z</time>
      </trkpt>
      <trkpt lat="49.89502" lon="2.26143">
        <ele>24.6</ele>
        <time>2023-06-23T13:58:29Z</time>
      </trkpt>
      <trkpt lat="49.89503" lon="2.26144">
        <ele>24.6</ele>
        <time>2023-06-23T13:58:31Z</time>
      </trkpt>
      <trkpt lat="49.89503" lon="2.26145">
        <ele>24.5</ele>
        <time>2023-06-23T13:58:32Z</time>
      </trkpt>
      <trkpt lat="49.89504" lon="2.26146">
        <ele>24.5</ele>
        <time>2023-06-23T13:58:33Z</time>
      </trkpt>
      <trkpt lat="49.89505" lon="2.26148">
        <ele>24.5</ele>
        <time>2023-06-23T13:58:34Z</time>
      </trkpt>
      <trkpt lat="49.89506" lon="2.26149">
        <ele>24.5</ele>
        <time>2023-06-23T13:58:35Z</time>
      </trkpt>
      <trkpt lat="49.89507" lon="2.26151">
        <ele>24.5</ele>
        <time>2023-06-23T13:58:36Z</time>
      </trkpt>
      <trkpt lat="49.89508" lon="2.26153">
        <ele>24.5</ele>
        <time>2023-06-23T13:58:37Z</time>
      </trkpt>
      <trkpt lat="49.89509" lon="2.26154">
        <ele>24.5</ele>
        <time>2023-06-23T13:58:38Z</time>
      </trkpt>
      <trkpt lat="49.8951" lon="2.26156">
        <ele>24.5</ele>
        <time>2023-06-23T13:58:39Z</time>
      </trkpt>
      <trkpt lat="49.89511" lon="2.26157">
        <ele>24.5</ele>
        <time>2023-06-23T13:58:40Z</time>
      </trkpt>
      <trkpt lat="49.89512" lon="2.26159">
        <ele>24.5</ele>
        <time>2023-06-23T13:58:41Z</time>
      </trkpt>
      <trkpt lat="49.89513" lon="2.2616">
        <ele>24.5</ele>
        <time>2023-06-23T13:58:43Z</time>
      </trkpt>
      <trkpt lat="49.89514" lon="2.26162">
        <ele>24.5</ele>
        <time>2023-06-23T13:58:44Z</time>
      </trkpt>
      <trkpt lat="49.89515" lon="2.26163">
        <ele>24.5</ele>
        <time>2023-06-23T13:58:45Z</time>
      </trkpt>
      <trkpt lat="49.89516" lon="2.26165">
        <ele>24.5</ele>
        <time>2023-06-23T13:58:46Z</time>
      </trkpt>
      <trkpt lat="49.89516" lon="2.26166">
        <ele>24.5</ele>
        <time>2023-06-23T13:58:47Z</time>
      </trkpt>
      <trkpt lat="49.89518" lon="2.26168">
        <ele>24.4</ele>
        <time>2023-06-23T13:58:48Z</time>
      </trkpt>
      <trkpt lat="49.89519" lon="2.2617">
        <ele>24.4</ele>
        <time>2023-06-23T13:58:50Z</time>
      </trkpt>
      <trkpt lat="49.8952" lon="2.26171">
        <ele>24.4</ele>
        <time>2023-06-23T13:58:51Z</time>
      </trkpt>
      <trkpt lat="49.89521" lon="2.26173">
        <ele>24.4</ele>
        <time>2023-06-23T13:58:52Z</time>
      </trkpt>
      <trkpt lat="49.89522" lon="2.26175">
        <ele>24.4</ele>
        <time>2023-06-23T13:58:53Z</time>
      </trkpt>
      <trkpt lat="49.89523" lon="2.26176">
        <ele>24.4</ele>
        <time>2023-06-23T13:58:54Z</time>
      </trkpt>
      <trkpt lat="49.89524" lon="2.26178">
        <ele>24.4</ele>
        <time>2023-06-23T13:58:55Z</time>
      </trkpt>
      <trkpt lat="49.89526" lon="2.26179">
        <ele>24.4</ele>
        <time>2023-06-23T13:58:56Z</time>
      </trkpt>
      <trkpt lat="49.89527" lon="2.2618">
        <ele>24.4</ele>
        <time>2023-06-23T13:58:57Z</time>
      </trkpt>
      <trkpt lat="49.89528" lon="2.26182">
        <ele>24.4</ele>
        <time>2023-06-23T13:58:58Z</time>
      </trkpt>
      <trkpt lat="49.89529" lon="2.26183">
        <ele>24.4</ele>
        <time>2023-06-23T13:58:59Z</time>
      </trkpt>
      <trkpt lat="49.89529" lon="2.26184">
        <ele>24.4</ele>
        <time>2023-06-23T13:59:00Z</time>
      </trkpt>
      <trkpt lat="49.8953" lon="2.26186">
        <ele>24.4</ele>
        <time>2023-06-23T13:59:01Z</time>
      </trkpt>
      <trkpt lat="49.89533" lon="2.2619">
        <ele>24.4</ele>
        <time>2023-06-23T13:59:03Z</time>
      </trkpt>
      <trkpt lat="49.89534" lon="2.26191">
        <ele>24.4</ele>
        <time>2023-06-23T13:59:05Z</time>
      </trkpt>
      <trkpt lat="49.89535" lon="2.26192">
        <ele>24.4</ele>
        <time>2023-06-23T13:59:06Z</time>
      </trkpt>
      <trkpt lat="49.89535" lon="2.26193">
        <ele>24.4</ele>
        <time>2023-06-23T13:59:07Z</time>
      </trkpt>
      <trkpt lat="49.89537" lon="2.26195">
        <ele>24.4</ele>
        <time>2023-06-23T13:59:08Z</time>
      </trkpt>
      <trkpt lat="49.89537" lon="2.26196">
        <ele>24.4</ele>
        <time>2023-06-23T13:59:09Z</time>
      </trkpt>
      <trkpt lat="49.89538" lon="2.26197">
        <ele>24.4</ele>
        <time>2023-06-23T13:59:10Z</time>
      </trkpt>
      <trkpt lat="49.89539" lon="2.26199">
        <ele>24.4</ele>
        <time>2023-06-23T13:59:11Z</time>
      </trkpt>
      <trkpt lat="49.8954" lon="2.262">
        <ele>24.4</ele>
        <time>2023-06-23T13:59:13Z</time>
      </trkpt>
      <trkpt lat="49.89541" lon="2.26202">
        <ele>24.4</ele>
        <time>2023-06-23T13:59:14Z</time>
      </trkpt>
      <trkpt lat="49.89542" lon="2.26203">
        <ele>24.4</ele>
        <time>2023-06-23T13:59:15Z</time>
      </trkpt>
      <trkpt lat="49.89542" lon="2.26204">
        <ele>24.4</ele>
        <time>2023-06-23T13:59:16Z</time>
      </trkpt>
      <trkpt lat="49.89543" lon="2.26205">
        <ele>24.4</ele>
        <time>2023-06-23T13:59:17Z</time>
      </trkpt>
      <trkpt lat="49.89544" lon="2.26207">
        <ele>24.4</ele>
        <time>2023-06-23T13:59:18Z</time>
      </trkpt>
      <trkpt lat="49.89544" lon="2.26208">
        <ele>24.5</ele>
        <time>2023-06-23T13:59:19Z</time>
      </trkpt>
      <trkpt lat="49.89545" lon="2.26209">
        <ele>24.5</ele>
        <time>2023-06-23T13:59:20Z</time>
      </trkpt>
      <trkpt lat="49.89546" lon="2.2621">
        <ele>24.5</ele>
        <time>2023-06-23T13:59:21Z</time>
      </trkpt>
      <trkpt lat="49.89546" lon="2.26212">
        <ele>24.5</ele>
        <time>2023-06-23T13:59:22Z</time>
      </trkpt>
      <trkpt lat="49.89548" lon="2.26214">
        <ele>24.5</ele>
        <time>2023-06-23T13:59:23Z</time>
      </trkpt>
      <trkpt lat="49.89548" lon="2.26215">
        <ele>24.5</ele>
        <time>2023-06-23T13:59:24Z</time>
      </trkpt>
      <trkpt lat="49.89549" lon="2.26216">
        <ele>24.5</ele>
        <time>2023-06-23T13:59:26Z</time>
      </trkpt>
      <trkpt lat="49.8955" lon="2.26217">
        <ele>24.5</ele>
        <time>2023-06-23T13:59:27Z</time>
      </trkpt>
      <trkpt lat="49.89551" lon="2.26218">
        <ele>24.5</ele>
        <time>2023-06-23T13:59:28Z</time>
      </trkpt>
      <trkpt lat="49.89551" lon="2.2622">
        <ele>24.5</ele>
        <time>2023-06-23T13:59:29Z</time>
      </trkpt>
      <trkpt lat="49.89552" lon="2.26221">
        <ele>24.5</ele>
        <time>2023-06-23T13:59:30Z</time>
      </trkpt>
      <trkpt lat="49.89553" lon="2.26222">
        <ele>24.5</ele>
        <time>2023-06-23T13:59:31Z</time>
      </trkpt>
      <trkpt lat="49.89553" lon="2.26223">
        <ele>24.5</ele>
        <time>2023-06-23T13:59:32Z</time>
      </trkpt>
      <trkpt lat="49.89554" lon="2.26225">
        <ele>24.5</ele>
        <time>2023-06-23T13:59:33Z</time>
      </trkpt>
      <trkpt lat="49.89555" lon="2.26226">
        <ele>24.5</ele>
        <time>2023-06-23T13:59:34Z</time>
      </trkpt>
      <trkpt lat="49.89556" lon="2.26227">
        <ele>24.5</ele>
        <time>2023-06-23T13:59:35Z</time>
      </trkpt>
      <trkpt lat="49.89556" lon="2.26229">
        <ele>24.5</ele>
        <time>2023-06-23T13:59:36Z</time>
      </trkpt>
      <trkpt lat="49.89557" lon="2.2623">
        <ele>24.5</ele>
        <time>2023-06-23T13:59:38Z</time>
      </trkpt>
      <trkpt lat="49.89558" lon="2.26232">
        <ele>24.5</ele>
        <time>2023-06-23T13:59:39Z</time>
      </trkpt>
      <trkpt lat="49.89558" lon="2.26233">
        <ele>24.5</ele>
        <time>2023-06-23T13:59:40Z</time>
      </trkpt>
      <trkpt lat="49.89558" lon="2.26234">
        <ele>24.5</ele>
        <time>2023-06-23T13:59:41Z</time>
      </trkpt>
      <trkpt lat="49.89559" lon="2.26236">
        <ele>24.5</ele>
        <time>2023-06-23T13:59:42Z</time>
      </trkpt>
      <trkpt lat="49.8956" lon="2.26237">
        <ele>24.5</ele>
        <time>2023-06-23T13:59:43Z</time>
      </trkpt>
      <trkpt lat="49.89561" lon="2.26238">
        <ele>24.5</ele>
        <time>2023-06-23T13:59:44Z</time>
      </trkpt>
      <trkpt lat="49.89562" lon="2.26239">
        <ele>24.5</ele>
        <time>2023-06-23T13:59:45Z</time>
      </trkpt>
      <trkpt lat="49.89563" lon="2.2624">
        <ele>24.5</ele>
        <time>2023-06-23T13:59:46Z</time>
      </trkpt>
      <trkpt lat="49.89564" lon="2.26243">
        <ele>24.5</ele>
        <time>2023-06-23T13:59:47Z</time>
      </trkpt>
      <trkpt lat="49.89565" lon="2.26244">
        <ele>24.5</ele>
        <time>2023-06-23T13:59:49Z</time>
      </trkpt>
      <trkpt lat="49.89566" lon="2.26245">
        <ele>24.5</ele>
        <time>2023-06-23T13:59:50Z</time>
      </trkpt>
      <trkpt lat="49.89566" lon="2.26246">
        <ele>24.5</ele>
        <time>2023-06-23T13:59:51Z</time>
      </trkpt>
      <trkpt lat="49.89567" lon="2.26247">
        <ele>24.5</ele>
        <time>2023-06-23T13:59:52Z</time>
      </trkpt>
      <trkpt lat="49.89568" lon="2.26248">
        <ele>24.5</ele>
        <time>2023-06-23T13:59:53Z</time>
      </trkpt>
      <trkpt lat="49.89569" lon="2.2625">
        <ele>24.5</ele>
        <time>2023-06-23T13:59:54Z</time>
      </trkpt>
      <trkpt lat="49.89569" lon="2.26251">
        <ele>24.5</ele>
        <time>2023-06-23T13:59:55Z</time>
      </trkpt>
      <trkpt lat="49.89569" lon="2.26252">
        <ele>24.5</ele>
        <time>2023-06-23T13:59:56Z</time>
      </trkpt>
      <trkpt lat="49.8957" lon="2.26253">
        <ele>24.5</ele>
        <time>2023-06-23T13:59:57Z</time>
      </trkpt>
      <trkpt lat="49.8957" lon="2.26255">
        <ele>24.5</ele>
        <time>2023-06-23T13:59:58Z</time>
      </trkpt>
      <trkpt lat="49.89571" lon="2.26257">
        <ele>24.5</ele>
        <time>2023-06-23T13:59:59Z</time>
      </trkpt>
      <trkpt lat="49.89572" lon="2.26258">
        <ele>24.5</ele>
        <time>2023-06-23T14:00:00Z</time>
      </trkpt>
      <trkpt lat="49.89572" lon="2.2626">
        <ele>24.5</ele>
        <time>2023-06-23T14:00:02Z</time>
      </trkpt>
      <trkpt lat="49.89573" lon="2.26261">
        <ele>24.5</ele>
        <time>2023-06-23T14:00:03Z</time>
      </trkpt>
      <trkpt lat="49.89573" lon="2.26262">
        <ele>24.5</ele>
        <time>2023-06-23T14:00:04Z</time>
      </trkpt>
      <trkpt lat="49.89574" lon="2.26263">
        <ele>24.5</ele>
        <time>2023-06-23T14:00:05Z</time>
      </trkpt>
      <trkpt lat="49.89575" lon="2.26265">
        <ele>24.5</ele>
        <time>2023-06-23T14:00:06Z</time>
      </trkpt>
      <trkpt lat="49.89576" lon="2.26267">
        <ele>24.5</ele>
        <time>2023-06-23T14:00:07Z</time>
      </trkpt>
      <trkpt lat="49.89576" lon="2.26269">
        <ele>24.6</ele>
        <time>2023-06-23T14:00:08Z</time>
      </trkpt>
      <trkpt lat="49.89577" lon="2.2627">
        <ele>24.6</ele>
        <time>2023-06-23T14:00:09Z</time>
      </trkpt>
      <trkpt lat="49.89577" lon="2.26271">
        <ele>24.6</ele>
        <time>2023-06-23T14:00:10Z</time>
      </trkpt>
      <trkpt lat="49.89578" lon="2.26273">
        <ele>24.6</ele>
        <time>2023-06-23T14:00:11Z</time>
      </trkpt>
      <trkpt lat="49.89579" lon="2.26275">
        <ele>24.6</ele>
        <time>2023-06-23T14:00:13Z</time>
      </trkpt>
      <trkpt lat="49.89581" lon="2.26278">
        <ele>24.6</ele>
        <time>2023-06-23T14:00:14Z</time>
      </trkpt>
      <trkpt lat="49.89581" lon="2.26279">
        <ele>24.6</ele>
        <time>2023-06-23T14:00:15Z</time>
      </trkpt>
      <trkpt lat="49.89581" lon="2.26279">
        <ele>24.6</ele>
        <time>2023-06-23T14:00:16Z</time>
      </trkpt>
      <trkpt lat="49.89582" lon="2.2628">
        <ele>24.6</ele>
        <time>2023-06-23T14:00:17Z</time>
      </trkpt>
      <trkpt lat="49.89583" lon="2.26282">
        <ele>24.6</ele>
        <time>2023-06-23T14:00:18Z</time>
      </trkpt>
      <trkpt lat="49.89584" lon="2.26285">
        <ele>24.6</ele>
        <time>2023-06-23T14:00:20Z</time>
      </trkpt>
      <trkpt lat="49.89586" lon="2.26287">
        <ele>24.6</ele>
        <time>2023-06-23T14:00:21Z</time>
      </trkpt>
      <trkpt lat="49.89586" lon="2.26288">
        <ele>24.6</ele>
        <time>2023-06-23T14:00:22Z</time>
      </trkpt>
      <trkpt lat="49.89587" lon="2.26289">
        <ele>24.6</ele>
        <time>2023-06-23T14:00:23Z</time>
      </trkpt>
      <trkpt lat="49.89589" lon="2.26292">
        <ele>24.6</ele>
        <time>2023-06-23T14:00:25Z</time>
      </trkpt>
      <trkpt lat="49.8959" lon="2.26293">
        <ele>24.6</ele>
        <time>2023-06-23T14:00:26Z</time>
      </trkpt>
      <trkpt lat="49.89591" lon="2.26295">
        <ele>24.6</ele>
        <time>2023-06-23T14:00:27Z</time>
      </trkpt>
      <trkpt lat="49.89592" lon="2.26296">
        <ele>24.6</ele>
        <time>2023-06-23T14:00:29Z</time>
      </trkpt>
      <trkpt lat="49.89594" lon="2.26299">
        <ele>24.6</ele>
        <time>2023-06-23T14:00:30Z</time>
      </trkpt>
      <trkpt lat="49.89594" lon="2.26299">
        <ele>24.6</ele>
        <time>2023-06-23T14:00:31Z</time>
      </trkpt>
      <trkpt lat="49.89595" lon="2.26301">
        <ele>24.6</ele>
        <time>2023-06-23T14:00:32Z</time>
      </trkpt>
      <trkpt lat="49.89597" lon="2.26304">
        <ele>24.6</ele>
        <time>2023-06-23T14:00:34Z</time>
      </trkpt>
      <trkpt lat="49.89598" lon="2.26306">
        <ele>24.6</ele>
        <time>2023-06-23T14:00:35Z</time>
      </trkpt>
      <trkpt lat="49.89599" lon="2.26307">
        <ele>24.6</ele>
        <time>2023-06-23T14:00:37Z</time>
      </trkpt>
      <trkpt lat="49.896" lon="2.26308">
        <ele>24.6</ele>
        <time>2023-06-23T14:00:38Z</time>
      </trkpt>
      <trkpt lat="49.89601" lon="2.2631">
        <ele>24.6</ele>
        <time>2023-06-23T14:00:39Z</time>
      </trkpt>
      <trkpt lat="49.89602" lon="2.26311">
        <ele>24.6</ele>
        <time>2023-06-23T14:00:40Z</time>
      </trkpt>
      <trkpt lat="49.89603" lon="2.26314">
        <ele>24.6</ele>
        <time>2023-06-23T14:00:41Z</time>
      </trkpt>
      <trkpt lat="49.89604" lon="2.26314">
        <ele>24.6</ele>
        <time>2023-06-23T14:00:42Z</time>
      </trkpt>
      <trkpt lat="49.89604" lon="2.26315">
        <ele>24.6</ele>
        <time>2023-06-23T14:00:43Z</time>
      </trkpt>
      <trkpt lat="49.89605" lon="2.26318">
        <ele>24.6</ele>
        <time>2023-06-23T14:00:44Z</time>
      </trkpt>
      <trkpt lat="49.89606" lon="2.26319">
        <ele>24.6</ele>
        <time>2023-06-23T14:00:45Z</time>
      </trkpt>
      <trkpt lat="49.89606" lon="2.2632">
        <ele>24.6</ele>
        <time>2023-06-23T14:00:46Z</time>
      </trkpt>
      <trkpt lat="49.89607" lon="2.26323">
        <ele>24.6</ele>
        <time>2023-06-23T14:00:48Z</time>
      </trkpt>
      <trkpt lat="49.89607" lon="2.26324">
        <ele>24.6</ele>
        <time>2023-06-23T14:00:49Z</time>
      </trkpt>
      <trkpt lat="49.89608" lon="2.26325">
        <ele>24.6</ele>
        <time>2023-06-23T14:00:50Z</time>
      </trkpt>
      <trkpt lat="49.89608" lon="2.26327">
        <ele>24.6</ele>
        <time>2023-06-23T14:00:51Z</time>
      </trkpt>
      <trkpt lat="49.89609" lon="2.26328">
        <ele>24.6</ele>
        <time>2023-06-23T14:00:52Z</time>
      </trkpt>
      <trkpt lat="49.89609" lon="2.2633">
        <ele>24.6</ele>
        <time>2023-06-23T14:00:53Z</time>
      </trkpt>
      <trkpt lat="49.8961" lon="2.26332">
        <ele>24.5</ele>
        <time>2023-06-23T14:00:54Z</time>
      </trkpt>
      <trkpt lat="49.8961" lon="2.26333">
        <ele>24.5</ele>
        <time>2023-06-23T14:00:55Z</time>
      </trkpt>
      <trkpt lat="49.89611" lon="2.26335">
        <ele>24.5</ele>
        <time>2023-06-23T14:00:56Z</time>
      </trkpt>
      <trkpt lat="49.89612" lon="2.26336">
        <ele>24.5</ele>
        <time>2023-06-23T14:00:57Z</time>
      </trkpt>
      <trkpt lat="49.89613" lon="2.26338">
        <ele>24.5</ele>
        <time>2023-06-23T14:00:58Z</time>
      </trkpt>
      <trkpt lat="49.89613" lon="2.2634">
        <ele>24.5</ele>
        <time>2023-06-23T14:01:00Z</time>
      </trkpt>
      <trkpt lat="49.89614" lon="2.26342">
        <ele>24.5</ele>
        <time>2023-06-23T14:01:01Z</time>
      </trkpt>
      <trkpt lat="49.89614" lon="2.26343">
        <ele>24.5</ele>
        <time>2023-06-23T14:01:02Z</time>
      </trkpt>
      <trkpt lat="49.89615" lon="2.26345">
        <ele>24.5</ele>
        <time>2023-06-23T14:01:03Z</time>
      </trkpt>
      <trkpt lat="49.89616" lon="2.26346">
        <ele>24.5</ele>
        <time>2023-06-23T14:01:04Z</time>
      </trkpt>
      <trkpt lat="49.89616" lon="2.26347">
        <ele>24.5</ele>
        <time>2023-06-23T14:01:05Z</time>
      </trkpt>
      <trkpt lat="49.89617" lon="2.26349">
        <ele>24.5</ele>
        <time>2023-06-23T14:01:07Z</time>
      </trkpt>
      <trkpt lat="49.89618" lon="2.2635">
        <ele>24.5</ele>
        <time>2023-06-23T14:01:08Z</time>
      </trkpt>
      <trkpt lat="49.89618" lon="2.26351">
        <ele>24.5</ele>
        <time>2023-06-23T14:01:09Z</time>
      </trkpt>
      <trkpt lat="49.89619" lon="2.26353">
        <ele>24.5</ele>
        <time>2023-06-23T14:01:10Z</time>
      </trkpt>
      <trkpt lat="49.8962" lon="2.26356">
        <ele>24.5</ele>
        <time>2023-06-23T14:01:11Z</time>
      </trkpt>
      <trkpt lat="49.89621" lon="2.26357">
        <ele>24.5</ele>
        <time>2023-06-23T14:01:12Z</time>
      </trkpt>
      <trkpt lat="49.89621" lon="2.26358">
        <ele>24.4</ele>
        <time>2023-06-23T14:01:13Z</time>
      </trkpt>
      <trkpt lat="49.89623" lon="2.2636">
        <ele>24.4</ele>
        <time>2023-06-23T14:01:14Z</time>
      </trkpt>
      <trkpt lat="49.89624" lon="2.26361">
        <ele>24.4</ele>
        <time>2023-06-23T14:01:16Z</time>
      </trkpt>
      <trkpt lat="49.89624" lon="2.26362">
        <ele>24.4</ele>
        <time>2023-06-23T14:01:17Z</time>
      </trkpt>
      <trkpt lat="49.89626" lon="2.26364">
        <ele>24.4</ele>
        <time>2023-06-23T14:01:18Z</time>
      </trkpt>
      <trkpt lat="49.89626" lon="2.26365">
        <ele>24.4</ele>
        <time>2023-06-23T14:01:19Z</time>
      </trkpt>
      <trkpt lat="49.89627" lon="2.26367">
        <ele>24.4</ele>
        <time>2023-06-23T14:01:20Z</time>
      </trkpt>
      <trkpt lat="49.89629" lon="2.26369">
        <ele>24.4</ele>
        <time>2023-06-23T14:01:21Z</time>
      </trkpt>
      <trkpt lat="49.89629" lon="2.2637">
        <ele>24.4</ele>
        <time>2023-06-23T14:01:22Z</time>
      </trkpt>
      <trkpt lat="49.8963" lon="2.26371">
        <ele>24.4</ele>
        <time>2023-06-23T14:01:23Z</time>
      </trkpt>
      <trkpt lat="49.89631" lon="2.26372">
        <ele>24.4</ele>
        <time>2023-06-23T14:01:24Z</time>
      </trkpt>
      <trkpt lat="49.89632" lon="2.26374">
        <ele>24.4</ele>
        <time>2023-06-23T14:01:25Z</time>
      </trkpt>
      <trkpt lat="49.89633" lon="2.26377">
        <ele>24.4</ele>
        <time>2023-06-23T14:01:26Z</time>
      </trkpt>
      <trkpt lat="49.89633" lon="2.26378">
        <ele>24.4</ele>
        <time>2023-06-23T14:01:27Z</time>
      </trkpt>
      <trkpt lat="49.89634" lon="2.26379">
        <ele>24.4</ele>
        <time>2023-06-23T14:01:28Z</time>
      </trkpt>
      <trkpt lat="49.89635" lon="2.26382">
        <ele>24.4</ele>
        <time>2023-06-23T14:01:30Z</time>
      </trkpt>
      <trkpt lat="49.89636" lon="2.26383">
        <ele>24.4</ele>
        <time>2023-06-23T14:01:31Z</time>
      </trkpt>
      <trkpt lat="49.89636" lon="2.26384">
        <ele>24.4</ele>
        <time>2023-06-23T14:01:32Z</time>
      </trkpt>
      <trkpt lat="49.89637" lon="2.26386">
        <ele>24.4</ele>
        <time>2023-06-23T14:01:33Z</time>
      </trkpt>
      <trkpt lat="49.89638" lon="2.26388">
        <ele>24.4</ele>
        <time>2023-06-23T14:01:34Z</time>
      </trkpt>
      <trkpt lat="49.89639" lon="2.26389">
        <ele>24.4</ele>
        <time>2023-06-23T14:01:35Z</time>
      </trkpt>
      <trkpt lat="49.8964" lon="2.2639">
        <ele>24.4</ele>
        <time>2023-06-23T14:01:37Z</time>
      </trkpt>
      <trkpt lat="49.89641" lon="2.26392">
        <ele>24.4</ele>
        <time>2023-06-23T14:01:38Z</time>
      </trkpt>
      <trkpt lat="49.89643" lon="2.26395">
        <ele>24.4</ele>
        <time>2023-06-23T14:01:39Z</time>
      </trkpt>
      <trkpt lat="49.89643" lon="2.26396">
        <ele>24.4</ele>
        <time>2023-06-23T14:01:40Z</time>
      </trkpt>
      <trkpt lat="49.89645" lon="2.26398">
        <ele>24.4</ele>
        <time>2023-06-23T14:01:41Z</time>
      </trkpt>
      <trkpt lat="49.89646" lon="2.26399">
        <ele>24.4</ele>
        <time>2023-06-23T14:01:42Z</time>
      </trkpt>
      <trkpt lat="49.89646" lon="2.264">
        <ele>24.4</ele>
        <time>2023-06-23T14:01:43Z</time>
      </trkpt>
      <trkpt lat="49.89647" lon="2.26401">
        <ele>24.4</ele>
        <time>2023-06-23T14:01:44Z</time>
      </trkpt>
      <trkpt lat="49.89648" lon="2.26403">
        <ele>24.4</ele>
        <time>2023-06-23T14:01:45Z</time>
      </trkpt>
      <trkpt lat="49.89649" lon="2.26404">
        <ele>24.4</ele>
        <time>2023-06-23T14:01:46Z</time>
      </trkpt>
      <trkpt lat="49.8965" lon="2.26406">
        <ele>24.4</ele>
        <time>2023-06-23T14:01:47Z</time>
      </trkpt>
      <trkpt lat="49.89651" lon="2.26407">
        <ele>24.4</ele>
        <time>2023-06-23T14:01:48Z</time>
      </trkpt>
      <trkpt lat="49.89652" lon="2.26408">
        <ele>24.4</ele>
        <time>2023-06-23T14:01:49Z</time>
      </trkpt>
      <trkpt lat="49.89653" lon="2.26409">
        <ele>24.4</ele>
        <time>2023-06-23T14:01:51Z</time>
      </trkpt>
      <trkpt lat="49.89654" lon="2.26411">
        <ele>24.4</ele>
        <time>2023-06-23T14:01:52Z</time>
      </trkpt>
      <trkpt lat="49.89655" lon="2.26413">
        <ele>24.4</ele>
        <time>2023-06-23T14:01:53Z</time>
      </trkpt>
      <trkpt lat="49.89656" lon="2.26414">
        <ele>24.4</ele>
        <time>2023-06-23T14:01:54Z</time>
      </trkpt>
      <trkpt lat="49.89657" lon="2.26415">
        <ele>24.4</ele>
        <time>2023-06-23T14:01:55Z</time>
      </trkpt>
      <trkpt lat="49.89657" lon="2.26416">
        <ele>24.4</ele>
        <time>2023-06-23T14:01:56Z</time>
      </trkpt>
      <trkpt lat="49.89658" lon="2.26417">
        <ele>24.4</ele>
        <time>2023-06-23T14:01:57Z</time>
      </trkpt>
      <trkpt lat="49.89659" lon="2.26418">
        <ele>24.4</ele>
        <time>2023-06-23T14:01:58Z</time>
      </trkpt>
      <trkpt lat="49.89659" lon="2.26419">
        <ele>24.4</ele>
        <time>2023-06-23T14:01:59Z</time>
      </trkpt>
      <trkpt lat="49.8966" lon="2.26421">
        <ele>24.4</ele>
        <time>2023-06-23T14:02:00Z</time>
      </trkpt>
      <trkpt lat="49.89661" lon="2.26423">
        <ele>24.4</ele>
        <time>2023-06-23T14:02:02Z</time>
      </trkpt>
      <trkpt lat="49.89663" lon="2.26425">
        <ele>24.4</ele>
        <time>2023-06-23T14:02:03Z</time>
      </trkpt>
      <trkpt lat="49.89663" lon="2.26425">
        <ele>24.4</ele>
        <time>2023-06-23T14:02:04Z</time>
      </trkpt>
      <trkpt lat="49.89664" lon="2.26426">
        <ele>24.4</ele>
        <time>2023-06-23T14:02:05Z</time>
      </trkpt>
      <trkpt lat="49.89665" lon="2.26427">
        <ele>24.4</ele>
        <time>2023-06-23T14:02:06Z</time>
      </trkpt>
      <trkpt lat="49.89666" lon="2.26428">
        <ele>24.4</ele>
        <time>2023-06-23T14:02:08Z</time>
      </trkpt>
      <trkpt lat="49.89667" lon="2.26429">
        <ele>24.4</ele>
        <time>2023-06-23T14:02:09Z</time>
      </trkpt>
      <trkpt lat="49.89668" lon="2.26431">
        <ele>24.4</ele>
        <time>2023-06-23T14:02:10Z</time>
      </trkpt>
      <trkpt lat="49.89669" lon="2.26432">
        <ele>24.4</ele>
        <time>2023-06-23T14:02:11Z</time>
      </trkpt>
      <trkpt lat="49.89669" lon="2.26433">
        <ele>24.4</ele>
        <time>2023-06-23T14:02:12Z</time>
      </trkpt>
      <trkpt lat="49.8967" lon="2.26434">
        <ele>24.4</ele>
        <time>2023-06-23T14:02:13Z</time>
      </trkpt>
      <trkpt lat="49.89671" lon="2.26435">
        <ele>24.4</ele>
        <time>2023-06-23T14:02:14Z</time>
      </trkpt>
      <trkpt lat="49.89672" lon="2.26437">
        <ele>24.4</ele>
        <time>2023-06-23T14:02:15Z</time>
      </trkpt>
      <trkpt lat="49.89673" lon="2.26439">
        <ele>24.4</ele>
        <time>2023-06-23T14:02:16Z</time>
      </trkpt>
      <trkpt lat="49.89673" lon="2.26441">
        <ele>24.4</ele>
        <time>2023-06-23T14:02:17Z</time>
      </trkpt>
      <trkpt lat="49.89674" lon="2.26443">
        <ele>24.5</ele>
        <time>2023-06-23T14:02:19Z</time>
      </trkpt>
      <trkpt lat="49.89675" lon="2.26445">
        <ele>24.5</ele>
        <time>2023-06-23T14:02:20Z</time>
      </trkpt>
      <trkpt lat="49.89676" lon="2.26447">
        <ele>24.5</ele>
        <time>2023-06-23T14:02:21Z</time>
      </trkpt>
      <trkpt lat="49.89677" lon="2.26449">
        <ele>24.5</ele>
        <time>2023-06-23T14:02:22Z</time>
      </trkpt>
      <trkpt lat="49.89677" lon="2.26451">
        <ele>24.5</ele>
        <time>2023-06-23T14:02:23Z</time>
      </trkpt>
      <trkpt lat="49.89678" lon="2.26452">
        <ele>24.5</ele>
        <time>2023-06-23T14:02:24Z</time>
      </trkpt>
      <trkpt lat="49.89679" lon="2.26455">
        <ele>24.5</ele>
        <time>2023-06-23T14:02:25Z</time>
      </trkpt>
      <trkpt lat="49.89679" lon="2.26457">
        <ele>24.6</ele>
        <time>2023-06-23T14:02:26Z</time>
      </trkpt>
      <trkpt lat="49.8968" lon="2.26458">
        <ele>24.6</ele>
        <time>2023-06-23T14:02:27Z</time>
      </trkpt>
      <trkpt lat="49.8968" lon="2.26459">
        <ele>24.6</ele>
        <time>2023-06-23T14:02:29Z</time>
      </trkpt>
      <trkpt lat="49.89681" lon="2.26461">
        <ele>24.6</ele>
        <time>2023-06-23T14:02:30Z</time>
      </trkpt>
      <trkpt lat="49.89681" lon="2.26463">
        <ele>24.6</ele>
        <time>2023-06-23T14:02:31Z</time>
      </trkpt>
      <trkpt lat="49.89682" lon="2.26464">
        <ele>24.6</ele>
        <time>2023-06-23T14:02:32Z</time>
      </trkpt>
      <trkpt lat="49.89682" lon="2.26466">
        <ele>24.6</ele>
        <time>2023-06-23T14:02:33Z</time>
      </trkpt>
      <trkpt lat="49.89683" lon="2.26467">
        <ele>24.7</ele>
        <time>2023-06-23T14:02:34Z</time>
      </trkpt>
      <trkpt lat="49.89683" lon="2.26469">
        <ele>24.7</ele>
        <time>2023-06-23T14:02:35Z</time>
      </trkpt>
      <trkpt lat="49.89684" lon="2.2647">
        <ele>24.7</ele>
        <time>2023-06-23T14:02:36Z</time>
      </trkpt>
      <trkpt lat="49.89685" lon="2.26472">
        <ele>24.7</ele>
        <time>2023-06-23T14:02:37Z</time>
      </trkpt>
      <trkpt lat="49.89685" lon="2.26473">
        <ele>24.7</ele>
        <time>2023-06-23T14:02:39Z</time>
      </trkpt>
      <trkpt lat="49.89685" lon="2.26475">
        <ele>24.7</ele>
        <time>2023-06-23T14:02:40Z</time>
      </trkpt>
      <trkpt lat="49.89685" lon="2.26476">
        <ele>24.7</ele>
        <time>2023-06-23T14:02:41Z</time>
      </trkpt>
      <trkpt lat="49.89686" lon="2.26477">
        <ele>24.7</ele>
        <time>2023-06-23T14:02:42Z</time>
      </trkpt>
      <trkpt lat="49.89686" lon="2.26478">
        <ele>24.7</ele>
        <time>2023-06-23T14:02:43Z</time>
      </trkpt>
      <trkpt lat="49.89687" lon="2.26481">
        <ele>24.7</ele>
        <time>2023-06-23T14:02:44Z</time>
      </trkpt>
      <trkpt lat="49.89687" lon="2.26481">
        <ele>24.7</ele>
        <time>2023-06-23T14:02:45Z</time>
      </trkpt>
      <trkpt lat="49.89687" lon="2.26483">
        <ele>24.6</ele>
        <time>2023-06-23T14:02:46Z</time>
      </trkpt>
      <trkpt lat="49.89687" lon="2.26484">
        <ele>24.6</ele>
        <time>2023-06-23T14:02:47Z</time>
      </trkpt>
      <trkpt lat="49.89688" lon="2.26486">
        <ele>24.6</ele>
        <time>2023-06-23T14:02:48Z</time>
      </trkpt>
      <trkpt lat="49.89688" lon="2.2649">
        <ele>24.6</ele>
        <time>2023-06-23T14:02:50Z</time>
      </trkpt>
      <trkpt lat="49.89688" lon="2.26491">
        <ele>24.5</ele>
        <time>2023-06-23T14:02:51Z</time>
      </trkpt>
      <trkpt lat="49.89688" lon="2.26492">
        <ele>24.5</ele>
        <time>2023-06-23T14:02:52Z</time>
      </trkpt>
      <trkpt lat="49.89689" lon="2.26495">
        <ele>24.5</ele>
        <time>2023-06-23T14:02:53Z</time>
      </trkpt>
      <trkpt lat="49.89689" lon="2.26497">
        <ele>24.5</ele>
        <time>2023-06-23T14:02:54Z</time>
      </trkpt>
      <trkpt lat="49.89689" lon="2.265">
        <ele>24.1</ele>
        <time>2023-06-23T14:02:56Z</time>
      </trkpt>
      <trkpt lat="49.89689" lon="2.26501">
        <ele>24.1</ele>
        <time>2023-06-23T14:02:57Z</time>
      </trkpt>
      <trkpt lat="49.89689" lon="2.26502">
        <ele>24.1</ele>
        <time>2023-06-23T14:02:58Z</time>
      </trkpt>
      <trkpt lat="49.89689" lon="2.26504">
        <ele>24.1</ele>
        <time>2023-06-23T14:02:59Z</time>
      </trkpt>
      <trkpt lat="49.89689" lon="2.26506">
        <ele>24.1</ele>
        <time>2023-06-23T14:03:00Z</time>
      </trkpt>
      <trkpt lat="49.8969" lon="2.26507">
        <ele>24.1</ele>
        <time>2023-06-23T14:03:01Z</time>
      </trkpt>
      <trkpt lat="49.8969" lon="2.26508">
        <ele>24.1</ele>
        <time>2023-06-23T14:03:02Z</time>
      </trkpt>
      <trkpt lat="49.8969" lon="2.2651">
        <ele>24.1</ele>
        <time>2023-06-23T14:03:03Z</time>
      </trkpt>
      <trkpt lat="49.8969" lon="2.26512">
        <ele>24.5</ele>
        <time>2023-06-23T14:03:04Z</time>
      </trkpt>
      <trkpt lat="49.8969" lon="2.26513">
        <ele>24.4</ele>
        <time>2023-06-23T14:03:05Z</time>
      </trkpt>
      <trkpt lat="49.8969" lon="2.26515">
        <ele>24.4</ele>
        <time>2023-06-23T14:03:06Z</time>
      </trkpt>
      <trkpt lat="49.8969" lon="2.26517">
        <ele>24.4</ele>
        <time>2023-06-23T14:03:08Z</time>
      </trkpt>
      <trkpt lat="49.8969" lon="2.26519">
        <ele>24.4</ele>
        <time>2023-06-23T14:03:09Z</time>
      </trkpt>
      <trkpt lat="49.89691" lon="2.26521">
        <ele>24.4</ele>
        <time>2023-06-23T14:03:10Z</time>
      </trkpt>
      <trkpt lat="49.89691" lon="2.26523">
        <ele>24.4</ele>
        <time>2023-06-23T14:03:11Z</time>
      </trkpt>
      <trkpt lat="49.89691" lon="2.26525">
        <ele>24.4</ele>
        <time>2023-06-23T14:03:12Z</time>
      </trkpt>
      <trkpt lat="49.89691" lon="2.26526">
        <ele>24.4</ele>
        <time>2023-06-23T14:03:13Z</time>
      </trkpt>
      <trkpt lat="49.89691" lon="2.26528">
        <ele>24.4</ele>
        <time>2023-06-23T14:03:14Z</time>
      </trkpt>
      <trkpt lat="49.8969" lon="2.26529">
        <ele>24.4</ele>
        <time>2023-06-23T14:03:15Z</time>
      </trkpt>
      <trkpt lat="49.8969" lon="2.26532">
        <ele>24.4</ele>
        <time>2023-06-23T14:03:16Z</time>
      </trkpt>
      <trkpt lat="49.8969" lon="2.26533">
        <ele>24.4</ele>
        <time>2023-06-23T14:03:17Z</time>
      </trkpt>
      <trkpt lat="49.8969" lon="2.26536">
        <ele>24.4</ele>
        <time>2023-06-23T14:03:18Z</time>
      </trkpt>
      <trkpt lat="49.8969" lon="2.26537">
        <ele>24.4</ele>
        <time>2023-06-23T14:03:20Z</time>
      </trkpt>
      <trkpt lat="49.89691" lon="2.26539">
        <ele>24.4</ele>
        <time>2023-06-23T14:03:21Z</time>
      </trkpt>
      <trkpt lat="49.89691" lon="2.26542">
        <ele>24.4</ele>
        <time>2023-06-23T14:03:22Z</time>
      </trkpt>
      <trkpt lat="49.89691" lon="2.26543">
        <ele>24.4</ele>
        <time>2023-06-23T14:03:23Z</time>
      </trkpt>
      <trkpt lat="49.89692" lon="2.26546">
        <ele>24.4</ele>
        <time>2023-06-23T14:03:24Z</time>
      </trkpt>
      <trkpt lat="49.89692" lon="2.26547">
        <ele>24.4</ele>
        <time>2023-06-23T14:03:25Z</time>
      </trkpt>
      <trkpt lat="49.89692" lon="2.26549">
        <ele>24.4</ele>
        <time>2023-06-23T14:03:26Z</time>
      </trkpt>
      <trkpt lat="49.89693" lon="2.26552">
        <ele>24.4</ele>
        <time>2023-06-23T14:03:27Z</time>
      </trkpt>
      <trkpt lat="49.89693" lon="2.26553">
        <ele>24.4</ele>
        <time>2023-06-23T14:03:28Z</time>
      </trkpt>
      <trkpt lat="49.89693" lon="2.26555">
        <ele>24.4</ele>
        <time>2023-06-23T14:03:29Z</time>
      </trkpt>
      <trkpt lat="49.89694" lon="2.26557">
        <ele>24.4</ele>
        <time>2023-06-23T14:03:31Z</time>
      </trkpt>
      <trkpt lat="49.89694" lon="2.2656">
        <ele>24.4</ele>
        <time>2023-06-23T14:03:32Z</time>
      </trkpt>
      <trkpt lat="49.89695" lon="2.26562">
        <ele>24.4</ele>
        <time>2023-06-23T14:03:33Z</time>
      </trkpt>
      <trkpt lat="49.89695" lon="2.26564">
        <ele>24.4</ele>
        <time>2023-06-23T14:03:34Z</time>
      </trkpt>
      <trkpt lat="49.89695" lon="2.26565">
        <ele>24.4</ele>
        <time>2023-06-23T14:03:35Z</time>
      </trkpt>
      <trkpt lat="49.89695" lon="2.26567">
        <ele>24.4</ele>
        <time>2023-06-23T14:03:36Z</time>
      </trkpt>
      <trkpt lat="49.89695" lon="2.26569">
        <ele>24.4</ele>
        <time>2023-06-23T14:03:37Z</time>
      </trkpt>
      <trkpt lat="49.89695" lon="2.2657">
        <ele>24.4</ele>
        <time>2023-06-23T14:03:38Z</time>
      </trkpt>
      <trkpt lat="49.89695" lon="2.26574">
        <ele>24.4</ele>
        <time>2023-06-23T14:03:39Z</time>
      </trkpt>
      <trkpt lat="49.89695" lon="2.26575">
        <ele>24.4</ele>
        <time>2023-06-23T14:03:41Z</time>
      </trkpt>
      <trkpt lat="49.89695" lon="2.26577">
        <ele>24.4</ele>
        <time>2023-06-23T14:03:42Z</time>
      </trkpt>
      <trkpt lat="49.89695" lon="2.26578">
        <ele>24.4</ele>
        <time>2023-06-23T14:03:43Z</time>
      </trkpt>
      <trkpt lat="49.89695" lon="2.2658">
        <ele>24.4</ele>
        <time>2023-06-23T14:03:44Z</time>
      </trkpt>
      <trkpt lat="49.89695" lon="2.26582">
        <ele>24.4</ele>
        <time>2023-06-23T14:03:45Z</time>
      </trkpt>
      <trkpt lat="49.89696" lon="2.26584">
        <ele>24.4</ele>
        <time>2023-06-23T14:03:46Z</time>
      </trkpt>
      <trkpt lat="49.89696" lon="2.26586">
        <ele>24.4</ele>
        <time>2023-06-23T14:03:47Z</time>
      </trkpt>
      <trkpt lat="49.89696" lon="2.26587">
        <ele>24.4</ele>
        <time>2023-06-23T14:03:48Z</time>
      </trkpt>
      <trkpt lat="49.89696" lon="2.2659">
        <ele>24.5</ele>
        <time>2023-06-23T14:03:50Z</time>
      </trkpt>
      <trkpt lat="49.89696" lon="2.26592">
        <ele>24.5</ele>
        <time>2023-06-23T14:03:51Z</time>
      </trkpt>
      <trkpt lat="49.89695" lon="2.26594">
        <ele>24.5</ele>
        <time>2023-06-23T14:03:52Z</time>
      </trkpt>
      <trkpt lat="49.89695" lon="2.26595">
        <ele>24.5</ele>
        <time>2023-06-23T14:03:53Z</time>
      </trkpt>
      <trkpt lat="49.89695" lon="2.26597">
        <ele>24.5</ele>
        <time>2023-06-23T14:03:54Z</time>
      </trkpt>
      <trkpt lat="49.89695" lon="2.26599">
        <ele>24.5</ele>
        <time>2023-06-23T14:03:56Z</time>
      </trkpt>
      <trkpt lat="49.89694" lon="2.266">
        <ele>24.5</ele>
        <time>2023-06-23T14:03:57Z</time>
      </trkpt>
      <trkpt lat="49.89694" lon="2.26601">
        <ele>24.5</ele>
        <time>2023-06-23T14:03:58Z</time>
      </trkpt>
      <trkpt lat="49.89694" lon="2.26603">
        <ele>24.5</ele>
        <time>2023-06-23T14:03:59Z</time>
      </trkpt>
      <trkpt lat="49.89694" lon="2.26604">
        <ele>24.5</ele>
        <time>2023-06-23T14:04:00Z</time>
      </trkpt>
      <trkpt lat="49.89694" lon="2.26606">
        <ele>24.5</ele>
        <time>2023-06-23T14:04:01Z</time>
      </trkpt>
      <trkpt lat="49.89694" lon="2.26608">
        <ele>24.5</ele>
        <time>2023-06-23T14:04:02Z</time>
      </trkpt>
      <trkpt lat="49.89694" lon="2.26609">
        <ele>24.5</ele>
        <time>2023-06-23T14:04:03Z</time>
      </trkpt>
      <trkpt lat="49.89694" lon="2.26611">
        <ele>24.5</ele>
        <time>2023-06-23T14:04:04Z</time>
      </trkpt>
      <trkpt lat="49.89693" lon="2.26612">
        <ele>24.5</ele>
        <time>2023-06-23T14:04:05Z</time>
      </trkpt>
      <trkpt lat="49.89693" lon="2.26614">
        <ele>24.5</ele>
        <time>2023-06-23T14:04:06Z</time>
      </trkpt>
      <trkpt lat="49.89693" lon="2.26616">
        <ele>24.6</ele>
        <time>2023-06-23T14:04:08Z</time>
      </trkpt>
      <trkpt lat="49.89693" lon="2.26618">
        <ele>24.6</ele>
        <time>2023-06-23T14:04:09Z</time>
      </trkpt>
      <trkpt lat="49.89693" lon="2.2662">
        <ele>24.6</ele>
        <time>2023-06-23T14:04:10Z</time>
      </trkpt>
      <trkpt lat="49.89693" lon="2.26621">
        <ele>24.6</ele>
        <time>2023-06-23T14:04:11Z</time>
      </trkpt>
      <trkpt lat="49.89694" lon="2.26624">
        <ele>24.6</ele>
        <time>2023-06-23T14:04:12Z</time>
      </trkpt>
      <trkpt lat="49.89694" lon="2.26625">
        <ele>24.6</ele>
        <time>2023-06-23T14:04:13Z</time>
      </trkpt>
      <trkpt lat="49.89694" lon="2.26627">
        <ele>24.6</ele>
        <time>2023-06-23T14:04:15Z</time>
      </trkpt>
      <trkpt lat="49.89694" lon="2.26631">
        <ele>24.5</ele>
        <time>2023-06-23T14:04:16Z</time>
      </trkpt>
      <trkpt lat="49.89694" lon="2.26632">
        <ele>24.5</ele>
        <time>2023-06-23T14:04:17Z</time>
      </trkpt>
      <trkpt lat="49.89694" lon="2.26633">
        <ele>24.5</ele>
        <time>2023-06-23T14:04:18Z</time>
      </trkpt>
      <trkpt lat="49.89695" lon="2.26636">
        <ele>24.5</ele>
        <time>2023-06-23T14:04:19Z</time>
      </trkpt>
      <trkpt lat="49.89695" lon="2.26638">
        <ele>24.5</ele>
        <time>2023-06-23T14:04:20Z</time>
      </trkpt>
      <trkpt lat="49.89695" lon="2.26639">
        <ele>24.5</ele>
        <time>2023-06-23T14:04:21Z</time>
      </trkpt>
      <trkpt lat="49.89696" lon="2.26642">
        <ele>24.4</ele>
        <time>2023-06-23T14:04:22Z</time>
      </trkpt>
      <trkpt lat="49.89696" lon="2.26644">
        <ele>24.4</ele>
        <time>2023-06-23T14:04:23Z</time>
      </trkpt>
      <trkpt lat="49.89696" lon="2.26647">
        <ele>24.4</ele>
        <time>2023-06-23T14:04:25Z</time>
      </trkpt>
      <trkpt lat="49.89695" lon="2.26648">
        <ele>24.4</ele>
        <time>2023-06-23T14:04:26Z</time>
      </trkpt>
      <trkpt lat="49.89695" lon="2.26649">
        <ele>24.3</ele>
        <time>2023-06-23T14:04:27Z</time>
      </trkpt>
      <trkpt lat="49.89695" lon="2.26652">
        <ele>24.3</ele>
        <time>2023-06-23T14:04:28Z</time>
      </trkpt>
      <trkpt lat="49.89695" lon="2.26654">
        <ele>24.3</ele>
        <time>2023-06-23T14:04:29Z</time>
      </trkpt>
      <trkpt lat="49.89695" lon="2.26656">
        <ele>24.3</ele>
        <time>2023-06-23T14:04:30Z</time>
      </trkpt>
      <trkpt lat="49.89695" lon="2.26658">
        <ele>24.3</ele>
        <time>2023-06-23T14:04:31Z</time>
      </trkpt>
      <trkpt lat="49.89695" lon="2.26661">
        <ele>24.2</ele>
        <time>2023-06-23T14:04:32Z</time>
      </trkpt>
      <trkpt lat="49.89694" lon="2.26663">
        <ele>24.2</ele>
        <time>2023-06-23T14:04:34Z</time>
      </trkpt>
      <trkpt lat="49.89694" lon="2.26664">
        <ele>24.2</ele>
        <time>2023-06-23T14:04:35Z</time>
      </trkpt>
      <trkpt lat="49.89694" lon="2.26666">
        <ele>24.2</ele>
        <time>2023-06-23T14:04:36Z</time>
      </trkpt>
      <trkpt lat="49.89693" lon="2.26668">
        <ele>24.1</ele>
        <time>2023-06-23T14:04:37Z</time>
      </trkpt>
      <trkpt lat="49.89693" lon="2.2667">
        <ele>24.1</ele>
        <time>2023-06-23T14:04:38Z</time>
      </trkpt>
      <trkpt lat="49.89693" lon="2.26672">
        <ele>24.1</ele>
        <time>2023-06-23T14:04:39Z</time>
      </trkpt>
      <trkpt lat="49.89694" lon="2.26676">
        <ele>24.1</ele>
        <time>2023-06-23T14:04:40Z</time>
      </trkpt>
      <trkpt lat="49.89694" lon="2.26677">
        <ele>24.1</ele>
        <time>2023-06-23T14:04:41Z</time>
      </trkpt>
      <trkpt lat="49.89695" lon="2.26678">
        <ele>24.1</ele>
        <time>2023-06-23T14:04:42Z</time>
      </trkpt>
      <trkpt lat="49.89695" lon="2.2668">
        <ele>24.1</ele>
        <time>2023-06-23T14:04:43Z</time>
      </trkpt>
      <trkpt lat="49.89696" lon="2.26682">
        <ele>24</ele>
        <time>2023-06-23T14:04:44Z</time>
      </trkpt>
      <trkpt lat="49.89696" lon="2.26684">
        <ele>24</ele>
        <time>2023-06-23T14:04:46Z</time>
      </trkpt>
      <trkpt lat="49.89696" lon="2.26685">
        <ele>24</ele>
        <time>2023-06-23T14:04:47Z</time>
      </trkpt>
      <trkpt lat="49.89696" lon="2.26687">
        <ele>24</ele>
        <time>2023-06-23T14:04:48Z</time>
      </trkpt>
      <trkpt lat="49.89696" lon="2.26689">
        <ele>24</ele>
        <time>2023-06-23T14:04:49Z</time>
      </trkpt>
      <trkpt lat="49.89696" lon="2.2669">
        <ele>24</ele>
        <time>2023-06-23T14:04:50Z</time>
      </trkpt>
      <trkpt lat="49.89696" lon="2.26692">
        <ele>24</ele>
        <time>2023-06-23T14:04:51Z</time>
      </trkpt>
      <trkpt lat="49.89696" lon="2.26696">
        <ele>24</ele>
        <time>2023-06-23T14:04:53Z</time>
      </trkpt>
      <trkpt lat="49.89696" lon="2.26697">
        <ele>24</ele>
        <time>2023-06-23T14:04:54Z</time>
      </trkpt>
      <trkpt lat="49.89696" lon="2.26698">
        <ele>24</ele>
        <time>2023-06-23T14:04:55Z</time>
      </trkpt>
      <trkpt lat="49.89697" lon="2.26701">
        <ele>24</ele>
        <time>2023-06-23T14:04:57Z</time>
      </trkpt>
      <trkpt lat="49.89697" lon="2.26703">
        <ele>24</ele>
        <time>2023-06-23T14:04:58Z</time>
      </trkpt>
      <trkpt lat="49.89697" lon="2.26705">
        <ele>24</ele>
        <time>2023-06-23T14:04:59Z</time>
      </trkpt>
      <trkpt lat="49.89697" lon="2.26706">
        <ele>24</ele>
        <time>2023-06-23T14:05:00Z</time>
      </trkpt>
      <trkpt lat="49.89697" lon="2.26708">
        <ele>24</ele>
        <time>2023-06-23T14:05:01Z</time>
      </trkpt>
      <trkpt lat="49.89697" lon="2.26709">
        <ele>24</ele>
        <time>2023-06-23T14:05:02Z</time>
      </trkpt>
      <trkpt lat="49.89697" lon="2.26711">
        <ele>24</ele>
        <time>2023-06-23T14:05:03Z</time>
      </trkpt>
      <trkpt lat="49.89697" lon="2.26713">
        <ele>24</ele>
        <time>2023-06-23T14:05:04Z</time>
      </trkpt>
      <trkpt lat="49.89697" lon="2.26714">
        <ele>24</ele>
        <time>2023-06-23T14:05:06Z</time>
      </trkpt>
      <trkpt lat="49.89697" lon="2.26716">
        <ele>24</ele>
        <time>2023-06-23T14:05:07Z</time>
      </trkpt>
      <trkpt lat="49.89697" lon="2.26718">
        <ele>24</ele>
        <time>2023-06-23T14:05:08Z</time>
      </trkpt>
      <trkpt lat="49.89697" lon="2.26719">
        <ele>24.1</ele>
        <time>2023-06-23T14:05:09Z</time>
      </trkpt>
      <trkpt lat="49.89697" lon="2.26721">
        <ele>24.1</ele>
        <time>2023-06-23T14:05:10Z</time>
      </trkpt>
      <trkpt lat="49.89697" lon="2.26722">
        <ele>24.1</ele>
        <time>2023-06-23T14:05:11Z</time>
      </trkpt>
      <trkpt lat="49.89697" lon="2.26724">
        <ele>24.1</ele>
        <time>2023-06-23T14:05:12Z</time>
      </trkpt>
      <trkpt lat="49.89697" lon="2.26726">
        <ele>24.1</ele>
        <time>2023-06-23T14:05:13Z</time>
      </trkpt>
      <trkpt lat="49.89697" lon="2.26728">
        <ele>24.1</ele>
        <time>2023-06-23T14:05:14Z</time>
      </trkpt>
      <trkpt lat="49.89697" lon="2.26729">
        <ele>24.1</ele>
        <time>2023-06-23T14:05:15Z</time>
      </trkpt>
      <trkpt lat="49.89697" lon="2.26731">
        <ele>24.1</ele>
        <time>2023-06-23T14:05:16Z</time>
      </trkpt>
      <trkpt lat="49.89697" lon="2.26734">
        <ele>24.1</ele>
        <time>2023-06-23T14:05:18Z</time>
      </trkpt>
      <trkpt lat="49.89697" lon="2.26735">
        <ele>24.1</ele>
        <time>2023-06-23T14:05:19Z</time>
      </trkpt>
      <trkpt lat="49.89697" lon="2.26736">
        <ele>24.1</ele>
        <time>2023-06-23T14:05:20Z</time>
      </trkpt>
      <trkpt lat="49.89698" lon="2.2674">
        <ele>24.1</ele>
        <time>2023-06-23T14:05:21Z</time>
      </trkpt>
      <trkpt lat="49.89698" lon="2.26742">
        <ele>24.1</ele>
        <time>2023-06-23T14:05:22Z</time>
      </trkpt>
      <trkpt lat="49.89698" lon="2.26743">
        <ele>24.1</ele>
        <time>2023-06-23T14:05:23Z</time>
      </trkpt>
      <trkpt lat="49.89698" lon="2.26746">
        <ele>24.1</ele>
        <time>2023-06-23T14:05:24Z</time>
      </trkpt>
      <trkpt lat="49.89698" lon="2.26748">
        <ele>24.1</ele>
        <time>2023-06-23T14:05:25Z</time>
      </trkpt>
      <trkpt lat="49.89698" lon="2.26749">
        <ele>24.1</ele>
        <time>2023-06-23T14:05:26Z</time>
      </trkpt>
      <trkpt lat="49.89699" lon="2.26753">
        <ele>24.1</ele>
        <time>2023-06-23T14:05:27Z</time>
      </trkpt>
      <trkpt lat="49.89699" lon="2.26754">
        <ele>24.1</ele>
        <time>2023-06-23T14:05:29Z</time>
      </trkpt>
      <trkpt lat="49.89699" lon="2.26756">
        <ele>24.1</ele>
        <time>2023-06-23T14:05:30Z</time>
      </trkpt>
      <trkpt lat="49.89699" lon="2.26758">
        <ele>24.1</ele>
        <time>2023-06-23T14:05:31Z</time>
      </trkpt>
      <trkpt lat="49.897" lon="2.26759">
        <ele>24.1</ele>
        <time>2023-06-23T14:05:32Z</time>
      </trkpt>
      <trkpt lat="49.897" lon="2.26763">
        <ele>24.2</ele>
        <time>2023-06-23T14:05:33Z</time>
      </trkpt>
      <trkpt lat="49.89701" lon="2.26764">
        <ele>24.2</ele>
        <time>2023-06-23T14:05:34Z</time>
      </trkpt>
      <trkpt lat="49.89701" lon="2.26765">
        <ele>24.2</ele>
        <time>2023-06-23T14:05:35Z</time>
      </trkpt>
      <trkpt lat="49.89701" lon="2.26767">
        <ele>24.2</ele>
        <time>2023-06-23T14:05:36Z</time>
      </trkpt>
      <trkpt lat="49.89702" lon="2.26769">
        <ele>24.2</ele>
        <time>2023-06-23T14:05:38Z</time>
      </trkpt>
      <trkpt lat="49.89702" lon="2.26771">
        <ele>24.2</ele>
        <time>2023-06-23T14:05:39Z</time>
      </trkpt>
      <trkpt lat="49.89702" lon="2.26773">
        <ele>24.2</ele>
        <time>2023-06-23T14:05:40Z</time>
      </trkpt>
      <trkpt lat="49.89702" lon="2.26775">
        <ele>24.2</ele>
        <time>2023-06-23T14:05:41Z</time>
      </trkpt>
      <trkpt lat="49.89702" lon="2.26777">
        <ele>24.2</ele>
        <time>2023-06-23T14:05:42Z</time>
      </trkpt>
      <trkpt lat="49.89703" lon="2.26779">
        <ele>24.2</ele>
        <time>2023-06-23T14:05:43Z</time>
      </trkpt>
      <trkpt lat="49.89703" lon="2.2678">
        <ele>24.2</ele>
        <time>2023-06-23T14:05:44Z</time>
      </trkpt>
      <trkpt lat="49.89702" lon="2.26781">
        <ele>24.2</ele>
        <time>2023-06-23T14:05:45Z</time>
      </trkpt>
      <trkpt lat="49.89701" lon="2.26782">
        <ele>24.2</ele>
        <time>2023-06-23T14:05:47Z</time>
      </trkpt>
      <trkpt lat="49.89701" lon="2.26784">
        <ele>24.2</ele>
        <time>2023-06-23T14:05:48Z</time>
      </trkpt>
      <trkpt lat="49.89701" lon="2.26787">
        <ele>24.2</ele>
        <time>2023-06-23T14:05:49Z</time>
      </trkpt>
      <trkpt lat="49.89701" lon="2.26788">
        <ele>24.2</ele>
        <time>2023-06-23T14:05:50Z</time>
      </trkpt>
      <trkpt lat="49.89701" lon="2.26789">
        <ele>24.2</ele>
        <time>2023-06-23T14:05:51Z</time>
      </trkpt>
      <trkpt lat="49.89701" lon="2.26791">
        <ele>24.2</ele>
        <time>2023-06-23T14:05:52Z</time>
      </trkpt>
      <trkpt lat="49.897" lon="2.26794">
        <ele>24.2</ele>
        <time>2023-06-23T14:05:53Z</time>
      </trkpt>
      <trkpt lat="49.897" lon="2.26796">
        <ele>24.2</ele>
        <time>2023-06-23T14:05:54Z</time>
      </trkpt>
      <trkpt lat="49.89701" lon="2.26798">
        <ele>24.2</ele>
        <time>2023-06-23T14:05:55Z</time>
      </trkpt>
      <trkpt lat="49.89701" lon="2.268">
        <ele>24.2</ele>
        <time>2023-06-23T14:05:57Z</time>
      </trkpt>
      <trkpt lat="49.89701" lon="2.26802">
        <ele>24.3</ele>
        <time>2023-06-23T14:05:58Z</time>
      </trkpt>
      <trkpt lat="49.89701" lon="2.26804">
        <ele>24.3</ele>
        <time>2023-06-23T14:05:59Z</time>
      </trkpt>
      <trkpt lat="49.897" lon="2.26805">
        <ele>24.3</ele>
        <time>2023-06-23T14:06:00Z</time>
      </trkpt>
      <trkpt lat="49.897" lon="2.26808">
        <ele>24.3</ele>
        <time>2023-06-23T14:06:01Z</time>
      </trkpt>
      <trkpt lat="49.897" lon="2.26809">
        <ele>24.3</ele>
        <time>2023-06-23T14:06:02Z</time>
      </trkpt>
      <trkpt lat="49.897" lon="2.26811">
        <ele>24.3</ele>
        <time>2023-06-23T14:06:03Z</time>
      </trkpt>
      <trkpt lat="49.897" lon="2.26812">
        <ele>24.3</ele>
        <time>2023-06-23T14:06:04Z</time>
      </trkpt>
      <trkpt lat="49.897" lon="2.26814">
        <ele>24.3</ele>
        <time>2023-06-23T14:06:05Z</time>
      </trkpt>
      <trkpt lat="49.897" lon="2.26816">
        <ele>24.3</ele>
        <time>2023-06-23T14:06:06Z</time>
      </trkpt>
      <trkpt lat="49.897" lon="2.26818">
        <ele>24.3</ele>
        <time>2023-06-23T14:06:08Z</time>
      </trkpt>
      <trkpt lat="49.89699" lon="2.2682">
        <ele>24.3</ele>
        <time>2023-06-23T14:06:09Z</time>
      </trkpt>
      <trkpt lat="49.89699" lon="2.26822">
        <ele>24.3</ele>
        <time>2023-06-23T14:06:10Z</time>
      </trkpt>
      <trkpt lat="49.89699" lon="2.26824">
        <ele>24.3</ele>
        <time>2023-06-23T14:06:11Z</time>
      </trkpt>
      <trkpt lat="49.89699" lon="2.26826">
        <ele>24.3</ele>
        <time>2023-06-23T14:06:12Z</time>
      </trkpt>
      <trkpt lat="49.89699" lon="2.26829">
        <ele>24.3</ele>
        <time>2023-06-23T14:06:13Z</time>
      </trkpt>
      <trkpt lat="49.89699" lon="2.2683">
        <ele>24.3</ele>
        <time>2023-06-23T14:06:14Z</time>
      </trkpt>
      <trkpt lat="49.89699" lon="2.26831">
        <ele>24.3</ele>
        <time>2023-06-23T14:06:15Z</time>
      </trkpt>
      <trkpt lat="49.89699" lon="2.26835">
        <ele>24.3</ele>
        <time>2023-06-23T14:06:16Z</time>
      </trkpt>
      <trkpt lat="49.89698" lon="2.26836">
        <ele>24.3</ele>
        <time>2023-06-23T14:06:18Z</time>
      </trkpt>
      <trkpt lat="49.89698" lon="2.26837">
        <ele>24.3</ele>
        <time>2023-06-23T14:06:19Z</time>
      </trkpt>
      <trkpt lat="49.89698" lon="2.26839">
        <ele>24.3</ele>
        <time>2023-06-23T14:06:20Z</time>
      </trkpt>
      <trkpt lat="49.89698" lon="2.2684">
        <ele>24.3</ele>
        <time>2023-06-23T14:06:21Z</time>
      </trkpt>
      <trkpt lat="49.89698" lon="2.26842">
        <ele>24.3</ele>
        <time>2023-06-23T14:06:22Z</time>
      </trkpt>
      <trkpt lat="49.89698" lon="2.26844">
        <ele>24.3</ele>
        <time>2023-06-23T14:06:23Z</time>
      </trkpt>
      <trkpt lat="49.89698" lon="2.26847">
        <ele>24.3</ele>
        <time>2023-06-23T14:06:24Z</time>
      </trkpt>
      <trkpt lat="49.89697" lon="2.26848">
        <ele>24.3</ele>
        <time>2023-06-23T14:06:25Z</time>
      </trkpt>
      <trkpt lat="49.89697" lon="2.2685">
        <ele>24.3</ele>
        <time>2023-06-23T14:06:26Z</time>
      </trkpt>
      <trkpt lat="49.89697" lon="2.26852">
        <ele>24.3</ele>
        <time>2023-06-23T14:06:27Z</time>
      </trkpt>
      <trkpt lat="49.89697" lon="2.26855">
        <ele>24.3</ele>
        <time>2023-06-23T14:06:29Z</time>
      </trkpt>
      <trkpt lat="49.89697" lon="2.26856">
        <ele>24.3</ele>
        <time>2023-06-23T14:06:30Z</time>
      </trkpt>
      <trkpt lat="49.89697" lon="2.26857">
        <ele>24.3</ele>
        <time>2023-06-23T14:06:31Z</time>
      </trkpt>
      <trkpt lat="49.89697" lon="2.26858">
        <ele>24.3</ele>
        <time>2023-06-23T14:06:32Z</time>
      </trkpt>
      <trkpt lat="49.89696" lon="2.2686">
        <ele>24.3</ele>
        <time>2023-06-23T14:06:33Z</time>
      </trkpt>
      <trkpt lat="49.89696" lon="2.26862">
        <ele>24.3</ele>
        <time>2023-06-23T14:06:34Z</time>
      </trkpt>
      <trkpt lat="49.89696" lon="2.26863">
        <ele>24.3</ele>
        <time>2023-06-23T14:06:35Z</time>
      </trkpt>
      <trkpt lat="49.89696" lon="2.26865">
        <ele>24.3</ele>
        <time>2023-06-23T14:06:36Z</time>
      </trkpt>
      <trkpt lat="49.89696" lon="2.26866">
        <ele>24.3</ele>
        <time>2023-06-23T14:06:37Z</time>
      </trkpt>
      <trkpt lat="49.89696" lon="2.26869">
        <ele>24.3</ele>
        <time>2023-06-23T14:06:38Z</time>
      </trkpt>
      <trkpt lat="49.89696" lon="2.2687">
        <ele>24.3</ele>
        <time>2023-06-23T14:06:39Z</time>
      </trkpt>
      <trkpt lat="49.89696" lon="2.26872">
        <ele>24.3</ele>
        <time>2023-06-23T14:06:41Z</time>
      </trkpt>
      <trkpt lat="49.89695" lon="2.26873">
        <ele>24.3</ele>
        <time>2023-06-23T14:06:42Z</time>
      </trkpt>
      <trkpt lat="49.89695" lon="2.26876">
        <ele>24.3</ele>
        <time>2023-06-23T14:06:43Z</time>
      </trkpt>
      <trkpt lat="49.89695" lon="2.26878">
        <ele>24.3</ele>
        <time>2023-06-23T14:06:44Z</time>
      </trkpt>
      <trkpt lat="49.89695" lon="2.26879">
        <ele>24.3</ele>
        <time>2023-06-23T14:06:45Z</time>
      </trkpt>
      <trkpt lat="49.89696" lon="2.26883">
        <ele>24.3</ele>
        <time>2023-06-23T14:06:46Z</time>
      </trkpt>
      <trkpt lat="49.89696" lon="2.26884">
        <ele>24.3</ele>
        <time>2023-06-23T14:06:47Z</time>
      </trkpt>
      <trkpt lat="49.89696" lon="2.26885">
        <ele>24.3</ele>
        <time>2023-06-23T14:06:48Z</time>
      </trkpt>
      <trkpt lat="49.89696" lon="2.26888">
        <ele>24.2</ele>
        <time>2023-06-23T14:06:49Z</time>
      </trkpt>
      <trkpt lat="49.89697" lon="2.2689">
        <ele>24.2</ele>
        <time>2023-06-23T14:06:50Z</time>
      </trkpt>
      <trkpt lat="49.89697" lon="2.26892">
        <ele>24.2</ele>
        <time>2023-06-23T14:06:51Z</time>
      </trkpt>
      <trkpt lat="49.89698" lon="2.26894">
        <ele>24.2</ele>
        <time>2023-06-23T14:06:53Z</time>
      </trkpt>
      <trkpt lat="49.89698" lon="2.26897">
        <ele>24.2</ele>
        <time>2023-06-23T14:06:54Z</time>
      </trkpt>
      <trkpt lat="49.89698" lon="2.26898">
        <ele>24.2</ele>
        <time>2023-06-23T14:06:55Z</time>
      </trkpt>
      <trkpt lat="49.89699" lon="2.269">
        <ele>24.2</ele>
        <time>2023-06-23T14:06:56Z</time>
      </trkpt>
      <trkpt lat="49.89699" lon="2.26903">
        <ele>24.2</ele>
        <time>2023-06-23T14:06:57Z</time>
      </trkpt>
      <trkpt lat="49.897" lon="2.26905">
        <ele>24.2</ele>
        <time>2023-06-23T14:06:58Z</time>
      </trkpt>
      <trkpt lat="49.897" lon="2.26906">
        <ele>24.2</ele>
        <time>2023-06-23T14:06:59Z</time>
      </trkpt>
      <trkpt lat="49.897" lon="2.26908">
        <ele>24.2</ele>
        <time>2023-06-23T14:07:00Z</time>
      </trkpt>
      <trkpt lat="49.89701" lon="2.26909">
        <ele>24.2</ele>
        <time>2023-06-23T14:07:01Z</time>
      </trkpt>
      <trkpt lat="49.89701" lon="2.26911">
        <ele>24.2</ele>
        <time>2023-06-23T14:07:02Z</time>
      </trkpt>
      <trkpt lat="49.89701" lon="2.26914">
        <ele>24.1</ele>
        <time>2023-06-23T14:07:03Z</time>
      </trkpt>
      <trkpt lat="49.89702" lon="2.26915">
        <ele>24.1</ele>
        <time>2023-06-23T14:07:05Z</time>
      </trkpt>
      <trkpt lat="49.89702" lon="2.26917">
        <ele>24.1</ele>
        <time>2023-06-23T14:07:06Z</time>
      </trkpt>
      <trkpt lat="49.89702" lon="2.26918">
        <ele>24.1</ele>
        <time>2023-06-23T14:07:07Z</time>
      </trkpt>
      <trkpt lat="49.89702" lon="2.2692">
        <ele>24.1</ele>
        <time>2023-06-23T14:07:08Z</time>
      </trkpt>
      <trkpt lat="49.89702" lon="2.26921">
        <ele>24.1</ele>
        <time>2023-06-23T14:07:09Z</time>
      </trkpt>
      <trkpt lat="49.89702" lon="2.26923">
        <ele>24.1</ele>
        <time>2023-06-23T14:07:10Z</time>
      </trkpt>
      <trkpt lat="49.89702" lon="2.26925">
        <ele>24.1</ele>
        <time>2023-06-23T14:07:11Z</time>
      </trkpt>
      <trkpt lat="49.89702" lon="2.26927">
        <ele>24.1</ele>
        <time>2023-06-23T14:07:13Z</time>
      </trkpt>
      <trkpt lat="49.89703" lon="2.26928">
        <ele>24</ele>
        <time>2023-06-23T14:07:14Z</time>
      </trkpt>
      <trkpt lat="49.89703" lon="2.2693">
        <ele>24</ele>
        <time>2023-06-23T14:07:15Z</time>
      </trkpt>
      <trkpt lat="49.89703" lon="2.26931">
        <ele>24</ele>
        <time>2023-06-23T14:07:16Z</time>
      </trkpt>
      <trkpt lat="49.89703" lon="2.26934">
        <ele>24</ele>
        <time>2023-06-23T14:07:17Z</time>
      </trkpt>
      <trkpt lat="49.89703" lon="2.26936">
        <ele>24</ele>
        <time>2023-06-23T14:07:18Z</time>
      </trkpt>
      <trkpt lat="49.89703" lon="2.26939">
        <ele>24</ele>
        <time>2023-06-23T14:07:19Z</time>
      </trkpt>
      <trkpt lat="49.89703" lon="2.26941">
        <ele>24</ele>
        <time>2023-06-23T14:07:20Z</time>
      </trkpt>
      <trkpt lat="49.89703" lon="2.26942">
        <ele>24</ele>
        <time>2023-06-23T14:07:21Z</time>
      </trkpt>
      <trkpt lat="49.89703" lon="2.26945">
        <ele>23.9</ele>
        <time>2023-06-23T14:07:23Z</time>
      </trkpt>
      <trkpt lat="49.89703" lon="2.26947">
        <ele>23.9</ele>
        <time>2023-06-23T14:07:24Z</time>
      </trkpt>
      <trkpt lat="49.89702" lon="2.2695">
        <ele>23.9</ele>
        <time>2023-06-23T14:07:25Z</time>
      </trkpt>
      <trkpt lat="49.89702" lon="2.26952">
        <ele>23.9</ele>
        <time>2023-06-23T14:07:26Z</time>
      </trkpt>
      <trkpt lat="49.89702" lon="2.26953">
        <ele>23.9</ele>
        <time>2023-06-23T14:07:27Z</time>
      </trkpt>
      <trkpt lat="49.89701" lon="2.26956">
        <ele>23.9</ele>
        <time>2023-06-23T14:07:28Z</time>
      </trkpt>
      <trkpt lat="49.89701" lon="2.26957">
        <ele>23.9</ele>
        <time>2023-06-23T14:07:29Z</time>
      </trkpt>
      <trkpt lat="49.89701" lon="2.26958">
        <ele>23.9</ele>
        <time>2023-06-23T14:07:30Z</time>
      </trkpt>
      <trkpt lat="49.897" lon="2.26962">
        <ele>23.9</ele>
        <time>2023-06-23T14:07:31Z</time>
      </trkpt>
      <trkpt lat="49.897" lon="2.26963">
        <ele>23.9</ele>
        <time>2023-06-23T14:07:33Z</time>
      </trkpt>
      <trkpt lat="49.89699" lon="2.26964">
        <ele>23.9</ele>
        <time>2023-06-23T14:07:34Z</time>
      </trkpt>
      <trkpt lat="49.89699" lon="2.26965">
        <ele>23.9</ele>
        <time>2023-06-23T14:07:35Z</time>
      </trkpt>
      <trkpt lat="49.89699" lon="2.26967">
        <ele>23.9</ele>
        <time>2023-06-23T14:07:36Z</time>
      </trkpt>
      <trkpt lat="49.89698" lon="2.26968">
        <ele>23.9</ele>
        <time>2023-06-23T14:07:37Z</time>
      </trkpt>
      <trkpt lat="49.89698" lon="2.26969">
        <ele>23.8</ele>
        <time>2023-06-23T14:07:38Z</time>
      </trkpt>
      <trkpt lat="49.89698" lon="2.2697">
        <ele>23.8</ele>
        <time>2023-06-23T14:07:39Z</time>
      </trkpt>
      <trkpt lat="49.89698" lon="2.26972">
        <ele>23.8</ele>
        <time>2023-06-23T14:07:40Z</time>
      </trkpt>
      <trkpt lat="49.89697" lon="2.26975">
        <ele>23.8</ele>
        <time>2023-06-23T14:07:42Z</time>
      </trkpt>
      <trkpt lat="49.89697" lon="2.26977">
        <ele>23.8</ele>
        <time>2023-06-23T14:07:43Z</time>
      </trkpt>
      <trkpt lat="49.89697" lon="2.26978">
        <ele>23.8</ele>
        <time>2023-06-23T14:07:44Z</time>
      </trkpt>
      <trkpt lat="49.89697" lon="2.2698">
        <ele>23.8</ele>
        <time>2023-06-23T14:07:45Z</time>
      </trkpt>
      <trkpt lat="49.89696" lon="2.26982">
        <ele>23.8</ele>
        <time>2023-06-23T14:07:46Z</time>
      </trkpt>
      <trkpt lat="49.89696" lon="2.26984">
        <ele>23.8</ele>
        <time>2023-06-23T14:07:48Z</time>
      </trkpt>
      <trkpt lat="49.89696" lon="2.26985">
        <ele>23.8</ele>
        <time>2023-06-23T14:07:49Z</time>
      </trkpt>
      <trkpt lat="49.89696" lon="2.26988">
        <ele>23.8</ele>
        <time>2023-06-23T14:07:50Z</time>
      </trkpt>
      <trkpt lat="49.89696" lon="2.2699">
        <ele>23.8</ele>
        <time>2023-06-23T14:07:51Z</time>
      </trkpt>
      <trkpt lat="49.89696" lon="2.26991">
        <ele>23.8</ele>
        <time>2023-06-23T14:07:52Z</time>
      </trkpt>
      <trkpt lat="49.89696" lon="2.26993">
        <ele>23.8</ele>
        <time>2023-06-23T14:07:54Z</time>
      </trkpt>
      <trkpt lat="49.89696" lon="2.26994">
        <ele>23.9</ele>
        <time>2023-06-23T14:07:55Z</time>
      </trkpt>
      <trkpt lat="49.89696" lon="2.26996">
        <ele>23.9</ele>
        <time>2023-06-23T14:07:56Z</time>
      </trkpt>
      <trkpt lat="49.89697" lon="2.26999">
        <ele>23.9</ele>
        <time>2023-06-23T14:07:57Z</time>
      </trkpt>
      <trkpt lat="49.89697" lon="2.27001">
        <ele>23.9</ele>
        <time>2023-06-23T14:07:59Z</time>
      </trkpt>
      <trkpt lat="49.89697" lon="2.27002">
        <ele>23.9</ele>
        <time>2023-06-23T14:08:00Z</time>
      </trkpt>
      <trkpt lat="49.89697" lon="2.27004">
        <ele>23.9</ele>
        <time>2023-06-23T14:08:01Z</time>
      </trkpt>
      <trkpt lat="49.89698" lon="2.27007">
        <ele>23.9</ele>
        <time>2023-06-23T14:08:02Z</time>
      </trkpt>
      <trkpt lat="49.89698" lon="2.27008">
        <ele>23.9</ele>
        <time>2023-06-23T14:08:03Z</time>
      </trkpt>
      <trkpt lat="49.89699" lon="2.2701">
        <ele>23.9</ele>
        <time>2023-06-23T14:08:04Z</time>
      </trkpt>
      <trkpt lat="49.89699" lon="2.27011">
        <ele>23.9</ele>
        <time>2023-06-23T14:08:05Z</time>
      </trkpt>
      <trkpt lat="49.897" lon="2.27014">
        <ele>23.9</ele>
        <time>2023-06-23T14:08:06Z</time>
      </trkpt>
      <trkpt lat="49.897" lon="2.27016">
        <ele>23.9</ele>
        <time>2023-06-23T14:08:08Z</time>
      </trkpt>
      <trkpt lat="49.897" lon="2.27017">
        <ele>23.9</ele>
        <time>2023-06-23T14:08:09Z</time>
      </trkpt>
      <trkpt lat="49.897" lon="2.27021">
        <ele>24</ele>
        <time>2023-06-23T14:08:10Z</time>
      </trkpt>
      <trkpt lat="49.89701" lon="2.27022">
        <ele>24</ele>
        <time>2023-06-23T14:08:11Z</time>
      </trkpt>
      <trkpt lat="49.89701" lon="2.27024">
        <ele>24</ele>
        <time>2023-06-23T14:08:12Z</time>
      </trkpt>
      <trkpt lat="49.89701" lon="2.27027">
        <ele>24</ele>
        <time>2023-06-23T14:08:14Z</time>
      </trkpt>
      <trkpt lat="49.89702" lon="2.27028">
        <ele>24</ele>
        <time>2023-06-23T14:08:15Z</time>
      </trkpt>
      <trkpt lat="49.89702" lon="2.2703">
        <ele>24</ele>
        <time>2023-06-23T14:08:16Z</time>
      </trkpt>
      <trkpt lat="49.89703" lon="2.27033">
        <ele>24</ele>
        <time>2023-06-23T14:08:17Z</time>
      </trkpt>
      <trkpt lat="49.89703" lon="2.27034">
        <ele>24</ele>
        <time>2023-06-23T14:08:18Z</time>
      </trkpt>
      <trkpt lat="49.89703" lon="2.27035">
        <ele>24</ele>
        <time>2023-06-23T14:08:19Z</time>
      </trkpt>
      <trkpt lat="49.89703" lon="2.27037">
        <ele>24</ele>
        <time>2023-06-23T14:08:20Z</time>
      </trkpt>
      <trkpt lat="49.89704" lon="2.2704">
        <ele>24.1</ele>
        <time>2023-06-23T14:08:21Z</time>
      </trkpt>
      <trkpt lat="49.89705" lon="2.27043">
        <ele>24.1</ele>
        <time>2023-06-23T14:08:22Z</time>
      </trkpt>
      <trkpt lat="49.89705" lon="2.27045">
        <ele>24.1</ele>
        <time>2023-06-23T14:08:24Z</time>
      </trkpt>
      <trkpt lat="49.89706" lon="2.27047">
        <ele>24.1</ele>
        <time>2023-06-23T14:08:25Z</time>
      </trkpt>
      <trkpt lat="49.89706" lon="2.27048">
        <ele>24.1</ele>
        <time>2023-06-23T14:08:26Z</time>
      </trkpt>
      <trkpt lat="49.89706" lon="2.2705">
        <ele>24.1</ele>
        <time>2023-06-23T14:08:27Z</time>
      </trkpt>
      <trkpt lat="49.89707" lon="2.27052">
        <ele>24.2</ele>
        <time>2023-06-23T14:08:28Z</time>
      </trkpt>
      <trkpt lat="49.89708" lon="2.27054">
        <ele>24.2</ele>
        <time>2023-06-23T14:08:29Z</time>
      </trkpt>
      <trkpt lat="49.89708" lon="2.27055">
        <ele>24.2</ele>
        <time>2023-06-23T14:08:30Z</time>
      </trkpt>
      <trkpt lat="49.89709" lon="2.27057">
        <ele>24.2</ele>
        <time>2023-06-23T14:08:31Z</time>
      </trkpt>
      <trkpt lat="49.8971" lon="2.27059">
        <ele>24.2</ele>
        <time>2023-06-23T14:08:32Z</time>
      </trkpt>
      <trkpt lat="49.89711" lon="2.2706">
        <ele>24.2</ele>
        <time>2023-06-23T14:08:33Z</time>
      </trkpt>
      <trkpt lat="49.89712" lon="2.27062">
        <ele>24.2</ele>
        <time>2023-06-23T14:08:35Z</time>
      </trkpt>
      <trkpt lat="49.89712" lon="2.27063">
        <ele>24.3</ele>
        <time>2023-06-23T14:08:36Z</time>
      </trkpt>
      <trkpt lat="49.89713" lon="2.27064">
        <ele>24.3</ele>
        <time>2023-06-23T14:08:37Z</time>
      </trkpt>
      <trkpt lat="49.89714" lon="2.27066">
        <ele>24.3</ele>
        <time>2023-06-23T14:08:38Z</time>
      </trkpt>
      <trkpt lat="49.89714" lon="2.27067">
        <ele>24.3</ele>
        <time>2023-06-23T14:08:39Z</time>
      </trkpt>
      <trkpt lat="49.89716" lon="2.27069">
        <ele>24.3</ele>
        <time>2023-06-23T14:08:40Z</time>
      </trkpt>
      <trkpt lat="49.89716" lon="2.2707">
        <ele>24.3</ele>
        <time>2023-06-23T14:08:41Z</time>
      </trkpt>
      <trkpt lat="49.89717" lon="2.27071">
        <ele>24.4</ele>
        <time>2023-06-23T14:08:42Z</time>
      </trkpt>
      <trkpt lat="49.89718" lon="2.27073">
        <ele>24.3</ele>
        <time>2023-06-23T14:08:43Z</time>
      </trkpt>
      <trkpt lat="49.89718" lon="2.27074">
        <ele>24.3</ele>
        <time>2023-06-23T14:08:45Z</time>
      </trkpt>
      <trkpt lat="49.89719" lon="2.27075">
        <ele>24.3</ele>
        <time>2023-06-23T14:08:46Z</time>
      </trkpt>
      <trkpt lat="49.8972" lon="2.27077">
        <ele>24.3</ele>
        <time>2023-06-23T14:08:47Z</time>
      </trkpt>
      <trkpt lat="49.89721" lon="2.27078">
        <ele>24.3</ele>
        <time>2023-06-23T14:08:48Z</time>
      </trkpt>
      <trkpt lat="49.89721" lon="2.27079">
        <ele>24.3</ele>
        <time>2023-06-23T14:08:49Z</time>
      </trkpt>
      <trkpt lat="49.89722" lon="2.27082">
        <ele>24.3</ele>
        <time>2023-06-23T14:08:50Z</time>
      </trkpt>
      <trkpt lat="49.89722" lon="2.27083">
        <ele>24.3</ele>
        <time>2023-06-23T14:08:51Z</time>
      </trkpt>
      <trkpt lat="49.89723" lon="2.27085">
        <ele>24.3</ele>
        <time>2023-06-23T14:08:52Z</time>
      </trkpt>
      <trkpt lat="49.89723" lon="2.27085">
        <ele>24.3</ele>
        <time>2023-06-23T14:08:54Z</time>
      </trkpt>
      <trkpt lat="49.89723" lon="2.27086">
        <ele>24.3</ele>
        <time>2023-06-23T14:08:55Z</time>
      </trkpt>
      <trkpt lat="49.89724" lon="2.27087">
        <ele>24.3</ele>
        <time>2023-06-23T14:08:56Z</time>
      </trkpt>
      <trkpt lat="49.89724" lon="2.27089">
        <ele>24.3</ele>
        <time>2023-06-23T14:08:57Z</time>
      </trkpt>
      <trkpt lat="49.89725" lon="2.27091">
        <ele>24.3</ele>
        <time>2023-06-23T14:08:58Z</time>
      </trkpt>
      <trkpt lat="49.89725" lon="2.27092">
        <ele>24.2</ele>
        <time>2023-06-23T14:08:59Z</time>
      </trkpt>
      <trkpt lat="49.89725" lon="2.27093">
        <ele>24.2</ele>
        <time>2023-06-23T14:09:00Z</time>
      </trkpt>
      <trkpt lat="49.89726" lon="2.27095">
        <ele>24.2</ele>
        <time>2023-06-23T14:09:02Z</time>
      </trkpt>
      <trkpt lat="49.89726" lon="2.27096">
        <ele>24.2</ele>
        <time>2023-06-23T14:09:03Z</time>
      </trkpt>
      <trkpt lat="49.89726" lon="2.27097">
        <ele>24.2</ele>
        <time>2023-06-23T14:09:04Z</time>
      </trkpt>
      <trkpt lat="49.89725" lon="2.271">
        <ele>24.2</ele>
        <time>2023-06-23T14:09:05Z</time>
      </trkpt>
      <trkpt lat="49.89724" lon="2.27101">
        <ele>24.1</ele>
        <time>2023-06-23T14:09:06Z</time>
      </trkpt>
      <trkpt lat="49.89723" lon="2.27103">
        <ele>24.1</ele>
        <time>2023-06-23T14:09:07Z</time>
      </trkpt>
      <trkpt lat="49.89722" lon="2.27104">
        <ele>24.1</ele>
        <time>2023-06-23T14:09:08Z</time>
      </trkpt>
      <trkpt lat="49.89721" lon="2.27105">
        <ele>24.1</ele>
        <time>2023-06-23T14:09:09Z</time>
      </trkpt>
      <trkpt lat="49.89719" lon="2.27108">
        <ele>24</ele>
        <time>2023-06-23T14:09:11Z</time>
      </trkpt>
      <trkpt lat="49.89719" lon="2.27109">
        <ele>24</ele>
        <time>2023-06-23T14:09:12Z</time>
      </trkpt>
      <trkpt lat="49.89718" lon="2.2711">
        <ele>24</ele>
        <time>2023-06-23T14:09:13Z</time>
      </trkpt>
      <trkpt lat="49.89717" lon="2.27111">
        <ele>24</ele>
        <time>2023-06-23T14:09:14Z</time>
      </trkpt>
      <trkpt lat="49.89717" lon="2.27113">
        <ele>24</ele>
        <time>2023-06-23T14:09:15Z</time>
      </trkpt>
      <trkpt lat="49.89716" lon="2.27114">
        <ele>24</ele>
        <time>2023-06-23T14:09:16Z</time>
      </trkpt>
      <trkpt lat="49.89715" lon="2.27116">
        <ele>23.9</ele>
        <time>2023-06-23T14:09:17Z</time>
      </trkpt>
      <trkpt lat="49.89715" lon="2.27118">
        <ele>23.9</ele>
        <time>2023-06-23T14:09:18Z</time>
      </trkpt>
      <trkpt lat="49.89715" lon="2.2712">
        <ele>23.9</ele>
        <time>2023-06-23T14:09:19Z</time>
      </trkpt>
      <trkpt lat="49.89714" lon="2.27122">
        <ele>23.9</ele>
        <time>2023-06-23T14:09:20Z</time>
      </trkpt>
      <trkpt lat="49.89714" lon="2.27124">
        <ele>23.8</ele>
        <time>2023-06-23T14:09:22Z</time>
      </trkpt>
      <trkpt lat="49.89713" lon="2.27127">
        <ele>23.8</ele>
        <time>2023-06-23T14:09:23Z</time>
      </trkpt>
      <trkpt lat="49.89713" lon="2.27129">
        <ele>23.8</ele>
        <time>2023-06-23T14:09:24Z</time>
      </trkpt>
      <trkpt lat="49.89713" lon="2.27132">
        <ele>23.8</ele>
        <time>2023-06-23T14:09:25Z</time>
      </trkpt>
      <trkpt lat="49.89713" lon="2.27133">
        <ele>23.8</ele>
        <time>2023-06-23T14:09:26Z</time>
      </trkpt>
      <trkpt lat="49.89713" lon="2.27135">
        <ele>23.8</ele>
        <time>2023-06-23T14:09:27Z</time>
      </trkpt>
      <trkpt lat="49.89713" lon="2.27138">
        <ele>23.7</ele>
        <time>2023-06-23T14:09:28Z</time>
      </trkpt>
      <trkpt lat="49.89713" lon="2.27141">
        <ele>23.7</ele>
        <time>2023-06-23T14:09:30Z</time>
      </trkpt>
      <trkpt lat="49.89713" lon="2.27143">
        <ele>23.7</ele>
        <time>2023-06-23T14:09:31Z</time>
      </trkpt>
      <trkpt lat="49.89712" lon="2.27145">
        <ele>23.7</ele>
        <time>2023-06-23T14:09:32Z</time>
      </trkpt>
      <trkpt lat="49.89712" lon="2.2715">
        <ele>23.7</ele>
        <time>2023-06-23T14:09:33Z</time>
      </trkpt>
      <trkpt lat="49.89712" lon="2.27151">
        <ele>23.7</ele>
        <time>2023-06-23T14:09:34Z</time>
      </trkpt>
      <trkpt lat="49.89712" lon="2.27154">
        <ele>23.7</ele>
        <time>2023-06-23T14:09:36Z</time>
      </trkpt>
      <trkpt lat="49.89712" lon="2.27156">
        <ele>23.6</ele>
        <time>2023-06-23T14:09:37Z</time>
      </trkpt>
      <trkpt lat="49.89711" lon="2.27159">
        <ele>23.6</ele>
        <time>2023-06-23T14:09:38Z</time>
      </trkpt>
      <trkpt lat="49.89711" lon="2.27161">
        <ele>23.6</ele>
        <time>2023-06-23T14:09:39Z</time>
      </trkpt>
      <trkpt lat="49.89711" lon="2.27164">
        <ele>23.6</ele>
        <time>2023-06-23T14:09:40Z</time>
      </trkpt>
      <trkpt lat="49.89711" lon="2.27166">
        <ele>23.6</ele>
        <time>2023-06-23T14:09:41Z</time>
      </trkpt>
      <trkpt lat="49.8971" lon="2.27167">
        <ele>23.6</ele>
        <time>2023-06-23T14:09:42Z</time>
      </trkpt>
      <trkpt lat="49.8971" lon="2.2717">
        <ele>23.5</ele>
        <time>2023-06-23T14:09:43Z</time>
      </trkpt>
      <trkpt lat="49.89709" lon="2.27171">
        <ele>23.5</ele>
        <time>2023-06-23T14:09:44Z</time>
      </trkpt>
      <trkpt lat="49.89709" lon="2.27173">
        <ele>23.5</ele>
        <time>2023-06-23T14:09:45Z</time>
      </trkpt>
      <trkpt lat="49.89708" lon="2.27176">
        <ele>23.5</ele>
        <time>2023-06-23T14:09:47Z</time>
      </trkpt>
      <trkpt lat="49.89707" lon="2.27178">
        <ele>23.5</ele>
        <time>2023-06-23T14:09:48Z</time>
      </trkpt>
      <trkpt lat="49.89707" lon="2.2718">
        <ele>23.5</ele>
        <time>2023-06-23T14:09:49Z</time>
      </trkpt>
      <trkpt lat="49.89706" lon="2.27182">
        <ele>23.4</ele>
        <time>2023-06-23T14:09:51Z</time>
      </trkpt>
      <trkpt lat="49.89706" lon="2.27184">
        <ele>23.4</ele>
        <time>2023-06-23T14:09:52Z</time>
      </trkpt>
      <trkpt lat="49.89705" lon="2.27186">
        <ele>23.4</ele>
        <time>2023-06-23T14:09:53Z</time>
      </trkpt>
      <trkpt lat="49.89705" lon="2.27187">
        <ele>23.4</ele>
        <time>2023-06-23T14:09:54Z</time>
      </trkpt>
      <trkpt lat="49.89704" lon="2.27189">
        <ele>23.4</ele>
        <time>2023-06-23T14:09:55Z</time>
      </trkpt>
      <trkpt lat="49.89703" lon="2.27193">
        <ele>23.4</ele>
        <time>2023-06-23T14:09:57Z</time>
      </trkpt>
      <trkpt lat="49.89703" lon="2.27194">
        <ele>23.4</ele>
        <time>2023-06-23T14:09:58Z</time>
      </trkpt>
      <trkpt lat="49.89703" lon="2.27195">
        <ele>23.3</ele>
        <time>2023-06-23T14:09:59Z</time>
      </trkpt>
      <trkpt lat="49.89702" lon="2.27198">
        <ele>23.3</ele>
        <time>2023-06-23T14:10:00Z</time>
      </trkpt>
      <trkpt lat="49.89702" lon="2.272">
        <ele>23.3</ele>
        <time>2023-06-23T14:10:01Z</time>
      </trkpt>
      <trkpt lat="49.89702" lon="2.27201">
        <ele>23.3</ele>
        <time>2023-06-23T14:10:02Z</time>
      </trkpt>
      <trkpt lat="49.89701" lon="2.27205">
        <ele>23.3</ele>
        <time>2023-06-23T14:10:03Z</time>
      </trkpt>
      <trkpt lat="49.897" lon="2.27206">
        <ele>23.3</ele>
        <time>2023-06-23T14:10:05Z</time>
      </trkpt>
      <trkpt lat="49.897" lon="2.27208">
        <ele>23.3</ele>
        <time>2023-06-23T14:10:06Z</time>
      </trkpt>
      <trkpt lat="49.89699" lon="2.27209">
        <ele>23.3</ele>
        <time>2023-06-23T14:10:07Z</time>
      </trkpt>
      <trkpt lat="49.89699" lon="2.27211">
        <ele>23.2</ele>
        <time>2023-06-23T14:10:08Z</time>
      </trkpt>
      <trkpt lat="49.89699" lon="2.27212">
        <ele>23.2</ele>
        <time>2023-06-23T14:10:09Z</time>
      </trkpt>
      <trkpt lat="49.89698" lon="2.27213">
        <ele>23.2</ele>
        <time>2023-06-23T14:10:10Z</time>
      </trkpt>
      <trkpt lat="49.89698" lon="2.27215">
        <ele>23.2</ele>
        <time>2023-06-23T14:10:11Z</time>
      </trkpt>
      <trkpt lat="49.89697" lon="2.27216">
        <ele>23.2</ele>
        <time>2023-06-23T14:10:12Z</time>
      </trkpt>
      <trkpt lat="49.89697" lon="2.27218">
        <ele>23.2</ele>
        <time>2023-06-23T14:10:13Z</time>
      </trkpt>
      <trkpt lat="49.89696" lon="2.2722">
        <ele>23.2</ele>
        <time>2023-06-23T14:10:14Z</time>
      </trkpt>
      <trkpt lat="49.89696" lon="2.27221">
        <ele>23.2</ele>
        <time>2023-06-23T14:10:16Z</time>
      </trkpt>
      <trkpt lat="49.89695" lon="2.27223">
        <ele>23.2</ele>
        <time>2023-06-23T14:10:17Z</time>
      </trkpt>
      <trkpt lat="49.89695" lon="2.27225">
        <ele>23.2</ele>
        <time>2023-06-23T14:10:18Z</time>
      </trkpt>
      <trkpt lat="49.89694" lon="2.27227">
        <ele>23.2</ele>
        <time>2023-06-23T14:10:19Z</time>
      </trkpt>
      <trkpt lat="49.89693" lon="2.27228">
        <ele>23.2</ele>
        <time>2023-06-23T14:10:20Z</time>
      </trkpt>
      <trkpt lat="49.89693" lon="2.2723">
        <ele>23.2</ele>
        <time>2023-06-23T14:10:21Z</time>
      </trkpt>
      <trkpt lat="49.89692" lon="2.27232">
        <ele>23.2</ele>
        <time>2023-06-23T14:10:22Z</time>
      </trkpt>
      <trkpt lat="49.89692" lon="2.27235">
        <ele>23.2</ele>
        <time>2023-06-23T14:10:23Z</time>
      </trkpt>
      <trkpt lat="49.89692" lon="2.27236">
        <ele>23.1</ele>
        <time>2023-06-23T14:10:24Z</time>
      </trkpt>
      <trkpt lat="49.89691" lon="2.27237">
        <ele>23.1</ele>
        <time>2023-06-23T14:10:26Z</time>
      </trkpt>
      <trkpt lat="49.8969" lon="2.27237">
        <ele>23.1</ele>
        <time>2023-06-23T14:10:27Z</time>
      </trkpt>
      <trkpt lat="49.89689" lon="2.27237">
        <ele>23.1</ele>
        <time>2023-06-23T14:10:28Z</time>
      </trkpt>
      <trkpt lat="49.89689" lon="2.27237">
        <ele>23.1</ele>
        <time>2023-06-23T14:10:29Z</time>
      </trkpt>
      <trkpt lat="49.89688" lon="2.27238">
        <ele>23.1</ele>
        <time>2023-06-23T14:10:30Z</time>
      </trkpt>
      <trkpt lat="49.89688" lon="2.27238">
        <ele>23.1</ele>
        <time>2023-06-23T14:10:31Z</time>
      </trkpt>
      <trkpt lat="49.89688" lon="2.27239">
        <ele>23.1</ele>
        <time>2023-06-23T14:10:32Z</time>
      </trkpt>
      <trkpt lat="49.89687" lon="2.2724">
        <ele>23.1</ele>
        <time>2023-06-23T14:10:33Z</time>
      </trkpt>
      <trkpt lat="49.89687" lon="2.27241">
        <ele>23.1</ele>
        <time>2023-06-23T14:10:34Z</time>
      </trkpt>
      <trkpt lat="49.89685" lon="2.27242">
        <ele>23.1</ele>
        <time>2023-06-23T14:10:36Z</time>
      </trkpt>
      <trkpt lat="49.89684" lon="2.27243">
        <ele>23.1</ele>
        <time>2023-06-23T14:10:37Z</time>
      </trkpt>
      <trkpt lat="49.89683" lon="2.27245">
        <ele>23.1</ele>
        <time>2023-06-23T14:10:38Z</time>
      </trkpt>
      <trkpt lat="49.89682" lon="2.27247">
        <ele>23</ele>
        <time>2023-06-23T14:10:39Z</time>
      </trkpt>
      <trkpt lat="49.89681" lon="2.27249">
        <ele>23</ele>
        <time>2023-06-23T14:10:40Z</time>
      </trkpt>
      <trkpt lat="49.8968" lon="2.27251">
        <ele>23</ele>
        <time>2023-06-23T14:10:41Z</time>
      </trkpt>
      <trkpt lat="49.8968" lon="2.27253">
        <ele>23</ele>
        <time>2023-06-23T14:10:42Z</time>
      </trkpt>
      <trkpt lat="49.89679" lon="2.27254">
        <ele>23</ele>
        <time>2023-06-23T14:10:43Z</time>
      </trkpt>
      <trkpt lat="49.89678" lon="2.27256">
        <ele>23</ele>
        <time>2023-06-23T14:10:44Z</time>
      </trkpt>
      <trkpt lat="49.89678" lon="2.27257">
        <ele>23</ele>
        <time>2023-06-23T14:10:45Z</time>
      </trkpt>
      <trkpt lat="49.89676" lon="2.27261">
        <ele>22.9</ele>
        <time>2023-06-23T14:10:46Z</time>
      </trkpt>
      <trkpt lat="49.89675" lon="2.27262">
        <ele>22.9</ele>
        <time>2023-06-23T14:10:47Z</time>
      </trkpt>
      <trkpt lat="49.89674" lon="2.27264">
        <ele>22.9</ele>
        <time>2023-06-23T14:10:48Z</time>
      </trkpt>
      <trkpt lat="49.89673" lon="2.27265">
        <ele>22.9</ele>
        <time>2023-06-23T14:10:49Z</time>
      </trkpt>
      <trkpt lat="49.89672" lon="2.27268">
        <ele>22.9</ele>
        <time>2023-06-23T14:10:50Z</time>
      </trkpt>
      <trkpt lat="49.89671" lon="2.27271">
        <ele>22.8</ele>
        <time>2023-06-23T14:10:52Z</time>
      </trkpt>
      <trkpt lat="49.8967" lon="2.27273">
        <ele>22.8</ele>
        <time>2023-06-23T14:10:53Z</time>
      </trkpt>
      <trkpt lat="49.89669" lon="2.27275">
        <ele>22.8</ele>
        <time>2023-06-23T14:10:54Z</time>
      </trkpt>
      <trkpt lat="49.89668" lon="2.27277">
        <ele>22.8</ele>
        <time>2023-06-23T14:10:55Z</time>
      </trkpt>
      <trkpt lat="49.89667" lon="2.27279">
        <ele>22.8</ele>
        <time>2023-06-23T14:10:56Z</time>
      </trkpt>
      <trkpt lat="49.89666" lon="2.27281">
        <ele>22.8</ele>
        <time>2023-06-23T14:10:58Z</time>
      </trkpt>
      <trkpt lat="49.89665" lon="2.27283">
        <ele>22.7</ele>
        <time>2023-06-23T14:10:59Z</time>
      </trkpt>
      <trkpt lat="49.89664" lon="2.27285">
        <ele>22.7</ele>
        <time>2023-06-23T14:11:00Z</time>
      </trkpt>
      <trkpt lat="49.89663" lon="2.27287">
        <ele>22.7</ele>
        <time>2023-06-23T14:11:01Z</time>
      </trkpt>
      <trkpt lat="49.89663" lon="2.27288">
        <ele>22.7</ele>
        <time>2023-06-23T14:11:02Z</time>
      </trkpt>
      <trkpt lat="49.89662" lon="2.2729">
        <ele>22.7</ele>
        <time>2023-06-23T14:11:03Z</time>
      </trkpt>
      <trkpt lat="49.89661" lon="2.27291">
        <ele>22.7</ele>
        <time>2023-06-23T14:11:04Z</time>
      </trkpt>
      <trkpt lat="49.89661" lon="2.27293">
        <ele>22.7</ele>
        <time>2023-06-23T14:11:05Z</time>
      </trkpt>
      <trkpt lat="49.8966" lon="2.27295">
        <ele>22.6</ele>
        <time>2023-06-23T14:11:06Z</time>
      </trkpt>
      <trkpt lat="49.89658" lon="2.27299">
        <ele>22.6</ele>
        <time>2023-06-23T14:11:07Z</time>
      </trkpt>
      <trkpt lat="49.89658" lon="2.273">
        <ele>22.6</ele>
        <time>2023-06-23T14:11:09Z</time>
      </trkpt>
      <trkpt lat="49.89657" lon="2.27301">
        <ele>22.6</ele>
        <time>2023-06-23T14:11:10Z</time>
      </trkpt>
      <trkpt lat="49.89656" lon="2.27303">
        <ele>22.6</ele>
        <time>2023-06-23T14:11:11Z</time>
      </trkpt>
      <trkpt lat="49.89655" lon="2.27304">
        <ele>22.6</ele>
        <time>2023-06-23T14:11:12Z</time>
      </trkpt>
      <trkpt lat="49.89654" lon="2.27307">
        <ele>22.6</ele>
        <time>2023-06-23T14:11:14Z</time>
      </trkpt>
      <trkpt lat="49.89653" lon="2.27308">
        <ele>22.6</ele>
        <time>2023-06-23T14:11:15Z</time>
      </trkpt>
      <trkpt lat="49.89653" lon="2.27309">
        <ele>22.6</ele>
        <time>2023-06-23T14:11:16Z</time>
      </trkpt>
      <trkpt lat="49.89652" lon="2.27311">
        <ele>22.5</ele>
        <time>2023-06-23T14:11:17Z</time>
      </trkpt>
      <trkpt lat="49.89651" lon="2.27313">
        <ele>22.5</ele>
        <time>2023-06-23T14:11:18Z</time>
      </trkpt>
      <trkpt lat="49.8965" lon="2.27314">
        <ele>22.5</ele>
        <time>2023-06-23T14:11:19Z</time>
      </trkpt>
      <trkpt lat="49.8965" lon="2.27315">
        <ele>22.5</ele>
        <time>2023-06-23T14:11:20Z</time>
      </trkpt>
      <trkpt lat="49.89649" lon="2.27317">
        <ele>22.5</ele>
        <time>2023-06-23T14:11:21Z</time>
      </trkpt>
      <trkpt lat="49.89648" lon="2.2732">
        <ele>22.5</ele>
        <time>2023-06-23T14:11:23Z</time>
      </trkpt>
      <trkpt lat="49.89647" lon="2.27321">
        <ele>22.5</ele>
        <time>2023-06-23T14:11:24Z</time>
      </trkpt>
      <trkpt lat="49.89647" lon="2.27324">
        <ele>22.5</ele>
        <time>2023-06-23T14:11:25Z</time>
      </trkpt>
      <trkpt lat="49.89646" lon="2.27325">
        <ele>22.5</ele>
        <time>2023-06-23T14:11:26Z</time>
      </trkpt>
      <trkpt lat="49.89646" lon="2.27326">
        <ele>22.5</ele>
        <time>2023-06-23T14:11:27Z</time>
      </trkpt>
      <trkpt lat="49.89645" lon="2.27329">
        <ele>22.5</ele>
        <time>2023-06-23T14:11:29Z</time>
      </trkpt>
      <trkpt lat="49.89644" lon="2.2733">
        <ele>22.5</ele>
        <time>2023-06-23T14:11:30Z</time>
      </trkpt>
      <trkpt lat="49.89643" lon="2.27332">
        <ele>22.5</ele>
        <time>2023-06-23T14:11:31Z</time>
      </trkpt>
      <trkpt lat="49.89642" lon="2.27333">
        <ele>22.5</ele>
        <time>2023-06-23T14:11:32Z</time>
      </trkpt>
      <trkpt lat="49.89641" lon="2.27335">
        <ele>22.5</ele>
        <time>2023-06-23T14:11:33Z</time>
      </trkpt>
      <trkpt lat="49.8964" lon="2.27336">
        <ele>22.5</ele>
        <time>2023-06-23T14:11:34Z</time>
      </trkpt>
      <trkpt lat="49.89639" lon="2.27338">
        <ele>22.5</ele>
        <time>2023-06-23T14:11:35Z</time>
      </trkpt>
      <trkpt lat="49.89638" lon="2.27338">
        <ele>22.5</ele>
        <time>2023-06-23T14:11:36Z</time>
      </trkpt>
      <trkpt lat="49.89638" lon="2.2734">
        <ele>22.5</ele>
        <time>2023-06-23T14:11:37Z</time>
      </trkpt>
      <trkpt lat="49.89636" lon="2.27343">
        <ele>22.5</ele>
        <time>2023-06-23T14:11:38Z</time>
      </trkpt>
      <trkpt lat="49.89635" lon="2.27344">
        <ele>22.5</ele>
        <time>2023-06-23T14:11:40Z</time>
      </trkpt>
      <trkpt lat="49.89634" lon="2.27346">
        <ele>22.5</ele>
        <time>2023-06-23T14:11:41Z</time>
      </trkpt>
      <trkpt lat="49.89634" lon="2.27347">
        <ele>22.6</ele>
        <time>2023-06-23T14:11:43Z</time>
      </trkpt>
      <trkpt lat="49.89633" lon="2.27349">
        <ele>22.6</ele>
        <time>2023-06-23T14:11:44Z</time>
      </trkpt>
      <trkpt lat="49.89632" lon="2.2735">
        <ele>22.6</ele>
        <time>2023-06-23T14:11:45Z</time>
      </trkpt>
      <trkpt lat="49.89631" lon="2.27352">
        <ele>22.6</ele>
        <time>2023-06-23T14:11:46Z</time>
      </trkpt>
      <trkpt lat="49.8963" lon="2.27353">
        <ele>22.6</ele>
        <time>2023-06-23T14:11:47Z</time>
      </trkpt>
      <trkpt lat="49.89629" lon="2.27355">
        <ele>22.6</ele>
        <time>2023-06-23T14:11:48Z</time>
      </trkpt>
      <trkpt lat="49.89628" lon="2.27356">
        <ele>22.6</ele>
        <time>2023-06-23T14:11:49Z</time>
      </trkpt>
      <trkpt lat="49.89627" lon="2.27357">
        <ele>22.6</ele>
        <time>2023-06-23T14:11:50Z</time>
      </trkpt>
      <trkpt lat="49.89627" lon="2.27359">
        <ele>22.6</ele>
        <time>2023-06-23T14:11:51Z</time>
      </trkpt>
      <trkpt lat="49.89626" lon="2.2736">
        <ele>22.6</ele>
        <time>2023-06-23T14:11:52Z</time>
      </trkpt>
      <trkpt lat="49.89625" lon="2.27361">
        <ele>22.6</ele>
        <time>2023-06-23T14:11:53Z</time>
      </trkpt>
      <trkpt lat="49.89624" lon="2.27362">
        <ele>22.6</ele>
        <time>2023-06-23T14:11:54Z</time>
      </trkpt>
      <trkpt lat="49.89623" lon="2.27364">
        <ele>22.7</ele>
        <time>2023-06-23T14:11:55Z</time>
      </trkpt>
      <trkpt lat="49.89622" lon="2.27364">
        <ele>22.7</ele>
        <time>2023-06-23T14:11:57Z</time>
      </trkpt>
      <trkpt lat="49.89621" lon="2.27365">
        <ele>22.7</ele>
        <time>2023-06-23T14:11:58Z</time>
      </trkpt>
      <trkpt lat="49.8962" lon="2.27366">
        <ele>22.7</ele>
        <time>2023-06-23T14:11:59Z</time>
      </trkpt>
      <trkpt lat="49.89619" lon="2.27368">
        <ele>22.7</ele>
        <time>2023-06-23T14:12:00Z</time>
      </trkpt>
      <trkpt lat="49.89618" lon="2.27369">
        <ele>22.7</ele>
        <time>2023-06-23T14:12:01Z</time>
      </trkpt>
      <trkpt lat="49.89616" lon="2.27371">
        <ele>22.7</ele>
        <time>2023-06-23T14:12:02Z</time>
      </trkpt>
      <trkpt lat="49.89616" lon="2.27373">
        <ele>22.7</ele>
        <time>2023-06-23T14:12:04Z</time>
      </trkpt>
      <trkpt lat="49.89615" lon="2.27375">
        <ele>22.7</ele>
        <time>2023-06-23T14:12:05Z</time>
      </trkpt>
      <trkpt lat="49.89614" lon="2.27376">
        <ele>22.7</ele>
        <time>2023-06-23T14:12:06Z</time>
      </trkpt>
      <trkpt lat="49.89614" lon="2.27377">
        <ele>22.7</ele>
        <time>2023-06-23T14:12:07Z</time>
      </trkpt>
      <trkpt lat="49.89613" lon="2.27379">
        <ele>22.7</ele>
        <time>2023-06-23T14:12:08Z</time>
      </trkpt>
      <trkpt lat="49.89612" lon="2.27381">
        <ele>22.8</ele>
        <time>2023-06-23T14:12:09Z</time>
      </trkpt>
      <trkpt lat="49.89611" lon="2.27382">
        <ele>22.8</ele>
        <time>2023-06-23T14:12:10Z</time>
      </trkpt>
      <trkpt lat="49.8961" lon="2.27384">
        <ele>22.8</ele>
        <time>2023-06-23T14:12:12Z</time>
      </trkpt>
      <trkpt lat="49.89609" lon="2.27387">
        <ele>22.8</ele>
        <time>2023-06-23T14:12:13Z</time>
      </trkpt>
      <trkpt lat="49.89609" lon="2.27388">
        <ele>22.8</ele>
        <time>2023-06-23T14:12:14Z</time>
      </trkpt>
      <trkpt lat="49.89608" lon="2.27389">
        <ele>22.8</ele>
        <time>2023-06-23T14:12:15Z</time>
      </trkpt>
      <trkpt lat="49.89607" lon="2.2739">
        <ele>22.8</ele>
        <time>2023-06-23T14:12:16Z</time>
      </trkpt>
      <trkpt lat="49.89606" lon="2.27392">
        <ele>22.8</ele>
        <time>2023-06-23T14:12:17Z</time>
      </trkpt>
      <trkpt lat="49.89605" lon="2.27393">
        <ele>22.8</ele>
        <time>2023-06-23T14:12:18Z</time>
      </trkpt>
      <trkpt lat="49.89604" lon="2.27394">
        <ele>22.8</ele>
        <time>2023-06-23T14:12:19Z</time>
      </trkpt>
      <trkpt lat="49.89603" lon="2.27395">
        <ele>22.8</ele>
        <time>2023-06-23T14:12:20Z</time>
      </trkpt>
      <trkpt lat="49.89603" lon="2.27396">
        <ele>22.8</ele>
        <time>2023-06-23T14:12:21Z</time>
      </trkpt>
      <trkpt lat="49.89602" lon="2.27398">
        <ele>22.8</ele>
        <time>2023-06-23T14:12:22Z</time>
      </trkpt>
      <trkpt lat="49.89601" lon="2.27399">
        <ele>22.8</ele>
        <time>2023-06-23T14:12:24Z</time>
      </trkpt>
      <trkpt lat="49.896" lon="2.27401">
        <ele>22.9</ele>
        <time>2023-06-23T14:12:25Z</time>
      </trkpt>
      <trkpt lat="49.89599" lon="2.27402">
        <ele>22.9</ele>
        <time>2023-06-23T14:12:26Z</time>
      </trkpt>
      <trkpt lat="49.89598" lon="2.27404">
        <ele>22.9</ele>
        <time>2023-06-23T14:12:28Z</time>
      </trkpt>
      <trkpt lat="49.89598" lon="2.27406">
        <ele>22.9</ele>
        <time>2023-06-23T14:12:29Z</time>
      </trkpt>
      <trkpt lat="49.89597" lon="2.27407">
        <ele>22.9</ele>
        <time>2023-06-23T14:12:30Z</time>
      </trkpt>
      <trkpt lat="49.89597" lon="2.27408">
        <ele>22.9</ele>
        <time>2023-06-23T14:12:31Z</time>
      </trkpt>
      <trkpt lat="49.89597" lon="2.27409">
        <ele>22.9</ele>
        <time>2023-06-23T14:12:32Z</time>
      </trkpt>
      <trkpt lat="49.89596" lon="2.27411">
        <ele>22.9</ele>
        <time>2023-06-23T14:12:33Z</time>
      </trkpt>
      <trkpt lat="49.89596" lon="2.27412">
        <ele>22.9</ele>
        <time>2023-06-23T14:12:34Z</time>
      </trkpt>
      <trkpt lat="49.89595" lon="2.27414">
        <ele>22.9</ele>
        <time>2023-06-23T14:12:35Z</time>
      </trkpt>
      <trkpt lat="49.89594" lon="2.27417">
        <ele>22.9</ele>
        <time>2023-06-23T14:12:36Z</time>
      </trkpt>
      <trkpt lat="49.89594" lon="2.27418">
        <ele>22.9</ele>
        <time>2023-06-23T14:12:38Z</time>
      </trkpt>
      <trkpt lat="49.89593" lon="2.2742">
        <ele>22.9</ele>
        <time>2023-06-23T14:12:39Z</time>
      </trkpt>
      <trkpt lat="49.89593" lon="2.27421">
        <ele>22.9</ele>
        <time>2023-06-23T14:12:40Z</time>
      </trkpt>
      <trkpt lat="49.89592" lon="2.27422">
        <ele>22.9</ele>
        <time>2023-06-23T14:12:41Z</time>
      </trkpt>
      <trkpt lat="49.89591" lon="2.27424">
        <ele>22.9</ele>
        <time>2023-06-23T14:12:42Z</time>
      </trkpt>
      <trkpt lat="49.8959" lon="2.27426">
        <ele>23</ele>
        <time>2023-06-23T14:12:43Z</time>
      </trkpt>
      <trkpt lat="49.89589" lon="2.27427">
        <ele>23</ele>
        <time>2023-06-23T14:12:44Z</time>
      </trkpt>
      <trkpt lat="49.89589" lon="2.27428">
        <ele>23</ele>
        <time>2023-06-23T14:12:45Z</time>
      </trkpt>
      <trkpt lat="49.89587" lon="2.2743">
        <ele>23</ele>
        <time>2023-06-23T14:12:46Z</time>
      </trkpt>
      <trkpt lat="49.89587" lon="2.27432">
        <ele>23</ele>
        <time>2023-06-23T14:12:47Z</time>
      </trkpt>
      <trkpt lat="49.89586" lon="2.27433">
        <ele>23</ele>
        <time>2023-06-23T14:12:48Z</time>
      </trkpt>
      <trkpt lat="49.89585" lon="2.27435">
        <ele>23</ele>
        <time>2023-06-23T14:12:49Z</time>
      </trkpt>
      <trkpt lat="49.89585" lon="2.27436">
        <ele>23</ele>
        <time>2023-06-23T14:12:51Z</time>
      </trkpt>
      <trkpt lat="49.89584" lon="2.27438">
        <ele>23</ele>
        <time>2023-06-23T14:12:52Z</time>
      </trkpt>
      <trkpt lat="49.89584" lon="2.27439">
        <ele>23</ele>
        <time>2023-06-23T14:12:53Z</time>
      </trkpt>
      <trkpt lat="49.89583" lon="2.27441">
        <ele>23</ele>
        <time>2023-06-23T14:12:54Z</time>
      </trkpt>
      <trkpt lat="49.89583" lon="2.27442">
        <ele>23</ele>
        <time>2023-06-23T14:12:55Z</time>
      </trkpt>
      <trkpt lat="49.89582" lon="2.27444">
        <ele>23</ele>
        <time>2023-06-23T14:12:56Z</time>
      </trkpt>
      <trkpt lat="49.89582" lon="2.27445">
        <ele>23</ele>
        <time>2023-06-23T14:12:57Z</time>
      </trkpt>
      <trkpt lat="49.89581" lon="2.27447">
        <ele>23.1</ele>
        <time>2023-06-23T14:12:58Z</time>
      </trkpt>
      <trkpt lat="49.89581" lon="2.27449">
        <ele>23.1</ele>
        <time>2023-06-23T14:12:59Z</time>
      </trkpt>
      <trkpt lat="49.8958" lon="2.2745">
        <ele>23.1</ele>
        <time>2023-06-23T14:13:00Z</time>
      </trkpt>
      <trkpt lat="49.8958" lon="2.27452">
        <ele>23.1</ele>
        <time>2023-06-23T14:13:02Z</time>
      </trkpt>
      <trkpt lat="49.89579" lon="2.27454">
        <ele>23.1</ele>
        <time>2023-06-23T14:13:03Z</time>
      </trkpt>
      <trkpt lat="49.89579" lon="2.27456">
        <ele>23.1</ele>
        <time>2023-06-23T14:13:04Z</time>
      </trkpt>
      <trkpt lat="49.89578" lon="2.27457">
        <ele>23.1</ele>
        <time>2023-06-23T14:13:05Z</time>
      </trkpt>
      <trkpt lat="49.89578" lon="2.27458">
        <ele>23.1</ele>
        <time>2023-06-23T14:13:06Z</time>
      </trkpt>
      <trkpt lat="49.89577" lon="2.27459">
        <ele>23.1</ele>
        <time>2023-06-23T14:13:07Z</time>
      </trkpt>
      <trkpt lat="49.89576" lon="2.27461">
        <ele>23.1</ele>
        <time>2023-06-23T14:13:08Z</time>
      </trkpt>
      <trkpt lat="49.89576" lon="2.27461">
        <ele>23.1</ele>
        <time>2023-06-23T14:13:09Z</time>
      </trkpt>
      <trkpt lat="49.89575" lon="2.27462">
        <ele>23.1</ele>
        <time>2023-06-23T14:13:10Z</time>
      </trkpt>
      <trkpt lat="49.89575" lon="2.27464">
        <ele>23.1</ele>
        <time>2023-06-23T14:13:11Z</time>
      </trkpt>
      <trkpt lat="49.89574" lon="2.27465">
        <ele>23.1</ele>
        <time>2023-06-23T14:13:13Z</time>
      </trkpt>
      <trkpt lat="49.89573" lon="2.27466">
        <ele>23.1</ele>
        <time>2023-06-23T14:13:14Z</time>
      </trkpt>
      <trkpt lat="49.89573" lon="2.27467">
        <ele>23.1</ele>
        <time>2023-06-23T14:13:15Z</time>
      </trkpt>
      <trkpt lat="49.89573" lon="2.27468">
        <ele>23.1</ele>
        <time>2023-06-23T14:13:16Z</time>
      </trkpt>
      <trkpt lat="49.89572" lon="2.2747">
        <ele>23.2</ele>
        <time>2023-06-23T14:13:17Z</time>
      </trkpt>
      <trkpt lat="49.89571" lon="2.27471">
        <ele>23.2</ele>
        <time>2023-06-23T14:13:18Z</time>
      </trkpt>
      <trkpt lat="49.8957" lon="2.27472">
        <ele>23.2</ele>
        <time>2023-06-23T14:13:19Z</time>
      </trkpt>
      <trkpt lat="49.89569" lon="2.27473">
        <ele>23.2</ele>
        <time>2023-06-23T14:13:21Z</time>
      </trkpt>
      <trkpt lat="49.89567" lon="2.27474">
        <ele>23.2</ele>
        <time>2023-06-23T14:13:22Z</time>
      </trkpt>
      <trkpt lat="49.89566" lon="2.27475">
        <ele>23.2</ele>
        <time>2023-06-23T14:13:23Z</time>
      </trkpt>
      <trkpt lat="49.89565" lon="2.27477">
        <ele>23.2</ele>
        <time>2023-06-23T14:13:24Z</time>
      </trkpt>
      <trkpt lat="49.89563" lon="2.27479">
        <ele>23.2</ele>
        <time>2023-06-23T14:13:25Z</time>
      </trkpt>
      <trkpt lat="49.89563" lon="2.2748">
        <ele>23.2</ele>
        <time>2023-06-23T14:13:26Z</time>
      </trkpt>
      <trkpt lat="49.89562" lon="2.27481">
        <ele>23.2</ele>
        <time>2023-06-23T14:13:27Z</time>
      </trkpt>
      <trkpt lat="49.89561" lon="2.27483">
        <ele>23.2</ele>
        <time>2023-06-23T14:13:28Z</time>
      </trkpt>
      <trkpt lat="49.89561" lon="2.27484">
        <ele>23.2</ele>
        <time>2023-06-23T14:13:29Z</time>
      </trkpt>
      <trkpt lat="49.8956" lon="2.27485">
        <ele>23.2</ele>
        <time>2023-06-23T14:13:30Z</time>
      </trkpt>
      <trkpt lat="49.89559" lon="2.27488">
        <ele>23.3</ele>
        <time>2023-06-23T14:13:32Z</time>
      </trkpt>
      <trkpt lat="49.89559" lon="2.27489">
        <ele>23.3</ele>
        <time>2023-06-23T14:13:33Z</time>
      </trkpt>
      <trkpt lat="49.89558" lon="2.27491">
        <ele>23.3</ele>
        <time>2023-06-23T14:13:34Z</time>
      </trkpt>
      <trkpt lat="49.89558" lon="2.27492">
        <ele>23.3</ele>
        <time>2023-06-23T14:13:35Z</time>
      </trkpt>
      <trkpt lat="49.89557" lon="2.27494">
        <ele>23.3</ele>
        <time>2023-06-23T14:13:36Z</time>
      </trkpt>
      <trkpt lat="49.89557" lon="2.27496">
        <ele>23.3</ele>
        <time>2023-06-23T14:13:37Z</time>
      </trkpt>
      <trkpt lat="49.89556" lon="2.27497">
        <ele>23.3</ele>
        <time>2023-06-23T14:13:38Z</time>
      </trkpt>
      <trkpt lat="49.89556" lon="2.27499">
        <ele>23.3</ele>
        <time>2023-06-23T14:13:39Z</time>
      </trkpt>
      <trkpt lat="49.89555" lon="2.275">
        <ele>23.3</ele>
        <time>2023-06-23T14:13:40Z</time>
      </trkpt>
      <trkpt lat="49.89555" lon="2.27503">
        <ele>23.3</ele>
        <time>2023-06-23T14:13:41Z</time>
      </trkpt>
      <trkpt lat="49.89554" lon="2.27504">
        <ele>23.3</ele>
        <time>2023-06-23T14:13:42Z</time>
      </trkpt>
      <trkpt lat="49.89554" lon="2.27506">
        <ele>23.3</ele>
        <time>2023-06-23T14:13:43Z</time>
      </trkpt>
      <trkpt lat="49.89553" lon="2.27507">
        <ele>23.3</ele>
        <time>2023-06-23T14:13:45Z</time>
      </trkpt>
      <trkpt lat="49.89553" lon="2.27508">
        <ele>23.4</ele>
        <time>2023-06-23T14:13:46Z</time>
      </trkpt>
      <trkpt lat="49.89552" lon="2.2751">
        <ele>23.4</ele>
        <time>2023-06-23T14:13:47Z</time>
      </trkpt>
      <trkpt lat="49.89551" lon="2.27511">
        <ele>23.4</ele>
        <time>2023-06-23T14:13:48Z</time>
      </trkpt>
      <trkpt lat="49.89551" lon="2.27513">
        <ele>23.4</ele>
        <time>2023-06-23T14:13:49Z</time>
      </trkpt>
      <trkpt lat="49.8955" lon="2.27515">
        <ele>23.4</ele>
        <time>2023-06-23T14:13:50Z</time>
      </trkpt>
      <trkpt lat="49.8955" lon="2.27517">
        <ele>23.4</ele>
        <time>2023-06-23T14:13:52Z</time>
      </trkpt>
      <trkpt lat="49.8955" lon="2.27518">
        <ele>23.4</ele>
        <time>2023-06-23T14:13:53Z</time>
      </trkpt>
      <trkpt lat="49.89549" lon="2.27521">
        <ele>23.4</ele>
        <time>2023-06-23T14:13:54Z</time>
      </trkpt>
      <trkpt lat="49.89549" lon="2.27522">
        <ele>23.4</ele>
        <time>2023-06-23T14:13:55Z</time>
      </trkpt>
      <trkpt lat="49.89548" lon="2.27523">
        <ele>23.4</ele>
        <time>2023-06-23T14:13:56Z</time>
      </trkpt>
      <trkpt lat="49.89548" lon="2.27525">
        <ele>23.5</ele>
        <time>2023-06-23T14:13:57Z</time>
      </trkpt>
      <trkpt lat="49.89547" lon="2.27528">
        <ele>23.5</ele>
        <time>2023-06-23T14:13:58Z</time>
      </trkpt>
      <trkpt lat="49.89546" lon="2.27529">
        <ele>23.5</ele>
        <time>2023-06-23T14:13:59Z</time>
      </trkpt>
      <trkpt lat="49.89545" lon="2.27531">
        <ele>23.5</ele>
        <time>2023-06-23T14:14:01Z</time>
      </trkpt>
      <trkpt lat="49.89545" lon="2.27532">
        <ele>23.5</ele>
        <time>2023-06-23T14:14:02Z</time>
      </trkpt>
      <trkpt lat="49.89544" lon="2.27534">
        <ele>23.5</ele>
        <time>2023-06-23T14:14:03Z</time>
      </trkpt>
      <trkpt lat="49.89543" lon="2.27535">
        <ele>23.5</ele>
        <time>2023-06-23T14:14:04Z</time>
      </trkpt>
      <trkpt lat="49.89543" lon="2.27536">
        <ele>23.5</ele>
        <time>2023-06-23T14:14:06Z</time>
      </trkpt>
      <trkpt lat="49.89542" lon="2.27538">
        <ele>23.6</ele>
        <time>2023-06-23T14:14:07Z</time>
      </trkpt>
      <trkpt lat="49.89541" lon="2.27539">
        <ele>23.6</ele>
        <time>2023-06-23T14:14:08Z</time>
      </trkpt>
      <trkpt lat="49.8954" lon="2.27541">
        <ele>23.6</ele>
        <time>2023-06-23T14:14:10Z</time>
      </trkpt>
      <trkpt lat="49.8954" lon="2.27541">
        <ele>23.6</ele>
        <time>2023-06-23T14:14:11Z</time>
      </trkpt>
      <trkpt lat="49.89539" lon="2.2754">
        <ele>23.6</ele>
        <time>2023-06-23T14:14:12Z</time>
      </trkpt>
      <trkpt lat="49.89538" lon="2.2754">
        <ele>23.6</ele>
        <time>2023-06-23T14:14:13Z</time>
      </trkpt>
      <trkpt lat="49.89538" lon="2.27541">
        <ele>23.6</ele>
        <time>2023-06-23T14:14:15Z</time>
      </trkpt>
      <trkpt lat="49.89537" lon="2.27542">
        <ele>23.6</ele>
        <time>2023-06-23T14:14:16Z</time>
      </trkpt>
      <trkpt lat="49.89537" lon="2.27543">
        <ele>23.6</ele>
        <time>2023-06-23T14:14:17Z</time>
      </trkpt>
      <trkpt lat="49.89536" lon="2.27544">
        <ele>23.6</ele>
        <time>2023-06-23T14:14:18Z</time>
      </trkpt>
      <trkpt lat="49.89536" lon="2.27546">
        <ele>23.6</ele>
        <time>2023-06-23T14:14:19Z</time>
      </trkpt>
      <trkpt lat="49.89536" lon="2.27547">
        <ele>23.6</ele>
        <time>2023-06-23T14:14:20Z</time>
      </trkpt>
      <trkpt lat="49.89535" lon="2.27549">
        <ele>23.7</ele>
        <time>2023-06-23T14:14:22Z</time>
      </trkpt>
      <trkpt lat="49.89534" lon="2.2755">
        <ele>23.7</ele>
        <time>2023-06-23T14:14:23Z</time>
      </trkpt>
      <trkpt lat="49.89534" lon="2.27552">
        <ele>23.7</ele>
        <time>2023-06-23T14:14:24Z</time>
      </trkpt>
      <trkpt lat="49.89533" lon="2.27554">
        <ele>23.7</ele>
        <time>2023-06-23T14:14:25Z</time>
      </trkpt>
      <trkpt lat="49.89533" lon="2.27556">
        <ele>23.7</ele>
        <time>2023-06-23T14:14:27Z</time>
      </trkpt>
      <trkpt lat="49.89532" lon="2.27558">
        <ele>23.7</ele>
        <time>2023-06-23T14:14:28Z</time>
      </trkpt>
      <trkpt lat="49.89533" lon="2.27558">
        <ele>23.7</ele>
        <time>2023-06-23T14:14:29Z</time>
      </trkpt>
      <trkpt lat="49.89533" lon="2.27558">
        <ele>23.7</ele>
        <time>2023-06-23T14:14:30Z</time>
      </trkpt>
      <trkpt lat="49.89533" lon="2.27559">
        <ele>23.8</ele>
        <time>2023-06-23T14:14:32Z</time>
      </trkpt>
      <trkpt lat="49.89533" lon="2.2756">
        <ele>23.8</ele>
        <time>2023-06-23T14:14:33Z</time>
      </trkpt>
      <trkpt lat="49.89533" lon="2.27561">
        <ele>23.8</ele>
        <time>2023-06-23T14:14:34Z</time>
      </trkpt>
      <trkpt lat="49.89532" lon="2.27562">
        <ele>23.8</ele>
        <time>2023-06-23T14:14:35Z</time>
      </trkpt>
      <trkpt lat="49.89532" lon="2.27563">
        <ele>23.8</ele>
        <time>2023-06-23T14:14:36Z</time>
      </trkpt>
      <trkpt lat="49.89531" lon="2.27565">
        <ele>23.8</ele>
        <time>2023-06-23T14:14:37Z</time>
      </trkpt>
      <trkpt lat="49.89531" lon="2.27566">
        <ele>23.8</ele>
        <time>2023-06-23T14:14:38Z</time>
      </trkpt>
      <trkpt lat="49.89531" lon="2.27568">
        <ele>23.8</ele>
        <time>2023-06-23T14:14:39Z</time>
      </trkpt>
      <trkpt lat="49.89531" lon="2.27569">
        <ele>23.8</ele>
        <time>2023-06-23T14:14:40Z</time>
      </trkpt>
      <trkpt lat="49.8953" lon="2.27571">
        <ele>23.9</ele>
        <time>2023-06-23T14:14:41Z</time>
      </trkpt>
      <trkpt lat="49.8953" lon="2.27573">
        <ele>23.9</ele>
        <time>2023-06-23T14:14:42Z</time>
      </trkpt>
      <trkpt lat="49.89529" lon="2.27574">
        <ele>23.9</ele>
        <time>2023-06-23T14:14:43Z</time>
      </trkpt>
      <trkpt lat="49.89528" lon="2.27576">
        <ele>23.9</ele>
        <time>2023-06-23T14:14:45Z</time>
      </trkpt>
      <trkpt lat="49.89527" lon="2.27577">
        <ele>23.9</ele>
        <time>2023-06-23T14:14:46Z</time>
      </trkpt>
      <trkpt lat="49.89527" lon="2.27578">
        <ele>23.9</ele>
        <time>2023-06-23T14:14:47Z</time>
      </trkpt>
      <trkpt lat="49.89526" lon="2.27579">
        <ele>23.9</ele>
        <time>2023-06-23T14:14:48Z</time>
      </trkpt>
      <trkpt lat="49.89525" lon="2.2758">
        <ele>24</ele>
        <time>2023-06-23T14:14:49Z</time>
      </trkpt>
      <trkpt lat="49.89524" lon="2.27581">
        <ele>24</ele>
        <time>2023-06-23T14:14:50Z</time>
      </trkpt>
      <trkpt lat="49.89522" lon="2.27583">
        <ele>24</ele>
        <time>2023-06-23T14:14:51Z</time>
      </trkpt>
      <trkpt lat="49.89521" lon="2.27585">
        <ele>24</ele>
        <time>2023-06-23T14:14:53Z</time>
      </trkpt>
      <trkpt lat="49.8952" lon="2.27586">
        <ele>24.1</ele>
        <time>2023-06-23T14:14:54Z</time>
      </trkpt>
      <trkpt lat="49.89519" lon="2.27586">
        <ele>24.1</ele>
        <time>2023-06-23T14:14:55Z</time>
      </trkpt>
      <trkpt lat="49.89518" lon="2.27588">
        <ele>24.1</ele>
        <time>2023-06-23T14:14:56Z</time>
      </trkpt>
      <trkpt lat="49.89517" lon="2.2759">
        <ele>24.1</ele>
        <time>2023-06-23T14:14:57Z</time>
      </trkpt>
      <trkpt lat="49.89516" lon="2.27591">
        <ele>24.1</ele>
        <time>2023-06-23T14:14:58Z</time>
      </trkpt>
      <trkpt lat="49.89515" lon="2.27592">
        <ele>24.2</ele>
        <time>2023-06-23T14:14:59Z</time>
      </trkpt>
      <trkpt lat="49.89514" lon="2.27594">
        <ele>24.2</ele>
        <time>2023-06-23T14:15:01Z</time>
      </trkpt>
      <trkpt lat="49.89512" lon="2.27596">
        <ele>24.2</ele>
        <time>2023-06-23T14:15:02Z</time>
      </trkpt>
      <trkpt lat="49.89512" lon="2.27597">
        <ele>24.2</ele>
        <time>2023-06-23T14:15:03Z</time>
      </trkpt>
      <trkpt lat="49.8951" lon="2.27599">
        <ele>24.3</ele>
        <time>2023-06-23T14:15:04Z</time>
      </trkpt>
      <trkpt lat="49.89509" lon="2.276">
        <ele>24.3</ele>
        <time>2023-06-23T14:15:05Z</time>
      </trkpt>
      <trkpt lat="49.89508" lon="2.27601">
        <ele>24.3</ele>
        <time>2023-06-23T14:15:06Z</time>
      </trkpt>
      <trkpt lat="49.89507" lon="2.27602">
        <ele>24.3</ele>
        <time>2023-06-23T14:15:07Z</time>
      </trkpt>
      <trkpt lat="49.89506" lon="2.27603">
        <ele>24.4</ele>
        <time>2023-06-23T14:15:08Z</time>
      </trkpt>
      <trkpt lat="49.89505" lon="2.27606">
        <ele>24.4</ele>
        <time>2023-06-23T14:15:10Z</time>
      </trkpt>
      <trkpt lat="49.89504" lon="2.27607">
        <ele>24.4</ele>
        <time>2023-06-23T14:15:11Z</time>
      </trkpt>
      <trkpt lat="49.89504" lon="2.27608">
        <ele>24.4</ele>
        <time>2023-06-23T14:15:12Z</time>
      </trkpt>
      <trkpt lat="49.89503" lon="2.27609">
        <ele>24.5</ele>
        <time>2023-06-23T14:15:13Z</time>
      </trkpt>
      <trkpt lat="49.89502" lon="2.2761">
        <ele>24.5</ele>
        <time>2023-06-23T14:15:14Z</time>
      </trkpt>
      <trkpt lat="49.89502" lon="2.27612">
        <ele>24.5</ele>
        <time>2023-06-23T14:15:15Z</time>
      </trkpt>
      <trkpt lat="49.89501" lon="2.27614">
        <ele>24.5</ele>
        <time>2023-06-23T14:15:16Z</time>
      </trkpt>
      <trkpt lat="49.895" lon="2.27616">
        <ele>24.6</ele>
        <time>2023-06-23T14:15:17Z</time>
      </trkpt>
      <trkpt lat="49.895" lon="2.27617">
        <ele>24.6</ele>
        <time>2023-06-23T14:15:18Z</time>
      </trkpt>
      <trkpt lat="49.895" lon="2.27619">
        <ele>24.6</ele>
        <time>2023-06-23T14:15:19Z</time>
      </trkpt>
      <trkpt lat="49.89499" lon="2.27621">
        <ele>24.6</ele>
        <time>2023-06-23T14:15:21Z</time>
      </trkpt>
      <trkpt lat="49.89498" lon="2.27624">
        <ele>24.7</ele>
        <time>2023-06-23T14:15:22Z</time>
      </trkpt>
      <trkpt lat="49.89498" lon="2.27625">
        <ele>24.7</ele>
        <time>2023-06-23T14:15:23Z</time>
      </trkpt>
      <trkpt lat="49.89497" lon="2.27626">
        <ele>24.7</ele>
        <time>2023-06-23T14:15:24Z</time>
      </trkpt>
      <trkpt lat="49.89496" lon="2.27627">
        <ele>24.7</ele>
        <time>2023-06-23T14:15:25Z</time>
      </trkpt>
      <trkpt lat="49.89496" lon="2.27629">
        <ele>24.8</ele>
        <time>2023-06-23T14:15:26Z</time>
      </trkpt>
      <trkpt lat="49.89494" lon="2.27632">
        <ele>24.8</ele>
        <time>2023-06-23T14:15:27Z</time>
      </trkpt>
      <trkpt lat="49.89494" lon="2.27633">
        <ele>24.8</ele>
        <time>2023-06-23T14:15:29Z</time>
      </trkpt>
      <trkpt lat="49.89493" lon="2.27634">
        <ele>24.9</ele>
        <time>2023-06-23T14:15:30Z</time>
      </trkpt>
      <trkpt lat="49.89492" lon="2.27636">
        <ele>24.9</ele>
        <time>2023-06-23T14:15:31Z</time>
      </trkpt>
      <trkpt lat="49.89491" lon="2.27637">
        <ele>24.9</ele>
        <time>2023-06-23T14:15:32Z</time>
      </trkpt>
      <trkpt lat="49.89491" lon="2.27638">
        <ele>24.9</ele>
        <time>2023-06-23T14:15:33Z</time>
      </trkpt>
      <trkpt lat="49.8949" lon="2.27639">
        <ele>25</ele>
        <time>2023-06-23T14:15:34Z</time>
      </trkpt>
      <trkpt lat="49.8949" lon="2.27641">
        <ele>25</ele>
        <time>2023-06-23T14:15:35Z</time>
      </trkpt>
      <trkpt lat="49.89489" lon="2.27643">
        <ele>25</ele>
        <time>2023-06-23T14:15:37Z</time>
      </trkpt>
      <trkpt lat="49.89489" lon="2.27645">
        <ele>25</ele>
        <time>2023-06-23T14:15:38Z</time>
      </trkpt>
      <trkpt lat="49.89489" lon="2.27646">
        <ele>25.1</ele>
        <time>2023-06-23T14:15:39Z</time>
      </trkpt>
      <trkpt lat="49.89489" lon="2.27648">
        <ele>25.1</ele>
        <time>2023-06-23T14:15:40Z</time>
      </trkpt>
      <trkpt lat="49.89488" lon="2.27649">
        <ele>25.1</ele>
        <time>2023-06-23T14:15:41Z</time>
      </trkpt>
      <trkpt lat="49.89488" lon="2.27651">
        <ele>25.1</ele>
        <time>2023-06-23T14:15:42Z</time>
      </trkpt>
      <trkpt lat="49.89487" lon="2.27653">
        <ele>25.2</ele>
        <time>2023-06-23T14:15:43Z</time>
      </trkpt>
      <trkpt lat="49.89487" lon="2.27654">
        <ele>25.2</ele>
        <time>2023-06-23T14:15:44Z</time>
      </trkpt>
      <trkpt lat="49.89486" lon="2.27656">
        <ele>25.2</ele>
        <time>2023-06-23T14:15:45Z</time>
      </trkpt>
      <trkpt lat="49.89486" lon="2.27657">
        <ele>25.3</ele>
        <time>2023-06-23T14:15:46Z</time>
      </trkpt>
      <trkpt lat="49.89484" lon="2.2766">
        <ele>25.3</ele>
        <time>2023-06-23T14:15:48Z</time>
      </trkpt>
      <trkpt lat="49.89484" lon="2.27661">
        <ele>25.3</ele>
        <time>2023-06-23T14:15:49Z</time>
      </trkpt>
      <trkpt lat="49.89483" lon="2.27662">
        <ele>25.4</ele>
        <time>2023-06-23T14:15:50Z</time>
      </trkpt>
      <trkpt lat="49.89482" lon="2.27663">
        <ele>25.4</ele>
        <time>2023-06-23T14:15:51Z</time>
      </trkpt>
      <trkpt lat="49.89482" lon="2.27665">
        <ele>25.4</ele>
        <time>2023-06-23T14:15:52Z</time>
      </trkpt>
      <trkpt lat="49.89481" lon="2.27666">
        <ele>25.4</ele>
        <time>2023-06-23T14:15:53Z</time>
      </trkpt>
      <trkpt lat="49.8948" lon="2.27667">
        <ele>25.5</ele>
        <time>2023-06-23T14:15:54Z</time>
      </trkpt>
      <trkpt lat="49.89479" lon="2.27669">
        <ele>25.5</ele>
        <time>2023-06-23T14:15:55Z</time>
      </trkpt>
      <trkpt lat="49.89478" lon="2.2767">
        <ele>25.5</ele>
        <time>2023-06-23T14:15:57Z</time>
      </trkpt>
      <trkpt lat="49.89478" lon="2.27671">
        <ele>25.6</ele>
        <time>2023-06-23T14:15:58Z</time>
      </trkpt>
      <trkpt lat="49.89477" lon="2.27672">
        <ele>25.6</ele>
        <time>2023-06-23T14:15:59Z</time>
      </trkpt>
      <trkpt lat="49.89476" lon="2.27674">
        <ele>25.6</ele>
        <time>2023-06-23T14:16:00Z</time>
      </trkpt>
      <trkpt lat="49.89475" lon="2.27675">
        <ele>25.6</ele>
        <time>2023-06-23T14:16:01Z</time>
      </trkpt>
      <trkpt lat="49.89475" lon="2.27676">
        <ele>25.6</ele>
        <time>2023-06-23T14:16:02Z</time>
      </trkpt>
      <trkpt lat="49.89474" lon="2.27677">
        <ele>25.7</ele>
        <time>2023-06-23T14:16:04Z</time>
      </trkpt>
      <trkpt lat="49.89474" lon="2.27679">
        <ele>25.7</ele>
        <time>2023-06-23T14:16:05Z</time>
      </trkpt>
      <trkpt lat="49.89473" lon="2.2768">
        <ele>25.7</ele>
        <time>2023-06-23T14:16:06Z</time>
      </trkpt>
      <trkpt lat="49.89472" lon="2.27683">
        <ele>25.8</ele>
        <time>2023-06-23T14:16:08Z</time>
      </trkpt>
      <trkpt lat="49.89471" lon="2.27684">
        <ele>25.8</ele>
        <time>2023-06-23T14:16:09Z</time>
      </trkpt>
      <trkpt lat="49.89471" lon="2.27684">
        <ele>25.8</ele>
        <time>2023-06-23T14:16:10Z</time>
      </trkpt>
      <trkpt lat="49.8947" lon="2.27687">
        <ele>25.9</ele>
        <time>2023-06-23T14:16:11Z</time>
      </trkpt>
      <trkpt lat="49.89469" lon="2.27688">
        <ele>25.9</ele>
        <time>2023-06-23T14:16:12Z</time>
      </trkpt>
      <trkpt lat="49.89469" lon="2.27689">
        <ele>25.9</ele>
        <time>2023-06-23T14:16:13Z</time>
      </trkpt>
      <trkpt lat="49.89467" lon="2.27691">
        <ele>25.9</ele>
        <time>2023-06-23T14:16:14Z</time>
      </trkpt>
      <trkpt lat="49.89467" lon="2.27693">
        <ele>26</ele>
        <time>2023-06-23T14:16:15Z</time>
      </trkpt>
      <trkpt lat="49.89466" lon="2.27694">
        <ele>26</ele>
        <time>2023-06-23T14:16:17Z</time>
      </trkpt>
      <trkpt lat="49.89465" lon="2.27695">
        <ele>26</ele>
        <time>2023-06-23T14:16:18Z</time>
      </trkpt>
      <trkpt lat="49.89465" lon="2.27697">
        <ele>26.1</ele>
        <time>2023-06-23T14:16:19Z</time>
      </trkpt>
      <trkpt lat="49.89464" lon="2.27698">
        <ele>26.1</ele>
        <time>2023-06-23T14:16:20Z</time>
      </trkpt>
      <trkpt lat="49.89463" lon="2.27699">
        <ele>26.1</ele>
        <time>2023-06-23T14:16:21Z</time>
      </trkpt>
      <trkpt lat="49.89463" lon="2.277">
        <ele>26.2</ele>
        <time>2023-06-23T14:16:22Z</time>
      </trkpt>
      <trkpt lat="49.89462" lon="2.27701">
        <ele>26.2</ele>
        <time>2023-06-23T14:16:23Z</time>
      </trkpt>
      <trkpt lat="49.8946" lon="2.27704">
        <ele>26.3</ele>
        <time>2023-06-23T14:16:25Z</time>
      </trkpt>
      <trkpt lat="49.8946" lon="2.27705">
        <ele>26.3</ele>
        <time>2023-06-23T14:16:26Z</time>
      </trkpt>
      <trkpt lat="49.89459" lon="2.27706">
        <ele>26.3</ele>
        <time>2023-06-23T14:16:27Z</time>
      </trkpt>
      <trkpt lat="49.89458" lon="2.27708">
        <ele>26.4</ele>
        <time>2023-06-23T14:16:28Z</time>
      </trkpt>
      <trkpt lat="49.89457" lon="2.27709">
        <ele>26.4</ele>
        <time>2023-06-23T14:16:29Z</time>
      </trkpt>
      <trkpt lat="49.89455" lon="2.27711">
        <ele>26.5</ele>
        <time>2023-06-23T14:16:31Z</time>
      </trkpt>
      <trkpt lat="49.89454" lon="2.27711">
        <ele>26.5</ele>
        <time>2023-06-23T14:16:32Z</time>
      </trkpt>
      <trkpt lat="49.89453" lon="2.27712">
        <ele>26.6</ele>
        <time>2023-06-23T14:16:33Z</time>
      </trkpt>
      <trkpt lat="49.89451" lon="2.27712">
        <ele>26.6</ele>
        <time>2023-06-23T14:16:34Z</time>
      </trkpt>
      <trkpt lat="49.8945" lon="2.27712">
        <ele>26.7</ele>
        <time>2023-06-23T14:16:35Z</time>
      </trkpt>
      <trkpt lat="49.89449" lon="2.27712">
        <ele>26.7</ele>
        <time>2023-06-23T14:16:36Z</time>
      </trkpt>
      <trkpt lat="49.89446" lon="2.27712">
        <ele>27</ele>
        <time>2023-06-23T14:16:37Z</time>
      </trkpt>
      <trkpt lat="49.89445" lon="2.27712">
        <ele>27</ele>
        <time>2023-06-23T14:16:38Z</time>
      </trkpt>
      <trkpt lat="49.89443" lon="2.27711">
        <ele>27</ele>
        <time>2023-06-23T14:16:40Z</time>
      </trkpt>
      <trkpt lat="49.89442" lon="2.27711">
        <ele>27</ele>
        <time>2023-06-23T14:16:41Z</time>
      </trkpt>
      <trkpt lat="49.89441" lon="2.27711">
        <ele>27</ele>
        <time>2023-06-23T14:16:42Z</time>
      </trkpt>
      <trkpt lat="49.8944" lon="2.27711">
        <ele>27</ele>
        <time>2023-06-23T14:16:43Z</time>
      </trkpt>
      <trkpt lat="49.89438" lon="2.27711">
        <ele>27.1</ele>
        <time>2023-06-23T14:16:44Z</time>
      </trkpt>
      <trkpt lat="49.89437" lon="2.2771">
        <ele>27.1</ele>
        <time>2023-06-23T14:16:45Z</time>
      </trkpt>
      <trkpt lat="49.89436" lon="2.2771">
        <ele>27.1</ele>
        <time>2023-06-23T14:16:46Z</time>
      </trkpt>
      <trkpt lat="49.89433" lon="2.27709">
        <ele>27</ele>
        <time>2023-06-23T14:16:48Z</time>
      </trkpt>
      <trkpt lat="49.89433" lon="2.27709">
        <ele>27</ele>
        <time>2023-06-23T14:16:49Z</time>
      </trkpt>
      <trkpt lat="49.89432" lon="2.27708">
        <ele>27</ele>
        <time>2023-06-23T14:16:50Z</time>
      </trkpt>
      <trkpt lat="49.8943" lon="2.27707">
        <ele>27</ele>
        <time>2023-06-23T14:16:51Z</time>
      </trkpt>
      <trkpt lat="49.89429" lon="2.27706">
        <ele>27</ele>
        <time>2023-06-23T14:16:52Z</time>
      </trkpt>
      <trkpt lat="49.89429" lon="2.27705">
        <ele>26.9</ele>
        <time>2023-06-23T14:16:53Z</time>
      </trkpt>
      <trkpt lat="49.89428" lon="2.27704">
        <ele>26.9</ele>
        <time>2023-06-23T14:16:54Z</time>
      </trkpt>
      <trkpt lat="49.89427" lon="2.27703">
        <ele>26.9</ele>
        <time>2023-06-23T14:16:56Z</time>
      </trkpt>
      <trkpt lat="49.89426" lon="2.27702">
        <ele>26.9</ele>
        <time>2023-06-23T14:16:57Z</time>
      </trkpt>
      <trkpt lat="49.89426" lon="2.27701">
        <ele>26.8</ele>
        <time>2023-06-23T14:16:58Z</time>
      </trkpt>
      <trkpt lat="49.89424" lon="2.277">
        <ele>26.8</ele>
        <time>2023-06-23T14:16:59Z</time>
      </trkpt>
      <trkpt lat="49.89424" lon="2.27699">
        <ele>26.8</ele>
        <time>2023-06-23T14:17:00Z</time>
      </trkpt>
      <trkpt lat="49.89422" lon="2.27697">
        <ele>26.7</ele>
        <time>2023-06-23T14:17:01Z</time>
      </trkpt>
      <trkpt lat="49.89421" lon="2.27696">
        <ele>26.7</ele>
        <time>2023-06-23T14:17:02Z</time>
      </trkpt>
      <trkpt lat="49.8942" lon="2.27696">
        <ele>26.7</ele>
        <time>2023-06-23T14:17:03Z</time>
      </trkpt>
      <trkpt lat="49.89418" lon="2.27694">
        <ele>26.6</ele>
        <time>2023-06-23T14:17:04Z</time>
      </trkpt>
      <trkpt lat="49.89418" lon="2.27694">
        <ele>26.6</ele>
        <time>2023-06-23T14:17:06Z</time>
      </trkpt>
      <trkpt lat="49.89417" lon="2.27693">
        <ele>26.6</ele>
        <time>2023-06-23T14:17:07Z</time>
      </trkpt>
      <trkpt lat="49.89415" lon="2.27692">
        <ele>26.5</ele>
        <time>2023-06-23T14:17:08Z</time>
      </trkpt>
      <trkpt lat="49.89414" lon="2.27692">
        <ele>26.5</ele>
        <time>2023-06-23T14:17:09Z</time>
      </trkpt>
      <trkpt lat="49.89413" lon="2.27692">
        <ele>26.4</ele>
        <time>2023-06-23T14:17:10Z</time>
      </trkpt>
      <trkpt lat="49.89412" lon="2.27691">
        <ele>26.4</ele>
        <time>2023-06-23T14:17:11Z</time>
      </trkpt>
      <trkpt lat="49.89411" lon="2.27691">
        <ele>26.4</ele>
        <time>2023-06-23T14:17:12Z</time>
      </trkpt>
      <trkpt lat="49.89409" lon="2.27691">
        <ele>26.3</ele>
        <time>2023-06-23T14:17:14Z</time>
      </trkpt>
      <trkpt lat="49.89408" lon="2.2769">
        <ele>26.3</ele>
        <time>2023-06-23T14:17:15Z</time>
      </trkpt>
      <trkpt lat="49.89407" lon="2.27689">
        <ele>26.3</ele>
        <time>2023-06-23T14:17:16Z</time>
      </trkpt>
      <trkpt lat="49.89406" lon="2.27689">
        <ele>26.3</ele>
        <time>2023-06-23T14:17:17Z</time>
      </trkpt>
      <trkpt lat="49.89405" lon="2.27688">
        <ele>26.2</ele>
        <time>2023-06-23T14:17:18Z</time>
      </trkpt>
      <trkpt lat="49.89404" lon="2.27688">
        <ele>26.2</ele>
        <time>2023-06-23T14:17:19Z</time>
      </trkpt>
      <trkpt lat="49.89403" lon="2.27687">
        <ele>26.2</ele>
        <time>2023-06-23T14:17:21Z</time>
      </trkpt>
      <trkpt lat="49.89402" lon="2.27686">
        <ele>26.1</ele>
        <time>2023-06-23T14:17:22Z</time>
      </trkpt>
      <trkpt lat="49.89401" lon="2.27685">
        <ele>26.1</ele>
        <time>2023-06-23T14:17:23Z</time>
      </trkpt>
      <trkpt lat="49.89401" lon="2.27683">
        <ele>26.1</ele>
        <time>2023-06-23T14:17:24Z</time>
      </trkpt>
      <trkpt lat="49.89399" lon="2.27682">
        <ele>26</ele>
        <time>2023-06-23T14:17:25Z</time>
      </trkpt>
      <trkpt lat="49.89399" lon="2.27681">
        <ele>26</ele>
        <time>2023-06-23T14:17:26Z</time>
      </trkpt>
      <trkpt lat="49.89398" lon="2.2768">
        <ele>26</ele>
        <time>2023-06-23T14:17:27Z</time>
      </trkpt>
      <trkpt lat="49.89398" lon="2.27679">
        <ele>26</ele>
        <time>2023-06-23T14:17:28Z</time>
      </trkpt>
      <trkpt lat="49.89397" lon="2.27678">
        <ele>26</ele>
        <time>2023-06-23T14:17:29Z</time>
      </trkpt>
      <trkpt lat="49.89396" lon="2.27676">
        <ele>25.9</ele>
        <time>2023-06-23T14:17:31Z</time>
      </trkpt>
      <trkpt lat="49.89396" lon="2.27675">
        <ele>25.9</ele>
        <time>2023-06-23T14:17:32Z</time>
      </trkpt>
      <trkpt lat="49.89395" lon="2.27674">
        <ele>25.9</ele>
        <time>2023-06-23T14:17:33Z</time>
      </trkpt>
      <trkpt lat="49.89394" lon="2.27673">
        <ele>25.8</ele>
        <time>2023-06-23T14:17:34Z</time>
      </trkpt>
      <trkpt lat="49.89394" lon="2.27671">
        <ele>25.8</ele>
        <time>2023-06-23T14:17:35Z</time>
      </trkpt>
      <trkpt lat="49.89392" lon="2.27669">
        <ele>25.7</ele>
        <time>2023-06-23T14:17:36Z</time>
      </trkpt>
      <trkpt lat="49.89392" lon="2.27668">
        <ele>25.7</ele>
        <time>2023-06-23T14:17:37Z</time>
      </trkpt>
      <trkpt lat="49.89391" lon="2.27667">
        <ele>25.6</ele>
        <time>2023-06-23T14:17:38Z</time>
      </trkpt>
      <trkpt lat="49.8939" lon="2.27666">
        <ele>25.6</ele>
        <time>2023-06-23T14:17:40Z</time>
      </trkpt>
      <trkpt lat="49.89389" lon="2.27665">
        <ele>25.6</ele>
        <time>2023-06-23T14:17:41Z</time>
      </trkpt>
      <trkpt lat="49.89388" lon="2.27664">
        <ele>25.5</ele>
        <time>2023-06-23T14:17:42Z</time>
      </trkpt>
      <trkpt lat="49.89387" lon="2.27664">
        <ele>25.5</ele>
        <time>2023-06-23T14:17:43Z</time>
      </trkpt>
      <trkpt lat="49.89385" lon="2.27663">
        <ele>25.4</ele>
        <time>2023-06-23T14:17:44Z</time>
      </trkpt>
      <trkpt lat="49.89384" lon="2.27663">
        <ele>25.4</ele>
        <time>2023-06-23T14:17:45Z</time>
      </trkpt>
      <trkpt lat="49.89383" lon="2.27662">
        <ele>25.4</ele>
        <time>2023-06-23T14:17:46Z</time>
      </trkpt>
      <trkpt lat="49.89382" lon="2.27662">
        <ele>25.3</ele>
        <time>2023-06-23T14:17:47Z</time>
      </trkpt>
      <trkpt lat="49.8938" lon="2.27661">
        <ele>25.3</ele>
        <time>2023-06-23T14:17:48Z</time>
      </trkpt>
      <trkpt lat="49.89379" lon="2.2766">
        <ele>25.3</ele>
        <time>2023-06-23T14:17:49Z</time>
      </trkpt>
      <trkpt lat="49.89377" lon="2.2766">
        <ele>25.2</ele>
        <time>2023-06-23T14:17:51Z</time>
      </trkpt>
      <trkpt lat="49.89376" lon="2.2766">
        <ele>25.2</ele>
        <time>2023-06-23T14:17:52Z</time>
      </trkpt>
      <trkpt lat="49.89375" lon="2.27659">
        <ele>25.2</ele>
        <time>2023-06-23T14:17:53Z</time>
      </trkpt>
      <trkpt lat="49.89373" lon="2.27658">
        <ele>25.1</ele>
        <time>2023-06-23T14:17:54Z</time>
      </trkpt>
      <trkpt lat="49.89373" lon="2.27658">
        <ele>25.1</ele>
        <time>2023-06-23T14:17:55Z</time>
      </trkpt>
      <trkpt lat="49.89372" lon="2.27657">
        <ele>25.1</ele>
        <time>2023-06-23T14:17:56Z</time>
      </trkpt>
      <trkpt lat="49.89371" lon="2.27656">
        <ele>25</ele>
        <time>2023-06-23T14:17:57Z</time>
      </trkpt>
      <trkpt lat="49.8937" lon="2.27655">
        <ele>25</ele>
        <time>2023-06-23T14:17:58Z</time>
      </trkpt>
      <trkpt lat="49.89369" lon="2.27654">
        <ele>25</ele>
        <time>2023-06-23T14:17:59Z</time>
      </trkpt>
      <trkpt lat="49.89368" lon="2.27652">
        <ele>25</ele>
        <time>2023-06-23T14:18:01Z</time>
      </trkpt>
      <trkpt lat="49.89367" lon="2.27651">
        <ele>25</ele>
        <time>2023-06-23T14:18:02Z</time>
      </trkpt>
      <trkpt lat="49.89366" lon="2.2765">
        <ele>24.9</ele>
        <time>2023-06-23T14:18:03Z</time>
      </trkpt>
      <trkpt lat="49.89365" lon="2.27648">
        <ele>24.9</ele>
        <time>2023-06-23T14:18:04Z</time>
      </trkpt>
      <trkpt lat="49.89365" lon="2.27647">
        <ele>24.9</ele>
        <time>2023-06-23T14:18:05Z</time>
      </trkpt>
      <trkpt lat="49.89364" lon="2.27646">
        <ele>24.9</ele>
        <time>2023-06-23T14:18:06Z</time>
      </trkpt>
      <trkpt lat="49.89363" lon="2.27643">
        <ele>24.8</ele>
        <time>2023-06-23T14:18:08Z</time>
      </trkpt>
      <trkpt lat="49.89362" lon="2.27641">
        <ele>24.8</ele>
        <time>2023-06-23T14:18:09Z</time>
      </trkpt>
      <trkpt lat="49.89361" lon="2.2764">
        <ele>24.8</ele>
        <time>2023-06-23T14:18:10Z</time>
      </trkpt>
      <trkpt lat="49.8936" lon="2.27637">
        <ele>24.8</ele>
        <time>2023-06-23T14:18:12Z</time>
      </trkpt>
      <trkpt lat="49.8936" lon="2.27635">
        <ele>24.8</ele>
        <time>2023-06-23T14:18:13Z</time>
      </trkpt>
      <trkpt lat="49.89359" lon="2.27634">
        <ele>24.8</ele>
        <time>2023-06-23T14:18:14Z</time>
      </trkpt>
      <trkpt lat="49.89359" lon="2.27633">
        <ele>24.8</ele>
        <time>2023-06-23T14:18:15Z</time>
      </trkpt>
      <trkpt lat="49.89358" lon="2.27632">
        <ele>24.8</ele>
        <time>2023-06-23T14:18:16Z</time>
      </trkpt>
      <trkpt lat="49.89357" lon="2.27631">
        <ele>24.7</ele>
        <time>2023-06-23T14:18:17Z</time>
      </trkpt>
      <trkpt lat="49.89356" lon="2.27628">
        <ele>24.7</ele>
        <time>2023-06-23T14:18:18Z</time>
      </trkpt>
      <trkpt lat="49.89355" lon="2.27627">
        <ele>24.7</ele>
        <time>2023-06-23T14:18:19Z</time>
      </trkpt>
      <trkpt lat="49.89355" lon="2.27626">
        <ele>24.7</ele>
        <time>2023-06-23T14:18:20Z</time>
      </trkpt>
      <trkpt lat="49.89353" lon="2.27623">
        <ele>24.7</ele>
        <time>2023-06-23T14:18:22Z</time>
      </trkpt>
      <trkpt lat="49.89353" lon="2.27622">
        <ele>24.7</ele>
        <time>2023-06-23T14:18:23Z</time>
      </trkpt>
      <trkpt lat="49.89352" lon="2.27621">
        <ele>24.7</ele>
        <time>2023-06-23T14:18:24Z</time>
      </trkpt>
      <trkpt lat="49.89351" lon="2.2762">
        <ele>24.7</ele>
        <time>2023-06-23T14:18:25Z</time>
      </trkpt>
      <trkpt lat="49.89351" lon="2.27619">
        <ele>24.7</ele>
        <time>2023-06-23T14:18:26Z</time>
      </trkpt>
      <trkpt lat="49.8935" lon="2.27617">
        <ele>24.7</ele>
        <time>2023-06-23T14:18:27Z</time>
      </trkpt>
      <trkpt lat="49.89349" lon="2.27616">
        <ele>24.6</ele>
        <time>2023-06-23T14:18:28Z</time>
      </trkpt>
      <trkpt lat="49.89348" lon="2.27614">
        <ele>24.6</ele>
        <time>2023-06-23T14:18:29Z</time>
      </trkpt>
      <trkpt lat="49.89346" lon="2.27611">
        <ele>24.6</ele>
        <time>2023-06-23T14:18:31Z</time>
      </trkpt>
      <trkpt lat="49.89346" lon="2.2761">
        <ele>24.6</ele>
        <time>2023-06-23T14:18:32Z</time>
      </trkpt>
      <trkpt lat="49.89345" lon="2.2761">
        <ele>24.6</ele>
        <time>2023-06-23T14:18:33Z</time>
      </trkpt>
      <trkpt lat="49.89344" lon="2.27607">
        <ele>24.6</ele>
        <time>2023-06-23T14:18:34Z</time>
      </trkpt>
      <trkpt lat="49.89344" lon="2.27606">
        <ele>24.6</ele>
        <time>2023-06-23T14:18:35Z</time>
      </trkpt>
      <trkpt lat="49.89343" lon="2.27603">
        <ele>24.6</ele>
        <time>2023-06-23T14:18:36Z</time>
      </trkpt>
      <trkpt lat="49.89342" lon="2.27602">
        <ele>24.6</ele>
        <time>2023-06-23T14:18:37Z</time>
      </trkpt>
      <trkpt lat="49.89342" lon="2.27601">
        <ele>24.5</ele>
        <time>2023-06-23T14:18:38Z</time>
      </trkpt>
      <trkpt lat="49.8934" lon="2.27597">
        <ele>24.5</ele>
        <time>2023-06-23T14:18:39Z</time>
      </trkpt>
      <trkpt lat="49.89339" lon="2.27596">
        <ele>24.5</ele>
        <time>2023-06-23T14:18:41Z</time>
      </trkpt>
      <trkpt lat="49.89338" lon="2.27595">
        <ele>24.5</ele>
        <time>2023-06-23T14:18:42Z</time>
      </trkpt>
      <trkpt lat="49.89338" lon="2.27594">
        <ele>24.5</ele>
        <time>2023-06-23T14:18:43Z</time>
      </trkpt>
      <trkpt lat="49.89337" lon="2.27592">
        <ele>24.5</ele>
        <time>2023-06-23T14:18:44Z</time>
      </trkpt>
      <trkpt lat="49.89336" lon="2.27591">
        <ele>24.5</ele>
        <time>2023-06-23T14:18:45Z</time>
      </trkpt>
      <trkpt lat="49.89336" lon="2.2759">
        <ele>24.5</ele>
        <time>2023-06-23T14:18:46Z</time>
      </trkpt>
      <trkpt lat="49.89335" lon="2.27588">
        <ele>24.5</ele>
        <time>2023-06-23T14:18:47Z</time>
      </trkpt>
      <trkpt lat="49.89334" lon="2.27586">
        <ele>24.4</ele>
        <time>2023-06-23T14:18:48Z</time>
      </trkpt>
      <trkpt lat="49.89333" lon="2.27585">
        <ele>24.4</ele>
        <time>2023-06-23T14:18:50Z</time>
      </trkpt>
      <trkpt lat="49.89332" lon="2.27584">
        <ele>24.4</ele>
        <time>2023-06-23T14:18:51Z</time>
      </trkpt>
      <trkpt lat="49.89331" lon="2.27583">
        <ele>24.4</ele>
        <time>2023-06-23T14:18:52Z</time>
      </trkpt>
      <trkpt lat="49.8933" lon="2.27581">
        <ele>24.4</ele>
        <time>2023-06-23T14:18:53Z</time>
      </trkpt>
      <trkpt lat="49.89329" lon="2.27579">
        <ele>24.4</ele>
        <time>2023-06-23T14:18:54Z</time>
      </trkpt>
      <trkpt lat="49.89329" lon="2.27579">
        <ele>24.4</ele>
        <time>2023-06-23T14:18:55Z</time>
      </trkpt>
      <trkpt lat="49.89329" lon="2.27577">
        <ele>24.4</ele>
        <time>2023-06-23T14:18:56Z</time>
      </trkpt>
      <trkpt lat="49.89328" lon="2.27575">
        <ele>24.4</ele>
        <time>2023-06-23T14:18:58Z</time>
      </trkpt>
      <trkpt lat="49.89328" lon="2.27573">
        <ele>24.4</ele>
        <time>2023-06-23T14:18:59Z</time>
      </trkpt>
      <trkpt lat="49.89328" lon="2.27572">
        <ele>24.4</ele>
        <time>2023-06-23T14:19:00Z</time>
      </trkpt>
      <trkpt lat="49.89328" lon="2.2757">
        <ele>24.3</ele>
        <time>2023-06-23T14:19:01Z</time>
      </trkpt>
      <trkpt lat="49.89327" lon="2.27569">
        <ele>24.3</ele>
        <time>2023-06-23T14:19:02Z</time>
      </trkpt>
      <trkpt lat="49.89326" lon="2.27568">
        <ele>24.3</ele>
        <time>2023-06-23T14:19:03Z</time>
      </trkpt>
      <trkpt lat="49.89326" lon="2.27566">
        <ele>24.3</ele>
        <time>2023-06-23T14:19:05Z</time>
      </trkpt>
      <trkpt lat="49.89325" lon="2.27565">
        <ele>24.3</ele>
        <time>2023-06-23T14:19:06Z</time>
      </trkpt>
      <trkpt lat="49.89324" lon="2.27564">
        <ele>24.3</ele>
        <time>2023-06-23T14:19:07Z</time>
      </trkpt>
      <trkpt lat="49.89323" lon="2.27563">
        <ele>24.3</ele>
        <time>2023-06-23T14:19:08Z</time>
      </trkpt>
      <trkpt lat="49.89322" lon="2.27561">
        <ele>24.3</ele>
        <time>2023-06-23T14:19:09Z</time>
      </trkpt>
      <trkpt lat="49.89322" lon="2.27561">
        <ele>24.3</ele>
        <time>2023-06-23T14:19:10Z</time>
      </trkpt>
      <trkpt lat="49.89321" lon="2.2756">
        <ele>24.3</ele>
        <time>2023-06-23T14:19:11Z</time>
      </trkpt>
      <trkpt lat="49.8932" lon="2.27559">
        <ele>24.3</ele>
        <time>2023-06-23T14:19:12Z</time>
      </trkpt>
      <trkpt lat="49.8932" lon="2.27557">
        <ele>24.3</ele>
        <time>2023-06-23T14:19:14Z</time>
      </trkpt>
      <trkpt lat="49.89319" lon="2.27556">
        <ele>24.3</ele>
        <time>2023-06-23T14:19:15Z</time>
      </trkpt>
      <trkpt lat="49.89319" lon="2.27555">
        <ele>24.2</ele>
        <time>2023-06-23T14:19:16Z</time>
      </trkpt>
      <trkpt lat="49.89318" lon="2.27553">
        <ele>24.2</ele>
        <time>2023-06-23T14:19:17Z</time>
      </trkpt>
      <trkpt lat="49.89318" lon="2.27552">
        <ele>24.2</ele>
        <time>2023-06-23T14:19:18Z</time>
      </trkpt>
      <trkpt lat="49.89317" lon="2.2755">
        <ele>24.2</ele>
        <time>2023-06-23T14:19:19Z</time>
      </trkpt>
      <trkpt lat="49.89316" lon="2.27548">
        <ele>24.2</ele>
        <time>2023-06-23T14:19:20Z</time>
      </trkpt>
      <trkpt lat="49.89315" lon="2.27547">
        <ele>24.2</ele>
        <time>2023-06-23T14:19:22Z</time>
      </trkpt>
      <trkpt lat="49.89314" lon="2.27546">
        <ele>24.2</ele>
        <time>2023-06-23T14:19:23Z</time>
      </trkpt>
      <trkpt lat="49.89313" lon="2.27544">
        <ele>24.2</ele>
        <time>2023-06-23T14:19:24Z</time>
      </trkpt>
      <trkpt lat="49.89312" lon="2.27543">
        <ele>24.2</ele>
        <time>2023-06-23T14:19:25Z</time>
      </trkpt>
      <trkpt lat="49.89311" lon="2.27542">
        <ele>24.2</ele>
        <time>2023-06-23T14:19:26Z</time>
      </trkpt>
      <trkpt lat="49.8931" lon="2.27542">
        <ele>24.2</ele>
        <time>2023-06-23T14:19:27Z</time>
      </trkpt>
      <trkpt lat="49.89309" lon="2.27541">
        <ele>24.2</ele>
        <time>2023-06-23T14:19:28Z</time>
      </trkpt>
      <trkpt lat="49.89307" lon="2.27542">
        <ele>24.2</ele>
        <time>2023-06-23T14:19:30Z</time>
      </trkpt>
      <trkpt lat="49.89307" lon="2.27544">
        <ele>24.1</ele>
        <time>2023-06-23T14:19:31Z</time>
      </trkpt>
      <trkpt lat="49.89306" lon="2.27545">
        <ele>24.1</ele>
        <time>2023-06-23T14:19:32Z</time>
      </trkpt>
      <trkpt lat="49.89305" lon="2.27547">
        <ele>24.1</ele>
        <time>2023-06-23T14:19:34Z</time>
      </trkpt>
      <trkpt lat="49.89303" lon="2.27549">
        <ele>24.1</ele>
        <time>2023-06-23T14:19:35Z</time>
      </trkpt>
      <trkpt lat="49.89302" lon="2.2755">
        <ele>24.1</ele>
        <time>2023-06-23T14:19:36Z</time>
      </trkpt>
      <trkpt lat="49.89302" lon="2.27552">
        <ele>24.1</ele>
        <time>2023-06-23T14:19:37Z</time>
      </trkpt>
      <trkpt lat="49.89301" lon="2.27553">
        <ele>24.1</ele>
        <time>2023-06-23T14:19:38Z</time>
      </trkpt>
      <trkpt lat="49.893" lon="2.27553">
        <ele>24.1</ele>
        <time>2023-06-23T14:19:39Z</time>
      </trkpt>
      <trkpt lat="49.89299" lon="2.27552">
        <ele>24.1</ele>
        <time>2023-06-23T14:19:40Z</time>
      </trkpt>
      <trkpt lat="49.89299" lon="2.27551">
        <ele>24.1</ele>
        <time>2023-06-23T14:19:42Z</time>
      </trkpt>
      <trkpt lat="49.89298" lon="2.2755">
        <ele>24.1</ele>
        <time>2023-06-23T14:19:43Z</time>
      </trkpt>
      <trkpt lat="49.89298" lon="2.27548">
        <ele>24.1</ele>
        <time>2023-06-23T14:19:44Z</time>
      </trkpt>
      <trkpt lat="49.89298" lon="2.27546">
        <ele>24.1</ele>
        <time>2023-06-23T14:19:45Z</time>
      </trkpt>
      <trkpt lat="49.89298" lon="2.27545">
        <ele>24.1</ele>
        <time>2023-06-23T14:19:46Z</time>
      </trkpt>
      <trkpt lat="49.89298" lon="2.27543">
        <ele>24.1</ele>
        <time>2023-06-23T14:19:47Z</time>
      </trkpt>
      <trkpt lat="49.89298" lon="2.27541">
        <ele>24.1</ele>
        <time>2023-06-23T14:19:48Z</time>
      </trkpt>
      <trkpt lat="49.89298" lon="2.27539">
        <ele>24.1</ele>
        <time>2023-06-23T14:19:49Z</time>
      </trkpt>
      <trkpt lat="49.89298" lon="2.27537">
        <ele>24.1</ele>
        <time>2023-06-23T14:19:51Z</time>
      </trkpt>
      <trkpt lat="49.89298" lon="2.27536">
        <ele>24.1</ele>
        <time>2023-06-23T14:19:52Z</time>
      </trkpt>
      <trkpt lat="49.89298" lon="2.27534">
        <ele>24.1</ele>
        <time>2023-06-23T14:19:53Z</time>
      </trkpt>
      <trkpt lat="49.89297" lon="2.27532">
        <ele>24.1</ele>
        <time>2023-06-23T14:19:54Z</time>
      </trkpt>
      <trkpt lat="49.89297" lon="2.27529">
        <ele>24.1</ele>
        <time>2023-06-23T14:19:56Z</time>
      </trkpt>
      <trkpt lat="49.89297" lon="2.27528">
        <ele>24.1</ele>
        <time>2023-06-23T14:19:57Z</time>
      </trkpt>
      <trkpt lat="49.89296" lon="2.27527">
        <ele>24.1</ele>
        <time>2023-06-23T14:19:58Z</time>
      </trkpt>
      <trkpt lat="49.89296" lon="2.27525">
        <ele>24.1</ele>
        <time>2023-06-23T14:19:59Z</time>
      </trkpt>
      <trkpt lat="49.89295" lon="2.27524">
        <ele>24.1</ele>
        <time>2023-06-23T14:20:00Z</time>
      </trkpt>
      <trkpt lat="49.89295" lon="2.27522">
        <ele>24.1</ele>
        <time>2023-06-23T14:20:01Z</time>
      </trkpt>
      <trkpt lat="49.89294" lon="2.27521">
        <ele>24</ele>
        <time>2023-06-23T14:20:02Z</time>
      </trkpt>
      <trkpt lat="49.89294" lon="2.27519">
        <ele>24</ele>
        <time>2023-06-23T14:20:03Z</time>
      </trkpt>
      <trkpt lat="49.89293" lon="2.27517">
        <ele>24</ele>
        <time>2023-06-23T14:20:05Z</time>
      </trkpt>
      <trkpt lat="49.89292" lon="2.27517">
        <ele>24</ele>
        <time>2023-06-23T14:20:06Z</time>
      </trkpt>
      <trkpt lat="49.89292" lon="2.27516">
        <ele>24</ele>
        <time>2023-06-23T14:20:07Z</time>
      </trkpt>
      <trkpt lat="49.89292" lon="2.27514">
        <ele>24</ele>
        <time>2023-06-23T14:20:08Z</time>
      </trkpt>
      <trkpt lat="49.89291" lon="2.27513">
        <ele>24</ele>
        <time>2023-06-23T14:20:09Z</time>
      </trkpt>
      <trkpt lat="49.8929" lon="2.2751">
        <ele>24</ele>
        <time>2023-06-23T14:20:11Z</time>
      </trkpt>
      <trkpt lat="49.8929" lon="2.27509">
        <ele>24</ele>
        <time>2023-06-23T14:20:12Z</time>
      </trkpt>
      <trkpt lat="49.89289" lon="2.27508">
        <ele>24</ele>
        <time>2023-06-23T14:20:13Z</time>
      </trkpt>
      <trkpt lat="49.89289" lon="2.27506">
        <ele>24</ele>
        <time>2023-06-23T14:20:14Z</time>
      </trkpt>
      <trkpt lat="49.89288" lon="2.27504">
        <ele>24</ele>
        <time>2023-06-23T14:20:15Z</time>
      </trkpt>
      <trkpt lat="49.89288" lon="2.27503">
        <ele>24</ele>
        <time>2023-06-23T14:20:16Z</time>
      </trkpt>
      <trkpt lat="49.89287" lon="2.27502">
        <ele>24</ele>
        <time>2023-06-23T14:20:17Z</time>
      </trkpt>
      <trkpt lat="49.89287" lon="2.275">
        <ele>24</ele>
        <time>2023-06-23T14:20:19Z</time>
      </trkpt>
      <trkpt lat="49.89286" lon="2.27498">
        <ele>24</ele>
        <time>2023-06-23T14:20:20Z</time>
      </trkpt>
      <trkpt lat="49.89285" lon="2.27497">
        <ele>24</ele>
        <time>2023-06-23T14:20:21Z</time>
      </trkpt>
      <trkpt lat="49.89285" lon="2.27495">
        <ele>24</ele>
        <time>2023-06-23T14:20:22Z</time>
      </trkpt>
      <trkpt lat="49.89284" lon="2.27494">
        <ele>24</ele>
        <time>2023-06-23T14:20:23Z</time>
      </trkpt>
      <trkpt lat="49.89283" lon="2.27492">
        <ele>24</ele>
        <time>2023-06-23T14:20:24Z</time>
      </trkpt>
      <trkpt lat="49.89282" lon="2.2749">
        <ele>24</ele>
        <time>2023-06-23T14:20:26Z</time>
      </trkpt>
      <trkpt lat="49.89281" lon="2.27488">
        <ele>24</ele>
        <time>2023-06-23T14:20:27Z</time>
      </trkpt>
      <trkpt lat="49.89281" lon="2.27487">
        <ele>24</ele>
        <time>2023-06-23T14:20:28Z</time>
      </trkpt>
      <trkpt lat="49.8928" lon="2.27486">
        <ele>24</ele>
        <time>2023-06-23T14:20:29Z</time>
      </trkpt>
      <trkpt lat="49.8928" lon="2.27485">
        <ele>24</ele>
        <time>2023-06-23T14:20:30Z</time>
      </trkpt>
      <trkpt lat="49.89279" lon="2.27484">
        <ele>24</ele>
        <time>2023-06-23T14:20:32Z</time>
      </trkpt>
      <trkpt lat="49.89279" lon="2.27482">
        <ele>24</ele>
        <time>2023-06-23T14:20:33Z</time>
      </trkpt>
      <trkpt lat="49.89278" lon="2.27481">
        <ele>24</ele>
        <time>2023-06-23T14:20:34Z</time>
      </trkpt>
      <trkpt lat="49.89279" lon="2.2748">
        <ele>24</ele>
        <time>2023-06-23T14:20:35Z</time>
      </trkpt>
      <trkpt lat="49.89279" lon="2.2748">
        <ele>24</ele>
        <time>2023-06-23T14:20:36Z</time>
      </trkpt>
      <trkpt lat="49.8928" lon="2.27481">
        <ele>24</ele>
        <time>2023-06-23T14:20:38Z</time>
      </trkpt>
      <trkpt lat="49.8928" lon="2.27483">
        <ele>24</ele>
        <time>2023-06-23T14:20:39Z</time>
      </trkpt>
      <trkpt lat="49.8928" lon="2.27485">
        <ele>24</ele>
        <time>2023-06-23T14:20:41Z</time>
      </trkpt>
      <trkpt lat="49.8928" lon="2.27486">
        <ele>24</ele>
        <time>2023-06-23T14:20:42Z</time>
      </trkpt>
      <trkpt lat="49.8928" lon="2.27487">
        <ele>24</ele>
        <time>2023-06-23T14:20:44Z</time>
      </trkpt>
      <trkpt lat="49.8928" lon="2.27487">
        <ele>24</ele>
        <time>2023-06-23T14:20:45Z</time>
      </trkpt>
      <trkpt lat="49.8928" lon="2.27488">
        <ele>24</ele>
        <time>2023-06-23T14:20:47Z</time>
      </trkpt>
      <trkpt lat="49.8928" lon="2.27488">
        <ele>24</ele>
        <time>2023-06-23T14:20:48Z</time>
      </trkpt>
      <trkpt lat="49.8928" lon="2.27489">
        <ele>24</ele>
        <time>2023-06-23T14:20:50Z</time>
      </trkpt>
      <trkpt lat="49.8928" lon="2.27489">
        <ele>24</ele>
        <time>2023-06-23T14:20:51Z</time>
      </trkpt>
      <trkpt lat="49.8928" lon="2.27489">
        <ele>24</ele>
        <time>2023-06-23T14:20:52Z</time>
      </trkpt>
      <trkpt lat="49.89281" lon="2.27489">
        <ele>24</ele>
        <time>2023-06-23T14:20:54Z</time>
      </trkpt>
      <trkpt lat="49.89281" lon="2.27489">
        <ele>24</ele>
        <time>2023-06-23T14:20:55Z</time>
      </trkpt>
      <trkpt lat="49.89281" lon="2.27489">
        <ele>24</ele>
        <time>2023-06-23T14:20:56Z</time>
      </trkpt>
      <trkpt lat="49.89281" lon="2.27489">
        <ele>24</ele>
        <time>2023-06-23T14:20:57Z</time>
      </trkpt>
      <trkpt lat="49.89281" lon="2.27489">
        <ele>24</ele>
        <time>2023-06-23T14:20:58Z</time>
      </trkpt>
      <trkpt lat="49.8928" lon="2.2749">
        <ele>24</ele>
        <time>2023-06-23T14:20:59Z</time>
      </trkpt>
      <trkpt lat="49.8928" lon="2.27492">
        <ele>24</ele>
        <time>2023-06-23T14:21:00Z</time>
      </trkpt>
      <trkpt lat="49.8928" lon="2.27492">
        <ele>24</ele>
        <time>2023-06-23T14:21:01Z</time>
      </trkpt>
      <trkpt lat="49.8928" lon="2.27493">
        <ele>24</ele>
        <time>2023-06-23T14:21:02Z</time>
      </trkpt>
      <trkpt lat="49.8928" lon="2.27494">
        <ele>24</ele>
        <time>2023-06-23T14:21:03Z</time>
      </trkpt>
      <trkpt lat="49.89279" lon="2.27494">
        <ele>24</ele>
        <time>2023-06-23T14:21:04Z</time>
      </trkpt>
      <trkpt lat="49.89279" lon="2.27494">
        <ele>23.9</ele>
        <time>2023-06-23T14:21:05Z</time>
      </trkpt>
      <trkpt lat="49.89279" lon="2.27494">
        <ele>23.9</ele>
        <time>2023-06-23T14:21:06Z</time>
      </trkpt>
      <trkpt lat="49.89279" lon="2.27494">
        <ele>23.9</ele>
        <time>2023-06-23T14:21:07Z</time>
      </trkpt>
      <trkpt lat="49.89279" lon="2.27494">
        <ele>23.9</ele>
        <time>2023-06-23T14:21:08Z</time>
      </trkpt>
      <trkpt lat="49.89279" lon="2.27494">
        <ele>23.9</ele>
        <time>2023-06-23T14:21:09Z</time>
      </trkpt>
      <trkpt lat="49.89279" lon="2.27494">
        <ele>23.9</ele>
        <time>2023-06-23T14:21:10Z</time>
      </trkpt>
      <trkpt lat="49.89279" lon="2.27494">
        <ele>23.9</ele>
        <time>2023-06-23T14:21:11Z</time>
      </trkpt>
      <trkpt lat="49.89279" lon="2.27493">
        <ele>23.9</ele>
        <time>2023-06-23T14:21:12Z</time>
      </trkpt>
      <trkpt lat="49.89279" lon="2.27493">
        <ele>23.9</ele>
        <time>2023-06-23T14:21:13Z</time>
      </trkpt>
      <trkpt lat="49.89279" lon="2.27493">
        <ele>23.9</ele>
        <time>2023-06-23T14:21:14Z</time>
      </trkpt>
      <trkpt lat="49.89279" lon="2.27493">
        <ele>23.9</ele>
        <time>2023-06-23T14:21:15Z</time>
      </trkpt>
      <trkpt lat="49.89279" lon="2.27493">
        <ele>23.9</ele>
        <time>2023-06-23T14:21:16Z</time>
      </trkpt>
      <trkpt lat="49.89279" lon="2.27493">
        <ele>23.9</ele>
        <time>2023-06-23T14:21:17Z</time>
      </trkpt>
      <trkpt lat="49.89279" lon="2.27493">
        <ele>23.9</ele>
        <time>2023-06-23T14:21:18Z</time>
      </trkpt>
      <trkpt lat="49.89279" lon="2.27493">
        <ele>23.9</ele>
        <time>2023-06-23T14:21:19Z</time>
      </trkpt>
      <trkpt lat="49.89279" lon="2.27492">
        <ele>23.9</ele>
        <time>2023-06-23T14:21:20Z</time>
      </trkpt>
      <trkpt lat="49.89279" lon="2.27492">
        <ele>23.9</ele>
        <time>2023-06-23T14:21:21Z</time>
      </trkpt>
      <trkpt lat="49.89278" lon="2.27492">
        <ele>23.9</ele>
        <time>2023-06-23T14:21:22Z</time>
      </trkpt>
      <trkpt lat="49.89278" lon="2.27492">
        <ele>23.9</ele>
        <time>2023-06-23T14:21:23Z</time>
      </trkpt>
      <trkpt lat="49.89278" lon="2.27492">
        <ele>23.9</ele>
        <time>2023-06-23T14:21:24Z</time>
      </trkpt>
      <trkpt lat="49.89278" lon="2.27492">
        <ele>23.9</ele>
        <time>2023-06-23T14:21:25Z</time>
      </trkpt>
      <trkpt lat="49.89278" lon="2.27492">
        <ele>23.9</ele>
        <time>2023-06-23T14:21:26Z</time>
      </trkpt>
      <trkpt lat="49.89278" lon="2.27491">
        <ele>23.9</ele>
        <time>2023-06-23T14:21:27Z</time>
      </trkpt>
      <trkpt lat="49.89278" lon="2.27491">
        <ele>23.9</ele>
        <time>2023-06-23T14:21:28Z</time>
      </trkpt>
      <trkpt lat="49.89278" lon="2.27491">
        <ele>23.9</ele>
        <time>2023-06-23T14:21:29Z</time>
      </trkpt>
      <trkpt lat="49.89278" lon="2.27491">
        <ele>23.9</ele>
        <time>2023-06-23T14:21:30Z</time>
      </trkpt>
      <trkpt lat="49.89278" lon="2.27491">
        <ele>23.9</ele>
        <time>2023-06-23T14:21:31Z</time>
      </trkpt>
      <trkpt lat="49.89278" lon="2.27491">
        <ele>23.9</ele>
        <time>2023-06-23T14:21:32Z</time>
      </trkpt>
      <trkpt lat="49.89278" lon="2.27491">
        <ele>23.9</ele>
        <time>2023-06-23T14:21:33Z</time>
      </trkpt>
      <trkpt lat="49.89278" lon="2.27491">
        <ele>23.9</ele>
        <time>2023-06-23T14:21:34Z</time>
      </trkpt>
      <trkpt lat="49.89278" lon="2.2749">
        <ele>23.9</ele>
        <time>2023-06-23T14:21:35Z</time>
      </trkpt>
      <trkpt lat="49.89278" lon="2.2749">
        <ele>23.9</ele>
        <time>2023-06-23T14:21:36Z</time>
      </trkpt>
      <trkpt lat="49.89278" lon="2.2749">
        <ele>23.9</ele>
        <time>2023-06-23T14:21:37Z</time>
      </trkpt>
      <trkpt lat="49.89278" lon="2.2749">
        <ele>23.9</ele>
        <time>2023-06-23T14:21:38Z</time>
      </trkpt>
      <trkpt lat="49.89278" lon="2.2749">
        <ele>23.9</ele>
        <time>2023-06-23T14:21:39Z</time>
      </trkpt>
      <trkpt lat="49.89278" lon="2.2749">
        <ele>23.9</ele>
        <time>2023-06-23T14:21:40Z</time>
      </trkpt>
      <trkpt lat="49.89278" lon="2.2749">
        <ele>23.9</ele>
        <time>2023-06-23T14:21:41Z</time>
      </trkpt>
      <trkpt lat="49.89277" lon="2.27489">
        <ele>23.9</ele>
        <time>2023-06-23T14:21:42Z</time>
      </trkpt>
      <trkpt lat="49.89277" lon="2.27489">
        <ele>23.9</ele>
        <time>2023-06-23T14:21:43Z</time>
      </trkpt>
      <trkpt lat="49.89277" lon="2.27489">
        <ele>23.9</ele>
        <time>2023-06-23T14:21:44Z</time>
      </trkpt>
      <trkpt lat="49.89277" lon="2.27489">
        <ele>23.9</ele>
        <time>2023-06-23T14:21:45Z</time>
      </trkpt>
      <trkpt lat="49.89277" lon="2.27489">
        <ele>23.9</ele>
        <time>2023-06-23T14:21:46Z</time>
      </trkpt>
      <trkpt lat="49.89276" lon="2.27488">
        <ele>23.9</ele>
        <time>2023-06-23T14:21:47Z</time>
      </trkpt>
      <trkpt lat="49.89275" lon="2.27488">
        <ele>23.9</ele>
        <time>2023-06-23T14:21:48Z</time>
      </trkpt>
      <trkpt lat="49.89275" lon="2.27489">
        <ele>23.9</ele>
        <time>2023-06-23T14:21:49Z</time>
      </trkpt>
      <trkpt lat="49.89274" lon="2.27489">
        <ele>23.9</ele>
        <time>2023-06-23T14:21:50Z</time>
      </trkpt>
      <trkpt lat="49.89274" lon="2.27489">
        <ele>23.9</ele>
        <time>2023-06-23T14:21:51Z</time>
      </trkpt>
      <trkpt lat="49.89273" lon="2.27489">
        <ele>23.9</ele>
        <time>2023-06-23T14:21:52Z</time>
      </trkpt>
      <trkpt lat="49.89273" lon="2.27489">
        <ele>23.9</ele>
        <time>2023-06-23T14:21:53Z</time>
      </trkpt>
      <trkpt lat="49.89273" lon="2.27489">
        <ele>23.9</ele>
        <time>2023-06-23T14:21:54Z</time>
      </trkpt>
      <trkpt lat="49.89273" lon="2.27488">
        <ele>23.9</ele>
        <time>2023-06-23T14:21:55Z</time>
      </trkpt>
      <trkpt lat="49.89272" lon="2.27488">
        <ele>23.9</ele>
        <time>2023-06-23T14:21:56Z</time>
      </trkpt>
      <trkpt lat="49.89272" lon="2.27488">
        <ele>23.9</ele>
        <time>2023-06-23T14:21:57Z</time>
      </trkpt>
      <trkpt lat="49.89272" lon="2.27488">
        <ele>23.9</ele>
        <time>2023-06-23T14:21:58Z</time>
      </trkpt>
      <trkpt lat="49.89272" lon="2.27488">
        <ele>23.9</ele>
        <time>2023-06-23T14:21:59Z</time>
      </trkpt>
      <trkpt lat="49.89271" lon="2.27488">
        <ele>23.9</ele>
        <time>2023-06-23T14:22:00Z</time>
      </trkpt>
      <trkpt lat="49.89271" lon="2.27488">
        <ele>23.9</ele>
        <time>2023-06-23T14:22:01Z</time>
      </trkpt>
      <trkpt lat="49.89271" lon="2.27488">
        <ele>23.9</ele>
        <time>2023-06-23T14:22:02Z</time>
      </trkpt>
      <trkpt lat="49.89271" lon="2.27488">
        <ele>23.9</ele>
        <time>2023-06-23T14:22:04Z</time>
      </trkpt>
      <trkpt lat="49.8927" lon="2.27488">
        <ele>23.9</ele>
        <time>2023-06-23T14:22:05Z</time>
      </trkpt>
      <trkpt lat="49.8927" lon="2.27488">
        <ele>23.9</ele>
        <time>2023-06-23T14:22:07Z</time>
      </trkpt>
      <trkpt lat="49.8927" lon="2.27488">
        <ele>23.9</ele>
        <time>2023-06-23T14:22:08Z</time>
      </trkpt>
      <trkpt lat="49.8927" lon="2.27487">
        <ele>23.9</ele>
        <time>2023-06-23T14:22:10Z</time>
      </trkpt>
      <trkpt lat="49.89271" lon="2.27487">
        <ele>23.9</ele>
        <time>2023-06-23T14:22:11Z</time>
      </trkpt>
      <trkpt lat="49.89271" lon="2.27486">
        <ele>23.9</ele>
        <time>2023-06-23T14:22:13Z</time>
      </trkpt>
      <trkpt lat="49.89271" lon="2.27485">
        <ele>23.9</ele>
        <time>2023-06-23T14:22:14Z</time>
      </trkpt>
    </trkseg>
  </trk>
</gpx>